<?xml version="1.0" encoding="UTF-8" standalone="no" ?><gpx xmlns="http://www.topografix.com/GPX/1/1" xmlns:xsi="http://www.w3.org/2001/XMLSchema-instance" creator="Kurviger.de version 0.9" version="1.1" xmlns:gh="https://kurviger.de/public/schema/gpx/1.1">
<metadata><name>InsKuetaiTal</name><copyright author="OpenStreetMap contributors"/><link href="https://kurviger.de"><text>Kurviger.de GPX</text></link><time>2017-03-04T16:22:34Z</time></metadata>
<rte><name>InsKuetaiTal</name>
<rtept lat="47.739564" lon="10.689207"><desc>geradeaus auf Dorfstraße</desc></rtept>
<rtept lat="47.653938" lon="10.723643"></rtept>
<rtept lat="47.624369" lon="10.815014"></rtept>
<rtept lat="47.547198" lon="10.658709"></rtept>
<rtept lat="47.489196" lon="10.71819"></rtept>
<rtept lat="47.419835" lon="10.583697"></rtept>
<rtept lat="47.325871" lon="10.532447"></rtept>
<rtept lat="47.283537" lon="10.616302"></rtept>
<rtept lat="47.281428" lon="10.744282"></rtept>
<rtept lat="47.224242" lon="10.730404"></rtept>
<rtept lat="47.140454" lon="10.564138"></rtept>
<rtept lat="47.114899" lon="10.620391"></rtept>
<rtept lat="47.151742" lon="10.725572"></rtept>
<rtept lat="47.22112" lon="10.75693"></rtept>
<rtept lat="47.231565" lon="10.854189"></rtept>
<rtept lat="47.200813" lon="10.89981"></rtept>
<rtept lat="47.217479" lon="10.877999"></rtept>
<rtept lat="47.223773" lon="11.055148"></rtept>
<rtept lat="47.19473" lon="11.15993"></rtept>
<rtept lat="47.248143" lon="11.268037"></rtept>
<rtept lat="47.313231" lon="11.10931"></rtept>
<rtept lat="47.292545" lon="10.840913"></rtept>
<rtept lat="47.358736" lon="10.823438"></rtept>
<rtept lat="47.390764" lon="10.91465"></rtept>
<rtept lat="47.465403" lon="10.923332"></rtept>
<rtept lat="47.480847" lon="11.061325"></rtept>
<rtept lat="47.556919" lon="11.137545"></rtept>
<rtept lat="47.607434" lon="11.031436"></rtept>
<rtept lat="47.671092" lon="11.029969"></rtept>
<rtept lat="47.709977" lon="10.978636"></rtept>
<rtept lat="47.703896" lon="10.86266"></rtept>
</rte>
<trk><name>InsKuetaiTal</name><trkseg>
<trkpt lat="47.739564" lon="10.689207"><ele>731.5</ele><time>2017-03-04T16:22:34Z</time></trkpt>
<trkpt lat="47.739253" lon="10.688735"><ele>731.0</ele><time>2017-03-04T16:22:41Z</time></trkpt>
<trkpt lat="47.739118" lon="10.688531"><ele>731.0</ele><time>2017-03-04T16:22:44Z</time></trkpt>
<trkpt lat="47.738601" lon="10.68849"><ele>731.0</ele><time>2017-03-04T16:22:49Z</time></trkpt>
<trkpt lat="47.737959" lon="10.688554"><ele>733.0</ele><time>2017-03-04T16:22:56Z</time></trkpt>
<trkpt lat="47.737247" lon="10.688724"><ele>733.0</ele><time>2017-03-04T16:23:03Z</time></trkpt>
<trkpt lat="47.736174" lon="10.688911"><ele>735.0</ele><time>2017-03-04T16:23:13Z</time></trkpt>
<trkpt lat="47.735984" lon="10.688956"><ele>735.0</ele><time>2017-03-04T16:23:15Z</time></trkpt>
<trkpt lat="47.735691" lon="10.689067"><ele>736.0</ele><time>2017-03-04T16:23:18Z</time></trkpt>
<trkpt lat="47.735053" lon="10.689366"><ele>737.0</ele><time>2017-03-04T16:23:25Z</time></trkpt>
<trkpt lat="47.734906" lon="10.689411"><ele>737.0</ele><time>2017-03-04T16:23:26Z</time></trkpt>
<trkpt lat="47.734505" lon="10.689479"><ele>737.0</ele><time>2017-03-04T16:23:30Z</time></trkpt>
<trkpt lat="47.73438" lon="10.689558"><ele>737.0</ele><time>2017-03-04T16:23:32Z</time></trkpt>
<trkpt lat="47.734325" lon="10.689657"><ele>737.0</ele><time>2017-03-04T16:23:33Z</time></trkpt>
<trkpt lat="47.73429" lon="10.689755"><ele>737.0</ele><time>2017-03-04T16:23:33Z</time></trkpt>
<trkpt lat="47.734272" lon="10.689877"><ele>737.0</ele><time>2017-03-04T16:23:34Z</time></trkpt>
<trkpt lat="47.7343" lon="10.690652"><ele>742.0</ele><time>2017-03-04T16:23:42Z</time></trkpt>
<trkpt lat="47.734277" lon="10.691177"><ele>747.0</ele><time>2017-03-04T16:23:47Z</time></trkpt>
<trkpt lat="47.73424" lon="10.69137"><ele>747.0</ele><time>2017-03-04T16:23:48Z</time></trkpt>
<trkpt lat="47.734192" lon="10.691467"><ele>747.0</ele><time>2017-03-04T16:23:50Z</time></trkpt>
<trkpt lat="47.734137" lon="10.691537"><ele>755.0</ele><time>2017-03-04T16:23:51Z</time></trkpt>
<trkpt lat="47.734074" lon="10.691582"><ele>755.0</ele><time>2017-03-04T16:23:52Z</time></trkpt>
<trkpt lat="47.733906" lon="10.691598"><ele>755.0</ele><time>2017-03-04T16:23:54Z</time></trkpt>
<trkpt lat="47.733381" lon="10.691409"><ele>755.0</ele><time>2017-03-04T16:24:02Z</time></trkpt>
<trkpt lat="47.73324" lon="10.69139"><ele>754.0</ele><time>2017-03-04T16:24:04Z</time></trkpt>
<trkpt lat="47.733093" lon="10.691338"><ele>754.0</ele><time>2017-03-04T16:24:06Z</time></trkpt>
<trkpt lat="47.731813" lon="10.691229"><ele>748.0</ele><time>2017-03-04T16:24:23Z</time></trkpt>
<trkpt lat="47.731417" lon="10.691307"><ele>749.0</ele><time>2017-03-04T16:24:29Z</time></trkpt>
<trkpt lat="47.730617" lon="10.691723"><ele>753.0</ele><time>2017-03-04T16:24:40Z</time></trkpt>
<trkpt lat="47.730169" lon="10.691912"><ele>753.0</ele><time>2017-03-04T16:24:47Z</time></trkpt>
<trkpt lat="47.72884" lon="10.692595"><ele>752.0</ele><time>2017-03-04T16:25:06Z</time></trkpt>
<trkpt lat="47.727842" lon="10.693161"><ele>754.0</ele><time>2017-03-04T16:25:21Z</time></trkpt>
<trkpt lat="47.727045" lon="10.693582"><ele>760.0</ele><time>2017-03-04T16:25:32Z</time></trkpt>
<trkpt lat="47.726622" lon="10.693788"><ele>767.0</ele><time>2017-03-04T16:25:38Z</time></trkpt>
<trkpt lat="47.72607" lon="10.693929"><ele>767.0</ele><time>2017-03-04T16:25:46Z</time></trkpt>
<trkpt lat="47.725451" lon="10.694201"><ele>767.0</ele><time>2017-03-04T16:25:55Z</time></trkpt>
<trkpt lat="47.725139" lon="10.694381"><ele>767.0</ele><time>2017-03-04T16:25:59Z</time></trkpt>
<trkpt lat="47.724091" lon="10.695085"><ele>764.0</ele><time>2017-03-04T16:26:15Z</time></trkpt>
<trkpt lat="47.723462" lon="10.695545"><ele>764.0</ele><time>2017-03-04T16:26:25Z</time></trkpt>
<trkpt lat="47.722796" lon="10.696092"><ele>768.0</ele><time>2017-03-04T16:26:35Z</time></trkpt>
<trkpt lat="47.722373" lon="10.696533"><ele>783.0</ele><time>2017-03-04T16:26:43Z</time></trkpt>
<trkpt lat="47.721906" lon="10.696937"><ele>778.0</ele><time>2017-03-04T16:26:50Z</time></trkpt>
<trkpt lat="47.721583" lon="10.697128"><ele>784.0</ele><time>2017-03-04T16:26:55Z</time></trkpt>
<trkpt lat="47.721064" lon="10.697337"><ele>784.0</ele><time>2017-03-04T16:27:02Z</time></trkpt>
<trkpt lat="47.7207" lon="10.697526"><ele>786.0</ele><time>2017-03-04T16:27:08Z</time></trkpt>
<trkpt lat="47.720322" lon="10.697779"><ele>786.0</ele><time>2017-03-04T16:27:13Z</time></trkpt>
<trkpt lat="47.720035" lon="10.697879"><ele>786.0</ele><time>2017-03-04T16:27:17Z</time></trkpt>
<trkpt lat="47.719782" lon="10.697938"><ele>786.0</ele><time>2017-03-04T16:27:21Z</time></trkpt>
<trkpt lat="47.71906" lon="10.697938"><ele>785.0</ele><time>2017-03-04T16:27:31Z</time></trkpt>
<trkpt lat="47.718575" lon="10.697973"><ele>785.0</ele><time>2017-03-04T16:27:37Z</time></trkpt>
<trkpt lat="47.71805" lon="10.698101"><ele>785.0</ele><time>2017-03-04T16:27:45Z</time></trkpt>
<trkpt lat="47.717653" lon="10.698289"><ele>785.0</ele><time>2017-03-04T16:27:50Z</time></trkpt>
<trkpt lat="47.717077" lon="10.698828"><ele>783.0</ele><time>2017-03-04T16:28:00Z</time></trkpt>
<trkpt lat="47.716805" lon="10.699048"><ele>783.0</ele><time>2017-03-04T16:28:04Z</time></trkpt>
<trkpt lat="47.71654" lon="10.699245"><ele>772.0</ele><time>2017-03-04T16:28:08Z</time></trkpt>
<trkpt lat="47.716351" lon="10.699327"><ele>772.0</ele><time>2017-03-04T16:28:11Z</time></trkpt>
<trkpt lat="47.716214" lon="10.699336"><ele>772.0</ele><time>2017-03-04T16:28:13Z</time></trkpt>
<trkpt lat="47.715766" lon="10.699264"><ele>758.0</ele><time>2017-03-04T16:28:19Z</time></trkpt>
<trkpt lat="47.715008" lon="10.699325"><ele>758.0</ele><time>2017-03-04T16:28:30Z</time></trkpt>
<trkpt lat="47.714602" lon="10.69932"><ele>747.0</ele><time>2017-03-04T16:28:35Z</time></trkpt>
<trkpt lat="47.713941" lon="10.699253"><ele>739.0</ele><time>2017-03-04T16:28:44Z</time></trkpt>
<trkpt lat="47.71332" lon="10.699079"><ele>737.0</ele><time>2017-03-04T16:28:53Z</time></trkpt>
<trkpt lat="47.712891" lon="10.698995"><ele>737.0</ele><time>2017-03-04T16:28:59Z</time></trkpt>
<trkpt lat="47.712344" lon="10.698942"><ele>738.0</ele><time>2017-03-04T16:29:07Z</time></trkpt>
<trkpt lat="47.711607" lon="10.698599"><ele>737.0</ele><time>2017-03-04T16:29:17Z</time></trkpt>
<trkpt lat="47.711342" lon="10.698402"><ele>737.0</ele><time>2017-03-04T16:29:21Z</time></trkpt>
<trkpt lat="47.711012" lon="10.69831"><ele>736.0</ele><time>2017-03-04T16:29:26Z</time></trkpt>
<trkpt lat="47.710853" lon="10.698231"><ele>736.0</ele><time>2017-03-04T16:29:28Z</time></trkpt>
<trkpt lat="47.710767" lon="10.698181"><ele>741.0</ele><time>2017-03-04T16:29:29Z</time></trkpt>
<trkpt lat="47.710521" lon="10.697934"><ele>741.0</ele><time>2017-03-04T16:29:34Z</time></trkpt>
<trkpt lat="47.71035" lon="10.697806"><ele>741.0</ele><time>2017-03-04T16:29:36Z</time></trkpt>
<trkpt lat="47.710073" lon="10.697721"><ele>741.0</ele><time>2017-03-04T16:29:40Z</time></trkpt>
<trkpt lat="47.709599" lon="10.697726"><ele>740.0</ele><time>2017-03-04T16:29:47Z</time></trkpt>
<trkpt lat="47.709437" lon="10.697735"><ele>740.0</ele><time>2017-03-04T16:29:50Z</time></trkpt>
<trkpt lat="47.709297" lon="10.697788"><ele>740.0</ele><time>2017-03-04T16:29:52Z</time></trkpt>
<trkpt lat="47.709051" lon="10.697922"><ele>739.0</ele><time>2017-03-04T16:29:57Z</time></trkpt>
<trkpt lat="47.7085" lon="10.698375"><ele>738.0</ele><time>2017-03-04T16:30:07Z</time></trkpt>
<trkpt lat="47.708344" lon="10.698579"><ele>738.0</ele><time>2017-03-04T16:30:11Z</time></trkpt>
<trkpt lat="47.707973" lon="10.698503"><ele>740.0</ele><time>2017-03-04T16:30:17Z</time></trkpt>
<trkpt lat="47.707879" lon="10.698454"><ele>740.0</ele><time>2017-03-04T16:30:19Z</time></trkpt>
<trkpt lat="47.707826" lon="10.698393"><ele>740.0</ele><time>2017-03-04T16:30:20Z</time></trkpt>
<trkpt lat="47.707722" lon="10.698565"><ele>740.0</ele><time>2017-03-04T16:30:21Z</time></trkpt>
<trkpt lat="47.707363" lon="10.698934"><ele>741.0</ele><time>2017-03-04T16:30:24Z</time></trkpt>
<trkpt lat="47.706915" lon="10.699221"><ele>742.0</ele><time>2017-03-04T16:30:27Z</time></trkpt>
<trkpt lat="47.706331" lon="10.699536"><ele>744.0</ele><time>2017-03-04T16:30:31Z</time></trkpt>
<trkpt lat="47.70618" lon="10.699662"><ele>744.0</ele><time>2017-03-04T16:30:32Z</time></trkpt>
<trkpt lat="47.706045" lon="10.699819"><ele>744.0</ele><time>2017-03-04T16:30:33Z</time></trkpt>
<trkpt lat="47.705935" lon="10.699988"><ele>744.0</ele><time>2017-03-04T16:30:34Z</time></trkpt>
<trkpt lat="47.705867" lon="10.700127"><ele>746.0</ele><time>2017-03-04T16:30:35Z</time></trkpt>
<trkpt lat="47.705775" lon="10.700473"><ele>748.0</ele><time>2017-03-04T16:30:36Z</time></trkpt>
<trkpt lat="47.705681" lon="10.701106"><ele>747.0</ele><time>2017-03-04T16:30:39Z</time></trkpt>
<trkpt lat="47.705586" lon="10.701442"><ele>747.0</ele><time>2017-03-04T16:30:40Z</time></trkpt>
<trkpt lat="47.705362" lon="10.70189"><ele>746.0</ele><time>2017-03-04T16:30:43Z</time></trkpt>
<trkpt lat="47.704752" lon="10.702746"><ele>744.0</ele><time>2017-03-04T16:30:48Z</time></trkpt>
<trkpt lat="47.703883" lon="10.703914"><ele>746.0</ele><time>2017-03-04T16:30:56Z</time></trkpt>
<trkpt lat="47.703077" lon="10.704952"><ele>749.0</ele><time>2017-03-04T16:31:02Z</time></trkpt>
<trkpt lat="47.70275" lon="10.705432"><ele>749.0</ele><time>2017-03-04T16:31:05Z</time></trkpt>
<trkpt lat="47.702126" lon="10.706407"><ele>748.0</ele><time>2017-03-04T16:31:11Z</time></trkpt>
<trkpt lat="47.701635" lon="10.707234"><ele>750.0</ele><time>2017-03-04T16:31:16Z</time></trkpt>
<trkpt lat="47.701351" lon="10.70768"><ele>755.0</ele><time>2017-03-04T16:31:19Z</time></trkpt>
<trkpt lat="47.701159" lon="10.707907"><ele>755.0</ele><time>2017-03-04T16:31:20Z</time></trkpt>
<trkpt lat="47.700764" lon="10.708281"><ele>754.0</ele><time>2017-03-04T16:31:23Z</time></trkpt>
<trkpt lat="47.700457" lon="10.708484"><ele>757.0</ele><time>2017-03-04T16:31:25Z</time></trkpt>
<trkpt lat="47.70014" lon="10.708657"><ele>757.0</ele><time>2017-03-04T16:31:27Z</time></trkpt>
<trkpt lat="47.699201" lon="10.709095"><ele>760.0</ele><time>2017-03-04T16:31:34Z</time></trkpt>
<trkpt lat="47.698863" lon="10.70932"><ele>764.0</ele><time>2017-03-04T16:31:36Z</time></trkpt>
<trkpt lat="47.698405" lon="10.709747"><ele>764.0</ele><time>2017-03-04T16:31:39Z</time></trkpt>
<trkpt lat="47.697383" lon="10.711065"><ele>769.0</ele><time>2017-03-04T16:31:48Z</time></trkpt>
<trkpt lat="47.696857" lon="10.711632"><ele>769.0</ele><time>2017-03-04T16:31:52Z</time></trkpt>
<trkpt lat="47.696552" lon="10.711897"><ele>773.0</ele><time>2017-03-04T16:31:55Z</time></trkpt>
<trkpt lat="47.696121" lon="10.712213"><ele>773.0</ele><time>2017-03-04T16:31:58Z</time></trkpt>
<trkpt lat="47.695847" lon="10.712385"><ele>773.0</ele><time>2017-03-04T16:31:59Z</time></trkpt>
<trkpt lat="47.695452" lon="10.712577"><ele>778.0</ele><time>2017-03-04T16:32:02Z</time></trkpt>
<trkpt lat="47.694944" lon="10.712758"><ele>781.0</ele><time>2017-03-04T16:32:05Z</time></trkpt>
<trkpt lat="47.694707" lon="10.712815"><ele>781.0</ele><time>2017-03-04T16:32:07Z</time></trkpt>
<trkpt lat="47.69415" lon="10.71289"><ele>791.0</ele><time>2017-03-04T16:32:11Z</time></trkpt>
<trkpt lat="47.693819" lon="10.712898"><ele>791.0</ele><time>2017-03-04T16:32:13Z</time></trkpt>
<trkpt lat="47.693176" lon="10.712844"><ele>794.0</ele><time>2017-03-04T16:32:17Z</time></trkpt>
<trkpt lat="47.692176" lon="10.712698"><ele>799.0</ele><time>2017-03-04T16:32:23Z</time></trkpt>
<trkpt lat="47.691402" lon="10.712616"><ele>798.0</ele><time>2017-03-04T16:32:28Z</time></trkpt>
<trkpt lat="47.690738" lon="10.712615"><ele>793.0</ele><time>2017-03-04T16:32:32Z</time></trkpt>
<trkpt lat="47.689722" lon="10.712722"><ele>790.0</ele><time>2017-03-04T16:32:39Z</time></trkpt>
<trkpt lat="47.689138" lon="10.712856"><ele>786.0</ele><time>2017-03-04T16:32:43Z</time></trkpt>
<trkpt lat="47.688381" lon="10.713084"><ele>786.0</ele><time>2017-03-04T16:32:48Z</time></trkpt>
<trkpt lat="47.687764" lon="10.713339"><ele>790.0</ele><time>2017-03-04T16:32:52Z</time></trkpt>
<trkpt lat="47.686751" lon="10.713849"><ele>793.0</ele><time>2017-03-04T16:32:58Z</time></trkpt>
<trkpt lat="47.685804" lon="10.714268"><ele>783.0</ele><time>2017-03-04T16:33:05Z</time></trkpt>
<trkpt lat="47.68476" lon="10.714571"><ele>783.0</ele><time>2017-03-04T16:33:12Z</time></trkpt>
<trkpt lat="47.68404" lon="10.714718"><ele>786.0</ele><time>2017-03-04T16:33:16Z</time></trkpt>
<trkpt lat="47.68312" lon="10.714809"><ele>786.0</ele><time>2017-03-04T16:33:22Z</time></trkpt>
<trkpt lat="47.681553" lon="10.714756"><ele>802.0</ele><time>2017-03-04T16:33:32Z</time></trkpt>
<trkpt lat="47.681063" lon="10.71476"><ele>802.0</ele><time>2017-03-04T16:33:35Z</time></trkpt>
<trkpt lat="47.680489" lon="10.71484"><ele>795.0</ele><time>2017-03-04T16:33:39Z</time></trkpt>
<trkpt lat="47.679856" lon="10.715014"><ele>792.0</ele><time>2017-03-04T16:33:43Z</time></trkpt>
<trkpt lat="47.679409" lon="10.715196"><ele>792.0</ele><time>2017-03-04T16:33:46Z</time></trkpt>
<trkpt lat="47.678892" lon="10.715496"><ele>798.0</ele><time>2017-03-04T16:33:50Z</time></trkpt>
<trkpt lat="47.678463" lon="10.715799"><ele>798.0</ele><time>2017-03-04T16:33:53Z</time></trkpt>
<trkpt lat="47.678121" lon="10.716096"><ele>796.0</ele><time>2017-03-04T16:33:55Z</time></trkpt>
<trkpt lat="47.676857" lon="10.717416"><ele>798.0</ele><time>2017-03-04T16:34:05Z</time></trkpt>
<trkpt lat="47.676238" lon="10.718017"><ele>801.0</ele><time>2017-03-04T16:34:10Z</time></trkpt>
<trkpt lat="47.67554" lon="10.718585"><ele>801.0</ele><time>2017-03-04T16:34:15Z</time></trkpt>
<trkpt lat="47.675288" lon="10.718768"><ele>801.0</ele><time>2017-03-04T16:34:17Z</time></trkpt>
<trkpt lat="47.674237" lon="10.719395"><ele>798.0</ele><time>2017-03-04T16:34:24Z</time></trkpt>
<trkpt lat="47.673298" lon="10.719771"><ele>797.0</ele><time>2017-03-04T16:34:30Z</time></trkpt>
<trkpt lat="47.672758" lon="10.719914"><ele>797.0</ele><time>2017-03-04T16:34:33Z</time></trkpt>
<trkpt lat="47.672339" lon="10.71999"><ele>791.0</ele><time>2017-03-04T16:34:36Z</time></trkpt>
<trkpt lat="47.6718" lon="10.720047"><ele>790.0</ele><time>2017-03-04T16:34:40Z</time></trkpt>
<trkpt lat="47.671373" lon="10.720065"><ele>792.0</ele><time>2017-03-04T16:34:42Z</time></trkpt>
<trkpt lat="47.670585" lon="10.720036"><ele>797.0</ele><time>2017-03-04T16:34:47Z</time></trkpt>
<trkpt lat="47.670159" lon="10.719966"><ele>794.0</ele><time>2017-03-04T16:34:50Z</time></trkpt>
<trkpt lat="47.669338" lon="10.719769"><ele>803.0</ele><time>2017-03-04T16:34:55Z</time></trkpt>
<trkpt lat="47.668269" lon="10.719362"><ele>805.0</ele><time>2017-03-04T16:35:02Z</time></trkpt>
<trkpt lat="47.667439" lon="10.719018"><ele>808.0</ele><time>2017-03-04T16:35:08Z</time></trkpt>
<trkpt lat="47.666662" lon="10.718741"><ele>805.0</ele><time>2017-03-04T16:35:13Z</time></trkpt>
<trkpt lat="47.66573" lon="10.718524"><ele>804.0</ele><time>2017-03-04T16:35:19Z</time></trkpt>
<trkpt lat="47.664869" lon="10.718431"><ele>802.0</ele><time>2017-03-04T16:35:24Z</time></trkpt>
<trkpt lat="47.664293" lon="10.718429"><ele>802.0</ele><time>2017-03-04T16:35:28Z</time></trkpt>
<trkpt lat="47.66388" lon="10.718451"><ele>803.0</ele><time>2017-03-04T16:35:31Z</time></trkpt>
<trkpt lat="47.66345" lon="10.718502"><ele>803.0</ele><time>2017-03-04T16:35:34Z</time></trkpt>
<trkpt lat="47.662873" lon="10.718606"><ele>807.0</ele><time>2017-03-04T16:35:37Z</time></trkpt>
<trkpt lat="47.662382" lon="10.718733"><ele>810.0</ele><time>2017-03-04T16:35:40Z</time></trkpt>
<trkpt lat="47.661838" lon="10.718921"><ele>810.0</ele><time>2017-03-04T16:35:44Z</time></trkpt>
<trkpt lat="47.661334" lon="10.719127"><ele>812.0</ele><time>2017-03-04T16:35:47Z</time></trkpt>
<trkpt lat="47.660681" lon="10.719401"><ele>810.0</ele><time>2017-03-04T16:35:52Z</time></trkpt>
<trkpt lat="47.659754" lon="10.719833"><ele>810.0</ele><time>2017-03-04T16:35:58Z</time></trkpt>
<trkpt lat="47.659031" lon="10.720208"><ele>811.0</ele><time>2017-03-04T16:36:03Z</time></trkpt>
<trkpt lat="47.658029" lon="10.72077"><ele>811.0</ele><time>2017-03-04T16:36:10Z</time></trkpt>
<trkpt lat="47.657416" lon="10.721147"><ele>811.0</ele><time>2017-03-04T16:36:14Z</time></trkpt>
<trkpt lat="47.656266" lon="10.721993"><ele>812.0</ele><time>2017-03-04T16:36:22Z</time></trkpt>
<trkpt lat="47.655745" lon="10.722419"><ele>813.0</ele><time>2017-03-04T16:36:26Z</time></trkpt>
<trkpt lat="47.655092" lon="10.722943"><ele>811.0</ele><time>2017-03-04T16:36:31Z</time></trkpt>
<trkpt lat="47.65488" lon="10.722998"><ele>813.0</ele><time>2017-03-04T16:36:33Z</time></trkpt>
<trkpt lat="47.654115" lon="10.72344"><ele>812.0</ele><time>2017-03-04T16:36:42Z</time></trkpt>
<trkpt lat="47.653927" lon="10.723707"><ele>812.0</ele><time>2017-03-04T16:36:45Z</time></trkpt>
<trkpt lat="47.653938" lon="10.723643"><ele>812.0</ele><time>2017-03-04T16:36:46Z</time></trkpt>
<trkpt lat="47.653938" lon="10.723643"><ele>812.0</ele><time>2017-03-04T16:36:46Z</time></trkpt>
<trkpt lat="47.653834" lon="10.724287"><ele>813.0</ele><time>2017-03-04T16:36:49Z</time></trkpt>
<trkpt lat="47.653751" lon="10.725437"><ele>816.0</ele><time>2017-03-04T16:36:55Z</time></trkpt>
<trkpt lat="47.65381" lon="10.726888"><ele>813.0</ele><time>2017-03-04T16:37:02Z</time></trkpt>
<trkpt lat="47.653809" lon="10.727571"><ele>814.0</ele><time>2017-03-04T16:37:05Z</time></trkpt>
<trkpt lat="47.653701" lon="10.729673"><ele>813.0</ele><time>2017-03-04T16:37:16Z</time></trkpt>
<trkpt lat="47.653701" lon="10.73002"><ele>811.0</ele><time>2017-03-04T16:37:18Z</time></trkpt>
<trkpt lat="47.653727" lon="10.730282"><ele>811.0</ele><time>2017-03-04T16:37:19Z</time></trkpt>
<trkpt lat="47.653899" lon="10.730979"><ele>810.0</ele><time>2017-03-04T16:37:22Z</time></trkpt>
<trkpt lat="47.654901" lon="10.734362"><ele>809.0</ele><time>2017-03-04T16:37:41Z</time></trkpt>
<trkpt lat="47.654986" lon="10.734736"><ele>809.0</ele><time>2017-03-04T16:37:43Z</time></trkpt>
<trkpt lat="47.655039" lon="10.735058"><ele>812.0</ele><time>2017-03-04T16:37:44Z</time></trkpt>
<trkpt lat="47.655154" lon="10.736186"><ele>817.0</ele><time>2017-03-04T16:37:50Z</time></trkpt>
<trkpt lat="47.65522" lon="10.736516"><ele>817.0</ele><time>2017-03-04T16:37:52Z</time></trkpt>
<trkpt lat="47.655335" lon="10.736913"><ele>819.0</ele><time>2017-03-04T16:37:54Z</time></trkpt>
<trkpt lat="47.655525" lon="10.737388"><ele>819.0</ele><time>2017-03-04T16:37:57Z</time></trkpt>
<trkpt lat="47.65602" lon="10.738448"><ele>811.0</ele><time>2017-03-04T16:38:03Z</time></trkpt>
<trkpt lat="47.656223" lon="10.738755"><ele>811.0</ele><time>2017-03-04T16:38:05Z</time></trkpt>
<trkpt lat="47.656814" lon="10.739523"><ele>804.0</ele><time>2017-03-04T16:38:11Z</time></trkpt>
<trkpt lat="47.656884" lon="10.739672"><ele>804.0</ele><time>2017-03-04T16:38:12Z</time></trkpt>
<trkpt lat="47.656916" lon="10.739816"><ele>804.0</ele><time>2017-03-04T16:38:13Z</time></trkpt>
<trkpt lat="47.656926" lon="10.739949"><ele>804.0</ele><time>2017-03-04T16:38:13Z</time></trkpt>
<trkpt lat="47.656907" lon="10.740134"><ele>807.0</ele><time>2017-03-04T16:38:14Z</time></trkpt>
<trkpt lat="47.656843" lon="10.740306"><ele>807.0</ele><time>2017-03-04T16:38:15Z</time></trkpt>
<trkpt lat="47.656591" lon="10.740724"><ele>808.0</ele><time>2017-03-04T16:38:18Z</time></trkpt>
<trkpt lat="47.6565" lon="10.740966"><ele>811.0</ele><time>2017-03-04T16:38:19Z</time></trkpt>
<trkpt lat="47.656446" lon="10.741449"><ele>811.0</ele><time>2017-03-04T16:38:22Z</time></trkpt>
<trkpt lat="47.656487" lon="10.742512"><ele>814.0</ele><time>2017-03-04T16:38:27Z</time></trkpt>
<trkpt lat="47.656463" lon="10.742846"><ele>814.0</ele><time>2017-03-04T16:38:29Z</time></trkpt>
<trkpt lat="47.656364" lon="10.743394"><ele>812.0</ele><time>2017-03-04T16:38:31Z</time></trkpt>
<trkpt lat="47.656261" lon="10.743666"><ele>812.0</ele><time>2017-03-04T16:38:33Z</time></trkpt>
<trkpt lat="47.656173" lon="10.74381"><ele>812.0</ele><time>2017-03-04T16:38:34Z</time></trkpt>
<trkpt lat="47.655753" lon="10.744295"><ele>803.0</ele><time>2017-03-04T16:38:38Z</time></trkpt>
<trkpt lat="47.655684" lon="10.744413"><ele>803.0</ele><time>2017-03-04T16:38:39Z</time></trkpt>
<trkpt lat="47.655643" lon="10.744538"><ele>803.0</ele><time>2017-03-04T16:38:39Z</time></trkpt>
<trkpt lat="47.655635" lon="10.744683"><ele>803.0</ele><time>2017-03-04T16:38:40Z</time></trkpt>
<trkpt lat="47.655649" lon="10.744893"><ele>803.0</ele><time>2017-03-04T16:38:41Z</time></trkpt>
<trkpt lat="47.655684" lon="10.745053"><ele>800.0</ele><time>2017-03-04T16:38:42Z</time></trkpt>
<trkpt lat="47.65599" lon="10.745936"><ele>798.0</ele><time>2017-03-04T16:38:47Z</time></trkpt>
<trkpt lat="47.656075" lon="10.746182"><ele>798.0</ele><time>2017-03-04T16:38:48Z</time></trkpt>
<trkpt lat="47.656053" lon="10.746511"><ele>798.0</ele><time>2017-03-04T16:38:50Z</time></trkpt>
<trkpt lat="47.656" lon="10.746709"><ele>801.0</ele><time>2017-03-04T16:38:51Z</time></trkpt>
<trkpt lat="47.655929" lon="10.746874"><ele>801.0</ele><time>2017-03-04T16:38:52Z</time></trkpt>
<trkpt lat="47.655712" lon="10.747128"><ele>793.0</ele><time>2017-03-04T16:38:54Z</time></trkpt>
<trkpt lat="47.655538" lon="10.747233"><ele>793.0</ele><time>2017-03-04T16:38:55Z</time></trkpt>
<trkpt lat="47.655442" lon="10.747249"><ele>793.0</ele><time>2017-03-04T16:38:56Z</time></trkpt>
<trkpt lat="47.655339" lon="10.747241"><ele>793.0</ele><time>2017-03-04T16:38:57Z</time></trkpt>
<trkpt lat="47.655211" lon="10.747184"><ele>793.0</ele><time>2017-03-04T16:38:58Z</time></trkpt>
<trkpt lat="47.655084" lon="10.747095"><ele>793.0</ele><time>2017-03-04T16:38:59Z</time></trkpt>
<trkpt lat="47.654881" lon="10.746891"><ele>785.0</ele><time>2017-03-04T16:39:00Z</time></trkpt>
<trkpt lat="47.654643" lon="10.746721"><ele>785.0</ele><time>2017-03-04T16:39:02Z</time></trkpt>
<trkpt lat="47.654376" lon="10.746568"><ele>783.0</ele><time>2017-03-04T16:39:04Z</time></trkpt>
<trkpt lat="47.654129" lon="10.74647"><ele>775.0</ele><time>2017-03-04T16:39:06Z</time></trkpt>
<trkpt lat="47.653656" lon="10.746342"><ele>775.0</ele><time>2017-03-04T16:39:09Z</time></trkpt>
<trkpt lat="47.653027" lon="10.746281"><ele>774.0</ele><time>2017-03-04T16:39:14Z</time></trkpt>
<trkpt lat="47.652894" lon="10.746229"><ele>774.0</ele><time>2017-03-04T16:39:15Z</time></trkpt>
<trkpt lat="47.652801" lon="10.746167"><ele>774.0</ele><time>2017-03-04T16:39:15Z</time></trkpt>
<trkpt lat="47.65255" lon="10.745897"><ele>774.0</ele><time>2017-03-04T16:39:17Z</time></trkpt>
<trkpt lat="47.652483" lon="10.745793"><ele>777.0</ele><time>2017-03-04T16:39:18Z</time></trkpt>
<trkpt lat="47.652381" lon="10.745535"><ele>777.0</ele><time>2017-03-04T16:39:19Z</time></trkpt>
<trkpt lat="47.652081" lon="10.744494"><ele>774.0</ele><time>2017-03-04T16:39:25Z</time></trkpt>
<trkpt lat="47.651414" lon="10.742742"><ele>788.0</ele><time>2017-03-04T16:39:34Z</time></trkpt>
<trkpt lat="47.651199" lon="10.742119"><ele>783.0</ele><time>2017-03-04T16:39:37Z</time></trkpt>
<trkpt lat="47.650937" lon="10.74165"><ele>773.0</ele><time>2017-03-04T16:39:40Z</time></trkpt>
<trkpt lat="47.650824" lon="10.741521"><ele>793.0</ele><time>2017-03-04T16:39:42Z</time></trkpt>
<trkpt lat="47.650644" lon="10.741349"><ele>793.0</ele><time>2017-03-04T16:39:43Z</time></trkpt>
<trkpt lat="47.650424" lon="10.741215"><ele>793.0</ele><time>2017-03-04T16:39:45Z</time></trkpt>
<trkpt lat="47.65027" lon="10.741155"><ele>793.0</ele><time>2017-03-04T16:39:46Z</time></trkpt>
<trkpt lat="47.649753" lon="10.741074"><ele>803.0</ele><time>2017-03-04T16:39:50Z</time></trkpt>
<trkpt lat="47.648885" lon="10.741031"><ele>804.0</ele><time>2017-03-04T16:39:56Z</time></trkpt>
<trkpt lat="47.648363" lon="10.741041"><ele>804.0</ele><time>2017-03-04T16:39:59Z</time></trkpt>
<trkpt lat="47.648094" lon="10.741092"><ele>804.0</ele><time>2017-03-04T16:40:01Z</time></trkpt>
<trkpt lat="47.647747" lon="10.7412"><ele>804.0</ele><time>2017-03-04T16:40:04Z</time></trkpt>
<trkpt lat="47.647374" lon="10.741438"><ele>800.0</ele><time>2017-03-04T16:40:07Z</time></trkpt>
<trkpt lat="47.647056" lon="10.74174"><ele>806.0</ele><time>2017-03-04T16:40:09Z</time></trkpt>
<trkpt lat="47.646806" lon="10.742077"><ele>806.0</ele><time>2017-03-04T16:40:12Z</time></trkpt>
<trkpt lat="47.646662" lon="10.742307"><ele>799.0</ele><time>2017-03-04T16:40:13Z</time></trkpt>
<trkpt lat="47.646504" lon="10.742629"><ele>806.0</ele><time>2017-03-04T16:40:15Z</time></trkpt>
<trkpt lat="47.646226" lon="10.743541"><ele>807.0</ele><time>2017-03-04T16:40:20Z</time></trkpt>
<trkpt lat="47.646083" lon="10.744118"><ele>807.0</ele><time>2017-03-04T16:40:23Z</time></trkpt>
<trkpt lat="47.645922" lon="10.744816"><ele>806.0</ele><time>2017-03-04T16:40:26Z</time></trkpt>
<trkpt lat="47.645778" lon="10.745521"><ele>799.0</ele><time>2017-03-04T16:40:29Z</time></trkpt>
<trkpt lat="47.645709" lon="10.745954"><ele>799.0</ele><time>2017-03-04T16:40:31Z</time></trkpt>
<trkpt lat="47.645684" lon="10.746377"><ele>799.0</ele><time>2017-03-04T16:40:33Z</time></trkpt>
<trkpt lat="47.645698" lon="10.746726"><ele>800.0</ele><time>2017-03-04T16:40:35Z</time></trkpt>
<trkpt lat="47.645756" lon="10.747248"><ele>800.0</ele><time>2017-03-04T16:40:38Z</time></trkpt>
<trkpt lat="47.645781" lon="10.747664"><ele>801.0</ele><time>2017-03-04T16:40:40Z</time></trkpt>
<trkpt lat="47.645792" lon="10.74891"><ele>801.0</ele><time>2017-03-04T16:40:45Z</time></trkpt>
<trkpt lat="47.645707" lon="10.752494"><ele>805.0</ele><time>2017-03-04T16:41:02Z</time></trkpt>
<trkpt lat="47.645672" lon="10.752993"><ele>808.0</ele><time>2017-03-04T16:41:04Z</time></trkpt>
<trkpt lat="47.645556" lon="10.753862"><ele>808.0</ele><time>2017-03-04T16:41:09Z</time></trkpt>
<trkpt lat="47.645438" lon="10.754523"><ele>806.0</ele><time>2017-03-04T16:41:12Z</time></trkpt>
<trkpt lat="47.645036" lon="10.756183"><ele>803.0</ele><time>2017-03-04T16:41:20Z</time></trkpt>
<trkpt lat="47.644966" lon="10.756509"><ele>795.0</ele><time>2017-03-04T16:41:22Z</time></trkpt>
<trkpt lat="47.64491" lon="10.756864"><ele>792.0</ele><time>2017-03-04T16:41:23Z</time></trkpt>
<trkpt lat="47.644879" lon="10.75774"><ele>789.0</ele><time>2017-03-04T16:41:27Z</time></trkpt>
<trkpt lat="47.644898" lon="10.758276"><ele>789.0</ele><time>2017-03-04T16:41:30Z</time></trkpt>
<trkpt lat="47.644954" lon="10.758827"><ele>788.0</ele><time>2017-03-04T16:41:32Z</time></trkpt>
<trkpt lat="47.644999" lon="10.759073"><ele>788.0</ele><time>2017-03-04T16:41:34Z</time></trkpt>
<trkpt lat="47.645534" lon="10.761118"><ele>784.0</ele><time>2017-03-04T16:41:44Z</time></trkpt>
<trkpt lat="47.645602" lon="10.761604"><ele>784.0</ele><time>2017-03-04T16:41:46Z</time></trkpt>
<trkpt lat="47.645633" lon="10.762133"><ele>782.0</ele><time>2017-03-04T16:41:49Z</time></trkpt>
<trkpt lat="47.64564" lon="10.763063"><ele>783.0</ele><time>2017-03-04T16:41:53Z</time></trkpt>
<trkpt lat="47.64546" lon="10.765587"><ele>788.0</ele><time>2017-03-04T16:42:05Z</time></trkpt>
<trkpt lat="47.645386" lon="10.766318"><ele>788.0</ele><time>2017-03-04T16:42:08Z</time></trkpt>
<trkpt lat="47.645115" lon="10.768598"><ele>786.0</ele><time>2017-03-04T16:42:19Z</time></trkpt>
<trkpt lat="47.644856" lon="10.770593"><ele>786.0</ele><time>2017-03-04T16:42:29Z</time></trkpt>
<trkpt lat="47.644791" lon="10.771279"><ele>786.0</ele><time>2017-03-04T16:42:32Z</time></trkpt>
<trkpt lat="47.644753" lon="10.775284"><ele>788.0</ele><time>2017-03-04T16:42:50Z</time></trkpt>
<trkpt lat="47.64472" lon="10.776697"><ele>790.0</ele><time>2017-03-04T16:42:57Z</time></trkpt>
<trkpt lat="47.644699" lon="10.777062"><ele>790.0</ele><time>2017-03-04T16:42:59Z</time></trkpt>
<trkpt lat="47.644666" lon="10.77736"><ele>790.0</ele><time>2017-03-04T16:43:00Z</time></trkpt>
<trkpt lat="47.644567" lon="10.777927"><ele>794.0</ele><time>2017-03-04T16:43:03Z</time></trkpt>
<trkpt lat="47.644439" lon="10.778414"><ele>796.0</ele><time>2017-03-04T16:43:05Z</time></trkpt>
<trkpt lat="47.643982" lon="10.779649"><ele>804.0</ele><time>2017-03-04T16:43:12Z</time></trkpt>
<trkpt lat="47.643765" lon="10.780282"><ele>803.0</ele><time>2017-03-04T16:43:15Z</time></trkpt>
<trkpt lat="47.64369" lon="10.780597"><ele>803.0</ele><time>2017-03-04T16:43:17Z</time></trkpt>
<trkpt lat="47.643338" lon="10.783051"><ele>803.0</ele><time>2017-03-04T16:43:28Z</time></trkpt>
<trkpt lat="47.643288" lon="10.783305"><ele>824.0</ele><time>2017-03-04T16:43:30Z</time></trkpt>
<trkpt lat="47.64315" lon="10.783651"><ele>822.0</ele><time>2017-03-04T16:43:32Z</time></trkpt>
<trkpt lat="47.642937" lon="10.783875"><ele>822.0</ele><time>2017-03-04T16:43:34Z</time></trkpt>
<trkpt lat="47.642694" lon="10.783993"><ele>822.0</ele><time>2017-03-04T16:43:36Z</time></trkpt>
<trkpt lat="47.642413" lon="10.784048"><ele>836.0</ele><time>2017-03-04T16:43:38Z</time></trkpt>
<trkpt lat="47.642225" lon="10.784048"><ele>836.0</ele><time>2017-03-04T16:43:39Z</time></trkpt>
<trkpt lat="47.642043" lon="10.784016"><ele>836.0</ele><time>2017-03-04T16:43:40Z</time></trkpt>
<trkpt lat="47.641607" lon="10.783806"><ele>839.0</ele><time>2017-03-04T16:43:44Z</time></trkpt>
<trkpt lat="47.641419" lon="10.783739"><ele>839.0</ele><time>2017-03-04T16:43:45Z</time></trkpt>
<trkpt lat="47.640941" lon="10.783694"><ele>839.0</ele><time>2017-03-04T16:43:48Z</time></trkpt>
<trkpt lat="47.640107" lon="10.783392"><ele>837.0</ele><time>2017-03-04T16:43:54Z</time></trkpt>
<trkpt lat="47.639942" lon="10.783355"><ele>837.0</ele><time>2017-03-04T16:43:55Z</time></trkpt>
<trkpt lat="47.639716" lon="10.783363"><ele>837.0</ele><time>2017-03-04T16:43:57Z</time></trkpt>
<trkpt lat="47.639586" lon="10.783413"><ele>837.0</ele><time>2017-03-04T16:43:58Z</time></trkpt>
<trkpt lat="47.63939" lon="10.783615"><ele>837.0</ele><time>2017-03-04T16:43:59Z</time></trkpt>
<trkpt lat="47.639163" lon="10.784003"><ele>835.0</ele><time>2017-03-04T16:44:02Z</time></trkpt>
<trkpt lat="47.638894" lon="10.784376"><ele>841.0</ele><time>2017-03-04T16:44:04Z</time></trkpt>
<trkpt lat="47.638746" lon="10.784521"><ele>841.0</ele><time>2017-03-04T16:44:06Z</time></trkpt>
<trkpt lat="47.638602" lon="10.78463"><ele>841.0</ele><time>2017-03-04T16:44:07Z</time></trkpt>
<trkpt lat="47.638422" lon="10.784711"><ele>841.0</ele><time>2017-03-04T16:44:08Z</time></trkpt>
<trkpt lat="47.636445" lon="10.785332"><ele>835.0</ele><time>2017-03-04T16:44:22Z</time></trkpt>
<trkpt lat="47.63613" lon="10.785494"><ele>835.0</ele><time>2017-03-04T16:44:24Z</time></trkpt>
<trkpt lat="47.635532" lon="10.785913"><ele>837.0</ele><time>2017-03-04T16:44:29Z</time></trkpt>
<trkpt lat="47.635368" lon="10.786065"><ele>837.0</ele><time>2017-03-04T16:44:30Z</time></trkpt>
<trkpt lat="47.634943" lon="10.786729"><ele>834.0</ele><time>2017-03-04T16:44:35Z</time></trkpt>
<trkpt lat="47.634358" lon="10.787298"><ele>834.0</ele><time>2017-03-04T16:44:39Z</time></trkpt>
<trkpt lat="47.63419" lon="10.787542"><ele>833.0</ele><time>2017-03-04T16:44:41Z</time></trkpt>
<trkpt lat="47.633978" lon="10.78792"><ele>829.0</ele><time>2017-03-04T16:44:43Z</time></trkpt>
<trkpt lat="47.633798" lon="10.788163"><ele>829.0</ele><time>2017-03-04T16:44:45Z</time></trkpt>
<trkpt lat="47.633289" lon="10.788616"><ele>831.0</ele><time>2017-03-04T16:44:49Z</time></trkpt>
<trkpt lat="47.632689" lon="10.78926"><ele>830.0</ele><time>2017-03-04T16:44:54Z</time></trkpt>
<trkpt lat="47.632457" lon="10.789551"><ele>831.0</ele><time>2017-03-04T16:44:56Z</time></trkpt>
<trkpt lat="47.631893" lon="10.790414"><ele>830.0</ele><time>2017-03-04T16:45:02Z</time></trkpt>
<trkpt lat="47.631754" lon="10.790582"><ele>830.0</ele><time>2017-03-04T16:45:03Z</time></trkpt>
<trkpt lat="47.631438" lon="10.790836"><ele>825.0</ele><time>2017-03-04T16:45:06Z</time></trkpt>
<trkpt lat="47.631297" lon="10.790977"><ele>825.0</ele><time>2017-03-04T16:45:07Z</time></trkpt>
<trkpt lat="47.631199" lon="10.791138"><ele>825.0</ele><time>2017-03-04T16:45:08Z</time></trkpt>
<trkpt lat="47.630974" lon="10.791954"><ele>829.0</ele><time>2017-03-04T16:45:12Z</time></trkpt>
<trkpt lat="47.630854" lon="10.792513"><ele>837.0</ele><time>2017-03-04T16:45:15Z</time></trkpt>
<trkpt lat="47.630823" lon="10.792777"><ele>828.0</ele><time>2017-03-04T16:45:16Z</time></trkpt>
<trkpt lat="47.630783" lon="10.794057"><ele>829.0</ele><time>2017-03-04T16:45:22Z</time></trkpt>
<trkpt lat="47.630705" lon="10.794565"><ele>830.0</ele><time>2017-03-04T16:45:25Z</time></trkpt>
<trkpt lat="47.630552" lon="10.795021"><ele>830.0</ele><time>2017-03-04T16:45:27Z</time></trkpt>
<trkpt lat="47.63047" lon="10.795202"><ele>830.0</ele><time>2017-03-04T16:45:28Z</time></trkpt>
<trkpt lat="47.630246" lon="10.795591"><ele>830.0</ele><time>2017-03-04T16:45:30Z</time></trkpt>
<trkpt lat="47.630195" lon="10.79575"><ele>830.0</ele><time>2017-03-04T16:45:31Z</time></trkpt>
<trkpt lat="47.630163" lon="10.795924"><ele>831.0</ele><time>2017-03-04T16:45:32Z</time></trkpt>
<trkpt lat="47.630143" lon="10.796177"><ele>831.0</ele><time>2017-03-04T16:45:33Z</time></trkpt>
<trkpt lat="47.630135" lon="10.79661"><ele>831.0</ele><time>2017-03-04T16:45:35Z</time></trkpt>
<trkpt lat="47.630102" lon="10.796837"><ele>830.0</ele><time>2017-03-04T16:45:36Z</time></trkpt>
<trkpt lat="47.629968" lon="10.797362"><ele>823.0</ele><time>2017-03-04T16:45:39Z</time></trkpt>
<trkpt lat="47.629616" lon="10.798503"><ele>827.0</ele><time>2017-03-04T16:45:45Z</time></trkpt>
<trkpt lat="47.629588" lon="10.798688"><ele>827.0</ele><time>2017-03-04T16:45:46Z</time></trkpt>
<trkpt lat="47.629516" lon="10.799365"><ele>827.0</ele><time>2017-03-04T16:45:49Z</time></trkpt>
<trkpt lat="47.629477" lon="10.799918"><ele>827.0</ele><time>2017-03-04T16:45:51Z</time></trkpt>
<trkpt lat="47.629503" lon="10.800616"><ele>830.0</ele><time>2017-03-04T16:45:55Z</time></trkpt>
<trkpt lat="47.629544" lon="10.80089"><ele>828.0</ele><time>2017-03-04T16:45:56Z</time></trkpt>
<trkpt lat="47.629642" lon="10.801322"><ele>828.0</ele><time>2017-03-04T16:45:58Z</time></trkpt>
<trkpt lat="47.629648" lon="10.801438"><ele>828.0</ele><time>2017-03-04T16:45:59Z</time></trkpt>
<trkpt lat="47.629632" lon="10.801615"><ele>828.0</ele><time>2017-03-04T16:46:00Z</time></trkpt>
<trkpt lat="47.629519" lon="10.80231"><ele>826.0</ele><time>2017-03-04T16:46:03Z</time></trkpt>
<trkpt lat="47.629427" lon="10.803155"><ele>827.0</ele><time>2017-03-04T16:46:07Z</time></trkpt>
<trkpt lat="47.629381" lon="10.803436"><ele>831.0</ele><time>2017-03-04T16:46:08Z</time></trkpt>
<trkpt lat="47.6291" lon="10.80464"><ele>817.0</ele><time>2017-03-04T16:46:14Z</time></trkpt>
<trkpt lat="47.628738" lon="10.806048"><ele>807.0</ele><time>2017-03-04T16:46:21Z</time></trkpt>
<trkpt lat="47.62835" lon="10.807474"><ele>805.0</ele><time>2017-03-04T16:46:28Z</time></trkpt>
<trkpt lat="47.627943" lon="10.808867"><ele>803.0</ele><time>2017-03-04T16:46:36Z</time></trkpt>
<trkpt lat="47.627615" lon="10.809715"><ele>806.0</ele><time>2017-03-04T16:46:40Z</time></trkpt>
<trkpt lat="47.627227" lon="10.810575"><ele>809.0</ele><time>2017-03-04T16:46:45Z</time></trkpt>
<trkpt lat="47.626571" lon="10.811719"><ele>813.0</ele><time>2017-03-04T16:46:52Z</time></trkpt>
<trkpt lat="47.625991" lon="10.812641"><ele>815.0</ele><time>2017-03-04T16:46:58Z</time></trkpt>
<trkpt lat="47.624605" lon="10.814673"><ele>819.0</ele><time>2017-03-04T16:47:11Z</time></trkpt>
<trkpt lat="47.624369" lon="10.815014"><ele>818.5</ele><time>2017-03-04T16:47:14Z</time></trkpt>
<trkpt lat="47.624369" lon="10.815014"><ele>818.5</ele><time>2017-03-04T16:47:14Z</time></trkpt>
<trkpt lat="47.624356" lon="10.815032"><ele>818.0</ele><time>2017-03-04T16:47:14Z</time></trkpt>
<trkpt lat="47.622577" lon="10.811902"><ele>815.0</ele><time>2017-03-04T16:47:35Z</time></trkpt>
<trkpt lat="47.621906" lon="10.810778"><ele>813.0</ele><time>2017-03-04T16:47:43Z</time></trkpt>
<trkpt lat="47.621529" lon="10.810237"><ele>811.0</ele><time>2017-03-04T16:47:47Z</time></trkpt>
<trkpt lat="47.621142" lon="10.80977"><ele>809.0</ele><time>2017-03-04T16:47:50Z</time></trkpt>
<trkpt lat="47.621008" lon="10.809632"><ele>809.0</ele><time>2017-03-04T16:47:52Z</time></trkpt>
<trkpt lat="47.620715" lon="10.809403"><ele>809.0</ele><time>2017-03-04T16:47:54Z</time></trkpt>
<trkpt lat="47.620426" lon="10.809215"><ele>809.0</ele><time>2017-03-04T16:47:57Z</time></trkpt>
<trkpt lat="47.618916" lon="10.80859"><ele>808.0</ele><time>2017-03-04T16:48:08Z</time></trkpt>
<trkpt lat="47.617964" lon="10.8081"><ele>809.0</ele><time>2017-03-04T16:48:16Z</time></trkpt>
<trkpt lat="47.616383" lon="10.807178"><ele>807.0</ele><time>2017-03-04T16:48:29Z</time></trkpt>
<trkpt lat="47.616171" lon="10.807027"><ele>807.0</ele><time>2017-03-04T16:48:31Z</time></trkpt>
<trkpt lat="47.615944" lon="10.80681"><ele>807.0</ele><time>2017-03-04T16:48:33Z</time></trkpt>
<trkpt lat="47.614927" lon="10.805577"><ele>802.0</ele><time>2017-03-04T16:48:43Z</time></trkpt>
<trkpt lat="47.613736" lon="10.804241"><ele>800.0</ele><time>2017-03-04T16:48:54Z</time></trkpt>
<trkpt lat="47.610822" lon="10.80118"><ele>792.0</ele><time>2017-03-04T16:49:21Z</time></trkpt>
<trkpt lat="47.609524" lon="10.79984"><ele>790.0</ele><time>2017-03-04T16:49:33Z</time></trkpt>
<trkpt lat="47.608938" lon="10.7993"><ele>794.0</ele><time>2017-03-04T16:49:38Z</time></trkpt>
<trkpt lat="47.608418" lon="10.798957"><ele>792.0</ele><time>2017-03-04T16:49:42Z</time></trkpt>
<trkpt lat="47.608072" lon="10.798753"><ele>797.0</ele><time>2017-03-04T16:49:45Z</time></trkpt>
<trkpt lat="47.606535" lon="10.79804"><ele>795.0</ele><time>2017-03-04T16:49:57Z</time></trkpt>
<trkpt lat="47.606069" lon="10.797731"><ele>795.0</ele><time>2017-03-04T16:50:01Z</time></trkpt>
<trkpt lat="47.605736" lon="10.797447"><ele>796.0</ele><time>2017-03-04T16:50:04Z</time></trkpt>
<trkpt lat="47.605491" lon="10.797182"><ele>796.0</ele><time>2017-03-04T16:50:06Z</time></trkpt>
<trkpt lat="47.605267" lon="10.796898"><ele>796.0</ele><time>2017-03-04T16:50:09Z</time></trkpt>
<trkpt lat="47.605044" lon="10.796573"><ele>793.0</ele><time>2017-03-04T16:50:11Z</time></trkpt>
<trkpt lat="47.60437" lon="10.795224"><ele>793.0</ele><time>2017-03-04T16:50:20Z</time></trkpt>
<trkpt lat="47.604221" lon="10.794978"><ele>790.0</ele><time>2017-03-04T16:50:21Z</time></trkpt>
<trkpt lat="47.604014" lon="10.79469"><ele>796.0</ele><time>2017-03-04T16:50:24Z</time></trkpt>
<trkpt lat="47.60362" lon="10.794244"><ele>796.0</ele><time>2017-03-04T16:50:27Z</time></trkpt>
<trkpt lat="47.602747" lon="10.793517"><ele>791.0</ele><time>2017-03-04T16:50:35Z</time></trkpt>
<trkpt lat="47.602411" lon="10.793153"><ele>791.0</ele><time>2017-03-04T16:50:38Z</time></trkpt>
<trkpt lat="47.602203" lon="10.792846"><ele>791.0</ele><time>2017-03-04T16:50:40Z</time></trkpt>
<trkpt lat="47.601756" lon="10.792016"><ele>789.0</ele><time>2017-03-04T16:50:46Z</time></trkpt>
<trkpt lat="47.601477" lon="10.791553"><ele>791.0</ele><time>2017-03-04T16:50:49Z</time></trkpt>
<trkpt lat="47.601128" lon="10.791135"><ele>791.0</ele><time>2017-03-04T16:50:52Z</time></trkpt>
<trkpt lat="47.600754" lon="10.790843"><ele>795.0</ele><time>2017-03-04T16:50:55Z</time></trkpt>
<trkpt lat="47.599792" lon="10.790346"><ele>793.0</ele><time>2017-03-04T16:51:03Z</time></trkpt>
<trkpt lat="47.599569" lon="10.79018"><ele>793.0</ele><time>2017-03-04T16:51:05Z</time></trkpt>
<trkpt lat="47.599284" lon="10.789898"><ele>792.0</ele><time>2017-03-04T16:51:08Z</time></trkpt>
<trkpt lat="47.599059" lon="10.789614"><ele>793.0</ele><time>2017-03-04T16:51:10Z</time></trkpt>
<trkpt lat="47.598768" lon="10.789131"><ele>793.0</ele><time>2017-03-04T16:51:13Z</time></trkpt>
<trkpt lat="47.598619" lon="10.788795"><ele>793.0</ele><time>2017-03-04T16:51:15Z</time></trkpt>
<trkpt lat="47.59849" lon="10.788441"><ele>793.0</ele><time>2017-03-04T16:51:17Z</time></trkpt>
<trkpt lat="47.598373" lon="10.788032"><ele>784.0</ele><time>2017-03-04T16:51:20Z</time></trkpt>
<trkpt lat="47.598171" lon="10.787212"><ele>791.0</ele><time>2017-03-04T16:51:24Z</time></trkpt>
<trkpt lat="47.598074" lon="10.786933"><ele>791.0</ele><time>2017-03-04T16:51:26Z</time></trkpt>
<trkpt lat="47.597968" lon="10.786698"><ele>791.0</ele><time>2017-03-04T16:51:27Z</time></trkpt>
<trkpt lat="47.597816" lon="10.786462"><ele>784.0</ele><time>2017-03-04T16:51:29Z</time></trkpt>
<trkpt lat="47.597677" lon="10.786282"><ele>784.0</ele><time>2017-03-04T16:51:30Z</time></trkpt>
<trkpt lat="47.597521" lon="10.78612"><ele>784.0</ele><time>2017-03-04T16:51:32Z</time></trkpt>
<trkpt lat="47.597306" lon="10.785977"><ele>790.0</ele><time>2017-03-04T16:51:33Z</time></trkpt>
<trkpt lat="47.596876" lon="10.785788"><ele>784.0</ele><time>2017-03-04T16:51:37Z</time></trkpt>
<trkpt lat="47.596527" lon="10.785587"><ele>787.0</ele><time>2017-03-04T16:51:40Z</time></trkpt>
<trkpt lat="47.596332" lon="10.785433"><ele>787.0</ele><time>2017-03-04T16:51:41Z</time></trkpt>
<trkpt lat="47.596157" lon="10.785195"><ele>787.0</ele><time>2017-03-04T16:51:43Z</time></trkpt>
<trkpt lat="47.596016" lon="10.78493"><ele>784.0</ele><time>2017-03-04T16:51:45Z</time></trkpt>
<trkpt lat="47.595604" lon="10.783976"><ele>788.0</ele><time>2017-03-04T16:51:51Z</time></trkpt>
<trkpt lat="47.595472" lon="10.783759"><ele>788.0</ele><time>2017-03-04T16:51:52Z</time></trkpt>
<trkpt lat="47.595093" lon="10.783286"><ele>784.0</ele><time>2017-03-04T16:51:56Z</time></trkpt>
<trkpt lat="47.594223" lon="10.782363"><ele>784.0</ele><time>2017-03-04T16:52:04Z</time></trkpt>
<trkpt lat="47.593948" lon="10.781984"><ele>791.0</ele><time>2017-03-04T16:52:07Z</time></trkpt>
<trkpt lat="47.593712" lon="10.781587"><ele>784.0</ele><time>2017-03-04T16:52:10Z</time></trkpt>
<trkpt lat="47.593469" lon="10.781082"><ele>784.0</ele><time>2017-03-04T16:52:13Z</time></trkpt>
<trkpt lat="47.593187" lon="10.780286"><ele>787.0</ele><time>2017-03-04T16:52:17Z</time></trkpt>
<trkpt lat="47.592964" lon="10.779393"><ele>791.0</ele><time>2017-03-04T16:52:22Z</time></trkpt>
<trkpt lat="47.592324" lon="10.775829"><ele>798.0</ele><time>2017-03-04T16:52:41Z</time></trkpt>
<trkpt lat="47.592176" lon="10.775076"><ele>798.0</ele><time>2017-03-04T16:52:45Z</time></trkpt>
<trkpt lat="47.591875" lon="10.773805"><ele>789.0</ele><time>2017-03-04T16:52:52Z</time></trkpt>
<trkpt lat="47.591207" lon="10.771429"><ele>790.0</ele><time>2017-03-04T16:53:05Z</time></trkpt>
<trkpt lat="47.590972" lon="10.770655"><ele>789.0</ele><time>2017-03-04T16:53:09Z</time></trkpt>
<trkpt lat="47.590769" lon="10.770055"><ele>795.0</ele><time>2017-03-04T16:53:13Z</time></trkpt>
<trkpt lat="47.590535" lon="10.769431"><ele>792.0</ele><time>2017-03-04T16:53:16Z</time></trkpt>
<trkpt lat="47.590251" lon="10.768745"><ele>791.0</ele><time>2017-03-04T16:53:21Z</time></trkpt>
<trkpt lat="47.590038" lon="10.768292"><ele>788.0</ele><time>2017-03-04T16:53:23Z</time></trkpt>
<trkpt lat="47.589754" lon="10.767755"><ele>791.0</ele><time>2017-03-04T16:53:27Z</time></trkpt>
<trkpt lat="47.589624" lon="10.767545"><ele>791.0</ele><time>2017-03-04T16:53:28Z</time></trkpt>
<trkpt lat="47.589264" lon="10.767044"><ele>790.0</ele><time>2017-03-04T16:53:32Z</time></trkpt>
<trkpt lat="47.588676" lon="10.766373"><ele>789.0</ele><time>2017-03-04T16:53:38Z</time></trkpt>
<trkpt lat="47.587142" lon="10.764877"><ele>791.0</ele><time>2017-03-04T16:53:52Z</time></trkpt>
<trkpt lat="47.5867" lon="10.764351"><ele>791.0</ele><time>2017-03-04T16:53:56Z</time></trkpt>
<trkpt lat="47.586332" lon="10.763837"><ele>788.0</ele><time>2017-03-04T16:54:00Z</time></trkpt>
<trkpt lat="47.585735" lon="10.762781"><ele>791.0</ele><time>2017-03-04T16:54:07Z</time></trkpt>
<trkpt lat="47.585306" lon="10.761758"><ele>788.0</ele><time>2017-03-04T16:54:13Z</time></trkpt>
<trkpt lat="47.582747" lon="10.754197"><ele>783.0</ele><time>2017-03-04T16:54:56Z</time></trkpt>
<trkpt lat="47.582399" lon="10.753112"><ele>784.0</ele><time>2017-03-04T16:55:02Z</time></trkpt>
<trkpt lat="47.582078" lon="10.752024"><ele>786.0</ele><time>2017-03-04T16:55:08Z</time></trkpt>
<trkpt lat="47.582024" lon="10.751833"><ele>786.0</ele><time>2017-03-04T16:55:10Z</time></trkpt>
<trkpt lat="47.581872" lon="10.751929"><ele>786.0</ele><time>2017-03-04T16:55:12Z</time></trkpt>
<trkpt lat="47.581675" lon="10.751986"><ele>786.0</ele><time>2017-03-04T16:55:14Z</time></trkpt>
<trkpt lat="47.579901" lon="10.75043"><ele>786.0</ele><time>2017-03-04T16:55:36Z</time></trkpt>
<trkpt lat="47.576626" lon="10.747835"><ele>789.0</ele><time>2017-03-04T16:56:16Z</time></trkpt>
<trkpt lat="47.576358" lon="10.747644"><ele>789.0</ele><time>2017-03-04T16:56:20Z</time></trkpt>
<trkpt lat="47.575907" lon="10.747482"><ele>787.0</ele><time>2017-03-04T16:56:25Z</time></trkpt>
<trkpt lat="47.574901" lon="10.747179"><ele>790.0</ele><time>2017-03-04T16:56:36Z</time></trkpt>
<trkpt lat="47.575045" lon="10.746932"><ele>788.0</ele><time>2017-03-04T16:56:37Z</time></trkpt>
<trkpt lat="47.575464" lon="10.746086"><ele>787.0</ele><time>2017-03-04T16:56:41Z</time></trkpt>
<trkpt lat="47.575946" lon="10.744963"><ele>788.0</ele><time>2017-03-04T16:56:46Z</time></trkpt>
<trkpt lat="47.576131" lon="10.744457"><ele>788.0</ele><time>2017-03-04T16:56:48Z</time></trkpt>
<trkpt lat="47.576421" lon="10.74355"><ele>789.0</ele><time>2017-03-04T16:56:52Z</time></trkpt>
<trkpt lat="47.577318" lon="10.740183"><ele>793.0</ele><time>2017-03-04T16:57:05Z</time></trkpt>
<trkpt lat="47.577636" lon="10.739267"><ele>792.0</ele><time>2017-03-04T16:57:09Z</time></trkpt>
<trkpt lat="47.577934" lon="10.738575"><ele>791.0</ele><time>2017-03-04T16:57:12Z</time></trkpt>
<trkpt lat="47.577982" lon="10.738467"><ele>791.0</ele><time>2017-03-04T16:57:13Z</time></trkpt>
<trkpt lat="47.577104" lon="10.73748"><ele>792.0</ele><time>2017-03-04T16:57:22Z</time></trkpt>
<trkpt lat="47.576819" lon="10.737061"><ele>792.0</ele><time>2017-03-04T16:57:26Z</time></trkpt>
<trkpt lat="47.576522" lon="10.736488"><ele>791.0</ele><time>2017-03-04T16:57:30Z</time></trkpt>
<trkpt lat="47.576182" lon="10.735894"><ele>791.0</ele><time>2017-03-04T16:57:35Z</time></trkpt>
<trkpt lat="47.57606" lon="10.735677"><ele>793.0</ele><time>2017-03-04T16:57:36Z</time></trkpt>
<trkpt lat="47.575433" lon="10.735013"><ele>793.0</ele><time>2017-03-04T16:57:45Z</time></trkpt>
<trkpt lat="47.575072" lon="10.734581"><ele>793.0</ele><time>2017-03-04T16:57:50Z</time></trkpt>
<trkpt lat="47.574749" lon="10.734046"><ele>792.0</ele><time>2017-03-04T16:57:55Z</time></trkpt>
<trkpt lat="47.574474" lon="10.73348"><ele>792.0</ele><time>2017-03-04T16:58:00Z</time></trkpt>
<trkpt lat="47.574191" lon="10.732681"><ele>792.0</ele><time>2017-03-04T16:58:07Z</time></trkpt>
<trkpt lat="47.573525" lon="10.730496"><ele>793.0</ele><time>2017-03-04T16:58:24Z</time></trkpt>
<trkpt lat="47.573321" lon="10.729961"><ele>793.0</ele><time>2017-03-04T16:58:29Z</time></trkpt>
<trkpt lat="47.573149" lon="10.729595"><ele>793.0</ele><time>2017-03-04T16:58:32Z</time></trkpt>
<trkpt lat="47.572352" lon="10.7283"><ele>794.0</ele><time>2017-03-04T16:58:45Z</time></trkpt>
<trkpt lat="47.572065" lon="10.727769"><ele>794.0</ele><time>2017-03-04T16:58:50Z</time></trkpt>
<trkpt lat="47.571893" lon="10.727376"><ele>793.0</ele><time>2017-03-04T16:58:53Z</time></trkpt>
<trkpt lat="47.571025" lon="10.725108"><ele>794.0</ele><time>2017-03-04T16:59:12Z</time></trkpt>
<trkpt lat="47.570871" lon="10.724769"><ele>794.0</ele><time>2017-03-04T16:59:15Z</time></trkpt>
<trkpt lat="47.570617" lon="10.724271"><ele>793.0</ele><time>2017-03-04T16:59:20Z</time></trkpt>
<trkpt lat="47.570288" lon="10.72369"><ele>793.0</ele><time>2017-03-04T16:59:25Z</time></trkpt>
<trkpt lat="47.569924" lon="10.723106"><ele>795.0</ele><time>2017-03-04T16:59:31Z</time></trkpt>
<trkpt lat="47.569539" lon="10.722433"><ele>797.0</ele><time>2017-03-04T16:59:37Z</time></trkpt>
<trkpt lat="47.569028" lon="10.721633"><ele>798.0</ele><time>2017-03-04T16:59:45Z</time></trkpt>
<trkpt lat="47.568206" lon="10.720737"><ele>797.0</ele><time>2017-03-04T16:59:56Z</time></trkpt>
<trkpt lat="47.567651" lon="10.720059"><ele>797.0</ele><time>2017-03-04T17:00:04Z</time></trkpt>
<trkpt lat="47.567263" lon="10.719515"><ele>796.0</ele><time>2017-03-04T17:00:10Z</time></trkpt>
<trkpt lat="47.566521" lon="10.718352"><ele>797.0</ele><time>2017-03-04T17:00:22Z</time></trkpt>
<trkpt lat="47.566409" lon="10.718142"><ele>799.0</ele><time>2017-03-04T17:00:24Z</time></trkpt>
<trkpt lat="47.566307" lon="10.717949"><ele>799.0</ele><time>2017-03-04T17:00:25Z</time></trkpt>
<trkpt lat="47.565699" lon="10.716577"><ele>811.0</ele><time>2017-03-04T17:00:37Z</time></trkpt>
<trkpt lat="47.565358" lon="10.715701"><ele>817.0</ele><time>2017-03-04T17:00:45Z</time></trkpt>
<trkpt lat="47.565218" lon="10.715178"><ele>817.0</ele><time>2017-03-04T17:00:49Z</time></trkpt>
<trkpt lat="47.565153" lon="10.714811"><ele>819.0</ele><time>2017-03-04T17:00:52Z</time></trkpt>
<trkpt lat="47.565105" lon="10.714419"><ele>819.0</ele><time>2017-03-04T17:00:55Z</time></trkpt>
<trkpt lat="47.565075" lon="10.713918"><ele>816.0</ele><time>2017-03-04T17:00:58Z</time></trkpt>
<trkpt lat="47.565075" lon="10.713588"><ele>816.0</ele><time>2017-03-04T17:01:01Z</time></trkpt>
<trkpt lat="47.565122" lon="10.712902"><ele>816.0</ele><time>2017-03-04T17:01:06Z</time></trkpt>
<trkpt lat="47.565199" lon="10.712426"><ele>814.0</ele><time>2017-03-04T17:01:09Z</time></trkpt>
<trkpt lat="47.565258" lon="10.712166"><ele>814.0</ele><time>2017-03-04T17:01:11Z</time></trkpt>
<trkpt lat="47.565468" lon="10.71152"><ele>798.0</ele><time>2017-03-04T17:01:17Z</time></trkpt>
<trkpt lat="47.565644" lon="10.711087"><ele>798.0</ele><time>2017-03-04T17:01:21Z</time></trkpt>
<trkpt lat="47.565211" lon="10.71019"><ele>787.0</ele><time>2017-03-04T17:01:29Z</time></trkpt>
<trkpt lat="47.5651" lon="10.709853"><ele>789.0</ele><time>2017-03-04T17:01:32Z</time></trkpt>
<trkpt lat="47.564947" lon="10.709165"><ele>805.0</ele><time>2017-03-04T17:01:38Z</time></trkpt>
<trkpt lat="47.564818" lon="10.708068"><ele>803.0</ele><time>2017-03-04T17:01:47Z</time></trkpt>
<trkpt lat="47.564846" lon="10.706816"><ele>806.0</ele><time>2017-03-04T17:01:57Z</time></trkpt>
<trkpt lat="47.56491" lon="10.705984"><ele>811.0</ele><time>2017-03-04T17:02:03Z</time></trkpt>
<trkpt lat="47.565024" lon="10.705085"><ele>791.0</ele><time>2017-03-04T17:02:11Z</time></trkpt>
<trkpt lat="47.565174" lon="10.704369"><ele>792.0</ele><time>2017-03-04T17:02:17Z</time></trkpt>
<trkpt lat="47.56535" lon="10.703747"><ele>794.0</ele><time>2017-03-04T17:02:22Z</time></trkpt>
<trkpt lat="47.565413" lon="10.703392"><ele>794.0</ele><time>2017-03-04T17:02:25Z</time></trkpt>
<trkpt lat="47.565466" lon="10.70277"><ele>796.0</ele><time>2017-03-04T17:02:30Z</time></trkpt>
<trkpt lat="47.565456" lon="10.702292"><ele>797.0</ele><time>2017-03-04T17:02:34Z</time></trkpt>
<trkpt lat="47.565395" lon="10.701836"><ele>797.0</ele><time>2017-03-04T17:02:37Z</time></trkpt>
<trkpt lat="47.565327" lon="10.70089"><ele>794.0</ele><time>2017-03-04T17:02:45Z</time></trkpt>
<trkpt lat="47.565286" lon="10.700546"><ele>791.0</ele><time>2017-03-04T17:02:48Z</time></trkpt>
<trkpt lat="47.565263" lon="10.700463"><ele>791.0</ele><time>2017-03-04T17:02:48Z</time></trkpt>
<trkpt lat="47.565179" lon="10.700248"><ele>791.0</ele><time>2017-03-04T17:02:50Z</time></trkpt>
<trkpt lat="47.565021" lon="10.699973"><ele>800.0</ele><time>2017-03-04T17:02:53Z</time></trkpt>
<trkpt lat="47.564664" lon="10.699405"><ele>795.0</ele><time>2017-03-04T17:02:59Z</time></trkpt>
<trkpt lat="47.564091" lon="10.698581"><ele>804.0</ele><time>2017-03-04T17:03:09Z</time></trkpt>
<trkpt lat="47.56328" lon="10.69696"><ele>805.0</ele><time>2017-03-04T17:03:24Z</time></trkpt>
<trkpt lat="47.563027" lon="10.696503"><ele>798.0</ele><time>2017-03-04T17:03:29Z</time></trkpt>
<trkpt lat="47.562962" lon="10.696288"><ele>798.0</ele><time>2017-03-04T17:03:31Z</time></trkpt>
<trkpt lat="47.562953" lon="10.696195"><ele>798.0</ele><time>2017-03-04T17:03:32Z</time></trkpt>
<trkpt lat="47.563017" lon="10.695631"><ele>796.0</ele><time>2017-03-04T17:03:36Z</time></trkpt>
<trkpt lat="47.56298" lon="10.695419"><ele>796.0</ele><time>2017-03-04T17:03:38Z</time></trkpt>
<trkpt lat="47.562903" lon="10.695294"><ele>796.0</ele><time>2017-03-04T17:03:39Z</time></trkpt>
<trkpt lat="47.562803" lon="10.695211"><ele>796.0</ele><time>2017-03-04T17:03:41Z</time></trkpt>
<trkpt lat="47.562699" lon="10.695164"><ele>796.0</ele><time>2017-03-04T17:03:42Z</time></trkpt>
<trkpt lat="47.562573" lon="10.695164"><ele>796.0</ele><time>2017-03-04T17:03:43Z</time></trkpt>
<trkpt lat="47.562441" lon="10.695197"><ele>808.0</ele><time>2017-03-04T17:03:45Z</time></trkpt>
<trkpt lat="47.562044" lon="10.695382"><ele>808.0</ele><time>2017-03-04T17:03:50Z</time></trkpt>
<trkpt lat="47.561734" lon="10.695592"><ele>808.0</ele><time>2017-03-04T17:03:54Z</time></trkpt>
<trkpt lat="47.561511" lon="10.695707"><ele>798.0</ele><time>2017-03-04T17:03:57Z</time></trkpt>
<trkpt lat="47.561108" lon="10.69582"><ele>798.0</ele><time>2017-03-04T17:04:02Z</time></trkpt>
<trkpt lat="47.561044" lon="10.695886"><ele>812.0</ele><time>2017-03-04T17:04:04Z</time></trkpt>
<trkpt lat="47.560848" lon="10.696336"><ele>812.0</ele><time>2017-03-04T17:04:08Z</time></trkpt>
<trkpt lat="47.560788" lon="10.696432"><ele>804.0</ele><time>2017-03-04T17:04:09Z</time></trkpt>
<trkpt lat="47.56071" lon="10.696506"><ele>804.0</ele><time>2017-03-04T17:04:10Z</time></trkpt>
<trkpt lat="47.560616" lon="10.696553"><ele>804.0</ele><time>2017-03-04T17:04:12Z</time></trkpt>
<trkpt lat="47.560504" lon="10.696561"><ele>804.0</ele><time>2017-03-04T17:04:13Z</time></trkpt>
<trkpt lat="47.560269" lon="10.696489"><ele>804.0</ele><time>2017-03-04T17:04:15Z</time></trkpt>
<trkpt lat="47.559829" lon="10.696225"><ele>804.0</ele><time>2017-03-04T17:04:19Z</time></trkpt>
<trkpt lat="47.559687" lon="10.696105"><ele>804.0</ele><time>2017-03-04T17:04:20Z</time></trkpt>
<trkpt lat="47.559471" lon="10.695874"><ele>804.0</ele><time>2017-03-04T17:04:22Z</time></trkpt>
<trkpt lat="47.559247" lon="10.695597"><ele>801.0</ele><time>2017-03-04T17:04:24Z</time></trkpt>
<trkpt lat="47.558912" lon="10.695135"><ele>804.0</ele><time>2017-03-04T17:04:28Z</time></trkpt>
<trkpt lat="47.558783" lon="10.695016"><ele>804.0</ele><time>2017-03-04T17:04:29Z</time></trkpt>
<trkpt lat="47.558481" lon="10.69483"><ele>804.0</ele><time>2017-03-04T17:04:31Z</time></trkpt>
<trkpt lat="47.55836" lon="10.69473"><ele>804.0</ele><time>2017-03-04T17:04:32Z</time></trkpt>
<trkpt lat="47.55829" lon="10.69461"><ele>807.0</ele><time>2017-03-04T17:04:33Z</time></trkpt>
<trkpt lat="47.558003" lon="10.693836"><ele>806.0</ele><time>2017-03-04T17:04:38Z</time></trkpt>
<trkpt lat="47.557542" lon="10.69249"><ele>803.0</ele><time>2017-03-04T17:04:45Z</time></trkpt>
<trkpt lat="47.557352" lon="10.691867"><ele>814.0</ele><time>2017-03-04T17:04:49Z</time></trkpt>
<trkpt lat="47.557333" lon="10.691619"><ele>816.0</ele><time>2017-03-04T17:04:50Z</time></trkpt>
<trkpt lat="47.557367" lon="10.690585"><ele>814.0</ele><time>2017-03-04T17:04:55Z</time></trkpt>
<trkpt lat="47.557346" lon="10.690365"><ele>814.0</ele><time>2017-03-04T17:04:56Z</time></trkpt>
<trkpt lat="47.557304" lon="10.690139"><ele>814.0</ele><time>2017-03-04T17:04:58Z</time></trkpt>
<trkpt lat="47.557041" lon="10.689146"><ele>804.0</ele><time>2017-03-04T17:05:03Z</time></trkpt>
<trkpt lat="47.556939" lon="10.688823"><ele>804.0</ele><time>2017-03-04T17:05:05Z</time></trkpt>
<trkpt lat="47.556769" lon="10.688297"><ele>800.0</ele><time>2017-03-04T17:05:08Z</time></trkpt>
<trkpt lat="47.556288" lon="10.687104"><ele>803.0</ele><time>2017-03-04T17:05:15Z</time></trkpt>
<trkpt lat="47.555908" lon="10.686403"><ele>798.0</ele><time>2017-03-04T17:05:20Z</time></trkpt>
<trkpt lat="47.555665" lon="10.685823"><ele>803.0</ele><time>2017-03-04T17:05:23Z</time></trkpt>
<trkpt lat="47.555589" lon="10.685511"><ele>803.0</ele><time>2017-03-04T17:05:25Z</time></trkpt>
<trkpt lat="47.555506" lon="10.685057"><ele>803.0</ele><time>2017-03-04T17:05:27Z</time></trkpt>
<trkpt lat="47.555448" lon="10.684497"><ele>804.0</ele><time>2017-03-04T17:05:30Z</time></trkpt>
<trkpt lat="47.55532" lon="10.68402"><ele>802.0</ele><time>2017-03-04T17:05:33Z</time></trkpt>
<trkpt lat="47.555063" lon="10.683423"><ele>802.0</ele><time>2017-03-04T17:05:36Z</time></trkpt>
<trkpt lat="47.554766" lon="10.682874"><ele>802.0</ele><time>2017-03-04T17:05:40Z</time></trkpt>
<trkpt lat="47.554224" lon="10.681958"><ele>799.0</ele><time>2017-03-04T17:05:46Z</time></trkpt>
<trkpt lat="47.553839" lon="10.681199"><ele>803.0</ele><time>2017-03-04T17:05:51Z</time></trkpt>
<trkpt lat="47.553736" lon="10.680918"><ele>803.0</ele><time>2017-03-04T17:05:53Z</time></trkpt>
<trkpt lat="47.551436" lon="10.673477"><ele>805.0</ele><time>2017-03-04T17:06:34Z</time></trkpt>
<trkpt lat="47.55113" lon="10.672029"><ele>803.0</ele><time>2017-03-04T17:06:42Z</time></trkpt>
<trkpt lat="47.550795" lon="10.669692"><ele>818.0</ele><time>2017-03-04T17:06:54Z</time></trkpt>
<trkpt lat="47.550623" lon="10.66889"><ele>812.0</ele><time>2017-03-04T17:06:58Z</time></trkpt>
<trkpt lat="47.550471" lon="10.668353"><ele>812.0</ele><time>2017-03-04T17:07:01Z</time></trkpt>
<trkpt lat="47.55039" lon="10.66774"><ele>810.0</ele><time>2017-03-04T17:07:05Z</time></trkpt>
<trkpt lat="47.550306" lon="10.666893"><ele>809.0</ele><time>2017-03-04T17:07:09Z</time></trkpt>
<trkpt lat="47.55028" lon="10.665582"><ele>807.0</ele><time>2017-03-04T17:07:16Z</time></trkpt>
<trkpt lat="47.550263" lon="10.665382"><ele>807.0</ele><time>2017-03-04T17:07:17Z</time></trkpt>
<trkpt lat="47.550206" lon="10.665224"><ele>807.0</ele><time>2017-03-04T17:07:18Z</time></trkpt>
<trkpt lat="47.55001" lon="10.664837"><ele>806.0</ele><time>2017-03-04T17:07:20Z</time></trkpt>
<trkpt lat="47.549968" lon="10.664681"><ele>819.0</ele><time>2017-03-04T17:07:21Z</time></trkpt>
<trkpt lat="47.549878" lon="10.664064"><ele>814.0</ele><time>2017-03-04T17:07:24Z</time></trkpt>
<trkpt lat="47.549832" lon="10.663879"><ele>814.0</ele><time>2017-03-04T17:07:25Z</time></trkpt>
<trkpt lat="47.549337" lon="10.662786"><ele>808.0</ele><time>2017-03-04T17:07:32Z</time></trkpt>
<trkpt lat="47.549207" lon="10.662564"><ele>808.0</ele><time>2017-03-04T17:07:34Z</time></trkpt>
<trkpt lat="47.54855" lon="10.661706"><ele>811.0</ele><time>2017-03-04T17:07:40Z</time></trkpt>
<trkpt lat="47.548481" lon="10.661583"><ele>806.0</ele><time>2017-03-04T17:07:42Z</time></trkpt>
<trkpt lat="47.548419" lon="10.661334"><ele>806.0</ele><time>2017-03-04T17:07:43Z</time></trkpt>
<trkpt lat="47.548401" lon="10.661152"><ele>806.0</ele><time>2017-03-04T17:07:43Z</time></trkpt>
<trkpt lat="47.548398" lon="10.6605"><ele>808.0</ele><time>2017-03-04T17:07:46Z</time></trkpt>
<trkpt lat="47.548398" lon="10.660389"><ele>808.0</ele><time>2017-03-04T17:07:46Z</time></trkpt>
<trkpt lat="47.548466" lon="10.660349"><ele>808.0</ele><time>2017-03-04T17:07:47Z</time></trkpt>
<trkpt lat="47.548494" lon="10.660283"><ele>808.0</ele><time>2017-03-04T17:07:47Z</time></trkpt>
<trkpt lat="47.548492" lon="10.660185"><ele>808.0</ele><time>2017-03-04T17:07:48Z</time></trkpt>
<trkpt lat="47.548471" lon="10.660134"><ele>808.0</ele><time>2017-03-04T17:07:48Z</time></trkpt>
<trkpt lat="47.548428" lon="10.660093"><ele>808.0</ele><time>2017-03-04T17:07:49Z</time></trkpt>
<trkpt lat="47.548359" lon="10.6601"><ele>808.0</ele><time>2017-03-04T17:07:50Z</time></trkpt>
<trkpt lat="47.548327" lon="10.659985"><ele>816.0</ele><time>2017-03-04T17:07:51Z</time></trkpt>
<trkpt lat="47.548153" lon="10.659672"><ele>816.0</ele><time>2017-03-04T17:07:53Z</time></trkpt>
<trkpt lat="47.548037" lon="10.659532"><ele>816.0</ele><time>2017-03-04T17:07:55Z</time></trkpt>
<trkpt lat="47.547906" lon="10.659427"><ele>816.0</ele><time>2017-03-04T17:07:56Z</time></trkpt>
<trkpt lat="47.547673" lon="10.659329"><ele>816.0</ele><time>2017-03-04T17:07:59Z</time></trkpt>
<trkpt lat="47.547409" lon="10.659251"><ele>814.0</ele><time>2017-03-04T17:08:01Z</time></trkpt>
<trkpt lat="47.547291" lon="10.659152"><ele>822.0</ele><time>2017-03-04T17:08:03Z</time></trkpt>
<trkpt lat="47.547195" lon="10.658947"><ele>822.0</ele><time>2017-03-04T17:08:05Z</time></trkpt>
<trkpt lat="47.547187" lon="10.658849"><ele>822.0</ele><time>2017-03-04T17:08:05Z</time></trkpt>
<trkpt lat="47.54718" lon="10.658773"><ele>822.0</ele><time>2017-03-04T17:08:06Z</time></trkpt>
<trkpt lat="47.547198" lon="10.658709"><ele>822.0</ele><time>2017-03-04T17:08:07Z</time></trkpt>
<trkpt lat="47.547198" lon="10.658709"><ele>822.0</ele><time>2017-03-04T17:08:07Z</time></trkpt>
<trkpt lat="47.54718" lon="10.658773"><ele>822.0</ele><time>2017-03-04T17:08:08Z</time></trkpt>
<trkpt lat="47.547195" lon="10.658947"><ele>822.0</ele><time>2017-03-04T17:08:09Z</time></trkpt>
<trkpt lat="47.547291" lon="10.659152"><ele>822.0</ele><time>2017-03-04T17:08:11Z</time></trkpt>
<trkpt lat="47.547409" lon="10.659251"><ele>814.0</ele><time>2017-03-04T17:08:12Z</time></trkpt>
<trkpt lat="47.547673" lon="10.659329"><ele>816.0</ele><time>2017-03-04T17:08:15Z</time></trkpt>
<trkpt lat="47.547906" lon="10.659427"><ele>816.0</ele><time>2017-03-04T17:08:18Z</time></trkpt>
<trkpt lat="47.547974" lon="10.659481"><ele>816.0</ele><time>2017-03-04T17:08:18Z</time></trkpt>
<trkpt lat="47.548153" lon="10.659672"><ele>816.0</ele><time>2017-03-04T17:08:21Z</time></trkpt>
<trkpt lat="47.548327" lon="10.659985"><ele>816.0</ele><time>2017-03-04T17:08:24Z</time></trkpt>
<trkpt lat="47.548359" lon="10.6601"><ele>808.0</ele><time>2017-03-04T17:08:25Z</time></trkpt>
<trkpt lat="47.548305" lon="10.660168"><ele>812.0</ele><time>2017-03-04T17:08:25Z</time></trkpt>
<trkpt lat="47.548295" lon="10.660257"><ele>812.0</ele><time>2017-03-04T17:08:26Z</time></trkpt>
<trkpt lat="47.548317" lon="10.660333"><ele>812.0</ele><time>2017-03-04T17:08:26Z</time></trkpt>
<trkpt lat="47.548366" lon="10.660383"><ele>808.0</ele><time>2017-03-04T17:08:26Z</time></trkpt>
<trkpt lat="47.548398" lon="10.660389"><ele>808.0</ele><time>2017-03-04T17:08:26Z</time></trkpt>
<trkpt lat="47.548401" lon="10.661152"><ele>806.0</ele><time>2017-03-04T17:08:29Z</time></trkpt>
<trkpt lat="47.548419" lon="10.661334"><ele>806.0</ele><time>2017-03-04T17:08:30Z</time></trkpt>
<trkpt lat="47.548481" lon="10.661583"><ele>806.0</ele><time>2017-03-04T17:08:31Z</time></trkpt>
<trkpt lat="47.548367" lon="10.661642"><ele>806.0</ele><time>2017-03-04T17:08:32Z</time></trkpt>
<trkpt lat="47.548095" lon="10.661696"><ele>817.0</ele><time>2017-03-04T17:08:35Z</time></trkpt>
<trkpt lat="47.547979" lon="10.661767"><ele>817.0</ele><time>2017-03-04T17:08:36Z</time></trkpt>
<trkpt lat="47.547875" lon="10.66186"><ele>817.0</ele><time>2017-03-04T17:08:38Z</time></trkpt>
<trkpt lat="47.547761" lon="10.662075"><ele>817.0</ele><time>2017-03-04T17:08:40Z</time></trkpt>
<trkpt lat="47.547553" lon="10.662625"><ele>852.0</ele><time>2017-03-04T17:08:45Z</time></trkpt>
<trkpt lat="47.547435" lon="10.662887"><ele>824.0</ele><time>2017-03-04T17:08:48Z</time></trkpt>
<trkpt lat="47.54724" lon="10.663202"><ele>824.0</ele><time>2017-03-04T17:08:51Z</time></trkpt>
<trkpt lat="47.546965" lon="10.663585"><ele>848.0</ele><time>2017-03-04T17:08:56Z</time></trkpt>
<trkpt lat="47.546867" lon="10.66366"><ele>848.0</ele><time>2017-03-04T17:08:57Z</time></trkpt>
<trkpt lat="47.546778" lon="10.663691"><ele>848.0</ele><time>2017-03-04T17:08:58Z</time></trkpt>
<trkpt lat="47.54669" lon="10.663687"><ele>848.0</ele><time>2017-03-04T17:08:58Z</time></trkpt>
<trkpt lat="47.546569" lon="10.663626"><ele>821.0</ele><time>2017-03-04T17:09:01Z</time></trkpt>
<trkpt lat="47.546496" lon="10.663541"><ele>821.0</ele><time>2017-03-04T17:09:02Z</time></trkpt>
<trkpt lat="47.546289" lon="10.663167"><ele>809.0</ele><time>2017-03-04T17:09:06Z</time></trkpt>
<trkpt lat="47.546224" lon="10.663087"><ele>809.0</ele><time>2017-03-04T17:09:07Z</time></trkpt>
<trkpt lat="47.546176" lon="10.663048"><ele>809.0</ele><time>2017-03-04T17:09:07Z</time></trkpt>
<trkpt lat="47.54603" lon="10.663018"><ele>809.0</ele><time>2017-03-04T17:09:09Z</time></trkpt>
<trkpt lat="47.545917" lon="10.663026"><ele>809.0</ele><time>2017-03-04T17:09:10Z</time></trkpt>
<trkpt lat="47.545796" lon="10.663064"><ele>814.0</ele><time>2017-03-04T17:09:11Z</time></trkpt>
<trkpt lat="47.545613" lon="10.663183"><ele>814.0</ele><time>2017-03-04T17:09:13Z</time></trkpt>
<trkpt lat="47.545543" lon="10.663263"><ele>814.0</ele><time>2017-03-04T17:09:14Z</time></trkpt>
<trkpt lat="47.545421" lon="10.663489"><ele>825.0</ele><time>2017-03-04T17:09:16Z</time></trkpt>
<trkpt lat="47.545346" lon="10.663731"><ele>825.0</ele><time>2017-03-04T17:09:18Z</time></trkpt>
<trkpt lat="47.545301" lon="10.664029"><ele>825.0</ele><time>2017-03-04T17:09:20Z</time></trkpt>
<trkpt lat="47.545278" lon="10.664485"><ele>834.0</ele><time>2017-03-04T17:09:23Z</time></trkpt>
<trkpt lat="47.545247" lon="10.664701"><ele>834.0</ele><time>2017-03-04T17:09:25Z</time></trkpt>
<trkpt lat="47.54499" lon="10.665775"><ele>817.0</ele><time>2017-03-04T17:09:33Z</time></trkpt>
<trkpt lat="47.544884" lon="10.66614"><ele>820.0</ele><time>2017-03-04T17:09:35Z</time></trkpt>
<trkpt lat="47.544799" lon="10.666568"><ele>820.0</ele><time>2017-03-04T17:09:39Z</time></trkpt>
<trkpt lat="47.544759" lon="10.666914"><ele>819.0</ele><time>2017-03-04T17:09:41Z</time></trkpt>
<trkpt lat="47.544731" lon="10.667404"><ele>819.0</ele><time>2017-03-04T17:09:44Z</time></trkpt>
<trkpt lat="47.544735" lon="10.667826"><ele>821.0</ele><time>2017-03-04T17:09:47Z</time></trkpt>
<trkpt lat="47.544848" lon="10.669882"><ele>822.0</ele><time>2017-03-04T17:10:01Z</time></trkpt>
<trkpt lat="47.544841" lon="10.670151"><ele>819.0</ele><time>2017-03-04T17:10:03Z</time></trkpt>
<trkpt lat="47.544764" lon="10.670657"><ele>819.0</ele><time>2017-03-04T17:10:07Z</time></trkpt>
<trkpt lat="47.544318" lon="10.672113"><ele>817.0</ele><time>2017-03-04T17:10:18Z</time></trkpt>
<trkpt lat="47.544224" lon="10.672858"><ele>819.0</ele><time>2017-03-04T17:10:23Z</time></trkpt>
<trkpt lat="47.544108" lon="10.673517"><ele>818.0</ele><time>2017-03-04T17:10:27Z</time></trkpt>
<trkpt lat="47.543813" lon="10.674876"><ele>820.0</ele><time>2017-03-04T17:10:37Z</time></trkpt>
<trkpt lat="47.543678" lon="10.675314"><ele>820.0</ele><time>2017-03-04T17:10:40Z</time></trkpt>
<trkpt lat="47.543473" lon="10.675653"><ele>820.0</ele><time>2017-03-04T17:10:44Z</time></trkpt>
<trkpt lat="47.543351" lon="10.675754"><ele>820.0</ele><time>2017-03-04T17:10:45Z</time></trkpt>
<trkpt lat="47.543007" lon="10.675919"><ele>820.0</ele><time>2017-03-04T17:10:49Z</time></trkpt>
<trkpt lat="47.542739" lon="10.676105"><ele>820.0</ele><time>2017-03-04T17:10:52Z</time></trkpt>
<trkpt lat="47.542329" lon="10.676501"><ele>815.0</ele><time>2017-03-04T17:10:57Z</time></trkpt>
<trkpt lat="47.541624" lon="10.677396"><ele>817.0</ele><time>2017-03-04T17:11:06Z</time></trkpt>
<trkpt lat="47.541159" lon="10.678113"><ele>819.0</ele><time>2017-03-04T17:11:13Z</time></trkpt>
<trkpt lat="47.540904" lon="10.678612"><ele>819.0</ele><time>2017-03-04T17:11:17Z</time></trkpt>
<trkpt lat="47.540704" lon="10.679229"><ele>820.0</ele><time>2017-03-04T17:11:22Z</time></trkpt>
<trkpt lat="47.540606" lon="10.679421"><ele>820.0</ele><time>2017-03-04T17:11:23Z</time></trkpt>
<trkpt lat="47.540585" lon="10.679631"><ele>820.0</ele><time>2017-03-04T17:11:25Z</time></trkpt>
<trkpt lat="47.540589" lon="10.679752"><ele>820.0</ele><time>2017-03-04T17:11:26Z</time></trkpt>
<trkpt lat="47.540637" lon="10.680012"><ele>821.0</ele><time>2017-03-04T17:11:27Z</time></trkpt>
<trkpt lat="47.540745" lon="10.680416"><ele>821.0</ele><time>2017-03-04T17:11:30Z</time></trkpt>
<trkpt lat="47.540818" lon="10.680897"><ele>820.0</ele><time>2017-03-04T17:11:34Z</time></trkpt>
<trkpt lat="47.541184" lon="10.684959"><ele>822.0</ele><time>2017-03-04T17:12:02Z</time></trkpt>
<trkpt lat="47.541187" lon="10.68531"><ele>823.0</ele><time>2017-03-04T17:12:04Z</time></trkpt>
<trkpt lat="47.541166" lon="10.685551"><ele>823.0</ele><time>2017-03-04T17:12:06Z</time></trkpt>
<trkpt lat="47.541078" lon="10.68602"><ele>824.0</ele><time>2017-03-04T17:12:09Z</time></trkpt>
<trkpt lat="47.540984" lon="10.68631"><ele>824.0</ele><time>2017-03-04T17:12:11Z</time></trkpt>
<trkpt lat="47.540913" lon="10.686453"><ele>824.0</ele><time>2017-03-04T17:12:13Z</time></trkpt>
<trkpt lat="47.540272" lon="10.68752"><ele>824.0</ele><time>2017-03-04T17:12:22Z</time></trkpt>
<trkpt lat="47.539467" lon="10.688945"><ele>828.0</ele><time>2017-03-04T17:12:35Z</time></trkpt>
<trkpt lat="47.539258" lon="10.689199"><ele>825.0</ele><time>2017-03-04T17:12:38Z</time></trkpt>
<trkpt lat="47.539088" lon="10.689353"><ele>830.0</ele><time>2017-03-04T17:12:40Z</time></trkpt>
<trkpt lat="47.538771" lon="10.689508"><ele>830.0</ele><time>2017-03-04T17:12:43Z</time></trkpt>
<trkpt lat="47.538137" lon="10.689719"><ele>834.0</ele><time>2017-03-04T17:12:50Z</time></trkpt>
<trkpt lat="47.537935" lon="10.689856"><ele>834.0</ele><time>2017-03-04T17:12:52Z</time></trkpt>
<trkpt lat="47.537744" lon="10.690043"><ele>832.0</ele><time>2017-03-04T17:12:54Z</time></trkpt>
<trkpt lat="47.537567" lon="10.69028"><ele>832.0</ele><time>2017-03-04T17:12:57Z</time></trkpt>
<trkpt lat="47.537024" lon="10.69131"><ele>837.0</ele><time>2017-03-04T17:13:06Z</time></trkpt>
<trkpt lat="47.536852" lon="10.691527"><ele>837.0</ele><time>2017-03-04T17:13:08Z</time></trkpt>
<trkpt lat="47.536058" lon="10.692364"><ele>839.0</ele><time>2017-03-04T17:13:18Z</time></trkpt>
<trkpt lat="47.53496" lon="10.693815"><ele>830.0</ele><time>2017-03-04T17:13:33Z</time></trkpt>
<trkpt lat="47.534783" lon="10.694095"><ele>830.0</ele><time>2017-03-04T17:13:35Z</time></trkpt>
<trkpt lat="47.534637" lon="10.694505"><ele>835.0</ele><time>2017-03-04T17:13:39Z</time></trkpt>
<trkpt lat="47.534378" lon="10.695423"><ele>837.0</ele><time>2017-03-04T17:13:45Z</time></trkpt>
<trkpt lat="47.534262" lon="10.695716"><ele>837.0</ele><time>2017-03-04T17:13:48Z</time></trkpt>
<trkpt lat="47.534116" lon="10.695911"><ele>825.0</ele><time>2017-03-04T17:13:50Z</time></trkpt>
<trkpt lat="47.532889" lon="10.697135"><ele>827.0</ele><time>2017-03-04T17:14:05Z</time></trkpt>
<trkpt lat="47.532038" lon="10.698087"><ele>827.0</ele><time>2017-03-04T17:14:16Z</time></trkpt>
<trkpt lat="47.531229" lon="10.699145"><ele>830.0</ele><time>2017-03-04T17:14:27Z</time></trkpt>
<trkpt lat="47.530913" lon="10.699452"><ele>828.0</ele><time>2017-03-04T17:14:30Z</time></trkpt>
<trkpt lat="47.529849" lon="10.700308"><ele>830.0</ele><time>2017-03-04T17:14:43Z</time></trkpt>
<trkpt lat="47.529749" lon="10.700462"><ele>830.0</ele><time>2017-03-04T17:14:44Z</time></trkpt>
<trkpt lat="47.529511" lon="10.700764"><ele>830.0</ele><time>2017-03-04T17:14:47Z</time></trkpt>
<trkpt lat="47.529278" lon="10.70134"><ele>833.0</ele><time>2017-03-04T17:14:52Z</time></trkpt>
<trkpt lat="47.528951" lon="10.702349"><ele>832.0</ele><time>2017-03-04T17:15:00Z</time></trkpt>
<trkpt lat="47.528833" lon="10.702644"><ele>832.0</ele><time>2017-03-04T17:15:02Z</time></trkpt>
<trkpt lat="47.528687" lon="10.702846"><ele>832.0</ele><time>2017-03-04T17:15:04Z</time></trkpt>
<trkpt lat="47.528538" lon="10.703"><ele>832.0</ele><time>2017-03-04T17:15:07Z</time></trkpt>
<trkpt lat="47.528373" lon="10.703106"><ele>832.0</ele><time>2017-03-04T17:15:09Z</time></trkpt>
<trkpt lat="47.528082" lon="10.70318"><ele>836.0</ele><time>2017-03-04T17:15:12Z</time></trkpt>
<trkpt lat="47.527835" lon="10.703208"><ele>836.0</ele><time>2017-03-04T17:15:14Z</time></trkpt>
<trkpt lat="47.526766" lon="10.703171"><ele>837.0</ele><time>2017-03-04T17:15:24Z</time></trkpt>
<trkpt lat="47.52659" lon="10.703208"><ele>835.0</ele><time>2017-03-04T17:15:25Z</time></trkpt>
<trkpt lat="47.52644" lon="10.703345"><ele>863.0</ele><time>2017-03-04T17:15:28Z</time></trkpt>
<trkpt lat="47.526317" lon="10.703575"><ele>863.0</ele><time>2017-03-04T17:15:30Z</time></trkpt>
<trkpt lat="47.526233" lon="10.703883"><ele>863.0</ele><time>2017-03-04T17:15:32Z</time></trkpt>
<trkpt lat="47.526202" lon="10.704223"><ele>885.0</ele><time>2017-03-04T17:15:35Z</time></trkpt>
<trkpt lat="47.526209" lon="10.704764"><ele>885.0</ele><time>2017-03-04T17:15:38Z</time></trkpt>
<trkpt lat="47.526259" lon="10.705491"><ele>886.0</ele><time>2017-03-04T17:15:43Z</time></trkpt>
<trkpt lat="47.52642" lon="10.706927"><ele>880.0</ele><time>2017-03-04T17:15:52Z</time></trkpt>
<trkpt lat="47.526584" lon="10.708121"><ele>877.0</ele><time>2017-03-04T17:16:00Z</time></trkpt>
<trkpt lat="47.526613" lon="10.708452"><ele>874.0</ele><time>2017-03-04T17:16:02Z</time></trkpt>
<trkpt lat="47.526608" lon="10.708785"><ele>874.0</ele><time>2017-03-04T17:16:04Z</time></trkpt>
<trkpt lat="47.526557" lon="10.709072"><ele>874.0</ele><time>2017-03-04T17:16:06Z</time></trkpt>
<trkpt lat="47.526446" lon="10.709376"><ele>877.0</ele><time>2017-03-04T17:16:08Z</time></trkpt>
<trkpt lat="47.526295" lon="10.709616"><ele>877.0</ele><time>2017-03-04T17:16:10Z</time></trkpt>
<trkpt lat="47.525663" lon="10.710183"><ele>873.0</ele><time>2017-03-04T17:16:17Z</time></trkpt>
<trkpt lat="47.525383" lon="10.710565"><ele>873.0</ele><time>2017-03-04T17:16:20Z</time></trkpt>
<trkpt lat="47.525201" lon="10.710698"><ele>873.0</ele><time>2017-03-04T17:16:22Z</time></trkpt>
<trkpt lat="47.524978" lon="10.710728"><ele>869.0</ele><time>2017-03-04T17:16:24Z</time></trkpt>
<trkpt lat="47.524784" lon="10.710678"><ele>869.0</ele><time>2017-03-04T17:16:26Z</time></trkpt>
<trkpt lat="47.524372" lon="10.710378"><ele>869.0</ele><time>2017-03-04T17:16:30Z</time></trkpt>
<trkpt lat="47.524139" lon="10.710234"><ele>863.0</ele><time>2017-03-04T17:16:33Z</time></trkpt>
<trkpt lat="47.523947" lon="10.710202"><ele>863.0</ele><time>2017-03-04T17:16:34Z</time></trkpt>
<trkpt lat="47.523806" lon="10.710236"><ele>863.0</ele><time>2017-03-04T17:16:36Z</time></trkpt>
<trkpt lat="47.523661" lon="10.710339"><ele>863.0</ele><time>2017-03-04T17:16:37Z</time></trkpt>
<trkpt lat="47.523454" lon="10.710565"><ele>863.0</ele><time>2017-03-04T17:16:40Z</time></trkpt>
<trkpt lat="47.522678" lon="10.711506"><ele>862.0</ele><time>2017-03-04T17:16:49Z</time></trkpt>
<trkpt lat="47.522574" lon="10.71176"><ele>874.0</ele><time>2017-03-04T17:16:51Z</time></trkpt>
<trkpt lat="47.522502" lon="10.712264"><ele>874.0</ele><time>2017-03-04T17:16:54Z</time></trkpt>
<trkpt lat="47.522441" lon="10.712505"><ele>853.0</ele><time>2017-03-04T17:16:57Z</time></trkpt>
<trkpt lat="47.522323" lon="10.712699"><ele>853.0</ele><time>2017-03-04T17:16:58Z</time></trkpt>
<trkpt lat="47.521876" lon="10.713021"><ele>853.0</ele><time>2017-03-04T17:17:03Z</time></trkpt>
<trkpt lat="47.521261" lon="10.713806"><ele>842.0</ele><time>2017-03-04T17:17:10Z</time></trkpt>
<trkpt lat="47.521148" lon="10.713919"><ele>842.0</ele><time>2017-03-04T17:17:12Z</time></trkpt>
<trkpt lat="47.521028" lon="10.71399"><ele>842.0</ele><time>2017-03-04T17:17:13Z</time></trkpt>
<trkpt lat="47.520852" lon="10.714051"><ele>842.0</ele><time>2017-03-04T17:17:14Z</time></trkpt>
<trkpt lat="47.520642" lon="10.714034"><ele>837.0</ele><time>2017-03-04T17:17:16Z</time></trkpt>
<trkpt lat="47.520478" lon="10.71392"><ele>837.0</ele><time>2017-03-04T17:17:18Z</time></trkpt>
<trkpt lat="47.520283" lon="10.713729"><ele>837.0</ele><time>2017-03-04T17:17:20Z</time></trkpt>
<trkpt lat="47.520101" lon="10.713623"><ele>837.0</ele><time>2017-03-04T17:17:22Z</time></trkpt>
<trkpt lat="47.519968" lon="10.713554"><ele>837.0</ele><time>2017-03-04T17:17:23Z</time></trkpt>
<trkpt lat="47.519777" lon="10.713507"><ele>837.0</ele><time>2017-03-04T17:17:25Z</time></trkpt>
<trkpt lat="47.519617" lon="10.713498"><ele>837.0</ele><time>2017-03-04T17:17:27Z</time></trkpt>
<trkpt lat="47.51946" lon="10.71352"><ele>837.0</ele><time>2017-03-04T17:17:28Z</time></trkpt>
<trkpt lat="47.519213" lon="10.713599"><ele>837.0</ele><time>2017-03-04T17:17:30Z</time></trkpt>
<trkpt lat="47.518693" lon="10.713603"><ele>839.0</ele><time>2017-03-04T17:17:35Z</time></trkpt>
<trkpt lat="47.518364" lon="10.713655"><ele>839.0</ele><time>2017-03-04T17:17:38Z</time></trkpt>
<trkpt lat="47.51796" lon="10.713792"><ele>839.0</ele><time>2017-03-04T17:17:42Z</time></trkpt>
<trkpt lat="47.517789" lon="10.713818"><ele>839.0</ele><time>2017-03-04T17:17:44Z</time></trkpt>
<trkpt lat="47.517258" lon="10.71374"><ele>840.0</ele><time>2017-03-04T17:17:49Z</time></trkpt>
<trkpt lat="47.517008" lon="10.71389"><ele>840.0</ele><time>2017-03-04T17:17:51Z</time></trkpt>
<trkpt lat="47.51638" lon="10.714365"><ele>839.0</ele><time>2017-03-04T17:17:58Z</time></trkpt>
<trkpt lat="47.516314" lon="10.714376"><ele>839.0</ele><time>2017-03-04T17:17:58Z</time></trkpt>
<trkpt lat="47.516274" lon="10.71435"><ele>839.0</ele><time>2017-03-04T17:17:59Z</time></trkpt>
<trkpt lat="47.516237" lon="10.71431"><ele>839.0</ele><time>2017-03-04T17:17:59Z</time></trkpt>
<trkpt lat="47.515557" lon="10.715649"><ele>839.0</ele><time>2017-03-04T17:18:11Z</time></trkpt>
<trkpt lat="47.515479" lon="10.715779"><ele>839.0</ele><time>2017-03-04T17:18:13Z</time></trkpt>
<trkpt lat="47.515236" lon="10.716019"><ele>839.0</ele><time>2017-03-04T17:18:16Z</time></trkpt>
<trkpt lat="47.514639" lon="10.716367"><ele>840.0</ele><time>2017-03-04T17:18:23Z</time></trkpt>
<trkpt lat="47.514548" lon="10.716442"><ele>840.0</ele><time>2017-03-04T17:18:24Z</time></trkpt>
<trkpt lat="47.514249" lon="10.716856"><ele>841.0</ele><time>2017-03-04T17:18:28Z</time></trkpt>
<trkpt lat="47.513872" lon="10.717285"><ele>839.0</ele><time>2017-03-04T17:18:33Z</time></trkpt>
<trkpt lat="47.513627" lon="10.71753"><ele>840.0</ele><time>2017-03-04T17:18:37Z</time></trkpt>
<trkpt lat="47.513479" lon="10.717757"><ele>840.0</ele><time>2017-03-04T17:18:39Z</time></trkpt>
<trkpt lat="47.513077" lon="10.718479"><ele>839.0</ele><time>2017-03-04T17:18:46Z</time></trkpt>
<trkpt lat="47.512847" lon="10.718776"><ele>839.0</ele><time>2017-03-04T17:18:49Z</time></trkpt>
<trkpt lat="47.512641" lon="10.718965"><ele>839.0</ele><time>2017-03-04T17:18:52Z</time></trkpt>
<trkpt lat="47.512392" lon="10.719152"><ele>838.0</ele><time>2017-03-04T17:18:55Z</time></trkpt>
<trkpt lat="47.51065" lon="10.720423"><ele>839.0</ele><time>2017-03-04T17:19:16Z</time></trkpt>
<trkpt lat="47.510425" lon="10.720565"><ele>839.0</ele><time>2017-03-04T17:19:18Z</time></trkpt>
<trkpt lat="47.510216" lon="10.720669"><ele>839.0</ele><time>2017-03-04T17:19:21Z</time></trkpt>
<trkpt lat="47.509934" lon="10.720748"><ele>835.0</ele><time>2017-03-04T17:19:24Z</time></trkpt>
<trkpt lat="47.50972" lon="10.720784"><ele>835.0</ele><time>2017-03-04T17:19:26Z</time></trkpt>
<trkpt lat="47.509044" lon="10.720817"><ele>835.0</ele><time>2017-03-04T17:19:33Z</time></trkpt>
<trkpt lat="47.508741" lon="10.720785"><ele>835.0</ele><time>2017-03-04T17:19:37Z</time></trkpt>
<trkpt lat="47.508599" lon="10.720744"><ele>835.0</ele><time>2017-03-04T17:19:38Z</time></trkpt>
<trkpt lat="47.508424" lon="10.720652"><ele>835.0</ele><time>2017-03-04T17:19:40Z</time></trkpt>
<trkpt lat="47.507618" lon="10.720114"><ele>838.0</ele><time>2017-03-04T17:19:50Z</time></trkpt>
<trkpt lat="47.507419" lon="10.720015"><ele>843.0</ele><time>2017-03-04T17:19:52Z</time></trkpt>
<trkpt lat="47.506926" lon="10.719897"><ele>838.0</ele><time>2017-03-04T17:19:57Z</time></trkpt>
<trkpt lat="47.506565" lon="10.71991"><ele>839.0</ele><time>2017-03-04T17:20:01Z</time></trkpt>
<trkpt lat="47.505148" lon="10.720198"><ele>847.0</ele><time>2017-03-04T17:20:17Z</time></trkpt>
<trkpt lat="47.505023" lon="10.720223"><ele>847.0</ele><time>2017-03-04T17:20:18Z</time></trkpt>
<trkpt lat="47.504942" lon="10.720215"><ele>842.0</ele><time>2017-03-04T17:20:20Z</time></trkpt>
<trkpt lat="47.504717" lon="10.720249"><ele>842.0</ele><time>2017-03-04T17:20:22Z</time></trkpt>
<trkpt lat="47.504685" lon="10.720274"><ele>842.0</ele><time>2017-03-04T17:20:23Z</time></trkpt>
<trkpt lat="47.504265" lon="10.720295"><ele>842.0</ele><time>2017-03-04T17:20:27Z</time></trkpt>
<trkpt lat="47.503611" lon="10.720252"><ele>839.0</ele><time>2017-03-04T17:20:35Z</time></trkpt>
<trkpt lat="47.501" lon="10.720217"><ele>845.0</ele><time>2017-03-04T17:21:05Z</time></trkpt>
<trkpt lat="47.500582" lon="10.720159"><ele>846.0</ele><time>2017-03-04T17:21:10Z</time></trkpt>
<trkpt lat="47.499855" lon="10.720011"><ele>845.0</ele><time>2017-03-04T17:21:19Z</time></trkpt>
<trkpt lat="47.496495" lon="10.719633"><ele>845.0</ele><time>2017-03-04T17:21:58Z</time></trkpt>
<trkpt lat="47.496111" lon="10.719571"><ele>845.0</ele><time>2017-03-04T17:22:02Z</time></trkpt>
<trkpt lat="47.495505" lon="10.719424"><ele>849.0</ele><time>2017-03-04T17:22:10Z</time></trkpt>
<trkpt lat="47.495206" lon="10.719345"><ele>849.0</ele><time>2017-03-04T17:22:13Z</time></trkpt>
<trkpt lat="47.4951" lon="10.720126"><ele>849.0</ele><time>2017-03-04T17:22:16Z</time></trkpt>
<trkpt lat="47.495061" lon="10.720835"><ele>847.0</ele><time>2017-03-04T17:22:19Z</time></trkpt>
<trkpt lat="47.495003" lon="10.720945"><ele>847.0</ele><time>2017-03-04T17:22:20Z</time></trkpt>
<trkpt lat="47.494957" lon="10.720977"><ele>848.0</ele><time>2017-03-04T17:22:20Z</time></trkpt>
<trkpt lat="47.493904" lon="10.721027"><ele>848.0</ele><time>2017-03-04T17:22:26Z</time></trkpt>
<trkpt lat="47.4932" lon="10.721001"><ele>851.0</ele><time>2017-03-04T17:22:30Z</time></trkpt>
<trkpt lat="47.49312" lon="10.720924"><ele>851.0</ele><time>2017-03-04T17:22:30Z</time></trkpt>
<trkpt lat="47.493039" lon="10.720847"><ele>851.0</ele><time>2017-03-04T17:22:31Z</time></trkpt>
<trkpt lat="47.493009" lon="10.720742"><ele>850.0</ele><time>2017-03-04T17:22:32Z</time></trkpt>
<trkpt lat="47.49296" lon="10.720697"><ele>850.0</ele><time>2017-03-04T17:22:32Z</time></trkpt>
<trkpt lat="47.492894" lon="10.720699"><ele>850.0</ele><time>2017-03-04T17:22:33Z</time></trkpt>
<trkpt lat="47.492861" lon="10.720725"><ele>850.0</ele><time>2017-03-04T17:22:34Z</time></trkpt>
<trkpt lat="47.492835" lon="10.720767"><ele>850.0</ele><time>2017-03-04T17:22:34Z</time></trkpt>
<trkpt lat="47.49282" lon="10.720882"><ele>851.0</ele><time>2017-03-04T17:22:35Z</time></trkpt>
<trkpt lat="47.492829" lon="10.720925"><ele>851.0</ele><time>2017-03-04T17:22:35Z</time></trkpt>
<trkpt lat="47.492779" lon="10.721032"><ele>851.0</ele><time>2017-03-04T17:22:36Z</time></trkpt>
<trkpt lat="47.492721" lon="10.721118"><ele>851.0</ele><time>2017-03-04T17:22:37Z</time></trkpt>
<trkpt lat="47.492618" lon="10.721211"><ele>851.0</ele><time>2017-03-04T17:22:38Z</time></trkpt>
<trkpt lat="47.491451" lon="10.721247"><ele>852.0</ele><time>2017-03-04T17:22:51Z</time></trkpt>
<trkpt lat="47.491364" lon="10.721257"><ele>852.0</ele><time>2017-03-04T17:22:52Z</time></trkpt>
<trkpt lat="47.49134" lon="10.721217"><ele>852.0</ele><time>2017-03-04T17:22:53Z</time></trkpt>
<trkpt lat="47.491273" lon="10.721185"><ele>852.0</ele><time>2017-03-04T17:22:53Z</time></trkpt>
<trkpt lat="47.491208" lon="10.721225"><ele>852.0</ele><time>2017-03-04T17:22:54Z</time></trkpt>
<trkpt lat="47.491187" lon="10.721268"><ele>852.0</ele><time>2017-03-04T17:22:54Z</time></trkpt>
<trkpt lat="47.491023" lon="10.720396"><ele>852.0</ele><time>2017-03-04T17:22:59Z</time></trkpt>
<trkpt lat="47.490912" lon="10.720089"><ele>852.0</ele><time>2017-03-04T17:23:00Z</time></trkpt>
<trkpt lat="47.490722" lon="10.719736"><ele>852.0</ele><time>2017-03-04T17:23:03Z</time></trkpt>
<trkpt lat="47.490751" lon="10.719668"><ele>852.0</ele><time>2017-03-04T17:23:03Z</time></trkpt>
<trkpt lat="47.490744" lon="10.719573"><ele>852.0</ele><time>2017-03-04T17:23:04Z</time></trkpt>
<trkpt lat="47.490695" lon="10.71951"><ele>852.0</ele><time>2017-03-04T17:23:05Z</time></trkpt>
<trkpt lat="47.490621" lon="10.719519"><ele>852.0</ele><time>2017-03-04T17:23:05Z</time></trkpt>
<trkpt lat="47.490588" lon="10.719566"><ele>852.0</ele><time>2017-03-04T17:23:06Z</time></trkpt>
<trkpt lat="47.490545" lon="10.719466"><ele>852.0</ele><time>2017-03-04T17:23:07Z</time></trkpt>
<trkpt lat="47.49036" lon="10.719267"><ele>852.0</ele><time>2017-03-04T17:23:09Z</time></trkpt>
<trkpt lat="47.48965" lon="10.718661"><ele>853.0</ele><time>2017-03-04T17:23:17Z</time></trkpt>
<trkpt lat="47.489346" lon="10.718248"><ele>855.0</ele><time>2017-03-04T17:23:21Z</time></trkpt>
<trkpt lat="47.489275" lon="10.718225"><ele>855.0</ele><time>2017-03-04T17:23:21Z</time></trkpt>
<trkpt lat="47.489205" lon="10.718215"><ele>855.0</ele><time>2017-03-04T17:23:22Z</time></trkpt>
<trkpt lat="47.489196" lon="10.71819"><ele>855.0</ele><time>2017-03-04T17:23:22Z</time></trkpt>
<trkpt lat="47.489196" lon="10.71819"><ele>855.0</ele><time>2017-03-04T17:23:22Z</time></trkpt>
<trkpt lat="47.489154" lon="10.71812"><ele>856.0</ele><time>2017-03-04T17:23:23Z</time></trkpt>
<trkpt lat="47.489083" lon="10.718116"><ele>856.0</ele><time>2017-03-04T17:23:24Z</time></trkpt>
<trkpt lat="47.489052" lon="10.718145"><ele>856.0</ele><time>2017-03-04T17:23:24Z</time></trkpt>
<trkpt lat="47.489032" lon="10.718187"><ele>856.0</ele><time>2017-03-04T17:23:25Z</time></trkpt>
<trkpt lat="47.489029" lon="10.718289"><ele>856.0</ele><time>2017-03-04T17:23:26Z</time></trkpt>
<trkpt lat="47.489084" lon="10.71837"><ele>857.0</ele><time>2017-03-04T17:23:27Z</time></trkpt>
<trkpt lat="47.489039" lon="10.718454"><ele>857.0</ele><time>2017-03-04T17:23:28Z</time></trkpt>
<trkpt lat="47.488831" lon="10.718717"><ele>857.0</ele><time>2017-03-04T17:23:31Z</time></trkpt>
<trkpt lat="47.488708" lon="10.718837"><ele>857.0</ele><time>2017-03-04T17:23:33Z</time></trkpt>
<trkpt lat="47.488183" lon="10.719258"><ele>857.0</ele><time>2017-03-04T17:23:41Z</time></trkpt>
<trkpt lat="47.487996" lon="10.719332"><ele>857.0</ele><time>2017-03-04T17:23:44Z</time></trkpt>
<trkpt lat="47.487133" lon="10.719455"><ele>853.0</ele><time>2017-03-04T17:23:56Z</time></trkpt>
<trkpt lat="47.486939" lon="10.71951"><ele>853.0</ele><time>2017-03-04T17:23:58Z</time></trkpt>
<trkpt lat="47.4865" lon="10.71971"><ele>854.0</ele><time>2017-03-04T17:24:04Z</time></trkpt>
<trkpt lat="47.486025" lon="10.720105"><ele>854.0</ele><time>2017-03-04T17:24:12Z</time></trkpt>
<trkpt lat="47.485437" lon="10.720786"><ele>855.0</ele><time>2017-03-04T17:24:21Z</time></trkpt>
<trkpt lat="47.485363" lon="10.720855"><ele>855.0</ele><time>2017-03-04T17:24:23Z</time></trkpt>
<trkpt lat="47.485317" lon="10.720858"><ele>855.0</ele><time>2017-03-04T17:24:23Z</time></trkpt>
<trkpt lat="47.485268" lon="10.720864"><ele>855.0</ele><time>2017-03-04T17:24:24Z</time></trkpt>
<trkpt lat="47.485227" lon="10.720739"><ele>855.0</ele><time>2017-03-04T17:24:25Z</time></trkpt>
<trkpt lat="47.485139" lon="10.720612"><ele>855.0</ele><time>2017-03-04T17:24:27Z</time></trkpt>
<trkpt lat="47.484836" lon="10.720279"><ele>854.0</ele><time>2017-03-04T17:24:32Z</time></trkpt>
<trkpt lat="47.484513" lon="10.719837"><ele>854.0</ele><time>2017-03-04T17:24:39Z</time></trkpt>
<trkpt lat="47.484364" lon="10.71967"><ele>854.0</ele><time>2017-03-04T17:24:41Z</time></trkpt>
<trkpt lat="47.484212" lon="10.719543"><ele>854.0</ele><time>2017-03-04T17:24:44Z</time></trkpt>
<trkpt lat="47.483673" lon="10.719001"><ele>854.0</ele><time>2017-03-04T17:24:53Z</time></trkpt>
<trkpt lat="47.482785" lon="10.718155"><ele>857.0</ele><time>2017-03-04T17:25:08Z</time></trkpt>
<trkpt lat="47.482014" lon="10.717279"><ele>857.0</ele><time>2017-03-04T17:25:22Z</time></trkpt>
<trkpt lat="47.481775" lon="10.716906"><ele>857.0</ele><time>2017-03-04T17:25:27Z</time></trkpt>
<trkpt lat="47.48135" lon="10.715529"><ele>853.0</ele><time>2017-03-04T17:25:41Z</time></trkpt>
<trkpt lat="47.481232" lon="10.715271"><ele>853.0</ele><time>2017-03-04T17:25:44Z</time></trkpt>
<trkpt lat="47.480909" lon="10.714756"><ele>852.0</ele><time>2017-03-04T17:25:51Z</time></trkpt>
<trkpt lat="47.480344" lon="10.714109"><ele>853.0</ele><time>2017-03-04T17:26:01Z</time></trkpt>
<trkpt lat="47.479973" lon="10.713576"><ele>857.0</ele><time>2017-03-04T17:26:08Z</time></trkpt>
<trkpt lat="47.479645" lon="10.712995"><ele>852.0</ele><time>2017-03-04T17:26:15Z</time></trkpt>
<trkpt lat="47.479395" lon="10.712322"><ele>850.0</ele><time>2017-03-04T17:26:23Z</time></trkpt>
<trkpt lat="47.479297" lon="10.711926"><ele>850.0</ele><time>2017-03-04T17:26:27Z</time></trkpt>
<trkpt lat="47.479183" lon="10.711288"><ele>848.0</ele><time>2017-03-04T17:26:33Z</time></trkpt>
<trkpt lat="47.478998" lon="10.709892"><ele>849.0</ele><time>2017-03-04T17:26:47Z</time></trkpt>
<trkpt lat="47.478624" lon="10.708759"><ele>849.0</ele><time>2017-03-04T17:26:59Z</time></trkpt>
<trkpt lat="47.478264" lon="10.707593"><ele>851.0</ele><time>2017-03-04T17:27:11Z</time></trkpt>
<trkpt lat="47.478088" lon="10.707237"><ele>853.0</ele><time>2017-03-04T17:27:15Z</time></trkpt>
<trkpt lat="47.477835" lon="10.706813"><ele>853.0</ele><time>2017-03-04T17:27:21Z</time></trkpt>
<trkpt lat="47.477597" lon="10.706561"><ele>853.0</ele><time>2017-03-04T17:27:23Z</time></trkpt>
<trkpt lat="47.477259" lon="10.706326"><ele>856.0</ele><time>2017-03-04T17:27:26Z</time></trkpt>
<trkpt lat="47.476966" lon="10.706209"><ele>856.0</ele><time>2017-03-04T17:27:28Z</time></trkpt>
<trkpt lat="47.476626" lon="10.706125"><ele>854.0</ele><time>2017-03-04T17:27:30Z</time></trkpt>
<trkpt lat="47.475896" lon="10.70609"><ele>854.0</ele><time>2017-03-04T17:27:35Z</time></trkpt>
<trkpt lat="47.475466" lon="10.705884"><ele>854.0</ele><time>2017-03-04T17:27:39Z</time></trkpt>
<trkpt lat="47.475117" lon="10.705511"><ele>852.0</ele><time>2017-03-04T17:27:42Z</time></trkpt>
<trkpt lat="47.474839" lon="10.704904"><ele>850.0</ele><time>2017-03-04T17:27:45Z</time></trkpt>
<trkpt lat="47.474662" lon="10.704305"><ele>850.0</ele><time>2017-03-04T17:27:48Z</time></trkpt>
<trkpt lat="47.474549" lon="10.703712"><ele>852.0</ele><time>2017-03-04T17:27:51Z</time></trkpt>
<trkpt lat="47.474163" lon="10.70118"><ele>857.0</ele><time>2017-03-04T17:28:04Z</time></trkpt>
<trkpt lat="47.474047" lon="10.700639"><ele>855.0</ele><time>2017-03-04T17:28:07Z</time></trkpt>
<trkpt lat="47.473879" lon="10.700032"><ele>855.0</ele><time>2017-03-04T17:28:10Z</time></trkpt>
<trkpt lat="47.473687" lon="10.69948"><ele>850.0</ele><time>2017-03-04T17:28:13Z</time></trkpt>
<trkpt lat="47.473324" lon="10.698627"><ele>856.0</ele><time>2017-03-04T17:28:18Z</time></trkpt>
<trkpt lat="47.47273" lon="10.697366"><ele>855.0</ele><time>2017-03-04T17:28:25Z</time></trkpt>
<trkpt lat="47.472292" lon="10.696619"><ele>854.0</ele><time>2017-03-04T17:28:30Z</time></trkpt>
<trkpt lat="47.472124" lon="10.696409"><ele>854.0</ele><time>2017-03-04T17:28:31Z</time></trkpt>
<trkpt lat="47.471898" lon="10.696192"><ele>854.0</ele><time>2017-03-04T17:28:33Z</time></trkpt>
<trkpt lat="47.471661" lon="10.696"><ele>857.0</ele><time>2017-03-04T17:28:35Z</time></trkpt>
<trkpt lat="47.471394" lon="10.695834"><ele>857.0</ele><time>2017-03-04T17:28:37Z</time></trkpt>
<trkpt lat="47.470996" lon="10.695668"><ele>856.0</ele><time>2017-03-04T17:28:40Z</time></trkpt>
<trkpt lat="47.469762" lon="10.695359"><ele>855.0</ele><time>2017-03-04T17:28:49Z</time></trkpt>
<trkpt lat="47.468983" lon="10.694981"><ele>858.0</ele><time>2017-03-04T17:28:55Z</time></trkpt>
<trkpt lat="47.468272" lon="10.694377"><ele>859.0</ele><time>2017-03-04T17:29:00Z</time></trkpt>
<trkpt lat="47.467098" lon="10.692885"><ele>859.0</ele><time>2017-03-04T17:29:09Z</time></trkpt>
<trkpt lat="47.465741" lon="10.691285"><ele>866.0</ele><time>2017-03-04T17:29:19Z</time></trkpt>
<trkpt lat="47.465492" lon="10.69104"><ele>866.0</ele><time>2017-03-04T17:29:21Z</time></trkpt>
<trkpt lat="47.464732" lon="10.690169"><ele>861.0</ele><time>2017-03-04T17:29:27Z</time></trkpt>
<trkpt lat="47.464543" lon="10.68988"><ele>858.0</ele><time>2017-03-04T17:29:28Z</time></trkpt>
<trkpt lat="47.464263" lon="10.68938"><ele>858.0</ele><time>2017-03-04T17:29:31Z</time></trkpt>
<trkpt lat="47.463701" lon="10.688237"><ele>865.0</ele><time>2017-03-04T17:29:36Z</time></trkpt>
<trkpt lat="47.461316" lon="10.684204"><ele>864.0</ele><time>2017-03-04T17:29:58Z</time></trkpt>
<trkpt lat="47.460738" lon="10.683289"><ele>865.0</ele><time>2017-03-04T17:30:03Z</time></trkpt>
<trkpt lat="47.459474" lon="10.681644"><ele>867.0</ele><time>2017-03-04T17:30:13Z</time></trkpt>
<trkpt lat="47.459192" lon="10.681118"><ele>867.0</ele><time>2017-03-04T17:30:15Z</time></trkpt>
<trkpt lat="47.45859" lon="10.679715"><ele>865.0</ele><time>2017-03-04T17:30:22Z</time></trkpt>
<trkpt lat="47.457289" lon="10.677017"><ele>870.0</ele><time>2017-03-04T17:30:35Z</time></trkpt>
<trkpt lat="47.456759" lon="10.67643"><ele>867.0</ele><time>2017-03-04T17:30:39Z</time></trkpt>
<trkpt lat="47.455242" lon="10.67484"><ele>868.0</ele><time>2017-03-04T17:30:50Z</time></trkpt>
<trkpt lat="47.454687" lon="10.674012"><ele>872.0</ele><time>2017-03-04T17:30:55Z</time></trkpt>
<trkpt lat="47.453872" lon="10.67226"><ele>868.0</ele><time>2017-03-04T17:31:03Z</time></trkpt>
<trkpt lat="47.452851" lon="10.671201"><ele>867.0</ele><time>2017-03-04T17:31:11Z</time></trkpt>
<trkpt lat="47.452377" lon="10.670793"><ele>864.0</ele><time>2017-03-04T17:31:14Z</time></trkpt>
<trkpt lat="47.451971" lon="10.670395"><ele>864.0</ele><time>2017-03-04T17:31:17Z</time></trkpt>
<trkpt lat="47.451211" lon="10.669729"><ele>868.0</ele><time>2017-03-04T17:31:22Z</time></trkpt>
<trkpt lat="47.451097" lon="10.669638"><ele>868.0</ele><time>2017-03-04T17:31:23Z</time></trkpt>
<trkpt lat="47.450899" lon="10.669522"><ele>868.0</ele><time>2017-03-04T17:31:24Z</time></trkpt>
<trkpt lat="47.45074" lon="10.669451"><ele>869.0</ele><time>2017-03-04T17:31:25Z</time></trkpt>
<trkpt lat="47.450158" lon="10.669332"><ele>869.0</ele><time>2017-03-04T17:31:28Z</time></trkpt>
<trkpt lat="47.448901" lon="10.669399"><ele>869.0</ele><time>2017-03-04T17:31:36Z</time></trkpt>
<trkpt lat="47.448043" lon="10.669143"><ele>872.0</ele><time>2017-03-04T17:31:41Z</time></trkpt>
<trkpt lat="47.447311" lon="10.668711"><ele>871.0</ele><time>2017-03-04T17:31:46Z</time></trkpt>
<trkpt lat="47.446228" lon="10.667447"><ele>874.0</ele><time>2017-03-04T17:31:54Z</time></trkpt>
<trkpt lat="47.445206" lon="10.666169"><ele>870.0</ele><time>2017-03-04T17:32:02Z</time></trkpt>
<trkpt lat="47.444207" lon="10.664691"><ele>872.0</ele><time>2017-03-04T17:32:10Z</time></trkpt>
<trkpt lat="47.443396" lon="10.663115"><ele>874.0</ele><time>2017-03-04T17:32:18Z</time></trkpt>
<trkpt lat="47.44296" lon="10.661751"><ele>875.0</ele><time>2017-03-04T17:32:24Z</time></trkpt>
<trkpt lat="47.442312" lon="10.659066"><ele>874.0</ele><time>2017-03-04T17:32:35Z</time></trkpt>
<trkpt lat="47.442058" lon="10.658415"><ele>874.0</ele><time>2017-03-04T17:32:38Z</time></trkpt>
<trkpt lat="47.440168" lon="10.655639"><ele>874.0</ele><time>2017-03-04T17:32:54Z</time></trkpt>
<trkpt lat="47.439773" lon="10.654603"><ele>878.0</ele><time>2017-03-04T17:32:59Z</time></trkpt>
<trkpt lat="47.439568" lon="10.653924"><ele>878.0</ele><time>2017-03-04T17:33:02Z</time></trkpt>
<trkpt lat="47.439277" lon="10.652145"><ele>882.0</ele><time>2017-03-04T17:33:09Z</time></trkpt>
<trkpt lat="47.439189" lon="10.651353"><ele>879.0</ele><time>2017-03-04T17:33:12Z</time></trkpt>
<trkpt lat="47.439111" lon="10.649933"><ele>884.0</ele><time>2017-03-04T17:33:18Z</time></trkpt>
<trkpt lat="47.439074" lon="10.648898"><ele>887.0</ele><time>2017-03-04T17:33:22Z</time></trkpt>
<trkpt lat="47.439113" lon="10.648271"><ele>886.0</ele><time>2017-03-04T17:33:24Z</time></trkpt>
<trkpt lat="47.43924" lon="10.64764"><ele>879.0</ele><time>2017-03-04T17:33:27Z</time></trkpt>
<trkpt lat="47.439419" lon="10.647135"><ele>879.0</ele><time>2017-03-04T17:33:29Z</time></trkpt>
<trkpt lat="47.4396" lon="10.646787"><ele>879.0</ele><time>2017-03-04T17:33:31Z</time></trkpt>
<trkpt lat="47.439909" lon="10.646422"><ele>880.0</ele><time>2017-03-04T17:33:33Z</time></trkpt>
<trkpt lat="47.440267" lon="10.646095"><ele>877.0</ele><time>2017-03-04T17:33:36Z</time></trkpt>
<trkpt lat="47.440918" lon="10.645559"><ele>879.0</ele><time>2017-03-04T17:33:40Z</time></trkpt>
<trkpt lat="47.441063" lon="10.645456"><ele>879.0</ele><time>2017-03-04T17:33:41Z</time></trkpt>
<trkpt lat="47.440979" lon="10.645034"><ele>879.0</ele><time>2017-03-04T17:33:44Z</time></trkpt>
<trkpt lat="47.440888" lon="10.644435"><ele>880.0</ele><time>2017-03-04T17:33:47Z</time></trkpt>
<trkpt lat="47.440822" lon="10.643795"><ele>881.0</ele><time>2017-03-04T17:33:51Z</time></trkpt>
<trkpt lat="47.440799" lon="10.643393"><ele>881.0</ele><time>2017-03-04T17:33:53Z</time></trkpt>
<trkpt lat="47.440772" lon="10.642723"><ele>882.0</ele><time>2017-03-04T17:33:57Z</time></trkpt>
<trkpt lat="47.440821" lon="10.64271"><ele>882.0</ele><time>2017-03-04T17:33:57Z</time></trkpt>
<trkpt lat="47.440881" lon="10.642649"><ele>886.0</ele><time>2017-03-04T17:33:58Z</time></trkpt>
<trkpt lat="47.440909" lon="10.642579"><ele>886.0</ele><time>2017-03-04T17:33:58Z</time></trkpt>
<trkpt lat="47.440919" lon="10.642505"><ele>886.0</ele><time>2017-03-04T17:33:59Z</time></trkpt>
<trkpt lat="47.440915" lon="10.642458"><ele>886.0</ele><time>2017-03-04T17:33:59Z</time></trkpt>
<trkpt lat="47.440874" lon="10.642348"><ele>886.0</ele><time>2017-03-04T17:33:59Z</time></trkpt>
<trkpt lat="47.440847" lon="10.642316"><ele>886.0</ele><time>2017-03-04T17:34:00Z</time></trkpt>
<trkpt lat="47.440751" lon="10.642287"><ele>885.0</ele><time>2017-03-04T17:34:00Z</time></trkpt>
<trkpt lat="47.440728" lon="10.641361"><ele>887.0</ele><time>2017-03-04T17:34:04Z</time></trkpt>
<trkpt lat="47.440619" lon="10.638909"><ele>883.0</ele><time>2017-03-04T17:34:15Z</time></trkpt>
<trkpt lat="47.440565" lon="10.63852"><ele>883.0</ele><time>2017-03-04T17:34:16Z</time></trkpt>
<trkpt lat="47.440427" lon="10.637849"><ele>883.0</ele><time>2017-03-04T17:34:19Z</time></trkpt>
<trkpt lat="47.44036" lon="10.637619"><ele>883.0</ele><time>2017-03-04T17:34:20Z</time></trkpt>
<trkpt lat="47.439947" lon="10.636526"><ele>884.0</ele><time>2017-03-04T17:34:26Z</time></trkpt>
<trkpt lat="47.438148" lon="10.631933"><ele>885.0</ele><time>2017-03-04T17:34:48Z</time></trkpt>
<trkpt lat="47.437809" lon="10.631011"><ele>886.0</ele><time>2017-03-04T17:34:53Z</time></trkpt>
<trkpt lat="47.437674" lon="10.630504"><ele>887.0</ele><time>2017-03-04T17:34:55Z</time></trkpt>
<trkpt lat="47.437504" lon="10.629662"><ele>887.0</ele><time>2017-03-04T17:34:59Z</time></trkpt>
<trkpt lat="47.437394" lon="10.628663"><ele>886.0</ele><time>2017-03-04T17:35:03Z</time></trkpt>
<trkpt lat="47.437348" lon="10.627615"><ele>887.0</ele><time>2017-03-04T17:35:07Z</time></trkpt>
<trkpt lat="47.43724" lon="10.625961"><ele>889.0</ele><time>2017-03-04T17:35:14Z</time></trkpt>
<trkpt lat="47.436676" lon="10.61803"><ele>914.0</ele><time>2017-03-04T17:35:48Z</time></trkpt>
<trkpt lat="47.435908" lon="10.61157"><ele>956.0</ele><time>2017-03-04T17:36:16Z</time></trkpt>
<trkpt lat="47.435414" lon="10.60725"><ele>939.0</ele><time>2017-03-04T17:36:35Z</time></trkpt>
<trkpt lat="47.435234" lon="10.606443"><ele>948.0</ele><time>2017-03-04T17:36:39Z</time></trkpt>
<trkpt lat="47.434955" lon="10.605861"><ele>910.0</ele><time>2017-03-04T17:36:42Z</time></trkpt>
<trkpt lat="47.434627" lon="10.60536"><ele>925.0</ele><time>2017-03-04T17:36:45Z</time></trkpt>
<trkpt lat="47.434347" lon="10.605063"><ele>925.0</ele><time>2017-03-04T17:36:48Z</time></trkpt>
<trkpt lat="47.433854" lon="10.604745"><ele>905.0</ele><time>2017-03-04T17:36:51Z</time></trkpt>
<trkpt lat="47.433669" lon="10.604669"><ele>905.0</ele><time>2017-03-04T17:36:52Z</time></trkpt>
<trkpt lat="47.433403" lon="10.604622"><ele>905.0</ele><time>2017-03-04T17:36:54Z</time></trkpt>
<trkpt lat="47.433106" lon="10.604626"><ele>898.0</ele><time>2017-03-04T17:36:56Z</time></trkpt>
<trkpt lat="47.432643" lon="10.604691"><ele>898.0</ele><time>2017-03-04T17:36:59Z</time></trkpt>
<trkpt lat="47.430618" lon="10.605172"><ele>894.0</ele><time>2017-03-04T17:37:12Z</time></trkpt>
<trkpt lat="47.429411" lon="10.605423"><ele>896.0</ele><time>2017-03-04T17:37:19Z</time></trkpt>
<trkpt lat="47.42879" lon="10.605343"><ele>900.0</ele><time>2017-03-04T17:37:23Z</time></trkpt>
<trkpt lat="47.428308" lon="10.605069"><ele>901.0</ele><time>2017-03-04T17:37:26Z</time></trkpt>
<trkpt lat="47.428034" lon="10.604849"><ele>902.0</ele><time>2017-03-04T17:37:28Z</time></trkpt>
<trkpt lat="47.427738" lon="10.604556"><ele>902.0</ele><time>2017-03-04T17:37:31Z</time></trkpt>
<trkpt lat="47.427433" lon="10.604126"><ele>901.0</ele><time>2017-03-04T17:37:33Z</time></trkpt>
<trkpt lat="47.427133" lon="10.603592"><ele>901.0</ele><time>2017-03-04T17:37:36Z</time></trkpt>
<trkpt lat="47.424034" lon="10.59458"><ele>905.0</ele><time>2017-03-04T17:38:19Z</time></trkpt>
<trkpt lat="47.423364" lon="10.592788"><ele>903.0</ele><time>2017-03-04T17:38:28Z</time></trkpt>
<trkpt lat="47.422391" lon="10.58996"><ele>904.0</ele><time>2017-03-04T17:38:41Z</time></trkpt>
<trkpt lat="47.420856" lon="10.585584"><ele>910.0</ele><time>2017-03-04T17:39:02Z</time></trkpt>
<trkpt lat="47.420514" lon="10.584792"><ele>912.0</ele><time>2017-03-04T17:39:06Z</time></trkpt>
<trkpt lat="47.420061" lon="10.58401"><ele>911.0</ele><time>2017-03-04T17:39:11Z</time></trkpt>
<trkpt lat="47.419835" lon="10.583697"><ele>912.5</ele><time>2017-03-04T17:39:13Z</time></trkpt>
<trkpt lat="47.419835" lon="10.583697"><ele>912.5</ele><time>2017-03-04T17:39:13Z</time></trkpt>
<trkpt lat="47.419744" lon="10.583571"><ele>914.0</ele><time>2017-03-04T17:39:14Z</time></trkpt>
<trkpt lat="47.419311" lon="10.5831"><ele>914.0</ele><time>2017-03-04T17:39:17Z</time></trkpt>
<trkpt lat="47.418627" lon="10.582582"><ele>913.0</ele><time>2017-03-04T17:39:22Z</time></trkpt>
<trkpt lat="47.41803" lon="10.582287"><ele>915.0</ele><time>2017-03-04T17:39:26Z</time></trkpt>
<trkpt lat="47.41764" lon="10.582166"><ele>915.0</ele><time>2017-03-04T17:39:29Z</time></trkpt>
<trkpt lat="47.417195" lon="10.582071"><ele>917.0</ele><time>2017-03-04T17:39:32Z</time></trkpt>
<trkpt lat="47.416677" lon="10.582067"><ele>917.0</ele><time>2017-03-04T17:39:35Z</time></trkpt>
<trkpt lat="47.415902" lon="10.582191"><ele>917.0</ele><time>2017-03-04T17:39:40Z</time></trkpt>
<trkpt lat="47.41443" lon="10.582672"><ele>917.0</ele><time>2017-03-04T17:39:50Z</time></trkpt>
<trkpt lat="47.413144" lon="10.583021"><ele>918.0</ele><time>2017-03-04T17:39:59Z</time></trkpt>
<trkpt lat="47.41273" lon="10.583076"><ele>918.0</ele><time>2017-03-04T17:40:01Z</time></trkpt>
<trkpt lat="47.41219" lon="10.583057"><ele>915.0</ele><time>2017-03-04T17:40:05Z</time></trkpt>
<trkpt lat="47.411706" lon="10.582911"><ele>915.0</ele><time>2017-03-04T17:40:08Z</time></trkpt>
<trkpt lat="47.411333" lon="10.582756"><ele>917.0</ele><time>2017-03-04T17:40:11Z</time></trkpt>
<trkpt lat="47.41115" lon="10.582647"><ele>917.0</ele><time>2017-03-04T17:40:12Z</time></trkpt>
<trkpt lat="47.410841" lon="10.58234"><ele>919.0</ele><time>2017-03-04T17:40:14Z</time></trkpt>
<trkpt lat="47.410191" lon="10.58134"><ele>917.0</ele><time>2017-03-04T17:40:21Z</time></trkpt>
<trkpt lat="47.409921" lon="10.581063"><ele>921.0</ele><time>2017-03-04T17:40:23Z</time></trkpt>
<trkpt lat="47.40957" lon="10.580851"><ele>921.0</ele><time>2017-03-04T17:40:25Z</time></trkpt>
<trkpt lat="47.409202" lon="10.580804"><ele>914.0</ele><time>2017-03-04T17:40:28Z</time></trkpt>
<trkpt lat="47.408008" lon="10.580767"><ele>915.0</ele><time>2017-03-04T17:40:35Z</time></trkpt>
<trkpt lat="47.407816" lon="10.580712"><ele>915.0</ele><time>2017-03-04T17:40:37Z</time></trkpt>
<trkpt lat="47.407158" lon="10.580195"><ele>920.0</ele><time>2017-03-04T17:40:42Z</time></trkpt>
<trkpt lat="47.406975" lon="10.580102"><ele>920.0</ele><time>2017-03-04T17:40:43Z</time></trkpt>
<trkpt lat="47.406783" lon="10.580056"><ele>920.0</ele><time>2017-03-04T17:40:44Z</time></trkpt>
<trkpt lat="47.406492" lon="10.580032"><ele>926.0</ele><time>2017-03-04T17:40:46Z</time></trkpt>
<trkpt lat="47.404293" lon="10.580089"><ele>930.0</ele><time>2017-03-04T17:41:00Z</time></trkpt>
<trkpt lat="47.403708" lon="10.580081"><ele>930.0</ele><time>2017-03-04T17:41:04Z</time></trkpt>
<trkpt lat="47.40299" lon="10.579795"><ele>923.0</ele><time>2017-03-04T17:41:09Z</time></trkpt>
<trkpt lat="47.402118" lon="10.579564"><ele>927.0</ele><time>2017-03-04T17:41:15Z</time></trkpt>
<trkpt lat="47.401747" lon="10.579386"><ele>927.0</ele><time>2017-03-04T17:41:17Z</time></trkpt>
<trkpt lat="47.401471" lon="10.57913"><ele>923.0</ele><time>2017-03-04T17:41:19Z</time></trkpt>
<trkpt lat="47.401123" lon="10.578741"><ele>923.0</ele><time>2017-03-04T17:41:22Z</time></trkpt>
<trkpt lat="47.400806" lon="10.578284"><ele>925.0</ele><time>2017-03-04T17:41:25Z</time></trkpt>
<trkpt lat="47.400166" lon="10.577103"><ele>923.0</ele><time>2017-03-04T17:41:32Z</time></trkpt>
<trkpt lat="47.399897" lon="10.576756"><ele>923.0</ele><time>2017-03-04T17:41:34Z</time></trkpt>
<trkpt lat="47.399491" lon="10.576414"><ele>923.0</ele><time>2017-03-04T17:41:37Z</time></trkpt>
<trkpt lat="47.395222" lon="10.573059"><ele>926.0</ele><time>2017-03-04T17:42:09Z</time></trkpt>
<trkpt lat="47.392949" lon="10.571136"><ele>932.0</ele><time>2017-03-04T17:42:26Z</time></trkpt>
<trkpt lat="47.392009" lon="10.570217"><ele>934.0</ele><time>2017-03-04T17:42:33Z</time></trkpt>
<trkpt lat="47.39118" lon="10.56919"><ele>934.0</ele><time>2017-03-04T17:42:40Z</time></trkpt>
<trkpt lat="47.390627" lon="10.568342"><ele>935.0</ele><time>2017-03-04T17:42:45Z</time></trkpt>
<trkpt lat="47.389444" lon="10.566601"><ele>935.0</ele><time>2017-03-04T17:42:56Z</time></trkpt>
<trkpt lat="47.387263" lon="10.563438"><ele>937.0</ele><time>2017-03-04T17:43:16Z</time></trkpt>
<trkpt lat="47.38625" lon="10.561927"><ele>937.0</ele><time>2017-03-04T17:43:25Z</time></trkpt>
<trkpt lat="47.385805" lon="10.561298"><ele>937.0</ele><time>2017-03-04T17:43:29Z</time></trkpt>
<trkpt lat="47.385495" lon="10.561107"><ele>937.0</ele><time>2017-03-04T17:43:32Z</time></trkpt>
<trkpt lat="47.384972" lon="10.561186"><ele>936.0</ele><time>2017-03-04T17:43:35Z</time></trkpt>
<trkpt lat="47.384651" lon="10.56096"><ele>936.0</ele><time>2017-03-04T17:43:38Z</time></trkpt>
<trkpt lat="47.384495" lon="10.560915"><ele>936.0</ele><time>2017-03-04T17:43:40Z</time></trkpt>
<trkpt lat="47.38401" lon="10.561111"><ele>938.0</ele><time>2017-03-04T17:43:45Z</time></trkpt>
<trkpt lat="47.383892" lon="10.561183"><ele>938.0</ele><time>2017-03-04T17:43:46Z</time></trkpt>
<trkpt lat="47.383704" lon="10.561298"><ele>938.0</ele><time>2017-03-04T17:43:48Z</time></trkpt>
<trkpt lat="47.383492" lon="10.561335"><ele>938.0</ele><time>2017-03-04T17:43:49Z</time></trkpt>
<trkpt lat="47.383036" lon="10.561113"><ele>943.0</ele><time>2017-03-04T17:43:52Z</time></trkpt>
<trkpt lat="47.38298" lon="10.560999"><ele>943.0</ele><time>2017-03-04T17:43:52Z</time></trkpt>
<trkpt lat="47.382969" lon="10.560864"><ele>943.0</ele><time>2017-03-04T17:43:53Z</time></trkpt>
<trkpt lat="47.383057" lon="10.560523"><ele>940.0</ele><time>2017-03-04T17:43:54Z</time></trkpt>
<trkpt lat="47.383031" lon="10.560333"><ele>940.0</ele><time>2017-03-04T17:43:55Z</time></trkpt>
<trkpt lat="47.382976" lon="10.56025"><ele>940.0</ele><time>2017-03-04T17:43:55Z</time></trkpt>
<trkpt lat="47.382934" lon="10.560224"><ele>940.0</ele><time>2017-03-04T17:43:56Z</time></trkpt>
<trkpt lat="47.382619" lon="10.560239"><ele>940.0</ele><time>2017-03-04T17:43:58Z</time></trkpt>
<trkpt lat="47.382375" lon="10.560215"><ele>944.0</ele><time>2017-03-04T17:43:59Z</time></trkpt>
<trkpt lat="47.381746" lon="10.559882"><ele>940.0</ele><time>2017-03-04T17:44:03Z</time></trkpt>
<trkpt lat="47.381274" lon="10.559688"><ele>941.0</ele><time>2017-03-04T17:44:06Z</time></trkpt>
<trkpt lat="47.381159" lon="10.5596"><ele>941.0</ele><time>2017-03-04T17:44:06Z</time></trkpt>
<trkpt lat="47.380062" lon="10.558342"><ele>938.0</ele><time>2017-03-04T17:44:15Z</time></trkpt>
<trkpt lat="47.378121" lon="10.556495"><ele>938.0</ele><time>2017-03-04T17:44:28Z</time></trkpt>
<trkpt lat="47.377663" lon="10.556268"><ele>938.0</ele><time>2017-03-04T17:44:31Z</time></trkpt>
<trkpt lat="47.377244" lon="10.555999"><ele>945.0</ele><time>2017-03-04T17:44:33Z</time></trkpt>
<trkpt lat="47.376005" lon="10.555375"><ele>942.0</ele><time>2017-03-04T17:44:41Z</time></trkpt>
<trkpt lat="47.374395" lon="10.554045"><ele>942.0</ele><time>2017-03-04T17:44:52Z</time></trkpt>
<trkpt lat="47.373855" lon="10.553796"><ele>945.0</ele><time>2017-03-04T17:44:55Z</time></trkpt>
<trkpt lat="47.373519" lon="10.553734"><ele>945.0</ele><time>2017-03-04T17:44:57Z</time></trkpt>
<trkpt lat="47.372426" lon="10.553874"><ele>951.0</ele><time>2017-03-04T17:45:03Z</time></trkpt>
<trkpt lat="47.372267" lon="10.553882"><ele>951.0</ele><time>2017-03-04T17:45:04Z</time></trkpt>
<trkpt lat="47.371928" lon="10.553847"><ele>951.0</ele><time>2017-03-04T17:45:06Z</time></trkpt>
<trkpt lat="47.37097" lon="10.553123"><ele>946.0</ele><time>2017-03-04T17:45:13Z</time></trkpt>
<trkpt lat="47.370735" lon="10.553087"><ele>948.0</ele><time>2017-03-04T17:45:14Z</time></trkpt>
<trkpt lat="47.370208" lon="10.553181"><ele>948.0</ele><time>2017-03-04T17:45:17Z</time></trkpt>
<trkpt lat="47.369646" lon="10.55317"><ele>950.0</ele><time>2017-03-04T17:45:20Z</time></trkpt>
<trkpt lat="47.36812" lon="10.552831"><ele>957.0</ele><time>2017-03-04T17:45:29Z</time></trkpt>
<trkpt lat="47.367311" lon="10.552535"><ele>963.0</ele><time>2017-03-04T17:45:34Z</time></trkpt>
<trkpt lat="47.366566" lon="10.552377"><ele>950.0</ele><time>2017-03-04T17:45:39Z</time></trkpt>
<trkpt lat="47.365685" lon="10.551904"><ele>957.0</ele><time>2017-03-04T17:45:44Z</time></trkpt>
<trkpt lat="47.365198" lon="10.551771"><ele>957.0</ele><time>2017-03-04T17:45:47Z</time></trkpt>
<trkpt lat="47.364829" lon="10.551728"><ele>964.0</ele><time>2017-03-04T17:45:49Z</time></trkpt>
<trkpt lat="47.36423" lon="10.551763"><ele>964.0</ele><time>2017-03-04T17:45:53Z</time></trkpt>
<trkpt lat="47.363344" lon="10.551515"><ele>950.0</ele><time>2017-03-04T17:45:58Z</time></trkpt>
<trkpt lat="47.362236" lon="10.551512"><ele>955.0</ele><time>2017-03-04T17:46:04Z</time></trkpt>
<trkpt lat="47.361891" lon="10.551402"><ele>955.0</ele><time>2017-03-04T17:46:06Z</time></trkpt>
<trkpt lat="47.361382" lon="10.5511"><ele>960.0</ele><time>2017-03-04T17:46:10Z</time></trkpt>
<trkpt lat="47.361009" lon="10.550709"><ele>955.0</ele><time>2017-03-04T17:46:12Z</time></trkpt>
<trkpt lat="47.360693" lon="10.550059"><ele>963.0</ele><time>2017-03-04T17:46:15Z</time></trkpt>
<trkpt lat="47.360178" lon="10.549127"><ele>952.0</ele><time>2017-03-04T17:46:20Z</time></trkpt>
<trkpt lat="47.359766" lon="10.548167"><ele>955.0</ele><time>2017-03-04T17:46:25Z</time></trkpt>
<trkpt lat="47.359542" lon="10.547819"><ele>955.0</ele><time>2017-03-04T17:46:27Z</time></trkpt>
<trkpt lat="47.359245" lon="10.547548"><ele>955.0</ele><time>2017-03-04T17:46:29Z</time></trkpt>
<trkpt lat="47.358732" lon="10.547347"><ele>959.0</ele><time>2017-03-04T17:46:32Z</time></trkpt>
<trkpt lat="47.357835" lon="10.547178"><ele>957.0</ele><time>2017-03-04T17:46:37Z</time></trkpt>
<trkpt lat="47.355584" lon="10.546953"><ele>962.0</ele><time>2017-03-04T17:46:50Z</time></trkpt>
<trkpt lat="47.354139" lon="10.547151"><ele>958.0</ele><time>2017-03-04T17:46:58Z</time></trkpt>
<trkpt lat="47.352691" lon="10.547246"><ele>957.0</ele><time>2017-03-04T17:47:07Z</time></trkpt>
<trkpt lat="47.351893" lon="10.547095"><ele>960.0</ele><time>2017-03-04T17:47:12Z</time></trkpt>
<trkpt lat="47.351163" lon="10.54678"><ele>964.0</ele><time>2017-03-04T17:47:16Z</time></trkpt>
<trkpt lat="47.350384" lon="10.546194"><ele>965.0</ele><time>2017-03-04T17:47:21Z</time></trkpt>
<trkpt lat="47.349661" lon="10.545476"><ele>958.0</ele><time>2017-03-04T17:47:26Z</time></trkpt>
<trkpt lat="47.34592" lon="10.542016"><ele>969.0</ele><time>2017-03-04T17:47:52Z</time></trkpt>
<trkpt lat="47.345267" lon="10.541499"><ele>971.0</ele><time>2017-03-04T17:47:56Z</time></trkpt>
<trkpt lat="47.344788" lon="10.541196"><ele>968.0</ele><time>2017-03-04T17:47:59Z</time></trkpt>
<trkpt lat="47.343913" lon="10.540697"><ele>968.0</ele><time>2017-03-04T17:48:05Z</time></trkpt>
<trkpt lat="47.343059" lon="10.540352"><ele>970.0</ele><time>2017-03-04T17:48:10Z</time></trkpt>
<trkpt lat="47.341776" lon="10.54"><ele>969.0</ele><time>2017-03-04T17:48:17Z</time></trkpt>
<trkpt lat="47.337404" lon="10.53962"><ele>970.0</ele><time>2017-03-04T17:48:43Z</time></trkpt>
<trkpt lat="47.336709" lon="10.539509"><ele>970.0</ele><time>2017-03-04T17:48:47Z</time></trkpt>
<trkpt lat="47.335936" lon="10.539334"><ele>970.0</ele><time>2017-03-04T17:48:51Z</time></trkpt>
<trkpt lat="47.334602" lon="10.538764"><ele>973.0</ele><time>2017-03-04T17:48:59Z</time></trkpt>
<trkpt lat="47.333729" lon="10.538217"><ele>972.0</ele><time>2017-03-04T17:49:05Z</time></trkpt>
<trkpt lat="47.333259" lon="10.537866"><ele>972.0</ele><time>2017-03-04T17:49:08Z</time></trkpt>
<trkpt lat="47.332349" lon="10.537119"><ele>971.0</ele><time>2017-03-04T17:49:14Z</time></trkpt>
<trkpt lat="47.331301" lon="10.536165"><ele>975.0</ele><time>2017-03-04T17:49:21Z</time></trkpt>
<trkpt lat="47.33077" lon="10.537635"><ele>981.0</ele><time>2017-03-04T17:49:27Z</time></trkpt>
<trkpt lat="47.330693" lon="10.537871"><ele>981.0</ele><time>2017-03-04T17:49:28Z</time></trkpt>
<trkpt lat="47.330656" lon="10.538059"><ele>981.0</ele><time>2017-03-04T17:49:29Z</time></trkpt>
<trkpt lat="47.330659" lon="10.538391"><ele>985.0</ele><time>2017-03-04T17:49:30Z</time></trkpt>
<trkpt lat="47.330708" lon="10.538665"><ele>985.0</ele><time>2017-03-04T17:49:31Z</time></trkpt>
<trkpt lat="47.330762" lon="10.538859"><ele>985.0</ele><time>2017-03-04T17:49:31Z</time></trkpt>
<trkpt lat="47.330917" lon="10.539238"><ele>974.0</ele><time>2017-03-04T17:49:33Z</time></trkpt>
<trkpt lat="47.330993" lon="10.539371"><ele>974.0</ele><time>2017-03-04T17:49:34Z</time></trkpt>
<trkpt lat="47.331175" lon="10.539598"><ele>974.0</ele><time>2017-03-04T17:49:35Z</time></trkpt>
<trkpt lat="47.331208" lon="10.539682"><ele>974.0</ele><time>2017-03-04T17:49:35Z</time></trkpt>
<trkpt lat="47.331191" lon="10.53982"><ele>974.0</ele><time>2017-03-04T17:49:36Z</time></trkpt>
<trkpt lat="47.33114" lon="10.539861"><ele>974.0</ele><time>2017-03-04T17:49:36Z</time></trkpt>
<trkpt lat="47.331049" lon="10.539847"><ele>974.0</ele><time>2017-03-04T17:49:36Z</time></trkpt>
<trkpt lat="47.330633" lon="10.53924"><ele>999.0</ele><time>2017-03-04T17:49:39Z</time></trkpt>
<trkpt lat="47.330079" lon="10.538225"><ele>981.0</ele><time>2017-03-04T17:49:44Z</time></trkpt>
<trkpt lat="47.32914" lon="10.53673"><ele>1034.0</ele><time>2017-03-04T17:49:51Z</time></trkpt>
<trkpt lat="47.32815" lon="10.535248"><ele>1029.0</ele><time>2017-03-04T17:49:58Z</time></trkpt>
<trkpt lat="47.327395" lon="10.534463"><ele>1050.0</ele><time>2017-03-04T17:50:03Z</time></trkpt>
<trkpt lat="47.326872" lon="10.53389"><ele>1014.0</ele><time>2017-03-04T17:50:07Z</time></trkpt>
<trkpt lat="47.326645" lon="10.533541"><ele>1079.0</ele><time>2017-03-04T17:50:10Z</time></trkpt>
<trkpt lat="47.326177" lon="10.532634"><ele>1030.0</ele><time>2017-03-04T17:50:14Z</time></trkpt>
<trkpt lat="47.326083" lon="10.532519"><ele>1030.0</ele><time>2017-03-04T17:50:15Z</time></trkpt>
<trkpt lat="47.325939" lon="10.532442"><ele>1013.0</ele><time>2017-03-04T17:50:16Z</time></trkpt>
<trkpt lat="47.325871" lon="10.532447"><ele>1024.5</ele><time>2017-03-04T17:50:17Z</time></trkpt>
<trkpt lat="47.325871" lon="10.532447"><ele>1024.5</ele><time>2017-03-04T17:50:17Z</time></trkpt>
<trkpt lat="47.325761" lon="10.532455"><ele>1036.0</ele><time>2017-03-04T17:50:17Z</time></trkpt>
<trkpt lat="47.32522" lon="10.53284"><ele>1090.0</ele><time>2017-03-04T17:50:21Z</time></trkpt>
<trkpt lat="47.325078" lon="10.532903"><ele>1090.0</ele><time>2017-03-04T17:50:22Z</time></trkpt>
<trkpt lat="47.324569" lon="10.532979"><ele>1089.0</ele><time>2017-03-04T17:50:25Z</time></trkpt>
<trkpt lat="47.324461" lon="10.533018"><ele>1089.0</ele><time>2017-03-04T17:50:25Z</time></trkpt>
<trkpt lat="47.324379" lon="10.533094"><ele>1089.0</ele><time>2017-03-04T17:50:26Z</time></trkpt>
<trkpt lat="47.324301" lon="10.533283"><ele>1089.0</ele><time>2017-03-04T17:50:26Z</time></trkpt>
<trkpt lat="47.324266" lon="10.533451"><ele>1136.0</ele><time>2017-03-04T17:50:29Z</time></trkpt>
<trkpt lat="47.324097" lon="10.53481"><ele>1106.0</ele><time>2017-03-04T17:50:34Z</time></trkpt>
<trkpt lat="47.324002" lon="10.535237"><ele>1117.0</ele><time>2017-03-04T17:50:35Z</time></trkpt>
<trkpt lat="47.323757" lon="10.53605"><ele>1132.0</ele><time>2017-03-04T17:50:38Z</time></trkpt>
<trkpt lat="47.323497" lon="10.536689"><ele>1155.0</ele><time>2017-03-04T17:50:41Z</time></trkpt>
<trkpt lat="47.323349" lon="10.537442"><ele>1155.0</ele><time>2017-03-04T17:50:44Z</time></trkpt>
<trkpt lat="47.323227" lon="10.53833"><ele>1132.0</ele><time>2017-03-04T17:50:47Z</time></trkpt>
<trkpt lat="47.323067" lon="10.539158"><ele>1144.0</ele><time>2017-03-04T17:50:50Z</time></trkpt>
<trkpt lat="47.323055" lon="10.53936"><ele>1153.0</ele><time>2017-03-04T17:50:51Z</time></trkpt>
<trkpt lat="47.323106" lon="10.539835"><ele>1153.0</ele><time>2017-03-04T17:50:52Z</time></trkpt>
<trkpt lat="47.323082" lon="10.53998"><ele>1153.0</ele><time>2017-03-04T17:50:53Z</time></trkpt>
<trkpt lat="47.323036" lon="10.54009"><ele>1176.0</ele><time>2017-03-04T17:50:54Z</time></trkpt>
<trkpt lat="47.322972" lon="10.540186"><ele>1176.0</ele><time>2017-03-04T17:50:54Z</time></trkpt>
<trkpt lat="47.322884" lon="10.540283"><ele>1176.0</ele><time>2017-03-04T17:50:55Z</time></trkpt>
<trkpt lat="47.322762" lon="10.540354"><ele>1176.0</ele><time>2017-03-04T17:50:56Z</time></trkpt>
<trkpt lat="47.322696" lon="10.540415"><ele>1176.0</ele><time>2017-03-04T17:50:56Z</time></trkpt>
<trkpt lat="47.322447" lon="10.540851"><ele>1174.0</ele><time>2017-03-04T17:50:58Z</time></trkpt>
<trkpt lat="47.322349" lon="10.541096"><ele>1174.0</ele><time>2017-03-04T17:50:59Z</time></trkpt>
<trkpt lat="47.322152" lon="10.541914"><ele>1197.0</ele><time>2017-03-04T17:51:02Z</time></trkpt>
<trkpt lat="47.322016" lon="10.542354"><ele>1197.0</ele><time>2017-03-04T17:51:04Z</time></trkpt>
<trkpt lat="47.321697" lon="10.543167"><ele>1213.0</ele><time>2017-03-04T17:51:07Z</time></trkpt>
<trkpt lat="47.32155" lon="10.543498"><ele>1185.0</ele><time>2017-03-04T17:51:09Z</time></trkpt>
<trkpt lat="47.321218" lon="10.544116"><ele>1185.0</ele><time>2017-03-04T17:51:11Z</time></trkpt>
<trkpt lat="47.320875" lon="10.545095"><ele>1237.0</ele><time>2017-03-04T17:51:16Z</time></trkpt>
<trkpt lat="47.320336" lon="10.546555"><ele>1201.0</ele><time>2017-03-04T17:51:22Z</time></trkpt>
<trkpt lat="47.32009" lon="10.547422"><ele>1213.0</ele><time>2017-03-04T17:51:25Z</time></trkpt>
<trkpt lat="47.319968" lon="10.54767"><ele>1183.0</ele><time>2017-03-04T17:51:27Z</time></trkpt>
<trkpt lat="47.318543" lon="10.550958"><ele>1208.0</ele><time>2017-03-04T17:51:40Z</time></trkpt>
<trkpt lat="47.318472" lon="10.551172"><ele>1208.0</ele><time>2017-03-04T17:51:41Z</time></trkpt>
<trkpt lat="47.318385" lon="10.551828"><ele>1224.0</ele><time>2017-03-04T17:51:43Z</time></trkpt>
<trkpt lat="47.318293" lon="10.552218"><ele>1182.0</ele><time>2017-03-04T17:51:45Z</time></trkpt>
<trkpt lat="47.31794" lon="10.553128"><ele>1205.0</ele><time>2017-03-04T17:51:49Z</time></trkpt>
<trkpt lat="47.317562" lon="10.554163"><ele>1225.0</ele><time>2017-03-04T17:51:53Z</time></trkpt>
<trkpt lat="47.317421" lon="10.554472"><ele>1213.0</ele><time>2017-03-04T17:51:55Z</time></trkpt>
<trkpt lat="47.317167" lon="10.554892"><ele>1213.0</ele><time>2017-03-04T17:51:56Z</time></trkpt>
<trkpt lat="47.317077" lon="10.555195"><ele>1235.0</ele><time>2017-03-04T17:51:58Z</time></trkpt>
<trkpt lat="47.317051" lon="10.555393"><ele>1235.0</ele><time>2017-03-04T17:51:59Z</time></trkpt>
<trkpt lat="47.317072" lon="10.555655"><ele>1235.0</ele><time>2017-03-04T17:52:00Z</time></trkpt>
<trkpt lat="47.317125" lon="10.555937"><ele>1236.0</ele><time>2017-03-04T17:52:01Z</time></trkpt>
<trkpt lat="47.317095" lon="10.556182"><ele>1236.0</ele><time>2017-03-04T17:52:01Z</time></trkpt>
<trkpt lat="47.316894" lon="10.556582"><ele>1236.0</ele><time>2017-03-04T17:52:03Z</time></trkpt>
<trkpt lat="47.316878" lon="10.556674"><ele>1253.0</ele><time>2017-03-04T17:52:04Z</time></trkpt>
<trkpt lat="47.316872" lon="10.557195"><ele>1253.0</ele><time>2017-03-04T17:52:06Z</time></trkpt>
<trkpt lat="47.316805" lon="10.557468"><ele>1253.0</ele><time>2017-03-04T17:52:07Z</time></trkpt>
<trkpt lat="47.316739" lon="10.557663"><ele>1277.0</ele><time>2017-03-04T17:52:08Z</time></trkpt>
<trkpt lat="47.316556" lon="10.557969"><ele>1233.0</ele><time>2017-03-04T17:52:10Z</time></trkpt>
<trkpt lat="47.316364" lon="10.558387"><ele>1255.0</ele><time>2017-03-04T17:52:12Z</time></trkpt>
<trkpt lat="47.316219" lon="10.558751"><ele>1255.0</ele><time>2017-03-04T17:52:14Z</time></trkpt>
<trkpt lat="47.316068" lon="10.559483"><ele>1272.0</ele><time>2017-03-04T17:52:17Z</time></trkpt>
<trkpt lat="47.315931" lon="10.560023"><ele>1284.0</ele><time>2017-03-04T17:52:19Z</time></trkpt>
<trkpt lat="47.315884" lon="10.560176"><ele>1284.0</ele><time>2017-03-04T17:52:19Z</time></trkpt>
<trkpt lat="47.315739" lon="10.560534"><ele>1245.0</ele><time>2017-03-04T17:52:21Z</time></trkpt>
<trkpt lat="47.315532" lon="10.56121"><ele>1256.0</ele><time>2017-03-04T17:52:24Z</time></trkpt>
<trkpt lat="47.315337" lon="10.561729"><ele>1272.0</ele><time>2017-03-04T17:52:26Z</time></trkpt>
<trkpt lat="47.315244" lon="10.562248"><ele>1272.0</ele><time>2017-03-04T17:52:28Z</time></trkpt>
<trkpt lat="47.31518" lon="10.56248"><ele>1272.0</ele><time>2017-03-04T17:52:29Z</time></trkpt>
<trkpt lat="47.315084" lon="10.56268"><ele>1285.0</ele><time>2017-03-04T17:52:30Z</time></trkpt>
<trkpt lat="47.314913" lon="10.562924"><ele>1251.0</ele><time>2017-03-04T17:52:32Z</time></trkpt>
<trkpt lat="47.314773" lon="10.563152"><ele>1251.0</ele><time>2017-03-04T17:52:33Z</time></trkpt>
<trkpt lat="47.314732" lon="10.563248"><ele>1251.0</ele><time>2017-03-04T17:52:33Z</time></trkpt>
<trkpt lat="47.314648" lon="10.563662"><ele>1261.0</ele><time>2017-03-04T17:52:35Z</time></trkpt>
<trkpt lat="47.314701" lon="10.56461"><ele>1265.0</ele><time>2017-03-04T17:52:38Z</time></trkpt>
<trkpt lat="47.314695" lon="10.564875"><ele>1265.0</ele><time>2017-03-04T17:52:39Z</time></trkpt>
<trkpt lat="47.31464" lon="10.565152"><ele>1259.0</ele><time>2017-03-04T17:52:40Z</time></trkpt>
<trkpt lat="47.314564" lon="10.565443"><ele>1259.0</ele><time>2017-03-04T17:52:41Z</time></trkpt>
<trkpt lat="47.313642" lon="10.568188"><ele>1286.0</ele><time>2017-03-04T17:52:51Z</time></trkpt>
<trkpt lat="47.313607" lon="10.56833"><ele>1286.0</ele><time>2017-03-04T17:52:52Z</time></trkpt>
<trkpt lat="47.313598" lon="10.568895"><ele>1303.0</ele><time>2017-03-04T17:52:54Z</time></trkpt>
<trkpt lat="47.313578" lon="10.569111"><ele>1303.0</ele><time>2017-03-04T17:52:55Z</time></trkpt>
<trkpt lat="47.313335" lon="10.570221"><ele>1326.0</ele><time>2017-03-04T17:52:59Z</time></trkpt>
<trkpt lat="47.313275" lon="10.570709"><ele>1271.0</ele><time>2017-03-04T17:53:02Z</time></trkpt>
<trkpt lat="47.313049" lon="10.571587"><ele>1286.0</ele><time>2017-03-04T17:53:05Z</time></trkpt>
<trkpt lat="47.312977" lon="10.572173"><ele>1296.0</ele><time>2017-03-04T17:53:07Z</time></trkpt>
<trkpt lat="47.312927" lon="10.572323"><ele>1296.0</ele><time>2017-03-04T17:53:08Z</time></trkpt>
<trkpt lat="47.312719" lon="10.572687"><ele>1310.0</ele><time>2017-03-04T17:53:09Z</time></trkpt>
<trkpt lat="47.312657" lon="10.572823"><ele>1310.0</ele><time>2017-03-04T17:53:10Z</time></trkpt>
<trkpt lat="47.312437" lon="10.573403"><ele>1290.0</ele><time>2017-03-04T17:53:12Z</time></trkpt>
<trkpt lat="47.312388" lon="10.57357"><ele>1290.0</ele><time>2017-03-04T17:53:13Z</time></trkpt>
<trkpt lat="47.312279" lon="10.574171"><ele>1305.0</ele><time>2017-03-04T17:53:15Z</time></trkpt>
<trkpt lat="47.312129" lon="10.574627"><ele>1305.0</ele><time>2017-03-04T17:53:17Z</time></trkpt>
<trkpt lat="47.311796" lon="10.575988"><ele>1338.0</ele><time>2017-03-04T17:53:22Z</time></trkpt>
<trkpt lat="47.311661" lon="10.576732"><ele>1306.0</ele><time>2017-03-04T17:53:25Z</time></trkpt>
<trkpt lat="47.311554" lon="10.577472"><ele>1306.0</ele><time>2017-03-04T17:53:28Z</time></trkpt>
<trkpt lat="47.311492" lon="10.577736"><ele>1309.0</ele><time>2017-03-04T17:53:29Z</time></trkpt>
<trkpt lat="47.311401" lon="10.578005"><ele>1309.0</ele><time>2017-03-04T17:53:30Z</time></trkpt>
<trkpt lat="47.311147" lon="10.578486"><ele>1328.0</ele><time>2017-03-04T17:53:32Z</time></trkpt>
<trkpt lat="47.310784" lon="10.578944"><ele>1302.0</ele><time>2017-03-04T17:53:34Z</time></trkpt>
<trkpt lat="47.31069" lon="10.579093"><ele>1302.0</ele><time>2017-03-04T17:53:35Z</time></trkpt>
<trkpt lat="47.310643" lon="10.579198"><ele>1318.0</ele><time>2017-03-04T17:53:36Z</time></trkpt>
<trkpt lat="47.310603" lon="10.579345"><ele>1318.0</ele><time>2017-03-04T17:53:37Z</time></trkpt>
<trkpt lat="47.31059" lon="10.579465"><ele>1318.0</ele><time>2017-03-04T17:53:37Z</time></trkpt>
<trkpt lat="47.31061" lon="10.579901"><ele>1318.0</ele><time>2017-03-04T17:53:38Z</time></trkpt>
<trkpt lat="47.310595" lon="10.580107"><ele>1329.0</ele><time>2017-03-04T17:53:39Z</time></trkpt>
<trkpt lat="47.31057" lon="10.580198"><ele>1329.0</ele><time>2017-03-04T17:53:40Z</time></trkpt>
<trkpt lat="47.310222" lon="10.580968"><ele>1333.0</ele><time>2017-03-04T17:53:43Z</time></trkpt>
<trkpt lat="47.310064" lon="10.582048"><ele>1341.0</ele><time>2017-03-04T17:53:47Z</time></trkpt>
<trkpt lat="47.310059" lon="10.582207"><ele>1341.0</ele><time>2017-03-04T17:53:47Z</time></trkpt>
<trkpt lat="47.310074" lon="10.582334"><ele>1341.0</ele><time>2017-03-04T17:53:47Z</time></trkpt>
<trkpt lat="47.310182" lon="10.582756"><ele>1346.0</ele><time>2017-03-04T17:53:49Z</time></trkpt>
<trkpt lat="47.310177" lon="10.582985"><ele>1346.0</ele><time>2017-03-04T17:53:50Z</time></trkpt>
<trkpt lat="47.310141" lon="10.583115"><ele>1346.0</ele><time>2017-03-04T17:53:50Z</time></trkpt>
<trkpt lat="47.309669" lon="10.584383"><ele>1328.0</ele><time>2017-03-04T17:53:55Z</time></trkpt>
<trkpt lat="47.309597" lon="10.584518"><ele>1328.0</ele><time>2017-03-04T17:53:56Z</time></trkpt>
<trkpt lat="47.309538" lon="10.58457"><ele>1328.0</ele><time>2017-03-04T17:53:56Z</time></trkpt>
<trkpt lat="47.309467" lon="10.584599"><ele>1328.0</ele><time>2017-03-04T17:53:57Z</time></trkpt>
<trkpt lat="47.309393" lon="10.584577"><ele>1328.0</ele><time>2017-03-04T17:53:57Z</time></trkpt>
<trkpt lat="47.309146" lon="10.584361"><ele>1316.0</ele><time>2017-03-04T17:53:58Z</time></trkpt>
<trkpt lat="47.309058" lon="10.584332"><ele>1316.0</ele><time>2017-03-04T17:53:59Z</time></trkpt>
<trkpt lat="47.308893" lon="10.58439"><ele>1316.0</ele><time>2017-03-04T17:54:00Z</time></trkpt>
<trkpt lat="47.308543" lon="10.584758"><ele>1316.0</ele><time>2017-03-04T17:54:02Z</time></trkpt>
<trkpt lat="47.307708" lon="10.585376"><ele>1323.0</ele><time>2017-03-04T17:54:07Z</time></trkpt>
<trkpt lat="47.307558" lon="10.585514"><ele>1323.0</ele><time>2017-03-04T17:54:07Z</time></trkpt>
<trkpt lat="47.307407" lon="10.585698"><ele>1313.0</ele><time>2017-03-04T17:54:09Z</time></trkpt>
<trkpt lat="47.307245" lon="10.585989"><ele>1329.0</ele><time>2017-03-04T17:54:10Z</time></trkpt>
<trkpt lat="47.307176" lon="10.586204"><ele>1329.0</ele><time>2017-03-04T17:54:11Z</time></trkpt>
<trkpt lat="47.306849" lon="10.587898"><ele>1348.0</ele><time>2017-03-04T17:54:17Z</time></trkpt>
<trkpt lat="47.306816" lon="10.588132"><ele>1348.0</ele><time>2017-03-04T17:54:18Z</time></trkpt>
<trkpt lat="47.306727" lon="10.588486"><ele>1354.0</ele><time>2017-03-04T17:54:19Z</time></trkpt>
<trkpt lat="47.306719" lon="10.588598"><ele>1354.0</ele><time>2017-03-04T17:54:19Z</time></trkpt>
<trkpt lat="47.30673" lon="10.588729"><ele>1354.0</ele><time>2017-03-04T17:54:20Z</time></trkpt>
<trkpt lat="47.306774" lon="10.589027"><ele>1354.0</ele><time>2017-03-04T17:54:21Z</time></trkpt>
<trkpt lat="47.306729" lon="10.589211"><ele>1355.0</ele><time>2017-03-04T17:54:22Z</time></trkpt>
<trkpt lat="47.306646" lon="10.589333"><ele>1315.0</ele><time>2017-03-04T17:54:23Z</time></trkpt>
<trkpt lat="47.30642" lon="10.58949"><ele>1315.0</ele><time>2017-03-04T17:54:25Z</time></trkpt>
<trkpt lat="47.306318" lon="10.589652"><ele>1315.0</ele><time>2017-03-04T17:54:25Z</time></trkpt>
<trkpt lat="47.306074" lon="10.590164"><ele>1333.0</ele><time>2017-03-04T17:54:28Z</time></trkpt>
<trkpt lat="47.305874" lon="10.590429"><ele>1333.0</ele><time>2017-03-04T17:54:29Z</time></trkpt>
<trkpt lat="47.305614" lon="10.590671"><ele>1314.0</ele><time>2017-03-04T17:54:31Z</time></trkpt>
<trkpt lat="47.305483" lon="10.590849"><ele>1336.0</ele><time>2017-03-04T17:54:32Z</time></trkpt>
<trkpt lat="47.305067" lon="10.591693"><ele>1358.0</ele><time>2017-03-04T17:54:36Z</time></trkpt>
<trkpt lat="47.304932" lon="10.592003"><ele>1324.0</ele><time>2017-03-04T17:54:38Z</time></trkpt>
<trkpt lat="47.304844" lon="10.592251"><ele>1324.0</ele><time>2017-03-04T17:54:39Z</time></trkpt>
<trkpt lat="47.304488" lon="10.593593"><ele>1356.0</ele><time>2017-03-04T17:54:44Z</time></trkpt>
<trkpt lat="47.304457" lon="10.593805"><ele>1356.0</ele><time>2017-03-04T17:54:45Z</time></trkpt>
<trkpt lat="47.304448" lon="10.594184"><ele>1364.0</ele><time>2017-03-04T17:54:46Z</time></trkpt>
<trkpt lat="47.304371" lon="10.594596"><ele>1364.0</ele><time>2017-03-04T17:54:47Z</time></trkpt>
<trkpt lat="47.304391" lon="10.594736"><ele>1364.0</ele><time>2017-03-04T17:54:48Z</time></trkpt>
<trkpt lat="47.304485" lon="10.594945"><ele>1364.0</ele><time>2017-03-04T17:54:49Z</time></trkpt>
<trkpt lat="47.304587" lon="10.595334"><ele>1364.0</ele><time>2017-03-04T17:54:50Z</time></trkpt>
<trkpt lat="47.304589" lon="10.595412"><ele>1364.0</ele><time>2017-03-04T17:54:50Z</time></trkpt>
<trkpt lat="47.304538" lon="10.595656"><ele>1364.0</ele><time>2017-03-04T17:54:51Z</time></trkpt>
<trkpt lat="47.304528" lon="10.595778"><ele>1364.0</ele><time>2017-03-04T17:54:52Z</time></trkpt>
<trkpt lat="47.304554" lon="10.596144"><ele>1367.0</ele><time>2017-03-04T17:54:53Z</time></trkpt>
<trkpt lat="47.304523" lon="10.596286"><ele>1367.0</ele><time>2017-03-04T17:54:53Z</time></trkpt>
<trkpt lat="47.304479" lon="10.596365"><ele>1367.0</ele><time>2017-03-04T17:54:54Z</time></trkpt>
<trkpt lat="47.304377" lon="10.596469"><ele>1367.0</ele><time>2017-03-04T17:54:54Z</time></trkpt>
<trkpt lat="47.304282" lon="10.596504"><ele>1367.0</ele><time>2017-03-04T17:54:55Z</time></trkpt>
<trkpt lat="47.304216" lon="10.596501"><ele>1367.0</ele><time>2017-03-04T17:54:55Z</time></trkpt>
<trkpt lat="47.304141" lon="10.596465"><ele>1323.0</ele><time>2017-03-04T17:54:57Z</time></trkpt>
<trkpt lat="47.303934" lon="10.596289"><ele>1323.0</ele><time>2017-03-04T17:54:58Z</time></trkpt>
<trkpt lat="47.303872" lon="10.596259"><ele>1323.0</ele><time>2017-03-04T17:54:59Z</time></trkpt>
<trkpt lat="47.303738" lon="10.596253"><ele>1323.0</ele><time>2017-03-04T17:54:59Z</time></trkpt>
<trkpt lat="47.303364" lon="10.596361"><ele>1323.0</ele><time>2017-03-04T17:55:01Z</time></trkpt>
<trkpt lat="47.303245" lon="10.596428"><ele>1305.0</ele><time>2017-03-04T17:55:02Z</time></trkpt>
<trkpt lat="47.30287" lon="10.596763"><ele>1351.0</ele><time>2017-03-04T17:55:05Z</time></trkpt>
<trkpt lat="47.302664" lon="10.597009"><ele>1351.0</ele><time>2017-03-04T17:55:07Z</time></trkpt>
<trkpt lat="47.302526" lon="10.597145"><ele>1351.0</ele><time>2017-03-04T17:55:08Z</time></trkpt>
<trkpt lat="47.302099" lon="10.597443"><ele>1324.0</ele><time>2017-03-04T17:55:10Z</time></trkpt>
<trkpt lat="47.301806" lon="10.597758"><ele>1357.0</ele><time>2017-03-04T17:55:13Z</time></trkpt>
<trkpt lat="47.301153" lon="10.598645"><ele>1348.0</ele><time>2017-03-04T17:55:17Z</time></trkpt>
<trkpt lat="47.300662" lon="10.599444"><ele>1330.0</ele><time>2017-03-04T17:55:21Z</time></trkpt>
<trkpt lat="47.300363" lon="10.599995"><ele>1330.0</ele><time>2017-03-04T17:55:23Z</time></trkpt>
<trkpt lat="47.300327" lon="10.600095"><ele>1352.0</ele><time>2017-03-04T17:55:24Z</time></trkpt>
<trkpt lat="47.300313" lon="10.600198"><ele>1352.0</ele><time>2017-03-04T17:55:25Z</time></trkpt>
<trkpt lat="47.300306" lon="10.600707"><ele>1352.0</ele><time>2017-03-04T17:55:26Z</time></trkpt>
<trkpt lat="47.300325" lon="10.600808"><ele>1352.0</ele><time>2017-03-04T17:55:27Z</time></trkpt>
<trkpt lat="47.300441" lon="10.601064"><ele>1368.0</ele><time>2017-03-04T17:55:28Z</time></trkpt>
<trkpt lat="47.300489" lon="10.601218"><ele>1368.0</ele><time>2017-03-04T17:55:28Z</time></trkpt>
<trkpt lat="47.30061" lon="10.60183"><ele>1362.0</ele><time>2017-03-04T17:55:31Z</time></trkpt>
<trkpt lat="47.300619" lon="10.601988"><ele>1362.0</ele><time>2017-03-04T17:55:31Z</time></trkpt>
<trkpt lat="47.300602" lon="10.60294"><ele>1362.0</ele><time>2017-03-04T17:55:34Z</time></trkpt>
<trkpt lat="47.30057" lon="10.603273"><ele>1362.0</ele><time>2017-03-04T17:55:36Z</time></trkpt>
<trkpt lat="47.300569" lon="10.603431"><ele>1362.0</ele><time>2017-03-04T17:55:36Z</time></trkpt>
<trkpt lat="47.300764" lon="10.604496"><ele>1357.0</ele><time>2017-03-04T17:55:40Z</time></trkpt>
<trkpt lat="47.300745" lon="10.604993"><ele>1357.0</ele><time>2017-03-04T17:55:42Z</time></trkpt>
<trkpt lat="47.300755" lon="10.605267"><ele>1357.0</ele><time>2017-03-04T17:55:42Z</time></trkpt>
<trkpt lat="47.300805" lon="10.605629"><ele>1357.0</ele><time>2017-03-04T17:55:44Z</time></trkpt>
<trkpt lat="47.300801" lon="10.605842"><ele>1363.0</ele><time>2017-03-04T17:55:44Z</time></trkpt>
<trkpt lat="47.30069" lon="10.606689"><ele>1360.0</ele><time>2017-03-04T17:55:47Z</time></trkpt>
<trkpt lat="47.300639" lon="10.606835"><ele>1360.0</ele><time>2017-03-04T17:55:48Z</time></trkpt>
<trkpt lat="47.300582" lon="10.606845"><ele>1360.0</ele><time>2017-03-04T17:55:48Z</time></trkpt>
<trkpt lat="47.300558" lon="10.606824"><ele>1360.0</ele><time>2017-03-04T17:55:48Z</time></trkpt>
<trkpt lat="47.300534" lon="10.60678"><ele>1360.0</ele><time>2017-03-04T17:55:49Z</time></trkpt>
<trkpt lat="47.300528" lon="10.606706"><ele>1360.0</ele><time>2017-03-04T17:55:49Z</time></trkpt>
<trkpt lat="47.300621" lon="10.606331"><ele>1363.0</ele><time>2017-03-04T17:55:50Z</time></trkpt>
<trkpt lat="47.300631" lon="10.606084"><ele>1363.0</ele><time>2017-03-04T17:55:51Z</time></trkpt>
<trkpt lat="47.300619" lon="10.605735"><ele>1357.0</ele><time>2017-03-04T17:55:52Z</time></trkpt>
<trkpt lat="47.300564" lon="10.605456"><ele>1357.0</ele><time>2017-03-04T17:55:53Z</time></trkpt>
<trkpt lat="47.300483" lon="10.605228"><ele>1357.0</ele><time>2017-03-04T17:55:54Z</time></trkpt>
<trkpt lat="47.30041" lon="10.604942"><ele>1357.0</ele><time>2017-03-04T17:55:55Z</time></trkpt>
<trkpt lat="47.300309" lon="10.60438"><ele>1357.0</ele><time>2017-03-04T17:55:57Z</time></trkpt>
<trkpt lat="47.30013" lon="10.604064"><ele>1362.0</ele><time>2017-03-04T17:55:59Z</time></trkpt>
<trkpt lat="47.300011" lon="10.603711"><ele>1362.0</ele><time>2017-03-04T17:56:00Z</time></trkpt>
<trkpt lat="47.299746" lon="10.603241"><ele>1341.0</ele><time>2017-03-04T17:56:02Z</time></trkpt>
<trkpt lat="47.299594" lon="10.602792"><ele>1341.0</ele><time>2017-03-04T17:56:04Z</time></trkpt>
<trkpt lat="47.299339" lon="10.602143"><ele>1322.0</ele><time>2017-03-04T17:56:07Z</time></trkpt>
<trkpt lat="47.299173" lon="10.60177"><ele>1322.0</ele><time>2017-03-04T17:56:08Z</time></trkpt>
<trkpt lat="47.299038" lon="10.601587"><ele>1335.0</ele><time>2017-03-04T17:56:09Z</time></trkpt>
<trkpt lat="47.298933" lon="10.601504"><ele>1335.0</ele><time>2017-03-04T17:56:10Z</time></trkpt>
<trkpt lat="47.298607" lon="10.601395"><ele>1335.0</ele><time>2017-03-04T17:56:11Z</time></trkpt>
<trkpt lat="47.298391" lon="10.601388"><ele>1335.0</ele><time>2017-03-04T17:56:13Z</time></trkpt>
<trkpt lat="47.297822" lon="10.601543"><ele>1350.0</ele><time>2017-03-04T17:56:15Z</time></trkpt>
<trkpt lat="47.297477" lon="10.601686"><ele>1373.0</ele><time>2017-03-04T17:56:18Z</time></trkpt>
<trkpt lat="47.297132" lon="10.601887"><ele>1373.0</ele><time>2017-03-04T17:56:19Z</time></trkpt>
<trkpt lat="47.296308" lon="10.602021"><ele>1362.0</ele><time>2017-03-04T17:56:24Z</time></trkpt>
<trkpt lat="47.296003" lon="10.60212"><ele>1362.0</ele><time>2017-03-04T17:56:25Z</time></trkpt>
<trkpt lat="47.295653" lon="10.602289"><ele>1349.0</ele><time>2017-03-04T17:56:27Z</time></trkpt>
<trkpt lat="47.295477" lon="10.602419"><ele>1349.0</ele><time>2017-03-04T17:56:28Z</time></trkpt>
<trkpt lat="47.295272" lon="10.602757"><ele>1375.0</ele><time>2017-03-04T17:56:30Z</time></trkpt>
<trkpt lat="47.295199" lon="10.602798"><ele>1375.0</ele><time>2017-03-04T17:56:30Z</time></trkpt>
<trkpt lat="47.294972" lon="10.602798"><ele>1355.0</ele><time>2017-03-04T17:56:32Z</time></trkpt>
<trkpt lat="47.294922" lon="10.602819"><ele>1355.0</ele><time>2017-03-04T17:56:32Z</time></trkpt>
<trkpt lat="47.294854" lon="10.602867"><ele>1355.0</ele><time>2017-03-04T17:56:32Z</time></trkpt>
<trkpt lat="47.294596" lon="10.603145"><ele>1355.0</ele><time>2017-03-04T17:56:34Z</time></trkpt>
<trkpt lat="47.29445" lon="10.603264"><ele>1355.0</ele><time>2017-03-04T17:56:35Z</time></trkpt>
<trkpt lat="47.294168" lon="10.603399"><ele>1390.0</ele><time>2017-03-04T17:56:37Z</time></trkpt>
<trkpt lat="47.294069" lon="10.603417"><ele>1372.0</ele><time>2017-03-04T17:56:38Z</time></trkpt>
<trkpt lat="47.293675" lon="10.603417"><ele>1372.0</ele><time>2017-03-04T17:56:40Z</time></trkpt>
<trkpt lat="47.293403" lon="10.603453"><ele>1372.0</ele><time>2017-03-04T17:56:41Z</time></trkpt>
<trkpt lat="47.292928" lon="10.603397"><ele>1372.0</ele><time>2017-03-04T17:56:44Z</time></trkpt>
<trkpt lat="47.292763" lon="10.603407"><ele>1372.0</ele><time>2017-03-04T17:56:45Z</time></trkpt>
<trkpt lat="47.29263" lon="10.603449"><ele>1372.0</ele><time>2017-03-04T17:56:45Z</time></trkpt>
<trkpt lat="47.292258" lon="10.603649"><ele>1367.0</ele><time>2017-03-04T17:56:47Z</time></trkpt>
<trkpt lat="47.291689" lon="10.603773"><ele>1367.0</ele><time>2017-03-04T17:56:50Z</time></trkpt>
<trkpt lat="47.290908" lon="10.604212"><ele>1395.0</ele><time>2017-03-04T17:56:54Z</time></trkpt>
<trkpt lat="47.290509" lon="10.604486"><ele>1383.0</ele><time>2017-03-04T17:56:57Z</time></trkpt>
<trkpt lat="47.289976" lon="10.604733"><ele>1377.0</ele><time>2017-03-04T17:57:00Z</time></trkpt>
<trkpt lat="47.289555" lon="10.604879"><ele>1377.0</ele><time>2017-03-04T17:57:02Z</time></trkpt>
<trkpt lat="47.288833" lon="10.605025"><ele>1395.0</ele><time>2017-03-04T17:57:05Z</time></trkpt>
<trkpt lat="47.288766" lon="10.605047"><ele>1395.0</ele><time>2017-03-04T17:57:17Z</time></trkpt>
<trkpt lat="47.28879" lon="10.605143"><ele>1395.0</ele><time>2017-03-04T17:57:17Z</time></trkpt>
<trkpt lat="47.288835" lon="10.60523"><ele>1395.0</ele><time>2017-03-04T17:57:17Z</time></trkpt>
<trkpt lat="47.289327" lon="10.605397"><ele>1401.0</ele><time>2017-03-04T17:57:21Z</time></trkpt>
<trkpt lat="47.289356" lon="10.605438"><ele>1401.0</ele><time>2017-03-04T17:57:21Z</time></trkpt>
<trkpt lat="47.289359" lon="10.605546"><ele>1401.0</ele><time>2017-03-04T17:57:21Z</time></trkpt>
<trkpt lat="47.289334" lon="10.605584"><ele>1401.0</ele><time>2017-03-04T17:57:21Z</time></trkpt>
<trkpt lat="47.28916" lon="10.605665"><ele>1395.0</ele><time>2017-03-04T17:57:23Z</time></trkpt>
<trkpt lat="47.288565" lon="10.606067"><ele>1418.0</ele><time>2017-03-04T17:57:27Z</time></trkpt>
<trkpt lat="47.288448" lon="10.60617"><ele>1418.0</ele><time>2017-03-04T17:57:28Z</time></trkpt>
<trkpt lat="47.288206" lon="10.606615"><ele>1407.0</ele><time>2017-03-04T17:57:30Z</time></trkpt>
<trkpt lat="47.288163" lon="10.606655"><ele>1407.0</ele><time>2017-03-04T17:57:31Z</time></trkpt>
<trkpt lat="47.288001" lon="10.606733"><ele>1432.0</ele><time>2017-03-04T17:57:32Z</time></trkpt>
<trkpt lat="47.287673" lon="10.606723"><ele>1432.0</ele><time>2017-03-04T17:57:34Z</time></trkpt>
<trkpt lat="47.28748" lon="10.606809"><ele>1428.0</ele><time>2017-03-04T17:57:36Z</time></trkpt>
<trkpt lat="47.287305" lon="10.606976"><ele>1428.0</ele><time>2017-03-04T17:57:37Z</time></trkpt>
<trkpt lat="47.287009" lon="10.607403"><ele>1428.0</ele><time>2017-03-04T17:57:39Z</time></trkpt>
<trkpt lat="47.287006" lon="10.607477"><ele>1428.0</ele><time>2017-03-04T17:57:40Z</time></trkpt>
<trkpt lat="47.287029" lon="10.607524"><ele>1446.0</ele><time>2017-03-04T17:57:41Z</time></trkpt>
<trkpt lat="47.287088" lon="10.60756"><ele>1446.0</ele><time>2017-03-04T17:57:41Z</time></trkpt>
<trkpt lat="47.287172" lon="10.607527"><ele>1446.0</ele><time>2017-03-04T17:57:42Z</time></trkpt>
<trkpt lat="47.287521" lon="10.607309"><ele>1432.0</ele><time>2017-03-04T17:57:44Z</time></trkpt>
<trkpt lat="47.287567" lon="10.607314"><ele>1432.0</ele><time>2017-03-04T17:57:44Z</time></trkpt>
<trkpt lat="47.287611" lon="10.607363"><ele>1432.0</ele><time>2017-03-04T17:57:45Z</time></trkpt>
<trkpt lat="47.287623" lon="10.607424"><ele>1432.0</ele><time>2017-03-04T17:57:45Z</time></trkpt>
<trkpt lat="47.287616" lon="10.607466"><ele>1432.0</ele><time>2017-03-04T17:57:45Z</time></trkpt>
<trkpt lat="47.287599" lon="10.607505"><ele>1460.0</ele><time>2017-03-04T17:57:47Z</time></trkpt>
<trkpt lat="47.2875" lon="10.607572"><ele>1460.0</ele><time>2017-03-04T17:57:47Z</time></trkpt>
<trkpt lat="47.287409" lon="10.607667"><ele>1446.0</ele><time>2017-03-04T17:57:48Z</time></trkpt>
<trkpt lat="47.287254" lon="10.608056"><ele>1446.0</ele><time>2017-03-04T17:57:50Z</time></trkpt>
<trkpt lat="47.287208" lon="10.608111"><ele>1446.0</ele><time>2017-03-04T17:57:51Z</time></trkpt>
<trkpt lat="47.287133" lon="10.608107"><ele>1446.0</ele><time>2017-03-04T17:57:51Z</time></trkpt>
<trkpt lat="47.286895" lon="10.607924"><ele>1446.0</ele><time>2017-03-04T17:57:53Z</time></trkpt>
<trkpt lat="47.286815" lon="10.607946"><ele>1446.0</ele><time>2017-03-04T17:57:53Z</time></trkpt>
<trkpt lat="47.286796" lon="10.608004"><ele>1446.0</ele><time>2017-03-04T17:57:54Z</time></trkpt>
<trkpt lat="47.286791" lon="10.608086"><ele>1446.0</ele><time>2017-03-04T17:57:54Z</time></trkpt>
<trkpt lat="47.286817" lon="10.608449"><ele>1470.0</ele><time>2017-03-04T17:57:56Z</time></trkpt>
<trkpt lat="47.286804" lon="10.608636"><ele>1470.0</ele><time>2017-03-04T17:57:57Z</time></trkpt>
<trkpt lat="47.286558" lon="10.609484"><ele>1471.0</ele><time>2017-03-04T17:58:01Z</time></trkpt>
<trkpt lat="47.286527" lon="10.609531"><ele>1471.0</ele><time>2017-03-04T17:58:01Z</time></trkpt>
<trkpt lat="47.286422" lon="10.609608"><ele>1471.0</ele><time>2017-03-04T17:58:02Z</time></trkpt>
<trkpt lat="47.286165" lon="10.609633"><ele>1471.0</ele><time>2017-03-04T17:58:03Z</time></trkpt>
<trkpt lat="47.286025" lon="10.60972"><ele>1471.0</ele><time>2017-03-04T17:58:04Z</time></trkpt>
<trkpt lat="47.285582" lon="10.610228"><ele>1487.0</ele><time>2017-03-04T17:58:08Z</time></trkpt>
<trkpt lat="47.285293" lon="10.610709"><ele>1487.0</ele><time>2017-03-04T17:58:10Z</time></trkpt>
<trkpt lat="47.285137" lon="10.610827"><ele>1487.0</ele><time>2017-03-04T17:58:12Z</time></trkpt>
<trkpt lat="47.285098" lon="10.610881"><ele>1507.0</ele><time>2017-03-04T17:58:13Z</time></trkpt>
<trkpt lat="47.285091" lon="10.610975"><ele>1507.0</ele><time>2017-03-04T17:58:13Z</time></trkpt>
<trkpt lat="47.285127" lon="10.611027"><ele>1507.0</ele><time>2017-03-04T17:58:13Z</time></trkpt>
<trkpt lat="47.285194" lon="10.611031"><ele>1507.0</ele><time>2017-03-04T17:58:14Z</time></trkpt>
<trkpt lat="47.285363" lon="10.610906"><ele>1507.0</ele><time>2017-03-04T17:58:15Z</time></trkpt>
<trkpt lat="47.285866" lon="10.6108"><ele>1500.0</ele><time>2017-03-04T17:58:18Z</time></trkpt>
<trkpt lat="47.286045" lon="10.610722"><ele>1500.0</ele><time>2017-03-04T17:58:19Z</time></trkpt>
<trkpt lat="47.286097" lon="10.610728"><ele>1500.0</ele><time>2017-03-04T17:58:20Z</time></trkpt>
<trkpt lat="47.28613" lon="10.610761"><ele>1500.0</ele><time>2017-03-04T17:58:20Z</time></trkpt>
<trkpt lat="47.286138" lon="10.61086"><ele>1526.0</ele><time>2017-03-04T17:58:21Z</time></trkpt>
<trkpt lat="47.286116" lon="10.610901"><ele>1526.0</ele><time>2017-03-04T17:58:22Z</time></trkpt>
<trkpt lat="47.286004" lon="10.610963"><ele>1526.0</ele><time>2017-03-04T17:58:22Z</time></trkpt>
<trkpt lat="47.285853" lon="10.611086"><ele>1526.0</ele><time>2017-03-04T17:58:23Z</time></trkpt>
<trkpt lat="47.285731" lon="10.611226"><ele>1507.0</ele><time>2017-03-04T17:58:25Z</time></trkpt>
<trkpt lat="47.285452" lon="10.611383"><ele>1507.0</ele><time>2017-03-04T17:58:27Z</time></trkpt>
<trkpt lat="47.285388" lon="10.611444"><ele>1507.0</ele><time>2017-03-04T17:58:27Z</time></trkpt>
<trkpt lat="47.285328" lon="10.611573"><ele>1507.0</ele><time>2017-03-04T17:58:28Z</time></trkpt>
<trkpt lat="47.28524" lon="10.611848"><ele>1531.0</ele><time>2017-03-04T17:58:30Z</time></trkpt>
<trkpt lat="47.285168" lon="10.611981"><ele>1531.0</ele><time>2017-03-04T17:58:30Z</time></trkpt>
<trkpt lat="47.285073" lon="10.612082"><ele>1531.0</ele><time>2017-03-04T17:58:31Z</time></trkpt>
<trkpt lat="47.284968" lon="10.612121"><ele>1516.0</ele><time>2017-03-04T17:58:32Z</time></trkpt>
<trkpt lat="47.284697" lon="10.612136"><ele>1516.0</ele><time>2017-03-04T17:58:34Z</time></trkpt>
<trkpt lat="47.284603" lon="10.61222"><ele>1516.0</ele><time>2017-03-04T17:58:34Z</time></trkpt>
<trkpt lat="47.284565" lon="10.612384"><ele>1516.0</ele><time>2017-03-04T17:58:35Z</time></trkpt>
<trkpt lat="47.284554" lon="10.612673"><ele>1543.0</ele><time>2017-03-04T17:58:37Z</time></trkpt>
<trkpt lat="47.284477" lon="10.613534"><ele>1565.0</ele><time>2017-03-04T17:58:41Z</time></trkpt>
<trkpt lat="47.284442" lon="10.61372"><ele>1565.0</ele><time>2017-03-04T17:58:42Z</time></trkpt>
<trkpt lat="47.284224" lon="10.614069"><ele>1565.0</ele><time>2017-03-04T17:58:44Z</time></trkpt>
<trkpt lat="47.284195" lon="10.614166"><ele>1565.0</ele><time>2017-03-04T17:58:44Z</time></trkpt>
<trkpt lat="47.284153" lon="10.615046"><ele>1571.0</ele><time>2017-03-04T17:58:48Z</time></trkpt>
<trkpt lat="47.284099" lon="10.615165"><ele>1571.0</ele><time>2017-03-04T17:58:48Z</time></trkpt>
<trkpt lat="47.283899" lon="10.61532"><ele>1571.0</ele><time>2017-03-04T17:58:50Z</time></trkpt>
<trkpt lat="47.283826" lon="10.615424"><ele>1571.0</ele><time>2017-03-04T17:58:50Z</time></trkpt>
<trkpt lat="47.283556" lon="10.616159"><ele>1586.0</ele><time>2017-03-04T17:58:54Z</time></trkpt>
<trkpt lat="47.283537" lon="10.616302"><ele>1586.0</ele><time>2017-03-04T17:58:58Z</time></trkpt>
<trkpt lat="47.283537" lon="10.616302"><ele>1586.0</ele><time>2017-03-04T17:58:58Z</time></trkpt>
<trkpt lat="47.283506" lon="10.616747"><ele>1602.0</ele><time>2017-03-04T17:59:00Z</time></trkpt>
<trkpt lat="47.283543" lon="10.617589"><ele>1616.0</ele><time>2017-03-04T17:59:03Z</time></trkpt>
<trkpt lat="47.283537" lon="10.617748"><ele>1616.0</ele><time>2017-03-04T17:59:03Z</time></trkpt>
<trkpt lat="47.28337" lon="10.618858"><ele>1630.0</ele><time>2017-03-04T17:59:07Z</time></trkpt>
<trkpt lat="47.283251" lon="10.619268"><ele>1610.0</ele><time>2017-03-04T17:59:09Z</time></trkpt>
<trkpt lat="47.283237" lon="10.619383"><ele>1610.0</ele><time>2017-03-04T17:59:09Z</time></trkpt>
<trkpt lat="47.283236" lon="10.619947"><ele>1610.0</ele><time>2017-03-04T17:59:11Z</time></trkpt>
<trkpt lat="47.283138" lon="10.620482"><ele>1612.0</ele><time>2017-03-04T17:59:13Z</time></trkpt>
<trkpt lat="47.282943" lon="10.62121"><ele>1617.0</ele><time>2017-03-04T17:59:16Z</time></trkpt>
<trkpt lat="47.282934" lon="10.621366"><ele>1617.0</ele><time>2017-03-04T17:59:16Z</time></trkpt>
<trkpt lat="47.282958" lon="10.621541"><ele>1617.0</ele><time>2017-03-04T17:59:17Z</time></trkpt>
<trkpt lat="47.283235" lon="10.622591"><ele>1633.0</ele><time>2017-03-04T17:59:21Z</time></trkpt>
<trkpt lat="47.283269" lon="10.622893"><ele>1633.0</ele><time>2017-03-04T17:59:22Z</time></trkpt>
<trkpt lat="47.283269" lon="10.62343"><ele>1639.0</ele><time>2017-03-04T17:59:24Z</time></trkpt>
<trkpt lat="47.28324" lon="10.624453"><ele>1647.0</ele><time>2017-03-04T17:59:27Z</time></trkpt>
<trkpt lat="47.283276" lon="10.625362"><ele>1650.0</ele><time>2017-03-04T17:59:30Z</time></trkpt>
<trkpt lat="47.283298" lon="10.625566"><ele>1650.0</ele><time>2017-03-04T17:59:31Z</time></trkpt>
<trkpt lat="47.283359" lon="10.625757"><ele>1678.0</ele><time>2017-03-04T17:59:33Z</time></trkpt>
<trkpt lat="47.283589" lon="10.62629"><ele>1679.0</ele><time>2017-03-04T17:59:35Z</time></trkpt>
<trkpt lat="47.283708" lon="10.626867"><ele>1677.0</ele><time>2017-03-04T17:59:37Z</time></trkpt>
<trkpt lat="47.284003" lon="10.627544"><ele>1670.0</ele><time>2017-03-04T17:59:39Z</time></trkpt>
<trkpt lat="47.284064" lon="10.627781"><ele>1670.0</ele><time>2017-03-04T17:59:40Z</time></trkpt>
<trkpt lat="47.284114" lon="10.628089"><ele>1670.0</ele><time>2017-03-04T17:59:41Z</time></trkpt>
<trkpt lat="47.284118" lon="10.628361"><ele>1676.0</ele><time>2017-03-04T17:59:42Z</time></trkpt>
<trkpt lat="47.284061" lon="10.629034"><ele>1676.0</ele><time>2017-03-04T17:59:45Z</time></trkpt>
<trkpt lat="47.284056" lon="10.629397"><ele>1681.0</ele><time>2017-03-04T17:59:46Z</time></trkpt>
<trkpt lat="47.284082" lon="10.629609"><ele>1681.0</ele><time>2017-03-04T17:59:47Z</time></trkpt>
<trkpt lat="47.284147" lon="10.629847"><ele>1681.0</ele><time>2017-03-04T17:59:48Z</time></trkpt>
<trkpt lat="47.284138" lon="10.629976"><ele>1681.0</ele><time>2017-03-04T17:59:48Z</time></trkpt>
<trkpt lat="47.284091" lon="10.630056"><ele>1680.0</ele><time>2017-03-04T17:59:48Z</time></trkpt>
<trkpt lat="47.284053" lon="10.630085"><ele>1680.0</ele><time>2017-03-04T17:59:49Z</time></trkpt>
<trkpt lat="47.283969" lon="10.630097"><ele>1680.0</ele><time>2017-03-04T17:59:49Z</time></trkpt>
<trkpt lat="47.283877" lon="10.630023"><ele>1680.0</ele><time>2017-03-04T17:59:50Z</time></trkpt>
<trkpt lat="47.283698" lon="10.629652"><ele>1681.0</ele><time>2017-03-04T17:59:51Z</time></trkpt>
<trkpt lat="47.283259" lon="10.629135"><ele>1679.0</ele><time>2017-03-04T17:59:54Z</time></trkpt>
<trkpt lat="47.283169" lon="10.62895"><ele>1679.0</ele><time>2017-03-04T17:59:55Z</time></trkpt>
<trkpt lat="47.283029" lon="10.62845"><ele>1679.0</ele><time>2017-03-04T17:59:56Z</time></trkpt>
<trkpt lat="47.282954" lon="10.628358"><ele>1679.0</ele><time>2017-03-04T17:59:57Z</time></trkpt>
<trkpt lat="47.282878" lon="10.628397"><ele>1679.0</ele><time>2017-03-04T17:59:57Z</time></trkpt>
<trkpt lat="47.282848" lon="10.628489"><ele>1679.0</ele><time>2017-03-04T17:59:58Z</time></trkpt>
<trkpt lat="47.282887" lon="10.628804"><ele>1679.0</ele><time>2017-03-04T17:59:59Z</time></trkpt>
<trkpt lat="47.282884" lon="10.629245"><ele>1684.0</ele><time>2017-03-04T18:00:00Z</time></trkpt>
<trkpt lat="47.282904" lon="10.629518"><ele>1684.0</ele><time>2017-03-04T18:00:01Z</time></trkpt>
<trkpt lat="47.282951" lon="10.629748"><ele>1684.0</ele><time>2017-03-04T18:00:02Z</time></trkpt>
<trkpt lat="47.2832" lon="10.630577"><ele>1695.0</ele><time>2017-03-04T18:00:05Z</time></trkpt>
<trkpt lat="47.28324" lon="10.630846"><ele>1713.0</ele><time>2017-03-04T18:00:06Z</time></trkpt>
<trkpt lat="47.283271" lon="10.631291"><ele>1713.0</ele><time>2017-03-04T18:00:08Z</time></trkpt>
<trkpt lat="47.283315" lon="10.631455"><ele>1713.0</ele><time>2017-03-04T18:00:09Z</time></trkpt>
<trkpt lat="47.283459" lon="10.631724"><ele>1700.0</ele><time>2017-03-04T18:00:10Z</time></trkpt>
<trkpt lat="47.283561" lon="10.632005"><ele>1700.0</ele><time>2017-03-04T18:00:11Z</time></trkpt>
<trkpt lat="47.283569" lon="10.632175"><ele>1700.0</ele><time>2017-03-04T18:00:11Z</time></trkpt>
<trkpt lat="47.283557" lon="10.632249"><ele>1700.0</ele><time>2017-03-04T18:00:12Z</time></trkpt>
<trkpt lat="47.283483" lon="10.632394"><ele>1700.0</ele><time>2017-03-04T18:00:12Z</time></trkpt>
<trkpt lat="47.283341" lon="10.632581"><ele>1707.0</ele><time>2017-03-04T18:00:13Z</time></trkpt>
<trkpt lat="47.283301" lon="10.632727"><ele>1735.0</ele><time>2017-03-04T18:00:15Z</time></trkpt>
<trkpt lat="47.283295" lon="10.63283"><ele>1735.0</ele><time>2017-03-04T18:00:15Z</time></trkpt>
<trkpt lat="47.283337" lon="10.633545"><ele>1722.0</ele><time>2017-03-04T18:00:18Z</time></trkpt>
<trkpt lat="47.283364" lon="10.633693"><ele>1722.0</ele><time>2017-03-04T18:00:18Z</time></trkpt>
<trkpt lat="47.283395" lon="10.633776"><ele>1722.0</ele><time>2017-03-04T18:00:18Z</time></trkpt>
<trkpt lat="47.283492" lon="10.633908"><ele>1722.0</ele><time>2017-03-04T18:00:19Z</time></trkpt>
<trkpt lat="47.283671" lon="10.634055"><ele>1722.0</ele><time>2017-03-04T18:00:20Z</time></trkpt>
<trkpt lat="47.283714" lon="10.634153"><ele>1722.0</ele><time>2017-03-04T18:00:21Z</time></trkpt>
<trkpt lat="47.283727" lon="10.634301"><ele>1735.0</ele><time>2017-03-04T18:00:21Z</time></trkpt>
<trkpt lat="47.283664" lon="10.634695"><ele>1735.0</ele><time>2017-03-04T18:00:23Z</time></trkpt>
<trkpt lat="47.283663" lon="10.634812"><ele>1735.0</ele><time>2017-03-04T18:00:23Z</time></trkpt>
<trkpt lat="47.283955" lon="10.636111"><ele>1760.0</ele><time>2017-03-04T18:00:28Z</time></trkpt>
<trkpt lat="47.284004" lon="10.636609"><ele>1760.0</ele><time>2017-03-04T18:00:30Z</time></trkpt>
<trkpt lat="47.284055" lon="10.636788"><ele>1770.0</ele><time>2017-03-04T18:00:30Z</time></trkpt>
<trkpt lat="47.284445" lon="10.637776"><ele>1763.0</ele><time>2017-03-04T18:00:34Z</time></trkpt>
<trkpt lat="47.284483" lon="10.637968"><ele>1763.0</ele><time>2017-03-04T18:00:35Z</time></trkpt>
<trkpt lat="47.284491" lon="10.638183"><ele>1763.0</ele><time>2017-03-04T18:00:36Z</time></trkpt>
<trkpt lat="47.284432" lon="10.638662"><ele>1782.0</ele><time>2017-03-04T18:00:38Z</time></trkpt>
<trkpt lat="47.284466" lon="10.638911"><ele>1782.0</ele><time>2017-03-04T18:00:38Z</time></trkpt>
<trkpt lat="47.284507" lon="10.639"><ele>1782.0</ele><time>2017-03-04T18:00:39Z</time></trkpt>
<trkpt lat="47.284613" lon="10.639123"><ele>1782.0</ele><time>2017-03-04T18:00:39Z</time></trkpt>
<trkpt lat="47.28493" lon="10.639247"><ele>1796.0</ele><time>2017-03-04T18:00:41Z</time></trkpt>
<trkpt lat="47.284999" lon="10.639311"><ele>1796.0</ele><time>2017-03-04T18:00:42Z</time></trkpt>
<trkpt lat="47.285397" lon="10.639803"><ele>1771.0</ele><time>2017-03-04T18:00:44Z</time></trkpt>
<trkpt lat="47.285456" lon="10.63995"><ele>1771.0</ele><time>2017-03-04T18:00:45Z</time></trkpt>
<trkpt lat="47.28551" lon="10.64043"><ele>1787.0</ele><time>2017-03-04T18:00:47Z</time></trkpt>
<trkpt lat="47.285557" lon="10.640711"><ele>1787.0</ele><time>2017-03-04T18:00:48Z</time></trkpt>
<trkpt lat="47.285582" lon="10.640776"><ele>1787.0</ele><time>2017-03-04T18:00:48Z</time></trkpt>
<trkpt lat="47.285757" lon="10.640962"><ele>1802.0</ele><time>2017-03-04T18:00:49Z</time></trkpt>
<trkpt lat="47.285834" lon="10.641166"><ele>1783.0</ele><time>2017-03-04T18:00:50Z</time></trkpt>
<trkpt lat="47.285899" lon="10.641489"><ele>1783.0</ele><time>2017-03-04T18:00:52Z</time></trkpt>
<trkpt lat="47.285922" lon="10.64169"><ele>1791.0</ele><time>2017-03-04T18:00:52Z</time></trkpt>
<trkpt lat="47.286028" lon="10.642204"><ele>1791.0</ele><time>2017-03-04T18:00:54Z</time></trkpt>
<trkpt lat="47.286113" lon="10.642811"><ele>1800.0</ele><time>2017-03-04T18:00:56Z</time></trkpt>
<trkpt lat="47.286398" lon="10.643581"><ele>1813.0</ele><time>2017-03-04T18:00:59Z</time></trkpt>
<trkpt lat="47.286505" lon="10.644048"><ele>1813.0</ele><time>2017-03-04T18:01:01Z</time></trkpt>
<trkpt lat="47.286584" lon="10.644643"><ele>1821.0</ele><time>2017-03-04T18:01:03Z</time></trkpt>
<trkpt lat="47.286585" lon="10.64501"><ele>1836.0</ele><time>2017-03-04T18:01:05Z</time></trkpt>
<trkpt lat="47.286512" lon="10.647453"><ele>1841.0</ele><time>2017-03-04T18:01:13Z</time></trkpt>
<trkpt lat="47.286509" lon="10.647666"><ele>1845.0</ele><time>2017-03-04T18:01:14Z</time></trkpt>
<trkpt lat="47.286527" lon="10.647882"><ele>1845.0</ele><time>2017-03-04T18:01:14Z</time></trkpt>
<trkpt lat="47.286817" lon="10.648539"><ele>1846.0</ele><time>2017-03-04T18:01:17Z</time></trkpt>
<trkpt lat="47.286889" lon="10.648748"><ele>1846.0</ele><time>2017-03-04T18:01:18Z</time></trkpt>
<trkpt lat="47.287062" lon="10.649388"><ele>1855.0</ele><time>2017-03-04T18:01:20Z</time></trkpt>
<trkpt lat="47.287126" lon="10.64973"><ele>1855.0</ele><time>2017-03-04T18:01:21Z</time></trkpt>
<trkpt lat="47.287209" lon="10.651737"><ele>1881.0</ele><time>2017-03-04T18:01:28Z</time></trkpt>
<trkpt lat="47.287208" lon="10.652868"><ele>1886.0</ele><time>2017-03-04T18:01:32Z</time></trkpt>
<trkpt lat="47.287166" lon="10.653866"><ele>1888.0</ele><time>2017-03-04T18:01:36Z</time></trkpt>
<trkpt lat="47.287161" lon="10.654745"><ele>1887.0</ele><time>2017-03-04T18:01:39Z</time></trkpt>
<trkpt lat="47.287214" lon="10.655044"><ele>1887.0</ele><time>2017-03-04T18:01:40Z</time></trkpt>
<trkpt lat="47.287377" lon="10.655575"><ele>1887.0</ele><time>2017-03-04T18:01:42Z</time></trkpt>
<trkpt lat="47.287391" lon="10.65579"><ele>1887.0</ele><time>2017-03-04T18:01:42Z</time></trkpt>
<trkpt lat="47.287342" lon="10.656409"><ele>1889.0</ele><time>2017-03-04T18:01:44Z</time></trkpt>
<trkpt lat="47.287331" lon="10.656717"><ele>1889.0</ele><time>2017-03-04T18:01:45Z</time></trkpt>
<trkpt lat="47.287375" lon="10.657508"><ele>1884.0</ele><time>2017-03-04T18:01:48Z</time></trkpt>
<trkpt lat="47.287364" lon="10.657836"><ele>1884.0</ele><time>2017-03-04T18:01:49Z</time></trkpt>
<trkpt lat="47.287337" lon="10.658093"><ele>1884.0</ele><time>2017-03-04T18:01:50Z</time></trkpt>
<trkpt lat="47.287259" lon="10.65858"><ele>1880.0</ele><time>2017-03-04T18:01:52Z</time></trkpt>
<trkpt lat="47.287237" lon="10.658771"><ele>1880.0</ele><time>2017-03-04T18:01:53Z</time></trkpt>
<trkpt lat="47.287239" lon="10.658932"><ele>1880.0</ele><time>2017-03-04T18:01:53Z</time></trkpt>
<trkpt lat="47.287421" lon="10.659883"><ele>1877.0</ele><time>2017-03-04T18:01:56Z</time></trkpt>
<trkpt lat="47.287477" lon="10.660269"><ele>1874.0</ele><time>2017-03-04T18:01:58Z</time></trkpt>
<trkpt lat="47.287494" lon="10.660803"><ele>1874.0</ele><time>2017-03-04T18:02:00Z</time></trkpt>
<trkpt lat="47.287543" lon="10.661432"><ele>1859.0</ele><time>2017-03-04T18:02:02Z</time></trkpt>
<trkpt lat="47.287616" lon="10.661937"><ele>1860.0</ele><time>2017-03-04T18:02:04Z</time></trkpt>
<trkpt lat="47.287817" lon="10.662805"><ele>1859.0</ele><time>2017-03-04T18:02:07Z</time></trkpt>
<trkpt lat="47.287876" lon="10.663117"><ele>1859.0</ele><time>2017-03-04T18:02:08Z</time></trkpt>
<trkpt lat="47.287948" lon="10.663645"><ele>1855.0</ele><time>2017-03-04T18:02:10Z</time></trkpt>
<trkpt lat="47.288255" lon="10.665507"><ele>1849.0</ele><time>2017-03-04T18:02:16Z</time></trkpt>
<trkpt lat="47.288281" lon="10.665895"><ele>1847.0</ele><time>2017-03-04T18:02:17Z</time></trkpt>
<trkpt lat="47.288223" lon="10.666672"><ele>1838.0</ele><time>2017-03-04T18:02:20Z</time></trkpt>
<trkpt lat="47.288197" lon="10.666855"><ele>1838.0</ele><time>2017-03-04T18:02:21Z</time></trkpt>
<trkpt lat="47.288087" lon="10.667078"><ele>1838.0</ele><time>2017-03-04T18:02:22Z</time></trkpt>
<trkpt lat="47.287928" lon="10.667247"><ele>1838.0</ele><time>2017-03-04T18:02:23Z</time></trkpt>
<trkpt lat="47.287821" lon="10.66741"><ele>1838.0</ele><time>2017-03-04T18:02:23Z</time></trkpt>
<trkpt lat="47.287548" lon="10.668047"><ele>1817.0</ele><time>2017-03-04T18:02:26Z</time></trkpt>
<trkpt lat="47.287338" lon="10.668445"><ele>1823.0</ele><time>2017-03-04T18:02:28Z</time></trkpt>
<trkpt lat="47.287082" lon="10.668703"><ele>1823.0</ele><time>2017-03-04T18:02:30Z</time></trkpt>
<trkpt lat="47.286962" lon="10.668895"><ele>1823.0</ele><time>2017-03-04T18:02:30Z</time></trkpt>
<trkpt lat="47.286793" lon="10.669304"><ele>1807.0</ele><time>2017-03-04T18:02:32Z</time></trkpt>
<trkpt lat="47.286767" lon="10.669426"><ele>1807.0</ele><time>2017-03-04T18:02:33Z</time></trkpt>
<trkpt lat="47.286766" lon="10.669529"><ele>1807.0</ele><time>2017-03-04T18:02:33Z</time></trkpt>
<trkpt lat="47.28681" lon="10.669597"><ele>1807.0</ele><time>2017-03-04T18:02:33Z</time></trkpt>
<trkpt lat="47.286857" lon="10.669625"><ele>1807.0</ele><time>2017-03-04T18:02:34Z</time></trkpt>
<trkpt lat="47.286919" lon="10.66961"><ele>1807.0</ele><time>2017-03-04T18:02:34Z</time></trkpt>
<trkpt lat="47.287012" lon="10.669492"><ele>1807.0</ele><time>2017-03-04T18:02:34Z</time></trkpt>
<trkpt lat="47.287228" lon="10.669307"><ele>1807.0</ele><time>2017-03-04T18:02:36Z</time></trkpt>
<trkpt lat="47.287548" lon="10.669227"><ele>1789.0</ele><time>2017-03-04T18:02:38Z</time></trkpt>
<trkpt lat="47.287708" lon="10.669228"><ele>1789.0</ele><time>2017-03-04T18:02:38Z</time></trkpt>
<trkpt lat="47.287793" lon="10.669276"><ele>1789.0</ele><time>2017-03-04T18:02:39Z</time></trkpt>
<trkpt lat="47.287893" lon="10.669366"><ele>1789.0</ele><time>2017-03-04T18:02:39Z</time></trkpt>
<trkpt lat="47.288013" lon="10.669529"><ele>1789.0</ele><time>2017-03-04T18:02:40Z</time></trkpt>
<trkpt lat="47.288127" lon="10.669749"><ele>1789.0</ele><time>2017-03-04T18:02:41Z</time></trkpt>
<trkpt lat="47.288175" lon="10.669949"><ele>1789.0</ele><time>2017-03-04T18:02:42Z</time></trkpt>
<trkpt lat="47.288152" lon="10.67029"><ele>1782.0</ele><time>2017-03-04T18:02:43Z</time></trkpt>
<trkpt lat="47.288121" lon="10.670471"><ele>1782.0</ele><time>2017-03-04T18:02:44Z</time></trkpt>
<trkpt lat="47.288052" lon="10.670716"><ele>1782.0</ele><time>2017-03-04T18:02:45Z</time></trkpt>
<trkpt lat="47.287966" lon="10.670922"><ele>1769.0</ele><time>2017-03-04T18:02:46Z</time></trkpt>
<trkpt lat="47.287894" lon="10.671041"><ele>1769.0</ele><time>2017-03-04T18:02:46Z</time></trkpt>
<trkpt lat="47.287549" lon="10.671426"><ele>1769.0</ele><time>2017-03-04T18:02:48Z</time></trkpt>
<trkpt lat="47.287515" lon="10.671562"><ele>1769.0</ele><time>2017-03-04T18:02:49Z</time></trkpt>
<trkpt lat="47.28752" lon="10.67183"><ele>1762.0</ele><time>2017-03-04T18:02:50Z</time></trkpt>
<trkpt lat="47.287595" lon="10.67237"><ele>1762.0</ele><time>2017-03-04T18:02:52Z</time></trkpt>
<trkpt lat="47.287586" lon="10.672546"><ele>1749.0</ele><time>2017-03-04T18:02:52Z</time></trkpt>
<trkpt lat="47.287557" lon="10.672681"><ele>1749.0</ele><time>2017-03-04T18:02:53Z</time></trkpt>
<trkpt lat="47.287387" lon="10.673089"><ele>1772.0</ele><time>2017-03-04T18:02:55Z</time></trkpt>
<trkpt lat="47.287359" lon="10.673289"><ele>1772.0</ele><time>2017-03-04T18:02:56Z</time></trkpt>
<trkpt lat="47.287396" lon="10.673856"><ele>1749.0</ele><time>2017-03-04T18:02:58Z</time></trkpt>
<trkpt lat="47.287398" lon="10.674117"><ele>1749.0</ele><time>2017-03-04T18:02:59Z</time></trkpt>
<trkpt lat="47.287337" lon="10.676293"><ele>1734.0</ele><time>2017-03-04T18:03:06Z</time></trkpt>
<trkpt lat="47.287338" lon="10.677526"><ele>1719.0</ele><time>2017-03-04T18:03:10Z</time></trkpt>
<trkpt lat="47.287372" lon="10.677726"><ele>1719.0</ele><time>2017-03-04T18:03:11Z</time></trkpt>
<trkpt lat="47.287601" lon="10.678471"><ele>1696.0</ele><time>2017-03-04T18:03:14Z</time></trkpt>
<trkpt lat="47.287767" lon="10.67888"><ele>1696.0</ele><time>2017-03-04T18:03:16Z</time></trkpt>
<trkpt lat="47.287985" lon="10.679213"><ele>1701.0</ele><time>2017-03-04T18:03:17Z</time></trkpt>
<trkpt lat="47.28807" lon="10.679386"><ele>1701.0</ele><time>2017-03-04T18:03:18Z</time></trkpt>
<trkpt lat="47.288108" lon="10.679558"><ele>1701.0</ele><time>2017-03-04T18:03:18Z</time></trkpt>
<trkpt lat="47.288094" lon="10.680173"><ele>1694.0</ele><time>2017-03-04T18:03:21Z</time></trkpt>
<trkpt lat="47.288105" lon="10.680317"><ele>1694.0</ele><time>2017-03-04T18:03:21Z</time></trkpt>
<trkpt lat="47.288167" lon="10.680477"><ele>1694.0</ele><time>2017-03-04T18:03:22Z</time></trkpt>
<trkpt lat="47.288265" lon="10.680622"><ele>1694.0</ele><time>2017-03-04T18:03:22Z</time></trkpt>
<trkpt lat="47.288698" lon="10.681006"><ele>1687.0</ele><time>2017-03-04T18:03:25Z</time></trkpt>
<trkpt lat="47.288853" lon="10.681194"><ele>1687.0</ele><time>2017-03-04T18:03:26Z</time></trkpt>
<trkpt lat="47.288951" lon="10.681344"><ele>1687.0</ele><time>2017-03-04T18:03:27Z</time></trkpt>
<trkpt lat="47.289108" lon="10.681769"><ele>1685.0</ele><time>2017-03-04T18:03:28Z</time></trkpt>
<trkpt lat="47.28921" lon="10.682268"><ele>1689.0</ele><time>2017-03-04T18:03:30Z</time></trkpt>
<trkpt lat="47.289221" lon="10.682502"><ele>1678.0</ele><time>2017-03-04T18:03:31Z</time></trkpt>
<trkpt lat="47.289127" lon="10.683248"><ele>1685.0</ele><time>2017-03-04T18:03:34Z</time></trkpt>
<trkpt lat="47.289119" lon="10.683509"><ele>1678.0</ele><time>2017-03-04T18:03:35Z</time></trkpt>
<trkpt lat="47.28913" lon="10.683723"><ele>1678.0</ele><time>2017-03-04T18:03:35Z</time></trkpt>
<trkpt lat="47.289306" lon="10.685654"><ele>1635.0</ele><time>2017-03-04T18:03:42Z</time></trkpt>
<trkpt lat="47.289397" lon="10.68643"><ele>1630.0</ele><time>2017-03-04T18:03:45Z</time></trkpt>
<trkpt lat="47.28944" lon="10.68668"><ele>1626.0</ele><time>2017-03-04T18:03:46Z</time></trkpt>
<trkpt lat="47.2896" lon="10.687294"><ele>1626.0</ele><time>2017-03-04T18:03:48Z</time></trkpt>
<trkpt lat="47.289644" lon="10.687626"><ele>1628.0</ele><time>2017-03-04T18:03:49Z</time></trkpt>
<trkpt lat="47.289698" lon="10.68826"><ele>1628.0</ele><time>2017-03-04T18:03:51Z</time></trkpt>
<trkpt lat="47.289827" lon="10.688964"><ele>1631.0</ele><time>2017-03-04T18:03:54Z</time></trkpt>
<trkpt lat="47.289828" lon="10.689174"><ele>1624.0</ele><time>2017-03-04T18:03:55Z</time></trkpt>
<trkpt lat="47.289775" lon="10.68969"><ele>1624.0</ele><time>2017-03-04T18:03:56Z</time></trkpt>
<trkpt lat="47.289768" lon="10.689944"><ele>1624.0</ele><time>2017-03-04T18:03:57Z</time></trkpt>
<trkpt lat="47.289778" lon="10.690157"><ele>1626.0</ele><time>2017-03-04T18:03:58Z</time></trkpt>
<trkpt lat="47.289859" lon="10.690951"><ele>1610.0</ele><time>2017-03-04T18:04:01Z</time></trkpt>
<trkpt lat="47.289806" lon="10.691541"><ele>1610.0</ele><time>2017-03-04T18:04:03Z</time></trkpt>
<trkpt lat="47.289732" lon="10.692075"><ele>1600.0</ele><time>2017-03-04T18:04:05Z</time></trkpt>
<trkpt lat="47.289679" lon="10.69234"><ele>1600.0</ele><time>2017-03-04T18:04:06Z</time></trkpt>
<trkpt lat="47.289588" lon="10.692679"><ele>1583.0</ele><time>2017-03-04T18:04:07Z</time></trkpt>
<trkpt lat="47.289345" lon="10.69341"><ele>1575.0</ele><time>2017-03-04T18:04:10Z</time></trkpt>
<trkpt lat="47.289254" lon="10.693745"><ele>1575.0</ele><time>2017-03-04T18:04:11Z</time></trkpt>
<trkpt lat="47.289206" lon="10.694187"><ele>1568.0</ele><time>2017-03-04T18:04:13Z</time></trkpt>
<trkpt lat="47.289224" lon="10.69527"><ele>1571.0</ele><time>2017-03-04T18:04:16Z</time></trkpt>
<trkpt lat="47.289194" lon="10.695636"><ele>1571.0</ele><time>2017-03-04T18:04:18Z</time></trkpt>
<trkpt lat="47.289117" lon="10.696103"><ele>1595.0</ele><time>2017-03-04T18:04:20Z</time></trkpt>
<trkpt lat="47.288998" lon="10.696465"><ele>1595.0</ele><time>2017-03-04T18:04:21Z</time></trkpt>
<trkpt lat="47.288918" lon="10.696647"><ele>1595.0</ele><time>2017-03-04T18:04:22Z</time></trkpt>
<trkpt lat="47.288753" lon="10.696949"><ele>1582.0</ele><time>2017-03-04T18:04:23Z</time></trkpt>
<trkpt lat="47.288478" lon="10.697332"><ele>1582.0</ele><time>2017-03-04T18:04:25Z</time></trkpt>
<trkpt lat="47.287815" lon="10.698134"><ele>1598.0</ele><time>2017-03-04T18:04:29Z</time></trkpt>
<trkpt lat="47.287291" lon="10.698525"><ele>1598.0</ele><time>2017-03-04T18:04:32Z</time></trkpt>
<trkpt lat="47.286734" lon="10.698823"><ele>1598.0</ele><time>2017-03-04T18:04:35Z</time></trkpt>
<trkpt lat="47.286571" lon="10.698968"><ele>1635.0</ele><time>2017-03-04T18:04:37Z</time></trkpt>
<trkpt lat="47.286481" lon="10.699237"><ele>1591.0</ele><time>2017-03-04T18:04:39Z</time></trkpt>
<trkpt lat="47.286424" lon="10.699341"><ele>1591.0</ele><time>2017-03-04T18:04:40Z</time></trkpt>
<trkpt lat="47.286236" lon="10.699516"><ele>1591.0</ele><time>2017-03-04T18:04:41Z</time></trkpt>
<trkpt lat="47.28617" lon="10.699612"><ele>1591.0</ele><time>2017-03-04T18:04:41Z</time></trkpt>
<trkpt lat="47.286085" lon="10.699912"><ele>1591.0</ele><time>2017-03-04T18:04:42Z</time></trkpt>
<trkpt lat="47.285956" lon="10.700186"><ele>1558.0</ele><time>2017-03-04T18:04:44Z</time></trkpt>
<trkpt lat="47.285875" lon="10.700301"><ele>1558.0</ele><time>2017-03-04T18:04:45Z</time></trkpt>
<trkpt lat="47.28562" lon="10.700518"><ele>1612.0</ele><time>2017-03-04T18:04:48Z</time></trkpt>
<trkpt lat="47.285581" lon="10.700584"><ele>1612.0</ele><time>2017-03-04T18:04:48Z</time></trkpt>
<trkpt lat="47.285489" lon="10.700857"><ele>1574.0</ele><time>2017-03-04T18:04:50Z</time></trkpt>
<trkpt lat="47.285026" lon="10.701414"><ele>1574.0</ele><time>2017-03-04T18:04:53Z</time></trkpt>
<trkpt lat="47.284919" lon="10.701596"><ele>1639.0</ele><time>2017-03-04T18:04:56Z</time></trkpt>
<trkpt lat="47.284618" lon="10.702329"><ele>1592.0</ele><time>2017-03-04T18:05:00Z</time></trkpt>
<trkpt lat="47.284532" lon="10.70242"><ele>1592.0</ele><time>2017-03-04T18:05:00Z</time></trkpt>
<trkpt lat="47.284202" lon="10.702507"><ele>1553.0</ele><time>2017-03-04T18:05:03Z</time></trkpt>
<trkpt lat="47.28416" lon="10.70261"><ele>1608.0</ele><time>2017-03-04T18:05:05Z</time></trkpt>
<trkpt lat="47.284256" lon="10.703067"><ele>1553.0</ele><time>2017-03-04T18:05:08Z</time></trkpt>
<trkpt lat="47.284278" lon="10.703255"><ele>1553.0</ele><time>2017-03-04T18:05:09Z</time></trkpt>
<trkpt lat="47.28423" lon="10.703456"><ele>1522.0</ele><time>2017-03-04T18:05:10Z</time></trkpt>
<trkpt lat="47.284144" lon="10.703629"><ele>1579.0</ele><time>2017-03-04T18:05:13Z</time></trkpt>
<trkpt lat="47.284046" lon="10.70377"><ele>1579.0</ele><time>2017-03-04T18:05:14Z</time></trkpt>
<trkpt lat="47.283901" lon="10.703911"><ele>1579.0</ele><time>2017-03-04T18:05:15Z</time></trkpt>
<trkpt lat="47.283792" lon="10.704622"><ele>1555.0</ele><time>2017-03-04T18:05:17Z</time></trkpt>
<trkpt lat="47.283716" lon="10.704905"><ele>1555.0</ele><time>2017-03-04T18:05:18Z</time></trkpt>
<trkpt lat="47.2836" lon="10.705231"><ele>1518.0</ele><time>2017-03-04T18:05:20Z</time></trkpt>
<trkpt lat="47.283547" lon="10.705664"><ele>1518.0</ele><time>2017-03-04T18:05:22Z</time></trkpt>
<trkpt lat="47.283505" lon="10.7058"><ele>1518.0</ele><time>2017-03-04T18:05:22Z</time></trkpt>
<trkpt lat="47.283436" lon="10.705907"><ele>1489.0</ele><time>2017-03-04T18:05:24Z</time></trkpt>
<trkpt lat="47.28331" lon="10.706031"><ele>1562.0</ele><time>2017-03-04T18:05:27Z</time></trkpt>
<trkpt lat="47.283274" lon="10.706106"><ele>1562.0</ele><time>2017-03-04T18:05:27Z</time></trkpt>
<trkpt lat="47.283172" lon="10.706699"><ele>1535.0</ele><time>2017-03-04T18:05:30Z</time></trkpt>
<trkpt lat="47.283101" lon="10.70688"><ele>1535.0</ele><time>2017-03-04T18:05:31Z</time></trkpt>
<trkpt lat="47.283044" lon="10.706973"><ele>1535.0</ele><time>2017-03-04T18:05:31Z</time></trkpt>
<trkpt lat="47.282965" lon="10.707015"><ele>1535.0</ele><time>2017-03-04T18:05:31Z</time></trkpt>
<trkpt lat="47.282898" lon="10.706998"><ele>1535.0</ele><time>2017-03-04T18:05:32Z</time></trkpt>
<trkpt lat="47.282542" lon="10.706767"><ele>1535.0</ele><time>2017-03-04T18:05:34Z</time></trkpt>
<trkpt lat="47.282445" lon="10.706755"><ele>1555.0</ele><time>2017-03-04T18:05:35Z</time></trkpt>
<trkpt lat="47.282353" lon="10.706782"><ele>1555.0</ele><time>2017-03-04T18:05:35Z</time></trkpt>
<trkpt lat="47.282261" lon="10.70683"><ele>1555.0</ele><time>2017-03-04T18:05:36Z</time></trkpt>
<trkpt lat="47.281906" lon="10.707133"><ele>1555.0</ele><time>2017-03-04T18:05:38Z</time></trkpt>
<trkpt lat="47.281718" lon="10.70726"><ele>1555.0</ele><time>2017-03-04T18:05:39Z</time></trkpt>
<trkpt lat="47.280994" lon="10.70763"><ele>1528.0</ele><time>2017-03-04T18:05:43Z</time></trkpt>
<trkpt lat="47.28088" lon="10.707727"><ele>1528.0</ele><time>2017-03-04T18:05:43Z</time></trkpt>
<trkpt lat="47.280796" lon="10.707913"><ele>1545.0</ele><time>2017-03-04T18:05:45Z</time></trkpt>
<trkpt lat="47.280484" lon="10.70975"><ele>1501.0</ele><time>2017-03-04T18:05:51Z</time></trkpt>
<trkpt lat="47.280503" lon="10.709942"><ele>1501.0</ele><time>2017-03-04T18:05:52Z</time></trkpt>
<trkpt lat="47.280639" lon="10.710186"><ele>1503.0</ele><time>2017-03-04T18:05:53Z</time></trkpt>
<trkpt lat="47.280856" lon="10.710771"><ele>1446.0</ele><time>2017-03-04T18:05:56Z</time></trkpt>
<trkpt lat="47.281055" lon="10.711518"><ele>1426.0</ele><time>2017-03-04T18:05:59Z</time></trkpt>
<trkpt lat="47.281091" lon="10.71176"><ele>1434.0</ele><time>2017-03-04T18:06:00Z</time></trkpt>
<trkpt lat="47.281084" lon="10.712057"><ele>1434.0</ele><time>2017-03-04T18:06:01Z</time></trkpt>
<trkpt lat="47.281223" lon="10.712443"><ele>1434.0</ele><time>2017-03-04T18:06:03Z</time></trkpt>
<trkpt lat="47.281299" lon="10.712956"><ele>1451.0</ele><time>2017-03-04T18:06:05Z</time></trkpt>
<trkpt lat="47.281318" lon="10.713315"><ele>1451.0</ele><time>2017-03-04T18:06:06Z</time></trkpt>
<trkpt lat="47.281289" lon="10.713822"><ele>1483.0</ele><time>2017-03-04T18:06:08Z</time></trkpt>
<trkpt lat="47.281204" lon="10.714218"><ele>1453.0</ele><time>2017-03-04T18:06:10Z</time></trkpt>
<trkpt lat="47.281176" lon="10.714959"><ele>1453.0</ele><time>2017-03-04T18:06:13Z</time></trkpt>
<trkpt lat="47.28111" lon="10.715438"><ele>1446.0</ele><time>2017-03-04T18:06:14Z</time></trkpt>
<trkpt lat="47.28088" lon="10.716528"><ele>1434.0</ele><time>2017-03-04T18:06:18Z</time></trkpt>
<trkpt lat="47.280835" lon="10.716621"><ele>1434.0</ele><time>2017-03-04T18:06:19Z</time></trkpt>
<trkpt lat="47.280558" lon="10.716734"><ele>1464.0</ele><time>2017-03-04T18:06:21Z</time></trkpt>
<trkpt lat="47.280523" lon="10.716781"><ele>1464.0</ele><time>2017-03-04T18:06:21Z</time></trkpt>
<trkpt lat="47.280499" lon="10.71687"><ele>1464.0</ele><time>2017-03-04T18:06:21Z</time></trkpt>
<trkpt lat="47.280504" lon="10.717031"><ele>1464.0</ele><time>2017-03-04T18:06:22Z</time></trkpt>
<trkpt lat="47.280558" lon="10.717123"><ele>1464.0</ele><time>2017-03-04T18:06:22Z</time></trkpt>
<trkpt lat="47.28093" lon="10.717542"><ele>1407.0</ele><time>2017-03-04T18:06:26Z</time></trkpt>
<trkpt lat="47.281034" lon="10.717721"><ele>1407.0</ele><time>2017-03-04T18:06:26Z</time></trkpt>
<trkpt lat="47.281066" lon="10.718001"><ele>1407.0</ele><time>2017-03-04T18:06:27Z</time></trkpt>
<trkpt lat="47.280998" lon="10.718536"><ele>1401.0</ele><time>2017-03-04T18:06:29Z</time></trkpt>
<trkpt lat="47.281021" lon="10.718729"><ele>1401.0</ele><time>2017-03-04T18:06:30Z</time></trkpt>
<trkpt lat="47.281091" lon="10.718938"><ele>1401.0</ele><time>2017-03-04T18:06:31Z</time></trkpt>
<trkpt lat="47.281118" lon="10.719097"><ele>1401.0</ele><time>2017-03-04T18:06:31Z</time></trkpt>
<trkpt lat="47.281092" lon="10.719191"><ele>1415.0</ele><time>2017-03-04T18:06:32Z</time></trkpt>
<trkpt lat="47.281075" lon="10.719591"><ele>1415.0</ele><time>2017-03-04T18:06:33Z</time></trkpt>
<trkpt lat="47.281041" lon="10.71986"><ele>1415.0</ele><time>2017-03-04T18:06:34Z</time></trkpt>
<trkpt lat="47.280922" lon="10.720512"><ele>1389.0</ele><time>2017-03-04T18:06:37Z</time></trkpt>
<trkpt lat="47.280779" lon="10.721085"><ele>1435.0</ele><time>2017-03-04T18:06:40Z</time></trkpt>
<trkpt lat="47.280791" lon="10.721207"><ele>1435.0</ele><time>2017-03-04T18:06:40Z</time></trkpt>
<trkpt lat="47.280895" lon="10.721411"><ele>1370.0</ele><time>2017-03-04T18:06:43Z</time></trkpt>
<trkpt lat="47.280974" lon="10.721712"><ele>1363.0</ele><time>2017-03-04T18:06:44Z</time></trkpt>
<trkpt lat="47.280978" lon="10.721987"><ele>1363.0</ele><time>2017-03-04T18:06:45Z</time></trkpt>
<trkpt lat="47.280958" lon="10.722295"><ele>1363.0</ele><time>2017-03-04T18:06:46Z</time></trkpt>
<trkpt lat="47.280978" lon="10.722417"><ele>1363.0</ele><time>2017-03-04T18:06:47Z</time></trkpt>
<trkpt lat="47.281135" lon="10.722945"><ele>1365.0</ele><time>2017-03-04T18:06:49Z</time></trkpt>
<trkpt lat="47.281231" lon="10.723461"><ele>1377.0</ele><time>2017-03-04T18:06:51Z</time></trkpt>
<trkpt lat="47.281551" lon="10.724963"><ele>1390.0</ele><time>2017-03-04T18:06:56Z</time></trkpt>
<trkpt lat="47.28172" lon="10.725533"><ele>1314.0</ele><time>2017-03-04T18:07:00Z</time></trkpt>
<trkpt lat="47.281922" lon="10.7261"><ele>1330.0</ele><time>2017-03-04T18:07:02Z</time></trkpt>
<trkpt lat="47.282168" lon="10.726602"><ele>1330.0</ele><time>2017-03-04T18:07:04Z</time></trkpt>
<trkpt lat="47.282568" lon="10.727154"><ele>1291.0</ele><time>2017-03-04T18:07:08Z</time></trkpt>
<trkpt lat="47.282621" lon="10.727269"><ele>1291.0</ele><time>2017-03-04T18:07:08Z</time></trkpt>
<trkpt lat="47.282807" lon="10.728014"><ele>1321.0</ele><time>2017-03-04T18:07:11Z</time></trkpt>
<trkpt lat="47.282943" lon="10.728319"><ele>1321.0</ele><time>2017-03-04T18:07:12Z</time></trkpt>
<trkpt lat="47.283128" lon="10.728531"><ele>1343.0</ele><time>2017-03-04T18:07:14Z</time></trkpt>
<trkpt lat="47.283277" lon="10.728735"><ele>1343.0</ele><time>2017-03-04T18:07:15Z</time></trkpt>
<trkpt lat="47.283419" lon="10.72895"><ele>1283.0</ele><time>2017-03-04T18:07:18Z</time></trkpt>
<trkpt lat="47.283523" lon="10.729179"><ele>1315.0</ele><time>2017-03-04T18:07:19Z</time></trkpt>
<trkpt lat="47.283561" lon="10.729429"><ele>1315.0</ele><time>2017-03-04T18:07:20Z</time></trkpt>
<trkpt lat="47.28357" lon="10.730064"><ele>1320.0</ele><time>2017-03-04T18:07:22Z</time></trkpt>
<trkpt lat="47.283543" lon="10.730396"><ele>1320.0</ele><time>2017-03-04T18:07:24Z</time></trkpt>
<trkpt lat="47.283471" lon="10.730843"><ele>1308.0</ele><time>2017-03-04T18:07:25Z</time></trkpt>
<trkpt lat="47.283408" lon="10.731126"><ele>1308.0</ele><time>2017-03-04T18:07:26Z</time></trkpt>
<trkpt lat="47.283006" lon="10.732131"><ele>1321.0</ele><time>2017-03-04T18:07:30Z</time></trkpt>
<trkpt lat="47.282991" lon="10.732484"><ele>1321.0</ele><time>2017-03-04T18:07:31Z</time></trkpt>
<trkpt lat="47.282959" lon="10.732772"><ele>1303.0</ele><time>2017-03-04T18:07:33Z</time></trkpt>
<trkpt lat="47.282768" lon="10.733962"><ele>1292.0</ele><time>2017-03-04T18:07:37Z</time></trkpt>
<trkpt lat="47.282715" lon="10.734133"><ele>1292.0</ele><time>2017-03-04T18:07:38Z</time></trkpt>
<trkpt lat="47.282547" lon="10.734474"><ele>1275.0</ele><time>2017-03-04T18:07:39Z</time></trkpt>
<trkpt lat="47.28249" lon="10.734639"><ele>1319.0</ele><time>2017-03-04T18:07:41Z</time></trkpt>
<trkpt lat="47.282546" lon="10.735203"><ele>1254.0</ele><time>2017-03-04T18:07:45Z</time></trkpt>
<trkpt lat="47.282539" lon="10.736041"><ele>1252.0</ele><time>2017-03-04T18:07:48Z</time></trkpt>
<trkpt lat="47.282397" lon="10.736788"><ele>1285.0</ele><time>2017-03-04T18:07:51Z</time></trkpt>
<trkpt lat="47.282286" lon="10.737619"><ele>1268.0</ele><time>2017-03-04T18:07:54Z</time></trkpt>
<trkpt lat="47.281929" lon="10.738866"><ele>1256.0</ele><time>2017-03-04T18:07:58Z</time></trkpt>
<trkpt lat="47.281817" lon="10.739138"><ele>1256.0</ele><time>2017-03-04T18:07:59Z</time></trkpt>
<trkpt lat="47.281649" lon="10.73939"><ele>1278.0</ele><time>2017-03-04T18:08:01Z</time></trkpt>
<trkpt lat="47.281322" lon="10.73965"><ele>1278.0</ele><time>2017-03-04T18:08:03Z</time></trkpt>
<trkpt lat="47.281152" lon="10.739815"><ele>1278.0</ele><time>2017-03-04T18:08:04Z</time></trkpt>
<trkpt lat="47.280642" lon="10.740479"><ele>1264.0</ele><time>2017-03-04T18:08:07Z</time></trkpt>
<trkpt lat="47.280539" lon="10.740575"><ele>1264.0</ele><time>2017-03-04T18:08:08Z</time></trkpt>
<trkpt lat="47.280394" lon="10.740614"><ele>1264.0</ele><time>2017-03-04T18:08:09Z</time></trkpt>
<trkpt lat="47.28029" lon="10.740613"><ele>1264.0</ele><time>2017-03-04T18:08:09Z</time></trkpt>
<trkpt lat="47.280154" lon="10.740574"><ele>1264.0</ele><time>2017-03-04T18:08:10Z</time></trkpt>
<trkpt lat="47.28003" lon="10.740472"><ele>1264.0</ele><time>2017-03-04T18:08:11Z</time></trkpt>
<trkpt lat="47.279348" lon="10.739637"><ele>1289.0</ele><time>2017-03-04T18:08:15Z</time></trkpt>
<trkpt lat="47.278936" lon="10.739163"><ele>1297.0</ele><time>2017-03-04T18:08:18Z</time></trkpt>
<trkpt lat="47.278784" lon="10.73903"><ele>1297.0</ele><time>2017-03-04T18:08:19Z</time></trkpt>
<trkpt lat="47.278437" lon="10.7388"><ele>1297.0</ele><time>2017-03-04T18:08:21Z</time></trkpt>
<trkpt lat="47.278265" lon="10.738662"><ele>1261.0</ele><time>2017-03-04T18:08:22Z</time></trkpt>
<trkpt lat="47.278075" lon="10.738472"><ele>1261.0</ele><time>2017-03-04T18:08:24Z</time></trkpt>
<trkpt lat="47.277984" lon="10.738484"><ele>1261.0</ele><time>2017-03-04T18:08:24Z</time></trkpt>
<trkpt lat="47.277961" lon="10.738531"><ele>1261.0</ele><time>2017-03-04T18:08:24Z</time></trkpt>
<trkpt lat="47.277962" lon="10.738589"><ele>1261.0</ele><time>2017-03-04T18:08:24Z</time></trkpt>
<trkpt lat="47.278026" lon="10.73869"><ele>1261.0</ele><time>2017-03-04T18:08:25Z</time></trkpt>
<trkpt lat="47.278351" lon="10.738954"><ele>1297.0</ele><time>2017-03-04T18:08:27Z</time></trkpt>
<trkpt lat="47.278516" lon="10.739112"><ele>1297.0</ele><time>2017-03-04T18:08:28Z</time></trkpt>
<trkpt lat="47.278718" lon="10.739363"><ele>1260.0</ele><time>2017-03-04T18:08:30Z</time></trkpt>
<trkpt lat="47.279155" lon="10.740026"><ele>1229.0</ele><time>2017-03-04T18:08:34Z</time></trkpt>
<trkpt lat="47.279493" lon="10.740697"><ele>1265.0</ele><time>2017-03-04T18:08:37Z</time></trkpt>
<trkpt lat="47.279915" lon="10.741431"><ele>1236.0</ele><time>2017-03-04T18:08:41Z</time></trkpt>
<trkpt lat="47.280031" lon="10.741666"><ele>1240.0</ele><time>2017-03-04T18:08:42Z</time></trkpt>
<trkpt lat="47.280195" lon="10.742269"><ele>1224.0</ele><time>2017-03-04T18:08:44Z</time></trkpt>
<trkpt lat="47.280411" lon="10.742703"><ele>1207.0</ele><time>2017-03-04T18:08:46Z</time></trkpt>
<trkpt lat="47.280741" lon="10.743299"><ele>1207.0</ele><time>2017-03-04T18:08:49Z</time></trkpt>
<trkpt lat="47.280834" lon="10.743432"><ele>1180.0</ele><time>2017-03-04T18:08:50Z</time></trkpt>
<trkpt lat="47.280903" lon="10.743481"><ele>1180.0</ele><time>2017-03-04T18:08:50Z</time></trkpt>
<trkpt lat="47.281018" lon="10.743509"><ele>1180.0</ele><time>2017-03-04T18:08:51Z</time></trkpt>
<trkpt lat="47.281415" lon="10.743529"><ele>1180.0</ele><time>2017-03-04T18:08:53Z</time></trkpt>
<trkpt lat="47.281552" lon="10.743514"><ele>1180.0</ele><time>2017-03-04T18:08:54Z</time></trkpt>
<trkpt lat="47.281703" lon="10.743414"><ele>1147.0</ele><time>2017-03-04T18:08:55Z</time></trkpt>
<trkpt lat="47.281871" lon="10.74318"><ele>1160.0</ele><time>2017-03-04T18:08:57Z</time></trkpt>
<trkpt lat="47.281933" lon="10.743154"><ele>1160.0</ele><time>2017-03-04T18:08:57Z</time></trkpt>
<trkpt lat="47.281972" lon="10.743161"><ele>1160.0</ele><time>2017-03-04T18:08:57Z</time></trkpt>
<trkpt lat="47.282012" lon="10.743204"><ele>1160.0</ele><time>2017-03-04T18:08:57Z</time></trkpt>
<trkpt lat="47.282029" lon="10.743312"><ele>1160.0</ele><time>2017-03-04T18:08:58Z</time></trkpt>
<trkpt lat="47.282005" lon="10.743438"><ele>1147.0</ele><time>2017-03-04T18:08:58Z</time></trkpt>
<trkpt lat="47.281796" lon="10.743883"><ele>1147.0</ele><time>2017-03-04T18:09:00Z</time></trkpt>
<trkpt lat="47.28164" lon="10.744124"><ele>1180.0</ele><time>2017-03-04T18:09:02Z</time></trkpt>
<trkpt lat="47.281545" lon="10.744213"><ele>1169.0</ele><time>2017-03-04T18:09:03Z</time></trkpt>
<trkpt lat="47.281428" lon="10.744282"><ele>1169.0</ele><time>2017-03-04T18:09:07Z</time></trkpt>
<trkpt lat="47.281428" lon="10.744282"><ele>1169.0</ele><time>2017-03-04T18:09:07Z</time></trkpt>
<trkpt lat="47.281133" lon="10.744337"><ele>1169.0</ele><time>2017-03-04T18:09:10Z</time></trkpt>
<trkpt lat="47.280848" lon="10.744291"><ele>1169.0</ele><time>2017-03-04T18:09:12Z</time></trkpt>
<trkpt lat="47.28048" lon="10.744091"><ele>1187.0</ele><time>2017-03-04T18:09:16Z</time></trkpt>
<trkpt lat="47.280296" lon="10.743931"><ele>1187.0</ele><time>2017-03-04T18:09:17Z</time></trkpt>
<trkpt lat="47.28003" lon="10.743607"><ele>1187.0</ele><time>2017-03-04T18:09:20Z</time></trkpt>
<trkpt lat="47.279087" lon="10.74277"><ele>1150.0</ele><time>2017-03-04T18:09:30Z</time></trkpt>
<trkpt lat="47.278876" lon="10.742613"><ele>1150.0</ele><time>2017-03-04T18:09:32Z</time></trkpt>
<trkpt lat="47.278287" lon="10.742243"><ele>1149.0</ele><time>2017-03-04T18:09:37Z</time></trkpt>
<trkpt lat="47.277623" lon="10.741787"><ele>1149.0</ele><time>2017-03-04T18:09:43Z</time></trkpt>
<trkpt lat="47.277467" lon="10.741723"><ele>1128.0</ele><time>2017-03-04T18:09:45Z</time></trkpt>
<trkpt lat="47.277244" lon="10.741687"><ele>1128.0</ele><time>2017-03-04T18:09:47Z</time></trkpt>
<trkpt lat="47.27716" lon="10.741694"><ele>1128.0</ele><time>2017-03-04T18:09:48Z</time></trkpt>
<trkpt lat="47.27701" lon="10.741774"><ele>1128.0</ele><time>2017-03-04T18:09:49Z</time></trkpt>
<trkpt lat="47.276903" lon="10.741852"><ele>1128.0</ele><time>2017-03-04T18:09:50Z</time></trkpt>
<trkpt lat="47.276422" lon="10.742365"><ele>1123.0</ele><time>2017-03-04T18:09:55Z</time></trkpt>
<trkpt lat="47.276191" lon="10.742562"><ele>1107.0</ele><time>2017-03-04T18:09:58Z</time></trkpt>
<trkpt lat="47.275077" lon="10.743286"><ele>1105.0</ele><time>2017-03-04T18:10:08Z</time></trkpt>
<trkpt lat="47.27493" lon="10.743353"><ele>1095.0</ele><time>2017-03-04T18:10:09Z</time></trkpt>
<trkpt lat="47.274737" lon="10.743398"><ele>1095.0</ele><time>2017-03-04T18:10:11Z</time></trkpt>
<trkpt lat="47.274539" lon="10.743388"><ele>1095.0</ele><time>2017-03-04T18:10:13Z</time></trkpt>
<trkpt lat="47.274184" lon="10.74332"><ele>1105.0</ele><time>2017-03-04T18:10:16Z</time></trkpt>
<trkpt lat="47.273693" lon="10.743176"><ele>1104.0</ele><time>2017-03-04T18:10:20Z</time></trkpt>
<trkpt lat="47.273223" lon="10.743083"><ele>1093.0</ele><time>2017-03-04T18:10:24Z</time></trkpt>
<trkpt lat="47.272041" lon="10.742948"><ele>1085.0</ele><time>2017-03-04T18:10:34Z</time></trkpt>
<trkpt lat="47.271679" lon="10.742852"><ele>1085.0</ele><time>2017-03-04T18:10:37Z</time></trkpt>
<trkpt lat="47.270636" lon="10.742441"><ele>1073.0</ele><time>2017-03-04T18:10:46Z</time></trkpt>
<trkpt lat="47.270262" lon="10.742368"><ele>1073.0</ele><time>2017-03-04T18:10:49Z</time></trkpt>
<trkpt lat="47.270006" lon="10.742264"><ele>1073.0</ele><time>2017-03-04T18:10:51Z</time></trkpt>
<trkpt lat="47.268714" lon="10.742064"><ele>1059.0</ele><time>2017-03-04T18:11:02Z</time></trkpt>
<trkpt lat="47.267902" lon="10.741961"><ele>1049.0</ele><time>2017-03-04T18:11:09Z</time></trkpt>
<trkpt lat="47.267692" lon="10.741868"><ele>1049.0</ele><time>2017-03-04T18:11:11Z</time></trkpt>
<trkpt lat="47.267478" lon="10.741827"><ele>1048.0</ele><time>2017-03-04T18:11:13Z</time></trkpt>
<trkpt lat="47.267112" lon="10.741875"><ele>1048.0</ele><time>2017-03-04T18:11:16Z</time></trkpt>
<trkpt lat="47.266834" lon="10.741882"><ele>1048.0</ele><time>2017-03-04T18:11:18Z</time></trkpt>
<trkpt lat="47.266577" lon="10.741842"><ele>1044.0</ele><time>2017-03-04T18:11:20Z</time></trkpt>
<trkpt lat="47.266371" lon="10.741729"><ele>1044.0</ele><time>2017-03-04T18:11:22Z</time></trkpt>
<trkpt lat="47.266245" lon="10.74163"><ele>1041.0</ele><time>2017-03-04T18:11:23Z</time></trkpt>
<trkpt lat="47.265767" lon="10.741002"><ele>1033.0</ele><time>2017-03-04T18:11:29Z</time></trkpt>
<trkpt lat="47.265589" lon="10.740827"><ele>1040.0</ele><time>2017-03-04T18:11:31Z</time></trkpt>
<trkpt lat="47.265369" lon="10.740716"><ele>1040.0</ele><time>2017-03-04T18:11:33Z</time></trkpt>
<trkpt lat="47.264692" lon="10.740608"><ele>1034.0</ele><time>2017-03-04T18:11:38Z</time></trkpt>
<trkpt lat="47.264397" lon="10.740521"><ele>1034.0</ele><time>2017-03-04T18:11:41Z</time></trkpt>
<trkpt lat="47.263852" lon="10.740289"><ele>1031.0</ele><time>2017-03-04T18:11:46Z</time></trkpt>
<trkpt lat="47.263176" lon="10.740116"><ele>1030.0</ele><time>2017-03-04T18:11:51Z</time></trkpt>
<trkpt lat="47.262854" lon="10.740002"><ele>1030.0</ele><time>2017-03-04T18:11:54Z</time></trkpt>
<trkpt lat="47.262288" lon="10.739629"><ele>1027.0</ele><time>2017-03-04T18:11:59Z</time></trkpt>
<trkpt lat="47.261659" lon="10.739085"><ele>1027.0</ele><time>2017-03-04T18:12:05Z</time></trkpt>
<trkpt lat="47.260922" lon="10.738541"><ele>1027.0</ele><time>2017-03-04T18:12:12Z</time></trkpt>
<trkpt lat="47.260807" lon="10.738483"><ele>1017.0</ele><time>2017-03-04T18:12:13Z</time></trkpt>
<trkpt lat="47.260561" lon="10.738402"><ele>1017.0</ele><time>2017-03-04T18:12:16Z</time></trkpt>
<trkpt lat="47.26012" lon="10.738315"><ele>1020.0</ele><time>2017-03-04T18:12:19Z</time></trkpt>
<trkpt lat="47.259726" lon="10.738279"><ele>1014.0</ele><time>2017-03-04T18:12:23Z</time></trkpt>
<trkpt lat="47.259575" lon="10.738299"><ele>1014.0</ele><time>2017-03-04T18:12:24Z</time></trkpt>
<trkpt lat="47.25936" lon="10.738427"><ele>1013.0</ele><time>2017-03-04T18:12:26Z</time></trkpt>
<trkpt lat="47.259127" lon="10.738627"><ele>1014.0</ele><time>2017-03-04T18:12:28Z</time></trkpt>
<trkpt lat="47.258983" lon="10.738719"><ele>1014.0</ele><time>2017-03-04T18:12:29Z</time></trkpt>
<trkpt lat="47.258836" lon="10.738769"><ele>1014.0</ele><time>2017-03-04T18:12:31Z</time></trkpt>
<trkpt lat="47.258703" lon="10.738781"><ele>1014.0</ele><time>2017-03-04T18:12:32Z</time></trkpt>
<trkpt lat="47.258471" lon="10.738703"><ele>1014.0</ele><time>2017-03-04T18:12:34Z</time></trkpt>
<trkpt lat="47.258048" lon="10.738499"><ele>1010.0</ele><time>2017-03-04T18:12:37Z</time></trkpt>
<trkpt lat="47.25731" lon="10.737975"><ele>1009.0</ele><time>2017-03-04T18:12:44Z</time></trkpt>
<trkpt lat="47.257044" lon="10.737834"><ele>1009.0</ele><time>2017-03-04T18:12:47Z</time></trkpt>
<trkpt lat="47.256866" lon="10.737765"><ele>1009.0</ele><time>2017-03-04T18:12:48Z</time></trkpt>
<trkpt lat="47.256602" lon="10.7377"><ele>999.0</ele><time>2017-03-04T18:12:51Z</time></trkpt>
<trkpt lat="47.256306" lon="10.737639"><ele>999.0</ele><time>2017-03-04T18:12:53Z</time></trkpt>
<trkpt lat="47.25613" lon="10.737625"><ele>999.0</ele><time>2017-03-04T18:12:54Z</time></trkpt>
<trkpt lat="47.255938" lon="10.737645"><ele>999.0</ele><time>2017-03-04T18:12:56Z</time></trkpt>
<trkpt lat="47.255816" lon="10.737681"><ele>990.0</ele><time>2017-03-04T18:12:57Z</time></trkpt>
<trkpt lat="47.255607" lon="10.737853"><ele>990.0</ele><time>2017-03-04T18:12:59Z</time></trkpt>
<trkpt lat="47.255469" lon="10.738025"><ele>990.0</ele><time>2017-03-04T18:13:01Z</time></trkpt>
<trkpt lat="47.255273" lon="10.738481"><ele>984.0</ele><time>2017-03-04T18:13:04Z</time></trkpt>
<trkpt lat="47.2552" lon="10.738726"><ele>984.0</ele><time>2017-03-04T18:13:05Z</time></trkpt>
<trkpt lat="47.255191" lon="10.738871"><ele>984.0</ele><time>2017-03-04T18:13:06Z</time></trkpt>
<trkpt lat="47.255223" lon="10.739221"><ele>988.0</ele><time>2017-03-04T18:13:08Z</time></trkpt>
<trkpt lat="47.255466" lon="10.74045"><ele>984.0</ele><time>2017-03-04T18:13:16Z</time></trkpt>
<trkpt lat="47.255501" lon="10.740779"><ele>984.0</ele><time>2017-03-04T18:13:17Z</time></trkpt>
<trkpt lat="47.255528" lon="10.741479"><ele>976.0</ele><time>2017-03-04T18:13:21Z</time></trkpt>
<trkpt lat="47.25562" lon="10.741813"><ele>964.0</ele><time>2017-03-04T18:13:24Z</time></trkpt>
<trkpt lat="47.255788" lon="10.742125"><ele>964.0</ele><time>2017-03-04T18:13:26Z</time></trkpt>
<trkpt lat="47.255798" lon="10.742183"><ele>964.0</ele><time>2017-03-04T18:13:26Z</time></trkpt>
<trkpt lat="47.255789" lon="10.742245"><ele>964.0</ele><time>2017-03-04T18:13:27Z</time></trkpt>
<trkpt lat="47.255752" lon="10.7423"><ele>964.0</ele><time>2017-03-04T18:13:27Z</time></trkpt>
<trkpt lat="47.255664" lon="10.742313"><ele>964.0</ele><time>2017-03-04T18:13:28Z</time></trkpt>
<trkpt lat="47.255611" lon="10.742279"><ele>964.0</ele><time>2017-03-04T18:13:28Z</time></trkpt>
<trkpt lat="47.25539" lon="10.741855"><ele>964.0</ele><time>2017-03-04T18:13:31Z</time></trkpt>
<trkpt lat="47.254769" lon="10.740788"><ele>954.0</ele><time>2017-03-04T18:13:39Z</time></trkpt>
<trkpt lat="47.253836" lon="10.739048"><ele>942.0</ele><time>2017-03-04T18:13:52Z</time></trkpt>
<trkpt lat="47.253798" lon="10.738967"><ele>942.0</ele><time>2017-03-04T18:13:54Z</time></trkpt>
<trkpt lat="47.253782" lon="10.73904"><ele>942.0</ele><time>2017-03-04T18:13:55Z</time></trkpt>
<trkpt lat="47.253818" lon="10.739393"><ele>936.0</ele><time>2017-03-04T18:14:01Z</time></trkpt>
<trkpt lat="47.253723" lon="10.739293"><ele>936.0</ele><time>2017-03-04T18:14:04Z</time></trkpt>
<trkpt lat="47.253548" lon="10.739316"><ele>936.0</ele><time>2017-03-04T18:14:08Z</time></trkpt>
<trkpt lat="47.253452" lon="10.739329"><ele>936.0</ele><time>2017-03-04T18:14:11Z</time></trkpt>
<trkpt lat="47.253063" lon="10.739823"><ele>911.0</ele><time>2017-03-04T18:14:22Z</time></trkpt>
<trkpt lat="47.252748" lon="10.740141"><ele>903.0</ele><time>2017-03-04T18:14:30Z</time></trkpt>
<trkpt lat="47.252169" lon="10.74065"><ele>898.0</ele><time>2017-03-04T18:14:43Z</time></trkpt>
<trkpt lat="47.251977" lon="10.740796"><ele>898.0</ele><time>2017-03-04T18:14:47Z</time></trkpt>
<trkpt lat="47.251571" lon="10.740951"><ele>879.0</ele><time>2017-03-04T18:14:56Z</time></trkpt>
<trkpt lat="47.251149" lon="10.740996"><ele>879.0</ele><time>2017-03-04T18:15:05Z</time></trkpt>
<trkpt lat="47.250909" lon="10.74099"><ele>879.0</ele><time>2017-03-04T18:15:09Z</time></trkpt>
<trkpt lat="47.25027" lon="10.740802"><ele>879.0</ele><time>2017-03-04T18:15:22Z</time></trkpt>
<trkpt lat="47.250091" lon="10.740769"><ele>879.0</ele><time>2017-03-04T18:15:26Z</time></trkpt>
<trkpt lat="47.249759" lon="10.740753"><ele>867.0</ele><time>2017-03-04T18:15:33Z</time></trkpt>
<trkpt lat="47.249604" lon="10.740786"><ele>867.0</ele><time>2017-03-04T18:15:36Z</time></trkpt>
<trkpt lat="47.248691" lon="10.741151"><ele>857.0</ele><time>2017-03-04T18:15:55Z</time></trkpt>
<trkpt lat="47.248487" lon="10.741168"><ele>857.0</ele><time>2017-03-04T18:15:59Z</time></trkpt>
<trkpt lat="47.248334" lon="10.741137"><ele>857.0</ele><time>2017-03-04T18:16:02Z</time></trkpt>
<trkpt lat="47.248131" lon="10.741048"><ele>845.0</ele><time>2017-03-04T18:16:06Z</time></trkpt>
<trkpt lat="47.248002" lon="10.74102"><ele>845.0</ele><time>2017-03-04T18:16:09Z</time></trkpt>
<trkpt lat="47.247908" lon="10.741024"><ele>845.0</ele><time>2017-03-04T18:16:11Z</time></trkpt>
<trkpt lat="47.24725" lon="10.741313"><ele>848.0</ele><time>2017-03-04T18:16:24Z</time></trkpt>
<trkpt lat="47.24702" lon="10.741296"><ele>848.0</ele><time>2017-03-04T18:16:29Z</time></trkpt>
<trkpt lat="47.246817" lon="10.741169"><ele>848.0</ele><time>2017-03-04T18:16:33Z</time></trkpt>
<trkpt lat="47.246703" lon="10.741067"><ele>848.0</ele><time>2017-03-04T18:16:36Z</time></trkpt>
<trkpt lat="47.24659" lon="10.740898"><ele>833.0</ele><time>2017-03-04T18:16:40Z</time></trkpt>
<trkpt lat="47.246549" lon="10.740886"><ele>833.0</ele><time>2017-03-04T18:16:41Z</time></trkpt>
<trkpt lat="47.246511" lon="10.740898"><ele>833.0</ele><time>2017-03-04T18:16:42Z</time></trkpt>
<trkpt lat="47.246208" lon="10.741306"><ele>833.0</ele><time>2017-03-04T18:16:50Z</time></trkpt>
<trkpt lat="47.246128" lon="10.741417"><ele>833.0</ele><time>2017-03-04T18:16:53Z</time></trkpt>
<trkpt lat="47.245841" lon="10.741093"><ele>833.0</ele><time>2017-03-04T18:16:55Z</time></trkpt>
<trkpt lat="47.245683" lon="10.740829"><ele>830.0</ele><time>2017-03-04T18:16:57Z</time></trkpt>
<trkpt lat="47.245404" lon="10.740481"><ele>830.0</ele><time>2017-03-04T18:16:59Z</time></trkpt>
<trkpt lat="47.245098" lon="10.74052"><ele>830.0</ele><time>2017-03-04T18:17:01Z</time></trkpt>
<trkpt lat="47.244953" lon="10.740476"><ele>823.0</ele><time>2017-03-04T18:17:02Z</time></trkpt>
<trkpt lat="47.24485" lon="10.740357"><ele>823.0</ele><time>2017-03-04T18:17:03Z</time></trkpt>
<trkpt lat="47.244674" lon="10.739788"><ele>824.0</ele><time>2017-03-04T18:17:06Z</time></trkpt>
<trkpt lat="47.244562" lon="10.739513"><ele>824.0</ele><time>2017-03-04T18:17:08Z</time></trkpt>
<trkpt lat="47.244246" lon="10.73917"><ele>824.0</ele><time>2017-03-04T18:17:11Z</time></trkpt>
<trkpt lat="47.244012" lon="10.738999"><ele>813.0</ele><time>2017-03-04T18:17:12Z</time></trkpt>
<trkpt lat="47.243808" lon="10.738908"><ele>813.0</ele><time>2017-03-04T18:17:14Z</time></trkpt>
<trkpt lat="47.243625" lon="10.738921"><ele>813.0</ele><time>2017-03-04T18:17:15Z</time></trkpt>
<trkpt lat="47.242987" lon="10.738886"><ele>808.0</ele><time>2017-03-04T18:17:20Z</time></trkpt>
<trkpt lat="47.242648" lon="10.738764"><ele>808.0</ele><time>2017-03-04T18:17:22Z</time></trkpt>
<trkpt lat="47.242392" lon="10.738849"><ele>808.0</ele><time>2017-03-04T18:17:24Z</time></trkpt>
<trkpt lat="47.242205" lon="10.738849"><ele>808.0</ele><time>2017-03-04T18:17:25Z</time></trkpt>
<trkpt lat="47.242145" lon="10.738808"><ele>808.0</ele><time>2017-03-04T18:17:26Z</time></trkpt>
<trkpt lat="47.241984" lon="10.738595"><ele>808.0</ele><time>2017-03-04T18:17:27Z</time></trkpt>
<trkpt lat="47.241882" lon="10.738533"><ele>808.0</ele><time>2017-03-04T18:17:28Z</time></trkpt>
<trkpt lat="47.241784" lon="10.738517"><ele>808.0</ele><time>2017-03-04T18:17:30Z</time></trkpt>
<trkpt lat="47.241673" lon="10.738557"><ele>808.0</ele><time>2017-03-04T18:17:33Z</time></trkpt>
<trkpt lat="47.241043" lon="10.739151"><ele>805.0</ele><time>2017-03-04T18:17:52Z</time></trkpt>
<trkpt lat="47.240602" lon="10.739468"><ele>803.0</ele><time>2017-03-04T18:18:04Z</time></trkpt>
<trkpt lat="47.240362" lon="10.739531"><ele>803.0</ele><time>2017-03-04T18:18:10Z</time></trkpt>
<trkpt lat="47.240107" lon="10.739552"><ele>803.0</ele><time>2017-03-04T18:18:17Z</time></trkpt>
<trkpt lat="47.239945" lon="10.739586"><ele>802.0</ele><time>2017-03-04T18:18:21Z</time></trkpt>
<trkpt lat="47.239801" lon="10.739549"><ele>802.0</ele><time>2017-03-04T18:18:22Z</time></trkpt>
<trkpt lat="47.239587" lon="10.73941"><ele>802.0</ele><time>2017-03-04T18:18:24Z</time></trkpt>
<trkpt lat="47.238772" lon="10.738805"><ele>800.0</ele><time>2017-03-04T18:18:32Z</time></trkpt>
<trkpt lat="47.238606" lon="10.738735"><ele>800.0</ele><time>2017-03-04T18:18:34Z</time></trkpt>
<trkpt lat="47.238208" lon="10.738688"><ele>792.0</ele><time>2017-03-04T18:18:38Z</time></trkpt>
<trkpt lat="47.237801" lon="10.738613"><ele>792.0</ele><time>2017-03-04T18:18:41Z</time></trkpt>
<trkpt lat="47.237523" lon="10.738657"><ele>792.0</ele><time>2017-03-04T18:18:44Z</time></trkpt>
<trkpt lat="47.236911" lon="10.739014"><ele>789.0</ele><time>2017-03-04T18:18:50Z</time></trkpt>
<trkpt lat="47.236869" lon="10.739041"><ele>789.0</ele><time>2017-03-04T18:18:50Z</time></trkpt>
<trkpt lat="47.23681" lon="10.738988"><ele>789.0</ele><time>2017-03-04T18:18:50Z</time></trkpt>
<trkpt lat="47.23675" lon="10.739031"><ele>789.0</ele><time>2017-03-04T18:18:51Z</time></trkpt>
<trkpt lat="47.236668" lon="10.738959"><ele>789.0</ele><time>2017-03-04T18:18:52Z</time></trkpt>
<trkpt lat="47.236271" lon="10.738813"><ele>793.0</ele><time>2017-03-04T18:18:55Z</time></trkpt>
<trkpt lat="47.23504" lon="10.738543"><ele>799.0</ele><time>2017-03-04T18:19:03Z</time></trkpt>
<trkpt lat="47.234379" lon="10.738263"><ele>801.0</ele><time>2017-03-04T18:19:08Z</time></trkpt>
<trkpt lat="47.234008" lon="10.738038"><ele>798.0</ele><time>2017-03-04T18:19:11Z</time></trkpt>
<trkpt lat="47.233405" lon="10.737546"><ele>798.0</ele><time>2017-03-04T18:19:16Z</time></trkpt>
<trkpt lat="47.233258" lon="10.737455"><ele>803.0</ele><time>2017-03-04T18:19:17Z</time></trkpt>
<trkpt lat="47.233112" lon="10.737284"><ele>803.0</ele><time>2017-03-04T18:19:19Z</time></trkpt>
<trkpt lat="47.233001" lon="10.737068"><ele>803.0</ele><time>2017-03-04T18:19:20Z</time></trkpt>
<trkpt lat="47.232799" lon="10.736382"><ele>808.0</ele><time>2017-03-04T18:19:25Z</time></trkpt>
<trkpt lat="47.232672" lon="10.736102"><ele>808.0</ele><time>2017-03-04T18:19:27Z</time></trkpt>
<trkpt lat="47.232469" lon="10.735789"><ele>824.0</ele><time>2017-03-04T18:19:31Z</time></trkpt>
<trkpt lat="47.232301" lon="10.735623"><ele>824.0</ele><time>2017-03-04T18:19:33Z</time></trkpt>
<trkpt lat="47.232158" lon="10.735521"><ele>824.0</ele><time>2017-03-04T18:19:34Z</time></trkpt>
<trkpt lat="47.231926" lon="10.735413"><ele>824.0</ele><time>2017-03-04T18:19:37Z</time></trkpt>
<trkpt lat="47.231664" lon="10.735353"><ele>830.0</ele><time>2017-03-04T18:19:40Z</time></trkpt>
<trkpt lat="47.231343" lon="10.735364"><ele>830.0</ele><time>2017-03-04T18:19:43Z</time></trkpt>
<trkpt lat="47.230815" lon="10.735435"><ele>824.0</ele><time>2017-03-04T18:19:48Z</time></trkpt>
<trkpt lat="47.230649" lon="10.735431"><ele>824.0</ele><time>2017-03-04T18:19:50Z</time></trkpt>
<trkpt lat="47.230364" lon="10.735347"><ele>824.0</ele><time>2017-03-04T18:19:53Z</time></trkpt>
<trkpt lat="47.230207" lon="10.735248"><ele>824.0</ele><time>2017-03-04T18:19:55Z</time></trkpt>
<trkpt lat="47.230018" lon="10.735053"><ele>824.0</ele><time>2017-03-04T18:19:57Z</time></trkpt>
<trkpt lat="47.229853" lon="10.734816"><ele>838.0</ele><time>2017-03-04T18:20:00Z</time></trkpt>
<trkpt lat="47.229348" lon="10.733562"><ele>850.0</ele><time>2017-03-04T18:20:10Z</time></trkpt>
<trkpt lat="47.229191" lon="10.733311"><ele>861.0</ele><time>2017-03-04T18:20:12Z</time></trkpt>
<trkpt lat="47.228987" lon="10.733096"><ele>853.0</ele><time>2017-03-04T18:20:15Z</time></trkpt>
<trkpt lat="47.228855" lon="10.732997"><ele>853.0</ele><time>2017-03-04T18:20:16Z</time></trkpt>
<trkpt lat="47.228692" lon="10.732917"><ele>853.0</ele><time>2017-03-04T18:20:18Z</time></trkpt>
<trkpt lat="47.226581" lon="10.732246"><ele>850.0</ele><time>2017-03-04T18:20:40Z</time></trkpt>
<trkpt lat="47.226225" lon="10.732051"><ele>850.0</ele><time>2017-03-04T18:20:44Z</time></trkpt>
<trkpt lat="47.226104" lon="10.731937"><ele>850.0</ele><time>2017-03-04T18:20:45Z</time></trkpt>
<trkpt lat="47.225662" lon="10.731388"><ele>854.0</ele><time>2017-03-04T18:20:51Z</time></trkpt>
<trkpt lat="47.225499" lon="10.73123"><ele>854.0</ele><time>2017-03-04T18:20:53Z</time></trkpt>
<trkpt lat="47.225343" lon="10.73113"><ele>854.0</ele><time>2017-03-04T18:20:55Z</time></trkpt>
<trkpt lat="47.224897" lon="10.730933"><ele>839.0</ele><time>2017-03-04T18:21:00Z</time></trkpt>
<trkpt lat="47.224658" lon="10.730804"><ele>871.0</ele><time>2017-03-04T18:21:04Z</time></trkpt>
<trkpt lat="47.224457" lon="10.730661"><ele>871.0</ele><time>2017-03-04T18:21:06Z</time></trkpt>
<trkpt lat="47.224353" lon="10.730555"><ele>871.0</ele><time>2017-03-04T18:21:07Z</time></trkpt>
<trkpt lat="47.224242" lon="10.730404"><ele>871.0</ele><time>2017-03-04T18:21:09Z</time></trkpt>
<trkpt lat="47.224242" lon="10.730404"><ele>871.0</ele><time>2017-03-04T18:21:09Z</time></trkpt>
<trkpt lat="47.224013" lon="10.73003"><ele>843.0</ele><time>2017-03-04T18:21:12Z</time></trkpt>
<trkpt lat="47.223605" lon="10.729296"><ele>870.0</ele><time>2017-03-04T18:21:17Z</time></trkpt>
<trkpt lat="47.22348" lon="10.72904"><ele>888.0</ele><time>2017-03-04T18:21:19Z</time></trkpt>
<trkpt lat="47.223261" lon="10.7287"><ele>854.0</ele><time>2017-03-04T18:21:23Z</time></trkpt>
<trkpt lat="47.222385" lon="10.72754"><ele>838.0</ele><time>2017-03-04T18:21:31Z</time></trkpt>
<trkpt lat="47.221991" lon="10.726937"><ele>845.0</ele><time>2017-03-04T18:21:35Z</time></trkpt>
<trkpt lat="47.221837" lon="10.726616"><ele>853.0</ele><time>2017-03-04T18:21:37Z</time></trkpt>
<trkpt lat="47.221455" lon="10.725613"><ele>841.0</ele><time>2017-03-04T18:21:43Z</time></trkpt>
<trkpt lat="47.221374" lon="10.725447"><ele>841.0</ele><time>2017-03-04T18:21:44Z</time></trkpt>
<trkpt lat="47.22127" lon="10.725297"><ele>841.0</ele><time>2017-03-04T18:21:45Z</time></trkpt>
<trkpt lat="47.220644" lon="10.724554"><ele>832.0</ele><time>2017-03-04T18:21:51Z</time></trkpt>
<trkpt lat="47.220475" lon="10.724292"><ele>832.0</ele><time>2017-03-04T18:21:53Z</time></trkpt>
<trkpt lat="47.220387" lon="10.724121"><ele>840.0</ele><time>2017-03-04T18:21:54Z</time></trkpt>
<trkpt lat="47.220246" lon="10.723738"><ele>840.0</ele><time>2017-03-04T18:21:56Z</time></trkpt>
<trkpt lat="47.219755" lon="10.722248"><ele>836.0</ele><time>2017-03-04T18:22:04Z</time></trkpt>
<trkpt lat="47.219102" lon="10.720567"><ele>824.0</ele><time>2017-03-04T18:22:13Z</time></trkpt>
<trkpt lat="47.218939" lon="10.720051"><ele>824.0</ele><time>2017-03-04T18:22:16Z</time></trkpt>
<trkpt lat="47.218248" lon="10.717673"><ele>813.0</ele><time>2017-03-04T18:22:29Z</time></trkpt>
<trkpt lat="47.217768" lon="10.715918"><ele>840.0</ele><time>2017-03-04T18:22:38Z</time></trkpt>
<trkpt lat="47.217669" lon="10.715039"><ele>851.0</ele><time>2017-03-04T18:22:43Z</time></trkpt>
<trkpt lat="47.217562" lon="10.714511"><ele>868.0</ele><time>2017-03-04T18:22:46Z</time></trkpt>
<trkpt lat="47.217154" lon="10.712062"><ele>840.0</ele><time>2017-03-04T18:22:58Z</time></trkpt>
<trkpt lat="47.217026" lon="10.7116"><ele>850.0</ele><time>2017-03-04T18:23:01Z</time></trkpt>
<trkpt lat="47.216493" lon="10.709873"><ele>795.0</ele><time>2017-03-04T18:23:11Z</time></trkpt>
<trkpt lat="47.216451" lon="10.709688"><ele>795.0</ele><time>2017-03-04T18:23:12Z</time></trkpt>
<trkpt lat="47.21642" lon="10.7095"><ele>795.0</ele><time>2017-03-04T18:23:13Z</time></trkpt>
<trkpt lat="47.21636" lon="10.708857"><ele>804.0</ele><time>2017-03-04T18:23:16Z</time></trkpt>
<trkpt lat="47.216316" lon="10.708583"><ele>804.0</ele><time>2017-03-04T18:23:17Z</time></trkpt>
<trkpt lat="47.216142" lon="10.70777"><ele>813.0</ele><time>2017-03-04T18:23:21Z</time></trkpt>
<trkpt lat="47.216107" lon="10.707545"><ele>813.0</ele><time>2017-03-04T18:23:23Z</time></trkpt>
<trkpt lat="47.216087" lon="10.70732"><ele>814.0</ele><time>2017-03-04T18:23:24Z</time></trkpt>
<trkpt lat="47.216082" lon="10.706803"><ele>814.0</ele><time>2017-03-04T18:23:26Z</time></trkpt>
<trkpt lat="47.216047" lon="10.70631"><ele>816.0</ele><time>2017-03-04T18:23:29Z</time></trkpt>
<trkpt lat="47.215701" lon="10.704647"><ele>765.0</ele><time>2017-03-04T18:23:38Z</time></trkpt>
<trkpt lat="47.215652" lon="10.704319"><ele>765.0</ele><time>2017-03-04T18:23:39Z</time></trkpt>
<trkpt lat="47.215633" lon="10.704009"><ele>767.0</ele><time>2017-03-04T18:23:41Z</time></trkpt>
<trkpt lat="47.215629" lon="10.703407"><ele>767.0</ele><time>2017-03-04T18:23:44Z</time></trkpt>
<trkpt lat="47.2156" lon="10.702943"><ele>775.0</ele><time>2017-03-04T18:23:46Z</time></trkpt>
<trkpt lat="47.214876" lon="10.698656"><ele>757.0</ele><time>2017-03-04T18:24:08Z</time></trkpt>
<trkpt lat="47.214664" lon="10.697646"><ele>769.0</ele><time>2017-03-04T18:24:13Z</time></trkpt>
<trkpt lat="47.214558" lon="10.697168"><ele>783.0</ele><time>2017-03-04T18:24:21Z</time></trkpt>
<trkpt lat="47.214569" lon="10.697141"><ele>783.0</ele><time>2017-03-04T18:24:21Z</time></trkpt>
<trkpt lat="47.214566" lon="10.696999"><ele>783.0</ele><time>2017-03-04T18:24:22Z</time></trkpt>
<trkpt lat="47.214502" lon="10.696825"><ele>783.0</ele><time>2017-03-04T18:24:23Z</time></trkpt>
<trkpt lat="47.21433" lon="10.696493"><ele>809.0</ele><time>2017-03-04T18:24:26Z</time></trkpt>
<trkpt lat="47.213072" lon="10.692448"><ele>752.0</ele><time>2017-03-04T18:24:49Z</time></trkpt>
<trkpt lat="47.212294" lon="10.6898"><ele>758.0</ele><time>2017-03-04T18:25:05Z</time></trkpt>
<trkpt lat="47.211887" lon="10.688619"><ele>769.0</ele><time>2017-03-04T18:25:12Z</time></trkpt>
<trkpt lat="47.211773" lon="10.688235"><ele>781.0</ele><time>2017-03-04T18:25:14Z</time></trkpt>
<trkpt lat="47.211524" lon="10.687194"><ele>751.0</ele><time>2017-03-04T18:25:20Z</time></trkpt>
<trkpt lat="47.211274" lon="10.686469"><ele>779.0</ele><time>2017-03-04T18:25:25Z</time></trkpt>
<trkpt lat="47.211007" lon="10.685835"><ele>779.0</ele><time>2017-03-04T18:25:29Z</time></trkpt>
<trkpt lat="47.210775" lon="10.685228"><ele>754.0</ele><time>2017-03-04T18:25:33Z</time></trkpt>
<trkpt lat="47.210574" lon="10.684545"><ele>768.0</ele><time>2017-03-04T18:25:37Z</time></trkpt>
<trkpt lat="47.210378" lon="10.683782"><ele>779.0</ele><time>2017-03-04T18:25:41Z</time></trkpt>
<trkpt lat="47.210097" lon="10.68247"><ele>801.0</ele><time>2017-03-04T18:25:48Z</time></trkpt>
<trkpt lat="47.209842" lon="10.6811"><ele>761.0</ele><time>2017-03-04T18:25:56Z</time></trkpt>
<trkpt lat="47.209682" lon="10.68043"><ele>766.0</ele><time>2017-03-04T18:26:00Z</time></trkpt>
<trkpt lat="47.20952" lon="10.679949"><ele>784.0</ele><time>2017-03-04T18:26:03Z</time></trkpt>
<trkpt lat="47.209359" lon="10.679589"><ele>784.0</ele><time>2017-03-04T18:26:05Z</time></trkpt>
<trkpt lat="47.209098" lon="10.6791"><ele>748.0</ele><time>2017-03-04T18:26:09Z</time></trkpt>
<trkpt lat="47.208963" lon="10.678897"><ele>748.0</ele><time>2017-03-04T18:26:21Z</time></trkpt>
<trkpt lat="47.209012" lon="10.678839"><ele>748.0</ele><time>2017-03-04T18:26:21Z</time></trkpt>
<trkpt lat="47.209097" lon="10.678649"><ele>748.0</ele><time>2017-03-04T18:26:23Z</time></trkpt>
<trkpt lat="47.20911" lon="10.678467"><ele>748.0</ele><time>2017-03-04T18:26:24Z</time></trkpt>
<trkpt lat="47.209056" lon="10.677972"><ele>756.0</ele><time>2017-03-04T18:26:26Z</time></trkpt>
<trkpt lat="47.209012" lon="10.67776"><ele>756.0</ele><time>2017-03-04T18:26:27Z</time></trkpt>
<trkpt lat="47.208952" lon="10.677568"><ele>756.0</ele><time>2017-03-04T18:26:29Z</time></trkpt>
<trkpt lat="47.20854" lon="10.676857"><ele>773.0</ele><time>2017-03-04T18:26:34Z</time></trkpt>
<trkpt lat="47.208415" lon="10.676477"><ele>789.0</ele><time>2017-03-04T18:26:36Z</time></trkpt>
<trkpt lat="47.208265" lon="10.675791"><ele>771.0</ele><time>2017-03-04T18:26:40Z</time></trkpt>
<trkpt lat="47.208209" lon="10.675656"><ele>771.0</ele><time>2017-03-04T18:26:41Z</time></trkpt>
<trkpt lat="47.20811" lon="10.675551"><ele>771.0</ele><time>2017-03-04T18:26:42Z</time></trkpt>
<trkpt lat="47.207856" lon="10.675347"><ele>771.0</ele><time>2017-03-04T18:26:44Z</time></trkpt>
<trkpt lat="47.20742" lon="10.675121"><ele>743.0</ele><time>2017-03-04T18:26:49Z</time></trkpt>
<trkpt lat="47.206449" lon="10.67476"><ele>743.0</ele><time>2017-03-04T18:26:56Z</time></trkpt>
<trkpt lat="47.20634" lon="10.674709"><ele>743.0</ele><time>2017-03-04T18:26:57Z</time></trkpt>
<trkpt lat="47.206206" lon="10.674597"><ele>743.0</ele><time>2017-03-04T18:26:59Z</time></trkpt>
<trkpt lat="47.206084" lon="10.674447"><ele>743.0</ele><time>2017-03-04T18:27:00Z</time></trkpt>
<trkpt lat="47.205996" lon="10.674251"><ele>743.0</ele><time>2017-03-04T18:27:01Z</time></trkpt>
<trkpt lat="47.205638" lon="10.673274"><ele>740.0</ele><time>2017-03-04T18:27:07Z</time></trkpt>
<trkpt lat="47.205565" lon="10.673074"><ele>740.0</ele><time>2017-03-04T18:27:09Z</time></trkpt>
<trkpt lat="47.205585" lon="10.672953"><ele>740.0</ele><time>2017-03-04T18:27:10Z</time></trkpt>
<trkpt lat="47.205595" lon="10.672282"><ele>744.0</ele><time>2017-03-04T18:27:17Z</time></trkpt>
<trkpt lat="47.205586" lon="10.671862"><ele>744.0</ele><time>2017-03-04T18:27:21Z</time></trkpt>
<trkpt lat="47.205421" lon="10.670917"><ele>757.0</ele><time>2017-03-04T18:27:31Z</time></trkpt>
<trkpt lat="47.205312" lon="10.670455"><ele>782.0</ele><time>2017-03-04T18:27:36Z</time></trkpt>
<trkpt lat="47.204808" lon="10.669221"><ele>764.0</ele><time>2017-03-04T18:27:51Z</time></trkpt>
<trkpt lat="47.204036" lon="10.667768"><ele>754.0</ele><time>2017-03-04T18:28:09Z</time></trkpt>
<trkpt lat="47.203709" lon="10.6671"><ele>778.0</ele><time>2017-03-04T18:28:18Z</time></trkpt>
<trkpt lat="47.203579" lon="10.666749"><ele>778.0</ele><time>2017-03-04T18:28:22Z</time></trkpt>
<trkpt lat="47.203466" lon="10.666384"><ele>795.0</ele><time>2017-03-04T18:28:26Z</time></trkpt>
<trkpt lat="47.203103" lon="10.664869"><ele>766.0</ele><time>2017-03-04T18:28:42Z</time></trkpt>
<trkpt lat="47.202977" lon="10.663364"><ele>773.0</ele><time>2017-03-04T18:28:57Z</time></trkpt>
<trkpt lat="47.202912" lon="10.662765"><ele>780.0</ele><time>2017-03-04T18:29:03Z</time></trkpt>
<trkpt lat="47.202822" lon="10.662421"><ele>799.0</ele><time>2017-03-04T18:29:08Z</time></trkpt>
<trkpt lat="47.20275" lon="10.662222"><ele>799.0</ele><time>2017-03-04T18:29:10Z</time></trkpt>
<trkpt lat="47.202341" lon="10.661446"><ele>752.0</ele><time>2017-03-04T18:29:21Z</time></trkpt>
<trkpt lat="47.202229" lon="10.66119"><ele>752.0</ele><time>2017-03-04T18:29:24Z</time></trkpt>
<trkpt lat="47.202175" lon="10.661"><ele>752.0</ele><time>2017-03-04T18:29:26Z</time></trkpt>
<trkpt lat="47.202122" lon="10.660785"><ele>756.0</ele><time>2017-03-04T18:29:29Z</time></trkpt>
<trkpt lat="47.202066" lon="10.660419"><ele>756.0</ele><time>2017-03-04T18:29:32Z</time></trkpt>
<trkpt lat="47.202049" lon="10.660076"><ele>756.0</ele><time>2017-03-04T18:29:36Z</time></trkpt>
<trkpt lat="47.201981" lon="10.659516"><ele>779.0</ele><time>2017-03-04T18:29:42Z</time></trkpt>
<trkpt lat="47.201709" lon="10.658382"><ele>795.0</ele><time>2017-03-04T18:29:54Z</time></trkpt>
<trkpt lat="47.201538" lon="10.657904"><ele>762.0</ele><time>2017-03-04T18:30:01Z</time></trkpt>
<trkpt lat="47.201353" lon="10.657529"><ele>762.0</ele><time>2017-03-04T18:30:05Z</time></trkpt>
<trkpt lat="47.201178" lon="10.657051"><ele>787.0</ele><time>2017-03-04T18:30:12Z</time></trkpt>
<trkpt lat="47.200969" lon="10.65631"><ele>802.0</ele><time>2017-03-04T18:30:20Z</time></trkpt>
<trkpt lat="47.200864" lon="10.655831"><ele>818.0</ele><time>2017-03-04T18:30:25Z</time></trkpt>
<trkpt lat="47.200741" lon="10.655401"><ele>762.0</ele><time>2017-03-04T18:30:34Z</time></trkpt>
<trkpt lat="47.200377" lon="10.654564"><ele>780.0</ele><time>2017-03-04T18:30:44Z</time></trkpt>
<trkpt lat="47.200205" lon="10.654254"><ele>780.0</ele><time>2017-03-04T18:30:48Z</time></trkpt>
<trkpt lat="47.200078" lon="10.653932"><ele>795.0</ele><time>2017-03-04T18:30:52Z</time></trkpt>
<trkpt lat="47.200019" lon="10.65386"><ele>795.0</ele><time>2017-03-04T18:30:53Z</time></trkpt>
<trkpt lat="47.199712" lon="10.653589"><ele>753.0</ele><time>2017-03-04T18:31:00Z</time></trkpt>
<trkpt lat="47.199462" lon="10.653271"><ele>781.0</ele><time>2017-03-04T18:31:06Z</time></trkpt>
<trkpt lat="47.19937" lon="10.65318"><ele>781.0</ele><time>2017-03-04T18:31:08Z</time></trkpt>
<trkpt lat="47.19923" lon="10.653111"><ele>781.0</ele><time>2017-03-04T18:31:10Z</time></trkpt>
<trkpt lat="47.199131" lon="10.65298"><ele>754.0</ele><time>2017-03-04T18:31:14Z</time></trkpt>
<trkpt lat="47.199068" lon="10.652797"><ele>754.0</ele><time>2017-03-04T18:31:16Z</time></trkpt>
<trkpt lat="47.198999" lon="10.652509"><ele>754.0</ele><time>2017-03-04T18:31:19Z</time></trkpt>
<trkpt lat="47.198773" lon="10.651393"><ele>767.0</ele><time>2017-03-04T18:31:31Z</time></trkpt>
<trkpt lat="47.198711" lon="10.650984"><ele>767.0</ele><time>2017-03-04T18:31:35Z</time></trkpt>
<trkpt lat="47.198686" lon="10.65048"><ele>771.0</ele><time>2017-03-04T18:31:40Z</time></trkpt>
<trkpt lat="47.19851" lon="10.649998"><ele>783.0</ele><time>2017-03-04T18:31:45Z</time></trkpt>
<trkpt lat="47.197889" lon="10.648757"><ele>781.0</ele><time>2017-03-04T18:32:00Z</time></trkpt>
<trkpt lat="47.197727" lon="10.648538"><ele>781.0</ele><time>2017-03-04T18:32:04Z</time></trkpt>
<trkpt lat="47.197323" lon="10.648153"><ele>793.0</ele><time>2017-03-04T18:32:11Z</time></trkpt>
<trkpt lat="47.197103" lon="10.647844"><ele>793.0</ele><time>2017-03-04T18:32:15Z</time></trkpt>
<trkpt lat="47.19681" lon="10.647521"><ele>793.0</ele><time>2017-03-04T18:32:20Z</time></trkpt>
<trkpt lat="47.196167" lon="10.646833"><ele>789.0</ele><time>2017-03-04T18:32:32Z</time></trkpt>
<trkpt lat="47.195755" lon="10.646429"><ele>776.0</ele><time>2017-03-04T18:32:39Z</time></trkpt>
<trkpt lat="47.195063" lon="10.646166"><ele>776.0</ele><time>2017-03-04T18:32:50Z</time></trkpt>
<trkpt lat="47.194855" lon="10.646024"><ele>757.0</ele><time>2017-03-04T18:32:54Z</time></trkpt>
<trkpt lat="47.194672" lon="10.6458"><ele>768.0</ele><time>2017-03-04T18:32:57Z</time></trkpt>
<trkpt lat="47.194336" lon="10.645574"><ele>768.0</ele><time>2017-03-04T18:33:03Z</time></trkpt>
<trkpt lat="47.194042" lon="10.645517"><ele>758.0</ele><time>2017-03-04T18:33:07Z</time></trkpt>
<trkpt lat="47.193664" lon="10.64551"><ele>758.0</ele><time>2017-03-04T18:33:13Z</time></trkpt>
<trkpt lat="47.193608" lon="10.645465"><ele>758.0</ele><time>2017-03-04T18:33:14Z</time></trkpt>
<trkpt lat="47.193256" lon="10.644884"><ele>763.0</ele><time>2017-03-04T18:33:21Z</time></trkpt>
<trkpt lat="47.193148" lon="10.644852"><ele>763.0</ele><time>2017-03-04T18:33:23Z</time></trkpt>
<trkpt lat="47.193067" lon="10.644876"><ele>763.0</ele><time>2017-03-04T18:33:24Z</time></trkpt>
<trkpt lat="47.193016" lon="10.644917"><ele>763.0</ele><time>2017-03-04T18:33:33Z</time></trkpt>
<trkpt lat="47.192739" lon="10.644532"><ele>763.0</ele><time>2017-03-04T18:33:36Z</time></trkpt>
<trkpt lat="47.192532" lon="10.644324"><ele>763.0</ele><time>2017-03-04T18:33:38Z</time></trkpt>
<trkpt lat="47.19229" lon="10.644125"><ele>768.0</ele><time>2017-03-04T18:33:40Z</time></trkpt>
<trkpt lat="47.192047" lon="10.64398"><ele>768.0</ele><time>2017-03-04T18:33:41Z</time></trkpt>
<trkpt lat="47.191806" lon="10.64388"><ele>768.0</ele><time>2017-03-04T18:33:43Z</time></trkpt>
<trkpt lat="47.190517" lon="10.643529"><ele>766.0</ele><time>2017-03-04T18:33:53Z</time></trkpt>
<trkpt lat="47.190259" lon="10.643406"><ele>766.0</ele><time>2017-03-04T18:33:55Z</time></trkpt>
<trkpt lat="47.190052" lon="10.643279"><ele>770.0</ele><time>2017-03-04T18:33:57Z</time></trkpt>
<trkpt lat="47.189788" lon="10.643066"><ele>764.0</ele><time>2017-03-04T18:33:59Z</time></trkpt>
<trkpt lat="47.189609" lon="10.642889"><ele>764.0</ele><time>2017-03-04T18:34:00Z</time></trkpt>
<trkpt lat="47.189373" lon="10.642602"><ele>764.0</ele><time>2017-03-04T18:34:03Z</time></trkpt>
<trkpt lat="47.188462" lon="10.641377"><ele>768.0</ele><time>2017-03-04T18:34:12Z</time></trkpt>
<trkpt lat="47.187969" lon="10.640665"><ele>777.0</ele><time>2017-03-04T18:34:17Z</time></trkpt>
<trkpt lat="47.187457" lon="10.639791"><ele>771.0</ele><time>2017-03-04T18:34:23Z</time></trkpt>
<trkpt lat="47.18664" lon="10.638128"><ele>770.0</ele><time>2017-03-04T18:34:33Z</time></trkpt>
<trkpt lat="47.186361" lon="10.637515"><ele>770.0</ele><time>2017-03-04T18:34:36Z</time></trkpt>
<trkpt lat="47.186265" lon="10.637273"><ele>793.0</ele><time>2017-03-04T18:34:38Z</time></trkpt>
<trkpt lat="47.186188" lon="10.637"><ele>793.0</ele><time>2017-03-04T18:34:40Z</time></trkpt>
<trkpt lat="47.186153" lon="10.636707"><ele>793.0</ele><time>2017-03-04T18:34:41Z</time></trkpt>
<trkpt lat="47.186165" lon="10.636016"><ele>808.0</ele><time>2017-03-04T18:34:45Z</time></trkpt>
<trkpt lat="47.186142" lon="10.635267"><ele>829.0</ele><time>2017-03-04T18:34:49Z</time></trkpt>
<trkpt lat="47.186063" lon="10.634324"><ele>856.0</ele><time>2017-03-04T18:34:54Z</time></trkpt>
<trkpt lat="47.185916" lon="10.633283"><ele>893.0</ele><time>2017-03-04T18:35:00Z</time></trkpt>
<trkpt lat="47.185665" lon="10.632023"><ele>840.0</ele><time>2017-03-04T18:35:07Z</time></trkpt>
<trkpt lat="47.185457" lon="10.631293"><ele>862.0</ele><time>2017-03-04T18:35:11Z</time></trkpt>
<trkpt lat="47.185222" lon="10.630721"><ele>888.0</ele><time>2017-03-04T18:35:15Z</time></trkpt>
<trkpt lat="47.185088" lon="10.630318"><ele>888.0</ele><time>2017-03-04T18:35:17Z</time></trkpt>
<trkpt lat="47.184969" lon="10.629866"><ele>826.0</ele><time>2017-03-04T18:35:22Z</time></trkpt>
<trkpt lat="47.184794" lon="10.629038"><ele>836.0</ele><time>2017-03-04T18:35:27Z</time></trkpt>
<trkpt lat="47.184624" lon="10.628407"><ele>836.0</ele><time>2017-03-04T18:35:30Z</time></trkpt>
<trkpt lat="47.183464" lon="10.624524"><ele>792.0</ele><time>2017-03-04T18:35:51Z</time></trkpt>
<trkpt lat="47.182987" lon="10.62231"><ele>785.0</ele><time>2017-03-04T18:36:03Z</time></trkpt>
<trkpt lat="47.182539" lon="10.620064"><ele>808.0</ele><time>2017-03-04T18:36:15Z</time></trkpt>
<trkpt lat="47.182388" lon="10.619467"><ele>761.0</ele><time>2017-03-04T18:36:19Z</time></trkpt>
<trkpt lat="47.182143" lon="10.618853"><ele>776.0</ele><time>2017-03-04T18:36:23Z</time></trkpt>
<trkpt lat="47.182025" lon="10.618633"><ele>776.0</ele><time>2017-03-04T18:36:24Z</time></trkpt>
<trkpt lat="47.181689" lon="10.618124"><ele>808.0</ele><time>2017-03-04T18:36:28Z</time></trkpt>
<trkpt lat="47.181201" lon="10.617541"><ele>755.0</ele><time>2017-03-04T18:36:34Z</time></trkpt>
<trkpt lat="47.18069" lon="10.617006"><ele>754.0</ele><time>2017-03-04T18:36:39Z</time></trkpt>
<trkpt lat="47.180317" lon="10.616655"><ele>771.0</ele><time>2017-03-04T18:36:42Z</time></trkpt>
<trkpt lat="47.179492" lon="10.615954"><ele>759.0</ele><time>2017-03-04T18:36:49Z</time></trkpt>
<trkpt lat="47.178849" lon="10.615486"><ele>764.0</ele><time>2017-03-04T18:36:54Z</time></trkpt>
<trkpt lat="47.17789" lon="10.614875"><ele>770.0</ele><time>2017-03-04T18:37:02Z</time></trkpt>
<trkpt lat="47.177644" lon="10.614693"><ele>770.0</ele><time>2017-03-04T18:37:04Z</time></trkpt>
<trkpt lat="47.177516" lon="10.614565"><ele>770.0</ele><time>2017-03-04T18:37:05Z</time></trkpt>
<trkpt lat="47.177238" lon="10.614189"><ele>766.0</ele><time>2017-03-04T18:37:08Z</time></trkpt>
<trkpt lat="47.176524" lon="10.613083"><ele>768.0</ele><time>2017-03-04T18:37:15Z</time></trkpt>
<trkpt lat="47.176161" lon="10.612431"><ele>787.0</ele><time>2017-03-04T18:37:20Z</time></trkpt>
<trkpt lat="47.175928" lon="10.611905"><ele>787.0</ele><time>2017-03-04T18:37:23Z</time></trkpt>
<trkpt lat="47.175772" lon="10.61146"><ele>767.0</ele><time>2017-03-04T18:37:26Z</time></trkpt>
<trkpt lat="47.175726" lon="10.611222"><ele>767.0</ele><time>2017-03-04T18:37:27Z</time></trkpt>
<trkpt lat="47.175655" lon="10.610564"><ele>771.0</ele><time>2017-03-04T18:37:30Z</time></trkpt>
<trkpt lat="47.1756" lon="10.609716"><ele>781.0</ele><time>2017-03-04T18:37:35Z</time></trkpt>
<trkpt lat="47.175534" lon="10.609132"><ele>785.0</ele><time>2017-03-04T18:37:38Z</time></trkpt>
<trkpt lat="47.175296" lon="10.608032"><ele>798.0</ele><time>2017-03-04T18:37:43Z</time></trkpt>
<trkpt lat="47.175097" lon="10.606772"><ele>810.0</ele><time>2017-03-04T18:37:50Z</time></trkpt>
<trkpt lat="47.17495" lon="10.606244"><ele>782.0</ele><time>2017-03-04T18:37:53Z</time></trkpt>
<trkpt lat="47.174866" lon="10.606035"><ele>782.0</ele><time>2017-03-04T18:37:54Z</time></trkpt>
<trkpt lat="47.174161" lon="10.604739"><ele>778.0</ele><time>2017-03-04T18:38:03Z</time></trkpt>
<trkpt lat="47.17231" lon="10.601183"><ele>777.0</ele><time>2017-03-04T18:38:25Z</time></trkpt>
<trkpt lat="47.172154" lon="10.600812"><ele>781.0</ele><time>2017-03-04T18:38:27Z</time></trkpt>
<trkpt lat="47.172055" lon="10.60053"><ele>781.0</ele><time>2017-03-04T18:38:29Z</time></trkpt>
<trkpt lat="47.171863" lon="10.599856"><ele>779.0</ele><time>2017-03-04T18:38:32Z</time></trkpt>
<trkpt lat="47.170911" lon="10.596358"><ele>771.0</ele><time>2017-03-04T18:38:51Z</time></trkpt>
<trkpt lat="47.170393" lon="10.594986"><ele>784.0</ele><time>2017-03-04T18:38:59Z</time></trkpt>
<trkpt lat="47.169432" lon="10.59293"><ele>775.0</ele><time>2017-03-04T18:39:12Z</time></trkpt>
<trkpt lat="47.169025" lon="10.592245"><ele>763.0</ele><time>2017-03-04T18:39:16Z</time></trkpt>
<trkpt lat="47.168589" lon="10.591596"><ele>770.0</ele><time>2017-03-04T18:39:21Z</time></trkpt>
<trkpt lat="47.168332" lon="10.591273"><ele>761.0</ele><time>2017-03-04T18:39:23Z</time></trkpt>
<trkpt lat="47.167814" lon="10.590724"><ele>760.0</ele><time>2017-03-04T18:39:28Z</time></trkpt>
<trkpt lat="47.16628" lon="10.589321"><ele>761.0</ele><time>2017-03-04T18:39:41Z</time></trkpt>
<trkpt lat="47.166257" lon="10.589303"><ele>761.0</ele><time>2017-03-04T18:39:59Z</time></trkpt>
<trkpt lat="47.166257" lon="10.589191"><ele>761.0</ele><time>2017-03-04T18:40:00Z</time></trkpt>
<trkpt lat="47.166214" lon="10.589127"><ele>759.0</ele><time>2017-03-04T18:40:01Z</time></trkpt>
<trkpt lat="47.166172" lon="10.589112"><ele>759.0</ele><time>2017-03-04T18:40:01Z</time></trkpt>
<trkpt lat="47.166097" lon="10.589164"><ele>759.0</ele><time>2017-03-04T18:40:02Z</time></trkpt>
<trkpt lat="47.16426" lon="10.587473"><ele>756.0</ele><time>2017-03-04T18:40:30Z</time></trkpt>
<trkpt lat="47.163502" lon="10.586742"><ele>762.0</ele><time>2017-03-04T18:40:42Z</time></trkpt>
<trkpt lat="47.163107" lon="10.58625"><ele>763.0</ele><time>2017-03-04T18:40:49Z</time></trkpt>
<trkpt lat="47.162587" lon="10.585525"><ele>763.0</ele><time>2017-03-04T18:40:58Z</time></trkpt>
<trkpt lat="47.162427" lon="10.585342"><ele>762.0</ele><time>2017-03-04T18:41:01Z</time></trkpt>
<trkpt lat="47.162321" lon="10.58528"><ele>762.0</ele><time>2017-03-04T18:41:02Z</time></trkpt>
<trkpt lat="47.162223" lon="10.585273"><ele>762.0</ele><time>2017-03-04T18:41:04Z</time></trkpt>
<trkpt lat="47.162157" lon="10.585281"><ele>762.0</ele><time>2017-03-04T18:41:05Z</time></trkpt>
<trkpt lat="47.161462" lon="10.585608"><ele>763.0</ele><time>2017-03-04T18:41:14Z</time></trkpt>
<trkpt lat="47.161082" lon="10.585854"><ele>759.0</ele><time>2017-03-04T18:41:19Z</time></trkpt>
<trkpt lat="47.160916" lon="10.586017"><ele>759.0</ele><time>2017-03-04T18:41:22Z</time></trkpt>
<trkpt lat="47.159574" lon="10.587887"><ele>764.0</ele><time>2017-03-04T18:41:46Z</time></trkpt>
<trkpt lat="47.158433" lon="10.589279"><ele>766.0</ele><time>2017-03-04T18:42:05Z</time></trkpt>
<trkpt lat="47.158088" lon="10.589621"><ele>770.0</ele><time>2017-03-04T18:42:11Z</time></trkpt>
<trkpt lat="47.158001" lon="10.589642"><ele>770.0</ele><time>2017-03-04T18:42:12Z</time></trkpt>
<trkpt lat="47.15791" lon="10.589633"><ele>770.0</ele><time>2017-03-04T18:42:13Z</time></trkpt>
<trkpt lat="47.157686" lon="10.589538"><ele>770.0</ele><time>2017-03-04T18:42:16Z</time></trkpt>
<trkpt lat="47.157489" lon="10.589342"><ele>770.0</ele><time>2017-03-04T18:42:19Z</time></trkpt>
<trkpt lat="47.157327" lon="10.589075"><ele>771.0</ele><time>2017-03-04T18:42:22Z</time></trkpt>
<trkpt lat="47.156935" lon="10.588335"><ele>771.0</ele><time>2017-03-04T18:42:31Z</time></trkpt>
<trkpt lat="47.156446" lon="10.587315"><ele>769.0</ele><time>2017-03-04T18:42:42Z</time></trkpt>
<trkpt lat="47.155764" lon="10.585741"><ele>770.0</ele><time>2017-03-04T18:42:58Z</time></trkpt>
<trkpt lat="47.155583" lon="10.585423"><ele>770.0</ele><time>2017-03-04T18:43:02Z</time></trkpt>
<trkpt lat="47.155498" lon="10.585324"><ele>770.0</ele><time>2017-03-04T18:43:03Z</time></trkpt>
<trkpt lat="47.1554" lon="10.585227"><ele>770.0</ele><time>2017-03-04T18:43:05Z</time></trkpt>
<trkpt lat="47.15515" lon="10.585052"><ele>770.0</ele><time>2017-03-04T18:43:08Z</time></trkpt>
<trkpt lat="47.154633" lon="10.584823"><ele>769.0</ele><time>2017-03-04T18:43:15Z</time></trkpt>
<trkpt lat="47.154426" lon="10.584695"><ele>769.0</ele><time>2017-03-04T18:43:18Z</time></trkpt>
<trkpt lat="47.154099" lon="10.584443"><ele>769.0</ele><time>2017-03-04T18:43:23Z</time></trkpt>
<trkpt lat="47.15382" lon="10.58415"><ele>771.0</ele><time>2017-03-04T18:43:28Z</time></trkpt>
<trkpt lat="47.15328" lon="10.583461"><ele>773.0</ele><time>2017-03-04T18:43:37Z</time></trkpt>
<trkpt lat="47.152591" lon="10.582475"><ele>773.0</ele><time>2017-03-04T18:43:49Z</time></trkpt>
<trkpt lat="47.151737" lon="10.581512"><ele>771.0</ele><time>2017-03-04T18:44:03Z</time></trkpt>
<trkpt lat="47.151601" lon="10.581401"><ele>770.0</ele><time>2017-03-04T18:44:05Z</time></trkpt>
<trkpt lat="47.151494" lon="10.581342"><ele>770.0</ele><time>2017-03-04T18:44:07Z</time></trkpt>
<trkpt lat="47.150444" lon="10.581092"><ele>770.0</ele><time>2017-03-04T18:44:21Z</time></trkpt>
<trkpt lat="47.150168" lon="10.580996"><ele>770.0</ele><time>2017-03-04T18:44:24Z</time></trkpt>
<trkpt lat="47.149992" lon="10.580906"><ele>774.0</ele><time>2017-03-04T18:44:27Z</time></trkpt>
<trkpt lat="47.149829" lon="10.58077"><ele>772.0</ele><time>2017-03-04T18:44:29Z</time></trkpt>
<trkpt lat="47.149634" lon="10.580518"><ele>772.0</ele><time>2017-03-04T18:44:33Z</time></trkpt>
<trkpt lat="47.149527" lon="10.580341"><ele>772.0</ele><time>2017-03-04T18:44:35Z</time></trkpt>
<trkpt lat="47.14928" lon="10.579801"><ele>771.0</ele><time>2017-03-04T18:44:40Z</time></trkpt>
<trkpt lat="47.149217" lon="10.579663"><ele>771.0</ele><time>2017-03-04T18:44:42Z</time></trkpt>
<trkpt lat="47.149202" lon="10.579553"><ele>771.0</ele><time>2017-03-04T18:44:43Z</time></trkpt>
<trkpt lat="47.149133" lon="10.579372"><ele>774.0</ele><time>2017-03-04T18:44:45Z</time></trkpt>
<trkpt lat="47.149119" lon="10.579162"><ele>771.0</ele><time>2017-03-04T18:44:46Z</time></trkpt>
<trkpt lat="47.149136" lon="10.579098"><ele>771.0</ele><time>2017-03-04T18:44:47Z</time></trkpt>
<trkpt lat="47.149116" lon="10.578948"><ele>771.0</ele><time>2017-03-04T18:44:48Z</time></trkpt>
<trkpt lat="47.149015" lon="10.578793"><ele>771.0</ele><time>2017-03-04T18:44:50Z</time></trkpt>
<trkpt lat="47.148879" lon="10.578424"><ele>771.0</ele><time>2017-03-04T18:44:53Z</time></trkpt>
<trkpt lat="47.148465" lon="10.577428"><ele>772.0</ele><time>2017-03-04T18:45:03Z</time></trkpt>
<trkpt lat="47.148158" lon="10.57676"><ele>773.0</ele><time>2017-03-04T18:45:09Z</time></trkpt>
<trkpt lat="47.147754" lon="10.576043"><ele>773.0</ele><time>2017-03-04T18:45:17Z</time></trkpt>
<trkpt lat="47.147583" lon="10.575617"><ele>774.0</ele><time>2017-03-04T18:45:21Z</time></trkpt>
<trkpt lat="47.147467" lon="10.575249"><ele>777.0</ele><time>2017-03-04T18:45:24Z</time></trkpt>
<trkpt lat="47.14737" lon="10.574867"><ele>776.0</ele><time>2017-03-04T18:45:28Z</time></trkpt>
<trkpt lat="47.147068" lon="10.573481"><ele>774.0</ele><time>2017-03-04T18:45:39Z</time></trkpt>
<trkpt lat="47.146448" lon="10.571447"><ele>780.0</ele><time>2017-03-04T18:45:57Z</time></trkpt>
<trkpt lat="47.146168" lon="10.570741"><ele>778.0</ele><time>2017-03-04T18:46:04Z</time></trkpt>
<trkpt lat="47.14591" lon="10.570224"><ele>778.0</ele><time>2017-03-04T18:46:09Z</time></trkpt>
<trkpt lat="47.145761" lon="10.569958"><ele>780.0</ele><time>2017-03-04T18:46:12Z</time></trkpt>
<trkpt lat="47.145666" lon="10.569815"><ele>780.0</ele><time>2017-03-04T18:46:14Z</time></trkpt>
<trkpt lat="47.145507" lon="10.56963"><ele>780.0</ele><time>2017-03-04T18:46:16Z</time></trkpt>
<trkpt lat="47.145393" lon="10.569547"><ele>780.0</ele><time>2017-03-04T18:46:18Z</time></trkpt>
<trkpt lat="47.144579" lon="10.569124"><ele>786.0</ele><time>2017-03-04T18:46:28Z</time></trkpt>
<trkpt lat="47.144316" lon="10.568911"><ele>786.0</ele><time>2017-03-04T18:46:32Z</time></trkpt>
<trkpt lat="47.142053" lon="10.566842"><ele>794.0</ele><time>2017-03-04T18:47:03Z</time></trkpt>
<trkpt lat="47.141909" lon="10.566637"><ele>795.0</ele><time>2017-03-04T18:47:06Z</time></trkpt>
<trkpt lat="47.141755" lon="10.56637"><ele>795.0</ele><time>2017-03-04T18:47:09Z</time></trkpt>
<trkpt lat="47.141552" lon="10.565846"><ele>788.0</ele><time>2017-03-04T18:47:13Z</time></trkpt>
<trkpt lat="47.141459" lon="10.565737"><ele>784.0</ele><time>2017-03-04T18:47:15Z</time></trkpt>
<trkpt lat="47.141373" lon="10.565677"><ele>784.0</ele><time>2017-03-04T18:47:16Z</time></trkpt>
<trkpt lat="47.141296" lon="10.56567"><ele>784.0</ele><time>2017-03-04T18:47:17Z</time></trkpt>
<trkpt lat="47.141191" lon="10.565718"><ele>784.0</ele><time>2017-03-04T18:47:18Z</time></trkpt>
<trkpt lat="47.140985" lon="10.565856"><ele>788.0</ele><time>2017-03-04T18:47:21Z</time></trkpt>
<trkpt lat="47.140923" lon="10.565846"><ele>788.0</ele><time>2017-03-04T18:47:22Z</time></trkpt>
<trkpt lat="47.140851" lon="10.565837"><ele>788.0</ele><time>2017-03-04T18:47:23Z</time></trkpt>
<trkpt lat="47.140795" lon="10.56578"><ele>784.0</ele><time>2017-03-04T18:47:24Z</time></trkpt>
<trkpt lat="47.140714" lon="10.565785"><ele>784.0</ele><time>2017-03-04T18:47:25Z</time></trkpt>
<trkpt lat="47.140411" lon="10.56443"><ele>788.0</ele><time>2017-03-04T18:47:36Z</time></trkpt>
<trkpt lat="47.140404" lon="10.564394"><ele>788.0</ele><time>2017-03-04T18:47:37Z</time></trkpt>
<trkpt lat="47.140466" lon="10.564345"><ele>788.0</ele><time>2017-03-04T18:47:37Z</time></trkpt>
<trkpt lat="47.140483" lon="10.564288"><ele>788.0</ele><time>2017-03-04T18:47:38Z</time></trkpt>
<trkpt lat="47.140477" lon="10.564218"><ele>788.0</ele><time>2017-03-04T18:47:38Z</time></trkpt>
<trkpt lat="47.140438" lon="10.564156"><ele>798.0</ele><time>2017-03-04T18:47:40Z</time></trkpt>
<trkpt lat="47.140454" lon="10.564138"><ele>798.0</ele><time>2017-03-04T18:47:40Z</time></trkpt>
<trkpt lat="47.140454" lon="10.564138"><ele>798.0</ele><time>2017-03-04T18:47:40Z</time></trkpt>
<trkpt lat="47.140438" lon="10.564156"><ele>798.0</ele><time>2017-03-04T18:47:40Z</time></trkpt>
<trkpt lat="47.140402" lon="10.564141"><ele>798.0</ele><time>2017-03-04T18:47:40Z</time></trkpt>
<trkpt lat="47.140353" lon="10.564158"><ele>798.0</ele><time>2017-03-04T18:47:41Z</time></trkpt>
<trkpt lat="47.14031" lon="10.56424"><ele>788.0</ele><time>2017-03-04T18:47:42Z</time></trkpt>
<trkpt lat="47.140213" lon="10.564241"><ele>788.0</ele><time>2017-03-04T18:47:43Z</time></trkpt>
<trkpt lat="47.139918" lon="10.564405"><ele>793.0</ele><time>2017-03-04T18:47:47Z</time></trkpt>
<trkpt lat="47.139461" lon="10.5646"><ele>793.0</ele><time>2017-03-04T18:47:53Z</time></trkpt>
<trkpt lat="47.138373" lon="10.564812"><ele>798.0</ele><time>2017-03-04T18:48:06Z</time></trkpt>
<trkpt lat="47.13744" lon="10.565106"><ele>797.0</ele><time>2017-03-04T18:48:17Z</time></trkpt>
<trkpt lat="47.137164" lon="10.565256"><ele>797.0</ele><time>2017-03-04T18:48:20Z</time></trkpt>
<trkpt lat="47.137066" lon="10.565368"><ele>797.0</ele><time>2017-03-04T18:48:22Z</time></trkpt>
<trkpt lat="47.137017" lon="10.565533"><ele>797.0</ele><time>2017-03-04T18:48:23Z</time></trkpt>
<trkpt lat="47.137026" lon="10.565684"><ele>797.0</ele><time>2017-03-04T18:48:24Z</time></trkpt>
<trkpt lat="47.137121" lon="10.566275"><ele>794.0</ele><time>2017-03-04T18:48:29Z</time></trkpt>
<trkpt lat="47.137239" lon="10.566861"><ele>796.0</ele><time>2017-03-04T18:48:34Z</time></trkpt>
<trkpt lat="47.137218" lon="10.566924"><ele>796.0</ele><time>2017-03-04T18:48:35Z</time></trkpt>
<trkpt lat="47.137176" lon="10.56696"><ele>796.0</ele><time>2017-03-04T18:48:35Z</time></trkpt>
<trkpt lat="47.136434" lon="10.567192"><ele>788.0</ele><time>2017-03-04T18:48:39Z</time></trkpt>
<trkpt lat="47.136219" lon="10.567227"><ele>788.0</ele><time>2017-03-04T18:48:41Z</time></trkpt>
<trkpt lat="47.136088" lon="10.567213"><ele>788.0</ele><time>2017-03-04T18:48:41Z</time></trkpt>
<trkpt lat="47.135769" lon="10.567359"><ele>794.0</ele><time>2017-03-04T18:48:43Z</time></trkpt>
<trkpt lat="47.135471" lon="10.567584"><ele>798.0</ele><time>2017-03-04T18:48:45Z</time></trkpt>
<trkpt lat="47.134685" lon="10.568332"><ele>795.0</ele><time>2017-03-04T18:48:50Z</time></trkpt>
<trkpt lat="47.134283" lon="10.568604"><ele>818.0</ele><time>2017-03-04T18:48:53Z</time></trkpt>
<trkpt lat="47.133631" lon="10.56895"><ele>800.0</ele><time>2017-03-04T18:48:56Z</time></trkpt>
<trkpt lat="47.133341" lon="10.569157"><ele>800.0</ele><time>2017-03-04T18:48:58Z</time></trkpt>
<trkpt lat="47.133103" lon="10.569435"><ele>800.0</ele><time>2017-03-04T18:49:00Z</time></trkpt>
<trkpt lat="47.13263" lon="10.570187"><ele>845.0</ele><time>2017-03-04T18:49:04Z</time></trkpt>
<trkpt lat="47.131871" lon="10.571544"><ele>837.0</ele><time>2017-03-04T18:49:11Z</time></trkpt>
<trkpt lat="47.131381" lon="10.572359"><ele>818.0</ele><time>2017-03-04T18:49:15Z</time></trkpt>
<trkpt lat="47.130938" lon="10.57304"><ele>851.0</ele><time>2017-03-04T18:49:19Z</time></trkpt>
<trkpt lat="47.130678" lon="10.573355"><ele>831.0</ele><time>2017-03-04T18:49:21Z</time></trkpt>
<trkpt lat="47.130538" lon="10.573594"><ele>831.0</ele><time>2017-03-04T18:49:22Z</time></trkpt>
<trkpt lat="47.130428" lon="10.573949"><ele>831.0</ele><time>2017-03-04T18:49:23Z</time></trkpt>
<trkpt lat="47.130253" lon="10.574333"><ele>864.0</ele><time>2017-03-04T18:49:26Z</time></trkpt>
<trkpt lat="47.129979" lon="10.574856"><ele>816.0</ele><time>2017-03-04T18:49:29Z</time></trkpt>
<trkpt lat="47.129714" lon="10.575229"><ele>840.0</ele><time>2017-03-04T18:49:31Z</time></trkpt>
<trkpt lat="47.129201" lon="10.575747"><ele>840.0</ele><time>2017-03-04T18:49:35Z</time></trkpt>
<trkpt lat="47.128887" lon="10.575972"><ele>825.0</ele><time>2017-03-04T18:49:37Z</time></trkpt>
<trkpt lat="47.128543" lon="10.576281"><ele>825.0</ele><time>2017-03-04T18:49:39Z</time></trkpt>
<trkpt lat="47.128367" lon="10.576573"><ele>825.0</ele><time>2017-03-04T18:49:40Z</time></trkpt>
<trkpt lat="47.12825" lon="10.576934"><ele>819.0</ele><time>2017-03-04T18:49:42Z</time></trkpt>
<trkpt lat="47.128216" lon="10.577517"><ele>826.0</ele><time>2017-03-04T18:49:44Z</time></trkpt>
<trkpt lat="47.128198" lon="10.578195"><ele>826.0</ele><time>2017-03-04T18:49:47Z</time></trkpt>
<trkpt lat="47.128134" lon="10.578564"><ele>833.0</ele><time>2017-03-04T18:49:48Z</time></trkpt>
<trkpt lat="47.127346" lon="10.580315"><ele>825.0</ele><time>2017-03-04T18:49:56Z</time></trkpt>
<trkpt lat="47.126978" lon="10.581071"><ele>856.0</ele><time>2017-03-04T18:50:00Z</time></trkpt>
<trkpt lat="47.126837" lon="10.581568"><ele>856.0</ele><time>2017-03-04T18:50:02Z</time></trkpt>
<trkpt lat="47.126732" lon="10.58295"><ele>883.0</ele><time>2017-03-04T18:50:07Z</time></trkpt>
<trkpt lat="47.126651" lon="10.583551"><ele>837.0</ele><time>2017-03-04T18:50:10Z</time></trkpt>
<trkpt lat="47.126352" lon="10.584771"><ele>853.0</ele><time>2017-03-04T18:50:15Z</time></trkpt>
<trkpt lat="47.125471" lon="10.587079"><ele>856.0</ele><time>2017-03-04T18:50:25Z</time></trkpt>
<trkpt lat="47.125255" lon="10.587808"><ele>873.0</ele><time>2017-03-04T18:50:28Z</time></trkpt>
<trkpt lat="47.125119" lon="10.588397"><ele>892.0</ele><time>2017-03-04T18:50:30Z</time></trkpt>
<trkpt lat="47.124836" lon="10.590102"><ele>860.0</ele><time>2017-03-04T18:50:37Z</time></trkpt>
<trkpt lat="47.124517" lon="10.591299"><ele>873.0</ele><time>2017-03-04T18:50:42Z</time></trkpt>
<trkpt lat="47.124439" lon="10.591867"><ele>878.0</ele><time>2017-03-04T18:50:44Z</time></trkpt>
<trkpt lat="47.124274" lon="10.593375"><ele>896.0</ele><time>2017-03-04T18:50:49Z</time></trkpt>
<trkpt lat="47.124011" lon="10.594598"><ele>843.0</ele><time>2017-03-04T18:50:55Z</time></trkpt>
<trkpt lat="47.123503" lon="10.597155"><ele>885.0</ele><time>2017-03-04T18:51:05Z</time></trkpt>
<trkpt lat="47.123303" lon="10.597846"><ele>833.0</ele><time>2017-03-04T18:51:09Z</time></trkpt>
<trkpt lat="47.123018" lon="10.598548"><ele>846.0</ele><time>2017-03-04T18:51:12Z</time></trkpt>
<trkpt lat="47.122668" lon="10.59918"><ele>865.0</ele><time>2017-03-04T18:51:15Z</time></trkpt>
<trkpt lat="47.122294" lon="10.599739"><ele>821.0</ele><time>2017-03-04T18:51:18Z</time></trkpt>
<trkpt lat="47.121908" lon="10.600212"><ele>851.0</ele><time>2017-03-04T18:51:22Z</time></trkpt>
<trkpt lat="47.121301" lon="10.601048"><ele>844.0</ele><time>2017-03-04T18:51:26Z</time></trkpt>
<trkpt lat="47.12114" lon="10.601522"><ele>844.0</ele><time>2017-03-04T18:51:28Z</time></trkpt>
<trkpt lat="47.121011" lon="10.601758"><ele>878.0</ele><time>2017-03-04T18:51:30Z</time></trkpt>
<trkpt lat="47.120729" lon="10.602035"><ele>819.0</ele><time>2017-03-04T18:51:33Z</time></trkpt>
<trkpt lat="47.12041" lon="10.60243"><ele>819.0</ele><time>2017-03-04T18:51:36Z</time></trkpt>
<trkpt lat="47.120157" lon="10.602806"><ele>855.0</ele><time>2017-03-04T18:51:38Z</time></trkpt>
<trkpt lat="47.119689" lon="10.603688"><ele>827.0</ele><time>2017-03-04T18:51:43Z</time></trkpt>
<trkpt lat="47.119068" lon="10.605202"><ele>824.0</ele><time>2017-03-04T18:51:49Z</time></trkpt>
<trkpt lat="47.118463" lon="10.606236"><ele>838.0</ele><time>2017-03-04T18:51:54Z</time></trkpt>
<trkpt lat="47.117883" lon="10.607116"><ele>830.0</ele><time>2017-03-04T18:51:59Z</time></trkpt>
<trkpt lat="47.117619" lon="10.607473"><ele>830.0</ele><time>2017-03-04T18:52:01Z</time></trkpt>
<trkpt lat="47.117554" lon="10.607651"><ele>856.0</ele><time>2017-03-04T18:52:02Z</time></trkpt>
<trkpt lat="47.11751" lon="10.60783"><ele>856.0</ele><time>2017-03-04T18:52:03Z</time></trkpt>
<trkpt lat="47.117474" lon="10.608065"><ele>828.0</ele><time>2017-03-04T18:52:05Z</time></trkpt>
<trkpt lat="47.117385" lon="10.609674"><ele>838.0</ele><time>2017-03-04T18:52:11Z</time></trkpt>
<trkpt lat="47.117383" lon="10.6099"><ele>838.0</ele><time>2017-03-04T18:52:11Z</time></trkpt>
<trkpt lat="47.117444" lon="10.610876"><ele>849.0</ele><time>2017-03-04T18:52:15Z</time></trkpt>
<trkpt lat="47.117434" lon="10.611329"><ele>849.0</ele><time>2017-03-04T18:52:17Z</time></trkpt>
<trkpt lat="47.117355" lon="10.612464"><ele>849.0</ele><time>2017-03-04T18:52:21Z</time></trkpt>
<trkpt lat="47.117367" lon="10.613995"><ele>860.0</ele><time>2017-03-04T18:52:27Z</time></trkpt>
<trkpt lat="47.117408" lon="10.615155"><ele>848.0</ele><time>2017-03-04T18:52:31Z</time></trkpt>
<trkpt lat="47.117396" lon="10.615359"><ele>848.0</ele><time>2017-03-04T18:52:32Z</time></trkpt>
<trkpt lat="47.117345" lon="10.615655"><ele>848.0</ele><time>2017-03-04T18:52:33Z</time></trkpt>
<trkpt lat="47.117248" lon="10.615985"><ele>847.0</ele><time>2017-03-04T18:52:34Z</time></trkpt>
<trkpt lat="47.117075" lon="10.616374"><ele>847.0</ele><time>2017-03-04T18:52:36Z</time></trkpt>
<trkpt lat="47.116862" lon="10.616703"><ele>848.0</ele><time>2017-03-04T18:52:38Z</time></trkpt>
<trkpt lat="47.11594" lon="10.617902"><ele>844.0</ele><time>2017-03-04T18:52:44Z</time></trkpt>
<trkpt lat="47.115604" lon="10.618378"><ele>848.0</ele><time>2017-03-04T18:52:47Z</time></trkpt>
<trkpt lat="47.115506" lon="10.618556"><ele>848.0</ele><time>2017-03-04T18:52:48Z</time></trkpt>
<trkpt lat="47.115362" lon="10.618853"><ele>848.0</ele><time>2017-03-04T18:52:49Z</time></trkpt>
<trkpt lat="47.115272" lon="10.619084"><ele>848.0</ele><time>2017-03-04T18:52:50Z</time></trkpt>
<trkpt lat="47.115029" lon="10.619881"><ele>877.0</ele><time>2017-03-04T18:52:53Z</time></trkpt>
<trkpt lat="47.114899" lon="10.620391"><ele>863.0</ele><time>2017-03-04T18:52:59Z</time></trkpt>
<trkpt lat="47.114899" lon="10.620391"><ele>863.0</ele><time>2017-03-04T18:52:59Z</time></trkpt>
<trkpt lat="47.114835" lon="10.620887"><ele>857.0</ele><time>2017-03-04T18:53:01Z</time></trkpt>
<trkpt lat="47.114832" lon="10.621562"><ele>857.0</ele><time>2017-03-04T18:53:04Z</time></trkpt>
<trkpt lat="47.114796" lon="10.622315"><ele>861.0</ele><time>2017-03-04T18:53:07Z</time></trkpt>
<trkpt lat="47.114616" lon="10.62348"><ele>883.0</ele><time>2017-03-04T18:53:12Z</time></trkpt>
<trkpt lat="47.114375" lon="10.624587"><ele>893.0</ele><time>2017-03-04T18:53:17Z</time></trkpt>
<trkpt lat="47.114323" lon="10.625114"><ele>901.0</ele><time>2017-03-04T18:53:19Z</time></trkpt>
<trkpt lat="47.114288" lon="10.625967"><ele>900.0</ele><time>2017-03-04T18:53:22Z</time></trkpt>
<trkpt lat="47.114294" lon="10.626544"><ele>900.0</ele><time>2017-03-04T18:53:24Z</time></trkpt>
<trkpt lat="47.11434" lon="10.62725"><ele>907.0</ele><time>2017-03-04T18:53:27Z</time></trkpt>
<trkpt lat="47.114545" lon="10.62941"><ele>907.0</ele><time>2017-03-04T18:53:36Z</time></trkpt>
<trkpt lat="47.114533" lon="10.630224"><ele>899.0</ele><time>2017-03-04T18:53:39Z</time></trkpt>
<trkpt lat="47.114455" lon="10.6311"><ele>900.0</ele><time>2017-03-04T18:53:42Z</time></trkpt>
<trkpt lat="47.114304" lon="10.632071"><ele>903.0</ele><time>2017-03-04T18:53:46Z</time></trkpt>
<trkpt lat="47.114117" lon="10.633133"><ele>869.0</ele><time>2017-03-04T18:53:51Z</time></trkpt>
<trkpt lat="47.114095" lon="10.633649"><ele>863.0</ele><time>2017-03-04T18:53:53Z</time></trkpt>
<trkpt lat="47.114111" lon="10.633891"><ele>863.0</ele><time>2017-03-04T18:53:54Z</time></trkpt>
<trkpt lat="47.114251" lon="10.634372"><ele>881.0</ele><time>2017-03-04T18:53:56Z</time></trkpt>
<trkpt lat="47.11438" lon="10.634654"><ele>881.0</ele><time>2017-03-04T18:53:57Z</time></trkpt>
<trkpt lat="47.114418" lon="10.634729"><ele>881.0</ele><time>2017-03-04T18:54:00Z</time></trkpt>
<trkpt lat="47.114494" lon="10.634675"><ele>881.0</ele><time>2017-03-04T18:54:00Z</time></trkpt>
<trkpt lat="47.11459" lon="10.634702"><ele>881.0</ele><time>2017-03-04T18:54:01Z</time></trkpt>
<trkpt lat="47.1148" lon="10.63493"><ele>881.0</ele><time>2017-03-04T18:54:02Z</time></trkpt>
<trkpt lat="47.114857" lon="10.63502"><ele>868.0</ele><time>2017-03-04T18:54:03Z</time></trkpt>
<trkpt lat="47.115045" lon="10.63539"><ele>913.0</ele><time>2017-03-04T18:54:06Z</time></trkpt>
<trkpt lat="47.115146" lon="10.63564"><ele>913.0</ele><time>2017-03-04T18:54:07Z</time></trkpt>
<trkpt lat="47.115178" lon="10.635736"><ele>913.0</ele><time>2017-03-04T18:54:07Z</time></trkpt>
<trkpt lat="47.115221" lon="10.636045"><ele>906.0</ele><time>2017-03-04T18:54:08Z</time></trkpt>
<trkpt lat="47.115252" lon="10.636147"><ele>906.0</ele><time>2017-03-04T18:54:09Z</time></trkpt>
<trkpt lat="47.115287" lon="10.636174"><ele>906.0</ele><time>2017-03-04T18:54:09Z</time></trkpt>
<trkpt lat="47.115332" lon="10.636151"><ele>906.0</ele><time>2017-03-04T18:54:09Z</time></trkpt>
<trkpt lat="47.115349" lon="10.63606"><ele>906.0</ele><time>2017-03-04T18:54:10Z</time></trkpt>
<trkpt lat="47.115336" lon="10.635787"><ele>913.0</ele><time>2017-03-04T18:54:11Z</time></trkpt>
<trkpt lat="47.115398" lon="10.635223"><ele>913.0</ele><time>2017-03-04T18:54:13Z</time></trkpt>
<trkpt lat="47.115399" lon="10.635075"><ele>913.0</ele><time>2017-03-04T18:54:13Z</time></trkpt>
<trkpt lat="47.115322" lon="10.634679"><ele>919.0</ele><time>2017-03-04T18:54:15Z</time></trkpt>
<trkpt lat="47.115335" lon="10.634599"><ele>919.0</ele><time>2017-03-04T18:54:15Z</time></trkpt>
<trkpt lat="47.115384" lon="10.634557"><ele>919.0</ele><time>2017-03-04T18:54:15Z</time></trkpt>
<trkpt lat="47.11543" lon="10.634589"><ele>919.0</ele><time>2017-03-04T18:54:15Z</time></trkpt>
<trkpt lat="47.115471" lon="10.634695"><ele>919.0</ele><time>2017-03-04T18:54:16Z</time></trkpt>
<trkpt lat="47.115522" lon="10.635015"><ele>913.0</ele><time>2017-03-04T18:54:17Z</time></trkpt>
<trkpt lat="47.115679" lon="10.635773"><ele>913.0</ele><time>2017-03-04T18:54:20Z</time></trkpt>
<trkpt lat="47.115794" lon="10.636253"><ele>906.0</ele><time>2017-03-04T18:54:22Z</time></trkpt>
<trkpt lat="47.115964" lon="10.636799"><ele>958.0</ele><time>2017-03-04T18:54:25Z</time></trkpt>
<trkpt lat="47.115982" lon="10.63699"><ele>958.0</ele><time>2017-03-04T18:54:26Z</time></trkpt>
<trkpt lat="47.115968" lon="10.637208"><ele>958.0</ele><time>2017-03-04T18:54:27Z</time></trkpt>
<trkpt lat="47.11578" lon="10.637831"><ele>908.0</ele><time>2017-03-04T18:54:30Z</time></trkpt>
<trkpt lat="47.115757" lon="10.63801"><ele>908.0</ele><time>2017-03-04T18:54:31Z</time></trkpt>
<trkpt lat="47.115757" lon="10.638128"><ele>908.0</ele><time>2017-03-04T18:54:31Z</time></trkpt>
<trkpt lat="47.115777" lon="10.638198"><ele>908.0</ele><time>2017-03-04T18:54:31Z</time></trkpt>
<trkpt lat="47.115812" lon="10.638241"><ele>908.0</ele><time>2017-03-04T18:54:31Z</time></trkpt>
<trkpt lat="47.115859" lon="10.638241"><ele>967.0</ele><time>2017-03-04T18:54:34Z</time></trkpt>
<trkpt lat="47.115909" lon="10.638171"><ele>967.0</ele><time>2017-03-04T18:54:35Z</time></trkpt>
<trkpt lat="47.11592" lon="10.637956"><ele>967.0</ele><time>2017-03-04T18:54:35Z</time></trkpt>
<trkpt lat="47.115969" lon="10.637797"><ele>967.0</ele><time>2017-03-04T18:54:36Z</time></trkpt>
<trkpt lat="47.116061" lon="10.637561"><ele>967.0</ele><time>2017-03-04T18:54:37Z</time></trkpt>
<trkpt lat="47.11618" lon="10.637322"><ele>958.0</ele><time>2017-03-04T18:54:38Z</time></trkpt>
<trkpt lat="47.116262" lon="10.637066"><ele>958.0</ele><time>2017-03-04T18:54:39Z</time></trkpt>
<trkpt lat="47.116339" lon="10.63651"><ele>957.0</ele><time>2017-03-04T18:54:41Z</time></trkpt>
<trkpt lat="47.116422" lon="10.635517"><ele>963.0</ele><time>2017-03-04T18:54:45Z</time></trkpt>
<trkpt lat="47.116379" lon="10.635132"><ele>963.0</ele><time>2017-03-04T18:54:46Z</time></trkpt>
<trkpt lat="47.11639" lon="10.635055"><ele>963.0</ele><time>2017-03-04T18:54:46Z</time></trkpt>
<trkpt lat="47.116428" lon="10.634998"><ele>969.0</ele><time>2017-03-04T18:54:47Z</time></trkpt>
<trkpt lat="47.116468" lon="10.63498"><ele>969.0</ele><time>2017-03-04T18:54:47Z</time></trkpt>
<trkpt lat="47.11652" lon="10.635017"><ele>963.0</ele><time>2017-03-04T18:54:47Z</time></trkpt>
<trkpt lat="47.116555" lon="10.635091"><ele>963.0</ele><time>2017-03-04T18:54:48Z</time></trkpt>
<trkpt lat="47.116661" lon="10.637486"><ele>958.0</ele><time>2017-03-04T18:54:56Z</time></trkpt>
<trkpt lat="47.116741" lon="10.638195"><ele>1029.0</ele><time>2017-03-04T18:55:01Z</time></trkpt>
<trkpt lat="47.116773" lon="10.638887"><ele>1022.0</ele><time>2017-03-04T18:55:03Z</time></trkpt>
<trkpt lat="47.116797" lon="10.640018"><ele>1027.0</ele><time>2017-03-04T18:55:07Z</time></trkpt>
<trkpt lat="47.116811" lon="10.640133"><ele>1027.0</ele><time>2017-03-04T18:55:08Z</time></trkpt>
<trkpt lat="47.116848" lon="10.640204"><ele>1027.0</ele><time>2017-03-04T18:55:08Z</time></trkpt>
<trkpt lat="47.116901" lon="10.640199"><ele>1027.0</ele><time>2017-03-04T18:55:08Z</time></trkpt>
<trkpt lat="47.116955" lon="10.640133"><ele>1027.0</ele><time>2017-03-04T18:55:09Z</time></trkpt>
<trkpt lat="47.117004" lon="10.639661"><ele>1020.0</ele><time>2017-03-04T18:55:10Z</time></trkpt>
<trkpt lat="47.117258" lon="10.638327"><ele>1029.0</ele><time>2017-03-04T18:55:15Z</time></trkpt>
<trkpt lat="47.117275" lon="10.638004"><ele>1029.0</ele><time>2017-03-04T18:55:16Z</time></trkpt>
<trkpt lat="47.117214" lon="10.637512"><ele>1029.0</ele><time>2017-03-04T18:55:18Z</time></trkpt>
<trkpt lat="47.117215" lon="10.637254"><ele>1027.0</ele><time>2017-03-04T18:55:19Z</time></trkpt>
<trkpt lat="47.117703" lon="10.63515"><ele>1050.0</ele><time>2017-03-04T18:55:27Z</time></trkpt>
<trkpt lat="47.117822" lon="10.634201"><ele>1048.0</ele><time>2017-03-04T18:55:31Z</time></trkpt>
<trkpt lat="47.117889" lon="10.633845"><ele>1047.0</ele><time>2017-03-04T18:55:32Z</time></trkpt>
<trkpt lat="47.118002" lon="10.633481"><ele>1047.0</ele><time>2017-03-04T18:55:33Z</time></trkpt>
<trkpt lat="47.11829" lon="10.632951"><ele>1041.0</ele><time>2017-03-04T18:55:36Z</time></trkpt>
<trkpt lat="47.118499" lon="10.632624"><ele>1060.0</ele><time>2017-03-04T18:55:38Z</time></trkpt>
<trkpt lat="47.118798" lon="10.632245"><ele>1061.0</ele><time>2017-03-04T18:55:40Z</time></trkpt>
<trkpt lat="47.118836" lon="10.632317"><ele>1061.0</ele><time>2017-03-04T18:55:40Z</time></trkpt>
<trkpt lat="47.118838" lon="10.632454"><ele>1061.0</ele><time>2017-03-04T18:55:40Z</time></trkpt>
<trkpt lat="47.118682" lon="10.633246"><ele>1060.0</ele><time>2017-03-04T18:55:43Z</time></trkpt>
<trkpt lat="47.118596" lon="10.63494"><ele>1080.0</ele><time>2017-03-04T18:55:50Z</time></trkpt>
<trkpt lat="47.118451" lon="10.635309"><ele>1082.0</ele><time>2017-03-04T18:55:51Z</time></trkpt>
<trkpt lat="47.118391" lon="10.635703"><ele>1082.0</ele><time>2017-03-04T18:55:52Z</time></trkpt>
<trkpt lat="47.1183" lon="10.636146"><ele>1060.0</ele><time>2017-03-04T18:55:54Z</time></trkpt>
<trkpt lat="47.118056" lon="10.637012"><ele>1073.0</ele><time>2017-03-04T18:55:58Z</time></trkpt>
<trkpt lat="47.118072" lon="10.637306"><ele>1073.0</ele><time>2017-03-04T18:55:59Z</time></trkpt>
<trkpt lat="47.11814" lon="10.637494"><ele>1073.0</ele><time>2017-03-04T18:56:00Z</time></trkpt>
<trkpt lat="47.11867" lon="10.638714"><ele>1104.0</ele><time>2017-03-04T18:56:05Z</time></trkpt>
<trkpt lat="47.118729" lon="10.6389"><ele>1104.0</ele><time>2017-03-04T18:56:06Z</time></trkpt>
<trkpt lat="47.118734" lon="10.639097"><ele>1104.0</ele><time>2017-03-04T18:56:06Z</time></trkpt>
<trkpt lat="47.118714" lon="10.639277"><ele>1111.0</ele><time>2017-03-04T18:56:07Z</time></trkpt>
<trkpt lat="47.118618" lon="10.639599"><ele>1111.0</ele><time>2017-03-04T18:56:08Z</time></trkpt>
<trkpt lat="47.118611" lon="10.639842"><ele>1111.0</ele><time>2017-03-04T18:56:09Z</time></trkpt>
<trkpt lat="47.118651" lon="10.640289"><ele>1116.0</ele><time>2017-03-04T18:56:11Z</time></trkpt>
<trkpt lat="47.118589" lon="10.640573"><ele>1116.0</ele><time>2017-03-04T18:56:12Z</time></trkpt>
<trkpt lat="47.118626" lon="10.640673"><ele>1116.0</ele><time>2017-03-04T18:56:12Z</time></trkpt>
<trkpt lat="47.118694" lon="10.64069"><ele>1116.0</ele><time>2017-03-04T18:56:13Z</time></trkpt>
<trkpt lat="47.118733" lon="10.640648"><ele>1116.0</ele><time>2017-03-04T18:56:13Z</time></trkpt>
<trkpt lat="47.118786" lon="10.640177"><ele>1116.0</ele><time>2017-03-04T18:56:15Z</time></trkpt>
<trkpt lat="47.118882" lon="10.639901"><ele>1111.0</ele><time>2017-03-04T18:56:16Z</time></trkpt>
<trkpt lat="47.11915" lon="10.639394"><ele>1111.0</ele><time>2017-03-04T18:56:18Z</time></trkpt>
<trkpt lat="47.119252" lon="10.638801"><ele>1123.0</ele><time>2017-03-04T18:56:20Z</time></trkpt>
<trkpt lat="47.119287" lon="10.638738"><ele>1123.0</ele><time>2017-03-04T18:56:21Z</time></trkpt>
<trkpt lat="47.119379" lon="10.63875"><ele>1123.0</ele><time>2017-03-04T18:56:21Z</time></trkpt>
<trkpt lat="47.119405" lon="10.638853"><ele>1123.0</ele><time>2017-03-04T18:56:22Z</time></trkpt>
<trkpt lat="47.119359" lon="10.639067"><ele>1123.0</ele><time>2017-03-04T18:56:22Z</time></trkpt>
<trkpt lat="47.119362" lon="10.639298"><ele>1134.0</ele><time>2017-03-04T18:56:23Z</time></trkpt>
<trkpt lat="47.119489" lon="10.63982"><ele>1134.0</ele><time>2017-03-04T18:56:25Z</time></trkpt>
<trkpt lat="47.119462" lon="10.640603"><ele>1144.0</ele><time>2017-03-04T18:56:28Z</time></trkpt>
<trkpt lat="47.119472" lon="10.640857"><ele>1149.0</ele><time>2017-03-04T18:56:29Z</time></trkpt>
<trkpt lat="47.119508" lon="10.641062"><ele>1149.0</ele><time>2017-03-04T18:56:30Z</time></trkpt>
<trkpt lat="47.119569" lon="10.64129"><ele>1149.0</ele><time>2017-03-04T18:56:31Z</time></trkpt>
<trkpt lat="47.119665" lon="10.64151"><ele>1149.0</ele><time>2017-03-04T18:56:32Z</time></trkpt>
<trkpt lat="47.119964" lon="10.642048"><ele>1152.0</ele><time>2017-03-04T18:56:34Z</time></trkpt>
<trkpt lat="47.120029" lon="10.64227"><ele>1184.0</ele><time>2017-03-04T18:56:36Z</time></trkpt>
<trkpt lat="47.120067" lon="10.6426"><ele>1189.0</ele><time>2017-03-04T18:56:37Z</time></trkpt>
<trkpt lat="47.120085" lon="10.642918"><ele>1189.0</ele><time>2017-03-04T18:56:38Z</time></trkpt>
<trkpt lat="47.120142" lon="10.643226"><ele>1189.0</ele><time>2017-03-04T18:56:39Z</time></trkpt>
<trkpt lat="47.120273" lon="10.643637"><ele>1186.0</ele><time>2017-03-04T18:56:41Z</time></trkpt>
<trkpt lat="47.120495" lon="10.645208"><ele>1193.0</ele><time>2017-03-04T18:56:47Z</time></trkpt>
<trkpt lat="47.120549" lon="10.646522"><ele>1200.0</ele><time>2017-03-04T18:56:51Z</time></trkpt>
<trkpt lat="47.120669" lon="10.647264"><ele>1202.0</ele><time>2017-03-04T18:56:54Z</time></trkpt>
<trkpt lat="47.120699" lon="10.648994"><ele>1209.0</ele><time>2017-03-04T18:57:00Z</time></trkpt>
<trkpt lat="47.120686" lon="10.649281"><ele>1214.0</ele><time>2017-03-04T18:57:01Z</time></trkpt>
<trkpt lat="47.120639" lon="10.6496"><ele>1214.0</ele><time>2017-03-04T18:57:03Z</time></trkpt>
<trkpt lat="47.120591" lon="10.650273"><ele>1228.0</ele><time>2017-03-04T18:57:05Z</time></trkpt>
<trkpt lat="47.120404" lon="10.651084"><ele>1240.0</ele><time>2017-03-04T18:57:08Z</time></trkpt>
<trkpt lat="47.120317" lon="10.651638"><ele>1240.0</ele><time>2017-03-04T18:57:10Z</time></trkpt>
<trkpt lat="47.120107" lon="10.652441"><ele>1257.0</ele><time>2017-03-04T18:57:13Z</time></trkpt>
<trkpt lat="47.120008" lon="10.652721"><ele>1276.0</ele><time>2017-03-04T18:57:15Z</time></trkpt>
<trkpt lat="47.119831" lon="10.653117"><ele>1226.0</ele><time>2017-03-04T18:57:18Z</time></trkpt>
<trkpt lat="47.119745" lon="10.653397"><ele>1254.0</ele><time>2017-03-04T18:57:19Z</time></trkpt>
<trkpt lat="47.119668" lon="10.653849"><ele>1254.0</ele><time>2017-03-04T18:57:21Z</time></trkpt>
<trkpt lat="47.119574" lon="10.654121"><ele>1254.0</ele><time>2017-03-04T18:57:22Z</time></trkpt>
<trkpt lat="47.119332" lon="10.65468"><ele>1285.0</ele><time>2017-03-04T18:57:25Z</time></trkpt>
<trkpt lat="47.119221" lon="10.654835"><ele>1285.0</ele><time>2017-03-04T18:57:26Z</time></trkpt>
<trkpt lat="47.118982" lon="10.655023"><ele>1279.0</ele><time>2017-03-04T18:57:27Z</time></trkpt>
<trkpt lat="47.118796" lon="10.655232"><ele>1279.0</ele><time>2017-03-04T18:57:28Z</time></trkpt>
<trkpt lat="47.118585" lon="10.655804"><ele>1279.0</ele><time>2017-03-04T18:57:31Z</time></trkpt>
<trkpt lat="47.118279" lon="10.656512"><ele>1265.0</ele><time>2017-03-04T18:57:34Z</time></trkpt>
<trkpt lat="47.118168" lon="10.656866"><ele>1293.0</ele><time>2017-03-04T18:57:36Z</time></trkpt>
<trkpt lat="47.117931" lon="10.658303"><ele>1314.0</ele><time>2017-03-04T18:57:41Z</time></trkpt>
<trkpt lat="47.117783" lon="10.658823"><ele>1327.0</ele><time>2017-03-04T18:57:43Z</time></trkpt>
<trkpt lat="47.117672" lon="10.659109"><ele>1327.0</ele><time>2017-03-04T18:57:44Z</time></trkpt>
<trkpt lat="47.11766" lon="10.659188"><ele>1338.0</ele><time>2017-03-04T18:57:45Z</time></trkpt>
<trkpt lat="47.117674" lon="10.659241"><ele>1338.0</ele><time>2017-03-04T18:57:45Z</time></trkpt>
<trkpt lat="47.11771" lon="10.659269"><ele>1338.0</ele><time>2017-03-04T18:57:45Z</time></trkpt>
<trkpt lat="47.117755" lon="10.65926"><ele>1338.0</ele><time>2017-03-04T18:57:46Z</time></trkpt>
<trkpt lat="47.117793" lon="10.659225"><ele>1338.0</ele><time>2017-03-04T18:57:46Z</time></trkpt>
<trkpt lat="47.117824" lon="10.659157"><ele>1327.0</ele><time>2017-03-04T18:57:47Z</time></trkpt>
<trkpt lat="47.117891" lon="10.658954"><ele>1327.0</ele><time>2017-03-04T18:57:47Z</time></trkpt>
<trkpt lat="47.118154" lon="10.658394"><ele>1327.0</ele><time>2017-03-04T18:57:50Z</time></trkpt>
<trkpt lat="47.118262" lon="10.6581"><ele>1314.0</ele><time>2017-03-04T18:57:51Z</time></trkpt>
<trkpt lat="47.118292" lon="10.657818"><ele>1314.0</ele><time>2017-03-04T18:57:52Z</time></trkpt>
<trkpt lat="47.1184" lon="10.657589"><ele>1361.0</ele><time>2017-03-04T18:57:55Z</time></trkpt>
<trkpt lat="47.118654" lon="10.657311"><ele>1337.0</ele><time>2017-03-04T18:57:57Z</time></trkpt>
<trkpt lat="47.118898" lon="10.656936"><ele>1337.0</ele><time>2017-03-04T18:57:58Z</time></trkpt>
<trkpt lat="47.119096" lon="10.656697"><ele>1337.0</ele><time>2017-03-04T18:58:00Z</time></trkpt>
<trkpt lat="47.119505" lon="10.656433"><ele>1343.0</ele><time>2017-03-04T18:58:02Z</time></trkpt>
<trkpt lat="47.119943" lon="10.655947"><ele>1343.0</ele><time>2017-03-04T18:58:05Z</time></trkpt>
<trkpt lat="47.120459" lon="10.655833"><ele>1344.0</ele><time>2017-03-04T18:58:08Z</time></trkpt>
<trkpt lat="47.120729" lon="10.655621"><ele>1344.0</ele><time>2017-03-04T18:58:09Z</time></trkpt>
<trkpt lat="47.12097" lon="10.655232"><ele>1383.0</ele><time>2017-03-04T18:58:12Z</time></trkpt>
<trkpt lat="47.12118" lon="10.6551"><ele>1383.0</ele><time>2017-03-04T18:58:13Z</time></trkpt>
<trkpt lat="47.121342" lon="10.654923"><ele>1364.0</ele><time>2017-03-04T18:58:15Z</time></trkpt>
<trkpt lat="47.121921" lon="10.653907"><ele>1381.0</ele><time>2017-03-04T18:58:19Z</time></trkpt>
<trkpt lat="47.122042" lon="10.653755"><ele>1381.0</ele><time>2017-03-04T18:58:20Z</time></trkpt>
<trkpt lat="47.122245" lon="10.653635"><ele>1381.0</ele><time>2017-03-04T18:58:21Z</time></trkpt>
<trkpt lat="47.122479" lon="10.653402"><ele>1381.0</ele><time>2017-03-04T18:58:23Z</time></trkpt>
<trkpt lat="47.122699" lon="10.653051"><ele>1407.0</ele><time>2017-03-04T18:58:25Z</time></trkpt>
<trkpt lat="47.122953" lon="10.652785"><ele>1407.0</ele><time>2017-03-04T18:58:27Z</time></trkpt>
<trkpt lat="47.123066" lon="10.652576"><ele>1407.0</ele><time>2017-03-04T18:58:28Z</time></trkpt>
<trkpt lat="47.123179" lon="10.652249"><ele>1390.0</ele><time>2017-03-04T18:58:29Z</time></trkpt>
<trkpt lat="47.123353" lon="10.651916"><ele>1439.0</ele><time>2017-03-04T18:58:32Z</time></trkpt>
<trkpt lat="47.123477" lon="10.651517"><ele>1417.0</ele><time>2017-03-04T18:58:34Z</time></trkpt>
<trkpt lat="47.123565" lon="10.651364"><ele>1417.0</ele><time>2017-03-04T18:58:34Z</time></trkpt>
<trkpt lat="47.123832" lon="10.651126"><ele>1417.0</ele><time>2017-03-04T18:58:36Z</time></trkpt>
<trkpt lat="47.124032" lon="10.650767"><ele>1398.0</ele><time>2017-03-04T18:58:38Z</time></trkpt>
<trkpt lat="47.124452" lon="10.650273"><ele>1438.0</ele><time>2017-03-04T18:58:41Z</time></trkpt>
<trkpt lat="47.124602" lon="10.649849"><ele>1417.0</ele><time>2017-03-04T18:58:43Z</time></trkpt>
<trkpt lat="47.124763" lon="10.649598"><ele>1417.0</ele><time>2017-03-04T18:58:45Z</time></trkpt>
<trkpt lat="47.124858" lon="10.6495"><ele>1417.0</ele><time>2017-03-04T18:58:45Z</time></trkpt>
<trkpt lat="47.124922" lon="10.649395"><ele>1417.0</ele><time>2017-03-04T18:58:46Z</time></trkpt>
<trkpt lat="47.124967" lon="10.649278"><ele>1417.0</ele><time>2017-03-04T18:58:46Z</time></trkpt>
<trkpt lat="47.125024" lon="10.64921"><ele>1446.0</ele><time>2017-03-04T18:58:48Z</time></trkpt>
<trkpt lat="47.125088" lon="10.649229"><ele>1446.0</ele><time>2017-03-04T18:58:48Z</time></trkpt>
<trkpt lat="47.12511" lon="10.649267"><ele>1446.0</ele><time>2017-03-04T18:58:48Z</time></trkpt>
<trkpt lat="47.125108" lon="10.649368"><ele>1446.0</ele><time>2017-03-04T18:58:48Z</time></trkpt>
<trkpt lat="47.125072" lon="10.649431"><ele>1446.0</ele><time>2017-03-04T18:58:49Z</time></trkpt>
<trkpt lat="47.124902" lon="10.649602"><ele>1417.0</ele><time>2017-03-04T18:58:50Z</time></trkpt>
<trkpt lat="47.124833" lon="10.649729"><ele>1417.0</ele><time>2017-03-04T18:58:51Z</time></trkpt>
<trkpt lat="47.124771" lon="10.649893"><ele>1417.0</ele><time>2017-03-04T18:58:52Z</time></trkpt>
<trkpt lat="47.124626" lon="10.650615"><ele>1438.0</ele><time>2017-03-04T18:58:55Z</time></trkpt>
<trkpt lat="47.124398" lon="10.650873"><ele>1465.0</ele><time>2017-03-04T18:58:57Z</time></trkpt>
<trkpt lat="47.124343" lon="10.651024"><ele>1465.0</ele><time>2017-03-04T18:58:57Z</time></trkpt>
<trkpt lat="47.124278" lon="10.651667"><ele>1487.0</ele><time>2017-03-04T18:59:00Z</time></trkpt>
<trkpt lat="47.123762" lon="10.653794"><ele>1471.0</ele><time>2017-03-04T18:59:08Z</time></trkpt>
<trkpt lat="47.123592" lon="10.654195"><ele>1489.0</ele><time>2017-03-04T18:59:10Z</time></trkpt>
<trkpt lat="47.123346" lon="10.654464"><ele>1489.0</ele><time>2017-03-04T18:59:11Z</time></trkpt>
<trkpt lat="47.123284" lon="10.654615"><ele>1445.0</ele><time>2017-03-04T18:59:13Z</time></trkpt>
<trkpt lat="47.123291" lon="10.655499"><ele>1463.0</ele><time>2017-03-04T18:59:17Z</time></trkpt>
<trkpt lat="47.123221" lon="10.655916"><ele>1478.0</ele><time>2017-03-04T18:59:18Z</time></trkpt>
<trkpt lat="47.122707" lon="10.656822"><ele>1501.0</ele><time>2017-03-04T18:59:23Z</time></trkpt>
<trkpt lat="47.122165" lon="10.657591"><ele>1499.0</ele><time>2017-03-04T18:59:27Z</time></trkpt>
<trkpt lat="47.121908" lon="10.657691"><ele>1499.0</ele><time>2017-03-04T18:59:28Z</time></trkpt>
<trkpt lat="47.121828" lon="10.657809"><ele>1499.0</ele><time>2017-03-04T18:59:29Z</time></trkpt>
<trkpt lat="47.121794" lon="10.658044"><ele>1499.0</ele><time>2017-03-04T18:59:30Z</time></trkpt>
<trkpt lat="47.121714" lon="10.658178"><ele>1499.0</ele><time>2017-03-04T18:59:30Z</time></trkpt>
<trkpt lat="47.121537" lon="10.658338"><ele>1494.0</ele><time>2017-03-04T18:59:31Z</time></trkpt>
<trkpt lat="47.121491" lon="10.659009"><ele>1494.0</ele><time>2017-03-04T18:59:34Z</time></trkpt>
<trkpt lat="47.121422" lon="10.659135"><ele>1494.0</ele><time>2017-03-04T18:59:34Z</time></trkpt>
<trkpt lat="47.121291" lon="10.659186"><ele>1513.0</ele><time>2017-03-04T18:59:35Z</time></trkpt>
<trkpt lat="47.121233" lon="10.659319"><ele>1513.0</ele><time>2017-03-04T18:59:36Z</time></trkpt>
<trkpt lat="47.121137" lon="10.659714"><ele>1513.0</ele><time>2017-03-04T18:59:38Z</time></trkpt>
<trkpt lat="47.120844" lon="10.660055"><ele>1530.0</ele><time>2017-03-04T18:59:40Z</time></trkpt>
<trkpt lat="47.120768" lon="10.660192"><ele>1502.0</ele><time>2017-03-04T18:59:41Z</time></trkpt>
<trkpt lat="47.120735" lon="10.660281"><ele>1502.0</ele><time>2017-03-04T18:59:41Z</time></trkpt>
<trkpt lat="47.120668" lon="10.660697"><ele>1502.0</ele><time>2017-03-04T18:59:43Z</time></trkpt>
<trkpt lat="47.120501" lon="10.661132"><ele>1520.0</ele><time>2017-03-04T18:59:45Z</time></trkpt>
<trkpt lat="47.120434" lon="10.661872"><ele>1534.0</ele><time>2017-03-04T18:59:48Z</time></trkpt>
<trkpt lat="47.120505" lon="10.662244"><ele>1534.0</ele><time>2017-03-04T18:59:49Z</time></trkpt>
<trkpt lat="47.120479" lon="10.662481"><ele>1534.0</ele><time>2017-03-04T18:59:50Z</time></trkpt>
<trkpt lat="47.120366" lon="10.662662"><ele>1541.0</ele><time>2017-03-04T18:59:51Z</time></trkpt>
<trkpt lat="47.119897" lon="10.662753"><ele>1517.0</ele><time>2017-03-04T18:59:54Z</time></trkpt>
<trkpt lat="47.11968" lon="10.663013"><ele>1517.0</ele><time>2017-03-04T18:59:55Z</time></trkpt>
<trkpt lat="47.119538" lon="10.6634"><ele>1546.0</ele><time>2017-03-04T18:59:57Z</time></trkpt>
<trkpt lat="47.11944" lon="10.664298"><ele>1558.0</ele><time>2017-03-04T19:00:00Z</time></trkpt>
<trkpt lat="47.119354" lon="10.664585"><ele>1558.0</ele><time>2017-03-04T19:00:02Z</time></trkpt>
<trkpt lat="47.119132" lon="10.664877"><ele>1538.0</ele><time>2017-03-04T19:00:03Z</time></trkpt>
<trkpt lat="47.118955" lon="10.665255"><ele>1549.0</ele><time>2017-03-04T19:00:05Z</time></trkpt>
<trkpt lat="47.118966" lon="10.665708"><ele>1549.0</ele><time>2017-03-04T19:00:07Z</time></trkpt>
<trkpt lat="47.118931" lon="10.665878"><ele>1560.0</ele><time>2017-03-04T19:00:08Z</time></trkpt>
<trkpt lat="47.118813" lon="10.666059"><ele>1560.0</ele><time>2017-03-04T19:00:08Z</time></trkpt>
<trkpt lat="47.118416" lon="10.666186"><ele>1560.0</ele><time>2017-03-04T19:00:11Z</time></trkpt>
<trkpt lat="47.118279" lon="10.66637"><ele>1550.0</ele><time>2017-03-04T19:00:12Z</time></trkpt>
<trkpt lat="47.118238" lon="10.666553"><ele>1550.0</ele><time>2017-03-04T19:00:12Z</time></trkpt>
<trkpt lat="47.118257" lon="10.66685"><ele>1562.0</ele><time>2017-03-04T19:00:14Z</time></trkpt>
<trkpt lat="47.118755" lon="10.666643"><ele>1560.0</ele><time>2017-03-04T19:00:16Z</time></trkpt>
<trkpt lat="47.118868" lon="10.666642"><ele>1560.0</ele><time>2017-03-04T19:00:17Z</time></trkpt>
<trkpt lat="47.119005" lon="10.666695"><ele>1562.0</ele><time>2017-03-04T19:00:18Z</time></trkpt>
<trkpt lat="47.119271" lon="10.66701"><ele>1552.0</ele><time>2017-03-04T19:00:19Z</time></trkpt>
<trkpt lat="47.119437" lon="10.667296"><ele>1552.0</ele><time>2017-03-04T19:00:21Z</time></trkpt>
<trkpt lat="47.119524" lon="10.667549"><ele>1549.0</ele><time>2017-03-04T19:00:22Z</time></trkpt>
<trkpt lat="47.119643" lon="10.667682"><ele>1549.0</ele><time>2017-03-04T19:00:23Z</time></trkpt>
<trkpt lat="47.120222" lon="10.668062"><ele>1556.0</ele><time>2017-03-04T19:00:26Z</time></trkpt>
<trkpt lat="47.121286" lon="10.668856"><ele>1548.0</ele><time>2017-03-04T19:00:32Z</time></trkpt>
<trkpt lat="47.121411" lon="10.668813"><ele>1548.0</ele><time>2017-03-04T19:00:33Z</time></trkpt>
<trkpt lat="47.12174" lon="10.669078"><ele>1536.0</ele><time>2017-03-04T19:00:35Z</time></trkpt>
<trkpt lat="47.121869" lon="10.669122"><ele>1536.0</ele><time>2017-03-04T19:00:36Z</time></trkpt>
<trkpt lat="47.122085" lon="10.669122"><ele>1536.0</ele><time>2017-03-04T19:00:37Z</time></trkpt>
<trkpt lat="47.122158" lon="10.669041"><ele>1536.0</ele><time>2017-03-04T19:00:37Z</time></trkpt>
<trkpt lat="47.122273" lon="10.668775"><ele>1536.0</ele><time>2017-03-04T19:00:38Z</time></trkpt>
<trkpt lat="47.122385" lon="10.668735"><ele>1536.0</ele><time>2017-03-04T19:00:39Z</time></trkpt>
<trkpt lat="47.122505" lon="10.668802"><ele>1534.0</ele><time>2017-03-04T19:00:40Z</time></trkpt>
<trkpt lat="47.122641" lon="10.669016"><ele>1534.0</ele><time>2017-03-04T19:00:41Z</time></trkpt>
<trkpt lat="47.122961" lon="10.669149"><ele>1534.0</ele><time>2017-03-04T19:00:42Z</time></trkpt>
<trkpt lat="47.12301" lon="10.669292"><ele>1530.0</ele><time>2017-03-04T19:00:43Z</time></trkpt>
<trkpt lat="47.123026" lon="10.669406"><ele>1530.0</ele><time>2017-03-04T19:00:43Z</time></trkpt>
<trkpt lat="47.123013" lon="10.669749"><ele>1530.0</ele><time>2017-03-04T19:00:45Z</time></trkpt>
<trkpt lat="47.122888" lon="10.67057"><ele>1529.0</ele><time>2017-03-04T19:00:48Z</time></trkpt>
<trkpt lat="47.122693" lon="10.67254"><ele>1523.0</ele><time>2017-03-04T19:00:55Z</time></trkpt>
<trkpt lat="47.122732" lon="10.672919"><ele>1523.0</ele><time>2017-03-04T19:00:56Z</time></trkpt>
<trkpt lat="47.122834" lon="10.673558"><ele>1516.0</ele><time>2017-03-04T19:00:59Z</time></trkpt>
<trkpt lat="47.122934" lon="10.674328"><ele>1504.0</ele><time>2017-03-04T19:01:01Z</time></trkpt>
<trkpt lat="47.123067" lon="10.675035"><ele>1489.0</ele><time>2017-03-04T19:01:04Z</time></trkpt>
<trkpt lat="47.123091" lon="10.675267"><ele>1489.0</ele><time>2017-03-04T19:01:05Z</time></trkpt>
<trkpt lat="47.123141" lon="10.675553"><ele>1489.0</ele><time>2017-03-04T19:01:06Z</time></trkpt>
<trkpt lat="47.123292" lon="10.675807"><ele>1489.0</ele><time>2017-03-04T19:01:07Z</time></trkpt>
<trkpt lat="47.12339" lon="10.676016"><ele>1506.0</ele><time>2017-03-04T19:01:08Z</time></trkpt>
<trkpt lat="47.123553" lon="10.676436"><ele>1506.0</ele><time>2017-03-04T19:01:10Z</time></trkpt>
<trkpt lat="47.12369" lon="10.676614"><ele>1506.0</ele><time>2017-03-04T19:01:11Z</time></trkpt>
<trkpt lat="47.123818" lon="10.677032"><ele>1484.0</ele><time>2017-03-04T19:01:13Z</time></trkpt>
<trkpt lat="47.123919" lon="10.67722"><ele>1484.0</ele><time>2017-03-04T19:01:14Z</time></trkpt>
<trkpt lat="47.123945" lon="10.677316"><ele>1484.0</ele><time>2017-03-04T19:01:14Z</time></trkpt>
<trkpt lat="47.124011" lon="10.677748"><ele>1463.0</ele><time>2017-03-04T19:01:16Z</time></trkpt>
<trkpt lat="47.124268" lon="10.67811"><ele>1492.0</ele><time>2017-03-04T19:01:18Z</time></trkpt>
<trkpt lat="47.124458" lon="10.678854"><ele>1472.0</ele><time>2017-03-04T19:01:21Z</time></trkpt>
<trkpt lat="47.124521" lon="10.679002"><ele>1472.0</ele><time>2017-03-04T19:01:22Z</time></trkpt>
<trkpt lat="47.124619" lon="10.679089"><ele>1472.0</ele><time>2017-03-04T19:01:23Z</time></trkpt>
<trkpt lat="47.124785" lon="10.679142"><ele>1472.0</ele><time>2017-03-04T19:01:24Z</time></trkpt>
<trkpt lat="47.12489" lon="10.679233"><ele>1443.0</ele><time>2017-03-04T19:01:25Z</time></trkpt>
<trkpt lat="47.125174" lon="10.679656"><ele>1445.0</ele><time>2017-03-04T19:01:27Z</time></trkpt>
<trkpt lat="47.12539" lon="10.679911"><ele>1445.0</ele><time>2017-03-04T19:01:29Z</time></trkpt>
<trkpt lat="47.125564" lon="10.68017"><ele>1429.0</ele><time>2017-03-04T19:01:30Z</time></trkpt>
<trkpt lat="47.125707" lon="10.680324"><ele>1429.0</ele><time>2017-03-04T19:01:31Z</time></trkpt>
<trkpt lat="47.125832" lon="10.680391"><ele>1429.0</ele><time>2017-03-04T19:01:32Z</time></trkpt>
<trkpt lat="47.126132" lon="10.680454"><ele>1428.0</ele><time>2017-03-04T19:01:33Z</time></trkpt>
<trkpt lat="47.126279" lon="10.680381"><ele>1428.0</ele><time>2017-03-04T19:01:34Z</time></trkpt>
<trkpt lat="47.126384" lon="10.680381"><ele>1428.0</ele><time>2017-03-04T19:01:35Z</time></trkpt>
<trkpt lat="47.126446" lon="10.680449"><ele>1428.0</ele><time>2017-03-04T19:01:35Z</time></trkpt>
<trkpt lat="47.126492" lon="10.680531"><ele>1428.0</ele><time>2017-03-04T19:01:36Z</time></trkpt>
<trkpt lat="47.126534" lon="10.68066"><ele>1428.0</ele><time>2017-03-04T19:01:36Z</time></trkpt>
<trkpt lat="47.126632" lon="10.680742"><ele>1428.0</ele><time>2017-03-04T19:01:37Z</time></trkpt>
<trkpt lat="47.126737" lon="10.68079"><ele>1440.0</ele><time>2017-03-04T19:01:37Z</time></trkpt>
<trkpt lat="47.126789" lon="10.6809"><ele>1430.0</ele><time>2017-03-04T19:01:38Z</time></trkpt>
<trkpt lat="47.126812" lon="10.68139"><ele>1430.0</ele><time>2017-03-04T19:01:40Z</time></trkpt>
<trkpt lat="47.126851" lon="10.681583"><ele>1430.0</ele><time>2017-03-04T19:01:41Z</time></trkpt>
<trkpt lat="47.127149" lon="10.682279"><ele>1413.0</ele><time>2017-03-04T19:01:44Z</time></trkpt>
<trkpt lat="47.127362" lon="10.682563"><ele>1399.0</ele><time>2017-03-04T19:01:45Z</time></trkpt>
<trkpt lat="47.127397" lon="10.682683"><ele>1399.0</ele><time>2017-03-04T19:01:46Z</time></trkpt>
<trkpt lat="47.127438" lon="10.682992"><ele>1399.0</ele><time>2017-03-04T19:01:47Z</time></trkpt>
<trkpt lat="47.127464" lon="10.683744"><ele>1387.0</ele><time>2017-03-04T19:01:50Z</time></trkpt>
<trkpt lat="47.127509" lon="10.683873"><ele>1380.0</ele><time>2017-03-04T19:01:50Z</time></trkpt>
<trkpt lat="47.127803" lon="10.684207"><ele>1371.0</ele><time>2017-03-04T19:01:52Z</time></trkpt>
<trkpt lat="47.127846" lon="10.684312"><ele>1371.0</ele><time>2017-03-04T19:01:53Z</time></trkpt>
<trkpt lat="47.12801" lon="10.68491"><ele>1371.0</ele><time>2017-03-04T19:01:55Z</time></trkpt>
<trkpt lat="47.128068" lon="10.685034"><ele>1369.0</ele><time>2017-03-04T19:01:56Z</time></trkpt>
<trkpt lat="47.128198" lon="10.685244"><ele>1369.0</ele><time>2017-03-04T19:01:57Z</time></trkpt>
<trkpt lat="47.128287" lon="10.685434"><ele>1369.0</ele><time>2017-03-04T19:01:57Z</time></trkpt>
<trkpt lat="47.128298" lon="10.685505"><ele>1369.0</ele><time>2017-03-04T19:01:58Z</time></trkpt>
<trkpt lat="47.128279" lon="10.685582"><ele>1369.0</ele><time>2017-03-04T19:01:58Z</time></trkpt>
<trkpt lat="47.128245" lon="10.685636"><ele>1369.0</ele><time>2017-03-04T19:01:58Z</time></trkpt>
<trkpt lat="47.128017" lon="10.685814"><ele>1369.0</ele><time>2017-03-04T19:02:00Z</time></trkpt>
<trkpt lat="47.127974" lon="10.685894"><ele>1363.0</ele><time>2017-03-04T19:02:00Z</time></trkpt>
<trkpt lat="47.12798" lon="10.68597"><ele>1363.0</ele><time>2017-03-04T19:02:00Z</time></trkpt>
<trkpt lat="47.128088" lon="10.686141"><ele>1363.0</ele><time>2017-03-04T19:02:01Z</time></trkpt>
<trkpt lat="47.128655" lon="10.686466"><ele>1362.0</ele><time>2017-03-04T19:02:04Z</time></trkpt>
<trkpt lat="47.128836" lon="10.686659"><ele>1362.0</ele><time>2017-03-04T19:02:05Z</time></trkpt>
<trkpt lat="47.129387" lon="10.687567"><ele>1358.0</ele><time>2017-03-04T19:02:10Z</time></trkpt>
<trkpt lat="47.129698" lon="10.688017"><ele>1358.0</ele><time>2017-03-04T19:02:12Z</time></trkpt>
<trkpt lat="47.130634" lon="10.688793"><ele>1361.0</ele><time>2017-03-04T19:02:18Z</time></trkpt>
<trkpt lat="47.130677" lon="10.688811"><ele>1361.0</ele><time>2017-03-04T19:02:18Z</time></trkpt>
<trkpt lat="47.130736" lon="10.688824"><ele>1361.0</ele><time>2017-03-04T19:02:18Z</time></trkpt>
<trkpt lat="47.131256" lon="10.688694"><ele>1372.0</ele><time>2017-03-04T19:02:21Z</time></trkpt>
<trkpt lat="47.131476" lon="10.688709"><ele>1372.0</ele><time>2017-03-04T19:02:22Z</time></trkpt>
<trkpt lat="47.13167" lon="10.688912"><ele>1379.0</ele><time>2017-03-04T19:02:24Z</time></trkpt>
<trkpt lat="47.132568" lon="10.69025"><ele>1364.0</ele><time>2017-03-04T19:02:30Z</time></trkpt>
<trkpt lat="47.132728" lon="10.690382"><ele>1364.0</ele><time>2017-03-04T19:02:31Z</time></trkpt>
<trkpt lat="47.133807" lon="10.69088"><ele>1362.0</ele><time>2017-03-04T19:02:37Z</time></trkpt>
<trkpt lat="47.134108" lon="10.691117"><ele>1362.0</ele><time>2017-03-04T19:02:39Z</time></trkpt>
<trkpt lat="47.1342" lon="10.691237"><ele>1361.0</ele><time>2017-03-04T19:02:40Z</time></trkpt>
<trkpt lat="47.134566" lon="10.691855"><ele>1355.0</ele><time>2017-03-04T19:02:43Z</time></trkpt>
<trkpt lat="47.134713" lon="10.69219"><ele>1355.0</ele><time>2017-03-04T19:02:44Z</time></trkpt>
<trkpt lat="47.135508" lon="10.693574"><ele>1346.0</ele><time>2017-03-04T19:02:50Z</time></trkpt>
<trkpt lat="47.135974" lon="10.69418"><ele>1355.0</ele><time>2017-03-04T19:02:54Z</time></trkpt>
<trkpt lat="47.136076" lon="10.694432"><ele>1355.0</ele><time>2017-03-04T19:02:55Z</time></trkpt>
<trkpt lat="47.136116" lon="10.694674"><ele>1355.0</ele><time>2017-03-04T19:02:56Z</time></trkpt>
<trkpt lat="47.136101" lon="10.694908"><ele>1355.0</ele><time>2017-03-04T19:02:57Z</time></trkpt>
<trkpt lat="47.136031" lon="10.695431"><ele>1352.0</ele><time>2017-03-04T19:02:58Z</time></trkpt>
<trkpt lat="47.13603" lon="10.695753"><ele>1352.0</ele><time>2017-03-04T19:03:00Z</time></trkpt>
<trkpt lat="47.136123" lon="10.69655"><ele>1342.0</ele><time>2017-03-04T19:03:03Z</time></trkpt>
<trkpt lat="47.136203" lon="10.696961"><ele>1326.0</ele><time>2017-03-04T19:03:04Z</time></trkpt>
<trkpt lat="47.136259" lon="10.69715"><ele>1326.0</ele><time>2017-03-04T19:03:05Z</time></trkpt>
<trkpt lat="47.136325" lon="10.697308"><ele>1326.0</ele><time>2017-03-04T19:03:06Z</time></trkpt>
<trkpt lat="47.136466" lon="10.697531"><ele>1316.0</ele><time>2017-03-04T19:03:07Z</time></trkpt>
<trkpt lat="47.136829" lon="10.69795"><ele>1321.0</ele><time>2017-03-04T19:03:09Z</time></trkpt>
<trkpt lat="47.136917" lon="10.698128"><ele>1321.0</ele><time>2017-03-04T19:03:10Z</time></trkpt>
<trkpt lat="47.136952" lon="10.698261"><ele>1321.0</ele><time>2017-03-04T19:03:11Z</time></trkpt>
<trkpt lat="47.13701" lon="10.698705"><ele>1321.0</ele><time>2017-03-04T19:03:12Z</time></trkpt>
<trkpt lat="47.137114" lon="10.699132"><ele>1321.0</ele><time>2017-03-04T19:03:14Z</time></trkpt>
<trkpt lat="47.137293" lon="10.69963"><ele>1310.0</ele><time>2017-03-04T19:03:16Z</time></trkpt>
<trkpt lat="47.137534" lon="10.700034"><ele>1322.0</ele><time>2017-03-04T19:03:18Z</time></trkpt>
<trkpt lat="47.137593" lon="10.700228"><ele>1322.0</ele><time>2017-03-04T19:03:19Z</time></trkpt>
<trkpt lat="47.137625" lon="10.700585"><ele>1322.0</ele><time>2017-03-04T19:03:20Z</time></trkpt>
<trkpt lat="47.13788" lon="10.701469"><ele>1302.0</ele><time>2017-03-04T19:03:23Z</time></trkpt>
<trkpt lat="47.137991" lon="10.701643"><ele>1302.0</ele><time>2017-03-04T19:03:24Z</time></trkpt>
<trkpt lat="47.138304" lon="10.701962"><ele>1286.0</ele><time>2017-03-04T19:03:26Z</time></trkpt>
<trkpt lat="47.138439" lon="10.702184"><ele>1300.0</ele><time>2017-03-04T19:03:28Z</time></trkpt>
<trkpt lat="47.138862" lon="10.703078"><ele>1279.0</ele><time>2017-03-04T19:03:32Z</time></trkpt>
<trkpt lat="47.139239" lon="10.703583"><ele>1252.0</ele><time>2017-03-04T19:03:35Z</time></trkpt>
<trkpt lat="47.139372" lon="10.703852"><ele>1252.0</ele><time>2017-03-04T19:03:36Z</time></trkpt>
<trkpt lat="47.139419" lon="10.704107"><ele>1252.0</ele><time>2017-03-04T19:03:37Z</time></trkpt>
<trkpt lat="47.139433" lon="10.704345"><ele>1252.0</ele><time>2017-03-04T19:03:38Z</time></trkpt>
<trkpt lat="47.139365" lon="10.704603"><ele>1252.0</ele><time>2017-03-04T19:03:39Z</time></trkpt>
<trkpt lat="47.139259" lon="10.704791"><ele>1252.0</ele><time>2017-03-04T19:03:39Z</time></trkpt>
<trkpt lat="47.139096" lon="10.704912"><ele>1271.0</ele><time>2017-03-04T19:03:41Z</time></trkpt>
<trkpt lat="47.138829" lon="10.704958"><ele>1271.0</ele><time>2017-03-04T19:03:42Z</time></trkpt>
<trkpt lat="47.138559" lon="10.704963"><ele>1271.0</ele><time>2017-03-04T19:03:44Z</time></trkpt>
<trkpt lat="47.138427" lon="10.704922"><ele>1271.0</ele><time>2017-03-04T19:03:44Z</time></trkpt>
<trkpt lat="47.138188" lon="10.704773"><ele>1271.0</ele><time>2017-03-04T19:03:46Z</time></trkpt>
<trkpt lat="47.137899" lon="10.704535"><ele>1271.0</ele><time>2017-03-04T19:03:47Z</time></trkpt>
<trkpt lat="47.137789" lon="10.704476"><ele>1271.0</ele><time>2017-03-04T19:03:48Z</time></trkpt>
<trkpt lat="47.137707" lon="10.70448"><ele>1271.0</ele><time>2017-03-04T19:03:48Z</time></trkpt>
<trkpt lat="47.137657" lon="10.70451"><ele>1271.0</ele><time>2017-03-04T19:03:49Z</time></trkpt>
<trkpt lat="47.13763" lon="10.704559"><ele>1271.0</ele><time>2017-03-04T19:03:49Z</time></trkpt>
<trkpt lat="47.137618" lon="10.704642"><ele>1271.0</ele><time>2017-03-04T19:03:49Z</time></trkpt>
<trkpt lat="47.137631" lon="10.704746"><ele>1271.0</ele><time>2017-03-04T19:03:50Z</time></trkpt>
<trkpt lat="47.137815" lon="10.704958"><ele>1271.0</ele><time>2017-03-04T19:03:51Z</time></trkpt>
<trkpt lat="47.138953" lon="10.706065"><ele>1245.0</ele><time>2017-03-04T19:03:58Z</time></trkpt>
<trkpt lat="47.139206" lon="10.706417"><ele>1250.0</ele><time>2017-03-04T19:04:00Z</time></trkpt>
<trkpt lat="47.139571" lon="10.70714"><ele>1242.0</ele><time>2017-03-04T19:04:03Z</time></trkpt>
<trkpt lat="47.139695" lon="10.707238"><ele>1242.0</ele><time>2017-03-04T19:04:04Z</time></trkpt>
<trkpt lat="47.139862" lon="10.707239"><ele>1242.0</ele><time>2017-03-04T19:04:05Z</time></trkpt>
<trkpt lat="47.140267" lon="10.706973"><ele>1231.0</ele><time>2017-03-04T19:04:07Z</time></trkpt>
<trkpt lat="47.140489" lon="10.706935"><ele>1231.0</ele><time>2017-03-04T19:04:08Z</time></trkpt>
<trkpt lat="47.140935" lon="10.707055"><ele>1224.0</ele><time>2017-03-04T19:04:11Z</time></trkpt>
<trkpt lat="47.141349" lon="10.707218"><ele>1224.0</ele><time>2017-03-04T19:04:13Z</time></trkpt>
<trkpt lat="47.141474" lon="10.707327"><ele>1224.0</ele><time>2017-03-04T19:04:14Z</time></trkpt>
<trkpt lat="47.141675" lon="10.70769"><ele>1222.0</ele><time>2017-03-04T19:04:15Z</time></trkpt>
<trkpt lat="47.142048" lon="10.70891"><ele>1217.0</ele><time>2017-03-04T19:04:20Z</time></trkpt>
<trkpt lat="47.142276" lon="10.709362"><ele>1210.0</ele><time>2017-03-04T19:04:22Z</time></trkpt>
<trkpt lat="47.143457" lon="10.711349"><ele>1211.0</ele><time>2017-03-04T19:04:32Z</time></trkpt>
<trkpt lat="47.143642" lon="10.711597"><ele>1211.0</ele><time>2017-03-04T19:04:33Z</time></trkpt>
<trkpt lat="47.143985" lon="10.711975"><ele>1191.0</ele><time>2017-03-04T19:04:35Z</time></trkpt>
<trkpt lat="47.144739" lon="10.712557"><ele>1182.0</ele><time>2017-03-04T19:04:40Z</time></trkpt>
<trkpt lat="47.145729" lon="10.713376"><ele>1178.0</ele><time>2017-03-04T19:04:46Z</time></trkpt>
<trkpt lat="47.146012" lon="10.713659"><ele>1184.0</ele><time>2017-03-04T19:04:48Z</time></trkpt>
<trkpt lat="47.146282" lon="10.714046"><ele>1184.0</ele><time>2017-03-04T19:04:50Z</time></trkpt>
<trkpt lat="47.146414" lon="10.714276"><ele>1175.0</ele><time>2017-03-04T19:04:51Z</time></trkpt>
<trkpt lat="47.146808" lon="10.715072"><ele>1171.0</ele><time>2017-03-04T19:04:54Z</time></trkpt>
<trkpt lat="47.146992" lon="10.715342"><ele>1171.0</ele><time>2017-03-04T19:04:56Z</time></trkpt>
<trkpt lat="47.147869" lon="10.716377"><ele>1168.0</ele><time>2017-03-04T19:05:02Z</time></trkpt>
<trkpt lat="47.148102" lon="10.71661"><ele>1168.0</ele><time>2017-03-04T19:05:03Z</time></trkpt>
<trkpt lat="47.149626" lon="10.71764"><ele>1171.0</ele><time>2017-03-04T19:05:12Z</time></trkpt>
<trkpt lat="47.149906" lon="10.717899"><ele>1171.0</ele><time>2017-03-04T19:05:14Z</time></trkpt>
<trkpt lat="47.150065" lon="10.718158"><ele>1195.0</ele><time>2017-03-04T19:05:15Z</time></trkpt>
<trkpt lat="47.150137" lon="10.718353"><ele>1177.0</ele><time>2017-03-04T19:05:17Z</time></trkpt>
<trkpt lat="47.150184" lon="10.718562"><ele>1177.0</ele><time>2017-03-04T19:05:17Z</time></trkpt>
<trkpt lat="47.150208" lon="10.718773"><ele>1177.0</ele><time>2017-03-04T19:05:18Z</time></trkpt>
<trkpt lat="47.150206" lon="10.719081"><ele>1177.0</ele><time>2017-03-04T19:05:19Z</time></trkpt>
<trkpt lat="47.150131" lon="10.720486"><ele>1166.0</ele><time>2017-03-04T19:05:24Z</time></trkpt>
<trkpt lat="47.150014" lon="10.721137"><ele>1163.0</ele><time>2017-03-04T19:05:27Z</time></trkpt>
<trkpt lat="47.149995" lon="10.721337"><ele>1149.0</ele><time>2017-03-04T19:05:28Z</time></trkpt>
<trkpt lat="47.149992" lon="10.721533"><ele>1149.0</ele><time>2017-03-04T19:05:28Z</time></trkpt>
<trkpt lat="47.150038" lon="10.721874"><ele>1159.0</ele><time>2017-03-04T19:05:30Z</time></trkpt>
<trkpt lat="47.15039" lon="10.723393"><ele>1143.0</ele><time>2017-03-04T19:05:35Z</time></trkpt>
<trkpt lat="47.150478" lon="10.723666"><ele>1143.0</ele><time>2017-03-04T19:05:36Z</time></trkpt>
<trkpt lat="47.150623" lon="10.723997"><ele>1143.0</ele><time>2017-03-04T19:05:38Z</time></trkpt>
<trkpt lat="47.150781" lon="10.724266"><ele>1133.0</ele><time>2017-03-04T19:05:39Z</time></trkpt>
<trkpt lat="47.151742" lon="10.725572"><ele>1130.5</ele><time>2017-03-04T19:05:53Z</time></trkpt>
<trkpt lat="47.151742" lon="10.725572"><ele>1130.5</ele><time>2017-03-04T19:05:53Z</time></trkpt>
<trkpt lat="47.151932" lon="10.725831"><ele>1128.0</ele><time>2017-03-04T19:05:55Z</time></trkpt>
<trkpt lat="47.152202" lon="10.726085"><ele>1118.0</ele><time>2017-03-04T19:05:56Z</time></trkpt>
<trkpt lat="47.152431" lon="10.726187"><ele>1118.0</ele><time>2017-03-04T19:05:58Z</time></trkpt>
<trkpt lat="47.15273" lon="10.726244"><ele>1121.0</ele><time>2017-03-04T19:05:59Z</time></trkpt>
<trkpt lat="47.152911" lon="10.726307"><ele>1121.0</ele><time>2017-03-04T19:06:00Z</time></trkpt>
<trkpt lat="47.153451" lon="10.726609"><ele>1109.0</ele><time>2017-03-04T19:06:03Z</time></trkpt>
<trkpt lat="47.153724" lon="10.726708"><ele>1099.0</ele><time>2017-03-04T19:06:05Z</time></trkpt>
<trkpt lat="47.154475" lon="10.726812"><ele>1097.0</ele><time>2017-03-04T19:06:09Z</time></trkpt>
<trkpt lat="47.154928" lon="10.72684"><ele>1097.0</ele><time>2017-03-04T19:06:11Z</time></trkpt>
<trkpt lat="47.155068" lon="10.72683"><ele>1090.0</ele><time>2017-03-04T19:06:12Z</time></trkpt>
<trkpt lat="47.155202" lon="10.726792"><ele>1090.0</ele><time>2017-03-04T19:06:13Z</time></trkpt>
<trkpt lat="47.155518" lon="10.726628"><ele>1097.0</ele><time>2017-03-04T19:06:14Z</time></trkpt>
<trkpt lat="47.155984" lon="10.726198"><ele>1096.0</ele><time>2017-03-04T19:06:17Z</time></trkpt>
<trkpt lat="47.156059" lon="10.72617"><ele>1096.0</ele><time>2017-03-04T19:06:18Z</time></trkpt>
<trkpt lat="47.156187" lon="10.726197"><ele>1096.0</ele><time>2017-03-04T19:06:18Z</time></trkpt>
<trkpt lat="47.157763" lon="10.726875"><ele>1077.0</ele><time>2017-03-04T19:06:27Z</time></trkpt>
<trkpt lat="47.157885" lon="10.726905"><ele>1077.0</ele><time>2017-03-04T19:06:28Z</time></trkpt>
<trkpt lat="47.157993" lon="10.726911"><ele>1077.0</ele><time>2017-03-04T19:06:28Z</time></trkpt>
<trkpt lat="47.158247" lon="10.72683"><ele>1077.0</ele><time>2017-03-04T19:06:30Z</time></trkpt>
<trkpt lat="47.158459" lon="10.726685"><ele>1063.0</ele><time>2017-03-04T19:06:31Z</time></trkpt>
<trkpt lat="47.158798" lon="10.726365"><ele>1079.0</ele><time>2017-03-04T19:06:33Z</time></trkpt>
<trkpt lat="47.158953" lon="10.726297"><ele>1079.0</ele><time>2017-03-04T19:06:34Z</time></trkpt>
<trkpt lat="47.159059" lon="10.726296"><ele>1079.0</ele><time>2017-03-04T19:06:35Z</time></trkpt>
<trkpt lat="47.159941" lon="10.72649"><ele>1091.0</ele><time>2017-03-04T19:06:39Z</time></trkpt>
<trkpt lat="47.160117" lon="10.726572"><ele>1102.0</ele><time>2017-03-04T19:06:40Z</time></trkpt>
<trkpt lat="47.160241" lon="10.726661"><ele>1102.0</ele><time>2017-03-04T19:06:41Z</time></trkpt>
<trkpt lat="47.161013" lon="10.727321"><ele>1094.0</ele><time>2017-03-04T19:06:46Z</time></trkpt>
<trkpt lat="47.161381" lon="10.727604"><ele>1074.0</ele><time>2017-03-04T19:06:48Z</time></trkpt>
<trkpt lat="47.161616" lon="10.727745"><ele>1074.0</ele><time>2017-03-04T19:06:50Z</time></trkpt>
<trkpt lat="47.162638" lon="10.728035"><ele>1072.0</ele><time>2017-03-04T19:06:55Z</time></trkpt>
<trkpt lat="47.163306" lon="10.728086"><ele>1072.0</ele><time>2017-03-04T19:06:59Z</time></trkpt>
<trkpt lat="47.163483" lon="10.728164"><ele>1076.0</ele><time>2017-03-04T19:07:00Z</time></trkpt>
<trkpt lat="47.164063" lon="10.728608"><ele>1056.0</ele><time>2017-03-04T19:07:03Z</time></trkpt>
<trkpt lat="47.164281" lon="10.728799"><ele>1060.0</ele><time>2017-03-04T19:07:04Z</time></trkpt>
<trkpt lat="47.164546" lon="10.728969"><ele>1060.0</ele><time>2017-03-04T19:07:06Z</time></trkpt>
<trkpt lat="47.164707" lon="10.729099"><ele>1060.0</ele><time>2017-03-04T19:07:07Z</time></trkpt>
<trkpt lat="47.165115" lon="10.729534"><ele>1036.0</ele><time>2017-03-04T19:07:10Z</time></trkpt>
<trkpt lat="47.165278" lon="10.729604"><ele>1036.0</ele><time>2017-03-04T19:07:11Z</time></trkpt>
<trkpt lat="47.165403" lon="10.729608"><ele>1036.0</ele><time>2017-03-04T19:07:11Z</time></trkpt>
<trkpt lat="47.16572" lon="10.729569"><ele>1036.0</ele><time>2017-03-04T19:07:13Z</time></trkpt>
<trkpt lat="47.165922" lon="10.729612"><ele>1035.0</ele><time>2017-03-04T19:07:14Z</time></trkpt>
<trkpt lat="47.166312" lon="10.729832"><ele>1035.0</ele><time>2017-03-04T19:07:16Z</time></trkpt>
<trkpt lat="47.166635" lon="10.729917"><ele>1035.0</ele><time>2017-03-04T19:07:18Z</time></trkpt>
<trkpt lat="47.16704" lon="10.729909"><ele>1035.0</ele><time>2017-03-04T19:07:20Z</time></trkpt>
<trkpt lat="47.167313" lon="10.729938"><ele>1035.0</ele><time>2017-03-04T19:07:21Z</time></trkpt>
<trkpt lat="47.167629" lon="10.730013"><ele>1020.0</ele><time>2017-03-04T19:07:23Z</time></trkpt>
<trkpt lat="47.167806" lon="10.730083"><ele>1020.0</ele><time>2017-03-04T19:07:24Z</time></trkpt>
<trkpt lat="47.168059" lon="10.730221"><ele>1020.0</ele><time>2017-03-04T19:07:26Z</time></trkpt>
<trkpt lat="47.168476" lon="10.730258"><ele>1018.0</ele><time>2017-03-04T19:07:28Z</time></trkpt>
<trkpt lat="47.168887" lon="10.730447"><ele>1018.0</ele><time>2017-03-04T19:07:30Z</time></trkpt>
<trkpt lat="47.169175" lon="10.730362"><ele>1015.0</ele><time>2017-03-04T19:07:32Z</time></trkpt>
<trkpt lat="47.169269" lon="10.730358"><ele>1015.0</ele><time>2017-03-04T19:07:32Z</time></trkpt>
<trkpt lat="47.169305" lon="10.730493"><ele>1015.0</ele><time>2017-03-04T19:07:33Z</time></trkpt>
<trkpt lat="47.169282" lon="10.730551"><ele>1015.0</ele><time>2017-03-04T19:07:33Z</time></trkpt>
<trkpt lat="47.169199" lon="10.730629"><ele>1015.0</ele><time>2017-03-04T19:07:33Z</time></trkpt>
<trkpt lat="47.169146" lon="10.730714"><ele>1018.0</ele><time>2017-03-04T19:07:34Z</time></trkpt>
<trkpt lat="47.169139" lon="10.73082"><ele>1018.0</ele><time>2017-03-04T19:07:34Z</time></trkpt>
<trkpt lat="47.169143" lon="10.730881"><ele>1004.0</ele><time>2017-03-04T19:07:36Z</time></trkpt>
<trkpt lat="47.169774" lon="10.730794"><ele>1015.0</ele><time>2017-03-04T19:07:39Z</time></trkpt>
<trkpt lat="47.170035" lon="10.730725"><ele>1018.0</ele><time>2017-03-04T19:07:41Z</time></trkpt>
<trkpt lat="47.170131" lon="10.730726"><ele>1018.0</ele><time>2017-03-04T19:07:41Z</time></trkpt>
<trkpt lat="47.17157" lon="10.73129"><ele>1000.0</ele><time>2017-03-04T19:07:49Z</time></trkpt>
<trkpt lat="47.172203" lon="10.731322"><ele>1008.0</ele><time>2017-03-04T19:07:53Z</time></trkpt>
<trkpt lat="47.17237" lon="10.731371"><ele>1008.0</ele><time>2017-03-04T19:07:54Z</time></trkpt>
<trkpt lat="47.172986" lon="10.731713"><ele>989.0</ele><time>2017-03-04T19:07:57Z</time></trkpt>
<trkpt lat="47.173539" lon="10.731952"><ele>1003.0</ele><time>2017-03-04T19:08:01Z</time></trkpt>
<trkpt lat="47.17367" lon="10.732037"><ele>1003.0</ele><time>2017-03-04T19:08:01Z</time></trkpt>
<trkpt lat="47.173751" lon="10.732127"><ele>1003.0</ele><time>2017-03-04T19:08:02Z</time></trkpt>
<trkpt lat="47.173828" lon="10.73228"><ele>1003.0</ele><time>2017-03-04T19:08:03Z</time></trkpt>
<trkpt lat="47.17389" lon="10.732459"><ele>1003.0</ele><time>2017-03-04T19:08:03Z</time></trkpt>
<trkpt lat="47.174053" lon="10.733296"><ele>991.0</ele><time>2017-03-04T19:08:07Z</time></trkpt>
<trkpt lat="47.174119" lon="10.733455"><ele>979.0</ele><time>2017-03-04T19:08:08Z</time></trkpt>
<trkpt lat="47.174207" lon="10.733565"><ele>1002.0</ele><time>2017-03-04T19:08:09Z</time></trkpt>
<trkpt lat="47.17442" lon="10.733768"><ele>1002.0</ele><time>2017-03-04T19:08:10Z</time></trkpt>
<trkpt lat="47.174505" lon="10.733884"><ele>1002.0</ele><time>2017-03-04T19:08:11Z</time></trkpt>
<trkpt lat="47.174553" lon="10.734013"><ele>1002.0</ele><time>2017-03-04T19:08:12Z</time></trkpt>
<trkpt lat="47.174623" lon="10.734363"><ele>987.0</ele><time>2017-03-04T19:08:13Z</time></trkpt>
<trkpt lat="47.174679" lon="10.734469"><ele>987.0</ele><time>2017-03-04T19:08:14Z</time></trkpt>
<trkpt lat="47.175072" lon="10.735052"><ele>994.0</ele><time>2017-03-04T19:08:17Z</time></trkpt>
<trkpt lat="47.175151" lon="10.735207"><ele>994.0</ele><time>2017-03-04T19:08:17Z</time></trkpt>
<trkpt lat="47.175337" lon="10.735706"><ele>994.0</ele><time>2017-03-04T19:08:19Z</time></trkpt>
<trkpt lat="47.175496" lon="10.735956"><ele>982.0</ele><time>2017-03-04T19:08:21Z</time></trkpt>
<trkpt lat="47.176243" lon="10.73672"><ele>986.0</ele><time>2017-03-04T19:08:26Z</time></trkpt>
<trkpt lat="47.176526" lon="10.73713"><ele>986.0</ele><time>2017-03-04T19:08:28Z</time></trkpt>
<trkpt lat="47.176676" lon="10.737322"><ele>998.0</ele><time>2017-03-04T19:08:29Z</time></trkpt>
<trkpt lat="47.17681" lon="10.737453"><ele>998.0</ele><time>2017-03-04T19:08:30Z</time></trkpt>
<trkpt lat="47.177101" lon="10.737674"><ele>974.0</ele><time>2017-03-04T19:08:32Z</time></trkpt>
<trkpt lat="47.177497" lon="10.737893"><ele>974.0</ele><time>2017-03-04T19:08:35Z</time></trkpt>
<trkpt lat="47.177683" lon="10.738022"><ele>991.0</ele><time>2017-03-04T19:08:36Z</time></trkpt>
<trkpt lat="47.178115" lon="10.738449"><ele>968.0</ele><time>2017-03-04T19:08:39Z</time></trkpt>
<trkpt lat="47.178459" lon="10.738668"><ele>983.0</ele><time>2017-03-04T19:08:41Z</time></trkpt>
<trkpt lat="47.178695" lon="10.738955"><ele>983.0</ele><time>2017-03-04T19:08:43Z</time></trkpt>
<trkpt lat="47.178782" lon="10.739033"><ele>983.0</ele><time>2017-03-04T19:08:44Z</time></trkpt>
<trkpt lat="47.179043" lon="10.739152"><ele>983.0</ele><time>2017-03-04T19:08:45Z</time></trkpt>
<trkpt lat="47.1792" lon="10.73928"><ele>998.0</ele><time>2017-03-04T19:08:46Z</time></trkpt>
<trkpt lat="47.1793" lon="10.739424"><ele>998.0</ele><time>2017-03-04T19:08:47Z</time></trkpt>
<trkpt lat="47.179498" lon="10.739826"><ele>998.0</ele><time>2017-03-04T19:08:49Z</time></trkpt>
<trkpt lat="47.17967" lon="10.740037"><ele>975.0</ele><time>2017-03-04T19:08:51Z</time></trkpt>
<trkpt lat="47.17991" lon="10.740263"><ele>975.0</ele><time>2017-03-04T19:08:52Z</time></trkpt>
<trkpt lat="47.180039" lon="10.740452"><ele>1008.0</ele><time>2017-03-04T19:08:54Z</time></trkpt>
<trkpt lat="47.180209" lon="10.740792"><ele>1008.0</ele><time>2017-03-04T19:08:56Z</time></trkpt>
<trkpt lat="47.180365" lon="10.741051"><ele>984.0</ele><time>2017-03-04T19:08:57Z</time></trkpt>
<trkpt lat="47.180729" lon="10.741549"><ele>984.0</ele><time>2017-03-04T19:09:00Z</time></trkpt>
<trkpt lat="47.180838" lon="10.74176"><ele>991.0</ele><time>2017-03-04T19:09:01Z</time></trkpt>
<trkpt lat="47.181092" lon="10.742367"><ele>991.0</ele><time>2017-03-04T19:09:04Z</time></trkpt>
<trkpt lat="47.181282" lon="10.742643"><ele>967.0</ele><time>2017-03-04T19:09:06Z</time></trkpt>
<trkpt lat="47.181849" lon="10.743304"><ele>1007.0</ele><time>2017-03-04T19:09:10Z</time></trkpt>
<trkpt lat="47.182025" lon="10.743458"><ele>973.0</ele><time>2017-03-04T19:09:12Z</time></trkpt>
<trkpt lat="47.18241" lon="10.743613"><ele>973.0</ele><time>2017-03-04T19:09:14Z</time></trkpt>
<trkpt lat="47.182552" lon="10.743697"><ele>1008.0</ele><time>2017-03-04T19:09:16Z</time></trkpt>
<trkpt lat="47.182682" lon="10.743814"><ele>1008.0</ele><time>2017-03-04T19:09:17Z</time></trkpt>
<trkpt lat="47.183388" lon="10.744787"><ele>1027.0</ele><time>2017-03-04T19:09:22Z</time></trkpt>
<trkpt lat="47.183639" lon="10.745191"><ele>995.0</ele><time>2017-03-04T19:09:25Z</time></trkpt>
<trkpt lat="47.184141" lon="10.746229"><ele>954.0</ele><time>2017-03-04T19:09:30Z</time></trkpt>
<trkpt lat="47.184253" lon="10.746361"><ele>1008.0</ele><time>2017-03-04T19:09:33Z</time></trkpt>
<trkpt lat="47.18455" lon="10.7466"><ele>1008.0</ele><time>2017-03-04T19:09:35Z</time></trkpt>
<trkpt lat="47.184873" lon="10.747042"><ele>972.0</ele><time>2017-03-04T19:09:38Z</time></trkpt>
<trkpt lat="47.185141" lon="10.747268"><ele>1011.0</ele><time>2017-03-04T19:09:40Z</time></trkpt>
<trkpt lat="47.185673" lon="10.747846"><ele>970.0</ele><time>2017-03-04T19:09:44Z</time></trkpt>
<trkpt lat="47.186145" lon="10.748523"><ele>968.0</ele><time>2017-03-04T19:09:48Z</time></trkpt>
<trkpt lat="47.187538" lon="10.750025"><ele>960.0</ele><time>2017-03-04T19:09:58Z</time></trkpt>
<trkpt lat="47.188038" lon="10.750296"><ele>960.0</ele><time>2017-03-04T19:10:00Z</time></trkpt>
<trkpt lat="47.188236" lon="10.75048"><ele>960.0</ele><time>2017-03-04T19:10:02Z</time></trkpt>
<trkpt lat="47.188532" lon="10.75095"><ele>972.0</ele><time>2017-03-04T19:10:04Z</time></trkpt>
<trkpt lat="47.18882" lon="10.751325"><ele>972.0</ele><time>2017-03-04T19:10:06Z</time></trkpt>
<trkpt lat="47.18928" lon="10.751722"><ele>973.0</ele><time>2017-03-04T19:10:09Z</time></trkpt>
<trkpt lat="47.189721" lon="10.752169"><ele>973.0</ele><time>2017-03-04T19:10:12Z</time></trkpt>
<trkpt lat="47.189905" lon="10.7523"><ele>973.0</ele><time>2017-03-04T19:10:13Z</time></trkpt>
<trkpt lat="47.190454" lon="10.752485"><ele>972.0</ele><time>2017-03-04T19:10:16Z</time></trkpt>
<trkpt lat="47.19072" lon="10.752515"><ele>950.0</ele><time>2017-03-04T19:10:18Z</time></trkpt>
<trkpt lat="47.191109" lon="10.752471"><ele>974.0</ele><time>2017-03-04T19:10:21Z</time></trkpt>
<trkpt lat="47.191479" lon="10.752462"><ele>974.0</ele><time>2017-03-04T19:10:23Z</time></trkpt>
<trkpt lat="47.191893" lon="10.752589"><ele>964.0</ele><time>2017-03-04T19:10:25Z</time></trkpt>
<trkpt lat="47.192187" lon="10.752787"><ele>964.0</ele><time>2017-03-04T19:10:27Z</time></trkpt>
<trkpt lat="47.192632" lon="10.753243"><ele>981.0</ele><time>2017-03-04T19:10:30Z</time></trkpt>
<trkpt lat="47.192794" lon="10.753374"><ele>961.0</ele><time>2017-03-04T19:10:31Z</time></trkpt>
<trkpt lat="47.193512" lon="10.753807"><ele>981.0</ele><time>2017-03-04T19:10:36Z</time></trkpt>
<trkpt lat="47.193696" lon="10.753974"><ele>981.0</ele><time>2017-03-04T19:10:37Z</time></trkpt>
<trkpt lat="47.194088" lon="10.754349"><ele>958.0</ele><time>2017-03-04T19:10:40Z</time></trkpt>
<trkpt lat="47.194855" lon="10.755373"><ele>951.0</ele><time>2017-03-04T19:10:45Z</time></trkpt>
<trkpt lat="47.195183" lon="10.755635"><ele>956.0</ele><time>2017-03-04T19:10:47Z</time></trkpt>
<trkpt lat="47.195934" lon="10.755937"><ele>936.0</ele><time>2017-03-04T19:10:52Z</time></trkpt>
<trkpt lat="47.196475" lon="10.75618"><ele>936.0</ele><time>2017-03-04T19:10:55Z</time></trkpt>
<trkpt lat="47.197333" lon="10.756783"><ele>934.0</ele><time>2017-03-04T19:11:00Z</time></trkpt>
<trkpt lat="47.197465" lon="10.756844"><ele>934.0</ele><time>2017-03-04T19:11:01Z</time></trkpt>
<trkpt lat="47.197608" lon="10.756875"><ele>933.0</ele><time>2017-03-04T19:11:02Z</time></trkpt>
<trkpt lat="47.197747" lon="10.756866"><ele>933.0</ele><time>2017-03-04T19:11:02Z</time></trkpt>
<trkpt lat="47.197884" lon="10.756821"><ele>933.0</ele><time>2017-03-04T19:11:03Z</time></trkpt>
<trkpt lat="47.197995" lon="10.756745"><ele>933.0</ele><time>2017-03-04T19:11:04Z</time></trkpt>
<trkpt lat="47.198108" lon="10.756634"><ele>940.0</ele><time>2017-03-04T19:11:05Z</time></trkpt>
<trkpt lat="47.198468" lon="10.7561"><ele>938.0</ele><time>2017-03-04T19:11:07Z</time></trkpt>
<trkpt lat="47.198555" lon="10.755999"><ele>938.0</ele><time>2017-03-04T19:11:08Z</time></trkpt>
<trkpt lat="47.198668" lon="10.755919"><ele>938.0</ele><time>2017-03-04T19:11:09Z</time></trkpt>
<trkpt lat="47.198755" lon="10.75589"><ele>938.0</ele><time>2017-03-04T19:11:09Z</time></trkpt>
<trkpt lat="47.198838" lon="10.755889"><ele>938.0</ele><time>2017-03-04T19:11:10Z</time></trkpt>
<trkpt lat="47.199042" lon="10.755962"><ele>938.0</ele><time>2017-03-04T19:11:11Z</time></trkpt>
<trkpt lat="47.199291" lon="10.756126"><ele>949.0</ele><time>2017-03-04T19:11:12Z</time></trkpt>
<trkpt lat="47.199662" lon="10.756274"><ele>949.0</ele><time>2017-03-04T19:11:15Z</time></trkpt>
<trkpt lat="47.199863" lon="10.756398"><ele>949.0</ele><time>2017-03-04T19:11:16Z</time></trkpt>
<trkpt lat="47.20014" lon="10.756669"><ele>936.0</ele><time>2017-03-04T19:11:18Z</time></trkpt>
<trkpt lat="47.200356" lon="10.757016"><ele>936.0</ele><time>2017-03-04T19:11:19Z</time></trkpt>
<trkpt lat="47.200489" lon="10.757124"><ele>936.0</ele><time>2017-03-04T19:11:20Z</time></trkpt>
<trkpt lat="47.200646" lon="10.757194"><ele>936.0</ele><time>2017-03-04T19:11:21Z</time></trkpt>
<trkpt lat="47.201181" lon="10.757246"><ele>935.0</ele><time>2017-03-04T19:11:24Z</time></trkpt>
<trkpt lat="47.202099" lon="10.757538"><ele>908.0</ele><time>2017-03-04T19:11:29Z</time></trkpt>
<trkpt lat="47.202254" lon="10.757557"><ele>908.0</ele><time>2017-03-04T19:11:30Z</time></trkpt>
<trkpt lat="47.202355" lon="10.757536"><ele>908.0</ele><time>2017-03-04T19:11:31Z</time></trkpt>
<trkpt lat="47.202452" lon="10.75748"><ele>928.0</ele><time>2017-03-04T19:11:37Z</time></trkpt>
<trkpt lat="47.202742" lon="10.757153"><ele>931.0</ele><time>2017-03-04T19:11:39Z</time></trkpt>
<trkpt lat="47.202806" lon="10.75712"><ele>931.0</ele><time>2017-03-04T19:11:40Z</time></trkpt>
<trkpt lat="47.202869" lon="10.757122"><ele>931.0</ele><time>2017-03-04T19:11:40Z</time></trkpt>
<trkpt lat="47.202923" lon="10.757171"><ele>931.0</ele><time>2017-03-04T19:11:41Z</time></trkpt>
<trkpt lat="47.202965" lon="10.757242"><ele>931.0</ele><time>2017-03-04T19:11:41Z</time></trkpt>
<trkpt lat="47.202996" lon="10.757363"><ele>931.0</ele><time>2017-03-04T19:11:41Z</time></trkpt>
<trkpt lat="47.203046" lon="10.757757"><ele>910.0</ele><time>2017-03-04T19:11:43Z</time></trkpt>
<trkpt lat="47.203123" lon="10.758016"><ele>910.0</ele><time>2017-03-04T19:11:44Z</time></trkpt>
<trkpt lat="47.203173" lon="10.758123"><ele>910.0</ele><time>2017-03-04T19:11:45Z</time></trkpt>
<trkpt lat="47.203457" lon="10.75849"><ele>921.0</ele><time>2017-03-04T19:11:47Z</time></trkpt>
<trkpt lat="47.20358" lon="10.758702"><ele>921.0</ele><time>2017-03-04T19:11:48Z</time></trkpt>
<trkpt lat="47.20368" lon="10.758936"><ele>921.0</ele><time>2017-03-04T19:11:49Z</time></trkpt>
<trkpt lat="47.20408" lon="10.760031"><ele>883.0</ele><time>2017-03-04T19:11:54Z</time></trkpt>
<trkpt lat="47.204313" lon="10.760503"><ele>882.0</ele><time>2017-03-04T19:11:56Z</time></trkpt>
<trkpt lat="47.204406" lon="10.760623"><ele>882.0</ele><time>2017-03-04T19:11:57Z</time></trkpt>
<trkpt lat="47.20451" lon="10.760706"><ele>882.0</ele><time>2017-03-04T19:11:58Z</time></trkpt>
<trkpt lat="47.204618" lon="10.760747"><ele>882.0</ele><time>2017-03-04T19:11:58Z</time></trkpt>
<trkpt lat="47.204963" lon="10.760706"><ele>882.0</ele><time>2017-03-04T19:12:00Z</time></trkpt>
<trkpt lat="47.205066" lon="10.76072"><ele>884.0</ele><time>2017-03-04T19:12:01Z</time></trkpt>
<trkpt lat="47.205161" lon="10.760769"><ele>884.0</ele><time>2017-03-04T19:12:02Z</time></trkpt>
<trkpt lat="47.205652" lon="10.761162"><ele>878.0</ele><time>2017-03-04T19:12:05Z</time></trkpt>
<trkpt lat="47.206301" lon="10.761614"><ele>872.0</ele><time>2017-03-04T19:12:09Z</time></trkpt>
<trkpt lat="47.206603" lon="10.761694"><ele>869.0</ele><time>2017-03-04T19:12:10Z</time></trkpt>
<trkpt lat="47.206997" lon="10.761753"><ele>856.0</ele><time>2017-03-04T19:12:13Z</time></trkpt>
<trkpt lat="47.207226" lon="10.761738"><ele>856.0</ele><time>2017-03-04T19:12:14Z</time></trkpt>
<trkpt lat="47.207366" lon="10.761704"><ele>856.0</ele><time>2017-03-04T19:12:15Z</time></trkpt>
<trkpt lat="47.208762" lon="10.761083"><ele>860.0</ele><time>2017-03-04T19:12:23Z</time></trkpt>
<trkpt lat="47.209014" lon="10.76095"><ele>860.0</ele><time>2017-03-04T19:12:24Z</time></trkpt>
<trkpt lat="47.209156" lon="10.760842"><ele>860.0</ele><time>2017-03-04T19:12:25Z</time></trkpt>
<trkpt lat="47.209534" lon="10.760484"><ele>864.0</ele><time>2017-03-04T19:12:28Z</time></trkpt>
<trkpt lat="47.209881" lon="10.760209"><ele>864.0</ele><time>2017-03-04T19:12:30Z</time></trkpt>
<trkpt lat="47.210931" lon="10.759594"><ele>859.0</ele><time>2017-03-04T19:12:36Z</time></trkpt>
<trkpt lat="47.211249" lon="10.759346"><ele>859.0</ele><time>2017-03-04T19:12:38Z</time></trkpt>
<trkpt lat="47.21196" lon="10.758535"><ele>856.0</ele><time>2017-03-04T19:12:43Z</time></trkpt>
<trkpt lat="47.212226" lon="10.758189"><ele>850.0</ele><time>2017-03-04T19:12:46Z</time></trkpt>
<trkpt lat="47.212376" lon="10.757916"><ele>850.0</ele><time>2017-03-04T19:12:47Z</time></trkpt>
<trkpt lat="47.212416" lon="10.757585"><ele>850.0</ele><time>2017-03-04T19:12:48Z</time></trkpt>
<trkpt lat="47.212475" lon="10.756237"><ele>846.0</ele><time>2017-03-04T19:12:53Z</time></trkpt>
<trkpt lat="47.21253" lon="10.755805"><ele>812.0</ele><time>2017-03-04T19:12:56Z</time></trkpt>
<trkpt lat="47.212664" lon="10.755425"><ele>812.0</ele><time>2017-03-04T19:12:57Z</time></trkpt>
<trkpt lat="47.213004" lon="10.754701"><ele>814.0</ele><time>2017-03-04T19:13:01Z</time></trkpt>
<trkpt lat="47.213007" lon="10.754577"><ele>814.0</ele><time>2017-03-04T19:13:01Z</time></trkpt>
<trkpt lat="47.212822" lon="10.753516"><ele>814.0</ele><time>2017-03-04T19:13:05Z</time></trkpt>
<trkpt lat="47.212739" lon="10.752943"><ele>812.0</ele><time>2017-03-04T19:13:08Z</time></trkpt>
<trkpt lat="47.212716" lon="10.75257"><ele>812.0</ele><time>2017-03-04T19:13:09Z</time></trkpt>
<trkpt lat="47.212726" lon="10.752106"><ele>814.0</ele><time>2017-03-04T19:13:11Z</time></trkpt>
<trkpt lat="47.212796" lon="10.751638"><ele>807.0</ele><time>2017-03-04T19:13:13Z</time></trkpt>
<trkpt lat="47.212848" lon="10.75147"><ele>807.0</ele><time>2017-03-04T19:13:13Z</time></trkpt>
<trkpt lat="47.212933" lon="10.751364"><ele>807.0</ele><time>2017-03-04T19:13:14Z</time></trkpt>
<trkpt lat="47.213057" lon="10.75132"><ele>807.0</ele><time>2017-03-04T19:13:15Z</time></trkpt>
<trkpt lat="47.213163" lon="10.751389"><ele>807.0</ele><time>2017-03-04T19:13:15Z</time></trkpt>
<trkpt lat="47.213223" lon="10.751521"><ele>807.0</ele><time>2017-03-04T19:13:16Z</time></trkpt>
<trkpt lat="47.213238" lon="10.751693"><ele>814.0</ele><time>2017-03-04T19:13:17Z</time></trkpt>
<trkpt lat="47.213151" lon="10.752047"><ele>814.0</ele><time>2017-03-04T19:13:18Z</time></trkpt>
<trkpt lat="47.213097" lon="10.752433"><ele>814.0</ele><time>2017-03-04T19:13:20Z</time></trkpt>
<trkpt lat="47.213096" lon="10.752723"><ele>812.0</ele><time>2017-03-04T19:13:21Z</time></trkpt>
<trkpt lat="47.213117" lon="10.752936"><ele>812.0</ele><time>2017-03-04T19:13:21Z</time></trkpt>
<trkpt lat="47.213157" lon="10.753128"><ele>812.0</ele><time>2017-03-04T19:13:22Z</time></trkpt>
<trkpt lat="47.213229" lon="10.753327"><ele>812.0</ele><time>2017-03-04T19:13:23Z</time></trkpt>
<trkpt lat="47.213278" lon="10.753446"><ele>814.0</ele><time>2017-03-04T19:13:24Z</time></trkpt>
<trkpt lat="47.213401" lon="10.753658"><ele>797.0</ele><time>2017-03-04T19:13:25Z</time></trkpt>
<trkpt lat="47.213599" lon="10.753868"><ele>797.0</ele><time>2017-03-04T19:13:26Z</time></trkpt>
<trkpt lat="47.213923" lon="10.754038"><ele>797.0</ele><time>2017-03-04T19:13:28Z</time></trkpt>
<trkpt lat="47.215928" lon="10.75481"><ele>765.0</ele><time>2017-03-04T19:13:40Z</time></trkpt>
<trkpt lat="47.216344" lon="10.754988"><ele>765.0</ele><time>2017-03-04T19:13:42Z</time></trkpt>
<trkpt lat="47.216622" lon="10.755293"><ele>770.0</ele><time>2017-03-04T19:13:44Z</time></trkpt>
<trkpt lat="47.216832" lon="10.75582"><ele>731.0</ele><time>2017-03-04T19:13:47Z</time></trkpt>
<trkpt lat="47.217022" lon="10.756435"><ele>744.0</ele><time>2017-03-04T19:13:50Z</time></trkpt>
<trkpt lat="47.217173" lon="10.756855"><ele>754.0</ele><time>2017-03-04T19:13:52Z</time></trkpt>
<trkpt lat="47.217343" lon="10.757052"><ele>754.0</ele><time>2017-03-04T19:13:53Z</time></trkpt>
<trkpt lat="47.217486" lon="10.757155"><ele>754.0</ele><time>2017-03-04T19:13:54Z</time></trkpt>
<trkpt lat="47.217611" lon="10.757208"><ele>727.0</ele><time>2017-03-04T19:13:56Z</time></trkpt>
<trkpt lat="47.217728" lon="10.757222"><ele>727.0</ele><time>2017-03-04T19:13:56Z</time></trkpt>
<trkpt lat="47.217924" lon="10.757187"><ele>727.0</ele><time>2017-03-04T19:13:57Z</time></trkpt>
<trkpt lat="47.218086" lon="10.757108"><ele>727.0</ele><time>2017-03-04T19:13:58Z</time></trkpt>
<trkpt lat="47.219679" lon="10.756181"><ele>747.0</ele><time>2017-03-04T19:14:08Z</time></trkpt>
<trkpt lat="47.219952" lon="10.75604"><ele>747.0</ele><time>2017-03-04T19:14:10Z</time></trkpt>
<trkpt lat="47.220161" lon="10.755985"><ele>753.0</ele><time>2017-03-04T19:14:11Z</time></trkpt>
<trkpt lat="47.220197" lon="10.755985"><ele>753.0</ele><time>2017-03-04T19:14:12Z</time></trkpt>
<trkpt lat="47.220204" lon="10.756053"><ele>753.0</ele><time>2017-03-04T19:14:12Z</time></trkpt>
<trkpt lat="47.220257" lon="10.756164"><ele>753.0</ele><time>2017-03-04T19:14:13Z</time></trkpt>
<trkpt lat="47.220344" lon="10.756211"><ele>753.0</ele><time>2017-03-04T19:14:14Z</time></trkpt>
<trkpt lat="47.22039" lon="10.756203"><ele>753.0</ele><time>2017-03-04T19:14:14Z</time></trkpt>
<trkpt lat="47.22047" lon="10.756531"><ele>753.0</ele><time>2017-03-04T19:14:16Z</time></trkpt>
<trkpt lat="47.22053" lon="10.756644"><ele>753.0</ele><time>2017-03-04T19:14:17Z</time></trkpt>
<trkpt lat="47.220657" lon="10.756757"><ele>748.0</ele><time>2017-03-04T19:14:18Z</time></trkpt>
<trkpt lat="47.220713" lon="10.756778"><ele>748.0</ele><time>2017-03-04T19:14:19Z</time></trkpt>
<trkpt lat="47.220952" lon="10.756787"><ele>787.0</ele><time>2017-03-04T19:14:22Z</time></trkpt>
<trkpt lat="47.221039" lon="10.756841"><ele>787.0</ele><time>2017-03-04T19:14:23Z</time></trkpt>
<trkpt lat="47.22109" lon="10.756915"><ele>787.0</ele><time>2017-03-04T19:14:24Z</time></trkpt>
<trkpt lat="47.221134" lon="10.757005"><ele>787.0</ele><time>2017-03-04T19:14:25Z</time></trkpt>
<trkpt lat="47.22112" lon="10.75693"><ele>788.0</ele><time>2017-03-04T19:14:25Z</time></trkpt>
<trkpt lat="47.22112" lon="10.75693"><ele>788.0</ele><time>2017-03-04T19:14:25Z</time></trkpt>
<trkpt lat="47.221176" lon="10.757434"><ele>787.0</ele><time>2017-03-04T19:14:27Z</time></trkpt>
<trkpt lat="47.221193" lon="10.757954"><ele>783.0</ele><time>2017-03-04T19:14:30Z</time></trkpt>
<trkpt lat="47.221146" lon="10.758918"><ele>791.0</ele><time>2017-03-04T19:14:34Z</time></trkpt>
<trkpt lat="47.22103" lon="10.762253"><ele>800.0</ele><time>2017-03-04T19:14:49Z</time></trkpt>
<trkpt lat="47.220997" lon="10.762737"><ele>805.0</ele><time>2017-03-04T19:14:52Z</time></trkpt>
<trkpt lat="47.22095" lon="10.762988"><ele>805.0</ele><time>2017-03-04T19:14:53Z</time></trkpt>
<trkpt lat="47.220361" lon="10.765015"><ele>783.0</ele><time>2017-03-04T19:15:03Z</time></trkpt>
<trkpt lat="47.220279" lon="10.765348"><ele>783.0</ele><time>2017-03-04T19:15:04Z</time></trkpt>
<trkpt lat="47.220237" lon="10.765562"><ele>783.0</ele><time>2017-03-04T19:15:05Z</time></trkpt>
<trkpt lat="47.220101" lon="10.766675"><ele>803.0</ele><time>2017-03-04T19:15:11Z</time></trkpt>
<trkpt lat="47.220041" lon="10.767018"><ele>803.0</ele><time>2017-03-04T19:15:12Z</time></trkpt>
<trkpt lat="47.219971" lon="10.767315"><ele>763.0</ele><time>2017-03-04T19:15:15Z</time></trkpt>
<trkpt lat="47.219889" lon="10.767574"><ele>777.0</ele><time>2017-03-04T19:15:17Z</time></trkpt>
<trkpt lat="47.219772" lon="10.767873"><ele>777.0</ele><time>2017-03-04T19:15:18Z</time></trkpt>
<trkpt lat="47.219352" lon="10.768872"><ele>791.0</ele><time>2017-03-04T19:15:24Z</time></trkpt>
<trkpt lat="47.219256" lon="10.76916"><ele>791.0</ele><time>2017-03-04T19:15:25Z</time></trkpt>
<trkpt lat="47.218918" lon="10.770445"><ele>778.0</ele><time>2017-03-04T19:15:31Z</time></trkpt>
<trkpt lat="47.218772" lon="10.770911"><ele>787.0</ele><time>2017-03-04T19:15:34Z</time></trkpt>
<trkpt lat="47.216604" lon="10.775966"><ele>784.0</ele><time>2017-03-04T19:16:01Z</time></trkpt>
<trkpt lat="47.216467" lon="10.776333"><ele>784.0</ele><time>2017-03-04T19:16:03Z</time></trkpt>
<trkpt lat="47.21609" lon="10.777457"><ele>799.0</ele><time>2017-03-04T19:16:09Z</time></trkpt>
<trkpt lat="47.215697" lon="10.778721"><ele>795.0</ele><time>2017-03-04T19:16:15Z</time></trkpt>
<trkpt lat="47.214996" lon="10.781054"><ele>793.0</ele><time>2017-03-04T19:16:26Z</time></trkpt>
<trkpt lat="47.214" lon="10.784254"><ele>805.0</ele><time>2017-03-04T19:16:42Z</time></trkpt>
<trkpt lat="47.213869" lon="10.784786"><ele>805.0</ele><time>2017-03-04T19:16:45Z</time></trkpt>
<trkpt lat="47.213709" lon="10.785618"><ele>824.0</ele><time>2017-03-04T19:16:49Z</time></trkpt>
<trkpt lat="47.213588" lon="10.786545"><ele>827.0</ele><time>2017-03-04T19:16:53Z</time></trkpt>
<trkpt lat="47.213538" lon="10.78712"><ele>828.0</ele><time>2017-03-04T19:16:56Z</time></trkpt>
<trkpt lat="47.213508" lon="10.787753"><ele>831.0</ele><time>2017-03-04T19:16:59Z</time></trkpt>
<trkpt lat="47.213508" lon="10.788388"><ele>834.0</ele><time>2017-03-04T19:17:02Z</time></trkpt>
<trkpt lat="47.213686" lon="10.794327"><ele>823.0</ele><time>2017-03-04T19:17:29Z</time></trkpt>
<trkpt lat="47.213727" lon="10.795125"><ele>826.0</ele><time>2017-03-04T19:17:32Z</time></trkpt>
<trkpt lat="47.213776" lon="10.79549"><ele>826.0</ele><time>2017-03-04T19:17:34Z</time></trkpt>
<trkpt lat="47.214149" lon="10.79712"><ele>813.0</ele><time>2017-03-04T19:17:42Z</time></trkpt>
<trkpt lat="47.21421" lon="10.797561"><ele>826.0</ele><time>2017-03-04T19:17:44Z</time></trkpt>
<trkpt lat="47.214477" lon="10.800028"><ele>809.0</ele><time>2017-03-04T19:17:56Z</time></trkpt>
<trkpt lat="47.214562" lon="10.800433"><ele>809.0</ele><time>2017-03-04T19:17:57Z</time></trkpt>
<trkpt lat="47.214641" lon="10.800725"><ele>809.0</ele><time>2017-03-04T19:17:59Z</time></trkpt>
<trkpt lat="47.214772" lon="10.801085"><ele>802.0</ele><time>2017-03-04T19:18:01Z</time></trkpt>
<trkpt lat="47.214983" lon="10.801532"><ele>802.0</ele><time>2017-03-04T19:18:03Z</time></trkpt>
<trkpt lat="47.217561" lon="10.80627"><ele>806.0</ele><time>2017-03-04T19:18:31Z</time></trkpt>
<trkpt lat="47.218058" lon="10.807221"><ele>788.0</ele><time>2017-03-04T19:18:36Z</time></trkpt>
<trkpt lat="47.218308" lon="10.807804"><ele>769.0</ele><time>2017-03-04T19:18:40Z</time></trkpt>
<trkpt lat="47.218472" lon="10.808278"><ele>808.0</ele><time>2017-03-04T19:18:43Z</time></trkpt>
<trkpt lat="47.218634" lon="10.808818"><ele>791.0</ele><time>2017-03-04T19:18:46Z</time></trkpt>
<trkpt lat="47.219021" lon="10.810491"><ele>758.0</ele><time>2017-03-04T19:18:54Z</time></trkpt>
<trkpt lat="47.219141" lon="10.810914"><ele>743.0</ele><time>2017-03-04T19:18:56Z</time></trkpt>
<trkpt lat="47.219238" lon="10.811192"><ele>763.0</ele><time>2017-03-04T19:18:58Z</time></trkpt>
<trkpt lat="47.219381" lon="10.811534"><ele>763.0</ele><time>2017-03-04T19:19:00Z</time></trkpt>
<trkpt lat="47.219541" lon="10.811852"><ele>740.0</ele><time>2017-03-04T19:19:02Z</time></trkpt>
<trkpt lat="47.221105" lon="10.814527"><ele>734.0</ele><time>2017-03-04T19:19:18Z</time></trkpt>
<trkpt lat="47.223021" lon="10.817572"><ele>720.0</ele><time>2017-03-04T19:19:37Z</time></trkpt>
<trkpt lat="47.223221" lon="10.818007"><ele>720.0</ele><time>2017-03-04T19:19:40Z</time></trkpt>
<trkpt lat="47.223365" lon="10.818451"><ele>731.0</ele><time>2017-03-04T19:19:42Z</time></trkpt>
<trkpt lat="47.223429" lon="10.818724"><ele>731.0</ele><time>2017-03-04T19:19:43Z</time></trkpt>
<trkpt lat="47.223482" lon="10.818992"><ele>731.0</ele><time>2017-03-04T19:19:44Z</time></trkpt>
<trkpt lat="47.224066" lon="10.823012"><ele>709.0</ele><time>2017-03-04T19:20:03Z</time></trkpt>
<trkpt lat="47.22412" lon="10.823548"><ele>713.0</ele><time>2017-03-04T19:20:06Z</time></trkpt>
<trkpt lat="47.224114" lon="10.824398"><ele>718.0</ele><time>2017-03-04T19:20:10Z</time></trkpt>
<trkpt lat="47.22408" lon="10.824743"><ele>718.0</ele><time>2017-03-04T19:20:11Z</time></trkpt>
<trkpt lat="47.223964" lon="10.825319"><ele>721.0</ele><time>2017-03-04T19:20:14Z</time></trkpt>
<trkpt lat="47.223896" lon="10.825568"><ele>721.0</ele><time>2017-03-04T19:20:15Z</time></trkpt>
<trkpt lat="47.223782" lon="10.825894"><ele>722.0</ele><time>2017-03-04T19:20:17Z</time></trkpt>
<trkpt lat="47.223659" lon="10.826181"><ele>722.0</ele><time>2017-03-04T19:20:18Z</time></trkpt>
<trkpt lat="47.223393" lon="10.826672"><ele>724.0</ele><time>2017-03-04T19:20:21Z</time></trkpt>
<trkpt lat="47.22225" lon="10.828453"><ele>728.0</ele><time>2017-03-04T19:20:32Z</time></trkpt>
<trkpt lat="47.222108" lon="10.828704"><ele>728.0</ele><time>2017-03-04T19:20:34Z</time></trkpt>
<trkpt lat="47.221909" lon="10.829124"><ele>728.0</ele><time>2017-03-04T19:20:36Z</time></trkpt>
<trkpt lat="47.221744" lon="10.829598"><ele>732.0</ele><time>2017-03-04T19:20:38Z</time></trkpt>
<trkpt lat="47.221617" lon="10.830151"><ele>736.0</ele><time>2017-03-04T19:20:41Z</time></trkpt>
<trkpt lat="47.221547" lon="10.830678"><ele>736.0</ele><time>2017-03-04T19:20:44Z</time></trkpt>
<trkpt lat="47.221528" lon="10.831209"><ele>738.0</ele><time>2017-03-04T19:20:46Z</time></trkpt>
<trkpt lat="47.221552" lon="10.831706"><ele>738.0</ele><time>2017-03-04T19:20:48Z</time></trkpt>
<trkpt lat="47.221694" lon="10.833529"><ele>740.0</ele><time>2017-03-04T19:20:57Z</time></trkpt>
<trkpt lat="47.221811" lon="10.834806"><ele>738.0</ele><time>2017-03-04T19:21:02Z</time></trkpt>
<trkpt lat="47.221874" lon="10.835208"><ele>737.0</ele><time>2017-03-04T19:21:04Z</time></trkpt>
<trkpt lat="47.222047" lon="10.83597"><ele>736.0</ele><time>2017-03-04T19:21:08Z</time></trkpt>
<trkpt lat="47.222237" lon="10.836563"><ele>736.0</ele><time>2017-03-04T19:21:11Z</time></trkpt>
<trkpt lat="47.222725" lon="10.837928"><ele>728.0</ele><time>2017-03-04T19:21:18Z</time></trkpt>
<trkpt lat="47.22409" lon="10.841534"><ele>733.0</ele><time>2017-03-04T19:21:37Z</time></trkpt>
<trkpt lat="47.224452" lon="10.842195"><ele>733.0</ele><time>2017-03-04T19:21:40Z</time></trkpt>
<trkpt lat="47.225129" lon="10.843214"><ele>729.0</ele><time>2017-03-04T19:21:47Z</time></trkpt>
<trkpt lat="47.22658" lon="10.845318"><ele>729.0</ele><time>2017-03-04T19:22:01Z</time></trkpt>
<trkpt lat="47.228675" lon="10.848407"><ele>722.0</ele><time>2017-03-04T19:22:20Z</time></trkpt>
<trkpt lat="47.229058" lon="10.849"><ele>722.0</ele><time>2017-03-04T19:22:24Z</time></trkpt>
<trkpt lat="47.229241" lon="10.849377"><ele>739.0</ele><time>2017-03-04T19:22:26Z</time></trkpt>
<trkpt lat="47.229985" lon="10.851094"><ele>731.0</ele><time>2017-03-04T19:22:36Z</time></trkpt>
<trkpt lat="47.230172" lon="10.851484"><ele>733.0</ele><time>2017-03-04T19:22:38Z</time></trkpt>
<trkpt lat="47.230395" lon="10.851857"><ele>730.0</ele><time>2017-03-04T19:22:40Z</time></trkpt>
<trkpt lat="47.230581" lon="10.852117"><ele>730.0</ele><time>2017-03-04T19:22:42Z</time></trkpt>
<trkpt lat="47.231207" lon="10.852871"><ele>733.0</ele><time>2017-03-04T19:22:47Z</time></trkpt>
<trkpt lat="47.231327" lon="10.853038"><ele>733.0</ele><time>2017-03-04T19:22:48Z</time></trkpt>
<trkpt lat="47.231513" lon="10.853374"><ele>734.0</ele><time>2017-03-04T19:22:50Z</time></trkpt>
<trkpt lat="47.231618" lon="10.853647"><ele>734.0</ele><time>2017-03-04T19:22:52Z</time></trkpt>
<trkpt lat="47.231634" lon="10.853688"><ele>734.0</ele><time>2017-03-04T19:22:57Z</time></trkpt>
<trkpt lat="47.231575" lon="10.853758"><ele>734.0</ele><time>2017-03-04T19:22:58Z</time></trkpt>
<trkpt lat="47.231534" lon="10.853904"><ele>734.0</ele><time>2017-03-04T19:22:59Z</time></trkpt>
<trkpt lat="47.231537" lon="10.853984"><ele>734.0</ele><time>2017-03-04T19:22:59Z</time></trkpt>
<trkpt lat="47.231575" lon="10.854103"><ele>734.0</ele><time>2017-03-04T19:23:00Z</time></trkpt>
<trkpt lat="47.231599" lon="10.854134"><ele>734.0</ele><time>2017-03-04T19:23:01Z</time></trkpt>
<trkpt lat="47.231573" lon="10.854177"><ele>735.0</ele><time>2017-03-04T19:23:01Z</time></trkpt>
<trkpt lat="47.231565" lon="10.854189"><ele>735.0</ele><time>2017-03-04T19:23:01Z</time></trkpt>
<trkpt lat="47.231565" lon="10.854189"><ele>735.0</ele><time>2017-03-04T19:23:01Z</time></trkpt>
<trkpt lat="47.231056" lon="10.855027"><ele>738.0</ele><time>2017-03-04T19:23:08Z</time></trkpt>
<trkpt lat="47.230993" lon="10.85509"><ele>738.0</ele><time>2017-03-04T19:23:09Z</time></trkpt>
<trkpt lat="47.230831" lon="10.855146"><ele>734.0</ele><time>2017-03-04T19:23:10Z</time></trkpt>
<trkpt lat="47.230716" lon="10.855122"><ele>734.0</ele><time>2017-03-04T19:23:11Z</time></trkpt>
<trkpt lat="47.230619" lon="10.855056"><ele>734.0</ele><time>2017-03-04T19:23:12Z</time></trkpt>
<trkpt lat="47.230596" lon="10.85504"><ele>734.0</ele><time>2017-03-04T19:23:13Z</time></trkpt>
<trkpt lat="47.230625" lon="10.854868"><ele>736.0</ele><time>2017-03-04T19:23:14Z</time></trkpt>
<trkpt lat="47.230589" lon="10.854711"><ele>736.0</ele><time>2017-03-04T19:23:15Z</time></trkpt>
<trkpt lat="47.230536" lon="10.854627"><ele>736.0</ele><time>2017-03-04T19:23:15Z</time></trkpt>
<trkpt lat="47.230422" lon="10.854583"><ele>736.0</ele><time>2017-03-04T19:23:17Z</time></trkpt>
<trkpt lat="47.230354" lon="10.854601"><ele>736.0</ele><time>2017-03-04T19:23:17Z</time></trkpt>
<trkpt lat="47.230294" lon="10.854651"><ele>736.0</ele><time>2017-03-04T19:23:18Z</time></trkpt>
<trkpt lat="47.230248" lon="10.854729"><ele>736.0</ele><time>2017-03-04T19:23:18Z</time></trkpt>
<trkpt lat="47.23022" lon="10.8549"><ele>736.0</ele><time>2017-03-04T19:23:20Z</time></trkpt>
<trkpt lat="47.23023" lon="10.854975"><ele>736.0</ele><time>2017-03-04T19:23:20Z</time></trkpt>
<trkpt lat="47.230303" lon="10.855125"><ele>734.0</ele><time>2017-03-04T19:23:21Z</time></trkpt>
<trkpt lat="47.229915" lon="10.855782"><ele>734.0</ele><time>2017-03-04T19:23:27Z</time></trkpt>
<trkpt lat="47.229666" lon="10.85614"><ele>733.0</ele><time>2017-03-04T19:23:30Z</time></trkpt>
<trkpt lat="47.229378" lon="10.856469"><ele>733.0</ele><time>2017-03-04T19:23:33Z</time></trkpt>
<trkpt lat="47.228344" lon="10.857443"><ele>730.0</ele><time>2017-03-04T19:23:45Z</time></trkpt>
<trkpt lat="47.22798" lon="10.857841"><ele>735.0</ele><time>2017-03-04T19:23:49Z</time></trkpt>
<trkpt lat="47.227731" lon="10.858179"><ele>735.0</ele><time>2017-03-04T19:23:52Z</time></trkpt>
<trkpt lat="47.227547" lon="10.858491"><ele>757.0</ele><time>2017-03-04T19:23:55Z</time></trkpt>
<trkpt lat="47.227409" lon="10.858781"><ele>735.0</ele><time>2017-03-04T19:23:58Z</time></trkpt>
<trkpt lat="47.227302" lon="10.859071"><ele>735.0</ele><time>2017-03-04T19:24:00Z</time></trkpt>
<trkpt lat="47.227138" lon="10.859625"><ele>745.0</ele><time>2017-03-04T19:24:04Z</time></trkpt>
<trkpt lat="47.226993" lon="10.859975"><ele>745.0</ele><time>2017-03-04T19:24:07Z</time></trkpt>
<trkpt lat="47.226833" lon="10.860236"><ele>751.0</ele><time>2017-03-04T19:24:09Z</time></trkpt>
<trkpt lat="47.226717" lon="10.860378"><ele>751.0</ele><time>2017-03-04T19:24:10Z</time></trkpt>
<trkpt lat="47.22654" lon="10.860549"><ele>730.0</ele><time>2017-03-04T19:24:13Z</time></trkpt>
<trkpt lat="47.226356" lon="10.860676"><ele>730.0</ele><time>2017-03-04T19:24:15Z</time></trkpt>
<trkpt lat="47.226184" lon="10.860759"><ele>730.0</ele><time>2017-03-04T19:24:17Z</time></trkpt>
<trkpt lat="47.224583" lon="10.861341"><ele>729.0</ele><time>2017-03-04T19:24:32Z</time></trkpt>
<trkpt lat="47.224255" lon="10.861414"><ele>729.0</ele><time>2017-03-04T19:24:35Z</time></trkpt>
<trkpt lat="47.223874" lon="10.861452"><ele>720.0</ele><time>2017-03-04T19:24:39Z</time></trkpt>
<trkpt lat="47.223551" lon="10.861423"><ele>720.0</ele><time>2017-03-04T19:24:42Z</time></trkpt>
<trkpt lat="47.22271" lon="10.861213"><ele>723.0</ele><time>2017-03-04T19:24:50Z</time></trkpt>
<trkpt lat="47.222439" lon="10.86111"><ele>734.0</ele><time>2017-03-04T19:24:52Z</time></trkpt>
<trkpt lat="47.222172" lon="10.860977"><ele>734.0</ele><time>2017-03-04T19:24:55Z</time></trkpt>
<trkpt lat="47.221572" lon="10.860631"><ele>724.0</ele><time>2017-03-04T19:25:01Z</time></trkpt>
<trkpt lat="47.221403" lon="10.860563"><ele>724.0</ele><time>2017-03-04T19:25:03Z</time></trkpt>
<trkpt lat="47.221154" lon="10.860559"><ele>724.0</ele><time>2017-03-04T19:25:05Z</time></trkpt>
<trkpt lat="47.221037" lon="10.860617"><ele>724.0</ele><time>2017-03-04T19:25:06Z</time></trkpt>
<trkpt lat="47.220802" lon="10.860821"><ele>726.0</ele><time>2017-03-04T19:25:09Z</time></trkpt>
<trkpt lat="47.220023" lon="10.861641"><ele>740.0</ele><time>2017-03-04T19:25:18Z</time></trkpt>
<trkpt lat="47.219801" lon="10.861899"><ele>738.0</ele><time>2017-03-04T19:25:20Z</time></trkpt>
<trkpt lat="47.219639" lon="10.862161"><ele>738.0</ele><time>2017-03-04T19:25:22Z</time></trkpt>
<trkpt lat="47.219526" lon="10.862451"><ele>738.0</ele><time>2017-03-04T19:25:25Z</time></trkpt>
<trkpt lat="47.219173" lon="10.864537"><ele>771.0</ele><time>2017-03-04T19:25:38Z</time></trkpt>
<trkpt lat="47.219127" lon="10.864712"><ele>744.0</ele><time>2017-03-04T19:25:41Z</time></trkpt>
<trkpt lat="47.218967" lon="10.865164"><ele>759.0</ele><time>2017-03-04T19:25:44Z</time></trkpt>
<trkpt lat="47.218638" lon="10.865879"><ele>772.0</ele><time>2017-03-04T19:25:50Z</time></trkpt>
<trkpt lat="47.218537" lon="10.866082"><ele>772.0</ele><time>2017-03-04T19:25:52Z</time></trkpt>
<trkpt lat="47.218433" lon="10.866241"><ele>772.0</ele><time>2017-03-04T19:25:53Z</time></trkpt>
<trkpt lat="47.218325" lon="10.866365"><ele>764.0</ele><time>2017-03-04T19:25:54Z</time></trkpt>
<trkpt lat="47.218168" lon="10.866492"><ele>764.0</ele><time>2017-03-04T19:25:56Z</time></trkpt>
<trkpt lat="47.217965" lon="10.866589"><ele>764.0</ele><time>2017-03-04T19:25:58Z</time></trkpt>
<trkpt lat="47.217471" lon="10.866727"><ele>761.0</ele><time>2017-03-04T19:26:03Z</time></trkpt>
<trkpt lat="47.21716" lon="10.866783"><ele>761.0</ele><time>2017-03-04T19:26:06Z</time></trkpt>
<trkpt lat="47.21691" lon="10.866746"><ele>761.0</ele><time>2017-03-04T19:26:08Z</time></trkpt>
<trkpt lat="47.216248" lon="10.866565"><ele>764.0</ele><time>2017-03-04T19:26:14Z</time></trkpt>
<trkpt lat="47.215902" lon="10.86662"><ele>764.0</ele><time>2017-03-04T19:26:17Z</time></trkpt>
<trkpt lat="47.215518" lon="10.866805"><ele>765.0</ele><time>2017-03-04T19:26:21Z</time></trkpt>
<trkpt lat="47.215299" lon="10.866949"><ele>765.0</ele><time>2017-03-04T19:26:23Z</time></trkpt>
<trkpt lat="47.215008" lon="10.867189"><ele>765.0</ele><time>2017-03-04T19:26:26Z</time></trkpt>
<trkpt lat="47.214596" lon="10.867606"><ele>761.0</ele><time>2017-03-04T19:26:31Z</time></trkpt>
<trkpt lat="47.214512" lon="10.867713"><ele>761.0</ele><time>2017-03-04T19:26:32Z</time></trkpt>
<trkpt lat="47.214177" lon="10.86822"><ele>761.0</ele><time>2017-03-04T19:26:37Z</time></trkpt>
<trkpt lat="47.21389" lon="10.868752"><ele>754.0</ele><time>2017-03-04T19:26:41Z</time></trkpt>
<trkpt lat="47.213489" lon="10.869565"><ele>758.0</ele><time>2017-03-04T19:26:47Z</time></trkpt>
<trkpt lat="47.213226" lon="10.869987"><ele>742.0</ele><time>2017-03-04T19:26:51Z</time></trkpt>
<trkpt lat="47.212935" lon="10.870333"><ele>748.0</ele><time>2017-03-04T19:26:55Z</time></trkpt>
<trkpt lat="47.212503" lon="10.870706"><ele>748.0</ele><time>2017-03-04T19:26:59Z</time></trkpt>
<trkpt lat="47.21136" lon="10.871438"><ele>741.0</ele><time>2017-03-04T19:27:11Z</time></trkpt>
<trkpt lat="47.210888" lon="10.87162"><ele>741.0</ele><time>2017-03-04T19:27:15Z</time></trkpt>
<trkpt lat="47.209937" lon="10.871818"><ele>757.0</ele><time>2017-03-04T19:27:24Z</time></trkpt>
<trkpt lat="47.209652" lon="10.871935"><ele>757.0</ele><time>2017-03-04T19:27:27Z</time></trkpt>
<trkpt lat="47.209327" lon="10.87213"><ele>757.0</ele><time>2017-03-04T19:27:30Z</time></trkpt>
<trkpt lat="47.208815" lon="10.872635"><ele>767.0</ele><time>2017-03-04T19:27:36Z</time></trkpt>
<trkpt lat="47.208568" lon="10.872997"><ele>767.0</ele><time>2017-03-04T19:27:39Z</time></trkpt>
<trkpt lat="47.208364" lon="10.873349"><ele>804.0</ele><time>2017-03-04T19:27:44Z</time></trkpt>
<trkpt lat="47.208118" lon="10.873859"><ele>757.0</ele><time>2017-03-04T19:27:49Z</time></trkpt>
<trkpt lat="47.207931" lon="10.874496"><ele>780.0</ele><time>2017-03-04T19:27:54Z</time></trkpt>
<trkpt lat="47.207172" lon="10.877568"><ele>785.0</ele><time>2017-03-04T19:28:15Z</time></trkpt>
<trkpt lat="47.207014" lon="10.878366"><ele>790.0</ele><time>2017-03-04T19:28:20Z</time></trkpt>
<trkpt lat="47.206939" lon="10.878928"><ele>790.0</ele><time>2017-03-04T19:28:24Z</time></trkpt>
<trkpt lat="47.206867" lon="10.879621"><ele>798.0</ele><time>2017-03-04T19:28:28Z</time></trkpt>
<trkpt lat="47.206828" lon="10.880618"><ele>804.0</ele><time>2017-03-04T19:28:34Z</time></trkpt>
<trkpt lat="47.206851" lon="10.882093"><ele>814.0</ele><time>2017-03-04T19:28:44Z</time></trkpt>
<trkpt lat="47.206818" lon="10.882563"><ele>806.0</ele><time>2017-03-04T19:28:47Z</time></trkpt>
<trkpt lat="47.206769" lon="10.882961"><ele>806.0</ele><time>2017-03-04T19:28:49Z</time></trkpt>
<trkpt lat="47.206637" lon="10.883555"><ele>773.0</ele><time>2017-03-04T19:28:54Z</time></trkpt>
<trkpt lat="47.205781" lon="10.886231"><ele>762.0</ele><time>2017-03-04T19:29:13Z</time></trkpt>
<trkpt lat="47.205474" lon="10.887335"><ele>764.0</ele><time>2017-03-04T19:29:20Z</time></trkpt>
<trkpt lat="47.205256" lon="10.888304"><ele>766.0</ele><time>2017-03-04T19:29:27Z</time></trkpt>
<trkpt lat="47.204869" lon="10.890604"><ele>765.0</ele><time>2017-03-04T19:29:42Z</time></trkpt>
<trkpt lat="47.204719" lon="10.891197"><ele>766.0</ele><time>2017-03-04T19:29:46Z</time></trkpt>
<trkpt lat="47.204613" lon="10.891548"><ele>766.0</ele><time>2017-03-04T19:29:48Z</time></trkpt>
<trkpt lat="47.204212" lon="10.89273"><ele>769.0</ele><time>2017-03-04T19:29:56Z</time></trkpt>
<trkpt lat="47.203903" lon="10.894015"><ele>771.0</ele><time>2017-03-04T19:30:05Z</time></trkpt>
<trkpt lat="47.203742" lon="10.894605"><ele>772.0</ele><time>2017-03-04T19:30:09Z</time></trkpt>
<trkpt lat="47.203366" lon="10.895777"><ele>774.0</ele><time>2017-03-04T19:30:17Z</time></trkpt>
<trkpt lat="47.203159" lon="10.896578"><ele>773.0</ele><time>2017-03-04T19:30:23Z</time></trkpt>
<trkpt lat="47.202829" lon="10.897694"><ele>779.0</ele><time>2017-03-04T19:30:30Z</time></trkpt>
<trkpt lat="47.202726" lon="10.898144"><ele>779.0</ele><time>2017-03-04T19:30:33Z</time></trkpt>
<trkpt lat="47.202654" lon="10.898374"><ele>781.0</ele><time>2017-03-04T19:30:35Z</time></trkpt>
<trkpt lat="47.202551" lon="10.89859"><ele>781.0</ele><time>2017-03-04T19:30:37Z</time></trkpt>
<trkpt lat="47.202432" lon="10.898793"><ele>781.0</ele><time>2017-03-04T19:30:38Z</time></trkpt>
<trkpt lat="47.202283" lon="10.898992"><ele>781.0</ele><time>2017-03-04T19:30:40Z</time></trkpt>
<trkpt lat="47.202145" lon="10.899134"><ele>781.0</ele><time>2017-03-04T19:30:42Z</time></trkpt>
<trkpt lat="47.201831" lon="10.899372"><ele>782.0</ele><time>2017-03-04T19:30:45Z</time></trkpt>
<trkpt lat="47.201797" lon="10.899405"><ele>782.0</ele><time>2017-03-04T19:30:48Z</time></trkpt>
<trkpt lat="47.201733" lon="10.899324"><ele>782.0</ele><time>2017-03-04T19:30:49Z</time></trkpt>
<trkpt lat="47.201649" lon="10.899319"><ele>783.0</ele><time>2017-03-04T19:30:50Z</time></trkpt>
<trkpt lat="47.20161" lon="10.899346"><ele>783.0</ele><time>2017-03-04T19:30:51Z</time></trkpt>
<trkpt lat="47.201561" lon="10.899447"><ele>783.0</ele><time>2017-03-04T19:30:52Z</time></trkpt>
<trkpt lat="47.201556" lon="10.89951"><ele>783.0</ele><time>2017-03-04T19:30:52Z</time></trkpt>
<trkpt lat="47.201275" lon="10.899553"><ele>783.0</ele><time>2017-03-04T19:30:55Z</time></trkpt>
<trkpt lat="47.201075" lon="10.899646"><ele>783.0</ele><time>2017-03-04T19:30:58Z</time></trkpt>
<trkpt lat="47.200832" lon="10.899796"><ele>783.0</ele><time>2017-03-04T19:31:01Z</time></trkpt>
<trkpt lat="47.200813" lon="10.89981"><ele>784.5</ele><time>2017-03-04T19:31:01Z</time></trkpt>
<trkpt lat="47.200813" lon="10.89981"><ele>784.5</ele><time>2017-03-04T19:31:01Z</time></trkpt>
<trkpt lat="47.201075" lon="10.899646"><ele>783.0</ele><time>2017-03-04T19:31:04Z</time></trkpt>
<trkpt lat="47.201275" lon="10.899553"><ele>783.0</ele><time>2017-03-04T19:31:07Z</time></trkpt>
<trkpt lat="47.201522" lon="10.899511"><ele>783.0</ele><time>2017-03-04T19:31:09Z</time></trkpt>
<trkpt lat="47.201556" lon="10.89951"><ele>783.0</ele><time>2017-03-04T19:31:10Z</time></trkpt>
<trkpt lat="47.201564" lon="10.899571"><ele>783.0</ele><time>2017-03-04T19:31:10Z</time></trkpt>
<trkpt lat="47.201618" lon="10.899665"><ele>783.0</ele><time>2017-03-04T19:31:11Z</time></trkpt>
<trkpt lat="47.201704" lon="10.899692"><ele>782.0</ele><time>2017-03-04T19:31:11Z</time></trkpt>
<trkpt lat="47.20171" lon="10.899883"><ele>782.0</ele><time>2017-03-04T19:31:12Z</time></trkpt>
<trkpt lat="47.20167" lon="10.900072"><ele>784.0</ele><time>2017-03-04T19:31:13Z</time></trkpt>
<trkpt lat="47.201439" lon="10.900864"><ele>786.0</ele><time>2017-03-04T19:31:16Z</time></trkpt>
<trkpt lat="47.201401" lon="10.901338"><ele>786.0</ele><time>2017-03-04T19:31:18Z</time></trkpt>
<trkpt lat="47.20141" lon="10.901766"><ele>794.0</ele><time>2017-03-04T19:31:20Z</time></trkpt>
<trkpt lat="47.201437" lon="10.901987"><ele>794.0</ele><time>2017-03-04T19:31:21Z</time></trkpt>
<trkpt lat="47.201552" lon="10.902513"><ele>801.0</ele><time>2017-03-04T19:31:24Z</time></trkpt>
<trkpt lat="47.202135" lon="10.904167"><ele>806.0</ele><time>2017-03-04T19:31:31Z</time></trkpt>
<trkpt lat="47.202271" lon="10.90444"><ele>817.0</ele><time>2017-03-04T19:31:33Z</time></trkpt>
<trkpt lat="47.202465" lon="10.904596"><ele>817.0</ele><time>2017-03-04T19:31:34Z</time></trkpt>
<trkpt lat="47.202685" lon="10.904609"><ele>826.0</ele><time>2017-03-04T19:31:36Z</time></trkpt>
<trkpt lat="47.203223" lon="10.904131"><ele>809.0</ele><time>2017-03-04T19:31:40Z</time></trkpt>
<trkpt lat="47.203876" lon="10.903794"><ele>844.0</ele><time>2017-03-04T19:31:45Z</time></trkpt>
<trkpt lat="47.203979" lon="10.903723"><ele>844.0</ele><time>2017-03-04T19:31:45Z</time></trkpt>
<trkpt lat="47.204044" lon="10.903608"><ele>844.0</ele><time>2017-03-04T19:31:46Z</time></trkpt>
<trkpt lat="47.204156" lon="10.903164"><ele>833.0</ele><time>2017-03-04T19:31:48Z</time></trkpt>
<trkpt lat="47.204238" lon="10.902902"><ele>871.0</ele><time>2017-03-04T19:31:50Z</time></trkpt>
<trkpt lat="47.204347" lon="10.902678"><ele>871.0</ele><time>2017-03-04T19:31:52Z</time></trkpt>
<trkpt lat="47.204465" lon="10.9025"><ele>871.0</ele><time>2017-03-04T19:31:53Z</time></trkpt>
<trkpt lat="47.204588" lon="10.902252"><ele>860.0</ele><time>2017-03-04T19:31:54Z</time></trkpt>
<trkpt lat="47.204764" lon="10.901739"><ele>860.0</ele><time>2017-03-04T19:31:56Z</time></trkpt>
<trkpt lat="47.204845" lon="10.901627"><ele>840.0</ele><time>2017-03-04T19:31:58Z</time></trkpt>
<trkpt lat="47.205118" lon="10.901494"><ele>886.0</ele><time>2017-03-04T19:32:01Z</time></trkpt>
<trkpt lat="47.205289" lon="10.901341"><ele>886.0</ele><time>2017-03-04T19:32:02Z</time></trkpt>
<trkpt lat="47.205369" lon="10.9012"><ele>886.0</ele><time>2017-03-04T19:32:03Z</time></trkpt>
<trkpt lat="47.205433" lon="10.900991"><ele>886.0</ele><time>2017-03-04T19:32:04Z</time></trkpt>
<trkpt lat="47.205509" lon="10.900295"><ele>879.0</ele><time>2017-03-04T19:32:07Z</time></trkpt>
<trkpt lat="47.205535" lon="10.900183"><ele>879.0</ele><time>2017-03-04T19:32:07Z</time></trkpt>
<trkpt lat="47.205599" lon="10.900044"><ele>879.0</ele><time>2017-03-04T19:32:08Z</time></trkpt>
<trkpt lat="47.205807" lon="10.899835"><ele>865.0</ele><time>2017-03-04T19:32:10Z</time></trkpt>
<trkpt lat="47.205876" lon="10.899738"><ele>894.0</ele><time>2017-03-04T19:32:12Z</time></trkpt>
<trkpt lat="47.205953" lon="10.899554"><ele>894.0</ele><time>2017-03-04T19:32:12Z</time></trkpt>
<trkpt lat="47.20619" lon="10.898854"><ele>884.0</ele><time>2017-03-04T19:32:16Z</time></trkpt>
<trkpt lat="47.206255" lon="10.898713"><ele>884.0</ele><time>2017-03-04T19:32:16Z</time></trkpt>
<trkpt lat="47.206388" lon="10.898531"><ele>884.0</ele><time>2017-03-04T19:32:18Z</time></trkpt>
<trkpt lat="47.206736" lon="10.898287"><ele>905.0</ele><time>2017-03-04T19:32:20Z</time></trkpt>
<trkpt lat="47.20689" lon="10.898125"><ele>905.0</ele><time>2017-03-04T19:32:21Z</time></trkpt>
<trkpt lat="47.207001" lon="10.897911"><ele>905.0</ele><time>2017-03-04T19:32:23Z</time></trkpt>
<trkpt lat="47.207063" lon="10.89772"><ele>905.0</ele><time>2017-03-04T19:32:23Z</time></trkpt>
<trkpt lat="47.20715" lon="10.897338"><ele>896.0</ele><time>2017-03-04T19:32:25Z</time></trkpt>
<trkpt lat="47.2076" lon="10.896487"><ele>928.0</ele><time>2017-03-04T19:32:30Z</time></trkpt>
<trkpt lat="47.207677" lon="10.896296"><ele>928.0</ele><time>2017-03-04T19:32:31Z</time></trkpt>
<trkpt lat="47.207744" lon="10.896033"><ele>928.0</ele><time>2017-03-04T19:32:32Z</time></trkpt>
<trkpt lat="47.207773" lon="10.895799"><ele>920.0</ele><time>2017-03-04T19:32:33Z</time></trkpt>
<trkpt lat="47.207779" lon="10.895365"><ele>920.0</ele><time>2017-03-04T19:32:35Z</time></trkpt>
<trkpt lat="47.207739" lon="10.894994"><ele>927.0</ele><time>2017-03-04T19:32:37Z</time></trkpt>
<trkpt lat="47.207661" lon="10.894624"><ele>927.0</ele><time>2017-03-04T19:32:38Z</time></trkpt>
<trkpt lat="47.20755" lon="10.89423"><ele>927.0</ele><time>2017-03-04T19:32:40Z</time></trkpt>
<trkpt lat="47.207492" lon="10.893937"><ele>894.0</ele><time>2017-03-04T19:32:42Z</time></trkpt>
<trkpt lat="47.207489" lon="10.893737"><ele>894.0</ele><time>2017-03-04T19:32:43Z</time></trkpt>
<trkpt lat="47.207519" lon="10.893539"><ele>929.0</ele><time>2017-03-04T19:32:45Z</time></trkpt>
<trkpt lat="47.207587" lon="10.893307"><ele>914.0</ele><time>2017-03-04T19:32:47Z</time></trkpt>
<trkpt lat="47.207672" lon="10.893107"><ele>914.0</ele><time>2017-03-04T19:32:48Z</time></trkpt>
<trkpt lat="47.207883" lon="10.892794"><ele>914.0</ele><time>2017-03-04T19:32:50Z</time></trkpt>
<trkpt lat="47.208013" lon="10.892678"><ele>914.0</ele><time>2017-03-04T19:32:51Z</time></trkpt>
<trkpt lat="47.208788" lon="10.892117"><ele>944.0</ele><time>2017-03-04T19:32:56Z</time></trkpt>
<trkpt lat="47.208896" lon="10.891926"><ele>944.0</ele><time>2017-03-04T19:32:57Z</time></trkpt>
<trkpt lat="47.208943" lon="10.891657"><ele>946.0</ele><time>2017-03-04T19:32:58Z</time></trkpt>
<trkpt lat="47.208965" lon="10.890934"><ele>946.0</ele><time>2017-03-04T19:33:01Z</time></trkpt>
<trkpt lat="47.208959" lon="10.890742"><ele>944.0</ele><time>2017-03-04T19:33:02Z</time></trkpt>
<trkpt lat="47.208884" lon="10.89041"><ele>944.0</ele><time>2017-03-04T19:33:04Z</time></trkpt>
<trkpt lat="47.208865" lon="10.890104"><ele>944.0</ele><time>2017-03-04T19:33:05Z</time></trkpt>
<trkpt lat="47.208889" lon="10.889842"><ele>934.0</ele><time>2017-03-04T19:33:06Z</time></trkpt>
<trkpt lat="47.208935" lon="10.88958"><ele>934.0</ele><time>2017-03-04T19:33:07Z</time></trkpt>
<trkpt lat="47.209041" lon="10.889259"><ele>934.0</ele><time>2017-03-04T19:33:09Z</time></trkpt>
<trkpt lat="47.209524" lon="10.888216"><ele>967.0</ele><time>2017-03-04T19:33:15Z</time></trkpt>
<trkpt lat="47.209574" lon="10.88799"><ele>967.0</ele><time>2017-03-04T19:33:16Z</time></trkpt>
<trkpt lat="47.209573" lon="10.887708"><ele>967.0</ele><time>2017-03-04T19:33:17Z</time></trkpt>
<trkpt lat="47.209437" lon="10.88723"><ele>982.0</ele><time>2017-03-04T19:33:19Z</time></trkpt>
<trkpt lat="47.209306" lon="10.886858"><ele>982.0</ele><time>2017-03-04T19:33:21Z</time></trkpt>
<trkpt lat="47.209014" lon="10.886306"><ele>960.0</ele><time>2017-03-04T19:33:24Z</time></trkpt>
<trkpt lat="47.208889" lon="10.886026"><ele>960.0</ele><time>2017-03-04T19:33:25Z</time></trkpt>
<trkpt lat="47.208818" lon="10.885748"><ele>972.0</ele><time>2017-03-04T19:33:27Z</time></trkpt>
<trkpt lat="47.208791" lon="10.885448"><ele>972.0</ele><time>2017-03-04T19:33:28Z</time></trkpt>
<trkpt lat="47.208835" lon="10.884743"><ele>964.0</ele><time>2017-03-04T19:33:31Z</time></trkpt>
<trkpt lat="47.208908" lon="10.884435"><ele>964.0</ele><time>2017-03-04T19:33:33Z</time></trkpt>
<trkpt lat="47.208954" lon="10.884303"><ele>964.0</ele><time>2017-03-04T19:33:33Z</time></trkpt>
<trkpt lat="47.209037" lon="10.884146"><ele>947.0</ele><time>2017-03-04T19:33:34Z</time></trkpt>
<trkpt lat="47.209293" lon="10.883796"><ele>984.0</ele><time>2017-03-04T19:33:37Z</time></trkpt>
<trkpt lat="47.209763" lon="10.883216"><ele>979.0</ele><time>2017-03-04T19:33:41Z</time></trkpt>
<trkpt lat="47.209911" lon="10.882986"><ele>979.0</ele><time>2017-03-04T19:33:43Z</time></trkpt>
<trkpt lat="47.209973" lon="10.88281"><ele>979.0</ele><time>2017-03-04T19:33:43Z</time></trkpt>
<trkpt lat="47.209994" lon="10.882626"><ele>979.0</ele><time>2017-03-04T19:33:44Z</time></trkpt>
<trkpt lat="47.209889" lon="10.881688"><ele>981.0</ele><time>2017-03-04T19:33:48Z</time></trkpt>
<trkpt lat="47.209892" lon="10.881334"><ele>980.0</ele><time>2017-03-04T19:33:50Z</time></trkpt>
<trkpt lat="47.209923" lon="10.881151"><ele>980.0</ele><time>2017-03-04T19:33:50Z</time></trkpt>
<trkpt lat="47.20999" lon="10.880948"><ele>980.0</ele><time>2017-03-04T19:33:51Z</time></trkpt>
<trkpt lat="47.210096" lon="10.880755"><ele>996.0</ele><time>2017-03-04T19:33:53Z</time></trkpt>
<trkpt lat="47.210354" lon="10.880394"><ele>996.0</ele><time>2017-03-04T19:33:55Z</time></trkpt>
<trkpt lat="47.210493" lon="10.880263"><ele>996.0</ele><time>2017-03-04T19:33:56Z</time></trkpt>
<trkpt lat="47.210664" lon="10.880178"><ele>996.0</ele><time>2017-03-04T19:33:57Z</time></trkpt>
<trkpt lat="47.211181" lon="10.879857"><ele>997.0</ele><time>2017-03-04T19:34:01Z</time></trkpt>
<trkpt lat="47.211355" lon="10.87971"><ele>997.0</ele><time>2017-03-04T19:34:02Z</time></trkpt>
<trkpt lat="47.211595" lon="10.87945"><ele>997.0</ele><time>2017-03-04T19:34:04Z</time></trkpt>
<trkpt lat="47.211721" lon="10.879387"><ele>1005.0</ele><time>2017-03-04T19:34:05Z</time></trkpt>
<trkpt lat="47.21188" lon="10.879418"><ele>1005.0</ele><time>2017-03-04T19:34:06Z</time></trkpt>
<trkpt lat="47.212167" lon="10.879563"><ele>1005.0</ele><time>2017-03-04T19:34:08Z</time></trkpt>
<trkpt lat="47.212364" lon="10.87968"><ele>1005.0</ele><time>2017-03-04T19:34:09Z</time></trkpt>
<trkpt lat="47.212448" lon="10.879767"><ele>1005.0</ele><time>2017-03-04T19:34:09Z</time></trkpt>
<trkpt lat="47.212518" lon="10.879888"><ele>989.0</ele><time>2017-03-04T19:34:11Z</time></trkpt>
<trkpt lat="47.212664" lon="10.880403"><ele>1002.0</ele><time>2017-03-04T19:34:13Z</time></trkpt>
<trkpt lat="47.212741" lon="10.880552"><ele>1002.0</ele><time>2017-03-04T19:34:14Z</time></trkpt>
<trkpt lat="47.212792" lon="10.880599"><ele>1002.0</ele><time>2017-03-04T19:34:14Z</time></trkpt>
<trkpt lat="47.213581" lon="10.880607"><ele>1005.0</ele><time>2017-03-04T19:34:19Z</time></trkpt>
<trkpt lat="47.214001" lon="10.880522"><ele>1005.0</ele><time>2017-03-04T19:34:22Z</time></trkpt>
<trkpt lat="47.21415" lon="10.880544"><ele>1005.0</ele><time>2017-03-04T19:34:23Z</time></trkpt>
<trkpt lat="47.214359" lon="10.880704"><ele>1007.0</ele><time>2017-03-04T19:34:24Z</time></trkpt>
<trkpt lat="47.214501" lon="10.880897"><ele>1025.0</ele><time>2017-03-04T19:34:26Z</time></trkpt>
<trkpt lat="47.2147" lon="10.881119"><ele>1025.0</ele><time>2017-03-04T19:34:27Z</time></trkpt>
<trkpt lat="47.214833" lon="10.88122"><ele>1025.0</ele><time>2017-03-04T19:34:28Z</time></trkpt>
<trkpt lat="47.214957" lon="10.881249"><ele>1025.0</ele><time>2017-03-04T19:34:29Z</time></trkpt>
<trkpt lat="47.215143" lon="10.881228"><ele>1046.0</ele><time>2017-03-04T19:34:31Z</time></trkpt>
<trkpt lat="47.215261" lon="10.881169"><ele>1046.0</ele><time>2017-03-04T19:34:31Z</time></trkpt>
<trkpt lat="47.215687" lon="10.880844"><ele>1046.0</ele><time>2017-03-04T19:34:34Z</time></trkpt>
<trkpt lat="47.215906" lon="10.8805"><ele>1070.0</ele><time>2017-03-04T19:34:37Z</time></trkpt>
<trkpt lat="47.216725" lon="10.878873"><ele>1068.0</ele><time>2017-03-04T19:34:45Z</time></trkpt>
<trkpt lat="47.217053" lon="10.878272"><ele>1049.0</ele><time>2017-03-04T19:34:49Z</time></trkpt>
<trkpt lat="47.217193" lon="10.87813"><ele>1049.0</ele><time>2017-03-04T19:34:50Z</time></trkpt>
<trkpt lat="47.217371" lon="10.878017"><ele>1049.0</ele><time>2017-03-04T19:34:51Z</time></trkpt>
<trkpt lat="47.217479" lon="10.877999"><ele>1049.0</ele><time>2017-03-04T19:34:54Z</time></trkpt>
<trkpt lat="47.217479" lon="10.877999"><ele>1049.0</ele><time>2017-03-04T19:34:54Z</time></trkpt>
<trkpt lat="47.217496" lon="10.877996"><ele>1049.0</ele><time>2017-03-04T19:34:54Z</time></trkpt>
<trkpt lat="47.217573" lon="10.87808"><ele>1067.0</ele><time>2017-03-04T19:34:55Z</time></trkpt>
<trkpt lat="47.217596" lon="10.878225"><ele>1067.0</ele><time>2017-03-04T19:34:56Z</time></trkpt>
<trkpt lat="47.217545" lon="10.878336"><ele>1086.0</ele><time>2017-03-04T19:34:57Z</time></trkpt>
<trkpt lat="47.217222" lon="10.878737"><ele>1068.0</ele><time>2017-03-04T19:35:00Z</time></trkpt>
<trkpt lat="47.217097" lon="10.878985"><ele>1068.0</ele><time>2017-03-04T19:35:01Z</time></trkpt>
<trkpt lat="47.217028" lon="10.879201"><ele>1082.0</ele><time>2017-03-04T19:35:02Z</time></trkpt>
<trkpt lat="47.217027" lon="10.879474"><ele>1082.0</ele><time>2017-03-04T19:35:03Z</time></trkpt>
<trkpt lat="47.217149" lon="10.88021"><ele>1092.0</ele><time>2017-03-04T19:35:06Z</time></trkpt>
<trkpt lat="47.217176" lon="10.880496"><ele>1092.0</ele><time>2017-03-04T19:35:07Z</time></trkpt>
<trkpt lat="47.217159" lon="10.880633"><ele>1092.0</ele><time>2017-03-04T19:35:08Z</time></trkpt>
<trkpt lat="47.21708" lon="10.880744"><ele>1092.0</ele><time>2017-03-04T19:35:08Z</time></trkpt>
<trkpt lat="47.216859" lon="10.880848"><ele>1104.0</ele><time>2017-03-04T19:35:10Z</time></trkpt>
<trkpt lat="47.216786" lon="10.880899"><ele>1104.0</ele><time>2017-03-04T19:35:10Z</time></trkpt>
<trkpt lat="47.216722" lon="10.880993"><ele>1104.0</ele><time>2017-03-04T19:35:11Z</time></trkpt>
<trkpt lat="47.216655" lon="10.881227"><ele>1086.0</ele><time>2017-03-04T19:35:12Z</time></trkpt>
<trkpt lat="47.216617" lon="10.881447"><ele>1086.0</ele><time>2017-03-04T19:35:13Z</time></trkpt>
<trkpt lat="47.216614" lon="10.881667"><ele>1102.0</ele><time>2017-03-04T19:35:14Z</time></trkpt>
<trkpt lat="47.216649" lon="10.881933"><ele>1102.0</ele><time>2017-03-04T19:35:15Z</time></trkpt>
<trkpt lat="47.216724" lon="10.8823"><ele>1130.0</ele><time>2017-03-04T19:35:17Z</time></trkpt>
<trkpt lat="47.216928" lon="10.882824"><ele>1138.0</ele><time>2017-03-04T19:35:19Z</time></trkpt>
<trkpt lat="47.217018" lon="10.883131"><ele>1138.0</ele><time>2017-03-04T19:35:21Z</time></trkpt>
<trkpt lat="47.217017" lon="10.883276"><ele>1138.0</ele><time>2017-03-04T19:35:21Z</time></trkpt>
<trkpt lat="47.216982" lon="10.883437"><ele>1133.0</ele><time>2017-03-04T19:35:22Z</time></trkpt>
<trkpt lat="47.21675" lon="10.883929"><ele>1133.0</ele><time>2017-03-04T19:35:24Z</time></trkpt>
<trkpt lat="47.216711" lon="10.884085"><ele>1133.0</ele><time>2017-03-04T19:35:25Z</time></trkpt>
<trkpt lat="47.216676" lon="10.884404"><ele>1133.0</ele><time>2017-03-04T19:35:26Z</time></trkpt>
<trkpt lat="47.216664" lon="10.88476"><ele>1118.0</ele><time>2017-03-04T19:35:28Z</time></trkpt>
<trkpt lat="47.216677" lon="10.885052"><ele>1133.0</ele><time>2017-03-04T19:35:29Z</time></trkpt>
<trkpt lat="47.216703" lon="10.885188"><ele>1133.0</ele><time>2017-03-04T19:35:30Z</time></trkpt>
<trkpt lat="47.216779" lon="10.885429"><ele>1133.0</ele><time>2017-03-04T19:35:31Z</time></trkpt>
<trkpt lat="47.216934" lon="10.885709"><ele>1133.0</ele><time>2017-03-04T19:35:32Z</time></trkpt>
<trkpt lat="47.217235" lon="10.885928"><ele>1139.0</ele><time>2017-03-04T19:35:34Z</time></trkpt>
<trkpt lat="47.217334" lon="10.885957"><ele>1139.0</ele><time>2017-03-04T19:35:35Z</time></trkpt>
<trkpt lat="47.217549" lon="10.886144"><ele>1185.0</ele><time>2017-03-04T19:35:37Z</time></trkpt>
<trkpt lat="47.217723" lon="10.886396"><ele>1185.0</ele><time>2017-03-04T19:35:39Z</time></trkpt>
<trkpt lat="47.218018" lon="10.887021"><ele>1176.0</ele><time>2017-03-04T19:35:42Z</time></trkpt>
<trkpt lat="47.218352" lon="10.887993"><ele>1219.0</ele><time>2017-03-04T19:35:46Z</time></trkpt>
<trkpt lat="47.21884" lon="10.88897"><ele>1203.0</ele><time>2017-03-04T19:35:51Z</time></trkpt>
<trkpt lat="47.219169" lon="10.889849"><ele>1252.0</ele><time>2017-03-04T19:35:56Z</time></trkpt>
<trkpt lat="47.21921" lon="10.89025"><ele>1237.0</ele><time>2017-03-04T19:35:57Z</time></trkpt>
<trkpt lat="47.219213" lon="10.89056"><ele>1237.0</ele><time>2017-03-04T19:35:59Z</time></trkpt>
<trkpt lat="47.21918" lon="10.890804"><ele>1237.0</ele><time>2017-03-04T19:36:00Z</time></trkpt>
<trkpt lat="47.219201" lon="10.891103"><ele>1226.0</ele><time>2017-03-04T19:36:01Z</time></trkpt>
<trkpt lat="47.219255" lon="10.891337"><ele>1226.0</ele><time>2017-03-04T19:36:02Z</time></trkpt>
<trkpt lat="47.219403" lon="10.891639"><ele>1226.0</ele><time>2017-03-04T19:36:03Z</time></trkpt>
<trkpt lat="47.219773" lon="10.892103"><ele>1214.0</ele><time>2017-03-04T19:36:06Z</time></trkpt>
<trkpt lat="47.219935" lon="10.892418"><ele>1214.0</ele><time>2017-03-04T19:36:08Z</time></trkpt>
<trkpt lat="47.220164" lon="10.893069"><ele>1255.0</ele><time>2017-03-04T19:36:11Z</time></trkpt>
<trkpt lat="47.220319" lon="10.893603"><ele>1236.0</ele><time>2017-03-04T19:36:13Z</time></trkpt>
<trkpt lat="47.221194" lon="10.895437"><ele>1246.0</ele><time>2017-03-04T19:36:22Z</time></trkpt>
<trkpt lat="47.221749" lon="10.89651"><ele>1305.0</ele><time>2017-03-04T19:36:28Z</time></trkpt>
<trkpt lat="47.221902" lon="10.896953"><ele>1279.0</ele><time>2017-03-04T19:36:30Z</time></trkpt>
<trkpt lat="47.22194" lon="10.897485"><ele>1279.0</ele><time>2017-03-04T19:36:32Z</time></trkpt>
<trkpt lat="47.222046" lon="10.898151"><ele>1256.0</ele><time>2017-03-04T19:36:35Z</time></trkpt>
<trkpt lat="47.222236" lon="10.898659"><ele>1252.0</ele><time>2017-03-04T19:36:38Z</time></trkpt>
<trkpt lat="47.222491" lon="10.899064"><ele>1252.0</ele><time>2017-03-04T19:36:40Z</time></trkpt>
<trkpt lat="47.222598" lon="10.899413"><ele>1305.0</ele><time>2017-03-04T19:36:43Z</time></trkpt>
<trkpt lat="47.222651" lon="10.899734"><ele>1305.0</ele><time>2017-03-04T19:36:44Z</time></trkpt>
<trkpt lat="47.222639" lon="10.900348"><ele>1303.0</ele><time>2017-03-04T19:36:46Z</time></trkpt>
<trkpt lat="47.222547" lon="10.900703"><ele>1303.0</ele><time>2017-03-04T19:36:48Z</time></trkpt>
<trkpt lat="47.222351" lon="10.90097"><ele>1262.0</ele><time>2017-03-04T19:36:50Z</time></trkpt>
<trkpt lat="47.222265" lon="10.901204"><ele>1262.0</ele><time>2017-03-04T19:36:51Z</time></trkpt>
<trkpt lat="47.222287" lon="10.901455"><ele>1262.0</ele><time>2017-03-04T19:36:52Z</time></trkpt>
<trkpt lat="47.222379" lon="10.901719"><ele>1266.0</ele><time>2017-03-04T19:36:53Z</time></trkpt>
<trkpt lat="47.222533" lon="10.901961"><ele>1308.0</ele><time>2017-03-04T19:36:56Z</time></trkpt>
<trkpt lat="47.222662" lon="10.902246"><ele>1308.0</ele><time>2017-03-04T19:36:57Z</time></trkpt>
<trkpt lat="47.22268" lon="10.902497"><ele>1308.0</ele><time>2017-03-04T19:36:58Z</time></trkpt>
<trkpt lat="47.222538" lon="10.903162"><ele>1305.0</ele><time>2017-03-04T19:37:01Z</time></trkpt>
<trkpt lat="47.22248" lon="10.903511"><ele>1278.0</ele><time>2017-03-04T19:37:03Z</time></trkpt>
<trkpt lat="47.222469" lon="10.903881"><ele>1278.0</ele><time>2017-03-04T19:37:04Z</time></trkpt>
<trkpt lat="47.222988" lon="10.907717"><ele>1310.0</ele><time>2017-03-04T19:37:19Z</time></trkpt>
<trkpt lat="47.223132" lon="10.90824"><ele>1310.0</ele><time>2017-03-04T19:37:22Z</time></trkpt>
<trkpt lat="47.223127" lon="10.908672"><ele>1306.0</ele><time>2017-03-04T19:37:23Z</time></trkpt>
<trkpt lat="47.223022" lon="10.909306"><ele>1315.0</ele><time>2017-03-04T19:37:26Z</time></trkpt>
<trkpt lat="47.222988" lon="10.909732"><ele>1315.0</ele><time>2017-03-04T19:37:27Z</time></trkpt>
<trkpt lat="47.223014" lon="10.910245"><ele>1324.0</ele><time>2017-03-04T19:37:29Z</time></trkpt>
<trkpt lat="47.223174" lon="10.911674"><ele>1329.0</ele><time>2017-03-04T19:37:35Z</time></trkpt>
<trkpt lat="47.223297" lon="10.913343"><ele>1332.0</ele><time>2017-03-04T19:37:41Z</time></trkpt>
<trkpt lat="47.223308" lon="10.914063"><ele>1332.0</ele><time>2017-03-04T19:37:44Z</time></trkpt>
<trkpt lat="47.223168" lon="10.915985"><ele>1346.0</ele><time>2017-03-04T19:37:52Z</time></trkpt>
<trkpt lat="47.223076" lon="10.916856"><ele>1353.0</ele><time>2017-03-04T19:37:55Z</time></trkpt>
<trkpt lat="47.222956" lon="10.91762"><ele>1360.0</ele><time>2017-03-04T19:37:58Z</time></trkpt>
<trkpt lat="47.222801" lon="10.918209"><ele>1360.0</ele><time>2017-03-04T19:38:01Z</time></trkpt>
<trkpt lat="47.222692" lon="10.918856"><ele>1394.0</ele><time>2017-03-04T19:38:04Z</time></trkpt>
<trkpt lat="47.222554" lon="10.919505"><ele>1410.0</ele><time>2017-03-04T19:38:06Z</time></trkpt>
<trkpt lat="47.222648" lon="10.920626"><ele>1420.0</ele><time>2017-03-04T19:38:11Z</time></trkpt>
<trkpt lat="47.222625" lon="10.921196"><ele>1422.0</ele><time>2017-03-04T19:38:13Z</time></trkpt>
<trkpt lat="47.222795" lon="10.921794"><ele>1418.0</ele><time>2017-03-04T19:38:15Z</time></trkpt>
<trkpt lat="47.223038" lon="10.92243"><ele>1418.0</ele><time>2017-03-04T19:38:18Z</time></trkpt>
<trkpt lat="47.223152" lon="10.922974"><ele>1407.0</ele><time>2017-03-04T19:38:20Z</time></trkpt>
<trkpt lat="47.223251" lon="10.923342"><ele>1405.0</ele><time>2017-03-04T19:38:22Z</time></trkpt>
<trkpt lat="47.223315" lon="10.92374"><ele>1405.0</ele><time>2017-03-04T19:38:24Z</time></trkpt>
<trkpt lat="47.223271" lon="10.923925"><ele>1405.0</ele><time>2017-03-04T19:38:24Z</time></trkpt>
<trkpt lat="47.223132" lon="10.923928"><ele>1405.0</ele><time>2017-03-04T19:38:25Z</time></trkpt>
<trkpt lat="47.222893" lon="10.923536"><ele>1405.0</ele><time>2017-03-04T19:38:27Z</time></trkpt>
<trkpt lat="47.222413" lon="10.923186"><ele>1399.0</ele><time>2017-03-04T19:38:30Z</time></trkpt>
<trkpt lat="47.222241" lon="10.923144"><ele>1399.0</ele><time>2017-03-04T19:38:31Z</time></trkpt>
<trkpt lat="47.222106" lon="10.923234"><ele>1399.0</ele><time>2017-03-04T19:38:32Z</time></trkpt>
<trkpt lat="47.222125" lon="10.92345"><ele>1413.0</ele><time>2017-03-04T19:38:33Z</time></trkpt>
<trkpt lat="47.222317" lon="10.923749"><ele>1413.0</ele><time>2017-03-04T19:38:35Z</time></trkpt>
<trkpt lat="47.222529" lon="10.924029"><ele>1405.0</ele><time>2017-03-04T19:38:36Z</time></trkpt>
<trkpt lat="47.222746" lon="10.924407"><ele>1411.0</ele><time>2017-03-04T19:38:38Z</time></trkpt>
<trkpt lat="47.222839" lon="10.924725"><ele>1411.0</ele><time>2017-03-04T19:38:40Z</time></trkpt>
<trkpt lat="47.22284" lon="10.924981"><ele>1411.0</ele><time>2017-03-04T19:38:41Z</time></trkpt>
<trkpt lat="47.222792" lon="10.925295"><ele>1417.0</ele><time>2017-03-04T19:38:42Z</time></trkpt>
<trkpt lat="47.222808" lon="10.925651"><ele>1417.0</ele><time>2017-03-04T19:38:43Z</time></trkpt>
<trkpt lat="47.222917" lon="10.925837"><ele>1436.0</ele><time>2017-03-04T19:38:45Z</time></trkpt>
<trkpt lat="47.223013" lon="10.925873"><ele>1436.0</ele><time>2017-03-04T19:38:45Z</time></trkpt>
<trkpt lat="47.22319" lon="10.925835"><ele>1436.0</ele><time>2017-03-04T19:38:46Z</time></trkpt>
<trkpt lat="47.223276" lon="10.925856"><ele>1436.0</ele><time>2017-03-04T19:38:47Z</time></trkpt>
<trkpt lat="47.223287" lon="10.925917"><ele>1436.0</ele><time>2017-03-04T19:38:47Z</time></trkpt>
<trkpt lat="47.223233" lon="10.926037"><ele>1436.0</ele><time>2017-03-04T19:38:47Z</time></trkpt>
<trkpt lat="47.222776" lon="10.926297"><ele>1436.0</ele><time>2017-03-04T19:38:50Z</time></trkpt>
<trkpt lat="47.222677" lon="10.926386"><ele>1436.0</ele><time>2017-03-04T19:38:51Z</time></trkpt>
<trkpt lat="47.222626" lon="10.926494"><ele>1436.0</ele><time>2017-03-04T19:38:51Z</time></trkpt>
<trkpt lat="47.222733" lon="10.926593"><ele>1436.0</ele><time>2017-03-04T19:38:52Z</time></trkpt>
<trkpt lat="47.223086" lon="10.926354"><ele>1436.0</ele><time>2017-03-04T19:38:54Z</time></trkpt>
<trkpt lat="47.223233" lon="10.926336"><ele>1436.0</ele><time>2017-03-04T19:38:55Z</time></trkpt>
<trkpt lat="47.223535" lon="10.926422"><ele>1446.0</ele><time>2017-03-04T19:38:57Z</time></trkpt>
<trkpt lat="47.223653" lon="10.926377"><ele>1446.0</ele><time>2017-03-04T19:38:58Z</time></trkpt>
<trkpt lat="47.223726" lon="10.92639"><ele>1446.0</ele><time>2017-03-04T19:38:58Z</time></trkpt>
<trkpt lat="47.223755" lon="10.926492"><ele>1446.0</ele><time>2017-03-04T19:38:58Z</time></trkpt>
<trkpt lat="47.223721" lon="10.926581"><ele>1446.0</ele><time>2017-03-04T19:38:59Z</time></trkpt>
<trkpt lat="47.223455" lon="10.926616"><ele>1446.0</ele><time>2017-03-04T19:39:00Z</time></trkpt>
<trkpt lat="47.223289" lon="10.926676"><ele>1462.0</ele><time>2017-03-04T19:39:02Z</time></trkpt>
<trkpt lat="47.223081" lon="10.926777"><ele>1462.0</ele><time>2017-03-04T19:39:03Z</time></trkpt>
<trkpt lat="47.222829" lon="10.926988"><ele>1462.0</ele><time>2017-03-04T19:39:04Z</time></trkpt>
<trkpt lat="47.222592" lon="10.927103"><ele>1462.0</ele><time>2017-03-04T19:39:06Z</time></trkpt>
<trkpt lat="47.222253" lon="10.927188"><ele>1470.0</ele><time>2017-03-04T19:39:08Z</time></trkpt>
<trkpt lat="47.222162" lon="10.927251"><ele>1470.0</ele><time>2017-03-04T19:39:08Z</time></trkpt>
<trkpt lat="47.222149" lon="10.927414"><ele>1470.0</ele><time>2017-03-04T19:39:09Z</time></trkpt>
<trkpt lat="47.222165" lon="10.927446"><ele>1470.0</ele><time>2017-03-04T19:39:09Z</time></trkpt>
<trkpt lat="47.222311" lon="10.927485"><ele>1470.0</ele><time>2017-03-04T19:39:10Z</time></trkpt>
<trkpt lat="47.222453" lon="10.927452"><ele>1470.0</ele><time>2017-03-04T19:39:11Z</time></trkpt>
<trkpt lat="47.223141" lon="10.927202"><ele>1462.0</ele><time>2017-03-04T19:39:15Z</time></trkpt>
<trkpt lat="47.223233" lon="10.927208"><ele>1462.0</ele><time>2017-03-04T19:39:15Z</time></trkpt>
<trkpt lat="47.22333" lon="10.927264"><ele>1462.0</ele><time>2017-03-04T19:39:16Z</time></trkpt>
<trkpt lat="47.223518" lon="10.927463"><ele>1474.0</ele><time>2017-03-04T19:39:17Z</time></trkpt>
<trkpt lat="47.223635" lon="10.927463"><ele>1474.0</ele><time>2017-03-04T19:39:18Z</time></trkpt>
<trkpt lat="47.223845" lon="10.927422"><ele>1474.0</ele><time>2017-03-04T19:39:19Z</time></trkpt>
<trkpt lat="47.224149" lon="10.927268"><ele>1474.0</ele><time>2017-03-04T19:39:21Z</time></trkpt>
<trkpt lat="47.224414" lon="10.927214"><ele>1482.0</ele><time>2017-03-04T19:39:23Z</time></trkpt>
<trkpt lat="47.224512" lon="10.927239"><ele>1482.0</ele><time>2017-03-04T19:39:23Z</time></trkpt>
<trkpt lat="47.224696" lon="10.927361"><ele>1482.0</ele><time>2017-03-04T19:39:24Z</time></trkpt>
<trkpt lat="47.224774" lon="10.927497"><ele>1482.0</ele><time>2017-03-04T19:39:25Z</time></trkpt>
<trkpt lat="47.224775" lon="10.927895"><ele>1495.0</ele><time>2017-03-04T19:39:27Z</time></trkpt>
<trkpt lat="47.224751" lon="10.928092"><ele>1495.0</ele><time>2017-03-04T19:39:27Z</time></trkpt>
<trkpt lat="47.224686" lon="10.928383"><ele>1506.0</ele><time>2017-03-04T19:39:29Z</time></trkpt>
<trkpt lat="47.224673" lon="10.928673"><ele>1506.0</ele><time>2017-03-04T19:39:30Z</time></trkpt>
<trkpt lat="47.224746" lon="10.92892"><ele>1506.0</ele><time>2017-03-04T19:39:31Z</time></trkpt>
<trkpt lat="47.225018" lon="10.929398"><ele>1500.0</ele><time>2017-03-04T19:39:33Z</time></trkpt>
<trkpt lat="47.225319" lon="10.929877"><ele>1500.0</ele><time>2017-03-04T19:39:36Z</time></trkpt>
<trkpt lat="47.225564" lon="10.930313"><ele>1499.0</ele><time>2017-03-04T19:39:38Z</time></trkpt>
<trkpt lat="47.225825" lon="10.930823"><ele>1499.0</ele><time>2017-03-04T19:39:40Z</time></trkpt>
<trkpt lat="47.226211" lon="10.931126"><ele>1501.0</ele><time>2017-03-04T19:39:43Z</time></trkpt>
<trkpt lat="47.226921" lon="10.931343"><ele>1523.0</ele><time>2017-03-04T19:39:47Z</time></trkpt>
<trkpt lat="47.227095" lon="10.931491"><ele>1523.0</ele><time>2017-03-04T19:39:48Z</time></trkpt>
<trkpt lat="47.227196" lon="10.931732"><ele>1512.0</ele><time>2017-03-04T19:39:50Z</time></trkpt>
<trkpt lat="47.227649" lon="10.93337"><ele>1530.0</ele><time>2017-03-04T19:39:56Z</time></trkpt>
<trkpt lat="47.227879" lon="10.934255"><ele>1523.0</ele><time>2017-03-04T19:40:00Z</time></trkpt>
<trkpt lat="47.227982" lon="10.934746"><ele>1523.0</ele><time>2017-03-04T19:40:02Z</time></trkpt>
<trkpt lat="47.22802" lon="10.935033"><ele>1521.0</ele><time>2017-03-04T19:40:03Z</time></trkpt>
<trkpt lat="47.228089" lon="10.935812"><ele>1521.0</ele><time>2017-03-04T19:40:06Z</time></trkpt>
<trkpt lat="47.228174" lon="10.936169"><ele>1520.0</ele><time>2017-03-04T19:40:08Z</time></trkpt>
<trkpt lat="47.228442" lon="10.936839"><ele>1547.0</ele><time>2017-03-04T19:40:11Z</time></trkpt>
<trkpt lat="47.228505" lon="10.937134"><ele>1547.0</ele><time>2017-03-04T19:40:12Z</time></trkpt>
<trkpt lat="47.228638" lon="10.938022"><ele>1544.0</ele><time>2017-03-04T19:40:16Z</time></trkpt>
<trkpt lat="47.228841" lon="10.939066"><ele>1540.0</ele><time>2017-03-04T19:40:20Z</time></trkpt>
<trkpt lat="47.228859" lon="10.939444"><ele>1540.0</ele><time>2017-03-04T19:40:21Z</time></trkpt>
<trkpt lat="47.228799" lon="10.939742"><ele>1540.0</ele><time>2017-03-04T19:40:22Z</time></trkpt>
<trkpt lat="47.228685" lon="10.94007"><ele>1542.0</ele><time>2017-03-04T19:40:24Z</time></trkpt>
<trkpt lat="47.228642" lon="10.940308"><ele>1542.0</ele><time>2017-03-04T19:40:25Z</time></trkpt>
<trkpt lat="47.228646" lon="10.941174"><ele>1545.0</ele><time>2017-03-04T19:40:28Z</time></trkpt>
<trkpt lat="47.228588" lon="10.942349"><ele>1548.0</ele><time>2017-03-04T19:40:33Z</time></trkpt>
<trkpt lat="47.228622" lon="10.942905"><ele>1550.0</ele><time>2017-03-04T19:40:35Z</time></trkpt>
<trkpt lat="47.228795" lon="10.944012"><ele>1552.0</ele><time>2017-03-04T19:40:39Z</time></trkpt>
<trkpt lat="47.228813" lon="10.944346"><ele>1552.0</ele><time>2017-03-04T19:40:40Z</time></trkpt>
<trkpt lat="47.228778" lon="10.944663"><ele>1552.0</ele><time>2017-03-04T19:40:42Z</time></trkpt>
<trkpt lat="47.228813" lon="10.944962"><ele>1552.0</ele><time>2017-03-04T19:40:43Z</time></trkpt>
<trkpt lat="47.228915" lon="10.945251"><ele>1552.0</ele><time>2017-03-04T19:40:44Z</time></trkpt>
<trkpt lat="47.229346" lon="10.946173"><ele>1572.0</ele><time>2017-03-04T19:40:48Z</time></trkpt>
<trkpt lat="47.229745" lon="10.947897"><ele>1568.0</ele><time>2017-03-04T19:40:55Z</time></trkpt>
<trkpt lat="47.229808" lon="10.948362"><ele>1566.0</ele><time>2017-03-04T19:40:57Z</time></trkpt>
<trkpt lat="47.229902" lon="10.950138"><ele>1559.0</ele><time>2017-03-04T19:41:04Z</time></trkpt>
<trkpt lat="47.229892" lon="10.950588"><ele>1559.0</ele><time>2017-03-04T19:41:06Z</time></trkpt>
<trkpt lat="47.2298" lon="10.951343"><ele>1562.0</ele><time>2017-03-04T19:41:09Z</time></trkpt>
<trkpt lat="47.229789" lon="10.951805"><ele>1563.0</ele><time>2017-03-04T19:41:11Z</time></trkpt>
<trkpt lat="47.229851" lon="10.95246"><ele>1563.0</ele><time>2017-03-04T19:41:13Z</time></trkpt>
<trkpt lat="47.229843" lon="10.95321"><ele>1563.0</ele><time>2017-03-04T19:41:16Z</time></trkpt>
<trkpt lat="47.229819" lon="10.953751"><ele>1568.0</ele><time>2017-03-04T19:41:18Z</time></trkpt>
<trkpt lat="47.229789" lon="10.954022"><ele>1568.0</ele><time>2017-03-04T19:41:19Z</time></trkpt>
<trkpt lat="47.229702" lon="10.954335"><ele>1569.0</ele><time>2017-03-04T19:41:20Z</time></trkpt>
<trkpt lat="47.229481" lon="10.954862"><ele>1569.0</ele><time>2017-03-04T19:41:23Z</time></trkpt>
<trkpt lat="47.229353" lon="10.955279"><ele>1573.0</ele><time>2017-03-04T19:41:25Z</time></trkpt>
<trkpt lat="47.22931" lon="10.955592"><ele>1573.0</ele><time>2017-03-04T19:41:26Z</time></trkpt>
<trkpt lat="47.229212" lon="10.957882"><ele>1639.0</ele><time>2017-03-04T19:41:35Z</time></trkpt>
<trkpt lat="47.229154" lon="10.95848"><ele>1585.0</ele><time>2017-03-04T19:41:39Z</time></trkpt>
<trkpt lat="47.229154" lon="10.959132"><ele>1585.0</ele><time>2017-03-04T19:41:41Z</time></trkpt>
<trkpt lat="47.22913" lon="10.959327"><ele>1586.0</ele><time>2017-03-04T19:41:42Z</time></trkpt>
<trkpt lat="47.228909" lon="10.959601"><ele>1586.0</ele><time>2017-03-04T19:41:44Z</time></trkpt>
<trkpt lat="47.228664" lon="10.959783"><ele>1586.0</ele><time>2017-03-04T19:41:45Z</time></trkpt>
<trkpt lat="47.228494" lon="10.959938"><ele>1586.0</ele><time>2017-03-04T19:41:46Z</time></trkpt>
<trkpt lat="47.228315" lon="10.960152"><ele>1590.0</ele><time>2017-03-04T19:41:48Z</time></trkpt>
<trkpt lat="47.228006" lon="10.960573"><ele>1590.0</ele><time>2017-03-04T19:41:50Z</time></trkpt>
<trkpt lat="47.227849" lon="10.960828"><ele>1590.0</ele><time>2017-03-04T19:41:51Z</time></trkpt>
<trkpt lat="47.227724" lon="10.961095"><ele>1587.0</ele><time>2017-03-04T19:41:53Z</time></trkpt>
<trkpt lat="47.227684" lon="10.961261"><ele>1587.0</ele><time>2017-03-04T19:41:53Z</time></trkpt>
<trkpt lat="47.227612" lon="10.961817"><ele>1582.0</ele><time>2017-03-04T19:41:55Z</time></trkpt>
<trkpt lat="47.227535" lon="10.962215"><ele>1582.0</ele><time>2017-03-04T19:41:57Z</time></trkpt>
<trkpt lat="47.227543" lon="10.96247"><ele>1582.0</ele><time>2017-03-04T19:41:58Z</time></trkpt>
<trkpt lat="47.227656" lon="10.963324"><ele>1585.0</ele><time>2017-03-04T19:42:01Z</time></trkpt>
<trkpt lat="47.227612" lon="10.963722"><ele>1587.0</ele><time>2017-03-04T19:42:03Z</time></trkpt>
<trkpt lat="47.227408" lon="10.964589"><ele>1633.0</ele><time>2017-03-04T19:42:07Z</time></trkpt>
<trkpt lat="47.227085" lon="10.965322"><ele>1624.0</ele><time>2017-03-04T19:42:11Z</time></trkpt>
<trkpt lat="47.226969" lon="10.966334"><ele>1618.0</ele><time>2017-03-04T19:42:14Z</time></trkpt>
<trkpt lat="47.226853" lon="10.967028"><ele>1619.0</ele><time>2017-03-04T19:42:17Z</time></trkpt>
<trkpt lat="47.226136" lon="10.968939"><ele>1658.0</ele><time>2017-03-04T19:42:26Z</time></trkpt>
<trkpt lat="47.226076" lon="10.969417"><ele>1658.0</ele><time>2017-03-04T19:42:28Z</time></trkpt>
<trkpt lat="47.22611" lon="10.969735"><ele>1658.0</ele><time>2017-03-04T19:42:29Z</time></trkpt>
<trkpt lat="47.226066" lon="10.970221"><ele>1665.0</ele><time>2017-03-04T19:42:31Z</time></trkpt>
<trkpt lat="47.226025" lon="10.970403"><ele>1665.0</ele><time>2017-03-04T19:42:32Z</time></trkpt>
<trkpt lat="47.225975" lon="10.970545"><ele>1665.0</ele><time>2017-03-04T19:42:32Z</time></trkpt>
<trkpt lat="47.22588" lon="10.970656"><ele>1665.0</ele><time>2017-03-04T19:42:33Z</time></trkpt>
<trkpt lat="47.225696" lon="10.970739"><ele>1699.0</ele><time>2017-03-04T19:42:35Z</time></trkpt>
<trkpt lat="47.225616" lon="10.971284"><ele>1699.0</ele><time>2017-03-04T19:42:37Z</time></trkpt>
<trkpt lat="47.225545" lon="10.971524"><ele>1699.0</ele><time>2017-03-04T19:42:38Z</time></trkpt>
<trkpt lat="47.225303" lon="10.972038"><ele>1702.0</ele><time>2017-03-04T19:42:40Z</time></trkpt>
<trkpt lat="47.225225" lon="10.972313"><ele>1702.0</ele><time>2017-03-04T19:42:42Z</time></trkpt>
<trkpt lat="47.22521" lon="10.972457"><ele>1702.0</ele><time>2017-03-04T19:42:42Z</time></trkpt>
<trkpt lat="47.225221" lon="10.972891"><ele>1704.0</ele><time>2017-03-04T19:42:44Z</time></trkpt>
<trkpt lat="47.22528" lon="10.973233"><ele>1704.0</ele><time>2017-03-04T19:42:45Z</time></trkpt>
<trkpt lat="47.225398" lon="10.973527"><ele>1706.0</ele><time>2017-03-04T19:42:46Z</time></trkpt>
<trkpt lat="47.225502" lon="10.97385"><ele>1706.0</ele><time>2017-03-04T19:42:48Z</time></trkpt>
<trkpt lat="47.225547" lon="10.974107"><ele>1706.0</ele><time>2017-03-04T19:42:49Z</time></trkpt>
<trkpt lat="47.225575" lon="10.974476"><ele>1706.0</ele><time>2017-03-04T19:42:50Z</time></trkpt>
<trkpt lat="47.225511" lon="10.974935"><ele>1706.0</ele><time>2017-03-04T19:42:52Z</time></trkpt>
<trkpt lat="47.225256" lon="10.975763"><ele>1711.0</ele><time>2017-03-04T19:42:56Z</time></trkpt>
<trkpt lat="47.225193" lon="10.976308"><ele>1713.0</ele><time>2017-03-04T19:42:58Z</time></trkpt>
<trkpt lat="47.225148" lon="10.977251"><ele>1720.0</ele><time>2017-03-04T19:43:01Z</time></trkpt>
<trkpt lat="47.225075" lon="10.977527"><ele>1730.0</ele><time>2017-03-04T19:43:03Z</time></trkpt>
<trkpt lat="47.224793" lon="10.9783"><ele>1733.0</ele><time>2017-03-04T19:43:06Z</time></trkpt>
<trkpt lat="47.224436" lon="10.978791"><ele>1729.0</ele><time>2017-03-04T19:43:09Z</time></trkpt>
<trkpt lat="47.224332" lon="10.979049"><ele>1729.0</ele><time>2017-03-04T19:43:10Z</time></trkpt>
<trkpt lat="47.224294" lon="10.979393"><ele>1729.0</ele><time>2017-03-04T19:43:11Z</time></trkpt>
<trkpt lat="47.224278" lon="10.97978"><ele>1729.0</ele><time>2017-03-04T19:43:13Z</time></trkpt>
<trkpt lat="47.224222" lon="10.980036"><ele>1746.0</ele><time>2017-03-04T19:43:14Z</time></trkpt>
<trkpt lat="47.223906" lon="10.980532"><ele>1733.0</ele><time>2017-03-04T19:43:17Z</time></trkpt>
<trkpt lat="47.223672" lon="10.98102"><ele>1745.0</ele><time>2017-03-04T19:43:19Z</time></trkpt>
<trkpt lat="47.223397" lon="10.981753"><ele>1760.0</ele><time>2017-03-04T19:43:22Z</time></trkpt>
<trkpt lat="47.223174" lon="10.982221"><ele>1744.0</ele><time>2017-03-04T19:43:25Z</time></trkpt>
<trkpt lat="47.222866" lon="10.982644"><ele>1756.0</ele><time>2017-03-04T19:43:27Z</time></trkpt>
<trkpt lat="47.221794" lon="10.983985"><ele>1757.0</ele><time>2017-03-04T19:43:35Z</time></trkpt>
<trkpt lat="47.221306" lon="10.984946"><ele>1755.0</ele><time>2017-03-04T19:43:40Z</time></trkpt>
<trkpt lat="47.220977" lon="10.985684"><ele>1758.0</ele><time>2017-03-04T19:43:43Z</time></trkpt>
<trkpt lat="47.220825" lon="10.985914"><ele>1757.0</ele><time>2017-03-04T19:43:44Z</time></trkpt>
<trkpt lat="47.220689" lon="10.986032"><ele>1757.0</ele><time>2017-03-04T19:43:45Z</time></trkpt>
<trkpt lat="47.220556" lon="10.986089"><ele>1757.0</ele><time>2017-03-04T19:43:46Z</time></trkpt>
<trkpt lat="47.219767" lon="10.986001"><ele>1764.0</ele><time>2017-03-04T19:43:51Z</time></trkpt>
<trkpt lat="47.219667" lon="10.985944"><ele>1764.0</ele><time>2017-03-04T19:43:51Z</time></trkpt>
<trkpt lat="47.219514" lon="10.985738"><ele>1755.0</ele><time>2017-03-04T19:43:52Z</time></trkpt>
<trkpt lat="47.219201" lon="10.985171"><ele>1755.0</ele><time>2017-03-04T19:43:55Z</time></trkpt>
<trkpt lat="47.219111" lon="10.985048"><ele>1779.0</ele><time>2017-03-04T19:43:57Z</time></trkpt>
<trkpt lat="47.219005" lon="10.985062"><ele>1779.0</ele><time>2017-03-04T19:43:57Z</time></trkpt>
<trkpt lat="47.218967" lon="10.985222"><ele>1779.0</ele><time>2017-03-04T19:43:58Z</time></trkpt>
<trkpt lat="47.219047" lon="10.985712"><ele>1779.0</ele><time>2017-03-04T19:44:00Z</time></trkpt>
<trkpt lat="47.219052" lon="10.985856"><ele>1782.0</ele><time>2017-03-04T19:44:00Z</time></trkpt>
<trkpt lat="47.218945" lon="10.986312"><ele>1782.0</ele><time>2017-03-04T19:44:02Z</time></trkpt>
<trkpt lat="47.218907" lon="10.98656"><ele>1782.0</ele><time>2017-03-04T19:44:03Z</time></trkpt>
<trkpt lat="47.218914" lon="10.986701"><ele>1789.0</ele><time>2017-03-04T19:44:04Z</time></trkpt>
<trkpt lat="47.219097" lon="10.987247"><ele>1789.0</ele><time>2017-03-04T19:44:06Z</time></trkpt>
<trkpt lat="47.219197" lon="10.987473"><ele>1785.0</ele><time>2017-03-04T19:44:07Z</time></trkpt>
<trkpt lat="47.219225" lon="10.987601"><ele>1807.0</ele><time>2017-03-04T19:44:08Z</time></trkpt>
<trkpt lat="47.219219" lon="10.987746"><ele>1807.0</ele><time>2017-03-04T19:44:09Z</time></trkpt>
<trkpt lat="47.219141" lon="10.988046"><ele>1805.0</ele><time>2017-03-04T19:44:10Z</time></trkpt>
<trkpt lat="47.219091" lon="10.988513"><ele>1813.0</ele><time>2017-03-04T19:44:12Z</time></trkpt>
<trkpt lat="47.219052" lon="10.988675"><ele>1813.0</ele><time>2017-03-04T19:44:13Z</time></trkpt>
<trkpt lat="47.218959" lon="10.988795"><ele>1813.0</ele><time>2017-03-04T19:44:13Z</time></trkpt>
<trkpt lat="47.218785" lon="10.988801"><ele>1813.0</ele><time>2017-03-04T19:44:14Z</time></trkpt>
<trkpt lat="47.21849" lon="10.988885"><ele>1813.0</ele><time>2017-03-04T19:44:16Z</time></trkpt>
<trkpt lat="47.218288" lon="10.988966"><ele>1826.0</ele><time>2017-03-04T19:44:18Z</time></trkpt>
<trkpt lat="47.217844" lon="10.989407"><ele>1810.0</ele><time>2017-03-04T19:44:21Z</time></trkpt>
<trkpt lat="47.217563" lon="10.989744"><ele>1810.0</ele><time>2017-03-04T19:44:23Z</time></trkpt>
<trkpt lat="47.21742" lon="10.990105"><ele>1806.0</ele><time>2017-03-04T19:44:24Z</time></trkpt>
<trkpt lat="47.217383" lon="10.990243"><ele>1806.0</ele><time>2017-03-04T19:44:25Z</time></trkpt>
<trkpt lat="47.21723" lon="10.991406"><ele>1806.0</ele><time>2017-03-04T19:44:29Z</time></trkpt>
<trkpt lat="47.217129" lon="10.992806"><ele>1828.0</ele><time>2017-03-04T19:44:35Z</time></trkpt>
<trkpt lat="47.21705" lon="10.99314"><ele>1828.0</ele><time>2017-03-04T19:44:36Z</time></trkpt>
<trkpt lat="47.216965" lon="10.99326"><ele>1828.0</ele><time>2017-03-04T19:44:37Z</time></trkpt>
<trkpt lat="47.2162" lon="10.993805"><ele>1834.0</ele><time>2017-03-04T19:44:42Z</time></trkpt>
<trkpt lat="47.215782" lon="10.994024"><ele>1828.0</ele><time>2017-03-04T19:44:44Z</time></trkpt>
<trkpt lat="47.215498" lon="10.994356"><ele>1842.0</ele><time>2017-03-04T19:44:46Z</time></trkpt>
<trkpt lat="47.215194" lon="10.994914"><ele>1842.0</ele><time>2017-03-04T19:44:49Z</time></trkpt>
<trkpt lat="47.215004" lon="10.995339"><ele>1859.0</ele><time>2017-03-04T19:44:51Z</time></trkpt>
<trkpt lat="47.214935" lon="10.99566"><ele>1844.0</ele><time>2017-03-04T19:44:53Z</time></trkpt>
<trkpt lat="47.214875" lon="10.996209"><ele>1855.0</ele><time>2017-03-04T19:44:55Z</time></trkpt>
<trkpt lat="47.21486" lon="10.997005"><ele>1865.0</ele><time>2017-03-04T19:44:58Z</time></trkpt>
<trkpt lat="47.214832" lon="10.997246"><ele>1865.0</ele><time>2017-03-04T19:44:59Z</time></trkpt>
<trkpt lat="47.214792" lon="10.997387"><ele>1865.0</ele><time>2017-03-04T19:45:00Z</time></trkpt>
<trkpt lat="47.21474" lon="10.99748"><ele>1865.0</ele><time>2017-03-04T19:45:00Z</time></trkpt>
<trkpt lat="47.214664" lon="10.997554"><ele>1878.0</ele><time>2017-03-04T19:45:01Z</time></trkpt>
<trkpt lat="47.213969" lon="10.997841"><ele>1869.0</ele><time>2017-03-04T19:45:05Z</time></trkpt>
<trkpt lat="47.21386" lon="10.997916"><ele>1869.0</ele><time>2017-03-04T19:45:06Z</time></trkpt>
<trkpt lat="47.213823" lon="10.998021"><ele>1869.0</ele><time>2017-03-04T19:45:06Z</time></trkpt>
<trkpt lat="47.213823" lon="10.998161"><ele>1869.0</ele><time>2017-03-04T19:45:07Z</time></trkpt>
<trkpt lat="47.213874" lon="10.99829"><ele>1869.0</ele><time>2017-03-04T19:45:07Z</time></trkpt>
<trkpt lat="47.214087" lon="10.998308"><ele>1869.0</ele><time>2017-03-04T19:45:09Z</time></trkpt>
<trkpt lat="47.214287" lon="10.998189"><ele>1878.0</ele><time>2017-03-04T19:45:10Z</time></trkpt>
<trkpt lat="47.214415" lon="10.998145"><ele>1878.0</ele><time>2017-03-04T19:45:11Z</time></trkpt>
<trkpt lat="47.214539" lon="10.99817"><ele>1878.0</ele><time>2017-03-04T19:45:11Z</time></trkpt>
<trkpt lat="47.214623" lon="10.998225"><ele>1878.0</ele><time>2017-03-04T19:45:12Z</time></trkpt>
<trkpt lat="47.214726" lon="10.998346"><ele>1892.0</ele><time>2017-03-04T19:45:13Z</time></trkpt>
<trkpt lat="47.214781" lon="10.998458"><ele>1892.0</ele><time>2017-03-04T19:45:13Z</time></trkpt>
<trkpt lat="47.214824" lon="10.998745"><ele>1892.0</ele><time>2017-03-04T19:45:15Z</time></trkpt>
<trkpt lat="47.214825" lon="10.998882"><ele>1892.0</ele><time>2017-03-04T19:45:15Z</time></trkpt>
<trkpt lat="47.2148" lon="10.99903"><ele>1892.0</ele><time>2017-03-04T19:45:16Z</time></trkpt>
<trkpt lat="47.214727" lon="10.999211"><ele>1905.0</ele><time>2017-03-04T19:45:17Z</time></trkpt>
<trkpt lat="47.214339" lon="10.999875"><ele>1905.0</ele><time>2017-03-04T19:45:20Z</time></trkpt>
<trkpt lat="47.213582" lon="11.000981"><ele>1917.0</ele><time>2017-03-04T19:45:26Z</time></trkpt>
<trkpt lat="47.213398" lon="11.00135"><ele>1917.0</ele><time>2017-03-04T19:45:28Z</time></trkpt>
<trkpt lat="47.212759" lon="11.003087"><ele>1919.0</ele><time>2017-03-04T19:45:35Z</time></trkpt>
<trkpt lat="47.212516" lon="11.003819"><ele>1924.0</ele><time>2017-03-04T19:45:39Z</time></trkpt>
<trkpt lat="47.212331" lon="11.00414"><ele>1910.0</ele><time>2017-03-04T19:45:40Z</time></trkpt>
<trkpt lat="47.212163" lon="11.004322"><ele>1915.0</ele><time>2017-03-04T19:45:42Z</time></trkpt>
<trkpt lat="47.212011" lon="11.004429"><ele>1915.0</ele><time>2017-03-04T19:45:42Z</time></trkpt>
<trkpt lat="47.211171" lon="11.004763"><ele>1905.0</ele><time>2017-03-04T19:45:47Z</time></trkpt>
<trkpt lat="47.210906" lon="11.004893"><ele>1905.0</ele><time>2017-03-04T19:45:49Z</time></trkpt>
<trkpt lat="47.210745" lon="11.005048"><ele>1910.0</ele><time>2017-03-04T19:45:50Z</time></trkpt>
<trkpt lat="47.210604" lon="11.005296"><ele>1910.0</ele><time>2017-03-04T19:45:51Z</time></trkpt>
<trkpt lat="47.210514" lon="11.005536"><ele>1910.0</ele><time>2017-03-04T19:45:52Z</time></trkpt>
<trkpt lat="47.210414" lon="11.00622"><ele>1917.0</ele><time>2017-03-04T19:45:55Z</time></trkpt>
<trkpt lat="47.210329" lon="11.007029"><ele>1920.0</ele><time>2017-03-04T19:45:58Z</time></trkpt>
<trkpt lat="47.210288" lon="11.007544"><ele>1931.0</ele><time>2017-03-04T19:46:00Z</time></trkpt>
<trkpt lat="47.210295" lon="11.007679"><ele>1931.0</ele><time>2017-03-04T19:46:01Z</time></trkpt>
<trkpt lat="47.210357" lon="11.007887"><ele>1931.0</ele><time>2017-03-04T19:46:02Z</time></trkpt>
<trkpt lat="47.210443" lon="11.008004"><ele>1931.0</ele><time>2017-03-04T19:46:02Z</time></trkpt>
<trkpt lat="47.210544" lon="11.008082"><ele>1931.0</ele><time>2017-03-04T19:46:03Z</time></trkpt>
<trkpt lat="47.210952" lon="11.008214"><ele>1937.0</ele><time>2017-03-04T19:46:05Z</time></trkpt>
<trkpt lat="47.211367" lon="11.008235"><ele>1937.0</ele><time>2017-03-04T19:46:08Z</time></trkpt>
<trkpt lat="47.211411" lon="11.008265"><ele>1937.0</ele><time>2017-03-04T19:46:08Z</time></trkpt>
<trkpt lat="47.211472" lon="11.008392"><ele>1945.0</ele><time>2017-03-04T19:46:09Z</time></trkpt>
<trkpt lat="47.211471" lon="11.008708"><ele>1945.0</ele><time>2017-03-04T19:46:10Z</time></trkpt>
<trkpt lat="47.211308" lon="11.010253"><ele>1941.0</ele><time>2017-03-04T19:46:16Z</time></trkpt>
<trkpt lat="47.211305" lon="11.010497"><ele>1941.0</ele><time>2017-03-04T19:46:17Z</time></trkpt>
<trkpt lat="47.211339" lon="11.010759"><ele>1941.0</ele><time>2017-03-04T19:46:18Z</time></trkpt>
<trkpt lat="47.211556" lon="11.011491"><ele>1943.0</ele><time>2017-03-04T19:46:21Z</time></trkpt>
<trkpt lat="47.212216" lon="11.013318"><ele>1960.0</ele><time>2017-03-04T19:46:29Z</time></trkpt>
<trkpt lat="47.212288" lon="11.013562"><ele>1962.0</ele><time>2017-03-04T19:46:30Z</time></trkpt>
<trkpt lat="47.212343" lon="11.01397"><ele>1962.0</ele><time>2017-03-04T19:46:32Z</time></trkpt>
<trkpt lat="47.212342" lon="11.014229"><ele>1963.0</ele><time>2017-03-04T19:46:33Z</time></trkpt>
<trkpt lat="47.212299" lon="11.014836"><ele>1963.0</ele><time>2017-03-04T19:46:35Z</time></trkpt>
<trkpt lat="47.212295" lon="11.01543"><ele>1967.0</ele><time>2017-03-04T19:46:37Z</time></trkpt>
<trkpt lat="47.212317" lon="11.015858"><ele>1971.0</ele><time>2017-03-04T19:46:39Z</time></trkpt>
<trkpt lat="47.212363" lon="11.016285"><ele>1971.0</ele><time>2017-03-04T19:46:41Z</time></trkpt>
<trkpt lat="47.212512" lon="11.017209"><ele>1991.0</ele><time>2017-03-04T19:46:44Z</time></trkpt>
<trkpt lat="47.212688" lon="11.018039"><ele>1998.0</ele><time>2017-03-04T19:46:48Z</time></trkpt>
<trkpt lat="47.212923" lon="11.019258"><ele>2004.0</ele><time>2017-03-04T19:46:53Z</time></trkpt>
<trkpt lat="47.213052" lon="11.019722"><ele>2004.0</ele><time>2017-03-04T19:46:54Z</time></trkpt>
<trkpt lat="47.213397" lon="11.020523"><ele>2026.0</ele><time>2017-03-04T19:46:58Z</time></trkpt>
<trkpt lat="47.213523" lon="11.020795"><ele>2026.0</ele><time>2017-03-04T19:47:04Z</time></trkpt>
<trkpt lat="47.213572" lon="11.020989"><ele>2022.0</ele><time>2017-03-04T19:47:05Z</time></trkpt>
<trkpt lat="47.213593" lon="11.021195"><ele>2022.0</ele><time>2017-03-04T19:47:06Z</time></trkpt>
<trkpt lat="47.213589" lon="11.021405"><ele>2022.0</ele><time>2017-03-04T19:47:07Z</time></trkpt>
<trkpt lat="47.213504" lon="11.022161"><ele>2024.0</ele><time>2017-03-04T19:47:10Z</time></trkpt>
<trkpt lat="47.213507" lon="11.022729"><ele>2026.0</ele><time>2017-03-04T19:47:13Z</time></trkpt>
<trkpt lat="47.213524" lon="11.023026"><ele>2026.0</ele><time>2017-03-04T19:47:15Z</time></trkpt>
<trkpt lat="47.213631" lon="11.023686"><ele>2022.0</ele><time>2017-03-04T19:47:18Z</time></trkpt>
<trkpt lat="47.213803" lon="11.024373"><ele>2022.0</ele><time>2017-03-04T19:47:22Z</time></trkpt>
<trkpt lat="47.214026" lon="11.024962"><ele>2022.0</ele><time>2017-03-04T19:47:25Z</time></trkpt>
<trkpt lat="47.214816" lon="11.026782"><ele>2020.0</ele><time>2017-03-04T19:47:35Z</time></trkpt>
<trkpt lat="47.215127" lon="11.027556"><ele>2019.0</ele><time>2017-03-04T19:47:40Z</time></trkpt>
<trkpt lat="47.215409" lon="11.028399"><ele>2015.0</ele><time>2017-03-04T19:47:44Z</time></trkpt>
<trkpt lat="47.215768" lon="11.029726"><ele>2013.0</ele><time>2017-03-04T19:47:51Z</time></trkpt>
<trkpt lat="47.215934" lon="11.030305"><ele>2011.0</ele><time>2017-03-04T19:47:54Z</time></trkpt>
<trkpt lat="47.21601" lon="11.030521"><ele>2011.0</ele><time>2017-03-04T19:47:56Z</time></trkpt>
<trkpt lat="47.216108" lon="11.030734"><ele>2011.0</ele><time>2017-03-04T19:47:57Z</time></trkpt>
<trkpt lat="47.216603" lon="11.031521"><ele>2007.0</ele><time>2017-03-04T19:48:02Z</time></trkpt>
<trkpt lat="47.216805" lon="11.031891"><ele>2007.0</ele><time>2017-03-04T19:48:04Z</time></trkpt>
<trkpt lat="47.216981" lon="11.032289"><ele>2007.0</ele><time>2017-03-04T19:48:07Z</time></trkpt>
<trkpt lat="47.217132" lon="11.032718"><ele>2001.0</ele><time>2017-03-04T19:48:09Z</time></trkpt>
<trkpt lat="47.21724" lon="11.033167"><ele>2001.0</ele><time>2017-03-04T19:48:11Z</time></trkpt>
<trkpt lat="47.217313" lon="11.033586"><ele>1997.0</ele><time>2017-03-04T19:48:13Z</time></trkpt>
<trkpt lat="47.217428" lon="11.035028"><ele>1993.0</ele><time>2017-03-04T19:48:21Z</time></trkpt>
<trkpt lat="47.217545" lon="11.035537"><ele>1991.0</ele><time>2017-03-04T19:48:23Z</time></trkpt>
<trkpt lat="47.217656" lon="11.035773"><ele>1991.0</ele><time>2017-03-04T19:48:25Z</time></trkpt>
<trkpt lat="47.218547" lon="11.03727"><ele>1987.0</ele><time>2017-03-04T19:48:34Z</time></trkpt>
<trkpt lat="47.218729" lon="11.037609"><ele>1981.0</ele><time>2017-03-04T19:48:36Z</time></trkpt>
<trkpt lat="47.219023" lon="11.038274"><ele>1981.0</ele><time>2017-03-04T19:48:40Z</time></trkpt>
<trkpt lat="47.219137" lon="11.038585"><ele>1979.0</ele><time>2017-03-04T19:48:42Z</time></trkpt>
<trkpt lat="47.219535" lon="11.039858"><ele>1990.0</ele><time>2017-03-04T19:48:49Z</time></trkpt>
<trkpt lat="47.220375" lon="11.042758"><ele>1977.0</ele><time>2017-03-04T19:49:04Z</time></trkpt>
<trkpt lat="47.220456" lon="11.043143"><ele>1977.0</ele><time>2017-03-04T19:49:06Z</time></trkpt>
<trkpt lat="47.220512" lon="11.043522"><ele>1971.0</ele><time>2017-03-04T19:49:08Z</time></trkpt>
<trkpt lat="47.220615" lon="11.044688"><ele>1966.0</ele><time>2017-03-04T19:49:14Z</time></trkpt>
<trkpt lat="47.220678" lon="11.045181"><ele>1964.0</ele><time>2017-03-04T19:49:16Z</time></trkpt>
<trkpt lat="47.220782" lon="11.045674"><ele>1964.0</ele><time>2017-03-04T19:49:19Z</time></trkpt>
<trkpt lat="47.220892" lon="11.046068"><ele>1971.0</ele><time>2017-03-04T19:49:21Z</time></trkpt>
<trkpt lat="47.221027" lon="11.046448"><ele>1971.0</ele><time>2017-03-04T19:49:23Z</time></trkpt>
<trkpt lat="47.221169" lon="11.046752"><ele>1954.0</ele><time>2017-03-04T19:49:25Z</time></trkpt>
<trkpt lat="47.221324" lon="11.046987"><ele>1954.0</ele><time>2017-03-04T19:49:27Z</time></trkpt>
<trkpt lat="47.222147" lon="11.047943"><ele>1953.0</ele><time>2017-03-04T19:49:34Z</time></trkpt>
<trkpt lat="47.22264" lon="11.048669"><ele>1966.0</ele><time>2017-03-04T19:49:39Z</time></trkpt>
<trkpt lat="47.22303" lon="11.04946"><ele>1950.0</ele><time>2017-03-04T19:49:44Z</time></trkpt>
<trkpt lat="47.223289" lon="11.050238"><ele>1932.0</ele><time>2017-03-04T19:49:49Z</time></trkpt>
<trkpt lat="47.223541" lon="11.051335"><ele>1954.0</ele><time>2017-03-04T19:49:54Z</time></trkpt>
<trkpt lat="47.223775" lon="11.052584"><ele>1924.0</ele><time>2017-03-04T19:50:01Z</time></trkpt>
<trkpt lat="47.223838" lon="11.053199"><ele>1924.0</ele><time>2017-03-04T19:50:04Z</time></trkpt>
<trkpt lat="47.223827" lon="11.054203"><ele>1906.0</ele><time>2017-03-04T19:50:09Z</time></trkpt>
<trkpt lat="47.223774" lon="11.055138"><ele>1894.0</ele><time>2017-03-04T19:50:14Z</time></trkpt>
<trkpt lat="47.223773" lon="11.055148"><ele>1894.0</ele><time>2017-03-04T19:50:14Z</time></trkpt>
<trkpt lat="47.223773" lon="11.055148"><ele>1894.0</ele><time>2017-03-04T19:50:14Z</time></trkpt>
<trkpt lat="47.223662" lon="11.056028"><ele>1893.0</ele><time>2017-03-04T19:50:18Z</time></trkpt>
<trkpt lat="47.223187" lon="11.058038"><ele>1862.0</ele><time>2017-03-04T19:50:29Z</time></trkpt>
<trkpt lat="47.223074" lon="11.058641"><ele>1867.0</ele><time>2017-03-04T19:50:32Z</time></trkpt>
<trkpt lat="47.222978" lon="11.059406"><ele>1869.0</ele><time>2017-03-04T19:50:36Z</time></trkpt>
<trkpt lat="47.222883" lon="11.059942"><ele>1869.0</ele><time>2017-03-04T19:50:38Z</time></trkpt>
<trkpt lat="47.222545" lon="11.060936"><ele>1876.0</ele><time>2017-03-04T19:50:44Z</time></trkpt>
<trkpt lat="47.22245" lon="11.061396"><ele>1839.0</ele><time>2017-03-04T19:50:47Z</time></trkpt>
<trkpt lat="47.222369" lon="11.062552"><ele>1836.0</ele><time>2017-03-04T19:50:53Z</time></trkpt>
<trkpt lat="47.222219" lon="11.063363"><ele>1839.0</ele><time>2017-03-04T19:50:57Z</time></trkpt>
<trkpt lat="47.222022" lon="11.064053"><ele>1839.0</ele><time>2017-03-04T19:51:00Z</time></trkpt>
<trkpt lat="47.221793" lon="11.064616"><ele>1853.0</ele><time>2017-03-04T19:51:04Z</time></trkpt>
<trkpt lat="47.221523" lon="11.06503"><ele>1818.0</ele><time>2017-03-04T19:51:07Z</time></trkpt>
<trkpt lat="47.221142" lon="11.065489"><ele>1818.0</ele><time>2017-03-04T19:51:11Z</time></trkpt>
<trkpt lat="47.220875" lon="11.065946"><ele>1824.0</ele><time>2017-03-04T19:51:14Z</time></trkpt>
<trkpt lat="47.220745" lon="11.066287"><ele>1800.0</ele><time>2017-03-04T19:51:16Z</time></trkpt>
<trkpt lat="47.220649" lon="11.066645"><ele>1800.0</ele><time>2017-03-04T19:51:18Z</time></trkpt>
<trkpt lat="47.220161" lon="11.069606"><ele>1796.0</ele><time>2017-03-04T19:51:33Z</time></trkpt>
<trkpt lat="47.219961" lon="11.070543"><ele>1789.0</ele><time>2017-03-04T19:51:38Z</time></trkpt>
<trkpt lat="47.219773" lon="11.071199"><ele>1787.0</ele><time>2017-03-04T19:51:41Z</time></trkpt>
<trkpt lat="47.219488" lon="11.07203"><ele>1787.0</ele><time>2017-03-04T19:51:46Z</time></trkpt>
<trkpt lat="47.219099" lon="11.072907"><ele>1781.0</ele><time>2017-03-04T19:51:51Z</time></trkpt>
<trkpt lat="47.218241" lon="11.07444"><ele>1785.0</ele><time>2017-03-04T19:52:00Z</time></trkpt>
<trkpt lat="47.217435" lon="11.075668"><ele>1788.0</ele><time>2017-03-04T19:52:09Z</time></trkpt>
<trkpt lat="47.217002" lon="11.076289"><ele>1783.0</ele><time>2017-03-04T19:52:13Z</time></trkpt>
<trkpt lat="47.215706" lon="11.077889"><ele>1766.0</ele><time>2017-03-04T19:52:25Z</time></trkpt>
<trkpt lat="47.215524" lon="11.078018"><ele>1766.0</ele><time>2017-03-04T19:52:26Z</time></trkpt>
<trkpt lat="47.214928" lon="11.078241"><ele>1757.0</ele><time>2017-03-04T19:52:31Z</time></trkpt>
<trkpt lat="47.214789" lon="11.07838"><ele>1752.0</ele><time>2017-03-04T19:52:32Z</time></trkpt>
<trkpt lat="47.214709" lon="11.078511"><ele>1752.0</ele><time>2017-03-04T19:52:33Z</time></trkpt>
<trkpt lat="47.214535" lon="11.079137"><ele>1752.0</ele><time>2017-03-04T19:52:36Z</time></trkpt>
<trkpt lat="47.214398" lon="11.079482"><ele>1753.0</ele><time>2017-03-04T19:52:38Z</time></trkpt>
<trkpt lat="47.214262" lon="11.079643"><ele>1753.0</ele><time>2017-03-04T19:52:39Z</time></trkpt>
<trkpt lat="47.212768" lon="11.080438"><ele>1726.0</ele><time>2017-03-04T19:52:51Z</time></trkpt>
<trkpt lat="47.211989" lon="11.081045"><ele>1722.0</ele><time>2017-03-04T19:52:57Z</time></trkpt>
<trkpt lat="47.211564" lon="11.081424"><ele>1712.0</ele><time>2017-03-04T19:53:01Z</time></trkpt>
<trkpt lat="47.211332" lon="11.081675"><ele>1713.0</ele><time>2017-03-04T19:53:03Z</time></trkpt>
<trkpt lat="47.210831" lon="11.082502"><ele>1695.0</ele><time>2017-03-04T19:53:08Z</time></trkpt>
<trkpt lat="47.21011" lon="11.083606"><ele>1703.0</ele><time>2017-03-04T19:53:16Z</time></trkpt>
<trkpt lat="47.209789" lon="11.08429"><ele>1682.0</ele><time>2017-03-04T19:53:20Z</time></trkpt>
<trkpt lat="47.209603" lon="11.08457"><ele>1682.0</ele><time>2017-03-04T19:53:22Z</time></trkpt>
<trkpt lat="47.20929" lon="11.084909"><ele>1682.0</ele><time>2017-03-04T19:53:25Z</time></trkpt>
<trkpt lat="47.209182" lon="11.085171"><ele>1686.0</ele><time>2017-03-04T19:53:26Z</time></trkpt>
<trkpt lat="47.209066" lon="11.085671"><ele>1663.0</ele><time>2017-03-04T19:53:29Z</time></trkpt>
<trkpt lat="47.208854" lon="11.086401"><ele>1664.0</ele><time>2017-03-04T19:53:33Z</time></trkpt>
<trkpt lat="47.208762" lon="11.086658"><ele>1664.0</ele><time>2017-03-04T19:53:35Z</time></trkpt>
<trkpt lat="47.20816" lon="11.088175"><ele>1649.0</ele><time>2017-03-04T19:53:43Z</time></trkpt>
<trkpt lat="47.208018" lon="11.088475"><ele>1649.0</ele><time>2017-03-04T19:53:45Z</time></trkpt>
<trkpt lat="47.207745" lon="11.088794"><ele>1649.0</ele><time>2017-03-04T19:53:47Z</time></trkpt>
<trkpt lat="47.20691" lon="11.089369"><ele>1636.0</ele><time>2017-03-04T19:53:54Z</time></trkpt>
<trkpt lat="47.206731" lon="11.08952"><ele>1636.0</ele><time>2017-03-04T19:53:55Z</time></trkpt>
<trkpt lat="47.20657" lon="11.089734"><ele>1634.0</ele><time>2017-03-04T19:53:57Z</time></trkpt>
<trkpt lat="47.20647" lon="11.089968"><ele>1634.0</ele><time>2017-03-04T19:53:58Z</time></trkpt>
<trkpt lat="47.206414" lon="11.09023"><ele>1633.0</ele><time>2017-03-04T19:54:00Z</time></trkpt>
<trkpt lat="47.206405" lon="11.090594"><ele>1633.0</ele><time>2017-03-04T19:54:02Z</time></trkpt>
<trkpt lat="47.206463" lon="11.090955"><ele>1631.0</ele><time>2017-03-04T19:54:03Z</time></trkpt>
<trkpt lat="47.206626" lon="11.091469"><ele>1631.0</ele><time>2017-03-04T19:54:06Z</time></trkpt>
<trkpt lat="47.206644" lon="11.09177"><ele>1628.0</ele><time>2017-03-04T19:54:08Z</time></trkpt>
<trkpt lat="47.206602" lon="11.092068"><ele>1628.0</ele><time>2017-03-04T19:54:09Z</time></trkpt>
<trkpt lat="47.206532" lon="11.092255"><ele>1628.0</ele><time>2017-03-04T19:54:10Z</time></trkpt>
<trkpt lat="47.206295" lon="11.092667"><ele>1622.0</ele><time>2017-03-04T19:54:13Z</time></trkpt>
<trkpt lat="47.206209" lon="11.092928"><ele>1622.0</ele><time>2017-03-04T19:54:14Z</time></trkpt>
<trkpt lat="47.206012" lon="11.093969"><ele>1613.0</ele><time>2017-03-04T19:54:19Z</time></trkpt>
<trkpt lat="47.205858" lon="11.094381"><ele>1613.0</ele><time>2017-03-04T19:54:22Z</time></trkpt>
<trkpt lat="47.205635" lon="11.094786"><ele>1608.0</ele><time>2017-03-04T19:54:24Z</time></trkpt>
<trkpt lat="47.205349" lon="11.095115"><ele>1596.0</ele><time>2017-03-04T19:54:27Z</time></trkpt>
<trkpt lat="47.205117" lon="11.095278"><ele>1596.0</ele><time>2017-03-04T19:54:29Z</time></trkpt>
<trkpt lat="47.204846" lon="11.095396"><ele>1595.0</ele><time>2017-03-04T19:54:31Z</time></trkpt>
<trkpt lat="47.204319" lon="11.095519"><ele>1595.0</ele><time>2017-03-04T19:54:35Z</time></trkpt>
<trkpt lat="47.204067" lon="11.095619"><ele>1601.0</ele><time>2017-03-04T19:54:36Z</time></trkpt>
<trkpt lat="47.203853" lon="11.095743"><ele>1601.0</ele><time>2017-03-04T19:54:38Z</time></trkpt>
<trkpt lat="47.203642" lon="11.095932"><ele>1575.0</ele><time>2017-03-04T19:54:41Z</time></trkpt>
<trkpt lat="47.203466" lon="11.096158"><ele>1575.0</ele><time>2017-03-04T19:54:42Z</time></trkpt>
<trkpt lat="47.20328" lon="11.096471"><ele>1580.0</ele><time>2017-03-04T19:54:44Z</time></trkpt>
<trkpt lat="47.203154" lon="11.09688"><ele>1564.0</ele><time>2017-03-04T19:54:47Z</time></trkpt>
<trkpt lat="47.203105" lon="11.097201"><ele>1564.0</ele><time>2017-03-04T19:54:48Z</time></trkpt>
<trkpt lat="47.203084" lon="11.09768"><ele>1554.0</ele><time>2017-03-04T19:54:51Z</time></trkpt>
<trkpt lat="47.203119" lon="11.098057"><ele>1554.0</ele><time>2017-03-04T19:54:53Z</time></trkpt>
<trkpt lat="47.203219" lon="11.098798"><ele>1548.0</ele><time>2017-03-04T19:54:56Z</time></trkpt>
<trkpt lat="47.203352" lon="11.099482"><ele>1546.0</ele><time>2017-03-04T19:55:00Z</time></trkpt>
<trkpt lat="47.203367" lon="11.099758"><ele>1546.0</ele><time>2017-03-04T19:55:01Z</time></trkpt>
<trkpt lat="47.203358" lon="11.100008"><ele>1558.0</ele><time>2017-03-04T19:55:02Z</time></trkpt>
<trkpt lat="47.203295" lon="11.10036"><ele>1534.0</ele><time>2017-03-04T19:55:05Z</time></trkpt>
<trkpt lat="47.203191" lon="11.100668"><ele>1534.0</ele><time>2017-03-04T19:55:06Z</time></trkpt>
<trkpt lat="47.203106" lon="11.100867"><ele>1531.0</ele><time>2017-03-04T19:55:08Z</time></trkpt>
<trkpt lat="47.202979" lon="11.101106"><ele>1531.0</ele><time>2017-03-04T19:55:09Z</time></trkpt>
<trkpt lat="47.202833" lon="11.101209"><ele>1531.0</ele><time>2017-03-04T19:55:10Z</time></trkpt>
<trkpt lat="47.202697" lon="11.101211"><ele>1531.0</ele><time>2017-03-04T19:55:11Z</time></trkpt>
<trkpt lat="47.202539" lon="11.101166"><ele>1531.0</ele><time>2017-03-04T19:55:12Z</time></trkpt>
<trkpt lat="47.201644" lon="11.100726"><ele>1532.0</ele><time>2017-03-04T19:55:19Z</time></trkpt>
<trkpt lat="47.201494" lon="11.100692"><ele>1532.0</ele><time>2017-03-04T19:55:20Z</time></trkpt>
<trkpt lat="47.201316" lon="11.100751"><ele>1532.0</ele><time>2017-03-04T19:55:22Z</time></trkpt>
<trkpt lat="47.20115" lon="11.100915"><ele>1524.0</ele><time>2017-03-04T19:55:24Z</time></trkpt>
<trkpt lat="47.201048" lon="11.101212"><ele>1524.0</ele><time>2017-03-04T19:55:26Z</time></trkpt>
<trkpt lat="47.201046" lon="11.1014"><ele>1524.0</ele><time>2017-03-04T19:55:27Z</time></trkpt>
<trkpt lat="47.201067" lon="11.101604"><ele>1524.0</ele><time>2017-03-04T19:55:28Z</time></trkpt>
<trkpt lat="47.201129" lon="11.101762"><ele>1514.0</ele><time>2017-03-04T19:55:30Z</time></trkpt>
<trkpt lat="47.201922" lon="11.103165"><ele>1518.0</ele><time>2017-03-04T19:55:41Z</time></trkpt>
<trkpt lat="47.202001" lon="11.103318"><ele>1518.0</ele><time>2017-03-04T19:55:42Z</time></trkpt>
<trkpt lat="47.202081" lon="11.103549"><ele>1508.0</ele><time>2017-03-04T19:55:44Z</time></trkpt>
<trkpt lat="47.202144" lon="11.103875"><ele>1508.0</ele><time>2017-03-04T19:55:46Z</time></trkpt>
<trkpt lat="47.202192" lon="11.104336"><ele>1499.0</ele><time>2017-03-04T19:55:49Z</time></trkpt>
<trkpt lat="47.202291" lon="11.104842"><ele>1499.0</ele><time>2017-03-04T19:55:52Z</time></trkpt>
<trkpt lat="47.202848" lon="11.106928"><ele>1517.0</ele><time>2017-03-04T19:56:06Z</time></trkpt>
<trkpt lat="47.202899" lon="11.107172"><ele>1517.0</ele><time>2017-03-04T19:56:08Z</time></trkpt>
<trkpt lat="47.202931" lon="11.10742"><ele>1517.0</ele><time>2017-03-04T19:56:09Z</time></trkpt>
<trkpt lat="47.202917" lon="11.107752"><ele>1513.0</ele><time>2017-03-04T19:56:11Z</time></trkpt>
<trkpt lat="47.202863" lon="11.108387"><ele>1511.0</ele><time>2017-03-04T19:56:15Z</time></trkpt>
<trkpt lat="47.202866" lon="11.108703"><ele>1511.0</ele><time>2017-03-04T19:56:17Z</time></trkpt>
<trkpt lat="47.202899" lon="11.10904"><ele>1511.0</ele><time>2017-03-04T19:56:19Z</time></trkpt>
<trkpt lat="47.202958" lon="11.109381"><ele>1504.0</ele><time>2017-03-04T19:56:22Z</time></trkpt>
<trkpt lat="47.203012" lon="11.109593"><ele>1504.0</ele><time>2017-03-04T19:56:23Z</time></trkpt>
<trkpt lat="47.203253" lon="11.110411"><ele>1500.0</ele><time>2017-03-04T19:56:28Z</time></trkpt>
<trkpt lat="47.203292" lon="11.110728"><ele>1500.0</ele><time>2017-03-04T19:56:30Z</time></trkpt>
<trkpt lat="47.203289" lon="11.111034"><ele>1498.0</ele><time>2017-03-04T19:56:32Z</time></trkpt>
<trkpt lat="47.20321" lon="11.111484"><ele>1498.0</ele><time>2017-03-04T19:56:35Z</time></trkpt>
<trkpt lat="47.20306" lon="11.112055"><ele>1494.0</ele><time>2017-03-04T19:56:39Z</time></trkpt>
<trkpt lat="47.203002" lon="11.112457"><ele>1494.0</ele><time>2017-03-04T19:56:41Z</time></trkpt>
<trkpt lat="47.202823" lon="11.114581"><ele>1502.0</ele><time>2017-03-04T19:56:55Z</time></trkpt>
<trkpt lat="47.202766" lon="11.115017"><ele>1507.0</ele><time>2017-03-04T19:56:57Z</time></trkpt>
<trkpt lat="47.202713" lon="11.115268"><ele>1507.0</ele><time>2017-03-04T19:56:59Z</time></trkpt>
<trkpt lat="47.202479" lon="11.115964"><ele>1483.0</ele><time>2017-03-04T19:57:04Z</time></trkpt>
<trkpt lat="47.2024" lon="11.116408"><ele>1483.0</ele><time>2017-03-04T19:57:07Z</time></trkpt>
<trkpt lat="47.202406" lon="11.116702"><ele>1481.0</ele><time>2017-03-04T19:57:09Z</time></trkpt>
<trkpt lat="47.202683" lon="11.118888"><ele>1487.0</ele><time>2017-03-04T19:57:23Z</time></trkpt>
<trkpt lat="47.202707" lon="11.119193"><ele>1482.0</ele><time>2017-03-04T19:57:24Z</time></trkpt>
<trkpt lat="47.202691" lon="11.119433"><ele>1482.0</ele><time>2017-03-04T19:57:26Z</time></trkpt>
<trkpt lat="47.20265" lon="11.119731"><ele>1482.0</ele><time>2017-03-04T19:57:28Z</time></trkpt>
<trkpt lat="47.202573" lon="11.120023"><ele>1475.0</ele><time>2017-03-04T19:57:30Z</time></trkpt>
<trkpt lat="47.202385" lon="11.120499"><ele>1454.0</ele><time>2017-03-04T19:57:34Z</time></trkpt>
<trkpt lat="47.202246" lon="11.120945"><ele>1452.0</ele><time>2017-03-04T19:57:37Z</time></trkpt>
<trkpt lat="47.201872" lon="11.122975"><ele>1452.0</ele><time>2017-03-04T19:57:50Z</time></trkpt>
<trkpt lat="47.201842" lon="11.123507"><ele>1443.0</ele><time>2017-03-04T19:57:53Z</time></trkpt>
<trkpt lat="47.201968" lon="11.124854"><ele>1434.0</ele><time>2017-03-04T19:58:01Z</time></trkpt>
<trkpt lat="47.202045" lon="11.126265"><ele>1421.0</ele><time>2017-03-04T19:58:10Z</time></trkpt>
<trkpt lat="47.201998" lon="11.126654"><ele>1421.0</ele><time>2017-03-04T19:58:13Z</time></trkpt>
<trkpt lat="47.201848" lon="11.1273"><ele>1423.0</ele><time>2017-03-04T19:58:17Z</time></trkpt>
<trkpt lat="47.201766" lon="11.129664"><ele>1428.0</ele><time>2017-03-04T19:58:31Z</time></trkpt>
<trkpt lat="47.201712" lon="11.130185"><ele>1426.0</ele><time>2017-03-04T19:58:35Z</time></trkpt>
<trkpt lat="47.201613" lon="11.130732"><ele>1402.0</ele><time>2017-03-04T19:58:39Z</time></trkpt>
<trkpt lat="47.200372" lon="11.135783"><ele>1389.0</ele><time>2017-03-04T19:59:12Z</time></trkpt>
<trkpt lat="47.200174" lon="11.136324"><ele>1383.0</ele><time>2017-03-04T19:59:16Z</time></trkpt>
<trkpt lat="47.200053" lon="11.136612"><ele>1383.0</ele><time>2017-03-04T19:59:18Z</time></trkpt>
<trkpt lat="47.199964" lon="11.136976"><ele>1357.0</ele><time>2017-03-04T19:59:21Z</time></trkpt>
<trkpt lat="47.199819" lon="11.137725"><ele>1354.0</ele><time>2017-03-04T19:59:26Z</time></trkpt>
<trkpt lat="47.199743" lon="11.138035"><ele>1354.0</ele><time>2017-03-04T19:59:28Z</time></trkpt>
<trkpt lat="47.199323" lon="11.138974"><ele>1353.0</ele><time>2017-03-04T19:59:35Z</time></trkpt>
<trkpt lat="47.199159" lon="11.13941"><ele>1331.0</ele><time>2017-03-04T19:59:38Z</time></trkpt>
<trkpt lat="47.199044" lon="11.139927"><ele>1331.0</ele><time>2017-03-04T19:59:41Z</time></trkpt>
<trkpt lat="47.198964" lon="11.140583"><ele>1328.0</ele><time>2017-03-04T19:59:46Z</time></trkpt>
<trkpt lat="47.198827" lon="11.141936"><ele>1318.0</ele><time>2017-03-04T19:59:54Z</time></trkpt>
<trkpt lat="47.198136" lon="11.145506"><ele>1269.0</ele><time>2017-03-04T20:00:17Z</time></trkpt>
<trkpt lat="47.19794" lon="11.146403"><ele>1263.0</ele><time>2017-03-04T20:00:23Z</time></trkpt>
<trkpt lat="47.197819" lon="11.146788"><ele>1259.0</ele><time>2017-03-04T20:00:26Z</time></trkpt>
<trkpt lat="47.197531" lon="11.147334"><ele>1259.0</ele><time>2017-03-04T20:00:30Z</time></trkpt>
<trkpt lat="47.197238" lon="11.1478"><ele>1243.0</ele><time>2017-03-04T20:00:34Z</time></trkpt>
<trkpt lat="47.196878" lon="11.14824"><ele>1243.0</ele><time>2017-03-04T20:00:38Z</time></trkpt>
<trkpt lat="47.196743" lon="11.148528"><ele>1245.0</ele><time>2017-03-04T20:00:40Z</time></trkpt>
<trkpt lat="47.196671" lon="11.148803"><ele>1245.0</ele><time>2017-03-04T20:00:42Z</time></trkpt>
<trkpt lat="47.196646" lon="11.149014"><ele>1236.0</ele><time>2017-03-04T20:00:44Z</time></trkpt>
<trkpt lat="47.196638" lon="11.149308"><ele>1230.0</ele><time>2017-03-04T20:00:46Z</time></trkpt>
<trkpt lat="47.196698" lon="11.149664"><ele>1252.0</ele><time>2017-03-04T20:00:49Z</time></trkpt>
<trkpt lat="47.196756" lon="11.150302"><ele>1254.0</ele><time>2017-03-04T20:00:53Z</time></trkpt>
<trkpt lat="47.196687" lon="11.150919"><ele>1246.0</ele><time>2017-03-04T20:00:56Z</time></trkpt>
<trkpt lat="47.196635" lon="11.151183"><ele>1216.0</ele><time>2017-03-04T20:00:59Z</time></trkpt>
<trkpt lat="47.196333" lon="11.152411"><ele>1210.0</ele><time>2017-03-04T20:01:07Z</time></trkpt>
<trkpt lat="47.19585" lon="11.154027"><ele>1204.0</ele><time>2017-03-04T20:01:18Z</time></trkpt>
<trkpt lat="47.195573" lon="11.155614"><ele>1192.0</ele><time>2017-03-04T20:01:29Z</time></trkpt>
<trkpt lat="47.195403" lon="11.156157"><ele>1193.0</ele><time>2017-03-04T20:01:32Z</time></trkpt>
<trkpt lat="47.195243" lon="11.156597"><ele>1193.0</ele><time>2017-03-04T20:01:35Z</time></trkpt>
<trkpt lat="47.195172" lon="11.156905"><ele>1190.0</ele><time>2017-03-04T20:01:37Z</time></trkpt>
<trkpt lat="47.19508" lon="11.157546"><ele>1190.0</ele><time>2017-03-04T20:01:41Z</time></trkpt>
<trkpt lat="47.194781" lon="11.159177"><ele>1186.0</ele><time>2017-03-04T20:01:52Z</time></trkpt>
<trkpt lat="47.194724" lon="11.159603"><ele>1186.0</ele><time>2017-03-04T20:01:54Z</time></trkpt>
<trkpt lat="47.19473" lon="11.15993"><ele>1186.0</ele><time>2017-03-04T20:01:57Z</time></trkpt>
<trkpt lat="47.19473" lon="11.15993"><ele>1186.0</ele><time>2017-03-04T20:01:57Z</time></trkpt>
<trkpt lat="47.194732" lon="11.160074"><ele>1188.0</ele><time>2017-03-04T20:01:58Z</time></trkpt>
<trkpt lat="47.194822" lon="11.160422"><ele>1188.0</ele><time>2017-03-04T20:02:00Z</time></trkpt>
<trkpt lat="47.194983" lon="11.160714"><ele>1188.0</ele><time>2017-03-04T20:02:02Z</time></trkpt>
<trkpt lat="47.195267" lon="11.161157"><ele>1192.0</ele><time>2017-03-04T20:02:05Z</time></trkpt>
<trkpt lat="47.19564" lon="11.16197"><ele>1185.0</ele><time>2017-03-04T20:02:10Z</time></trkpt>
<trkpt lat="47.195926" lon="11.1631"><ele>1190.0</ele><time>2017-03-04T20:02:17Z</time></trkpt>
<trkpt lat="47.19608" lon="11.163494"><ele>1178.0</ele><time>2017-03-04T20:02:20Z</time></trkpt>
<trkpt lat="47.196261" lon="11.163844"><ele>1178.0</ele><time>2017-03-04T20:02:22Z</time></trkpt>
<trkpt lat="47.196631" lon="11.164321"><ele>1172.0</ele><time>2017-03-04T20:02:26Z</time></trkpt>
<trkpt lat="47.196907" lon="11.164623"><ele>1173.0</ele><time>2017-03-04T20:02:29Z</time></trkpt>
<trkpt lat="47.197268" lon="11.165059"><ele>1164.0</ele><time>2017-03-04T20:02:33Z</time></trkpt>
<trkpt lat="47.197821" lon="11.16583"><ele>1169.0</ele><time>2017-03-04T20:02:39Z</time></trkpt>
<trkpt lat="47.198214" lon="11.166463"><ele>1159.0</ele><time>2017-03-04T20:02:44Z</time></trkpt>
<trkpt lat="47.198455" lon="11.166913"><ele>1170.0</ele><time>2017-03-04T20:02:47Z</time></trkpt>
<trkpt lat="47.198616" lon="11.16737"><ele>1170.0</ele><time>2017-03-04T20:02:50Z</time></trkpt>
<trkpt lat="47.198693" lon="11.167784"><ele>1160.0</ele><time>2017-03-04T20:02:52Z</time></trkpt>
<trkpt lat="47.198777" lon="11.168884"><ele>1151.0</ele><time>2017-03-04T20:02:58Z</time></trkpt>
<trkpt lat="47.198833" lon="11.169435"><ele>1148.0</ele><time>2017-03-04T20:03:01Z</time></trkpt>
<trkpt lat="47.198994" lon="11.170335"><ele>1143.0</ele><time>2017-03-04T20:03:06Z</time></trkpt>
<trkpt lat="47.199892" lon="11.172338"><ele>1136.0</ele><time>2017-03-04T20:03:19Z</time></trkpt>
<trkpt lat="47.200064" lon="11.172706"><ele>1153.0</ele><time>2017-03-04T20:03:22Z</time></trkpt>
<trkpt lat="47.200194" lon="11.172918"><ele>1153.0</ele><time>2017-03-04T20:03:24Z</time></trkpt>
<trkpt lat="47.200344" lon="11.172997"><ele>1153.0</ele><time>2017-03-04T20:03:25Z</time></trkpt>
<trkpt lat="47.200727" lon="11.173067"><ele>1153.0</ele><time>2017-03-04T20:03:28Z</time></trkpt>
<trkpt lat="47.200921" lon="11.173191"><ele>1185.0</ele><time>2017-03-04T20:03:31Z</time></trkpt>
<trkpt lat="47.201089" lon="11.173443"><ele>1154.0</ele><time>2017-03-04T20:03:34Z</time></trkpt>
<trkpt lat="47.201598" lon="11.174572"><ele>1133.0</ele><time>2017-03-04T20:03:42Z</time></trkpt>
<trkpt lat="47.201821" lon="11.175356"><ele>1156.0</ele><time>2017-03-04T20:03:47Z</time></trkpt>
<trkpt lat="47.202079" lon="11.176347"><ele>1142.0</ele><time>2017-03-04T20:03:52Z</time></trkpt>
<trkpt lat="47.202123" lon="11.176659"><ele>1142.0</ele><time>2017-03-04T20:03:54Z</time></trkpt>
<trkpt lat="47.202109" lon="11.176956"><ele>1133.0</ele><time>2017-03-04T20:03:56Z</time></trkpt>
<trkpt lat="47.20203" lon="11.177479"><ele>1133.0</ele><time>2017-03-04T20:03:59Z</time></trkpt>
<trkpt lat="47.202001" lon="11.177859"><ele>1127.0</ele><time>2017-03-04T20:04:01Z</time></trkpt>
<trkpt lat="47.202014" lon="11.178139"><ele>1127.0</ele><time>2017-03-04T20:04:03Z</time></trkpt>
<trkpt lat="47.20209" lon="11.178558"><ele>1115.0</ele><time>2017-03-04T20:04:05Z</time></trkpt>
<trkpt lat="47.202184" lon="11.178866"><ele>1115.0</ele><time>2017-03-04T20:04:07Z</time></trkpt>
<trkpt lat="47.202401" lon="11.179392"><ele>1107.0</ele><time>2017-03-04T20:04:10Z</time></trkpt>
<trkpt lat="47.202778" lon="11.180023"><ele>1122.0</ele><time>2017-03-04T20:04:15Z</time></trkpt>
<trkpt lat="47.203853" lon="11.181632"><ele>1135.0</ele><time>2017-03-04T20:04:27Z</time></trkpt>
<trkpt lat="47.204104" lon="11.182053"><ele>1122.0</ele><time>2017-03-04T20:04:31Z</time></trkpt>
<trkpt lat="47.204254" lon="11.182431"><ele>1176.0</ele><time>2017-03-04T20:04:35Z</time></trkpt>
<trkpt lat="47.204398" lon="11.182906"><ele>1161.0</ele><time>2017-03-04T20:04:38Z</time></trkpt>
<trkpt lat="47.204523" lon="11.183511"><ele>1149.0</ele><time>2017-03-04T20:04:42Z</time></trkpt>
<trkpt lat="47.204582" lon="11.184003"><ele>1149.0</ele><time>2017-03-04T20:04:45Z</time></trkpt>
<trkpt lat="47.204595" lon="11.184599"><ele>1130.0</ele><time>2017-03-04T20:04:48Z</time></trkpt>
<trkpt lat="47.204546" lon="11.185307"><ele>1128.0</ele><time>2017-03-04T20:04:52Z</time></trkpt>
<trkpt lat="47.20438" lon="11.186324"><ele>1137.0</ele><time>2017-03-04T20:04:58Z</time></trkpt>
<trkpt lat="47.204369" lon="11.186709"><ele>1141.0</ele><time>2017-03-04T20:05:00Z</time></trkpt>
<trkpt lat="47.20446" lon="11.188306"><ele>1134.0</ele><time>2017-03-04T20:05:09Z</time></trkpt>
<trkpt lat="47.204591" lon="11.189408"><ele>1126.0</ele><time>2017-03-04T20:05:15Z</time></trkpt>
<trkpt lat="47.204613" lon="11.189742"><ele>1126.0</ele><time>2017-03-04T20:05:17Z</time></trkpt>
<trkpt lat="47.204578" lon="11.190199"><ele>1101.0</ele><time>2017-03-04T20:05:20Z</time></trkpt>
<trkpt lat="47.204471" lon="11.190621"><ele>1101.0</ele><time>2017-03-04T20:05:22Z</time></trkpt>
<trkpt lat="47.204078" lon="11.191623"><ele>1080.0</ele><time>2017-03-04T20:05:29Z</time></trkpt>
<trkpt lat="47.204042" lon="11.191928"><ele>1079.0</ele><time>2017-03-04T20:05:30Z</time></trkpt>
<trkpt lat="47.204246" lon="11.193942"><ele>1075.0</ele><time>2017-03-04T20:05:42Z</time></trkpt>
<trkpt lat="47.204355" lon="11.194551"><ele>1064.0</ele><time>2017-03-04T20:05:45Z</time></trkpt>
<trkpt lat="47.204506" lon="11.195099"><ele>1053.0</ele><time>2017-03-04T20:05:48Z</time></trkpt>
<trkpt lat="47.20463" lon="11.195446"><ele>1053.0</ele><time>2017-03-04T20:05:51Z</time></trkpt>
<trkpt lat="47.204835" lon="11.195851"><ele>1057.0</ele><time>2017-03-04T20:05:53Z</time></trkpt>
<trkpt lat="47.205199" lon="11.196358"><ele>1044.0</ele><time>2017-03-04T20:05:57Z</time></trkpt>
<trkpt lat="47.205676" lon="11.196933"><ele>1042.0</ele><time>2017-03-04T20:06:02Z</time></trkpt>
<trkpt lat="47.206461" lon="11.197702"><ele>1032.0</ele><time>2017-03-04T20:06:10Z</time></trkpt>
<trkpt lat="47.206723" lon="11.198029"><ele>1028.0</ele><time>2017-03-04T20:06:13Z</time></trkpt>
<trkpt lat="47.207372" lon="11.199207"><ele>1025.0</ele><time>2017-03-04T20:06:21Z</time></trkpt>
<trkpt lat="47.207603" lon="11.199679"><ele>1022.0</ele><time>2017-03-04T20:06:24Z</time></trkpt>
<trkpt lat="47.207882" lon="11.200371"><ele>1019.0</ele><time>2017-03-04T20:06:29Z</time></trkpt>
<trkpt lat="47.208094" lon="11.200783"><ele>1019.0</ele><time>2017-03-04T20:06:32Z</time></trkpt>
<trkpt lat="47.208819" lon="11.201737"><ele>1007.0</ele><time>2017-03-04T20:06:39Z</time></trkpt>
<trkpt lat="47.209045" lon="11.202117"><ele>1007.0</ele><time>2017-03-04T20:06:42Z</time></trkpt>
<trkpt lat="47.209214" lon="11.202483"><ele>1017.0</ele><time>2017-03-04T20:06:45Z</time></trkpt>
<trkpt lat="47.209483" lon="11.203141"><ele>1004.0</ele><time>2017-03-04T20:06:49Z</time></trkpt>
<trkpt lat="47.209639" lon="11.203454"><ele>997.0</ele><time>2017-03-04T20:06:51Z</time></trkpt>
<trkpt lat="47.209801" lon="11.203673"><ele>997.0</ele><time>2017-03-04T20:06:53Z</time></trkpt>
<trkpt lat="47.210003" lon="11.203827"><ele>992.0</ele><time>2017-03-04T20:06:55Z</time></trkpt>
<trkpt lat="47.210285" lon="11.204004"><ele>992.0</ele><time>2017-03-04T20:06:57Z</time></trkpt>
<trkpt lat="47.210508" lon="11.204205"><ele>994.0</ele><time>2017-03-04T20:06:59Z</time></trkpt>
<trkpt lat="47.210739" lon="11.204468"><ele>994.0</ele><time>2017-03-04T20:07:02Z</time></trkpt>
<trkpt lat="47.210944" lon="11.204787"><ele>989.0</ele><time>2017-03-04T20:07:04Z</time></trkpt>
<trkpt lat="47.211107" lon="11.205164"><ele>983.0</ele><time>2017-03-04T20:07:07Z</time></trkpt>
<trkpt lat="47.211217" lon="11.205481"><ele>983.0</ele><time>2017-03-04T20:07:09Z</time></trkpt>
<trkpt lat="47.211797" lon="11.208685"><ele>959.0</ele><time>2017-03-04T20:07:27Z</time></trkpt>
<trkpt lat="47.211953" lon="11.209381"><ele>954.0</ele><time>2017-03-04T20:07:31Z</time></trkpt>
<trkpt lat="47.212136" lon="11.209878"><ele>954.0</ele><time>2017-03-04T20:07:34Z</time></trkpt>
<trkpt lat="47.212308" lon="11.210285"><ele>953.0</ele><time>2017-03-04T20:07:37Z</time></trkpt>
<trkpt lat="47.212542" lon="11.211167"><ele>953.0</ele><time>2017-03-04T20:07:42Z</time></trkpt>
<trkpt lat="47.212822" lon="11.211866"><ele>945.0</ele><time>2017-03-04T20:07:46Z</time></trkpt>
<trkpt lat="47.213063" lon="11.212732"><ele>941.0</ele><time>2017-03-04T20:07:51Z</time></trkpt>
<trkpt lat="47.213243" lon="11.213275"><ele>941.0</ele><time>2017-03-04T20:07:55Z</time></trkpt>
<trkpt lat="47.213283" lon="11.213989"><ele>938.0</ele><time>2017-03-04T20:07:59Z</time></trkpt>
<trkpt lat="47.213441" lon="11.214392"><ele>929.0</ele><time>2017-03-04T20:08:01Z</time></trkpt>
<trkpt lat="47.213508" lon="11.214517"><ele>929.0</ele><time>2017-03-04T20:08:02Z</time></trkpt>
<trkpt lat="47.213531" lon="11.214553"><ele>929.0</ele><time>2017-03-04T20:08:03Z</time></trkpt>
<trkpt lat="47.213941" lon="11.214842"><ele>929.0</ele><time>2017-03-04T20:08:07Z</time></trkpt>
<trkpt lat="47.214388" lon="11.215084"><ele>919.0</ele><time>2017-03-04T20:08:11Z</time></trkpt>
<trkpt lat="47.214559" lon="11.215247"><ele>919.0</ele><time>2017-03-04T20:08:13Z</time></trkpt>
<trkpt lat="47.214928" lon="11.215849"><ele>921.0</ele><time>2017-03-04T20:08:17Z</time></trkpt>
<trkpt lat="47.215217" lon="11.216375"><ele>924.0</ele><time>2017-03-04T20:08:21Z</time></trkpt>
<trkpt lat="47.215352" lon="11.216792"><ele>914.0</ele><time>2017-03-04T20:08:24Z</time></trkpt>
<trkpt lat="47.21571" lon="11.217404"><ele>914.0</ele><time>2017-03-04T20:08:28Z</time></trkpt>
<trkpt lat="47.215953" lon="11.218127"><ele>937.0</ele><time>2017-03-04T20:08:33Z</time></trkpt>
<trkpt lat="47.216006" lon="11.218555"><ele>933.0</ele><time>2017-03-04T20:08:36Z</time></trkpt>
<trkpt lat="47.216017" lon="11.218947"><ele>933.0</ele><time>2017-03-04T20:08:38Z</time></trkpt>
<trkpt lat="47.21609" lon="11.219559"><ele>913.0</ele><time>2017-03-04T20:08:42Z</time></trkpt>
<trkpt lat="47.216204" lon="11.219923"><ele>913.0</ele><time>2017-03-04T20:08:44Z</time></trkpt>
<trkpt lat="47.216384" lon="11.220246"><ele>906.0</ele><time>2017-03-04T20:08:46Z</time></trkpt>
<trkpt lat="47.216712" lon="11.220653"><ele>940.0</ele><time>2017-03-04T20:08:50Z</time></trkpt>
<trkpt lat="47.216988" lon="11.221316"><ele>921.0</ele><time>2017-03-04T20:08:55Z</time></trkpt>
<trkpt lat="47.217592" lon="11.222427"><ele>926.0</ele><time>2017-03-04T20:09:03Z</time></trkpt>
<trkpt lat="47.217773" lon="11.222697"><ele>898.0</ele><time>2017-03-04T20:09:06Z</time></trkpt>
<trkpt lat="47.218169" lon="11.223153"><ele>898.0</ele><time>2017-03-04T20:09:10Z</time></trkpt>
<trkpt lat="47.218317" lon="11.223394"><ele>889.0</ele><time>2017-03-04T20:09:12Z</time></trkpt>
<trkpt lat="47.218628" lon="11.224213"><ele>887.0</ele><time>2017-03-04T20:09:17Z</time></trkpt>
<trkpt lat="47.218772" lon="11.224468"><ele>887.0</ele><time>2017-03-04T20:09:19Z</time></trkpt>
<trkpt lat="47.219035" lon="11.224721"><ele>887.0</ele><time>2017-03-04T20:09:22Z</time></trkpt>
<trkpt lat="47.21939" lon="11.225005"><ele>883.0</ele><time>2017-03-04T20:09:25Z</time></trkpt>
<trkpt lat="47.219553" lon="11.225231"><ele>883.0</ele><time>2017-03-04T20:09:27Z</time></trkpt>
<trkpt lat="47.219766" lon="11.225647"><ele>883.0</ele><time>2017-03-04T20:09:30Z</time></trkpt>
<trkpt lat="47.219954" lon="11.225883"><ele>874.0</ele><time>2017-03-04T20:09:32Z</time></trkpt>
<trkpt lat="47.220155" lon="11.226063"><ele>889.0</ele><time>2017-03-04T20:09:34Z</time></trkpt>
<trkpt lat="47.220313" lon="11.226112"><ele>889.0</ele><time>2017-03-04T20:09:36Z</time></trkpt>
<trkpt lat="47.221267" lon="11.226289"><ele>897.0</ele><time>2017-03-04T20:09:44Z</time></trkpt>
<trkpt lat="47.22146" lon="11.22638"><ele>897.0</ele><time>2017-03-04T20:09:45Z</time></trkpt>
<trkpt lat="47.221578" lon="11.226524"><ele>897.0</ele><time>2017-03-04T20:09:47Z</time></trkpt>
<trkpt lat="47.221698" lon="11.226799"><ele>881.0</ele><time>2017-03-04T20:09:49Z</time></trkpt>
<trkpt lat="47.221929" lon="11.227624"><ele>858.0</ele><time>2017-03-04T20:09:54Z</time></trkpt>
<trkpt lat="47.222218" lon="11.228534"><ele>854.0</ele><time>2017-03-04T20:10:00Z</time></trkpt>
<trkpt lat="47.222608" lon="11.229431"><ele>861.0</ele><time>2017-03-04T20:10:06Z</time></trkpt>
<trkpt lat="47.222767" lon="11.229703"><ele>861.0</ele><time>2017-03-04T20:10:08Z</time></trkpt>
<trkpt lat="47.223701" lon="11.231114"><ele>840.0</ele><time>2017-03-04T20:10:19Z</time></trkpt>
<trkpt lat="47.224105" lon="11.231599"><ele>840.0</ele><time>2017-03-04T20:10:23Z</time></trkpt>
<trkpt lat="47.224333" lon="11.232002"><ele>844.0</ele><time>2017-03-04T20:10:26Z</time></trkpt>
<trkpt lat="47.224576" lon="11.232355"><ele>844.0</ele><time>2017-03-04T20:10:29Z</time></trkpt>
<trkpt lat="47.225355" lon="11.233176"><ele>858.0</ele><time>2017-03-04T20:10:37Z</time></trkpt>
<trkpt lat="47.225773" lon="11.233687"><ele>842.0</ele><time>2017-03-04T20:10:41Z</time></trkpt>
<trkpt lat="47.225871" lon="11.233996"><ele>848.0</ele><time>2017-03-04T20:10:43Z</time></trkpt>
<trkpt lat="47.2259" lon="11.234362"><ele>827.0</ele><time>2017-03-04T20:10:46Z</time></trkpt>
<trkpt lat="47.225853" lon="11.234695"><ele>827.0</ele><time>2017-03-04T20:10:48Z</time></trkpt>
<trkpt lat="47.225745" lon="11.235122"><ele>815.0</ele><time>2017-03-04T20:10:51Z</time></trkpt>
<trkpt lat="47.225673" lon="11.235474"><ele>815.0</ele><time>2017-03-04T20:10:53Z</time></trkpt>
<trkpt lat="47.22567" lon="11.235674"><ele>815.0</ele><time>2017-03-04T20:10:54Z</time></trkpt>
<trkpt lat="47.225689" lon="11.235928"><ele>813.0</ele><time>2017-03-04T20:10:55Z</time></trkpt>
<trkpt lat="47.225728" lon="11.236196"><ele>813.0</ele><time>2017-03-04T20:10:57Z</time></trkpt>
<trkpt lat="47.225842" lon="11.236584"><ele>813.0</ele><time>2017-03-04T20:11:00Z</time></trkpt>
<trkpt lat="47.225982" lon="11.236873"><ele>797.0</ele><time>2017-03-04T20:11:02Z</time></trkpt>
<trkpt lat="47.226128" lon="11.237085"><ele>797.0</ele><time>2017-03-04T20:11:03Z</time></trkpt>
<trkpt lat="47.226332" lon="11.237304"><ele>797.0</ele><time>2017-03-04T20:11:05Z</time></trkpt>
<trkpt lat="47.227557" lon="11.238382"><ele>788.0</ele><time>2017-03-04T20:11:14Z</time></trkpt>
<trkpt lat="47.228003" lon="11.238666"><ele>788.0</ele><time>2017-03-04T20:11:17Z</time></trkpt>
<trkpt lat="47.228661" lon="11.23903"><ele>815.0</ele><time>2017-03-04T20:11:22Z</time></trkpt>
<trkpt lat="47.229101" lon="11.239354"><ele>783.0</ele><time>2017-03-04T20:11:25Z</time></trkpt>
<trkpt lat="47.229435" lon="11.2397"><ele>838.0</ele><time>2017-03-04T20:11:29Z</time></trkpt>
<trkpt lat="47.229919" lon="11.24032"><ele>802.0</ele><time>2017-03-04T20:11:34Z</time></trkpt>
<trkpt lat="47.230354" lon="11.240841"><ele>784.0</ele><time>2017-03-04T20:11:38Z</time></trkpt>
<trkpt lat="47.230673" lon="11.241056"><ele>784.0</ele><time>2017-03-04T20:11:40Z</time></trkpt>
<trkpt lat="47.230931" lon="11.241197"><ele>820.0</ele><time>2017-03-04T20:11:43Z</time></trkpt>
<trkpt lat="47.231191" lon="11.241403"><ele>820.0</ele><time>2017-03-04T20:11:45Z</time></trkpt>
<trkpt lat="47.231338" lon="11.241649"><ele>820.0</ele><time>2017-03-04T20:11:46Z</time></trkpt>
<trkpt lat="47.231424" lon="11.241979"><ele>784.0</ele><time>2017-03-04T20:11:49Z</time></trkpt>
<trkpt lat="47.231451" lon="11.242385"><ele>784.0</ele><time>2017-03-04T20:11:50Z</time></trkpt>
<trkpt lat="47.231489" lon="11.242631"><ele>769.0</ele><time>2017-03-04T20:11:52Z</time></trkpt>
<trkpt lat="47.231568" lon="11.242854"><ele>769.0</ele><time>2017-03-04T20:11:53Z</time></trkpt>
<trkpt lat="47.231731" lon="11.243084"><ele>807.0</ele><time>2017-03-04T20:11:56Z</time></trkpt>
<trkpt lat="47.232082" lon="11.243369"><ele>767.0</ele><time>2017-03-04T20:11:59Z</time></trkpt>
<trkpt lat="47.232204" lon="11.243514"><ele>767.0</ele><time>2017-03-04T20:12:00Z</time></trkpt>
<trkpt lat="47.232321" lon="11.243777"><ele>767.0</ele><time>2017-03-04T20:12:01Z</time></trkpt>
<trkpt lat="47.232587" lon="11.244636"><ele>803.0</ele><time>2017-03-04T20:12:06Z</time></trkpt>
<trkpt lat="47.232803" lon="11.24512"><ele>785.0</ele><time>2017-03-04T20:12:09Z</time></trkpt>
<trkpt lat="47.233091" lon="11.245912"><ele>759.0</ele><time>2017-03-04T20:12:13Z</time></trkpt>
<trkpt lat="47.233268" lon="11.246304"><ele>759.0</ele><time>2017-03-04T20:12:15Z</time></trkpt>
<trkpt lat="47.233536" lon="11.246602"><ele>812.0</ele><time>2017-03-04T20:12:19Z</time></trkpt>
<trkpt lat="47.233623" lon="11.246781"><ele>776.0</ele><time>2017-03-04T20:12:21Z</time></trkpt>
<trkpt lat="47.233682" lon="11.24708"><ele>776.0</ele><time>2017-03-04T20:12:22Z</time></trkpt>
<trkpt lat="47.233768" lon="11.247413"><ele>776.0</ele><time>2017-03-04T20:12:24Z</time></trkpt>
<trkpt lat="47.233962" lon="11.247725"><ele>746.0</ele><time>2017-03-04T20:12:26Z</time></trkpt>
<trkpt lat="47.234239" lon="11.247892"><ele>798.0</ele><time>2017-03-04T20:12:30Z</time></trkpt>
<trkpt lat="47.234355" lon="11.248054"><ele>798.0</ele><time>2017-03-04T20:12:31Z</time></trkpt>
<trkpt lat="47.234412" lon="11.248313"><ele>798.0</ele><time>2017-03-04T20:12:32Z</time></trkpt>
<trkpt lat="47.23443" lon="11.248804"><ele>763.0</ele><time>2017-03-04T20:12:35Z</time></trkpt>
<trkpt lat="47.234492" lon="11.249054"><ele>763.0</ele><time>2017-03-04T20:12:36Z</time></trkpt>
<trkpt lat="47.234632" lon="11.249331"><ele>743.0</ele><time>2017-03-04T20:12:38Z</time></trkpt>
<trkpt lat="47.235141" lon="11.249752"><ele>795.0</ele><time>2017-03-04T20:12:43Z</time></trkpt>
<trkpt lat="47.235371" lon="11.25005"><ele>754.0</ele><time>2017-03-04T20:12:46Z</time></trkpt>
<trkpt lat="47.235546" lon="11.25046"><ele>754.0</ele><time>2017-03-04T20:12:48Z</time></trkpt>
<trkpt lat="47.235689" lon="11.25091"><ele>728.0</ele><time>2017-03-04T20:12:51Z</time></trkpt>
<trkpt lat="47.235874" lon="11.251353"><ele>761.0</ele><time>2017-03-04T20:12:54Z</time></trkpt>
<trkpt lat="47.236098" lon="11.251708"><ele>730.0</ele><time>2017-03-04T20:12:57Z</time></trkpt>
<trkpt lat="47.236255" lon="11.251853"><ele>730.0</ele><time>2017-03-04T20:12:58Z</time></trkpt>
<trkpt lat="47.236559" lon="11.251958"><ele>730.0</ele><time>2017-03-04T20:13:00Z</time></trkpt>
<trkpt lat="47.236702" lon="11.25209"><ele>768.0</ele><time>2017-03-04T20:13:02Z</time></trkpt>
<trkpt lat="47.236788" lon="11.252305"><ele>768.0</ele><time>2017-03-04T20:13:03Z</time></trkpt>
<trkpt lat="47.236869" lon="11.252836"><ele>733.0</ele><time>2017-03-04T20:13:06Z</time></trkpt>
<trkpt lat="47.236973" lon="11.253143"><ele>733.0</ele><time>2017-03-04T20:13:08Z</time></trkpt>
<trkpt lat="47.237488" lon="11.254104"><ele>711.0</ele><time>2017-03-04T20:13:13Z</time></trkpt>
<trkpt lat="47.237813" lon="11.254631"><ele>718.0</ele><time>2017-03-04T20:13:16Z</time></trkpt>
<trkpt lat="47.237963" lon="11.254763"><ele>718.0</ele><time>2017-03-04T20:13:18Z</time></trkpt>
<trkpt lat="47.238324" lon="11.25494"><ele>718.0</ele><time>2017-03-04T20:13:20Z</time></trkpt>
<trkpt lat="47.238585" lon="11.255001"><ele>730.0</ele><time>2017-03-04T20:13:22Z</time></trkpt>
<trkpt lat="47.23878" lon="11.255127"><ele>730.0</ele><time>2017-03-04T20:13:23Z</time></trkpt>
<trkpt lat="47.239048" lon="11.25538"><ele>730.0</ele><time>2017-03-04T20:13:25Z</time></trkpt>
<trkpt lat="47.239888" lon="11.255921"><ele>714.0</ele><time>2017-03-04T20:13:31Z</time></trkpt>
<trkpt lat="47.24" lon="11.256066"><ele>757.0</ele><time>2017-03-04T20:13:34Z</time></trkpt>
<trkpt lat="47.240124" lon="11.256323"><ele>757.0</ele><time>2017-03-04T20:13:35Z</time></trkpt>
<trkpt lat="47.240426" lon="11.257215"><ele>712.0</ele><time>2017-03-04T20:13:40Z</time></trkpt>
<trkpt lat="47.240713" lon="11.257969"><ele>691.0</ele><time>2017-03-04T20:13:44Z</time></trkpt>
<trkpt lat="47.240909" lon="11.258275"><ele>705.0</ele><time>2017-03-04T20:13:46Z</time></trkpt>
<trkpt lat="47.241112" lon="11.258454"><ele>690.0</ele><time>2017-03-04T20:13:48Z</time></trkpt>
<trkpt lat="47.241343" lon="11.258494"><ele>690.0</ele><time>2017-03-04T20:13:49Z</time></trkpt>
<trkpt lat="47.241639" lon="11.258362"><ele>690.0</ele><time>2017-03-04T20:13:51Z</time></trkpt>
<trkpt lat="47.241938" lon="11.258278"><ele>703.0</ele><time>2017-03-04T20:13:54Z</time></trkpt>
<trkpt lat="47.242156" lon="11.258298"><ele>703.0</ele><time>2017-03-04T20:13:55Z</time></trkpt>
<trkpt lat="47.242294" lon="11.25841"><ele>675.0</ele><time>2017-03-04T20:13:57Z</time></trkpt>
<trkpt lat="47.242549" lon="11.258789"><ele>695.0</ele><time>2017-03-04T20:13:59Z</time></trkpt>
<trkpt lat="47.242698" lon="11.258941"><ele>695.0</ele><time>2017-03-04T20:14:01Z</time></trkpt>
<trkpt lat="47.242902" lon="11.259027"><ele>695.0</ele><time>2017-03-04T20:14:02Z</time></trkpt>
<trkpt lat="47.243256" lon="11.259117"><ele>695.0</ele><time>2017-03-04T20:14:04Z</time></trkpt>
<trkpt lat="47.243401" lon="11.259228"><ele>697.0</ele><time>2017-03-04T20:14:05Z</time></trkpt>
<trkpt lat="47.243531" lon="11.259374"><ele>697.0</ele><time>2017-03-04T20:14:06Z</time></trkpt>
<trkpt lat="47.243731" lon="11.259708"><ele>697.0</ele><time>2017-03-04T20:14:08Z</time></trkpt>
<trkpt lat="47.24425" lon="11.260689"><ele>713.0</ele><time>2017-03-04T20:14:14Z</time></trkpt>
<trkpt lat="47.244643" lon="11.261613"><ele>667.0</ele><time>2017-03-04T20:14:19Z</time></trkpt>
<trkpt lat="47.24562" lon="11.264114"><ele>647.0</ele><time>2017-03-04T20:14:32Z</time></trkpt>
<trkpt lat="47.246167" lon="11.265458"><ele>642.0</ele><time>2017-03-04T20:14:39Z</time></trkpt>
<trkpt lat="47.246346" lon="11.265806"><ele>642.0</ele><time>2017-03-04T20:14:41Z</time></trkpt>
<trkpt lat="47.247469" lon="11.267487"><ele>635.0</ele><time>2017-03-04T20:14:51Z</time></trkpt>
<trkpt lat="47.247627" lon="11.267689"><ele>637.0</ele><time>2017-03-04T20:14:52Z</time></trkpt>
<trkpt lat="47.24796" lon="11.26795"><ele>637.0</ele><time>2017-03-04T20:14:55Z</time></trkpt>
<trkpt lat="47.248143" lon="11.268037"><ele>637.0</ele><time>2017-03-04T20:15:00Z</time></trkpt>
<trkpt lat="47.248143" lon="11.268037"><ele>637.0</ele><time>2017-03-04T20:15:00Z</time></trkpt>
<trkpt lat="47.248409" lon="11.268122"><ele>632.0</ele><time>2017-03-04T20:15:03Z</time></trkpt>
<trkpt lat="47.248614" lon="11.268141"><ele>632.0</ele><time>2017-03-04T20:15:06Z</time></trkpt>
<trkpt lat="47.248914" lon="11.268112"><ele>632.0</ele><time>2017-03-04T20:15:09Z</time></trkpt>
<trkpt lat="47.249294" lon="11.267976"><ele>627.0</ele><time>2017-03-04T20:15:14Z</time></trkpt>
<trkpt lat="47.249621" lon="11.267813"><ele>627.0</ele><time>2017-03-04T20:15:18Z</time></trkpt>
<trkpt lat="47.252816" lon="11.266005"><ele>617.0</ele><time>2017-03-04T20:15:57Z</time></trkpt>
<trkpt lat="47.252909" lon="11.265994"><ele>617.0</ele><time>2017-03-04T20:15:59Z</time></trkpt>
<trkpt lat="47.252991" lon="11.265952"><ele>617.0</ele><time>2017-03-04T20:16:00Z</time></trkpt>
<trkpt lat="47.253046" lon="11.265947"><ele>617.0</ele><time>2017-03-04T20:16:00Z</time></trkpt>
<trkpt lat="47.253111" lon="11.266013"><ele>617.0</ele><time>2017-03-04T20:16:01Z</time></trkpt>
<trkpt lat="47.253164" lon="11.266025"><ele>617.0</ele><time>2017-03-04T20:16:01Z</time></trkpt>
<trkpt lat="47.253232" lon="11.266004"><ele>617.0</ele><time>2017-03-04T20:16:02Z</time></trkpt>
<trkpt lat="47.253301" lon="11.26586"><ele>617.0</ele><time>2017-03-04T20:16:02Z</time></trkpt>
<trkpt lat="47.25331" lon="11.265795"><ele>618.0</ele><time>2017-03-04T20:16:03Z</time></trkpt>
<trkpt lat="47.253296" lon="11.265718"><ele>618.0</ele><time>2017-03-04T20:16:03Z</time></trkpt>
<trkpt lat="47.253267" lon="11.265645"><ele>618.0</ele><time>2017-03-04T20:16:03Z</time></trkpt>
<trkpt lat="47.253219" lon="11.265601"><ele>618.0</ele><time>2017-03-04T20:16:04Z</time></trkpt>
<trkpt lat="47.253194" lon="11.265415"><ele>618.0</ele><time>2017-03-04T20:16:04Z</time></trkpt>
<trkpt lat="47.253159" lon="11.265348"><ele>618.0</ele><time>2017-03-04T20:16:05Z</time></trkpt>
<trkpt lat="47.253162" lon="11.265051"><ele>618.0</ele><time>2017-03-04T20:16:06Z</time></trkpt>
<trkpt lat="47.253208" lon="11.264754"><ele>616.0</ele><time>2017-03-04T20:16:07Z</time></trkpt>
<trkpt lat="47.253313" lon="11.264522"><ele>616.0</ele><time>2017-03-04T20:16:09Z</time></trkpt>
<trkpt lat="47.25347" lon="11.264333"><ele>612.0</ele><time>2017-03-04T20:16:10Z</time></trkpt>
<trkpt lat="47.253723" lon="11.264129"><ele>613.0</ele><time>2017-03-04T20:16:12Z</time></trkpt>
<trkpt lat="47.254199" lon="11.263851"><ele>607.0</ele><time>2017-03-04T20:16:15Z</time></trkpt>
<trkpt lat="47.255043" lon="11.263226"><ele>608.0</ele><time>2017-03-04T20:16:21Z</time></trkpt>
<trkpt lat="47.257409" lon="11.261156"><ele>603.0</ele><time>2017-03-04T20:16:39Z</time></trkpt>
<trkpt lat="47.258328" lon="11.260446"><ele>601.0</ele><time>2017-03-04T20:16:45Z</time></trkpt>
<trkpt lat="47.259182" lon="11.259856"><ele>595.0</ele><time>2017-03-04T20:16:51Z</time></trkpt>
<trkpt lat="47.259356" lon="11.259691"><ele>595.0</ele><time>2017-03-04T20:16:53Z</time></trkpt>
<trkpt lat="47.259471" lon="11.259548"><ele>595.0</ele><time>2017-03-04T20:16:54Z</time></trkpt>
<trkpt lat="47.259616" lon="11.259297"><ele>595.0</ele><time>2017-03-04T20:16:55Z</time></trkpt>
<trkpt lat="47.259734" lon="11.259008"><ele>595.0</ele><time>2017-03-04T20:16:56Z</time></trkpt>
<trkpt lat="47.26009" lon="11.258022"><ele>592.0</ele><time>2017-03-04T20:17:01Z</time></trkpt>
<trkpt lat="47.260724" lon="11.256634"><ele>593.0</ele><time>2017-03-04T20:17:09Z</time></trkpt>
<trkpt lat="47.260857" lon="11.256272"><ele>593.0</ele><time>2017-03-04T20:17:10Z</time></trkpt>
<trkpt lat="47.261027" lon="11.255709"><ele>592.0</ele><time>2017-03-04T20:17:13Z</time></trkpt>
<trkpt lat="47.261093" lon="11.255271"><ele>592.0</ele><time>2017-03-04T20:17:15Z</time></trkpt>
<trkpt lat="47.26111" lon="11.254929"><ele>592.0</ele><time>2017-03-04T20:17:16Z</time></trkpt>
<trkpt lat="47.261075" lon="11.25443"><ele>592.0</ele><time>2017-03-04T20:17:19Z</time></trkpt>
<trkpt lat="47.260843" lon="11.253027"><ele>592.0</ele><time>2017-03-04T20:17:25Z</time></trkpt>
<trkpt lat="47.260689" lon="11.251432"><ele>592.0</ele><time>2017-03-04T20:17:32Z</time></trkpt>
<trkpt lat="47.260695" lon="11.249866"><ele>594.0</ele><time>2017-03-04T20:17:39Z</time></trkpt>
<trkpt lat="47.260855" lon="11.247644"><ele>592.0</ele><time>2017-03-04T20:17:48Z</time></trkpt>
<trkpt lat="47.261085" lon="11.245414"><ele>594.0</ele><time>2017-03-04T20:17:58Z</time></trkpt>
<trkpt lat="47.261226" lon="11.243566"><ele>594.0</ele><time>2017-03-04T20:18:06Z</time></trkpt>
<trkpt lat="47.261313" lon="11.242811"><ele>602.0</ele><time>2017-03-04T20:18:09Z</time></trkpt>
<trkpt lat="47.261488" lon="11.241975"><ele>605.0</ele><time>2017-03-04T20:18:13Z</time></trkpt>
<trkpt lat="47.261994" lon="11.240182"><ele>596.0</ele><time>2017-03-04T20:18:22Z</time></trkpt>
<trkpt lat="47.262297" lon="11.238745"><ele>598.0</ele><time>2017-03-04T20:18:28Z</time></trkpt>
<trkpt lat="47.262401" lon="11.237988"><ele>599.0</ele><time>2017-03-04T20:18:32Z</time></trkpt>
<trkpt lat="47.26243" lon="11.23752"><ele>599.0</ele><time>2017-03-04T20:18:34Z</time></trkpt>
<trkpt lat="47.262431" lon="11.237015"><ele>595.0</ele><time>2017-03-04T20:18:36Z</time></trkpt>
<trkpt lat="47.262253" lon="11.232715"><ele>594.0</ele><time>2017-03-04T20:18:54Z</time></trkpt>
<trkpt lat="47.26225" lon="11.232044"><ele>595.0</ele><time>2017-03-04T20:18:57Z</time></trkpt>
<trkpt lat="47.262292" lon="11.231426"><ele>595.0</ele><time>2017-03-04T20:19:00Z</time></trkpt>
<trkpt lat="47.262375" lon="11.230781"><ele>596.0</ele><time>2017-03-04T20:19:03Z</time></trkpt>
<trkpt lat="47.262516" lon="11.230115"><ele>596.0</ele><time>2017-03-04T20:19:06Z</time></trkpt>
<trkpt lat="47.262654" lon="11.229618"><ele>597.0</ele><time>2017-03-04T20:19:08Z</time></trkpt>
<trkpt lat="47.262825" lon="11.229112"><ele>599.0</ele><time>2017-03-04T20:19:11Z</time></trkpt>
<trkpt lat="47.263018" lon="11.228646"><ele>599.0</ele><time>2017-03-04T20:19:13Z</time></trkpt>
<trkpt lat="47.263432" lon="11.227766"><ele>597.0</ele><time>2017-03-04T20:19:18Z</time></trkpt>
<trkpt lat="47.263711" lon="11.22727"><ele>595.0</ele><time>2017-03-04T20:19:20Z</time></trkpt>
<trkpt lat="47.26401" lon="11.226787"><ele>595.0</ele><time>2017-03-04T20:19:23Z</time></trkpt>
<trkpt lat="47.264392" lon="11.226239"><ele>595.0</ele><time>2017-03-04T20:19:27Z</time></trkpt>
<trkpt lat="47.264734" lon="11.225808"><ele>594.0</ele><time>2017-03-04T20:19:30Z</time></trkpt>
<trkpt lat="47.265748" lon="11.224669"><ele>596.0</ele><time>2017-03-04T20:19:38Z</time></trkpt>
<trkpt lat="47.266079" lon="11.22424"><ele>598.0</ele><time>2017-03-04T20:19:41Z</time></trkpt>
<trkpt lat="47.266213" lon="11.224036"><ele>598.0</ele><time>2017-03-04T20:19:42Z</time></trkpt>
<trkpt lat="47.266493" lon="11.223397"><ele>598.0</ele><time>2017-03-04T20:19:45Z</time></trkpt>
<trkpt lat="47.266622" lon="11.22272"><ele>597.0</ele><time>2017-03-04T20:19:50Z</time></trkpt>
<trkpt lat="47.266746" lon="11.221181"><ele>596.0</ele><time>2017-03-04T20:20:02Z</time></trkpt>
<trkpt lat="47.266818" lon="11.220669"><ele>598.0</ele><time>2017-03-04T20:20:06Z</time></trkpt>
<trkpt lat="47.267033" lon="11.219993"><ele>598.0</ele><time>2017-03-04T20:20:09Z</time></trkpt>
<trkpt lat="47.267342" lon="11.218914"><ele>597.0</ele><time>2017-03-04T20:20:14Z</time></trkpt>
<trkpt lat="47.267746" lon="11.217012"><ele>596.0</ele><time>2017-03-04T20:20:23Z</time></trkpt>
<trkpt lat="47.268265" lon="11.215801"><ele>597.0</ele><time>2017-03-04T20:20:30Z</time></trkpt>
<trkpt lat="47.268423" lon="11.215234"><ele>594.0</ele><time>2017-03-04T20:20:32Z</time></trkpt>
<trkpt lat="47.268962" lon="11.212163"><ele>598.0</ele><time>2017-03-04T20:20:46Z</time></trkpt>
<trkpt lat="47.269049" lon="11.211792"><ele>598.0</ele><time>2017-03-04T20:20:48Z</time></trkpt>
<trkpt lat="47.269207" lon="11.211391"><ele>596.0</ele><time>2017-03-04T20:20:50Z</time></trkpt>
<trkpt lat="47.269729" lon="11.210416"><ele>600.0</ele><time>2017-03-04T20:20:55Z</time></trkpt>
<trkpt lat="47.269828" lon="11.210198"><ele>600.0</ele><time>2017-03-04T20:20:56Z</time></trkpt>
<trkpt lat="47.269954" lon="11.209796"><ele>600.0</ele><time>2017-03-04T20:20:58Z</time></trkpt>
<trkpt lat="47.270005" lon="11.20955"><ele>597.0</ele><time>2017-03-04T20:21:00Z</time></trkpt>
<trkpt lat="47.270027" lon="11.209289"><ele>597.0</ele><time>2017-03-04T20:21:01Z</time></trkpt>
<trkpt lat="47.270017" lon="11.208966"><ele>597.0</ele><time>2017-03-04T20:21:02Z</time></trkpt>
<trkpt lat="47.269875" lon="11.206783"><ele>609.0</ele><time>2017-03-04T20:21:12Z</time></trkpt>
<trkpt lat="47.269868" lon="11.206492"><ele>610.0</ele><time>2017-03-04T20:21:13Z</time></trkpt>
<trkpt lat="47.269912" lon="11.206125"><ele>610.0</ele><time>2017-03-04T20:21:15Z</time></trkpt>
<trkpt lat="47.269956" lon="11.205909"><ele>610.0</ele><time>2017-03-04T20:21:16Z</time></trkpt>
<trkpt lat="47.270397" lon="11.204538"><ele>604.0</ele><time>2017-03-04T20:21:23Z</time></trkpt>
<trkpt lat="47.270594" lon="11.203815"><ele>603.0</ele><time>2017-03-04T20:21:27Z</time></trkpt>
<trkpt lat="47.27093" lon="11.202466"><ele>606.0</ele><time>2017-03-04T20:21:34Z</time></trkpt>
<trkpt lat="47.271021" lon="11.202178"><ele>606.0</ele><time>2017-03-04T20:21:36Z</time></trkpt>
<trkpt lat="47.271128" lon="11.201912"><ele>606.0</ele><time>2017-03-04T20:21:37Z</time></trkpt>
<trkpt lat="47.271319" lon="11.201586"><ele>606.0</ele><time>2017-03-04T20:21:39Z</time></trkpt>
<trkpt lat="47.271778" lon="11.20097"><ele>605.0</ele><time>2017-03-04T20:21:44Z</time></trkpt>
<trkpt lat="47.272174" lon="11.200344"><ele>607.0</ele><time>2017-03-04T20:21:48Z</time></trkpt>
<trkpt lat="47.272438" lon="11.200096"><ele>607.0</ele><time>2017-03-04T20:21:50Z</time></trkpt>
<trkpt lat="47.272591" lon="11.200004"><ele>604.0</ele><time>2017-03-04T20:21:51Z</time></trkpt>
<trkpt lat="47.273439" lon="11.198612"><ele>607.0</ele><time>2017-03-04T20:22:01Z</time></trkpt>
<trkpt lat="47.273578" lon="11.198257"><ele>607.0</ele><time>2017-03-04T20:22:03Z</time></trkpt>
<trkpt lat="47.2739" lon="11.197574"><ele>607.0</ele><time>2017-03-04T20:22:07Z</time></trkpt>
<trkpt lat="47.274089" lon="11.196792"><ele>611.0</ele><time>2017-03-04T20:22:11Z</time></trkpt>
<trkpt lat="47.274197" lon="11.196575"><ele>608.0</ele><time>2017-03-04T20:22:12Z</time></trkpt>
<trkpt lat="47.274792" lon="11.195549"><ele>611.0</ele><time>2017-03-04T20:22:19Z</time></trkpt>
<trkpt lat="47.274887" lon="11.195357"><ele>611.0</ele><time>2017-03-04T20:22:20Z</time></trkpt>
<trkpt lat="47.275341" lon="11.193988"><ele>614.0</ele><time>2017-03-04T20:22:27Z</time></trkpt>
<trkpt lat="47.275486" lon="11.193688"><ele>614.0</ele><time>2017-03-04T20:22:29Z</time></trkpt>
<trkpt lat="47.276485" lon="11.191002"><ele>617.0</ele><time>2017-03-04T20:22:44Z</time></trkpt>
<trkpt lat="47.276594" lon="11.190573"><ele>617.0</ele><time>2017-03-04T20:22:46Z</time></trkpt>
<trkpt lat="47.276634" lon="11.190418"><ele>617.0</ele><time>2017-03-04T20:22:47Z</time></trkpt>
<trkpt lat="47.276718" lon="11.189593"><ele>613.0</ele><time>2017-03-04T20:22:51Z</time></trkpt>
<trkpt lat="47.276704" lon="11.188953"><ele>613.0</ele><time>2017-03-04T20:22:53Z</time></trkpt>
<trkpt lat="47.276559" lon="11.186761"><ele>622.0</ele><time>2017-03-04T20:23:02Z</time></trkpt>
<trkpt lat="47.276578" lon="11.185516"><ele>625.0</ele><time>2017-03-04T20:23:07Z</time></trkpt>
<trkpt lat="47.276866" lon="11.180703"><ele>614.0</ele><time>2017-03-04T20:23:27Z</time></trkpt>
<trkpt lat="47.276887" lon="11.179922"><ele>613.0</ele><time>2017-03-04T20:23:31Z</time></trkpt>
<trkpt lat="47.276853" lon="11.179505"><ele>613.0</ele><time>2017-03-04T20:23:32Z</time></trkpt>
<trkpt lat="47.27674" lon="11.178916"><ele>609.0</ele><time>2017-03-04T20:23:35Z</time></trkpt>
<trkpt lat="47.276281" lon="11.17693"><ele>612.0</ele><time>2017-03-04T20:23:44Z</time></trkpt>
<trkpt lat="47.276114" lon="11.17586"><ele>607.0</ele><time>2017-03-04T20:23:48Z</time></trkpt>
<trkpt lat="47.276066" lon="11.175222"><ele>605.0</ele><time>2017-03-04T20:23:51Z</time></trkpt>
<trkpt lat="47.276066" lon="11.17457"><ele>604.0</ele><time>2017-03-04T20:23:54Z</time></trkpt>
<trkpt lat="47.276105" lon="11.173979"><ele>604.0</ele><time>2017-03-04T20:23:56Z</time></trkpt>
<trkpt lat="47.276174" lon="11.173412"><ele>604.0</ele><time>2017-03-04T20:23:58Z</time></trkpt>
<trkpt lat="47.276211" lon="11.173178"><ele>605.0</ele><time>2017-03-04T20:23:59Z</time></trkpt>
<trkpt lat="47.276377" lon="11.172464"><ele>608.0</ele><time>2017-03-04T20:24:02Z</time></trkpt>
<trkpt lat="47.276999" lon="11.170309"><ele>609.0</ele><time>2017-03-04T20:24:12Z</time></trkpt>
<trkpt lat="47.277555" lon="11.168656"><ele>611.0</ele><time>2017-03-04T20:24:20Z</time></trkpt>
<trkpt lat="47.277821" lon="11.167799"><ele>612.0</ele><time>2017-03-04T20:24:24Z</time></trkpt>
<trkpt lat="47.278498" lon="11.168319"><ele>605.0</ele><time>2017-03-04T20:24:29Z</time></trkpt>
<trkpt lat="47.279001" lon="11.168772"><ele>607.0</ele><time>2017-03-04T20:24:34Z</time></trkpt>
<trkpt lat="47.279392" lon="11.169215"><ele>606.0</ele><time>2017-03-04T20:24:37Z</time></trkpt>
<trkpt lat="47.279896" lon="11.16965"><ele>606.0</ele><time>2017-03-04T20:24:41Z</time></trkpt>
<trkpt lat="47.280122" lon="11.169748"><ele>604.0</ele><time>2017-03-04T20:24:43Z</time></trkpt>
<trkpt lat="47.280744" lon="11.169853"><ele>604.0</ele><time>2017-03-04T20:24:48Z</time></trkpt>
<trkpt lat="47.281861" lon="11.169909"><ele>605.0</ele><time>2017-03-04T20:24:56Z</time></trkpt>
<trkpt lat="47.282146" lon="11.169896"><ele>605.0</ele><time>2017-03-04T20:24:58Z</time></trkpt>
<trkpt lat="47.282454" lon="11.169848"><ele>605.0</ele><time>2017-03-04T20:25:00Z</time></trkpt>
<trkpt lat="47.284552" lon="11.169196"><ele>609.0</ele><time>2017-03-04T20:25:16Z</time></trkpt>
<trkpt lat="47.285336" lon="11.16902"><ele>605.0</ele><time>2017-03-04T20:25:22Z</time></trkpt>
<trkpt lat="47.288057" lon="11.168669"><ele>602.0</ele><time>2017-03-04T20:25:41Z</time></trkpt>
<trkpt lat="47.288232" lon="11.16867"><ele>602.0</ele><time>2017-03-04T20:25:43Z</time></trkpt>
<trkpt lat="47.288475" lon="11.16873"><ele>608.0</ele><time>2017-03-04T20:25:45Z</time></trkpt>
<trkpt lat="47.288592" lon="11.168776"><ele>608.0</ele><time>2017-03-04T20:25:45Z</time></trkpt>
<trkpt lat="47.288831" lon="11.168937"><ele>608.0</ele><time>2017-03-04T20:25:47Z</time></trkpt>
<trkpt lat="47.288887" lon="11.168977"><ele>608.0</ele><time>2017-03-04T20:25:48Z</time></trkpt>
<trkpt lat="47.28978" lon="11.166444"><ele>607.0</ele><time>2017-03-04T20:26:00Z</time></trkpt>
<trkpt lat="47.291595" lon="11.161199"><ele>612.0</ele><time>2017-03-04T20:26:24Z</time></trkpt>
<trkpt lat="47.291801" lon="11.160507"><ele>628.0</ele><time>2017-03-04T20:26:27Z</time></trkpt>
<trkpt lat="47.292074" lon="11.159687"><ele>617.0</ele><time>2017-03-04T20:26:31Z</time></trkpt>
<trkpt lat="47.292587" lon="11.158718"><ele>640.0</ele><time>2017-03-04T20:26:36Z</time></trkpt>
<trkpt lat="47.292756" lon="11.158292"><ele>621.0</ele><time>2017-03-04T20:26:39Z</time></trkpt>
<trkpt lat="47.293117" lon="11.157181"><ele>614.0</ele><time>2017-03-04T20:26:44Z</time></trkpt>
<trkpt lat="47.293282" lon="11.156605"><ele>611.0</ele><time>2017-03-04T20:26:46Z</time></trkpt>
<trkpt lat="47.293391" lon="11.156021"><ele>627.0</ele><time>2017-03-04T20:26:49Z</time></trkpt>
<trkpt lat="47.293627" lon="11.154492"><ele>610.0</ele><time>2017-03-04T20:26:55Z</time></trkpt>
<trkpt lat="47.293823" lon="11.153726"><ele>606.0</ele><time>2017-03-04T20:26:59Z</time></trkpt>
<trkpt lat="47.294127" lon="11.152932"><ele>608.0</ele><time>2017-03-04T20:27:03Z</time></trkpt>
<trkpt lat="47.294416" lon="11.152365"><ele>609.0</ele><time>2017-03-04T20:27:05Z</time></trkpt>
<trkpt lat="47.295523" lon="11.150795"><ele>607.0</ele><time>2017-03-04T20:27:15Z</time></trkpt>
<trkpt lat="47.295809" lon="11.150301"><ele>607.0</ele><time>2017-03-04T20:27:18Z</time></trkpt>
<trkpt lat="47.296075" lon="11.149743"><ele>613.0</ele><time>2017-03-04T20:27:20Z</time></trkpt>
<trkpt lat="47.298807" lon="11.142401"><ele>611.0</ele><time>2017-03-04T20:27:55Z</time></trkpt>
<trkpt lat="47.299505" lon="11.140489"><ele>613.0</ele><time>2017-03-04T20:28:04Z</time></trkpt>
<trkpt lat="47.301664" lon="11.134731"><ele>615.0</ele><time>2017-03-04T20:28:31Z</time></trkpt>
<trkpt lat="47.301902" lon="11.13395"><ele>620.0</ele><time>2017-03-04T20:28:35Z</time></trkpt>
<trkpt lat="47.302054" lon="11.133358"><ele>620.0</ele><time>2017-03-04T20:28:37Z</time></trkpt>
<trkpt lat="47.302227" lon="11.132802"><ele>614.0</ele><time>2017-03-04T20:28:40Z</time></trkpt>
<trkpt lat="47.30415" lon="11.127412"><ele>610.0</ele><time>2017-03-04T20:29:05Z</time></trkpt>
<trkpt lat="47.30543" lon="11.123771"><ele>625.0</ele><time>2017-03-04T20:29:22Z</time></trkpt>
<trkpt lat="47.305755" lon="11.123026"><ele>619.0</ele><time>2017-03-04T20:29:26Z</time></trkpt>
<trkpt lat="47.306064" lon="11.122526"><ele>641.0</ele><time>2017-03-04T20:29:29Z</time></trkpt>
<trkpt lat="47.30642" lon="11.122065"><ele>621.0</ele><time>2017-03-04T20:29:32Z</time></trkpt>
<trkpt lat="47.306638" lon="11.121842"><ele>621.0</ele><time>2017-03-04T20:29:33Z</time></trkpt>
<trkpt lat="47.307903" lon="11.120788"><ele>619.0</ele><time>2017-03-04T20:29:42Z</time></trkpt>
<trkpt lat="47.308443" lon="11.12027"><ele>642.0</ele><time>2017-03-04T20:29:46Z</time></trkpt>
<trkpt lat="47.308773" lon="11.119909"><ele>623.0</ele><time>2017-03-04T20:29:49Z</time></trkpt>
<trkpt lat="47.309376" lon="11.119136"><ele>632.0</ele><time>2017-03-04T20:29:54Z</time></trkpt>
<trkpt lat="47.309926" lon="11.118274"><ele>622.0</ele><time>2017-03-04T20:29:59Z</time></trkpt>
<trkpt lat="47.310433" lon="11.117293"><ele>632.0</ele><time>2017-03-04T20:30:04Z</time></trkpt>
<trkpt lat="47.310588" lon="11.11694"><ele>632.0</ele><time>2017-03-04T20:30:06Z</time></trkpt>
<trkpt lat="47.311185" lon="11.1154"><ele>636.0</ele><time>2017-03-04T20:30:13Z</time></trkpt>
<trkpt lat="47.311457" lon="11.114743"><ele>623.0</ele><time>2017-03-04T20:30:16Z</time></trkpt>
<trkpt lat="47.311648" lon="11.114358"><ele>623.0</ele><time>2017-03-04T20:30:18Z</time></trkpt>
<trkpt lat="47.312146" lon="11.113522"><ele>633.0</ele><time>2017-03-04T20:30:23Z</time></trkpt>
<trkpt lat="47.31234" lon="11.113128"><ele>625.0</ele><time>2017-03-04T20:30:25Z</time></trkpt>
<trkpt lat="47.312523" lon="11.112688"><ele>654.0</ele><time>2017-03-04T20:30:28Z</time></trkpt>
<trkpt lat="47.312689" lon="11.112212"><ele>647.0</ele><time>2017-03-04T20:30:30Z</time></trkpt>
<trkpt lat="47.312872" lon="11.111453"><ele>641.0</ele><time>2017-03-04T20:30:33Z</time></trkpt>
<trkpt lat="47.313153" lon="11.10993"><ele>625.0</ele><time>2017-03-04T20:30:40Z</time></trkpt>
<trkpt lat="47.313231" lon="11.10931"><ele>625.0</ele><time>2017-03-04T20:30:44Z</time></trkpt>
<trkpt lat="47.313231" lon="11.10931"><ele>625.0</ele><time>2017-03-04T20:30:44Z</time></trkpt>
<trkpt lat="47.313292" lon="11.108577"><ele>617.0</ele><time>2017-03-04T20:30:47Z</time></trkpt>
<trkpt lat="47.313312" lon="11.107893"><ele>615.0</ele><time>2017-03-04T20:30:49Z</time></trkpt>
<trkpt lat="47.31331" lon="11.107384"><ele>618.0</ele><time>2017-03-04T20:30:52Z</time></trkpt>
<trkpt lat="47.31329" lon="11.106789"><ele>618.0</ele><time>2017-03-04T20:30:54Z</time></trkpt>
<trkpt lat="47.313207" lon="11.105756"><ele>624.0</ele><time>2017-03-04T20:30:58Z</time></trkpt>
<trkpt lat="47.313102" lon="11.105025"><ele>624.0</ele><time>2017-03-04T20:31:01Z</time></trkpt>
<trkpt lat="47.313005" lon="11.104513"><ele>624.0</ele><time>2017-03-04T20:31:04Z</time></trkpt>
<trkpt lat="47.312583" lon="11.102628"><ele>622.0</ele><time>2017-03-04T20:31:12Z</time></trkpt>
<trkpt lat="47.312469" lon="11.102142"><ele>618.0</ele><time>2017-03-04T20:31:14Z</time></trkpt>
<trkpt lat="47.312553" lon="11.102032"><ele>619.0</ele><time>2017-03-04T20:31:15Z</time></trkpt>
<trkpt lat="47.31255" lon="11.101899"><ele>619.0</ele><time>2017-03-04T20:31:15Z</time></trkpt>
<trkpt lat="47.312524" lon="11.101845"><ele>619.0</ele><time>2017-03-04T20:31:16Z</time></trkpt>
<trkpt lat="47.312432" lon="11.101776"><ele>618.0</ele><time>2017-03-04T20:31:16Z</time></trkpt>
<trkpt lat="47.312394" lon="11.101782"><ele>618.0</ele><time>2017-03-04T20:31:16Z</time></trkpt>
<trkpt lat="47.311915" lon="11.099647"><ele>617.0</ele><time>2017-03-04T20:31:26Z</time></trkpt>
<trkpt lat="47.311401" lon="11.097254"><ele>617.0</ele><time>2017-03-04T20:31:37Z</time></trkpt>
<trkpt lat="47.310747" lon="11.094407"><ele>619.0</ele><time>2017-03-04T20:31:50Z</time></trkpt>
<trkpt lat="47.30752" lon="11.079892"><ele>627.0</ele><time>2017-03-04T20:32:56Z</time></trkpt>
<trkpt lat="47.306911" lon="11.077046"><ele>623.0</ele><time>2017-03-04T20:33:09Z</time></trkpt>
<trkpt lat="47.306884" lon="11.076926"><ele>623.0</ele><time>2017-03-04T20:33:10Z</time></trkpt>
<trkpt lat="47.306939" lon="11.076874"><ele>623.0</ele><time>2017-03-04T20:33:10Z</time></trkpt>
<trkpt lat="47.30697" lon="11.076781"><ele>623.0</ele><time>2017-03-04T20:33:11Z</time></trkpt>
<trkpt lat="47.306964" lon="11.07668"><ele>623.0</ele><time>2017-03-04T20:33:11Z</time></trkpt>
<trkpt lat="47.306925" lon="11.0766"><ele>624.0</ele><time>2017-03-04T20:33:12Z</time></trkpt>
<trkpt lat="47.306864" lon="11.07656"><ele>624.0</ele><time>2017-03-04T20:33:13Z</time></trkpt>
<trkpt lat="47.306802" lon="11.076567"><ele>624.0</ele><time>2017-03-04T20:33:13Z</time></trkpt>
<trkpt lat="47.306749" lon="11.076619"><ele>624.0</ele><time>2017-03-04T20:33:14Z</time></trkpt>
<trkpt lat="47.306595" lon="11.076381"><ele>623.0</ele><time>2017-03-04T20:33:16Z</time></trkpt>
<trkpt lat="47.306362" lon="11.075942"><ele>623.0</ele><time>2017-03-04T20:33:19Z</time></trkpt>
<trkpt lat="47.306193" lon="11.07566"><ele>623.0</ele><time>2017-03-04T20:33:21Z</time></trkpt>
<trkpt lat="47.305563" lon="11.074645"><ele>623.0</ele><time>2017-03-04T20:33:29Z</time></trkpt>
<trkpt lat="47.305331" lon="11.074191"><ele>623.0</ele><time>2017-03-04T20:33:32Z</time></trkpt>
<trkpt lat="47.305184" lon="11.073852"><ele>624.0</ele><time>2017-03-04T20:33:34Z</time></trkpt>
<trkpt lat="47.305006" lon="11.073295"><ele>626.0</ele><time>2017-03-04T20:33:38Z</time></trkpt>
<trkpt lat="47.30484" lon="11.072676"><ele>626.0</ele><time>2017-03-04T20:33:42Z</time></trkpt>
<trkpt lat="47.304686" lon="11.072198"><ele>627.0</ele><time>2017-03-04T20:33:45Z</time></trkpt>
<trkpt lat="47.304529" lon="11.071833"><ele>627.0</ele><time>2017-03-04T20:33:47Z</time></trkpt>
<trkpt lat="47.304302" lon="11.071397"><ele>628.0</ele><time>2017-03-04T20:33:50Z</time></trkpt>
<trkpt lat="47.304251" lon="11.071307"><ele>628.0</ele><time>2017-03-04T20:33:51Z</time></trkpt>
<trkpt lat="47.304295" lon="11.071243"><ele>628.0</ele><time>2017-03-04T20:33:52Z</time></trkpt>
<trkpt lat="47.304309" lon="11.071178"><ele>628.0</ele><time>2017-03-04T20:33:52Z</time></trkpt>
<trkpt lat="47.304283" lon="11.071061"><ele>628.0</ele><time>2017-03-04T20:33:53Z</time></trkpt>
<trkpt lat="47.304246" lon="11.071018"><ele>628.0</ele><time>2017-03-04T20:33:53Z</time></trkpt>
<trkpt lat="47.30415" lon="11.071012"><ele>626.0</ele><time>2017-03-04T20:33:54Z</time></trkpt>
<trkpt lat="47.304085" lon="11.071076"><ele>626.0</ele><time>2017-03-04T20:33:55Z</time></trkpt>
<trkpt lat="47.303812" lon="11.070852"><ele>626.0</ele><time>2017-03-04T20:33:58Z</time></trkpt>
<trkpt lat="47.303324" lon="11.070523"><ele>627.0</ele><time>2017-03-04T20:34:03Z</time></trkpt>
<trkpt lat="47.303295" lon="11.070507"><ele>627.0</ele><time>2017-03-04T20:34:03Z</time></trkpt>
<trkpt lat="47.302905" lon="11.069949"><ele>625.0</ele><time>2017-03-04T20:34:09Z</time></trkpt>
<trkpt lat="47.302827" lon="11.069593"><ele>625.0</ele><time>2017-03-04T20:34:11Z</time></trkpt>
<trkpt lat="47.302718" lon="11.068789"><ele>625.0</ele><time>2017-03-04T20:34:17Z</time></trkpt>
<trkpt lat="47.302701" lon="11.068593"><ele>625.0</ele><time>2017-03-04T20:34:18Z</time></trkpt>
<trkpt lat="47.302755" lon="11.068574"><ele>625.0</ele><time>2017-03-04T20:34:19Z</time></trkpt>
<trkpt lat="47.30282" lon="11.068487"><ele>625.0</ele><time>2017-03-04T20:34:20Z</time></trkpt>
<trkpt lat="47.302831" lon="11.06843"><ele>625.0</ele><time>2017-03-04T20:34:20Z</time></trkpt>
<trkpt lat="47.302821" lon="11.068291"><ele>624.0</ele><time>2017-03-04T20:34:21Z</time></trkpt>
<trkpt lat="47.303475" lon="11.067867"><ele>625.0</ele><time>2017-03-04T20:34:30Z</time></trkpt>
<trkpt lat="47.3041" lon="11.067554"><ele>625.0</ele><time>2017-03-04T20:34:38Z</time></trkpt>
<trkpt lat="47.30514" lon="11.06714"><ele>628.0</ele><time>2017-03-04T20:34:51Z</time></trkpt>
<trkpt lat="47.305953" lon="11.066726"><ele>637.0</ele><time>2017-03-04T20:35:02Z</time></trkpt>
<trkpt lat="47.306441" lon="11.066633"><ele>640.0</ele><time>2017-03-04T20:35:08Z</time></trkpt>
<trkpt lat="47.306732" lon="11.066681"><ele>641.0</ele><time>2017-03-04T20:35:11Z</time></trkpt>
<trkpt lat="47.30703" lon="11.066805"><ele>641.0</ele><time>2017-03-04T20:35:15Z</time></trkpt>
<trkpt lat="47.307755" lon="11.067231"><ele>644.0</ele><time>2017-03-04T20:35:24Z</time></trkpt>
<trkpt lat="47.307825" lon="11.06727"><ele>644.0</ele><time>2017-03-04T20:35:25Z</time></trkpt>
<trkpt lat="47.30781" lon="11.067348"><ele>644.0</ele><time>2017-03-04T20:35:26Z</time></trkpt>
<trkpt lat="47.307824" lon="11.067426"><ele>644.0</ele><time>2017-03-04T20:35:27Z</time></trkpt>
<trkpt lat="47.307905" lon="11.067502"><ele>643.0</ele><time>2017-03-04T20:35:28Z</time></trkpt>
<trkpt lat="47.307978" lon="11.067485"><ele>644.0</ele><time>2017-03-04T20:35:29Z</time></trkpt>
<trkpt lat="47.308016" lon="11.067429"><ele>644.0</ele><time>2017-03-04T20:35:30Z</time></trkpt>
<trkpt lat="47.308035" lon="11.067352"><ele>644.0</ele><time>2017-03-04T20:35:31Z</time></trkpt>
<trkpt lat="47.308027" lon="11.067259"><ele>644.0</ele><time>2017-03-04T20:35:32Z</time></trkpt>
<trkpt lat="47.308098" lon="11.067199"><ele>644.0</ele><time>2017-03-04T20:35:33Z</time></trkpt>
<trkpt lat="47.308585" lon="11.066804"><ele>647.0</ele><time>2017-03-04T20:35:41Z</time></trkpt>
<trkpt lat="47.30913" lon="11.066536"><ele>651.0</ele><time>2017-03-04T20:35:49Z</time></trkpt>
<trkpt lat="47.309209" lon="11.066454"><ele>649.0</ele><time>2017-03-04T20:35:50Z</time></trkpt>
<trkpt lat="47.309325" lon="11.066288"><ele>649.0</ele><time>2017-03-04T20:35:53Z</time></trkpt>
<trkpt lat="47.309684" lon="11.065703"><ele>651.0</ele><time>2017-03-04T20:36:00Z</time></trkpt>
<trkpt lat="47.310199" lon="11.065146"><ele>655.0</ele><time>2017-03-04T20:36:09Z</time></trkpt>
<trkpt lat="47.310288" lon="11.064987"><ele>656.0</ele><time>2017-03-04T20:36:11Z</time></trkpt>
<trkpt lat="47.310328" lon="11.064856"><ele>656.0</ele><time>2017-03-04T20:36:13Z</time></trkpt>
<trkpt lat="47.31034" lon="11.064807"><ele>656.0</ele><time>2017-03-04T20:36:13Z</time></trkpt>
<trkpt lat="47.310323" lon="11.064571"><ele>656.0</ele><time>2017-03-04T20:36:15Z</time></trkpt>
<trkpt lat="47.310224" lon="11.064271"><ele>656.0</ele><time>2017-03-04T20:36:17Z</time></trkpt>
<trkpt lat="47.310183" lon="11.064087"><ele>659.0</ele><time>2017-03-04T20:36:18Z</time></trkpt>
<trkpt lat="47.310171" lon="11.063955"><ele>659.0</ele><time>2017-03-04T20:36:19Z</time></trkpt>
<trkpt lat="47.310161" lon="11.06338"><ele>659.0</ele><time>2017-03-04T20:36:23Z</time></trkpt>
<trkpt lat="47.310099" lon="11.062573"><ele>661.0</ele><time>2017-03-04T20:36:28Z</time></trkpt>
<trkpt lat="47.310051" lon="11.06135"><ele>664.0</ele><time>2017-03-04T20:36:35Z</time></trkpt>
<trkpt lat="47.309802" lon="11.059471"><ele>660.0</ele><time>2017-03-04T20:36:47Z</time></trkpt>
<trkpt lat="47.30966" lon="11.058454"><ele>660.0</ele><time>2017-03-04T20:36:54Z</time></trkpt>
<trkpt lat="47.30961" lon="11.058189"><ele>660.0</ele><time>2017-03-04T20:36:56Z</time></trkpt>
<trkpt lat="47.309511" lon="11.057848"><ele>660.0</ele><time>2017-03-04T20:36:58Z</time></trkpt>
<trkpt lat="47.30942" lon="11.057605"><ele>660.0</ele><time>2017-03-04T20:37:00Z</time></trkpt>
<trkpt lat="47.308076" lon="11.054925"><ele>713.0</ele><time>2017-03-04T20:37:21Z</time></trkpt>
<trkpt lat="47.308" lon="11.05474"><ele>713.0</ele><time>2017-03-04T20:37:22Z</time></trkpt>
<trkpt lat="47.307897" lon="11.054279"><ele>713.0</ele><time>2017-03-04T20:37:25Z</time></trkpt>
<trkpt lat="47.307865" lon="11.054032"><ele>716.0</ele><time>2017-03-04T20:37:27Z</time></trkpt>
<trkpt lat="47.307869" lon="11.053568"><ele>716.0</ele><time>2017-03-04T20:37:30Z</time></trkpt>
<trkpt lat="47.308077" lon="11.051216"><ele>726.0</ele><time>2017-03-04T20:37:45Z</time></trkpt>
<trkpt lat="47.308081" lon="11.050833"><ele>726.0</ele><time>2017-03-04T20:37:47Z</time></trkpt>
<trkpt lat="47.308067" lon="11.050687"><ele>733.0</ele><time>2017-03-04T20:37:48Z</time></trkpt>
<trkpt lat="47.308009" lon="11.05036"><ele>733.0</ele><time>2017-03-04T20:37:50Z</time></trkpt>
<trkpt lat="47.307936" lon="11.050104"><ele>733.0</ele><time>2017-03-04T20:37:52Z</time></trkpt>
<trkpt lat="47.307589" lon="11.049343"><ele>745.0</ele><time>2017-03-04T20:37:58Z</time></trkpt>
<trkpt lat="47.307458" lon="11.048984"><ele>743.0</ele><time>2017-03-04T20:38:01Z</time></trkpt>
<trkpt lat="47.307366" lon="11.048618"><ele>743.0</ele><time>2017-03-04T20:38:03Z</time></trkpt>
<trkpt lat="47.30733" lon="11.048416"><ele>743.0</ele><time>2017-03-04T20:38:04Z</time></trkpt>
<trkpt lat="47.307294" lon="11.048018"><ele>741.0</ele><time>2017-03-04T20:38:07Z</time></trkpt>
<trkpt lat="47.307287" lon="11.04758"><ele>741.0</ele><time>2017-03-04T20:38:10Z</time></trkpt>
<trkpt lat="47.307351" lon="11.045922"><ele>747.0</ele><time>2017-03-04T20:38:20Z</time></trkpt>
<trkpt lat="47.307358" lon="11.04554"><ele>749.0</ele><time>2017-03-04T20:38:22Z</time></trkpt>
<trkpt lat="47.307336" lon="11.044868"><ele>757.0</ele><time>2017-03-04T20:38:27Z</time></trkpt>
<trkpt lat="47.307244" lon="11.04431"><ele>757.0</ele><time>2017-03-04T20:38:30Z</time></trkpt>
<trkpt lat="47.306344" lon="11.040747"><ele>771.0</ele><time>2017-03-04T20:38:54Z</time></trkpt>
<trkpt lat="47.306236" lon="11.04018"><ele>771.0</ele><time>2017-03-04T20:38:58Z</time></trkpt>
<trkpt lat="47.306181" lon="11.039725"><ele>776.0</ele><time>2017-03-04T20:39:01Z</time></trkpt>
<trkpt lat="47.306148" lon="11.039288"><ele>776.0</ele><time>2017-03-04T20:39:04Z</time></trkpt>
<trkpt lat="47.30615" lon="11.03887"><ele>774.0</ele><time>2017-03-04T20:39:06Z</time></trkpt>
<trkpt lat="47.30618" lon="11.038402"><ele>774.0</ele><time>2017-03-04T20:39:09Z</time></trkpt>
<trkpt lat="47.306282" lon="11.037699"><ele>774.0</ele><time>2017-03-04T20:39:14Z</time></trkpt>
<trkpt lat="47.306408" lon="11.03715"><ele>766.0</ele><time>2017-03-04T20:39:17Z</time></trkpt>
<trkpt lat="47.306937" lon="11.035098"><ele>785.0</ele><time>2017-03-04T20:39:31Z</time></trkpt>
<trkpt lat="47.307177" lon="11.034459"><ele>772.0</ele><time>2017-03-04T20:39:36Z</time></trkpt>
<trkpt lat="47.307644" lon="11.033505"><ele>785.0</ele><time>2017-03-04T20:39:43Z</time></trkpt>
<trkpt lat="47.307786" lon="11.033238"><ele>769.0</ele><time>2017-03-04T20:39:46Z</time></trkpt>
<trkpt lat="47.307928" lon="11.033022"><ele>769.0</ele><time>2017-03-04T20:39:48Z</time></trkpt>
<trkpt lat="47.308626" lon="11.032206"><ele>780.0</ele><time>2017-03-04T20:39:56Z</time></trkpt>
<trkpt lat="47.310352" lon="11.030082"><ele>796.0</ele><time>2017-03-04T20:40:17Z</time></trkpt>
<trkpt lat="47.310534" lon="11.029817"><ele>779.0</ele><time>2017-03-04T20:40:20Z</time></trkpt>
<trkpt lat="47.310701" lon="11.02948"><ele>779.0</ele><time>2017-03-04T20:40:22Z</time></trkpt>
<trkpt lat="47.310816" lon="11.029166"><ele>775.0</ele><time>2017-03-04T20:40:25Z</time></trkpt>
<trkpt lat="47.310891" lon="11.028842"><ele>786.0</ele><time>2017-03-04T20:40:27Z</time></trkpt>
<trkpt lat="47.310938" lon="11.028546"><ele>786.0</ele><time>2017-03-04T20:40:29Z</time></trkpt>
<trkpt lat="47.310973" lon="11.028181"><ele>783.0</ele><time>2017-03-04T20:40:31Z</time></trkpt>
<trkpt lat="47.311323" lon="11.022288"><ele>805.0</ele><time>2017-03-04T20:41:08Z</time></trkpt>
<trkpt lat="47.311422" lon="11.021515"><ele>803.0</ele><time>2017-03-04T20:41:13Z</time></trkpt>
<trkpt lat="47.311605" lon="11.020659"><ele>801.0</ele><time>2017-03-04T20:41:19Z</time></trkpt>
<trkpt lat="47.311713" lon="11.020271"><ele>823.0</ele><time>2017-03-04T20:41:22Z</time></trkpt>
<trkpt lat="47.312279" lon="11.018554"><ele>809.0</ele><time>2017-03-04T20:41:34Z</time></trkpt>
<trkpt lat="47.312436" lon="11.018038"><ele>803.0</ele><time>2017-03-04T20:41:38Z</time></trkpt>
<trkpt lat="47.312527" lon="11.017649"><ele>820.0</ele><time>2017-03-04T20:41:41Z</time></trkpt>
<trkpt lat="47.312591" lon="11.017231"><ele>819.0</ele><time>2017-03-04T20:41:43Z</time></trkpt>
<trkpt lat="47.31329" lon="11.009183"><ele>833.0</ele><time>2017-03-04T20:42:34Z</time></trkpt>
<trkpt lat="47.313334" lon="11.008491"><ele>849.0</ele><time>2017-03-04T20:42:39Z</time></trkpt>
<trkpt lat="47.313318" lon="11.007938"><ele>836.0</ele><time>2017-03-04T20:42:43Z</time></trkpt>
<trkpt lat="47.313283" lon="11.007588"><ele>836.0</ele><time>2017-03-04T20:42:45Z</time></trkpt>
<trkpt lat="47.313114" lon="11.0067"><ele>838.0</ele><time>2017-03-04T20:42:51Z</time></trkpt>
<trkpt lat="47.312935" lon="11.005839"><ele>843.0</ele><time>2017-03-04T20:42:56Z</time></trkpt>
<trkpt lat="47.312869" lon="11.005579"><ele>846.0</ele><time>2017-03-04T20:42:58Z</time></trkpt>
<trkpt lat="47.312769" lon="11.005289"><ele>846.0</ele><time>2017-03-04T20:43:00Z</time></trkpt>
<trkpt lat="47.311455" lon="11.002303"><ele>856.0</ele><time>2017-03-04T20:43:22Z</time></trkpt>
<trkpt lat="47.309568" lon="10.997763"><ele>860.0</ele><time>2017-03-04T20:43:56Z</time></trkpt>
<trkpt lat="47.309382" lon="10.997328"><ele>862.0</ele><time>2017-03-04T20:43:59Z</time></trkpt>
<trkpt lat="47.309229" lon="10.997042"><ele>862.0</ele><time>2017-03-04T20:44:01Z</time></trkpt>
<trkpt lat="47.30747" lon="10.994014"><ele>863.0</ele><time>2017-03-04T20:44:26Z</time></trkpt>
<trkpt lat="47.307251" lon="10.99348"><ele>863.0</ele><time>2017-03-04T20:44:30Z</time></trkpt>
<trkpt lat="47.306795" lon="10.992046"><ele>868.0</ele><time>2017-03-04T20:44:40Z</time></trkpt>
<trkpt lat="47.306554" lon="10.991475"><ele>866.0</ele><time>2017-03-04T20:44:44Z</time></trkpt>
<trkpt lat="47.306157" lon="10.990765"><ele>868.0</ele><time>2017-03-04T20:44:50Z</time></trkpt>
<trkpt lat="47.305521" lon="10.989771"><ele>868.0</ele><time>2017-03-04T20:44:59Z</time></trkpt>
<trkpt lat="47.30532" lon="10.989422"><ele>868.0</ele><time>2017-03-04T20:45:02Z</time></trkpt>
<trkpt lat="47.305111" lon="10.988984"><ele>870.0</ele><time>2017-03-04T20:45:05Z</time></trkpt>
<trkpt lat="47.304972" lon="10.98861"><ele>866.0</ele><time>2017-03-04T20:45:08Z</time></trkpt>
<trkpt lat="47.304869" lon="10.988216"><ele>869.0</ele><time>2017-03-04T20:45:10Z</time></trkpt>
<trkpt lat="47.304805" lon="10.987856"><ele>869.0</ele><time>2017-03-04T20:45:13Z</time></trkpt>
<trkpt lat="47.304461" lon="10.984986"><ele>871.0</ele><time>2017-03-04T20:45:31Z</time></trkpt>
<trkpt lat="47.304431" lon="10.984138"><ele>869.0</ele><time>2017-03-04T20:45:36Z</time></trkpt>
<trkpt lat="47.304484" lon="10.983508"><ele>869.0</ele><time>2017-03-04T20:45:40Z</time></trkpt>
<trkpt lat="47.304593" lon="10.982964"><ele>867.0</ele><time>2017-03-04T20:45:44Z</time></trkpt>
<trkpt lat="47.30474" lon="10.98247"><ele>872.0</ele><time>2017-03-04T20:45:47Z</time></trkpt>
<trkpt lat="47.304887" lon="10.982031"><ele>872.0</ele><time>2017-03-04T20:45:50Z</time></trkpt>
<trkpt lat="47.305657" lon="10.979962"><ele>878.0</ele><time>2017-03-04T20:46:05Z</time></trkpt>
<trkpt lat="47.305794" lon="10.979523"><ele>878.0</ele><time>2017-03-04T20:46:08Z</time></trkpt>
<trkpt lat="47.305861" lon="10.979187"><ele>881.0</ele><time>2017-03-04T20:46:10Z</time></trkpt>
<trkpt lat="47.305903" lon="10.978876"><ele>880.0</ele><time>2017-03-04T20:46:12Z</time></trkpt>
<trkpt lat="47.30592" lon="10.978603"><ele>880.0</ele><time>2017-03-04T20:46:14Z</time></trkpt>
<trkpt lat="47.305886" lon="10.97771"><ele>880.0</ele><time>2017-03-04T20:46:20Z</time></trkpt>
<trkpt lat="47.305718" lon="10.974871"><ele>879.0</ele><time>2017-03-04T20:46:38Z</time></trkpt>
<trkpt lat="47.305663" lon="10.974372"><ele>879.0</ele><time>2017-03-04T20:46:41Z</time></trkpt>
<trkpt lat="47.305583" lon="10.973846"><ele>880.0</ele><time>2017-03-04T20:46:44Z</time></trkpt>
<trkpt lat="47.305474" lon="10.973279"><ele>885.0</ele><time>2017-03-04T20:46:48Z</time></trkpt>
<trkpt lat="47.305384" lon="10.972912"><ele>885.0</ele><time>2017-03-04T20:46:50Z</time></trkpt>
<trkpt lat="47.30521" lon="10.972292"><ele>885.0</ele><time>2017-03-04T20:46:55Z</time></trkpt>
<trkpt lat="47.304907" lon="10.971333"><ele>878.0</ele><time>2017-03-04T20:47:01Z</time></trkpt>
<trkpt lat="47.304759" lon="10.970799"><ele>875.0</ele><time>2017-03-04T20:47:05Z</time></trkpt>
<trkpt lat="47.304696" lon="10.970474"><ele>875.0</ele><time>2017-03-04T20:47:07Z</time></trkpt>
<trkpt lat="47.304653" lon="10.970146"><ele>875.0</ele><time>2017-03-04T20:47:09Z</time></trkpt>
<trkpt lat="47.304622" lon="10.969707"><ele>872.0</ele><time>2017-03-04T20:47:12Z</time></trkpt>
<trkpt lat="47.304627" lon="10.969195"><ele>872.0</ele><time>2017-03-04T20:47:15Z</time></trkpt>
<trkpt lat="47.304676" lon="10.968618"><ele>876.0</ele><time>2017-03-04T20:47:19Z</time></trkpt>
<trkpt lat="47.304729" lon="10.968231"><ele>877.0</ele><time>2017-03-04T20:47:21Z</time></trkpt>
<trkpt lat="47.304911" lon="10.967462"><ele>879.0</ele><time>2017-03-04T20:47:26Z</time></trkpt>
<trkpt lat="47.305025" lon="10.966415"><ele>882.0</ele><time>2017-03-04T20:47:33Z</time></trkpt>
<trkpt lat="47.305062" lon="10.965977"><ele>882.0</ele><time>2017-03-04T20:47:36Z</time></trkpt>
<trkpt lat="47.305071" lon="10.965663"><ele>881.0</ele><time>2017-03-04T20:47:38Z</time></trkpt>
<trkpt lat="47.30505" lon="10.965176"><ele>881.0</ele><time>2017-03-04T20:47:41Z</time></trkpt>
<trkpt lat="47.304992" lon="10.964819"><ele>876.0</ele><time>2017-03-04T20:47:43Z</time></trkpt>
<trkpt lat="47.304732" lon="10.964007"><ele>876.0</ele><time>2017-03-04T20:47:49Z</time></trkpt>
<trkpt lat="47.3043" lon="10.962991"><ele>876.0</ele><time>2017-03-04T20:47:56Z</time></trkpt>
<trkpt lat="47.303884" lon="10.962064"><ele>877.0</ele><time>2017-03-04T20:48:03Z</time></trkpt>
<trkpt lat="47.303813" lon="10.96195"><ele>877.0</ele><time>2017-03-04T20:48:04Z</time></trkpt>
<trkpt lat="47.303745" lon="10.96186"><ele>877.0</ele><time>2017-03-04T20:48:08Z</time></trkpt>
<trkpt lat="47.303764" lon="10.961787"><ele>877.0</ele><time>2017-03-04T20:48:09Z</time></trkpt>
<trkpt lat="47.303749" lon="10.961667"><ele>877.0</ele><time>2017-03-04T20:48:09Z</time></trkpt>
<trkpt lat="47.30371" lon="10.961602"><ele>876.0</ele><time>2017-03-04T20:48:10Z</time></trkpt>
<trkpt lat="47.303669" lon="10.961573"><ele>876.0</ele><time>2017-03-04T20:48:10Z</time></trkpt>
<trkpt lat="47.303559" lon="10.961601"><ele>876.0</ele><time>2017-03-04T20:48:11Z</time></trkpt>
<trkpt lat="47.303225" lon="10.960988"><ele>879.0</ele><time>2017-03-04T20:48:15Z</time></trkpt>
<trkpt lat="47.303073" lon="10.960763"><ele>882.0</ele><time>2017-03-04T20:48:17Z</time></trkpt>
<trkpt lat="47.30254" lon="10.960112"><ele>882.0</ele><time>2017-03-04T20:48:22Z</time></trkpt>
<trkpt lat="47.302353" lon="10.959799"><ele>886.0</ele><time>2017-03-04T20:48:24Z</time></trkpt>
<trkpt lat="47.302279" lon="10.959635"><ele>886.0</ele><time>2017-03-04T20:48:26Z</time></trkpt>
<trkpt lat="47.302089" lon="10.959115"><ele>891.0</ele><time>2017-03-04T20:48:29Z</time></trkpt>
<trkpt lat="47.301705" lon="10.957483"><ele>890.0</ele><time>2017-03-04T20:48:38Z</time></trkpt>
<trkpt lat="47.301581" lon="10.957087"><ele>885.0</ele><time>2017-03-04T20:48:40Z</time></trkpt>
<trkpt lat="47.301203" lon="10.956014"><ele>887.0</ele><time>2017-03-04T20:48:46Z</time></trkpt>
<trkpt lat="47.3011" lon="10.955609"><ele>890.0</ele><time>2017-03-04T20:48:49Z</time></trkpt>
<trkpt lat="47.30073" lon="10.953288"><ele>900.0</ele><time>2017-03-04T20:49:01Z</time></trkpt>
<trkpt lat="47.300551" lon="10.952266"><ele>909.0</ele><time>2017-03-04T20:49:07Z</time></trkpt>
<trkpt lat="47.300376" lon="10.951062"><ele>917.0</ele><time>2017-03-04T20:49:13Z</time></trkpt>
<trkpt lat="47.300355" lon="10.950769"><ele>920.0</ele><time>2017-03-04T20:49:15Z</time></trkpt>
<trkpt lat="47.300311" lon="10.948828"><ele>925.0</ele><time>2017-03-04T20:49:25Z</time></trkpt>
<trkpt lat="47.300265" lon="10.948241"><ele>935.0</ele><time>2017-03-04T20:49:28Z</time></trkpt>
<trkpt lat="47.300196" lon="10.947945"><ele>935.0</ele><time>2017-03-04T20:49:30Z</time></trkpt>
<trkpt lat="47.300109" lon="10.947721"><ele>935.0</ele><time>2017-03-04T20:49:31Z</time></trkpt>
<trkpt lat="47.299888" lon="10.947278"><ele>936.0</ele><time>2017-03-04T20:49:34Z</time></trkpt>
<trkpt lat="47.299276" lon="10.946198"><ele>937.0</ele><time>2017-03-04T20:49:41Z</time></trkpt>
<trkpt lat="47.299157" lon="10.945963"><ele>928.0</ele><time>2017-03-04T20:49:43Z</time></trkpt>
<trkpt lat="47.299053" lon="10.945654"><ele>940.0</ele><time>2017-03-04T20:49:45Z</time></trkpt>
<trkpt lat="47.298963" lon="10.94526"><ele>940.0</ele><time>2017-03-04T20:49:47Z</time></trkpt>
<trkpt lat="47.29886" lon="10.944961"><ele>951.0</ele><time>2017-03-04T20:49:49Z</time></trkpt>
<trkpt lat="47.298566" lon="10.944237"><ele>951.0</ele><time>2017-03-04T20:49:54Z</time></trkpt>
<trkpt lat="47.298522" lon="10.944071"><ele>955.0</ele><time>2017-03-04T20:49:55Z</time></trkpt>
<trkpt lat="47.298496" lon="10.943819"><ele>955.0</ele><time>2017-03-04T20:49:56Z</time></trkpt>
<trkpt lat="47.298486" lon="10.942722"><ele>961.0</ele><time>2017-03-04T20:50:02Z</time></trkpt>
<trkpt lat="47.298419" lon="10.941669"><ele>965.0</ele><time>2017-03-04T20:50:07Z</time></trkpt>
<trkpt lat="47.298416" lon="10.94118"><ele>967.0</ele><time>2017-03-04T20:50:10Z</time></trkpt>
<trkpt lat="47.29844" lon="10.940786"><ele>977.0</ele><time>2017-03-04T20:50:12Z</time></trkpt>
<trkpt lat="47.298532" lon="10.940213"><ele>977.0</ele><time>2017-03-04T20:50:15Z</time></trkpt>
<trkpt lat="47.298594" lon="10.939683"><ele>983.0</ele><time>2017-03-04T20:50:18Z</time></trkpt>
<trkpt lat="47.298561" lon="10.939237"><ele>983.0</ele><time>2017-03-04T20:50:20Z</time></trkpt>
<trkpt lat="47.298572" lon="10.938914"><ele>984.0</ele><time>2017-03-04T20:50:22Z</time></trkpt>
<trkpt lat="47.298794" lon="10.937516"><ele>982.0</ele><time>2017-03-04T20:50:30Z</time></trkpt>
<trkpt lat="47.298992" lon="10.935916"><ele>980.0</ele><time>2017-03-04T20:50:38Z</time></trkpt>
<trkpt lat="47.299013" lon="10.935474"><ele>976.0</ele><time>2017-03-04T20:50:40Z</time></trkpt>
<trkpt lat="47.298948" lon="10.933664"><ele>978.0</ele><time>2017-03-04T20:50:50Z</time></trkpt>
<trkpt lat="47.298922" lon="10.933264"><ele>980.0</ele><time>2017-03-04T20:50:52Z</time></trkpt>
<trkpt lat="47.298814" lon="10.932502"><ele>980.0</ele><time>2017-03-04T20:50:56Z</time></trkpt>
<trkpt lat="47.298724" lon="10.932099"><ele>983.0</ele><time>2017-03-04T20:50:58Z</time></trkpt>
<trkpt lat="47.298357" lon="10.930908"><ele>984.0</ele><time>2017-03-04T20:51:05Z</time></trkpt>
<trkpt lat="47.298154" lon="10.930191"><ele>986.0</ele><time>2017-03-04T20:51:09Z</time></trkpt>
<trkpt lat="47.298076" lon="10.929762"><ele>988.0</ele><time>2017-03-04T20:51:12Z</time></trkpt>
<trkpt lat="47.298043" lon="10.929563"><ele>988.0</ele><time>2017-03-04T20:51:13Z</time></trkpt>
<trkpt lat="47.297995" lon="10.929086"><ele>992.0</ele><time>2017-03-04T20:51:15Z</time></trkpt>
<trkpt lat="47.297983" lon="10.928809"><ele>992.0</ele><time>2017-03-04T20:51:17Z</time></trkpt>
<trkpt lat="47.297999" lon="10.928087"><ele>991.0</ele><time>2017-03-04T20:51:21Z</time></trkpt>
<trkpt lat="47.298056" lon="10.927341"><ele>992.0</ele><time>2017-03-04T20:51:24Z</time></trkpt>
<trkpt lat="47.29811" lon="10.926855"><ele>992.0</ele><time>2017-03-04T20:51:27Z</time></trkpt>
<trkpt lat="47.298211" lon="10.926176"><ele>993.0</ele><time>2017-03-04T20:51:31Z</time></trkpt>
<trkpt lat="47.298347" lon="10.925484"><ele>998.0</ele><time>2017-03-04T20:51:35Z</time></trkpt>
<trkpt lat="47.298459" lon="10.925062"><ele>998.0</ele><time>2017-03-04T20:51:37Z</time></trkpt>
<trkpt lat="47.298712" lon="10.924281"><ele>995.0</ele><time>2017-03-04T20:51:41Z</time></trkpt>
<trkpt lat="47.298866" lon="10.923888"><ele>996.0</ele><time>2017-03-04T20:51:44Z</time></trkpt>
<trkpt lat="47.299243" lon="10.923016"><ele>1003.0</ele><time>2017-03-04T20:51:49Z</time></trkpt>
<trkpt lat="47.299643" lon="10.921962"><ele>1003.0</ele><time>2017-03-04T20:51:56Z</time></trkpt>
<trkpt lat="47.299839" lon="10.921306"><ele>1002.0</ele><time>2017-03-04T20:51:59Z</time></trkpt>
<trkpt lat="47.299961" lon="10.92078"><ele>1003.0</ele><time>2017-03-04T20:52:02Z</time></trkpt>
<trkpt lat="47.300107" lon="10.919768"><ele>1007.0</ele><time>2017-03-04T20:52:08Z</time></trkpt>
<trkpt lat="47.300396" lon="10.91699"><ele>1018.0</ele><time>2017-03-04T20:52:22Z</time></trkpt>
<trkpt lat="47.300472" lon="10.915772"><ele>1022.0</ele><time>2017-03-04T20:52:29Z</time></trkpt>
<trkpt lat="47.300486" lon="10.915048"><ele>1022.0</ele><time>2017-03-04T20:52:33Z</time></trkpt>
<trkpt lat="47.300455" lon="10.914332"><ele>1022.0</ele><time>2017-03-04T20:52:36Z</time></trkpt>
<trkpt lat="47.300388" lon="10.913792"><ele>1026.0</ele><time>2017-03-04T20:52:39Z</time></trkpt>
<trkpt lat="47.300261" lon="10.913197"><ele>1028.0</ele><time>2017-03-04T20:52:43Z</time></trkpt>
<trkpt lat="47.300075" lon="10.912563"><ele>1028.0</ele><time>2017-03-04T20:52:46Z</time></trkpt>
<trkpt lat="47.300035" lon="10.91228"><ele>1034.0</ele><time>2017-03-04T20:52:48Z</time></trkpt>
<trkpt lat="47.300015" lon="10.91198"><ele>1034.0</ele><time>2017-03-04T20:52:49Z</time></trkpt>
<trkpt lat="47.300017" lon="10.911418"><ele>1038.0</ele><time>2017-03-04T20:52:52Z</time></trkpt>
<trkpt lat="47.299979" lon="10.910574"><ele>1041.0</ele><time>2017-03-04T20:52:57Z</time></trkpt>
<trkpt lat="47.299987" lon="10.910172"><ele>1041.0</ele><time>2017-03-04T20:52:59Z</time></trkpt>
<trkpt lat="47.300075" lon="10.909511"><ele>1050.0</ele><time>2017-03-04T20:53:03Z</time></trkpt>
<trkpt lat="47.300203" lon="10.908911"><ele>1053.0</ele><time>2017-03-04T20:53:06Z</time></trkpt>
<trkpt lat="47.300324" lon="10.908569"><ele>1053.0</ele><time>2017-03-04T20:53:08Z</time></trkpt>
<trkpt lat="47.300514" lon="10.908178"><ele>1057.0</ele><time>2017-03-04T20:53:10Z</time></trkpt>
<trkpt lat="47.300721" lon="10.907785"><ele>1057.0</ele><time>2017-03-04T20:53:13Z</time></trkpt>
<trkpt lat="47.301188" lon="10.906988"><ele>1063.0</ele><time>2017-03-04T20:53:19Z</time></trkpt>
<trkpt lat="47.301273" lon="10.906778"><ele>1063.0</ele><time>2017-03-04T20:53:20Z</time></trkpt>
<trkpt lat="47.301821" lon="10.904865"><ele>1084.0</ele><time>2017-03-04T20:53:31Z</time></trkpt>
<trkpt lat="47.301846" lon="10.904711"><ele>1084.0</ele><time>2017-03-04T20:53:32Z</time></trkpt>
<trkpt lat="47.30196" lon="10.903453"><ele>1088.0</ele><time>2017-03-04T20:53:38Z</time></trkpt>
<trkpt lat="47.302068" lon="10.90285"><ele>1090.0</ele><time>2017-03-04T20:53:42Z</time></trkpt>
<trkpt lat="47.302201" lon="10.902376"><ele>1093.0</ele><time>2017-03-04T20:53:44Z</time></trkpt>
<trkpt lat="47.302298" lon="10.902111"><ele>1093.0</ele><time>2017-03-04T20:53:46Z</time></trkpt>
<trkpt lat="47.302439" lon="10.901819"><ele>1093.0</ele><time>2017-03-04T20:53:48Z</time></trkpt>
<trkpt lat="47.303172" lon="10.900513"><ele>1099.0</ele><time>2017-03-04T20:53:57Z</time></trkpt>
<trkpt lat="47.303673" lon="10.89938"><ele>1108.0</ele><time>2017-03-04T20:54:04Z</time></trkpt>
<trkpt lat="47.303802" lon="10.89901"><ele>1112.0</ele><time>2017-03-04T20:54:06Z</time></trkpt>
<trkpt lat="47.303852" lon="10.898785"><ele>1112.0</ele><time>2017-03-04T20:54:07Z</time></trkpt>
<trkpt lat="47.30393" lon="10.898188"><ele>1115.0</ele><time>2017-03-04T20:54:10Z</time></trkpt>
<trkpt lat="47.304022" lon="10.897731"><ele>1115.0</ele><time>2017-03-04T20:54:13Z</time></trkpt>
<trkpt lat="47.304157" lon="10.897313"><ele>1114.0</ele><time>2017-03-04T20:54:15Z</time></trkpt>
<trkpt lat="47.304499" lon="10.896542"><ele>1122.0</ele><time>2017-03-04T20:54:20Z</time></trkpt>
<trkpt lat="47.304598" lon="10.896281"><ele>1122.0</ele><time>2017-03-04T20:54:22Z</time></trkpt>
<trkpt lat="47.304927" lon="10.895382"><ele>1119.0</ele><time>2017-03-04T20:54:27Z</time></trkpt>
<trkpt lat="47.304986" lon="10.895181"><ele>1119.0</ele><time>2017-03-04T20:54:28Z</time></trkpt>
<trkpt lat="47.305055" lon="10.894888"><ele>1129.0</ele><time>2017-03-04T20:54:30Z</time></trkpt>
<trkpt lat="47.305648" lon="10.8918"><ele>1119.0</ele><time>2017-03-04T20:54:47Z</time></trkpt>
<trkpt lat="47.305793" lon="10.891176"><ele>1120.0</ele><time>2017-03-04T20:54:50Z</time></trkpt>
<trkpt lat="47.305924" lon="10.890734"><ele>1123.0</ele><time>2017-03-04T20:54:53Z</time></trkpt>
<trkpt lat="47.306039" lon="10.890452"><ele>1123.0</ele><time>2017-03-04T20:54:55Z</time></trkpt>
<trkpt lat="47.30622" lon="10.890114"><ele>1123.0</ele><time>2017-03-04T20:54:57Z</time></trkpt>
<trkpt lat="47.306692" lon="10.889396"><ele>1116.0</ele><time>2017-03-04T20:55:02Z</time></trkpt>
<trkpt lat="47.308111" lon="10.887458"><ele>1110.0</ele><time>2017-03-04T20:55:17Z</time></trkpt>
<trkpt lat="47.308295" lon="10.88711"><ele>1110.0</ele><time>2017-03-04T20:55:20Z</time></trkpt>
<trkpt lat="47.308419" lon="10.886722"><ele>1100.0</ele><time>2017-03-04T20:55:22Z</time></trkpt>
<trkpt lat="47.308634" lon="10.885895"><ele>1096.0</ele><time>2017-03-04T20:55:27Z</time></trkpt>
<trkpt lat="47.308694" lon="10.88552"><ele>1092.0</ele><time>2017-03-04T20:55:29Z</time></trkpt>
<trkpt lat="47.308708" lon="10.885206"><ele>1092.0</ele><time>2017-03-04T20:55:30Z</time></trkpt>
<trkpt lat="47.308698" lon="10.885013"><ele>1092.0</ele><time>2017-03-04T20:55:31Z</time></trkpt>
<trkpt lat="47.308461" lon="10.883671"><ele>1087.0</ele><time>2017-03-04T20:55:39Z</time></trkpt>
<trkpt lat="47.308401" lon="10.883186"><ele>1084.0</ele><time>2017-03-04T20:55:41Z</time></trkpt>
<trkpt lat="47.308334" lon="10.882424"><ele>1080.0</ele><time>2017-03-04T20:55:45Z</time></trkpt>
<trkpt lat="47.308315" lon="10.881405"><ele>1086.0</ele><time>2017-03-04T20:55:51Z</time></trkpt>
<trkpt lat="47.308336" lon="10.880795"><ele>1076.0</ele><time>2017-03-04T20:55:54Z</time></trkpt>
<trkpt lat="47.308445" lon="10.879242"><ele>1074.0</ele><time>2017-03-04T20:56:02Z</time></trkpt>
<trkpt lat="47.308447" lon="10.878752"><ele>1071.0</ele><time>2017-03-04T20:56:05Z</time></trkpt>
<trkpt lat="47.308433" lon="10.878177"><ele>1071.0</ele><time>2017-03-04T20:56:08Z</time></trkpt>
<trkpt lat="47.308373" lon="10.877554"><ele>1071.0</ele><time>2017-03-04T20:56:11Z</time></trkpt>
<trkpt lat="47.308274" lon="10.876823"><ele>1085.0</ele><time>2017-03-04T20:56:15Z</time></trkpt>
<trkpt lat="47.308135" lon="10.876211"><ele>1085.0</ele><time>2017-03-04T20:56:18Z</time></trkpt>
<trkpt lat="47.307981" lon="10.875664"><ele>1086.0</ele><time>2017-03-04T20:56:21Z</time></trkpt>
<trkpt lat="47.307761" lon="10.875016"><ele>1086.0</ele><time>2017-03-04T20:56:25Z</time></trkpt>
<trkpt lat="47.307507" lon="10.874427"><ele>1082.0</ele><time>2017-03-04T20:56:29Z</time></trkpt>
<trkpt lat="47.307112" lon="10.873586"><ele>1076.0</ele><time>2017-03-04T20:56:34Z</time></trkpt>
<trkpt lat="47.306676" lon="10.872722"><ele>1071.0</ele><time>2017-03-04T20:56:40Z</time></trkpt>
<trkpt lat="47.306442" lon="10.872143"><ele>1062.0</ele><time>2017-03-04T20:56:44Z</time></trkpt>
<trkpt lat="47.306243" lon="10.871429"><ele>1062.0</ele><time>2017-03-04T20:56:48Z</time></trkpt>
<trkpt lat="47.306081" lon="10.870603"><ele>1060.0</ele><time>2017-03-04T20:56:52Z</time></trkpt>
<trkpt lat="47.306025" lon="10.870155"><ele>1060.0</ele><time>2017-03-04T20:56:54Z</time></trkpt>
<trkpt lat="47.305984" lon="10.869634"><ele>1056.0</ele><time>2017-03-04T20:56:57Z</time></trkpt>
<trkpt lat="47.305974" lon="10.868981"><ele>1053.0</ele><time>2017-03-04T20:57:01Z</time></trkpt>
<trkpt lat="47.305997" lon="10.868434"><ele>1053.0</ele><time>2017-03-04T20:57:04Z</time></trkpt>
<trkpt lat="47.306056" lon="10.867902"><ele>1044.0</ele><time>2017-03-04T20:57:06Z</time></trkpt>
<trkpt lat="47.30612" lon="10.867473"><ele>1047.0</ele><time>2017-03-04T20:57:09Z</time></trkpt>
<trkpt lat="47.306239" lon="10.866922"><ele>1047.0</ele><time>2017-03-04T20:57:12Z</time></trkpt>
<trkpt lat="47.306397" lon="10.866365"><ele>1049.0</ele><time>2017-03-04T20:57:15Z</time></trkpt>
<trkpt lat="47.306632" lon="10.865719"><ele>1050.0</ele><time>2017-03-04T20:57:19Z</time></trkpt>
<trkpt lat="47.307036" lon="10.864804"><ele>1045.0</ele><time>2017-03-04T20:57:25Z</time></trkpt>
<trkpt lat="47.30797" lon="10.862776"><ele>1027.0</ele><time>2017-03-04T20:57:37Z</time></trkpt>
<trkpt lat="47.308184" lon="10.862248"><ele>1032.0</ele><time>2017-03-04T20:57:41Z</time></trkpt>
<trkpt lat="47.308319" lon="10.86187"><ele>1032.0</ele><time>2017-03-04T20:57:43Z</time></trkpt>
<trkpt lat="47.308392" lon="10.861465"><ele>1011.0</ele><time>2017-03-04T20:57:46Z</time></trkpt>
<trkpt lat="47.308401" lon="10.861048"><ele>1011.0</ele><time>2017-03-04T20:57:48Z</time></trkpt>
<trkpt lat="47.308338" lon="10.860632"><ele>1021.0</ele><time>2017-03-04T20:57:50Z</time></trkpt>
<trkpt lat="47.30826" lon="10.86038"><ele>1029.0</ele><time>2017-03-04T20:57:52Z</time></trkpt>
<trkpt lat="47.308173" lon="10.860182"><ele>1029.0</ele><time>2017-03-04T20:57:53Z</time></trkpt>
<trkpt lat="47.308056" lon="10.859994"><ele>1032.0</ele><time>2017-03-04T20:57:54Z</time></trkpt>
<trkpt lat="47.307902" lon="10.859827"><ele>1032.0</ele><time>2017-03-04T20:57:56Z</time></trkpt>
<trkpt lat="47.307697" lon="10.859672"><ele>1032.0</ele><time>2017-03-04T20:57:58Z</time></trkpt>
<trkpt lat="47.307572" lon="10.859612"><ele>1032.0</ele><time>2017-03-04T20:57:59Z</time></trkpt>
<trkpt lat="47.307305" lon="10.859544"><ele>1019.0</ele><time>2017-03-04T20:58:01Z</time></trkpt>
<trkpt lat="47.306579" lon="10.859528"><ele>1004.0</ele><time>2017-03-04T20:58:07Z</time></trkpt>
<trkpt lat="47.306096" lon="10.859488"><ele>1004.0</ele><time>2017-03-04T20:58:10Z</time></trkpt>
<trkpt lat="47.30544" lon="10.859358"><ele>1005.0</ele><time>2017-03-04T20:58:15Z</time></trkpt>
<trkpt lat="47.305052" lon="10.859225"><ele>1005.0</ele><time>2017-03-04T20:58:19Z</time></trkpt>
<trkpt lat="47.304442" lon="10.85895"><ele>987.0</ele><time>2017-03-04T20:58:24Z</time></trkpt>
<trkpt lat="47.30388" lon="10.858608"><ele>990.0</ele><time>2017-03-04T20:58:28Z</time></trkpt>
<trkpt lat="47.303215" lon="10.858165"><ele>972.0</ele><time>2017-03-04T20:58:34Z</time></trkpt>
<trkpt lat="47.302837" lon="10.857989"><ele>972.0</ele><time>2017-03-04T20:58:37Z</time></trkpt>
<trkpt lat="47.302552" lon="10.857938"><ele>972.0</ele><time>2017-03-04T20:58:39Z</time></trkpt>
<trkpt lat="47.30243" lon="10.857946"><ele>985.0</ele><time>2017-03-04T20:58:41Z</time></trkpt>
<trkpt lat="47.302162" lon="10.857978"><ele>985.0</ele><time>2017-03-04T20:58:43Z</time></trkpt>
<trkpt lat="47.301943" lon="10.85805"><ele>985.0</ele><time>2017-03-04T20:58:45Z</time></trkpt>
<trkpt lat="47.301755" lon="10.858158"><ele>985.0</ele><time>2017-03-04T20:58:46Z</time></trkpt>
<trkpt lat="47.301437" lon="10.858415"><ele>989.0</ele><time>2017-03-04T20:58:49Z</time></trkpt>
<trkpt lat="47.301137" lon="10.85862"><ele>989.0</ele><time>2017-03-04T20:58:51Z</time></trkpt>
<trkpt lat="47.301066" lon="10.858651"><ele>989.0</ele><time>2017-03-04T20:58:52Z</time></trkpt>
<trkpt lat="47.300906" lon="10.85866"><ele>989.0</ele><time>2017-03-04T20:58:53Z</time></trkpt>
<trkpt lat="47.300806" lon="10.858633"><ele>977.0</ele><time>2017-03-04T20:58:54Z</time></trkpt>
<trkpt lat="47.300653" lon="10.858526"><ele>977.0</ele><time>2017-03-04T20:58:56Z</time></trkpt>
<trkpt lat="47.300565" lon="10.858422"><ele>977.0</ele><time>2017-03-04T20:58:57Z</time></trkpt>
<trkpt lat="47.300486" lon="10.858236"><ele>969.0</ele><time>2017-03-04T20:58:58Z</time></trkpt>
<trkpt lat="47.300425" lon="10.857952"><ele>969.0</ele><time>2017-03-04T20:58:59Z</time></trkpt>
<trkpt lat="47.300425" lon="10.857823"><ele>969.0</ele><time>2017-03-04T20:59:00Z</time></trkpt>
<trkpt lat="47.300444" lon="10.857624"><ele>969.0</ele><time>2017-03-04T20:59:01Z</time></trkpt>
<trkpt lat="47.300498" lon="10.857446"><ele>962.0</ele><time>2017-03-04T20:59:02Z</time></trkpt>
<trkpt lat="47.300631" lon="10.857213"><ele>962.0</ele><time>2017-03-04T20:59:04Z</time></trkpt>
<trkpt lat="47.300732" lon="10.857126"><ele>962.0</ele><time>2017-03-04T20:59:05Z</time></trkpt>
<trkpt lat="47.300872" lon="10.857061"><ele>963.0</ele><time>2017-03-04T20:59:06Z</time></trkpt>
<trkpt lat="47.30144" lon="10.856919"><ele>963.0</ele><time>2017-03-04T20:59:10Z</time></trkpt>
<trkpt lat="47.301942" lon="10.856623"><ele>944.0</ele><time>2017-03-04T20:59:15Z</time></trkpt>
<trkpt lat="47.302263" lon="10.856462"><ele>944.0</ele><time>2017-03-04T20:59:17Z</time></trkpt>
<trkpt lat="47.302711" lon="10.85633"><ele>937.0</ele><time>2017-03-04T20:59:21Z</time></trkpt>
<trkpt lat="47.302958" lon="10.856302"><ele>937.0</ele><time>2017-03-04T20:59:23Z</time></trkpt>
<trkpt lat="47.303227" lon="10.856295"><ele>937.0</ele><time>2017-03-04T20:59:25Z</time></trkpt>
<trkpt lat="47.30374" lon="10.856399"><ele>927.0</ele><time>2017-03-04T20:59:29Z</time></trkpt>
<trkpt lat="47.304179" lon="10.856571"><ele>927.0</ele><time>2017-03-04T20:59:33Z</time></trkpt>
<trkpt lat="47.304392" lon="10.856706"><ele>940.0</ele><time>2017-03-04T20:59:35Z</time></trkpt>
<trkpt lat="47.305251" lon="10.857365"><ele>936.0</ele><time>2017-03-04T20:59:42Z</time></trkpt>
<trkpt lat="47.305473" lon="10.857458"><ele>936.0</ele><time>2017-03-04T20:59:44Z</time></trkpt>
<trkpt lat="47.30566" lon="10.857434"><ele>936.0</ele><time>2017-03-04T20:59:45Z</time></trkpt>
<trkpt lat="47.305773" lon="10.857381"><ele>936.0</ele><time>2017-03-04T20:59:46Z</time></trkpt>
<trkpt lat="47.305941" lon="10.857185"><ele>939.0</ele><time>2017-03-04T20:59:48Z</time></trkpt>
<trkpt lat="47.306031" lon="10.856963"><ele>939.0</ele><time>2017-03-04T20:59:49Z</time></trkpt>
<trkpt lat="47.306062" lon="10.856802"><ele>939.0</ele><time>2017-03-04T20:59:50Z</time></trkpt>
<trkpt lat="47.306071" lon="10.856614"><ele>916.0</ele><time>2017-03-04T20:59:52Z</time></trkpt>
<trkpt lat="47.306037" lon="10.856391"><ele>916.0</ele><time>2017-03-04T20:59:53Z</time></trkpt>
<trkpt lat="47.305991" lon="10.856244"><ele>916.0</ele><time>2017-03-04T20:59:54Z</time></trkpt>
<trkpt lat="47.305877" lon="10.856061"><ele>916.0</ele><time>2017-03-04T20:59:55Z</time></trkpt>
<trkpt lat="47.305792" lon="10.855971"><ele>926.0</ele><time>2017-03-04T20:59:56Z</time></trkpt>
<trkpt lat="47.305583" lon="10.855861"><ele>926.0</ele><time>2017-03-04T20:59:58Z</time></trkpt>
<trkpt lat="47.304121" lon="10.855616"><ele>910.0</ele><time>2017-03-04T21:00:10Z</time></trkpt>
<trkpt lat="47.303569" lon="10.855466"><ele>910.0</ele><time>2017-03-04T21:00:14Z</time></trkpt>
<trkpt lat="47.303174" lon="10.85532"><ele>912.0</ele><time>2017-03-04T21:00:17Z</time></trkpt>
<trkpt lat="47.302575" lon="10.855025"><ele>912.0</ele><time>2017-03-04T21:00:22Z</time></trkpt>
<trkpt lat="47.302391" lon="10.854909"><ele>897.0</ele><time>2017-03-04T21:00:24Z</time></trkpt>
<trkpt lat="47.301937" lon="10.854604"><ele>897.0</ele><time>2017-03-04T21:00:28Z</time></trkpt>
<trkpt lat="47.301229" lon="10.85406"><ele>895.0</ele><time>2017-03-04T21:00:34Z</time></trkpt>
<trkpt lat="47.296721" lon="10.850496"><ele>840.0</ele><time>2017-03-04T21:01:14Z</time></trkpt>
<trkpt lat="47.296268" lon="10.850103"><ele>858.0</ele><time>2017-03-04T21:01:18Z</time></trkpt>
<trkpt lat="47.295818" lon="10.849661"><ele>855.0</ele><time>2017-03-04T21:01:22Z</time></trkpt>
<trkpt lat="47.295617" lon="10.8494"><ele>855.0</ele><time>2017-03-04T21:01:24Z</time></trkpt>
<trkpt lat="47.295353" lon="10.848973"><ele>848.0</ele><time>2017-03-04T21:01:27Z</time></trkpt>
<trkpt lat="47.295152" lon="10.848588"><ele>848.0</ele><time>2017-03-04T21:01:30Z</time></trkpt>
<trkpt lat="47.294955" lon="10.848098"><ele>851.0</ele><time>2017-03-04T21:01:33Z</time></trkpt>
<trkpt lat="47.294837" lon="10.847728"><ele>851.0</ele><time>2017-03-04T21:01:35Z</time></trkpt>
<trkpt lat="47.294726" lon="10.847312"><ele>847.0</ele><time>2017-03-04T21:01:37Z</time></trkpt>
<trkpt lat="47.294407" lon="10.84583"><ele>830.0</ele><time>2017-03-04T21:01:46Z</time></trkpt>
<trkpt lat="47.294261" lon="10.845331"><ele>830.0</ele><time>2017-03-04T21:01:48Z</time></trkpt>
<trkpt lat="47.29407" lon="10.844845"><ele>832.0</ele><time>2017-03-04T21:01:51Z</time></trkpt>
<trkpt lat="47.293924" lon="10.844554"><ele>832.0</ele><time>2017-03-04T21:01:53Z</time></trkpt>
<trkpt lat="47.293663" lon="10.844155"><ele>826.0</ele><time>2017-03-04T21:01:56Z</time></trkpt>
<trkpt lat="47.293475" lon="10.843929"><ele>826.0</ele><time>2017-03-04T21:01:58Z</time></trkpt>
<trkpt lat="47.293139" lon="10.843605"><ele>827.0</ele><time>2017-03-04T21:02:01Z</time></trkpt>
<trkpt lat="47.292609" lon="10.843178"><ele>821.0</ele><time>2017-03-04T21:02:06Z</time></trkpt>
<trkpt lat="47.292461" lon="10.843025"><ele>819.0</ele><time>2017-03-04T21:02:07Z</time></trkpt>
<trkpt lat="47.292313" lon="10.842836"><ele>819.0</ele><time>2017-03-04T21:02:09Z</time></trkpt>
<trkpt lat="47.292198" lon="10.842625"><ele>819.0</ele><time>2017-03-04T21:02:10Z</time></trkpt>
<trkpt lat="47.292114" lon="10.84235"><ele>814.0</ele><time>2017-03-04T21:02:12Z</time></trkpt>
<trkpt lat="47.292075" lon="10.842138"><ele>814.0</ele><time>2017-03-04T21:02:13Z</time></trkpt>
<trkpt lat="47.292085" lon="10.841782"><ele>814.0</ele><time>2017-03-04T21:02:15Z</time></trkpt>
<trkpt lat="47.292149" lon="10.841492"><ele>807.0</ele><time>2017-03-04T21:02:17Z</time></trkpt>
<trkpt lat="47.292209" lon="10.841344"><ele>807.0</ele><time>2017-03-04T21:02:17Z</time></trkpt>
<trkpt lat="47.292322" lon="10.84114"><ele>807.0</ele><time>2017-03-04T21:02:19Z</time></trkpt>
<trkpt lat="47.292519" lon="10.840928"><ele>807.0</ele><time>2017-03-04T21:02:21Z</time></trkpt>
<trkpt lat="47.292545" lon="10.840913"><ele>807.0</ele><time>2017-03-04T21:02:26Z</time></trkpt>
<trkpt lat="47.292545" lon="10.840913"><ele>807.0</ele><time>2017-03-04T21:02:26Z</time></trkpt>
<trkpt lat="47.292659" lon="10.840846"><ele>807.0</ele><time>2017-03-04T21:02:27Z</time></trkpt>
<trkpt lat="47.292818" lon="10.840808"><ele>805.0</ele><time>2017-03-04T21:02:28Z</time></trkpt>
<trkpt lat="47.293088" lon="10.840842"><ele>807.0</ele><time>2017-03-04T21:02:29Z</time></trkpt>
<trkpt lat="47.293241" lon="10.840909"><ele>807.0</ele><time>2017-03-04T21:02:30Z</time></trkpt>
<trkpt lat="47.293425" lon="10.841035"><ele>807.0</ele><time>2017-03-04T21:02:32Z</time></trkpt>
<trkpt lat="47.294329" lon="10.841771"><ele>814.0</ele><time>2017-03-04T21:02:39Z</time></trkpt>
<trkpt lat="47.295132" lon="10.842389"><ele>814.0</ele><time>2017-03-04T21:02:44Z</time></trkpt>
<trkpt lat="47.296227" lon="10.843036"><ele>814.0</ele><time>2017-03-04T21:02:52Z</time></trkpt>
<trkpt lat="47.297021" lon="10.843405"><ele>813.0</ele><time>2017-03-04T21:02:58Z</time></trkpt>
<trkpt lat="47.29733" lon="10.843519"><ele>813.0</ele><time>2017-03-04T21:03:00Z</time></trkpt>
<trkpt lat="47.29806" lon="10.843739"><ele>814.0</ele><time>2017-03-04T21:03:05Z</time></trkpt>
<trkpt lat="47.298711" lon="10.843885"><ele>814.0</ele><time>2017-03-04T21:03:09Z</time></trkpt>
<trkpt lat="47.299096" lon="10.84395"><ele>814.0</ele><time>2017-03-04T21:03:12Z</time></trkpt>
<trkpt lat="47.299736" lon="10.843997"><ele>813.0</ele><time>2017-03-04T21:03:16Z</time></trkpt>
<trkpt lat="47.300368" lon="10.843999"><ele>814.0</ele><time>2017-03-04T21:03:20Z</time></trkpt>
<trkpt lat="47.301061" lon="10.843948"><ele>816.0</ele><time>2017-03-04T21:03:24Z</time></trkpt>
<trkpt lat="47.30157" lon="10.843864"><ele>816.0</ele><time>2017-03-04T21:03:28Z</time></trkpt>
<trkpt lat="47.302117" lon="10.843697"><ele>820.0</ele><time>2017-03-04T21:03:32Z</time></trkpt>
<trkpt lat="47.302757" lon="10.843396"><ele>821.0</ele><time>2017-03-04T21:03:36Z</time></trkpt>
<trkpt lat="47.303096" lon="10.843187"><ele>821.0</ele><time>2017-03-04T21:03:38Z</time></trkpt>
<trkpt lat="47.303532" lon="10.842875"><ele>822.0</ele><time>2017-03-04T21:03:42Z</time></trkpt>
<trkpt lat="47.303814" lon="10.842644"><ele>822.0</ele><time>2017-03-04T21:03:44Z</time></trkpt>
<trkpt lat="47.304209" lon="10.842268"><ele>824.0</ele><time>2017-03-04T21:03:47Z</time></trkpt>
<trkpt lat="47.304469" lon="10.841985"><ele>824.0</ele><time>2017-03-04T21:03:49Z</time></trkpt>
<trkpt lat="47.304703" lon="10.84169"><ele>824.0</ele><time>2017-03-04T21:03:51Z</time></trkpt>
<trkpt lat="47.304957" lon="10.841355"><ele>824.0</ele><time>2017-03-04T21:03:53Z</time></trkpt>
<trkpt lat="47.305347" lon="10.840736"><ele>824.0</ele><time>2017-03-04T21:03:57Z</time></trkpt>
<trkpt lat="47.305655" lon="10.840159"><ele>824.0</ele><time>2017-03-04T21:04:00Z</time></trkpt>
<trkpt lat="47.305962" lon="10.839489"><ele>825.0</ele><time>2017-03-04T21:04:04Z</time></trkpt>
<trkpt lat="47.306434" lon="10.838325"><ele>886.0</ele><time>2017-03-04T21:04:11Z</time></trkpt>
<trkpt lat="47.306688" lon="10.837769"><ele>891.0</ele><time>2017-03-04T21:04:14Z</time></trkpt>
<trkpt lat="47.306937" lon="10.837335"><ele>941.0</ele><time>2017-03-04T21:04:18Z</time></trkpt>
<trkpt lat="47.307494" lon="10.836647"><ele>979.0</ele><time>2017-03-04T21:04:23Z</time></trkpt>
<trkpt lat="47.308184" lon="10.836053"><ele>958.0</ele><time>2017-03-04T21:04:28Z</time></trkpt>
<trkpt lat="47.308977" lon="10.835695"><ele>943.0</ele><time>2017-03-04T21:04:34Z</time></trkpt>
<trkpt lat="47.31023" lon="10.835405"><ele>844.0</ele><time>2017-03-04T21:04:44Z</time></trkpt>
<trkpt lat="47.310437" lon="10.835321"><ele>844.0</ele><time>2017-03-04T21:04:45Z</time></trkpt>
<trkpt lat="47.310818" lon="10.835105"><ele>844.0</ele><time>2017-03-04T21:04:48Z</time></trkpt>
<trkpt lat="47.310999" lon="10.834976"><ele>843.0</ele><time>2017-03-04T21:04:49Z</time></trkpt>
<trkpt lat="47.311211" lon="10.834793"><ele>843.0</ele><time>2017-03-04T21:04:51Z</time></trkpt>
<trkpt lat="47.311446" lon="10.834548"><ele>843.0</ele><time>2017-03-04T21:04:53Z</time></trkpt>
<trkpt lat="47.311696" lon="10.834224"><ele>830.0</ele><time>2017-03-04T21:04:55Z</time></trkpt>
<trkpt lat="47.311851" lon="10.833984"><ele>836.0</ele><time>2017-03-04T21:04:57Z</time></trkpt>
<trkpt lat="47.312613" lon="10.832557"><ele>836.0</ele><time>2017-03-04T21:05:05Z</time></trkpt>
<trkpt lat="47.31296" lon="10.83195"><ele>850.0</ele><time>2017-03-04T21:05:08Z</time></trkpt>
<trkpt lat="47.313667" lon="10.8308"><ele>855.0</ele><time>2017-03-04T21:05:15Z</time></trkpt>
<trkpt lat="47.314207" lon="10.83001"><ele>848.0</ele><time>2017-03-04T21:05:20Z</time></trkpt>
<trkpt lat="47.315189" lon="10.828634"><ele>853.0</ele><time>2017-03-04T21:05:29Z</time></trkpt>
<trkpt lat="47.315519" lon="10.828027"><ele>859.0</ele><time>2017-03-04T21:05:33Z</time></trkpt>
<trkpt lat="47.316227" lon="10.826468"><ele>868.0</ele><time>2017-03-04T21:05:41Z</time></trkpt>
<trkpt lat="47.31648" lon="10.826009"><ele>868.0</ele><time>2017-03-04T21:05:44Z</time></trkpt>
<trkpt lat="47.317068" lon="10.82523"><ele>874.0</ele><time>2017-03-04T21:05:49Z</time></trkpt>
<trkpt lat="47.317726" lon="10.824828"><ele>882.0</ele><time>2017-03-04T21:05:54Z</time></trkpt>
<trkpt lat="47.31847" lon="10.824593"><ele>879.0</ele><time>2017-03-04T21:05:59Z</time></trkpt>
<trkpt lat="47.318927" lon="10.824593"><ele>879.0</ele><time>2017-03-04T21:06:02Z</time></trkpt>
<trkpt lat="47.320592" lon="10.824932"><ele>873.0</ele><time>2017-03-04T21:06:13Z</time></trkpt>
<trkpt lat="47.3214" lon="10.82488"><ele>868.0</ele><time>2017-03-04T21:06:18Z</time></trkpt>
<trkpt lat="47.322203" lon="10.824632"><ele>864.0</ele><time>2017-03-04T21:06:23Z</time></trkpt>
<trkpt lat="47.325051" lon="10.822822"><ele>872.0</ele><time>2017-03-04T21:06:44Z</time></trkpt>
<trkpt lat="47.325261" lon="10.822675"><ele>872.0</ele><time>2017-03-04T21:06:45Z</time></trkpt>
<trkpt lat="47.325734" lon="10.822266"><ele>876.0</ele><time>2017-03-04T21:06:49Z</time></trkpt>
<trkpt lat="47.326126" lon="10.82186"><ele>874.0</ele><time>2017-03-04T21:06:52Z</time></trkpt>
<trkpt lat="47.326326" lon="10.821593"><ele>876.0</ele><time>2017-03-04T21:06:54Z</time></trkpt>
<trkpt lat="47.326585" lon="10.821209"><ele>876.0</ele><time>2017-03-04T21:06:56Z</time></trkpt>
<trkpt lat="47.327613" lon="10.8195"><ele>883.0</ele><time>2017-03-04T21:07:06Z</time></trkpt>
<trkpt lat="47.327839" lon="10.819255"><ele>883.0</ele><time>2017-03-04T21:07:08Z</time></trkpt>
<trkpt lat="47.328242" lon="10.818933"><ele>888.0</ele><time>2017-03-04T21:07:11Z</time></trkpt>
<trkpt lat="47.329016" lon="10.818399"><ele>886.0</ele><time>2017-03-04T21:07:17Z</time></trkpt>
<trkpt lat="47.329268" lon="10.818278"><ele>894.0</ele><time>2017-03-04T21:07:19Z</time></trkpt>
<trkpt lat="47.329613" lon="10.818174"><ele>894.0</ele><time>2017-03-04T21:07:21Z</time></trkpt>
<trkpt lat="47.329887" lon="10.818144"><ele>894.0</ele><time>2017-03-04T21:07:23Z</time></trkpt>
<trkpt lat="47.330102" lon="10.818146"><ele>897.0</ele><time>2017-03-04T21:07:24Z</time></trkpt>
<trkpt lat="47.330484" lon="10.818214"><ele>897.0</ele><time>2017-03-04T21:07:27Z</time></trkpt>
<trkpt lat="47.331325" lon="10.818546"><ele>905.0</ele><time>2017-03-04T21:07:33Z</time></trkpt>
<trkpt lat="47.331642" lon="10.818619"><ele>905.0</ele><time>2017-03-04T21:07:35Z</time></trkpt>
<trkpt lat="47.33222" lon="10.818614"><ele>915.0</ele><time>2017-03-04T21:07:38Z</time></trkpt>
<trkpt lat="47.33274" lon="10.818497"><ele>917.0</ele><time>2017-03-04T21:07:42Z</time></trkpt>
<trkpt lat="47.333109" lon="10.818448"><ele>917.0</ele><time>2017-03-04T21:07:44Z</time></trkpt>
<trkpt lat="47.333498" lon="10.818474"><ele>912.0</ele><time>2017-03-04T21:07:47Z</time></trkpt>
<trkpt lat="47.335167" lon="10.818915"><ele>915.0</ele><time>2017-03-04T21:07:58Z</time></trkpt>
<trkpt lat="47.335614" lon="10.818942"><ele>915.0</ele><time>2017-03-04T21:08:01Z</time></trkpt>
<trkpt lat="47.336383" lon="10.818908"><ele>915.0</ele><time>2017-03-04T21:08:06Z</time></trkpt>
<trkpt lat="47.336708" lon="10.818875"><ele>920.0</ele><time>2017-03-04T21:08:08Z</time></trkpt>
<trkpt lat="47.336968" lon="10.8188"><ele>920.0</ele><time>2017-03-04T21:08:10Z</time></trkpt>
<trkpt lat="47.337519" lon="10.818498"><ele>925.0</ele><time>2017-03-04T21:08:14Z</time></trkpt>
<trkpt lat="47.338515" lon="10.817875"><ele>924.0</ele><time>2017-03-04T21:08:21Z</time></trkpt>
<trkpt lat="47.338972" lon="10.817625"><ele>924.0</ele><time>2017-03-04T21:08:24Z</time></trkpt>
<trkpt lat="47.339111" lon="10.817586"><ele>924.0</ele><time>2017-03-04T21:08:25Z</time></trkpt>
<trkpt lat="47.339285" lon="10.817567"><ele>923.0</ele><time>2017-03-04T21:08:26Z</time></trkpt>
<trkpt lat="47.339461" lon="10.817605"><ele>923.0</ele><time>2017-03-04T21:08:27Z</time></trkpt>
<trkpt lat="47.339657" lon="10.817734"><ele>923.0</ele><time>2017-03-04T21:08:29Z</time></trkpt>
<trkpt lat="47.339822" lon="10.817955"><ele>923.0</ele><time>2017-03-04T21:08:30Z</time></trkpt>
<trkpt lat="47.339927" lon="10.818136"><ele>923.0</ele><time>2017-03-04T21:08:31Z</time></trkpt>
<trkpt lat="47.340057" lon="10.818441"><ele>924.0</ele><time>2017-03-04T21:08:33Z</time></trkpt>
<trkpt lat="47.340221" lon="10.81867"><ele>924.0</ele><time>2017-03-04T21:08:34Z</time></trkpt>
<trkpt lat="47.34073" lon="10.819153"><ele>924.0</ele><time>2017-03-04T21:08:38Z</time></trkpt>
<trkpt lat="47.341341" lon="10.819885"><ele>933.0</ele><time>2017-03-04T21:08:44Z</time></trkpt>
<trkpt lat="47.34146" lon="10.819971"><ele>933.0</ele><time>2017-03-04T21:08:44Z</time></trkpt>
<trkpt lat="47.341593" lon="10.820035"><ele>944.0</ele><time>2017-03-04T21:08:46Z</time></trkpt>
<trkpt lat="47.341735" lon="10.820047"><ele>951.0</ele><time>2017-03-04T21:08:47Z</time></trkpt>
<trkpt lat="47.341892" lon="10.820016"><ele>951.0</ele><time>2017-03-04T21:08:48Z</time></trkpt>
<trkpt lat="47.342758" lon="10.819738"><ele>965.0</ele><time>2017-03-04T21:08:54Z</time></trkpt>
<trkpt lat="47.342851" lon="10.819674"><ele>965.0</ele><time>2017-03-04T21:08:54Z</time></trkpt>
<trkpt lat="47.342996" lon="10.819518"><ele>965.0</ele><time>2017-03-04T21:08:55Z</time></trkpt>
<trkpt lat="47.343439" lon="10.818842"><ele>947.0</ele><time>2017-03-04T21:09:00Z</time></trkpt>
<trkpt lat="47.34355" lon="10.818746"><ele>947.0</ele><time>2017-03-04T21:09:03Z</time></trkpt>
<trkpt lat="47.343661" lon="10.818701"><ele>947.0</ele><time>2017-03-04T21:09:04Z</time></trkpt>
<trkpt lat="47.344378" lon="10.818673"><ele>944.0</ele><time>2017-03-04T21:09:10Z</time></trkpt>
<trkpt lat="47.344479" lon="10.818707"><ele>944.0</ele><time>2017-03-04T21:09:11Z</time></trkpt>
<trkpt lat="47.344807" lon="10.818981"><ele>944.0</ele><time>2017-03-04T21:09:14Z</time></trkpt>
<trkpt lat="47.344914" lon="10.819035"><ele>944.0</ele><time>2017-03-04T21:09:15Z</time></trkpt>
<trkpt lat="47.345049" lon="10.819059"><ele>976.0</ele><time>2017-03-04T21:09:18Z</time></trkpt>
<trkpt lat="47.345213" lon="10.819014"><ele>976.0</ele><time>2017-03-04T21:09:20Z</time></trkpt>
<trkpt lat="47.345477" lon="10.818902"><ele>976.0</ele><time>2017-03-04T21:09:22Z</time></trkpt>
<trkpt lat="47.345577" lon="10.818884"><ele>976.0</ele><time>2017-03-04T21:09:23Z</time></trkpt>
<trkpt lat="47.345669" lon="10.818908"><ele>976.0</ele><time>2017-03-04T21:09:24Z</time></trkpt>
<trkpt lat="47.345724" lon="10.818945"><ele>976.0</ele><time>2017-03-04T21:09:24Z</time></trkpt>
<trkpt lat="47.345778" lon="10.819012"><ele>976.0</ele><time>2017-03-04T21:09:25Z</time></trkpt>
<trkpt lat="47.345837" lon="10.819127"><ele>1035.0</ele><time>2017-03-04T21:09:29Z</time></trkpt>
<trkpt lat="47.346172" lon="10.819937"><ele>1026.0</ele><time>2017-03-04T21:09:35Z</time></trkpt>
<trkpt lat="47.346261" lon="10.82009"><ele>994.0</ele><time>2017-03-04T21:09:38Z</time></trkpt>
<trkpt lat="47.346494" lon="10.820341"><ele>994.0</ele><time>2017-03-04T21:09:40Z</time></trkpt>
<trkpt lat="47.346816" lon="10.820889"><ele>1028.0</ele><time>2017-03-04T21:09:45Z</time></trkpt>
<trkpt lat="47.34744" lon="10.822054"><ele>1002.0</ele><time>2017-03-04T21:09:54Z</time></trkpt>
<trkpt lat="47.348148" lon="10.823703"><ele>1008.0</ele><time>2017-03-04T21:10:06Z</time></trkpt>
<trkpt lat="47.348303" lon="10.823866"><ele>1008.0</ele><time>2017-03-04T21:10:07Z</time></trkpt>
<trkpt lat="47.348393" lon="10.823914"><ele>1049.0</ele><time>2017-03-04T21:10:10Z</time></trkpt>
<trkpt lat="47.348705" lon="10.824014"><ele>1049.0</ele><time>2017-03-04T21:10:13Z</time></trkpt>
<trkpt lat="47.348799" lon="10.824086"><ele>1049.0</ele><time>2017-03-04T21:10:14Z</time></trkpt>
<trkpt lat="47.349007" lon="10.824312"><ele>1001.0</ele><time>2017-03-04T21:10:19Z</time></trkpt>
<trkpt lat="47.349109" lon="10.824399"><ele>1001.0</ele><time>2017-03-04T21:10:20Z</time></trkpt>
<trkpt lat="47.349207" lon="10.824452"><ele>1027.0</ele><time>2017-03-04T21:10:22Z</time></trkpt>
<trkpt lat="47.349425" lon="10.82445"><ele>1027.0</ele><time>2017-03-04T21:10:24Z</time></trkpt>
<trkpt lat="47.349687" lon="10.824353"><ele>1027.0</ele><time>2017-03-04T21:10:26Z</time></trkpt>
<trkpt lat="47.349795" lon="10.824356"><ele>1027.0</ele><time>2017-03-04T21:10:27Z</time></trkpt>
<trkpt lat="47.349916" lon="10.824396"><ele>1027.0</ele><time>2017-03-04T21:10:28Z</time></trkpt>
<trkpt lat="47.350697" lon="10.824829"><ele>1055.0</ele><time>2017-03-04T21:10:35Z</time></trkpt>
<trkpt lat="47.35106" lon="10.825129"><ele>1055.0</ele><time>2017-03-04T21:10:39Z</time></trkpt>
<trkpt lat="47.351144" lon="10.825214"><ele>1055.0</ele><time>2017-03-04T21:10:40Z</time></trkpt>
<trkpt lat="47.351303" lon="10.825437"><ele>1055.0</ele><time>2017-03-04T21:10:42Z</time></trkpt>
<trkpt lat="47.351865" lon="10.826331"><ele>1076.0</ele><time>2017-03-04T21:10:49Z</time></trkpt>
<trkpt lat="47.352413" lon="10.827071"><ele>1041.0</ele><time>2017-03-04T21:10:56Z</time></trkpt>
<trkpt lat="47.352818" lon="10.827725"><ele>1065.0</ele><time>2017-03-04T21:11:02Z</time></trkpt>
<trkpt lat="47.352935" lon="10.827936"><ele>1065.0</ele><time>2017-03-04T21:11:03Z</time></trkpt>
<trkpt lat="47.353193" lon="10.828524"><ele>1037.0</ele><time>2017-03-04T21:11:08Z</time></trkpt>
<trkpt lat="47.353385" lon="10.829016"><ele>1071.0</ele><time>2017-03-04T21:11:12Z</time></trkpt>
<trkpt lat="47.353594" lon="10.829685"><ele>1049.0</ele><time>2017-03-04T21:11:17Z</time></trkpt>
<trkpt lat="47.353731" lon="10.830236"><ele>1049.0</ele><time>2017-03-04T21:11:20Z</time></trkpt>
<trkpt lat="47.354167" lon="10.832233"><ele>1104.0</ele><time>2017-03-04T21:11:33Z</time></trkpt>
<trkpt lat="47.354233" lon="10.832602"><ele>1097.0</ele><time>2017-03-04T21:11:35Z</time></trkpt>
<trkpt lat="47.354357" lon="10.833519"><ele>1095.0</ele><time>2017-03-04T21:11:41Z</time></trkpt>
<trkpt lat="47.354391" lon="10.83406"><ele>1095.0</ele><time>2017-03-04T21:11:44Z</time></trkpt>
<trkpt lat="47.354488" lon="10.834642"><ele>1095.0</ele><time>2017-03-04T21:11:48Z</time></trkpt>
<trkpt lat="47.354536" lon="10.835084"><ele>1094.0</ele><time>2017-03-04T21:11:50Z</time></trkpt>
<trkpt lat="47.354547" lon="10.835455"><ele>1094.0</ele><time>2017-03-04T21:11:52Z</time></trkpt>
<trkpt lat="47.354543" lon="10.836673"><ele>1094.0</ele><time>2017-03-04T21:11:59Z</time></trkpt>
<trkpt lat="47.354516" lon="10.837195"><ele>1094.0</ele><time>2017-03-04T21:12:03Z</time></trkpt>
<trkpt lat="47.354395" lon="10.837922"><ele>1106.0</ele><time>2017-03-04T21:12:07Z</time></trkpt>
<trkpt lat="47.354308" lon="10.838151"><ele>1106.0</ele><time>2017-03-04T21:12:09Z</time></trkpt>
<trkpt lat="47.353766" lon="10.839311"><ele>1087.0</ele><time>2017-03-04T21:12:17Z</time></trkpt>
<trkpt lat="47.353495" lon="10.839984"><ele>1087.0</ele><time>2017-03-04T21:12:22Z</time></trkpt>
<trkpt lat="47.353187" lon="10.841128"><ele>1081.0</ele><time>2017-03-04T21:12:29Z</time></trkpt>
<trkpt lat="47.353136" lon="10.841253"><ele>1081.0</ele><time>2017-03-04T21:12:30Z</time></trkpt>
<trkpt lat="47.353055" lon="10.841364"><ele>1081.0</ele><time>2017-03-04T21:12:31Z</time></trkpt>
<trkpt lat="47.35288" lon="10.841467"><ele>1081.0</ele><time>2017-03-04T21:12:32Z</time></trkpt>
<trkpt lat="47.352763" lon="10.841464"><ele>1081.0</ele><time>2017-03-04T21:12:33Z</time></trkpt>
<trkpt lat="47.352503" lon="10.841406"><ele>1081.0</ele><time>2017-03-04T21:12:35Z</time></trkpt>
<trkpt lat="47.352321" lon="10.841419"><ele>1056.0</ele><time>2017-03-04T21:12:38Z</time></trkpt>
<trkpt lat="47.352277" lon="10.841455"><ele>1056.0</ele><time>2017-03-04T21:12:38Z</time></trkpt>
<trkpt lat="47.352246" lon="10.841564"><ele>1056.0</ele><time>2017-03-04T21:12:39Z</time></trkpt>
<trkpt lat="47.352276" lon="10.841664"><ele>1056.0</ele><time>2017-03-04T21:12:40Z</time></trkpt>
<trkpt lat="47.352337" lon="10.84173"><ele>1086.0</ele><time>2017-03-04T21:12:42Z</time></trkpt>
<trkpt lat="47.352948" lon="10.841676"><ele>1105.0</ele><time>2017-03-04T21:12:48Z</time></trkpt>
<trkpt lat="47.353139" lon="10.841591"><ele>1081.0</ele><time>2017-03-04T21:12:50Z</time></trkpt>
<trkpt lat="47.353219" lon="10.841499"><ele>1081.0</ele><time>2017-03-04T21:12:51Z</time></trkpt>
<trkpt lat="47.353298" lon="10.841341"><ele>1081.0</ele><time>2017-03-04T21:12:52Z</time></trkpt>
<trkpt lat="47.353828" lon="10.840026"><ele>1116.0</ele><time>2017-03-04T21:13:02Z</time></trkpt>
<trkpt lat="47.353976" lon="10.839737"><ele>1087.0</ele><time>2017-03-04T21:13:05Z</time></trkpt>
<trkpt lat="47.354548" lon="10.838858"><ele>1122.0</ele><time>2017-03-04T21:13:12Z</time></trkpt>
<trkpt lat="47.354801" lon="10.838355"><ele>1122.0</ele><time>2017-03-04T21:13:16Z</time></trkpt>
<trkpt lat="47.354937" lon="10.838002"><ele>1106.0</ele><time>2017-03-04T21:13:19Z</time></trkpt>
<trkpt lat="47.355034" lon="10.837575"><ele>1164.0</ele><time>2017-03-04T21:13:24Z</time></trkpt>
<trkpt lat="47.355214" lon="10.836368"><ele>1156.0</ele><time>2017-03-04T21:13:31Z</time></trkpt>
<trkpt lat="47.355396" lon="10.83434"><ele>1151.0</ele><time>2017-03-04T21:13:43Z</time></trkpt>
<trkpt lat="47.355418" lon="10.833468"><ele>1154.0</ele><time>2017-03-04T21:13:48Z</time></trkpt>
<trkpt lat="47.355556" lon="10.832462"><ele>1155.0</ele><time>2017-03-04T21:13:54Z</time></trkpt>
<trkpt lat="47.355574" lon="10.832244"><ele>1155.0</ele><time>2017-03-04T21:13:55Z</time></trkpt>
<trkpt lat="47.355581" lon="10.831987"><ele>1155.0</ele><time>2017-03-04T21:13:57Z</time></trkpt>
<trkpt lat="47.355504" lon="10.829953"><ele>1141.0</ele><time>2017-03-04T21:14:09Z</time></trkpt>
<trkpt lat="47.355517" lon="10.829808"><ele>1141.0</ele><time>2017-03-04T21:14:10Z</time></trkpt>
<trkpt lat="47.355574" lon="10.829614"><ele>1141.0</ele><time>2017-03-04T21:14:11Z</time></trkpt>
<trkpt lat="47.355714" lon="10.829335"><ele>1141.0</ele><time>2017-03-04T21:14:13Z</time></trkpt>
<trkpt lat="47.355887" lon="10.828931"><ele>1181.0</ele><time>2017-03-04T21:14:17Z</time></trkpt>
<trkpt lat="47.35601" lon="10.828582"><ele>1181.0</ele><time>2017-03-04T21:14:19Z</time></trkpt>
<trkpt lat="47.35625" lon="10.827596"><ele>1175.0</ele><time>2017-03-04T21:14:26Z</time></trkpt>
<trkpt lat="47.356282" lon="10.827367"><ele>1172.0</ele><time>2017-03-04T21:14:27Z</time></trkpt>
<trkpt lat="47.356305" lon="10.826999"><ele>1172.0</ele><time>2017-03-04T21:14:29Z</time></trkpt>
<trkpt lat="47.356279" lon="10.826617"><ele>1159.0</ele><time>2017-03-04T21:14:32Z</time></trkpt>
<trkpt lat="47.356222" lon="10.826269"><ele>1159.0</ele><time>2017-03-04T21:14:34Z</time></trkpt>
<trkpt lat="47.356217" lon="10.826128"><ele>1159.0</ele><time>2017-03-04T21:14:35Z</time></trkpt>
<trkpt lat="47.356241" lon="10.825976"><ele>1159.0</ele><time>2017-03-04T21:14:35Z</time></trkpt>
<trkpt lat="47.356288" lon="10.825846"><ele>1159.0</ele><time>2017-03-04T21:14:36Z</time></trkpt>
<trkpt lat="47.356436" lon="10.825652"><ele>1145.0</ele><time>2017-03-04T21:14:38Z</time></trkpt>
<trkpt lat="47.357209" lon="10.824937"><ele>1151.0</ele><time>2017-03-04T21:14:46Z</time></trkpt>
<trkpt lat="47.35778" lon="10.824533"><ele>1173.0</ele><time>2017-03-04T21:14:52Z</time></trkpt>
<trkpt lat="47.357902" lon="10.824418"><ele>1173.0</ele><time>2017-03-04T21:14:53Z</time></trkpt>
<trkpt lat="47.357999" lon="10.824286"><ele>1173.0</ele><time>2017-03-04T21:14:54Z</time></trkpt>
<trkpt lat="47.35847" lon="10.823507"><ele>1166.0</ele><time>2017-03-04T21:15:00Z</time></trkpt>
<trkpt lat="47.358523" lon="10.823445"><ele>1166.0</ele><time>2017-03-04T21:15:01Z</time></trkpt>
<trkpt lat="47.358591" lon="10.823407"><ele>1166.0</ele><time>2017-03-04T21:15:02Z</time></trkpt>
<trkpt lat="47.358665" lon="10.823403"><ele>1166.0</ele><time>2017-03-04T21:15:02Z</time></trkpt>
<trkpt lat="47.358736" lon="10.823438"><ele>1166.0</ele><time>2017-03-04T21:15:21Z</time></trkpt>
<trkpt lat="47.358736" lon="10.823438"><ele>1166.0</ele><time>2017-03-04T21:15:21Z</time></trkpt>
<trkpt lat="47.358799" lon="10.823507"><ele>1166.0</ele><time>2017-03-04T21:15:22Z</time></trkpt>
<trkpt lat="47.358843" lon="10.823606"><ele>1166.0</ele><time>2017-03-04T21:15:22Z</time></trkpt>
<trkpt lat="47.359023" lon="10.82417"><ele>1174.0</ele><time>2017-03-04T21:15:25Z</time></trkpt>
<trkpt lat="47.35916" lon="10.824419"><ele>1174.0</ele><time>2017-03-04T21:15:26Z</time></trkpt>
<trkpt lat="47.359332" lon="10.824645"><ele>1167.0</ele><time>2017-03-04T21:15:28Z</time></trkpt>
<trkpt lat="47.359366" lon="10.824729"><ele>1167.0</ele><time>2017-03-04T21:15:28Z</time></trkpt>
<trkpt lat="47.359434" lon="10.824962"><ele>1167.0</ele><time>2017-03-04T21:15:29Z</time></trkpt>
<trkpt lat="47.359566" lon="10.825552"><ele>1168.0</ele><time>2017-03-04T21:15:32Z</time></trkpt>
<trkpt lat="47.359572" lon="10.825637"><ele>1168.0</ele><time>2017-03-04T21:15:32Z</time></trkpt>
<trkpt lat="47.359516" lon="10.826112"><ele>1171.0</ele><time>2017-03-04T21:15:34Z</time></trkpt>
<trkpt lat="47.359513" lon="10.826314"><ele>1171.0</ele><time>2017-03-04T21:15:35Z</time></trkpt>
<trkpt lat="47.359652" lon="10.827065"><ele>1186.0</ele><time>2017-03-04T21:15:39Z</time></trkpt>
<trkpt lat="47.359759" lon="10.828858"><ele>1195.0</ele><time>2017-03-04T21:15:46Z</time></trkpt>
<trkpt lat="47.35979" lon="10.829064"><ele>1195.0</ele><time>2017-03-04T21:15:47Z</time></trkpt>
<trkpt lat="47.359843" lon="10.829238"><ele>1197.0</ele><time>2017-03-04T21:15:48Z</time></trkpt>
<trkpt lat="47.360005" lon="10.829463"><ele>1188.0</ele><time>2017-03-04T21:15:49Z</time></trkpt>
<trkpt lat="47.360351" lon="10.829744"><ele>1188.0</ele><time>2017-03-04T21:15:52Z</time></trkpt>
<trkpt lat="47.360444" lon="10.829857"><ele>1188.0</ele><time>2017-03-04T21:15:53Z</time></trkpt>
<trkpt lat="47.360562" lon="10.830134"><ele>1197.0</ele><time>2017-03-04T21:15:54Z</time></trkpt>
<trkpt lat="47.360709" lon="10.830598"><ele>1197.0</ele><time>2017-03-04T21:15:56Z</time></trkpt>
<trkpt lat="47.360795" lon="10.830718"><ele>1197.0</ele><time>2017-03-04T21:15:57Z</time></trkpt>
<trkpt lat="47.360839" lon="10.830752"><ele>1185.0</ele><time>2017-03-04T21:15:58Z</time></trkpt>
<trkpt lat="47.360901" lon="10.830776"><ele>1185.0</ele><time>2017-03-04T21:15:58Z</time></trkpt>
<trkpt lat="47.361154" lon="10.830779"><ele>1185.0</ele><time>2017-03-04T21:16:00Z</time></trkpt>
<trkpt lat="47.361388" lon="10.830749"><ele>1185.0</ele><time>2017-03-04T21:16:01Z</time></trkpt>
<trkpt lat="47.36167" lon="10.830661"><ele>1195.0</ele><time>2017-03-04T21:16:03Z</time></trkpt>
<trkpt lat="47.361945" lon="10.830541"><ele>1195.0</ele><time>2017-03-04T21:16:05Z</time></trkpt>
<trkpt lat="47.362053" lon="10.830524"><ele>1195.0</ele><time>2017-03-04T21:16:05Z</time></trkpt>
<trkpt lat="47.362143" lon="10.830544"><ele>1195.0</ele><time>2017-03-04T21:16:06Z</time></trkpt>
<trkpt lat="47.362279" lon="10.830624"><ele>1195.0</ele><time>2017-03-04T21:16:07Z</time></trkpt>
<trkpt lat="47.362369" lon="10.830709"><ele>1195.0</ele><time>2017-03-04T21:16:08Z</time></trkpt>
<trkpt lat="47.362434" lon="10.830806"><ele>1195.0</ele><time>2017-03-04T21:16:08Z</time></trkpt>
<trkpt lat="47.363185" lon="10.8325"><ele>1218.0</ele><time>2017-03-04T21:16:17Z</time></trkpt>
<trkpt lat="47.363378" lon="10.832977"><ele>1249.0</ele><time>2017-03-04T21:16:20Z</time></trkpt>
<trkpt lat="47.363475" lon="10.833257"><ele>1249.0</ele><time>2017-03-04T21:16:21Z</time></trkpt>
<trkpt lat="47.363995" lon="10.835247"><ele>1229.0</ele><time>2017-03-04T21:16:30Z</time></trkpt>
<trkpt lat="47.364066" lon="10.83565"><ele>1229.0</ele><time>2017-03-04T21:16:32Z</time></trkpt>
<trkpt lat="47.36413" lon="10.836274"><ele>1226.0</ele><time>2017-03-04T21:16:35Z</time></trkpt>
<trkpt lat="47.364137" lon="10.836589"><ele>1226.0</ele><time>2017-03-04T21:16:36Z</time></trkpt>
<trkpt lat="47.364103" lon="10.83687"><ele>1224.0</ele><time>2017-03-04T21:16:37Z</time></trkpt>
<trkpt lat="47.363915" lon="10.837784"><ele>1232.0</ele><time>2017-03-04T21:16:41Z</time></trkpt>
<trkpt lat="47.363526" lon="10.839232"><ele>1240.0</ele><time>2017-03-04T21:16:48Z</time></trkpt>
<trkpt lat="47.363412" lon="10.839557"><ele>1240.0</ele><time>2017-03-04T21:16:49Z</time></trkpt>
<trkpt lat="47.363155" lon="10.83996"><ele>1229.0</ele><time>2017-03-04T21:16:52Z</time></trkpt>
<trkpt lat="47.362595" lon="10.840674"><ele>1222.0</ele><time>2017-03-04T21:16:56Z</time></trkpt>
<trkpt lat="47.362374" lon="10.840986"><ele>1221.0</ele><time>2017-03-04T21:16:58Z</time></trkpt>
<trkpt lat="47.361711" lon="10.842088"><ele>1198.0</ele><time>2017-03-04T21:17:05Z</time></trkpt>
<trkpt lat="47.361548" lon="10.84242"><ele>1230.0</ele><time>2017-03-04T21:17:07Z</time></trkpt>
<trkpt lat="47.361446" lon="10.842668"><ele>1204.0</ele><time>2017-03-04T21:17:09Z</time></trkpt>
<trkpt lat="47.361373" lon="10.842895"><ele>1204.0</ele><time>2017-03-04T21:17:10Z</time></trkpt>
<trkpt lat="47.361321" lon="10.843146"><ele>1204.0</ele><time>2017-03-04T21:17:11Z</time></trkpt>
<trkpt lat="47.361285" lon="10.843925"><ele>1199.0</ele><time>2017-03-04T21:17:14Z</time></trkpt>
<trkpt lat="47.361231" lon="10.844304"><ele>1198.0</ele><time>2017-03-04T21:17:16Z</time></trkpt>
<trkpt lat="47.361177" lon="10.844456"><ele>1198.0</ele><time>2017-03-04T21:17:17Z</time></trkpt>
<trkpt lat="47.361094" lon="10.844612"><ele>1198.0</ele><time>2017-03-04T21:17:18Z</time></trkpt>
<trkpt lat="47.360959" lon="10.844781"><ele>1198.0</ele><time>2017-03-04T21:17:19Z</time></trkpt>
<trkpt lat="47.36082" lon="10.844866"><ele>1206.0</ele><time>2017-03-04T21:17:20Z</time></trkpt>
<trkpt lat="47.359882" lon="10.845283"><ele>1204.0</ele><time>2017-03-04T21:17:26Z</time></trkpt>
<trkpt lat="47.35971" lon="10.845413"><ele>1204.0</ele><time>2017-03-04T21:17:27Z</time></trkpt>
<trkpt lat="47.359572" lon="10.845555"><ele>1204.0</ele><time>2017-03-04T21:17:28Z</time></trkpt>
<trkpt lat="47.359355" lon="10.84583"><ele>1204.0</ele><time>2017-03-04T21:17:30Z</time></trkpt>
<trkpt lat="47.359126" lon="10.846178"><ele>1202.0</ele><time>2017-03-04T21:17:32Z</time></trkpt>
<trkpt lat="47.358759" lon="10.846803"><ele>1171.0</ele><time>2017-03-04T21:17:36Z</time></trkpt>
<trkpt lat="47.358471" lon="10.847361"><ele>1171.0</ele><time>2017-03-04T21:17:39Z</time></trkpt>
<trkpt lat="47.358378" lon="10.847664"><ele>1149.0</ele><time>2017-03-04T21:17:41Z</time></trkpt>
<trkpt lat="47.358359" lon="10.847842"><ele>1149.0</ele><time>2017-03-04T21:17:41Z</time></trkpt>
<trkpt lat="47.358326" lon="10.848719"><ele>1188.0</ele><time>2017-03-04T21:17:46Z</time></trkpt>
<trkpt lat="47.358281" lon="10.849028"><ele>1188.0</ele><time>2017-03-04T21:17:47Z</time></trkpt>
<trkpt lat="47.358244" lon="10.849167"><ele>1171.0</ele><time>2017-03-04T21:17:48Z</time></trkpt>
<trkpt lat="47.35804" lon="10.849586"><ele>1171.0</ele><time>2017-03-04T21:17:50Z</time></trkpt>
<trkpt lat="47.357378" lon="10.850808"><ele>1198.0</ele><time>2017-03-04T21:17:57Z</time></trkpt>
<trkpt lat="47.35657" lon="10.85203"><ele>1174.0</ele><time>2017-03-04T21:18:04Z</time></trkpt>
<trkpt lat="47.356159" lon="10.853012"><ele>1147.0</ele><time>2017-03-04T21:18:09Z</time></trkpt>
<trkpt lat="47.356113" lon="10.853187"><ele>1147.0</ele><time>2017-03-04T21:18:10Z</time></trkpt>
<trkpt lat="47.356087" lon="10.853421"><ele>1141.0</ele><time>2017-03-04T21:18:11Z</time></trkpt>
<trkpt lat="47.356115" lon="10.854431"><ele>1145.0</ele><time>2017-03-04T21:18:16Z</time></trkpt>
<trkpt lat="47.356135" lon="10.854673"><ele>1145.0</ele><time>2017-03-04T21:18:17Z</time></trkpt>
<trkpt lat="47.35616" lon="10.854782"><ele>1145.0</ele><time>2017-03-04T21:18:17Z</time></trkpt>
<trkpt lat="47.356247" lon="10.854971"><ele>1145.0</ele><time>2017-03-04T21:18:18Z</time></trkpt>
<trkpt lat="47.356352" lon="10.855081"><ele>1152.0</ele><time>2017-03-04T21:18:19Z</time></trkpt>
<trkpt lat="47.356419" lon="10.855124"><ele>1152.0</ele><time>2017-03-04T21:18:19Z</time></trkpt>
<trkpt lat="47.356586" lon="10.855179"><ele>1152.0</ele><time>2017-03-04T21:18:20Z</time></trkpt>
<trkpt lat="47.356778" lon="10.855151"><ele>1153.0</ele><time>2017-03-04T21:18:22Z</time></trkpt>
<trkpt lat="47.357184" lon="10.854879"><ele>1134.0</ele><time>2017-03-04T21:18:25Z</time></trkpt>
<trkpt lat="47.35728" lon="10.854835"><ele>1134.0</ele><time>2017-03-04T21:18:25Z</time></trkpt>
<trkpt lat="47.357391" lon="10.854831"><ele>1134.0</ele><time>2017-03-04T21:18:26Z</time></trkpt>
<trkpt lat="47.357533" lon="10.854875"><ele>1132.0</ele><time>2017-03-04T21:18:27Z</time></trkpt>
<trkpt lat="47.357896" lon="10.85512"><ele>1156.0</ele><time>2017-03-04T21:18:30Z</time></trkpt>
<trkpt lat="47.358045" lon="10.855194"><ele>1156.0</ele><time>2017-03-04T21:18:31Z</time></trkpt>
<trkpt lat="47.358252" lon="10.855219"><ele>1156.0</ele><time>2017-03-04T21:18:32Z</time></trkpt>
<trkpt lat="47.358494" lon="10.855163"><ele>1163.0</ele><time>2017-03-04T21:18:33Z</time></trkpt>
<trkpt lat="47.358644" lon="10.855052"><ele>1163.0</ele><time>2017-03-04T21:18:35Z</time></trkpt>
<trkpt lat="47.3588" lon="10.854866"><ele>1144.0</ele><time>2017-03-04T21:18:36Z</time></trkpt>
<trkpt lat="47.359176" lon="10.85432"><ele>1134.0</ele><time>2017-03-04T21:18:39Z</time></trkpt>
<trkpt lat="47.359242" lon="10.854283"><ele>1134.0</ele><time>2017-03-04T21:18:40Z</time></trkpt>
<trkpt lat="47.359337" lon="10.854281"><ele>1134.0</ele><time>2017-03-04T21:18:41Z</time></trkpt>
<trkpt lat="47.359395" lon="10.854315"><ele>1134.0</ele><time>2017-03-04T21:18:41Z</time></trkpt>
<trkpt lat="47.359456" lon="10.854387"><ele>1134.0</ele><time>2017-03-04T21:18:41Z</time></trkpt>
<trkpt lat="47.359523" lon="10.854516"><ele>1134.0</ele><time>2017-03-04T21:18:42Z</time></trkpt>
<trkpt lat="47.359895" lon="10.855537"><ele>1152.0</ele><time>2017-03-04T21:18:47Z</time></trkpt>
<trkpt lat="47.360427" lon="10.856548"><ele>1144.0</ele><time>2017-03-04T21:18:52Z</time></trkpt>
<trkpt lat="47.36056" lon="10.857007"><ele>1149.0</ele><time>2017-03-04T21:18:55Z</time></trkpt>
<trkpt lat="47.360602" lon="10.857262"><ele>1149.0</ele><time>2017-03-04T21:18:56Z</time></trkpt>
<trkpt lat="47.360751" lon="10.858494"><ele>1155.0</ele><time>2017-03-04T21:19:01Z</time></trkpt>
<trkpt lat="47.36077" lon="10.858757"><ele>1155.0</ele><time>2017-03-04T21:19:02Z</time></trkpt>
<trkpt lat="47.360769" lon="10.859036"><ele>1155.0</ele><time>2017-03-04T21:19:03Z</time></trkpt>
<trkpt lat="47.360744" lon="10.859308"><ele>1153.0</ele><time>2017-03-04T21:19:04Z</time></trkpt>
<trkpt lat="47.36053" lon="10.860361"><ele>1150.0</ele><time>2017-03-04T21:19:09Z</time></trkpt>
<trkpt lat="47.360508" lon="10.860548"><ele>1150.0</ele><time>2017-03-04T21:19:10Z</time></trkpt>
<trkpt lat="47.360528" lon="10.860993"><ele>1149.0</ele><time>2017-03-04T21:19:12Z</time></trkpt>
<trkpt lat="47.360607" lon="10.861377"><ele>1149.0</ele><time>2017-03-04T21:19:13Z</time></trkpt>
<trkpt lat="47.360725" lon="10.861713"><ele>1149.0</ele><time>2017-03-04T21:19:15Z</time></trkpt>
<trkpt lat="47.360824" lon="10.861922"><ele>1149.0</ele><time>2017-03-04T21:19:16Z</time></trkpt>
<trkpt lat="47.361317" lon="10.862632"><ele>1153.0</ele><time>2017-03-04T21:19:20Z</time></trkpt>
<trkpt lat="47.361487" lon="10.862963"><ele>1153.0</ele><time>2017-03-04T21:19:22Z</time></trkpt>
<trkpt lat="47.361628" lon="10.863402"><ele>1148.0</ele><time>2017-03-04T21:19:24Z</time></trkpt>
<trkpt lat="47.361918" lon="10.864602"><ele>1152.0</ele><time>2017-03-04T21:19:30Z</time></trkpt>
<trkpt lat="47.36204" lon="10.865032"><ele>1140.0</ele><time>2017-03-04T21:19:32Z</time></trkpt>
<trkpt lat="47.362276" lon="10.865595"><ele>1140.0</ele><time>2017-03-04T21:19:34Z</time></trkpt>
<trkpt lat="47.362516" lon="10.866028"><ele>1129.0</ele><time>2017-03-04T21:19:37Z</time></trkpt>
<trkpt lat="47.362689" lon="10.866397"><ele>1129.0</ele><time>2017-03-04T21:19:39Z</time></trkpt>
<trkpt lat="47.362774" lon="10.866654"><ele>1129.0</ele><time>2017-03-04T21:19:40Z</time></trkpt>
<trkpt lat="47.362832" lon="10.867002"><ele>1121.0</ele><time>2017-03-04T21:19:42Z</time></trkpt>
<trkpt lat="47.36288" lon="10.867678"><ele>1125.0</ele><time>2017-03-04T21:19:44Z</time></trkpt>
<trkpt lat="47.36293" lon="10.867948"><ele>1125.0</ele><time>2017-03-04T21:19:46Z</time></trkpt>
<trkpt lat="47.363042" lon="10.868338"><ele>1122.0</ele><time>2017-03-04T21:19:47Z</time></trkpt>
<trkpt lat="47.36323" lon="10.868711"><ele>1122.0</ele><time>2017-03-04T21:19:49Z</time></trkpt>
<trkpt lat="47.363703" lon="10.869432"><ele>1142.0</ele><time>2017-03-04T21:19:54Z</time></trkpt>
<trkpt lat="47.364109" lon="10.870157"><ele>1121.0</ele><time>2017-03-04T21:19:58Z</time></trkpt>
<trkpt lat="47.36442" lon="10.870661"><ele>1147.0</ele><time>2017-03-04T21:20:01Z</time></trkpt>
<trkpt lat="47.3646" lon="10.870904"><ele>1115.0</ele><time>2017-03-04T21:20:03Z</time></trkpt>
<trkpt lat="47.364924" lon="10.871268"><ele>1115.0</ele><time>2017-03-04T21:20:06Z</time></trkpt>
<trkpt lat="47.365094" lon="10.871422"><ele>1123.0</ele><time>2017-03-04T21:20:07Z</time></trkpt>
<trkpt lat="47.365422" lon="10.871584"><ele>1123.0</ele><time>2017-03-04T21:20:09Z</time></trkpt>
<trkpt lat="47.365648" lon="10.871624"><ele>1123.0</ele><time>2017-03-04T21:20:11Z</time></trkpt>
<trkpt lat="47.365748" lon="10.871632"><ele>1123.0</ele><time>2017-03-04T21:20:21Z</time></trkpt>
<trkpt lat="47.365913" lon="10.871814"><ele>1094.0</ele><time>2017-03-04T21:20:23Z</time></trkpt>
<trkpt lat="47.365977" lon="10.871917"><ele>1094.0</ele><time>2017-03-04T21:20:24Z</time></trkpt>
<trkpt lat="47.365945" lon="10.87226"><ele>1094.0</ele><time>2017-03-04T21:20:25Z</time></trkpt>
<trkpt lat="47.365848" lon="10.872859"><ele>1090.0</ele><time>2017-03-04T21:20:27Z</time></trkpt>
<trkpt lat="47.365781" lon="10.873121"><ele>1090.0</ele><time>2017-03-04T21:20:28Z</time></trkpt>
<trkpt lat="47.365723" lon="10.873265"><ele>1090.0</ele><time>2017-03-04T21:20:29Z</time></trkpt>
<trkpt lat="47.365296" lon="10.873875"><ele>1094.0</ele><time>2017-03-04T21:20:32Z</time></trkpt>
<trkpt lat="47.365102" lon="10.874222"><ele>1094.0</ele><time>2017-03-04T21:20:33Z</time></trkpt>
<trkpt lat="47.364987" lon="10.874611"><ele>1087.0</ele><time>2017-03-04T21:20:35Z</time></trkpt>
<trkpt lat="47.364951" lon="10.874925"><ele>1087.0</ele><time>2017-03-04T21:20:36Z</time></trkpt>
<trkpt lat="47.364949" lon="10.875325"><ele>1086.0</ele><time>2017-03-04T21:20:37Z</time></trkpt>
<trkpt lat="47.364999" lon="10.875697"><ele>1086.0</ele><time>2017-03-04T21:20:39Z</time></trkpt>
<trkpt lat="47.365209" lon="10.87638"><ele>1091.0</ele><time>2017-03-04T21:20:42Z</time></trkpt>
<trkpt lat="47.36591" lon="10.877943"><ele>1100.0</ele><time>2017-03-04T21:20:48Z</time></trkpt>
<trkpt lat="47.366013" lon="10.878326"><ele>1100.0</ele><time>2017-03-04T21:20:50Z</time></trkpt>
<trkpt lat="47.366157" lon="10.878977"><ele>1098.0</ele><time>2017-03-04T21:20:52Z</time></trkpt>
<trkpt lat="47.366333" lon="10.879651"><ele>1095.0</ele><time>2017-03-04T21:20:55Z</time></trkpt>
<trkpt lat="47.366577" lon="10.880132"><ele>1092.0</ele><time>2017-03-04T21:20:58Z</time></trkpt>
<trkpt lat="47.366746" lon="10.8804"><ele>1093.0</ele><time>2017-03-04T21:20:59Z</time></trkpt>
<trkpt lat="47.367565" lon="10.88132"><ele>1088.0</ele><time>2017-03-04T21:21:06Z</time></trkpt>
<trkpt lat="47.367899" lon="10.881657"><ele>1088.0</ele><time>2017-03-04T21:21:08Z</time></trkpt>
<trkpt lat="47.368944" lon="10.882555"><ele>1073.0</ele><time>2017-03-04T21:21:16Z</time></trkpt>
<trkpt lat="47.369233" lon="10.882708"><ele>1063.0</ele><time>2017-03-04T21:21:18Z</time></trkpt>
<trkpt lat="47.369932" lon="10.88299"><ele>1063.0</ele><time>2017-03-04T21:21:22Z</time></trkpt>
<trkpt lat="47.370181" lon="10.883232"><ele>1052.0</ele><time>2017-03-04T21:21:24Z</time></trkpt>
<trkpt lat="47.370446" lon="10.883676"><ele>1047.0</ele><time>2017-03-04T21:21:27Z</time></trkpt>
<trkpt lat="47.370571" lon="10.884009"><ele>1047.0</ele><time>2017-03-04T21:21:29Z</time></trkpt>
<trkpt lat="47.370747" lon="10.884595"><ele>1050.0</ele><time>2017-03-04T21:21:31Z</time></trkpt>
<trkpt lat="47.370862" lon="10.885157"><ele>1041.0</ele><time>2017-03-04T21:21:34Z</time></trkpt>
<trkpt lat="47.370965" lon="10.885483"><ele>1041.0</ele><time>2017-03-04T21:21:35Z</time></trkpt>
<trkpt lat="47.371142" lon="10.885861"><ele>1048.0</ele><time>2017-03-04T21:21:37Z</time></trkpt>
<trkpt lat="47.371663" lon="10.886787"><ele>1047.0</ele><time>2017-03-04T21:21:43Z</time></trkpt>
<trkpt lat="47.372043" lon="10.887255"><ele>1029.0</ele><time>2017-03-04T21:21:46Z</time></trkpt>
<trkpt lat="47.374024" lon="10.889048"><ele>1019.0</ele><time>2017-03-04T21:22:00Z</time></trkpt>
<trkpt lat="47.374236" lon="10.889188"><ele>1026.0</ele><time>2017-03-04T21:22:02Z</time></trkpt>
<trkpt lat="47.374725" lon="10.889363"><ele>1026.0</ele><time>2017-03-04T21:22:05Z</time></trkpt>
<trkpt lat="47.375086" lon="10.889452"><ele>1019.0</ele><time>2017-03-04T21:22:07Z</time></trkpt>
<trkpt lat="47.375308" lon="10.889458"><ele>1019.0</ele><time>2017-03-04T21:22:09Z</time></trkpt>
<trkpt lat="47.377196" lon="10.888908"><ele>1008.0</ele><time>2017-03-04T21:22:21Z</time></trkpt>
<trkpt lat="47.377678" lon="10.888825"><ele>999.0</ele><time>2017-03-04T21:22:24Z</time></trkpt>
<trkpt lat="47.378011" lon="10.888821"><ele>999.0</ele><time>2017-03-04T21:22:26Z</time></trkpt>
<trkpt lat="47.378473" lon="10.888902"><ele>999.0</ele><time>2017-03-04T21:22:29Z</time></trkpt>
<trkpt lat="47.378606" lon="10.888952"><ele>999.0</ele><time>2017-03-04T21:22:30Z</time></trkpt>
<trkpt lat="47.38071" lon="10.889939"><ele>1048.0</ele><time>2017-03-04T21:22:44Z</time></trkpt>
<trkpt lat="47.382078" lon="10.890889"><ele>1015.0</ele><time>2017-03-04T21:22:54Z</time></trkpt>
<trkpt lat="47.382424" lon="10.891189"><ele>1015.0</ele><time>2017-03-04T21:22:56Z</time></trkpt>
<trkpt lat="47.382621" lon="10.89129"><ele>1050.0</ele><time>2017-03-04T21:22:59Z</time></trkpt>
<trkpt lat="47.382942" lon="10.891417"><ele>1050.0</ele><time>2017-03-04T21:23:01Z</time></trkpt>
<trkpt lat="47.383236" lon="10.891604"><ele>1050.0</ele><time>2017-03-04T21:23:03Z</time></trkpt>
<trkpt lat="47.383564" lon="10.891893"><ele>1025.0</ele><time>2017-03-04T21:23:06Z</time></trkpt>
<trkpt lat="47.383845" lon="10.892247"><ele>1025.0</ele><time>2017-03-04T21:23:08Z</time></trkpt>
<trkpt lat="47.384581" lon="10.893017"><ele>1036.0</ele><time>2017-03-04T21:23:14Z</time></trkpt>
<trkpt lat="47.384688" lon="10.893182"><ele>1036.0</ele><time>2017-03-04T21:23:15Z</time></trkpt>
<trkpt lat="47.384806" lon="10.893458"><ele>1004.0</ele><time>2017-03-04T21:23:17Z</time></trkpt>
<trkpt lat="47.384858" lon="10.893617"><ele>1004.0</ele><time>2017-03-04T21:23:18Z</time></trkpt>
<trkpt lat="47.384895" lon="10.893796"><ele>1004.0</ele><time>2017-03-04T21:23:18Z</time></trkpt>
<trkpt lat="47.384932" lon="10.894154"><ele>1004.0</ele><time>2017-03-04T21:23:20Z</time></trkpt>
<trkpt lat="47.384989" lon="10.895201"><ele>988.0</ele><time>2017-03-04T21:23:25Z</time></trkpt>
<trkpt lat="47.385011" lon="10.895629"><ele>995.0</ele><time>2017-03-04T21:23:26Z</time></trkpt>
<trkpt lat="47.385002" lon="10.89578"><ele>995.0</ele><time>2017-03-04T21:23:27Z</time></trkpt>
<trkpt lat="47.384969" lon="10.895945"><ele>982.0</ele><time>2017-03-04T21:23:33Z</time></trkpt>
<trkpt lat="47.384804" lon="10.896259"><ele>982.0</ele><time>2017-03-04T21:23:34Z</time></trkpt>
<trkpt lat="47.384711" lon="10.89655"><ele>982.0</ele><time>2017-03-04T21:23:35Z</time></trkpt>
<trkpt lat="47.384702" lon="10.896801"><ele>977.0</ele><time>2017-03-04T21:23:36Z</time></trkpt>
<trkpt lat="47.384763" lon="10.897647"><ele>975.0</ele><time>2017-03-04T21:23:39Z</time></trkpt>
<trkpt lat="47.384738" lon="10.898099"><ele>975.0</ele><time>2017-03-04T21:23:41Z</time></trkpt>
<trkpt lat="47.384708" lon="10.898255"><ele>975.0</ele><time>2017-03-04T21:23:41Z</time></trkpt>
<trkpt lat="47.383935" lon="10.900336"><ele>970.0</ele><time>2017-03-04T21:23:49Z</time></trkpt>
<trkpt lat="47.38363" lon="10.901227"><ele>970.0</ele><time>2017-03-04T21:23:53Z</time></trkpt>
<trkpt lat="47.383518" lon="10.901696"><ele>968.0</ele><time>2017-03-04T21:23:55Z</time></trkpt>
<trkpt lat="47.383428" lon="10.902161"><ele>968.0</ele><time>2017-03-04T21:23:56Z</time></trkpt>
<trkpt lat="47.383344" lon="10.902863"><ele>968.0</ele><time>2017-03-04T21:23:59Z</time></trkpt>
<trkpt lat="47.383323" lon="10.903368"><ele>969.0</ele><time>2017-03-04T21:24:01Z</time></trkpt>
<trkpt lat="47.383329" lon="10.903728"><ele>969.0</ele><time>2017-03-04T21:24:02Z</time></trkpt>
<trkpt lat="47.383386" lon="10.904461"><ele>969.0</ele><time>2017-03-04T21:24:05Z</time></trkpt>
<trkpt lat="47.383435" lon="10.904751"><ele>969.0</ele><time>2017-03-04T21:24:06Z</time></trkpt>
<trkpt lat="47.383534" lon="10.905143"><ele>970.0</ele><time>2017-03-04T21:24:07Z</time></trkpt>
<trkpt lat="47.383727" lon="10.905643"><ele>970.0</ele><time>2017-03-04T21:24:09Z</time></trkpt>
<trkpt lat="47.384138" lon="10.906535"><ele>970.0</ele><time>2017-03-04T21:24:13Z</time></trkpt>
<trkpt lat="47.385015" lon="10.907706"><ele>965.0</ele><time>2017-03-04T21:24:19Z</time></trkpt>
<trkpt lat="47.38689" lon="10.909858"><ele>966.0</ele><time>2017-03-04T21:24:31Z</time></trkpt>
<trkpt lat="47.388742" lon="10.912072"><ele>968.0</ele><time>2017-03-04T21:24:44Z</time></trkpt>
<trkpt lat="47.389424" lon="10.912824"><ele>969.0</ele><time>2017-03-04T21:24:48Z</time></trkpt>
<trkpt lat="47.390055" lon="10.913333"><ele>969.0</ele><time>2017-03-04T21:24:52Z</time></trkpt>
<trkpt lat="47.390215" lon="10.913549"><ele>972.0</ele><time>2017-03-04T21:24:53Z</time></trkpt>
<trkpt lat="47.390642" lon="10.914486"><ele>980.0</ele><time>2017-03-04T21:24:57Z</time></trkpt>
<trkpt lat="47.390751" lon="10.914642"><ele>980.0</ele><time>2017-03-04T21:24:58Z</time></trkpt>
<trkpt lat="47.390764" lon="10.91465"><ele>977.5</ele><time>2017-03-04T21:24:58Z</time></trkpt>
<trkpt lat="47.390764" lon="10.91465"><ele>977.5</ele><time>2017-03-04T21:24:58Z</time></trkpt>
<trkpt lat="47.391098" lon="10.91486"><ele>975.0</ele><time>2017-03-04T21:25:00Z</time></trkpt>
<trkpt lat="47.391484" lon="10.914998"><ele>975.0</ele><time>2017-03-04T21:25:02Z</time></trkpt>
<trkpt lat="47.393388" lon="10.91452"><ele>979.0</ele><time>2017-03-04T21:25:11Z</time></trkpt>
<trkpt lat="47.394644" lon="10.914201"><ele>978.0</ele><time>2017-03-04T21:25:18Z</time></trkpt>
<trkpt lat="47.394682" lon="10.914297"><ele>978.0</ele><time>2017-03-04T21:25:18Z</time></trkpt>
<trkpt lat="47.394751" lon="10.914315"><ele>978.0</ele><time>2017-03-04T21:25:18Z</time></trkpt>
<trkpt lat="47.394781" lon="10.914294"><ele>978.0</ele><time>2017-03-04T21:25:19Z</time></trkpt>
<trkpt lat="47.394816" lon="10.91419"><ele>978.0</ele><time>2017-03-04T21:25:19Z</time></trkpt>
<trkpt lat="47.395226" lon="10.914313"><ele>978.0</ele><time>2017-03-04T21:25:21Z</time></trkpt>
<trkpt lat="47.395577" lon="10.914582"><ele>978.0</ele><time>2017-03-04T21:25:23Z</time></trkpt>
<trkpt lat="47.396465" lon="10.915358"><ele>981.0</ele><time>2017-03-04T21:25:29Z</time></trkpt>
<trkpt lat="47.397009" lon="10.916097"><ele>985.0</ele><time>2017-03-04T21:25:33Z</time></trkpt>
<trkpt lat="47.397212" lon="10.916397"><ele>985.0</ele><time>2017-03-04T21:25:35Z</time></trkpt>
<trkpt lat="47.397747" lon="10.91734"><ele>987.0</ele><time>2017-03-04T21:25:39Z</time></trkpt>
<trkpt lat="47.39859" lon="10.918538"><ele>990.0</ele><time>2017-03-04T21:25:46Z</time></trkpt>
<trkpt lat="47.398646" lon="10.91857"><ele>990.0</ele><time>2017-03-04T21:25:46Z</time></trkpt>
<trkpt lat="47.398739" lon="10.918566"><ele>990.0</ele><time>2017-03-04T21:25:47Z</time></trkpt>
<trkpt lat="47.398966" lon="10.918491"><ele>990.0</ele><time>2017-03-04T21:25:48Z</time></trkpt>
<trkpt lat="47.399224" lon="10.918372"><ele>986.0</ele><time>2017-03-04T21:25:50Z</time></trkpt>
<trkpt lat="47.399271" lon="10.918352"><ele>986.0</ele><time>2017-03-04T21:25:50Z</time></trkpt>
<trkpt lat="47.399486" lon="10.918151"><ele>981.0</ele><time>2017-03-04T21:25:52Z</time></trkpt>
<trkpt lat="47.399601" lon="10.918132"><ele>981.0</ele><time>2017-03-04T21:25:53Z</time></trkpt>
<trkpt lat="47.399819" lon="10.918207"><ele>981.0</ele><time>2017-03-04T21:25:55Z</time></trkpt>
<trkpt lat="47.399981" lon="10.918321"><ele>981.0</ele><time>2017-03-04T21:25:56Z</time></trkpt>
<trkpt lat="47.400232" lon="10.91856"><ele>977.0</ele><time>2017-03-04T21:25:59Z</time></trkpt>
<trkpt lat="47.400306" lon="10.918666"><ele>977.0</ele><time>2017-03-04T21:26:00Z</time></trkpt>
<trkpt lat="47.400595" lon="10.919209"><ele>984.0</ele><time>2017-03-04T21:26:04Z</time></trkpt>
<trkpt lat="47.40086" lon="10.919506"><ele>978.0</ele><time>2017-03-04T21:26:07Z</time></trkpt>
<trkpt lat="47.401213" lon="10.919722"><ele>978.0</ele><time>2017-03-04T21:26:10Z</time></trkpt>
<trkpt lat="47.401411" lon="10.919782"><ele>978.0</ele><time>2017-03-04T21:26:11Z</time></trkpt>
<trkpt lat="47.401691" lon="10.919752"><ele>977.0</ele><time>2017-03-04T21:26:14Z</time></trkpt>
<trkpt lat="47.402064" lon="10.919647"><ele>977.0</ele><time>2017-03-04T21:26:17Z</time></trkpt>
<trkpt lat="47.402871" lon="10.919717"><ele>977.0</ele><time>2017-03-04T21:26:24Z</time></trkpt>
<trkpt lat="47.404346" lon="10.919133"><ele>976.0</ele><time>2017-03-04T21:26:36Z</time></trkpt>
<trkpt lat="47.40477" lon="10.918943"><ele>976.0</ele><time>2017-03-04T21:26:40Z</time></trkpt>
<trkpt lat="47.405114" lon="10.918713"><ele>980.0</ele><time>2017-03-04T21:26:43Z</time></trkpt>
<trkpt lat="47.405402" lon="10.918322"><ele>976.0</ele><time>2017-03-04T21:26:46Z</time></trkpt>
<trkpt lat="47.405579" lon="10.917804"><ele>976.0</ele><time>2017-03-04T21:26:50Z</time></trkpt>
<trkpt lat="47.405835" lon="10.917515"><ele>980.0</ele><time>2017-03-04T21:26:52Z</time></trkpt>
<trkpt lat="47.40606" lon="10.917302"><ele>978.0</ele><time>2017-03-04T21:26:55Z</time></trkpt>
<trkpt lat="47.406226" lon="10.917057"><ele>978.0</ele><time>2017-03-04T21:26:57Z</time></trkpt>
<trkpt lat="47.406412" lon="10.916736"><ele>978.0</ele><time>2017-03-04T21:26:59Z</time></trkpt>
<trkpt lat="47.406498" lon="10.916452"><ele>971.0</ele><time>2017-03-04T21:27:02Z</time></trkpt>
<trkpt lat="47.406989" lon="10.915366"><ele>972.0</ele><time>2017-03-04T21:27:13Z</time></trkpt>
<trkpt lat="47.407106" lon="10.914993"><ele>972.0</ele><time>2017-03-04T21:27:16Z</time></trkpt>
<trkpt lat="47.407427" lon="10.913678"><ele>970.0</ele><time>2017-03-04T21:27:28Z</time></trkpt>
<trkpt lat="47.407524" lon="10.913213"><ele>967.0</ele><time>2017-03-04T21:27:32Z</time></trkpt>
<trkpt lat="47.407592" lon="10.912569"><ele>967.0</ele><time>2017-03-04T21:27:38Z</time></trkpt>
<trkpt lat="47.407602" lon="10.912358"><ele>970.0</ele><time>2017-03-04T21:27:39Z</time></trkpt>
<trkpt lat="47.407579" lon="10.912036"><ele>970.0</ele><time>2017-03-04T21:27:42Z</time></trkpt>
<trkpt lat="47.407607" lon="10.911816"><ele>970.0</ele><time>2017-03-04T21:27:44Z</time></trkpt>
<trkpt lat="47.407614" lon="10.911728"><ele>970.0</ele><time>2017-03-04T21:27:45Z</time></trkpt>
<trkpt lat="47.407654" lon="10.911644"><ele>997.0</ele><time>2017-03-04T21:27:48Z</time></trkpt>
<trkpt lat="47.407709" lon="10.911574"><ele>997.0</ele><time>2017-03-04T21:27:48Z</time></trkpt>
<trkpt lat="47.407866" lon="10.911532"><ele>997.0</ele><time>2017-03-04T21:27:49Z</time></trkpt>
<trkpt lat="47.408447" lon="10.911709"><ele>980.0</ele><time>2017-03-04T21:27:53Z</time></trkpt>
<trkpt lat="47.409088" lon="10.911943"><ele>980.0</ele><time>2017-03-04T21:27:58Z</time></trkpt>
<trkpt lat="47.410884" lon="10.913216"><ele>999.0</ele><time>2017-03-04T21:28:10Z</time></trkpt>
<trkpt lat="47.411104" lon="10.913275"><ele>999.0</ele><time>2017-03-04T21:28:12Z</time></trkpt>
<trkpt lat="47.412329" lon="10.913273"><ele>1013.0</ele><time>2017-03-04T21:28:19Z</time></trkpt>
<trkpt lat="47.412567" lon="10.913319"><ele>1011.0</ele><time>2017-03-04T21:28:21Z</time></trkpt>
<trkpt lat="47.412796" lon="10.913433"><ele>970.0</ele><time>2017-03-04T21:28:24Z</time></trkpt>
<trkpt lat="47.412992" lon="10.913604"><ele>970.0</ele><time>2017-03-04T21:28:25Z</time></trkpt>
<trkpt lat="47.413291" lon="10.913763"><ele>970.0</ele><time>2017-03-04T21:28:27Z</time></trkpt>
<trkpt lat="47.415559" lon="10.914524"><ele>956.0</ele><time>2017-03-04T21:28:42Z</time></trkpt>
<trkpt lat="47.415909" lon="10.914713"><ele>951.0</ele><time>2017-03-04T21:28:44Z</time></trkpt>
<trkpt lat="47.417947" lon="10.91619"><ele>954.0</ele><time>2017-03-04T21:28:59Z</time></trkpt>
<trkpt lat="47.419143" lon="10.916804"><ele>947.0</ele><time>2017-03-04T21:29:07Z</time></trkpt>
<trkpt lat="47.422128" lon="10.919121"><ele>939.0</ele><time>2017-03-04T21:29:28Z</time></trkpt>
<trkpt lat="47.423004" lon="10.919588"><ele>938.0</ele><time>2017-03-04T21:29:34Z</time></trkpt>
<trkpt lat="47.423335" lon="10.919656"><ele>938.0</ele><time>2017-03-04T21:29:36Z</time></trkpt>
<trkpt lat="47.423634" lon="10.919605"><ele>938.0</ele><time>2017-03-04T21:29:38Z</time></trkpt>
<trkpt lat="47.424087" lon="10.919321"><ele>938.0</ele><time>2017-03-04T21:29:41Z</time></trkpt>
<trkpt lat="47.424456" lon="10.919258"><ele>934.0</ele><time>2017-03-04T21:29:44Z</time></trkpt>
<trkpt lat="47.425063" lon="10.919107"><ele>933.0</ele><time>2017-03-04T21:29:48Z</time></trkpt>
<trkpt lat="47.426444" lon="10.918305"><ele>942.0</ele><time>2017-03-04T21:29:57Z</time></trkpt>
<trkpt lat="47.426702" lon="10.918255"><ele>929.0</ele><time>2017-03-04T21:29:59Z</time></trkpt>
<trkpt lat="47.426981" lon="10.918261"><ele>929.0</ele><time>2017-03-04T21:30:01Z</time></trkpt>
<trkpt lat="47.428649" lon="10.918417"><ele>920.0</ele><time>2017-03-04T21:30:11Z</time></trkpt>
<trkpt lat="47.428982" lon="10.918381"><ele>920.0</ele><time>2017-03-04T21:30:13Z</time></trkpt>
<trkpt lat="47.429666" lon="10.918098"><ele>916.0</ele><time>2017-03-04T21:30:18Z</time></trkpt>
<trkpt lat="47.429947" lon="10.918083"><ele>916.0</ele><time>2017-03-04T21:30:20Z</time></trkpt>
<trkpt lat="47.430179" lon="10.918136"><ele>913.0</ele><time>2017-03-04T21:30:21Z</time></trkpt>
<trkpt lat="47.432359" lon="10.918861"><ele>910.0</ele><time>2017-03-04T21:30:35Z</time></trkpt>
<trkpt lat="47.43428" lon="10.920092"><ele>904.0</ele><time>2017-03-04T21:30:49Z</time></trkpt>
<trkpt lat="47.434837" lon="10.920489"><ele>904.0</ele><time>2017-03-04T21:30:52Z</time></trkpt>
<trkpt lat="47.436318" lon="10.921815"><ele>899.0</ele><time>2017-03-04T21:31:03Z</time></trkpt>
<trkpt lat="47.436712" lon="10.922069"><ele>895.0</ele><time>2017-03-04T21:31:06Z</time></trkpt>
<trkpt lat="47.436912" lon="10.922164"><ele>895.0</ele><time>2017-03-04T21:31:08Z</time></trkpt>
<trkpt lat="47.437116" lon="10.922213"><ele>895.0</ele><time>2017-03-04T21:31:09Z</time></trkpt>
<trkpt lat="47.437541" lon="10.922235"><ele>893.0</ele><time>2017-03-04T21:31:12Z</time></trkpt>
<trkpt lat="47.438003" lon="10.922188"><ele>893.0</ele><time>2017-03-04T21:31:14Z</time></trkpt>
<trkpt lat="47.438563" lon="10.922052"><ele>892.0</ele><time>2017-03-04T21:31:18Z</time></trkpt>
<trkpt lat="47.440807" lon="10.921408"><ele>893.0</ele><time>2017-03-04T21:31:33Z</time></trkpt>
<trkpt lat="47.441846" lon="10.92119"><ele>891.0</ele><time>2017-03-04T21:31:39Z</time></trkpt>
<trkpt lat="47.44352" lon="10.921048"><ele>888.0</ele><time>2017-03-04T21:31:50Z</time></trkpt>
<trkpt lat="47.444668" lon="10.921301"><ele>887.0</ele><time>2017-03-04T21:31:57Z</time></trkpt>
<trkpt lat="47.445282" lon="10.921533"><ele>881.0</ele><time>2017-03-04T21:32:01Z</time></trkpt>
<trkpt lat="47.445802" lon="10.921892"><ele>884.0</ele><time>2017-03-04T21:32:05Z</time></trkpt>
<trkpt lat="47.44606" lon="10.922143"><ele>882.0</ele><time>2017-03-04T21:32:07Z</time></trkpt>
<trkpt lat="47.446257" lon="10.922299"><ele>882.0</ele><time>2017-03-04T21:32:08Z</time></trkpt>
<trkpt lat="47.446462" lon="10.922404"><ele>882.0</ele><time>2017-03-04T21:32:10Z</time></trkpt>
<trkpt lat="47.447423" lon="10.92262"><ele>878.0</ele><time>2017-03-04T21:32:16Z</time></trkpt>
<trkpt lat="47.447963" lon="10.922814"><ele>880.0</ele><time>2017-03-04T21:32:19Z</time></trkpt>
<trkpt lat="47.449171" lon="10.923515"><ele>873.0</ele><time>2017-03-04T21:32:28Z</time></trkpt>
<trkpt lat="47.449819" lon="10.923776"><ele>873.0</ele><time>2017-03-04T21:32:32Z</time></trkpt>
<trkpt lat="47.450483" lon="10.923866"><ele>870.0</ele><time>2017-03-04T21:32:36Z</time></trkpt>
<trkpt lat="47.451132" lon="10.923851"><ele>861.0</ele><time>2017-03-04T21:32:40Z</time></trkpt>
<trkpt lat="47.45354" lon="10.92312"><ele>860.0</ele><time>2017-03-04T21:32:56Z</time></trkpt>
<trkpt lat="47.454121" lon="10.922962"><ele>860.0</ele><time>2017-03-04T21:33:00Z</time></trkpt>
<trkpt lat="47.454869" lon="10.923029"><ele>859.0</ele><time>2017-03-04T21:33:04Z</time></trkpt>
<trkpt lat="47.455305" lon="10.923006"><ele>858.0</ele><time>2017-03-04T21:33:07Z</time></trkpt>
<trkpt lat="47.455705" lon="10.922932"><ele>858.0</ele><time>2017-03-04T21:33:10Z</time></trkpt>
<trkpt lat="47.45618" lon="10.922726"><ele>857.0</ele><time>2017-03-04T21:33:13Z</time></trkpt>
<trkpt lat="47.456526" lon="10.922507"><ele>857.0</ele><time>2017-03-04T21:33:15Z</time></trkpt>
<trkpt lat="47.456856" lon="10.922181"><ele>855.0</ele><time>2017-03-04T21:33:18Z</time></trkpt>
<trkpt lat="47.457774" lon="10.920994"><ele>860.0</ele><time>2017-03-04T21:33:25Z</time></trkpt>
<trkpt lat="47.458038" lon="10.920771"><ele>880.0</ele><time>2017-03-04T21:33:28Z</time></trkpt>
<trkpt lat="47.458276" lon="10.920659"><ele>880.0</ele><time>2017-03-04T21:33:29Z</time></trkpt>
<trkpt lat="47.458663" lon="10.920534"><ele>867.0</ele><time>2017-03-04T21:33:32Z</time></trkpt>
<trkpt lat="47.45905" lon="10.920468"><ele>867.0</ele><time>2017-03-04T21:33:34Z</time></trkpt>
<trkpt lat="47.459405" lon="10.920446"><ele>864.0</ele><time>2017-03-04T21:33:37Z</time></trkpt>
<trkpt lat="47.459719" lon="10.920492"><ele>864.0</ele><time>2017-03-04T21:33:39Z</time></trkpt>
<trkpt lat="47.460158" lon="10.920595"><ele>857.0</ele><time>2017-03-04T21:33:41Z</time></trkpt>
<trkpt lat="47.461456" lon="10.920978"><ele>852.0</ele><time>2017-03-04T21:33:50Z</time></trkpt>
<trkpt lat="47.462161" lon="10.92129"><ele>859.0</ele><time>2017-03-04T21:33:55Z</time></trkpt>
<trkpt lat="47.464492" lon="10.922716"><ele>854.0</ele><time>2017-03-04T21:34:11Z</time></trkpt>
<trkpt lat="47.464895" lon="10.922926"><ele>854.0</ele><time>2017-03-04T21:34:13Z</time></trkpt>
<trkpt lat="47.465188" lon="10.92314"><ele>869.0</ele><time>2017-03-04T21:34:16Z</time></trkpt>
<trkpt lat="47.465403" lon="10.923332"><ele>860.0</ele><time>2017-03-04T21:34:18Z</time></trkpt>
<trkpt lat="47.465403" lon="10.923332"><ele>860.0</ele><time>2017-03-04T21:34:18Z</time></trkpt>
<trkpt lat="47.465661" lon="10.923654"><ele>851.0</ele><time>2017-03-04T21:34:20Z</time></trkpt>
<trkpt lat="47.465886" lon="10.924017"><ele>855.0</ele><time>2017-03-04T21:34:22Z</time></trkpt>
<trkpt lat="47.466046" lon="10.924405"><ele>848.0</ele><time>2017-03-04T21:34:24Z</time></trkpt>
<trkpt lat="47.466756" lon="10.926523"><ele>864.0</ele><time>2017-03-04T21:34:33Z</time></trkpt>
<trkpt lat="47.466935" lon="10.926982"><ele>863.0</ele><time>2017-03-04T21:34:36Z</time></trkpt>
<trkpt lat="47.467105" lon="10.927296"><ele>863.0</ele><time>2017-03-04T21:34:37Z</time></trkpt>
<trkpt lat="47.467294" lon="10.927567"><ele>844.0</ele><time>2017-03-04T21:34:39Z</time></trkpt>
<trkpt lat="47.46865" lon="10.929129"><ele>844.0</ele><time>2017-03-04T21:34:49Z</time></trkpt>
<trkpt lat="47.468871" lon="10.929341"><ele>833.0</ele><time>2017-03-04T21:34:51Z</time></trkpt>
<trkpt lat="47.469393" lon="10.929699"><ele>855.0</ele><time>2017-03-04T21:34:55Z</time></trkpt>
<trkpt lat="47.469823" lon="10.930021"><ele>841.0</ele><time>2017-03-04T21:34:58Z</time></trkpt>
<trkpt lat="47.470021" lon="10.930252"><ele>870.0</ele><time>2017-03-04T21:35:00Z</time></trkpt>
<trkpt lat="47.470549" lon="10.931045"><ele>849.0</ele><time>2017-03-04T21:35:05Z</time></trkpt>
<trkpt lat="47.471274" lon="10.932056"><ele>857.0</ele><time>2017-03-04T21:35:11Z</time></trkpt>
<trkpt lat="47.473944" lon="10.935918"><ele>842.0</ele><time>2017-03-04T21:35:33Z</time></trkpt>
<trkpt lat="47.474885" lon="10.937532"><ele>830.0</ele><time>2017-03-04T21:35:42Z</time></trkpt>
<trkpt lat="47.475069" lon="10.937788"><ele>857.0</ele><time>2017-03-04T21:35:44Z</time></trkpt>
<trkpt lat="47.475415" lon="10.938145"><ele>857.0</ele><time>2017-03-04T21:35:47Z</time></trkpt>
<trkpt lat="47.475783" lon="10.938402"><ele>836.0</ele><time>2017-03-04T21:35:49Z</time></trkpt>
<trkpt lat="47.476209" lon="10.938615"><ele>846.0</ele><time>2017-03-04T21:35:52Z</time></trkpt>
<trkpt lat="47.476422" lon="10.938684"><ele>846.0</ele><time>2017-03-04T21:35:53Z</time></trkpt>
<trkpt lat="47.476868" lon="10.938913"><ele>856.0</ele><time>2017-03-04T21:35:56Z</time></trkpt>
<trkpt lat="47.47705" lon="10.939064"><ele>856.0</ele><time>2017-03-04T21:35:57Z</time></trkpt>
<trkpt lat="47.477172" lon="10.939202"><ele>839.0</ele><time>2017-03-04T21:35:59Z</time></trkpt>
<trkpt lat="47.4774" lon="10.939521"><ele>839.0</ele><time>2017-03-04T21:36:01Z</time></trkpt>
<trkpt lat="47.477574" lon="10.939895"><ele>841.0</ele><time>2017-03-04T21:36:03Z</time></trkpt>
<trkpt lat="47.477662" lon="10.940175"><ele>832.0</ele><time>2017-03-04T21:36:04Z</time></trkpt>
<trkpt lat="47.477783" lon="10.940734"><ele>832.0</ele><time>2017-03-04T21:36:06Z</time></trkpt>
<trkpt lat="47.477817" lon="10.941016"><ele>832.0</ele><time>2017-03-04T21:36:07Z</time></trkpt>
<trkpt lat="47.477836" lon="10.941472"><ele>832.0</ele><time>2017-03-04T21:36:09Z</time></trkpt>
<trkpt lat="47.478128" lon="10.944465"><ele>828.0</ele><time>2017-03-04T21:36:22Z</time></trkpt>
<trkpt lat="47.47817" lon="10.944739"><ele>828.0</ele><time>2017-03-04T21:36:23Z</time></trkpt>
<trkpt lat="47.478289" lon="10.945211"><ele>820.0</ele><time>2017-03-04T21:36:25Z</time></trkpt>
<trkpt lat="47.478347" lon="10.945381"><ele>843.0</ele><time>2017-03-04T21:36:26Z</time></trkpt>
<trkpt lat="47.478862" lon="10.946525"><ele>827.0</ele><time>2017-03-04T21:36:32Z</time></trkpt>
<trkpt lat="47.479355" lon="10.947487"><ele>847.0</ele><time>2017-03-04T21:36:37Z</time></trkpt>
<trkpt lat="47.48007" lon="10.949029"><ele>864.0</ele><time>2017-03-04T21:36:45Z</time></trkpt>
<trkpt lat="47.480215" lon="10.949424"><ele>851.0</ele><time>2017-03-04T21:36:47Z</time></trkpt>
<trkpt lat="47.480319" lon="10.949795"><ele>851.0</ele><time>2017-03-04T21:36:48Z</time></trkpt>
<trkpt lat="47.480375" lon="10.950161"><ele>848.0</ele><time>2017-03-04T21:36:50Z</time></trkpt>
<trkpt lat="47.480403" lon="10.950471"><ele>848.0</ele><time>2017-03-04T21:36:51Z</time></trkpt>
<trkpt lat="47.480432" lon="10.951771"><ele>837.0</ele><time>2017-03-04T21:36:56Z</time></trkpt>
<trkpt lat="47.480412" lon="10.952432"><ele>837.0</ele><time>2017-03-04T21:36:59Z</time></trkpt>
<trkpt lat="47.480396" lon="10.954393"><ele>840.0</ele><time>2017-03-04T21:37:07Z</time></trkpt>
<trkpt lat="47.480333" lon="10.957003"><ele>835.0</ele><time>2017-03-04T21:37:18Z</time></trkpt>
<trkpt lat="47.480227" lon="10.963794"><ele>825.0</ele><time>2017-03-04T21:37:45Z</time></trkpt>
<trkpt lat="47.480247" lon="10.965065"><ele>835.0</ele><time>2017-03-04T21:37:51Z</time></trkpt>
<trkpt lat="47.480288" lon="10.9654"><ele>835.0</ele><time>2017-03-04T21:37:52Z</time></trkpt>
<trkpt lat="47.480458" lon="10.96628"><ele>831.0</ele><time>2017-03-04T21:37:56Z</time></trkpt>
<trkpt lat="47.480554" lon="10.96692"><ele>829.0</ele><time>2017-03-04T21:37:58Z</time></trkpt>
<trkpt lat="47.480621" lon="10.970316"><ele>827.0</ele><time>2017-03-04T21:38:12Z</time></trkpt>
<trkpt lat="47.480664" lon="10.97092"><ele>826.0</ele><time>2017-03-04T21:38:15Z</time></trkpt>
<trkpt lat="47.480734" lon="10.971413"><ele>826.0</ele><time>2017-03-04T21:38:17Z</time></trkpt>
<trkpt lat="47.480837" lon="10.971822"><ele>838.0</ele><time>2017-03-04T21:38:19Z</time></trkpt>
<trkpt lat="47.481276" lon="10.973174"><ele>829.0</ele><time>2017-03-04T21:38:25Z</time></trkpt>
<trkpt lat="47.481401" lon="10.973509"><ele>816.0</ele><time>2017-03-04T21:38:27Z</time></trkpt>
<trkpt lat="47.481525" lon="10.973763"><ele>816.0</ele><time>2017-03-04T21:38:28Z</time></trkpt>
<trkpt lat="47.481698" lon="10.974046"><ele>821.0</ele><time>2017-03-04T21:38:29Z</time></trkpt>
<trkpt lat="47.481999" lon="10.974461"><ele>812.0</ele><time>2017-03-04T21:38:32Z</time></trkpt>
<trkpt lat="47.482098" lon="10.974545"><ele>812.0</ele><time>2017-03-04T21:38:33Z</time></trkpt>
<trkpt lat="47.482368" lon="10.974716"><ele>812.0</ele><time>2017-03-04T21:38:34Z</time></trkpt>
<trkpt lat="47.482872" lon="10.974956"><ele>812.0</ele><time>2017-03-04T21:38:38Z</time></trkpt>
<trkpt lat="47.483102" lon="10.975087"><ele>803.0</ele><time>2017-03-04T21:38:39Z</time></trkpt>
<trkpt lat="47.483426" lon="10.975347"><ele>803.0</ele><time>2017-03-04T21:38:41Z</time></trkpt>
<trkpt lat="47.483868" lon="10.97581"><ele>803.0</ele><time>2017-03-04T21:38:45Z</time></trkpt>
<trkpt lat="47.484142" lon="10.976195"><ele>800.0</ele><time>2017-03-04T21:38:47Z</time></trkpt>
<trkpt lat="47.484362" lon="10.9766"><ele>826.0</ele><time>2017-03-04T21:38:49Z</time></trkpt>
<trkpt lat="47.484598" lon="10.977083"><ele>820.0</ele><time>2017-03-04T21:38:52Z</time></trkpt>
<trkpt lat="47.484664" lon="10.977276"><ele>820.0</ele><time>2017-03-04T21:38:53Z</time></trkpt>
<trkpt lat="47.484823" lon="10.977995"><ele>821.0</ele><time>2017-03-04T21:38:56Z</time></trkpt>
<trkpt lat="47.484856" lon="10.978542"><ele>824.0</ele><time>2017-03-04T21:38:58Z</time></trkpt>
<trkpt lat="47.484846" lon="10.978883"><ele>824.0</ele><time>2017-03-04T21:38:59Z</time></trkpt>
<trkpt lat="47.484803" lon="10.979206"><ele>832.0</ele><time>2017-03-04T21:39:01Z</time></trkpt>
<trkpt lat="47.484738" lon="10.979524"><ele>832.0</ele><time>2017-03-04T21:39:02Z</time></trkpt>
<trkpt lat="47.484494" lon="10.980321"><ele>829.0</ele><time>2017-03-04T21:39:06Z</time></trkpt>
<trkpt lat="47.484436" lon="10.980685"><ele>829.0</ele><time>2017-03-04T21:39:07Z</time></trkpt>
<trkpt lat="47.484394" lon="10.981347"><ele>827.0</ele><time>2017-03-04T21:39:10Z</time></trkpt>
<trkpt lat="47.48441" lon="10.982202"><ele>832.0</ele><time>2017-03-04T21:39:14Z</time></trkpt>
<trkpt lat="47.484392" lon="10.982642"><ele>835.0</ele><time>2017-03-04T21:39:15Z</time></trkpt>
<trkpt lat="47.484177" lon="10.984529"><ele>850.0</ele><time>2017-03-04T21:39:23Z</time></trkpt>
<trkpt lat="47.484001" lon="10.985539"><ele>811.0</ele><time>2017-03-04T21:39:28Z</time></trkpt>
<trkpt lat="47.483853" lon="10.986064"><ele>818.0</ele><time>2017-03-04T21:39:30Z</time></trkpt>
<trkpt lat="47.483729" lon="10.986389"><ele>818.0</ele><time>2017-03-04T21:39:32Z</time></trkpt>
<trkpt lat="47.483475" lon="10.986969"><ele>832.0</ele><time>2017-03-04T21:39:35Z</time></trkpt>
<trkpt lat="47.483276" lon="10.987341"><ele>801.0</ele><time>2017-03-04T21:39:37Z</time></trkpt>
<trkpt lat="47.482841" lon="10.988014"><ele>804.0</ele><time>2017-03-04T21:39:41Z</time></trkpt>
<trkpt lat="47.482642" lon="10.988363"><ele>822.0</ele><time>2017-03-04T21:39:43Z</time></trkpt>
<trkpt lat="47.482497" lon="10.988677"><ele>801.0</ele><time>2017-03-04T21:39:45Z</time></trkpt>
<trkpt lat="47.48238" lon="10.988957"><ele>801.0</ele><time>2017-03-04T21:39:46Z</time></trkpt>
<trkpt lat="47.482224" lon="10.98948"><ele>806.0</ele><time>2017-03-04T21:39:49Z</time></trkpt>
<trkpt lat="47.482167" lon="10.989763"><ele>806.0</ele><time>2017-03-04T21:39:50Z</time></trkpt>
<trkpt lat="47.482108" lon="10.990247"><ele>810.0</ele><time>2017-03-04T21:39:52Z</time></trkpt>
<trkpt lat="47.482081" lon="10.990837"><ele>811.0</ele><time>2017-03-04T21:39:54Z</time></trkpt>
<trkpt lat="47.482081" lon="10.992709"><ele>808.0</ele><time>2017-03-04T21:40:02Z</time></trkpt>
<trkpt lat="47.482118" lon="10.993213"><ele>808.0</ele><time>2017-03-04T21:40:04Z</time></trkpt>
<trkpt lat="47.482325" lon="10.995007"><ele>802.0</ele><time>2017-03-04T21:40:11Z</time></trkpt>
<trkpt lat="47.482362" lon="10.995664"><ele>802.0</ele><time>2017-03-04T21:40:14Z</time></trkpt>
<trkpt lat="47.482368" lon="10.996248"><ele>798.0</ele><time>2017-03-04T21:40:17Z</time></trkpt>
<trkpt lat="47.482319" lon="10.996845"><ele>795.0</ele><time>2017-03-04T21:40:19Z</time></trkpt>
<trkpt lat="47.482225" lon="10.997403"><ele>795.0</ele><time>2017-03-04T21:40:21Z</time></trkpt>
<trkpt lat="47.482119" lon="10.997855"><ele>798.0</ele><time>2017-03-04T21:40:23Z</time></trkpt>
<trkpt lat="47.481791" lon="10.998972"><ele>805.0</ele><time>2017-03-04T21:40:28Z</time></trkpt>
<trkpt lat="47.481713" lon="10.999307"><ele>816.0</ele><time>2017-03-04T21:40:30Z</time></trkpt>
<trkpt lat="47.481622" lon="10.999897"><ele>796.0</ele><time>2017-03-04T21:40:33Z</time></trkpt>
<trkpt lat="47.481572" lon="11.000371"><ele>799.0</ele><time>2017-03-04T21:40:35Z</time></trkpt>
<trkpt lat="47.481503" lon="11.001996"><ele>794.0</ele><time>2017-03-04T21:40:41Z</time></trkpt>
<trkpt lat="47.481476" lon="11.00304"><ele>796.0</ele><time>2017-03-04T21:40:45Z</time></trkpt>
<trkpt lat="47.481506" lon="11.003632"><ele>796.0</ele><time>2017-03-04T21:40:48Z</time></trkpt>
<trkpt lat="47.481579" lon="11.004271"><ele>790.0</ele><time>2017-03-04T21:40:50Z</time></trkpt>
<trkpt lat="47.481592" lon="11.004719"><ele>790.0</ele><time>2017-03-04T21:40:52Z</time></trkpt>
<trkpt lat="47.481543" lon="11.0058"><ele>789.0</ele><time>2017-03-04T21:40:57Z</time></trkpt>
<trkpt lat="47.481558" lon="11.006292"><ele>790.0</ele><time>2017-03-04T21:40:59Z</time></trkpt>
<trkpt lat="47.4817" lon="11.008389"><ele>803.0</ele><time>2017-03-04T21:41:07Z</time></trkpt>
<trkpt lat="47.481818" lon="11.010678"><ele>793.0</ele><time>2017-03-04T21:41:17Z</time></trkpt>
<trkpt lat="47.481795" lon="11.011241"><ele>789.0</ele><time>2017-03-04T21:41:19Z</time></trkpt>
<trkpt lat="47.481762" lon="11.01153"><ele>789.0</ele><time>2017-03-04T21:41:20Z</time></trkpt>
<trkpt lat="47.481691" lon="11.011898"><ele>786.0</ele><time>2017-03-04T21:41:22Z</time></trkpt>
<trkpt lat="47.481514" lon="11.012631"><ele>776.0</ele><time>2017-03-04T21:41:25Z</time></trkpt>
<trkpt lat="47.481465" lon="11.013018"><ele>776.0</ele><time>2017-03-04T21:41:27Z</time></trkpt>
<trkpt lat="47.481432" lon="11.014206"><ele>776.0</ele><time>2017-03-04T21:41:31Z</time></trkpt>
<trkpt lat="47.481397" lon="11.014712"><ele>776.0</ele><time>2017-03-04T21:41:34Z</time></trkpt>
<trkpt lat="47.481411" lon="11.01507"><ele>775.0</ele><time>2017-03-04T21:41:35Z</time></trkpt>
<trkpt lat="47.481389" lon="11.015496"><ele>775.0</ele><time>2017-03-04T21:41:37Z</time></trkpt>
<trkpt lat="47.481393" lon="11.017527"><ele>773.0</ele><time>2017-03-04T21:41:45Z</time></trkpt>
<trkpt lat="47.481445" lon="11.018262"><ele>773.0</ele><time>2017-03-04T21:41:48Z</time></trkpt>
<trkpt lat="47.481445" lon="11.018924"><ele>770.0</ele><time>2017-03-04T21:41:51Z</time></trkpt>
<trkpt lat="47.481486" lon="11.020168"><ele>765.0</ele><time>2017-03-04T21:41:56Z</time></trkpt>
<trkpt lat="47.481592" lon="11.02122"><ele>765.0</ele><time>2017-03-04T21:42:00Z</time></trkpt>
<trkpt lat="47.48176" lon="11.022631"><ele>766.0</ele><time>2017-03-04T21:42:06Z</time></trkpt>
<trkpt lat="47.481885" lon="11.024094"><ele>763.0</ele><time>2017-03-04T21:42:12Z</time></trkpt>
<trkpt lat="47.482041" lon="11.026241"><ele>754.0</ele><time>2017-03-04T21:42:21Z</time></trkpt>
<trkpt lat="47.482098" lon="11.026817"><ele>754.0</ele><time>2017-03-04T21:42:23Z</time></trkpt>
<trkpt lat="47.482166" lon="11.027199"><ele>754.0</ele><time>2017-03-04T21:42:25Z</time></trkpt>
<trkpt lat="47.482257" lon="11.027564"><ele>757.0</ele><time>2017-03-04T21:42:26Z</time></trkpt>
<trkpt lat="47.48234" lon="11.027809"><ele>757.0</ele><time>2017-03-04T21:42:27Z</time></trkpt>
<trkpt lat="47.482654" lon="11.028545"><ele>759.0</ele><time>2017-03-04T21:42:31Z</time></trkpt>
<trkpt lat="47.482889" lon="11.029036"><ele>759.0</ele><time>2017-03-04T21:42:33Z</time></trkpt>
<trkpt lat="47.483209" lon="11.030748"><ele>752.0</ele><time>2017-03-04T21:42:41Z</time></trkpt>
<trkpt lat="47.483271" lon="11.031192"><ele>756.0</ele><time>2017-03-04T21:42:43Z</time></trkpt>
<trkpt lat="47.483251" lon="11.032683"><ele>760.0</ele><time>2017-03-04T21:42:49Z</time></trkpt>
<trkpt lat="47.483265" lon="11.032923"><ele>760.0</ele><time>2017-03-04T21:42:50Z</time></trkpt>
<trkpt lat="47.48348" lon="11.034522"><ele>748.0</ele><time>2017-03-04T21:42:56Z</time></trkpt>
<trkpt lat="47.483507" lon="11.034926"><ele>748.0</ele><time>2017-03-04T21:42:58Z</time></trkpt>
<trkpt lat="47.483492" lon="11.035392"><ele>756.0</ele><time>2017-03-04T21:43:00Z</time></trkpt>
<trkpt lat="47.483518" lon="11.036615"><ele>759.0</ele><time>2017-03-04T21:43:05Z</time></trkpt>
<trkpt lat="47.483473" lon="11.03764"><ele>750.0</ele><time>2017-03-04T21:43:09Z</time></trkpt>
<trkpt lat="47.483409" lon="11.038133"><ele>750.0</ele><time>2017-03-04T21:43:11Z</time></trkpt>
<trkpt lat="47.483341" lon="11.038443"><ele>751.0</ele><time>2017-03-04T21:43:12Z</time></trkpt>
<trkpt lat="47.483156" lon="11.03914"><ele>755.0</ele><time>2017-03-04T21:43:16Z</time></trkpt>
<trkpt lat="47.483078" lon="11.039366"><ele>746.0</ele><time>2017-03-04T21:43:17Z</time></trkpt>
<trkpt lat="47.48288" lon="11.039744"><ele>746.0</ele><time>2017-03-04T21:43:19Z</time></trkpt>
<trkpt lat="47.482804" lon="11.039985"><ele>746.0</ele><time>2017-03-04T21:43:20Z</time></trkpt>
<trkpt lat="47.482727" lon="11.040635"><ele>739.0</ele><time>2017-03-04T21:43:22Z</time></trkpt>
<trkpt lat="47.482665" lon="11.040995"><ele>736.0</ele><time>2017-03-04T21:43:24Z</time></trkpt>
<trkpt lat="47.481999" lon="11.043419"><ele>738.0</ele><time>2017-03-04T21:43:35Z</time></trkpt>
<trkpt lat="47.481802" lon="11.044058"><ele>738.0</ele><time>2017-03-04T21:43:37Z</time></trkpt>
<trkpt lat="47.481529" lon="11.044868"><ele>748.0</ele><time>2017-03-04T21:43:41Z</time></trkpt>
<trkpt lat="47.481326" lon="11.045293"><ele>744.0</ele><time>2017-03-04T21:43:43Z</time></trkpt>
<trkpt lat="47.480905" lon="11.046074"><ele>741.0</ele><time>2017-03-04T21:43:47Z</time></trkpt>
<trkpt lat="47.480268" lon="11.047546"><ele>735.0</ele><time>2017-03-04T21:43:55Z</time></trkpt>
<trkpt lat="47.479514" lon="11.049135"><ele>738.0</ele><time>2017-03-04T21:44:02Z</time></trkpt>
<trkpt lat="47.479032" lon="11.050052"><ele>734.0</ele><time>2017-03-04T21:44:07Z</time></trkpt>
<trkpt lat="47.478966" lon="11.05023"><ele>734.0</ele><time>2017-03-04T21:44:08Z</time></trkpt>
<trkpt lat="47.478886" lon="11.05055"><ele>734.0</ele><time>2017-03-04T21:44:09Z</time></trkpt>
<trkpt lat="47.478839" lon="11.050824"><ele>734.0</ele><time>2017-03-04T21:44:11Z</time></trkpt>
<trkpt lat="47.478824" lon="11.051319"><ele>730.0</ele><time>2017-03-04T21:44:13Z</time></trkpt>
<trkpt lat="47.478855" lon="11.05161"><ele>730.0</ele><time>2017-03-04T21:44:14Z</time></trkpt>
<trkpt lat="47.478891" lon="11.051772"><ele>728.0</ele><time>2017-03-04T21:44:14Z</time></trkpt>
<trkpt lat="47.479065" lon="11.052276"><ele>728.0</ele><time>2017-03-04T21:44:17Z</time></trkpt>
<trkpt lat="47.479392" lon="11.052906"><ele>722.0</ele><time>2017-03-04T21:44:20Z</time></trkpt>
<trkpt lat="47.479507" lon="11.053184"><ele>722.0</ele><time>2017-03-04T21:44:21Z</time></trkpt>
<trkpt lat="47.479712" lon="11.053861"><ele>722.0</ele><time>2017-03-04T21:44:24Z</time></trkpt>
<trkpt lat="47.479727" lon="11.053897"><ele>722.0</ele><time>2017-03-04T21:44:29Z</time></trkpt>
<trkpt lat="47.479883" lon="11.054803"><ele>721.0</ele><time>2017-03-04T21:44:34Z</time></trkpt>
<trkpt lat="47.480094" lon="11.056341"><ele>720.0</ele><time>2017-03-04T21:44:43Z</time></trkpt>
<trkpt lat="47.480118" lon="11.05682"><ele>722.0</ele><time>2017-03-04T21:44:46Z</time></trkpt>
<trkpt lat="47.480105" lon="11.057243"><ele>722.0</ele><time>2017-03-04T21:44:48Z</time></trkpt>
<trkpt lat="47.480051" lon="11.058042"><ele>721.0</ele><time>2017-03-04T21:44:52Z</time></trkpt>
<trkpt lat="47.480059" lon="11.058368"><ele>722.0</ele><time>2017-03-04T21:44:54Z</time></trkpt>
<trkpt lat="47.480095" lon="11.058635"><ele>722.0</ele><time>2017-03-04T21:44:56Z</time></trkpt>
<trkpt lat="47.480357" lon="11.059853"><ele>722.0</ele><time>2017-03-04T21:45:03Z</time></trkpt>
<trkpt lat="47.480651" lon="11.060849"><ele>718.0</ele><time>2017-03-04T21:45:09Z</time></trkpt>
<trkpt lat="47.480847" lon="11.061325"><ele>721.0</ele><time>2017-03-04T21:45:12Z</time></trkpt>
<trkpt lat="47.480847" lon="11.061325"><ele>721.0</ele><time>2017-03-04T21:45:12Z</time></trkpt>
<trkpt lat="47.48088" lon="11.061405"><ele>724.0</ele><time>2017-03-04T21:45:13Z</time></trkpt>
<trkpt lat="47.481022" lon="11.061635"><ele>724.0</ele><time>2017-03-04T21:45:15Z</time></trkpt>
<trkpt lat="47.48114" lon="11.061798"><ele>720.0</ele><time>2017-03-04T21:45:16Z</time></trkpt>
<trkpt lat="47.481333" lon="11.062006"><ele>720.0</ele><time>2017-03-04T21:45:19Z</time></trkpt>
<trkpt lat="47.481578" lon="11.06218"><ele>720.0</ele><time>2017-03-04T21:45:21Z</time></trkpt>
<trkpt lat="47.482184" lon="11.062546"><ele>717.0</ele><time>2017-03-04T21:45:28Z</time></trkpt>
<trkpt lat="47.482574" lon="11.062812"><ele>719.0</ele><time>2017-03-04T21:45:32Z</time></trkpt>
<trkpt lat="47.482989" lon="11.063215"><ele>719.0</ele><time>2017-03-04T21:45:37Z</time></trkpt>
<trkpt lat="47.48315" lon="11.063408"><ele>719.0</ele><time>2017-03-04T21:45:39Z</time></trkpt>
<trkpt lat="47.484056" lon="11.065205"><ele>719.0</ele><time>2017-03-04T21:45:56Z</time></trkpt>
<trkpt lat="47.485264" lon="11.067351"><ele>717.0</ele><time>2017-03-04T21:46:18Z</time></trkpt>
<trkpt lat="47.486182" lon="11.068807"><ele>715.0</ele><time>2017-03-04T21:46:33Z</time></trkpt>
<trkpt lat="47.486751" lon="11.069643"><ele>715.0</ele><time>2017-03-04T21:46:42Z</time></trkpt>
<trkpt lat="47.487139" lon="11.070245"><ele>713.0</ele><time>2017-03-04T21:46:49Z</time></trkpt>
<trkpt lat="47.487402" lon="11.070667"><ele>713.0</ele><time>2017-03-04T21:46:53Z</time></trkpt>
<trkpt lat="47.487928" lon="11.071596"><ele>712.0</ele><time>2017-03-04T21:47:02Z</time></trkpt>
<trkpt lat="47.489513" lon="11.0746"><ele>708.0</ele><time>2017-03-04T21:47:32Z</time></trkpt>
<trkpt lat="47.490366" lon="11.076506"><ele>704.0</ele><time>2017-03-04T21:47:49Z</time></trkpt>
<trkpt lat="47.490467" lon="11.076837"><ele>704.0</ele><time>2017-03-04T21:47:52Z</time></trkpt>
<trkpt lat="47.490503" lon="11.077021"><ele>704.0</ele><time>2017-03-04T21:47:53Z</time></trkpt>
<trkpt lat="47.490805" lon="11.078776"><ele>703.0</ele><time>2017-03-04T21:48:07Z</time></trkpt>
<trkpt lat="47.491036" lon="11.08002"><ele>700.0</ele><time>2017-03-04T21:48:17Z</time></trkpt>
<trkpt lat="47.49124" lon="11.08178"><ele>700.0</ele><time>2017-03-04T21:48:31Z</time></trkpt>
<trkpt lat="47.491363" lon="11.082678"><ele>700.0</ele><time>2017-03-04T21:48:38Z</time></trkpt>
<trkpt lat="47.491457" lon="11.08317"><ele>700.0</ele><time>2017-03-04T21:48:42Z</time></trkpt>
<trkpt lat="47.491759" lon="11.084464"><ele>701.0</ele><time>2017-03-04T21:48:52Z</time></trkpt>
<trkpt lat="47.492" lon="11.085296"><ele>700.0</ele><time>2017-03-04T21:48:59Z</time></trkpt>
<trkpt lat="47.492165" lon="11.085768"><ele>700.0</ele><time>2017-03-04T21:49:03Z</time></trkpt>
<trkpt lat="47.49222" lon="11.085911"><ele>700.0</ele><time>2017-03-04T21:49:05Z</time></trkpt>
<trkpt lat="47.492438" lon="11.086357"><ele>700.0</ele><time>2017-03-04T21:49:09Z</time></trkpt>
<trkpt lat="47.492672" lon="11.086672"><ele>704.0</ele><time>2017-03-04T21:49:13Z</time></trkpt>
<trkpt lat="47.492784" lon="11.086787"><ele>704.0</ele><time>2017-03-04T21:49:14Z</time></trkpt>
<trkpt lat="47.492862" lon="11.086807"><ele>704.0</ele><time>2017-03-04T21:49:15Z</time></trkpt>
<trkpt lat="47.492982" lon="11.086767"><ele>704.0</ele><time>2017-03-04T21:49:16Z</time></trkpt>
<trkpt lat="47.493119" lon="11.086663"><ele>700.0</ele><time>2017-03-04T21:49:18Z</time></trkpt>
<trkpt lat="47.493154" lon="11.086603"><ele>700.0</ele><time>2017-03-04T21:49:19Z</time></trkpt>
<trkpt lat="47.493272" lon="11.086429"><ele>700.0</ele><time>2017-03-04T21:49:21Z</time></trkpt>
<trkpt lat="47.493342" lon="11.086385"><ele>695.0</ele><time>2017-03-04T21:49:22Z</time></trkpt>
<trkpt lat="47.493501" lon="11.086369"><ele>695.0</ele><time>2017-03-04T21:49:24Z</time></trkpt>
<trkpt lat="47.493725" lon="11.086452"><ele>695.0</ele><time>2017-03-04T21:49:27Z</time></trkpt>
<trkpt lat="47.493815" lon="11.086507"><ele>695.0</ele><time>2017-03-04T21:49:28Z</time></trkpt>
<trkpt lat="47.494021" lon="11.086697"><ele>697.0</ele><time>2017-03-04T21:49:30Z</time></trkpt>
<trkpt lat="47.494425" lon="11.087149"><ele>696.0</ele><time>2017-03-04T21:49:36Z</time></trkpt>
<trkpt lat="47.494754" lon="11.087687"><ele>697.0</ele><time>2017-03-04T21:49:42Z</time></trkpt>
<trkpt lat="47.49497" lon="11.087967"><ele>697.0</ele><time>2017-03-04T21:49:45Z</time></trkpt>
<trkpt lat="47.495026" lon="11.088017"><ele>696.0</ele><time>2017-03-04T21:49:46Z</time></trkpt>
<trkpt lat="47.495126" lon="11.088066"><ele>696.0</ele><time>2017-03-04T21:49:47Z</time></trkpt>
<trkpt lat="47.495299" lon="11.088093"><ele>696.0</ele><time>2017-03-04T21:49:49Z</time></trkpt>
<trkpt lat="47.495721" lon="11.087965"><ele>696.0</ele><time>2017-03-04T21:49:54Z</time></trkpt>
<trkpt lat="47.495958" lon="11.087946"><ele>698.0</ele><time>2017-03-04T21:49:57Z</time></trkpt>
<trkpt lat="47.496043" lon="11.087957"><ele>698.0</ele><time>2017-03-04T21:49:58Z</time></trkpt>
<trkpt lat="47.496284" lon="11.088055"><ele>698.0</ele><time>2017-03-04T21:50:01Z</time></trkpt>
<trkpt lat="47.496408" lon="11.088064"><ele>698.0</ele><time>2017-03-04T21:50:03Z</time></trkpt>
<trkpt lat="47.496614" lon="11.088161"><ele>698.0</ele><time>2017-03-04T21:50:05Z</time></trkpt>
<trkpt lat="47.497029" lon="11.088282"><ele>696.0</ele><time>2017-03-04T21:50:10Z</time></trkpt>
<trkpt lat="47.4972" lon="11.088301"><ele>696.0</ele><time>2017-03-04T21:50:12Z</time></trkpt>
<trkpt lat="47.497338" lon="11.088288"><ele>696.0</ele><time>2017-03-04T21:50:14Z</time></trkpt>
<trkpt lat="47.497728" lon="11.088199"><ele>696.0</ele><time>2017-03-04T21:50:19Z</time></trkpt>
<trkpt lat="47.498571" lon="11.087928"><ele>694.0</ele><time>2017-03-04T21:50:29Z</time></trkpt>
<trkpt lat="47.499126" lon="11.08766"><ele>694.0</ele><time>2017-03-04T21:50:36Z</time></trkpt>
<trkpt lat="47.500208" lon="11.087266"><ele>694.0</ele><time>2017-03-04T21:50:50Z</time></trkpt>
<trkpt lat="47.500609" lon="11.087243"><ele>694.0</ele><time>2017-03-04T21:50:55Z</time></trkpt>
<trkpt lat="47.501762" lon="11.087465"><ele>695.0</ele><time>2017-03-04T21:51:09Z</time></trkpt>
<trkpt lat="47.50506" lon="11.087821"><ele>691.0</ele><time>2017-03-04T21:51:49Z</time></trkpt>
<trkpt lat="47.506236" lon="11.088034"><ele>692.0</ele><time>2017-03-04T21:52:03Z</time></trkpt>
<trkpt lat="47.506749" lon="11.088212"><ele>705.0</ele><time>2017-03-04T21:52:10Z</time></trkpt>
<trkpt lat="47.507052" lon="11.088393"><ele>702.0</ele><time>2017-03-04T21:52:14Z</time></trkpt>
<trkpt lat="47.507618" lon="11.088857"><ele>709.0</ele><time>2017-03-04T21:52:22Z</time></trkpt>
<trkpt lat="47.508103" lon="11.089371"><ele>702.0</ele><time>2017-03-04T21:52:29Z</time></trkpt>
<trkpt lat="47.508199" lon="11.089443"><ele>702.0</ele><time>2017-03-04T21:52:30Z</time></trkpt>
<trkpt lat="47.50916" lon="11.090357"><ele>701.0</ele><time>2017-03-04T21:52:44Z</time></trkpt>
<trkpt lat="47.509773" lon="11.091095"><ele>703.0</ele><time>2017-03-04T21:52:54Z</time></trkpt>
<trkpt lat="47.50991" lon="11.091353"><ele>703.0</ele><time>2017-03-04T21:52:56Z</time></trkpt>
<trkpt lat="47.509978" lon="11.091576"><ele>703.0</ele><time>2017-03-04T21:52:58Z</time></trkpt>
<trkpt lat="47.51" lon="11.091697"><ele>697.0</ele><time>2017-03-04T21:52:59Z</time></trkpt>
<trkpt lat="47.510025" lon="11.091828"><ele>697.0</ele><time>2017-03-04T21:53:01Z</time></trkpt>
<trkpt lat="47.510021" lon="11.09222"><ele>697.0</ele><time>2017-03-04T21:53:04Z</time></trkpt>
<trkpt lat="47.509973" lon="11.092552"><ele>688.0</ele><time>2017-03-04T21:53:06Z</time></trkpt>
<trkpt lat="47.50997" lon="11.09258"><ele>688.0</ele><time>2017-03-04T21:53:06Z</time></trkpt>
<trkpt lat="47.510568" lon="11.093032"><ele>690.0</ele><time>2017-03-04T21:53:11Z</time></trkpt>
<trkpt lat="47.510712" lon="11.093071"><ele>690.0</ele><time>2017-03-04T21:53:12Z</time></trkpt>
<trkpt lat="47.511003" lon="11.093037"><ele>694.0</ele><time>2017-03-04T21:53:15Z</time></trkpt>
<trkpt lat="47.511145" lon="11.093094"><ele>694.0</ele><time>2017-03-04T21:53:16Z</time></trkpt>
<trkpt lat="47.511254" lon="11.093177"><ele>694.0</ele><time>2017-03-04T21:53:17Z</time></trkpt>
<trkpt lat="47.511691" lon="11.09386"><ele>689.0</ele><time>2017-03-04T21:53:22Z</time></trkpt>
<trkpt lat="47.512088" lon="11.094274"><ele>686.0</ele><time>2017-03-04T21:53:25Z</time></trkpt>
<trkpt lat="47.513219" lon="11.095213"><ele>688.0</ele><time>2017-03-04T21:53:35Z</time></trkpt>
<trkpt lat="47.513989" lon="11.095876"><ele>684.0</ele><time>2017-03-04T21:53:42Z</time></trkpt>
<trkpt lat="47.514654" lon="11.096484"><ele>681.0</ele><time>2017-03-04T21:53:48Z</time></trkpt>
<trkpt lat="47.515001" lon="11.096895"><ele>681.0</ele><time>2017-03-04T21:53:51Z</time></trkpt>
<trkpt lat="47.51527" lon="11.097275"><ele>681.0</ele><time>2017-03-04T21:53:54Z</time></trkpt>
<trkpt lat="47.51543" lon="11.097538"><ele>682.0</ele><time>2017-03-04T21:53:56Z</time></trkpt>
<trkpt lat="47.515754" lon="11.098289"><ele>682.0</ele><time>2017-03-04T21:54:01Z</time></trkpt>
<trkpt lat="47.518443" lon="11.107115"><ele>678.0</ele><time>2017-03-04T21:54:51Z</time></trkpt>
<trkpt lat="47.518639" lon="11.107588"><ele>676.0</ele><time>2017-03-04T21:54:54Z</time></trkpt>
<trkpt lat="47.518836" lon="11.107932"><ele>676.0</ele><time>2017-03-04T21:54:56Z</time></trkpt>
<trkpt lat="47.519075" lon="11.10826"><ele>676.0</ele><time>2017-03-04T21:54:59Z</time></trkpt>
<trkpt lat="47.519578" lon="11.108808"><ele>674.0</ele><time>2017-03-04T21:55:03Z</time></trkpt>
<trkpt lat="47.519709" lon="11.109029"><ele>674.0</ele><time>2017-03-04T21:55:05Z</time></trkpt>
<trkpt lat="47.519807" lon="11.109262"><ele>675.0</ele><time>2017-03-04T21:55:06Z</time></trkpt>
<trkpt lat="47.519831" lon="11.109364"><ele>675.0</ele><time>2017-03-04T21:55:07Z</time></trkpt>
<trkpt lat="47.519841" lon="11.10946"><ele>675.0</ele><time>2017-03-04T21:55:08Z</time></trkpt>
<trkpt lat="47.520385" lon="11.109321"><ele>677.0</ele><time>2017-03-04T21:55:12Z</time></trkpt>
<trkpt lat="47.520927" lon="11.109236"><ele>679.0</ele><time>2017-03-04T21:55:17Z</time></trkpt>
<trkpt lat="47.521744" lon="11.109269"><ele>678.0</ele><time>2017-03-04T21:55:24Z</time></trkpt>
<trkpt lat="47.522612" lon="11.109479"><ele>675.0</ele><time>2017-03-04T21:55:31Z</time></trkpt>
<trkpt lat="47.52515" lon="11.11031"><ele>677.0</ele><time>2017-03-04T21:55:54Z</time></trkpt>
<trkpt lat="47.526305" lon="11.110653"><ele>675.0</ele><time>2017-03-04T21:56:04Z</time></trkpt>
<trkpt lat="47.529498" lon="11.111674"><ele>671.0</ele><time>2017-03-04T21:56:31Z</time></trkpt>
<trkpt lat="47.529782" lon="11.111801"><ele>671.0</ele><time>2017-03-04T21:56:34Z</time></trkpt>
<trkpt lat="47.530225" lon="11.112105"><ele>671.0</ele><time>2017-03-04T21:56:38Z</time></trkpt>
<trkpt lat="47.530899" lon="11.112612"><ele>672.0</ele><time>2017-03-04T21:56:45Z</time></trkpt>
<trkpt lat="47.531231" lon="11.112778"><ele>672.0</ele><time>2017-03-04T21:56:48Z</time></trkpt>
<trkpt lat="47.531385" lon="11.112799"><ele>672.0</ele><time>2017-03-04T21:56:49Z</time></trkpt>
<trkpt lat="47.53214" lon="11.11278"><ele>670.0</ele><time>2017-03-04T21:56:55Z</time></trkpt>
<trkpt lat="47.532441" lon="11.112754"><ele>670.0</ele><time>2017-03-04T21:56:58Z</time></trkpt>
<trkpt lat="47.533071" lon="11.112657"><ele>668.0</ele><time>2017-03-04T21:57:03Z</time></trkpt>
<trkpt lat="47.533426" lon="11.112706"><ele>665.0</ele><time>2017-03-04T21:57:06Z</time></trkpt>
<trkpt lat="47.53379" lon="11.112813"><ele>665.0</ele><time>2017-03-04T21:57:09Z</time></trkpt>
<trkpt lat="47.534059" lon="11.112941"><ele>665.0</ele><time>2017-03-04T21:57:12Z</time></trkpt>
<trkpt lat="47.534355" lon="11.113158"><ele>668.0</ele><time>2017-03-04T21:57:15Z</time></trkpt>
<trkpt lat="47.536781" lon="11.115507"><ele>668.0</ele><time>2017-03-04T21:57:39Z</time></trkpt>
<trkpt lat="47.538435" lon="11.117115"><ele>669.0</ele><time>2017-03-04T21:57:56Z</time></trkpt>
<trkpt lat="47.538629" lon="11.117337"><ele>669.0</ele><time>2017-03-04T21:57:58Z</time></trkpt>
<trkpt lat="47.540231" lon="11.118902"><ele>665.0</ele><time>2017-03-04T21:58:11Z</time></trkpt>
<trkpt lat="47.540607" lon="11.119163"><ele>665.0</ele><time>2017-03-04T21:58:14Z</time></trkpt>
<trkpt lat="47.541189" lon="11.11948"><ele>663.0</ele><time>2017-03-04T21:58:18Z</time></trkpt>
<trkpt lat="47.541438" lon="11.119668"><ele>663.0</ele><time>2017-03-04T21:58:20Z</time></trkpt>
<trkpt lat="47.54155" lon="11.119694"><ele>663.0</ele><time>2017-03-04T21:58:20Z</time></trkpt>
<trkpt lat="47.541965" lon="11.120101"><ele>661.0</ele><time>2017-03-04T21:58:23Z</time></trkpt>
<trkpt lat="47.542546" lon="11.120587"><ele>659.0</ele><time>2017-03-04T21:58:27Z</time></trkpt>
<trkpt lat="47.544785" lon="11.122027"><ele>663.0</ele><time>2017-03-04T21:58:42Z</time></trkpt>
<trkpt lat="47.545815" lon="11.122863"><ele>661.0</ele><time>2017-03-04T21:58:49Z</time></trkpt>
<trkpt lat="47.546096" lon="11.122986"><ele>671.0</ele><time>2017-03-04T21:58:50Z</time></trkpt>
<trkpt lat="47.546964" lon="11.123801"><ele>681.0</ele><time>2017-03-04T21:58:57Z</time></trkpt>
<trkpt lat="47.547357" lon="11.124273"><ele>664.0</ele><time>2017-03-04T21:59:00Z</time></trkpt>
<trkpt lat="47.547777" lon="11.124959"><ele>692.0</ele><time>2017-03-04T21:59:04Z</time></trkpt>
<trkpt lat="47.549707" lon="11.128597"><ele>660.0</ele><time>2017-03-04T21:59:24Z</time></trkpt>
<trkpt lat="47.549939" lon="11.129008"><ele>660.0</ele><time>2017-03-04T21:59:27Z</time></trkpt>
<trkpt lat="47.550633" lon="11.130087"><ele>662.0</ele><time>2017-03-04T21:59:33Z</time></trkpt>
<trkpt lat="47.551407" lon="11.131243"><ele>661.0</ele><time>2017-03-04T21:59:40Z</time></trkpt>
<trkpt lat="47.551752" lon="11.131713"><ele>679.0</ele><time>2017-03-04T21:59:43Z</time></trkpt>
<trkpt lat="47.551982" lon="11.132058"><ele>679.0</ele><time>2017-03-04T21:59:45Z</time></trkpt>
<trkpt lat="47.552987" lon="11.133905"><ele>688.0</ele><time>2017-03-04T21:59:55Z</time></trkpt>
<trkpt lat="47.55341" lon="11.134615"><ele>691.0</ele><time>2017-03-04T21:59:59Z</time></trkpt>
<trkpt lat="47.553813" lon="11.135186"><ele>677.0</ele><time>2017-03-04T22:00:03Z</time></trkpt>
<trkpt lat="47.554183" lon="11.135634"><ele>683.0</ele><time>2017-03-04T22:00:06Z</time></trkpt>
<trkpt lat="47.554594" lon="11.136077"><ele>675.0</ele><time>2017-03-04T22:00:09Z</time></trkpt>
<trkpt lat="47.55525" lon="11.136639"><ele>668.0</ele><time>2017-03-04T22:00:14Z</time></trkpt>
<trkpt lat="47.556014" lon="11.137123"><ele>654.0</ele><time>2017-03-04T22:00:19Z</time></trkpt>
<trkpt lat="47.556416" lon="11.137329"><ele>654.0</ele><time>2017-03-04T22:00:22Z</time></trkpt>
<trkpt lat="47.556841" lon="11.137516"><ele>657.0</ele><time>2017-03-04T22:00:25Z</time></trkpt>
<trkpt lat="47.556919" lon="11.137545"><ele>657.0</ele><time>2017-03-04T22:00:31Z</time></trkpt>
<trkpt lat="47.556919" lon="11.137545"><ele>657.0</ele><time>2017-03-04T22:00:31Z</time></trkpt>
<trkpt lat="47.557041" lon="11.13759"><ele>657.0</ele><time>2017-03-04T22:00:33Z</time></trkpt>
<trkpt lat="47.557387" lon="11.137455"><ele>655.0</ele><time>2017-03-04T22:00:36Z</time></trkpt>
<trkpt lat="47.5575" lon="11.137377"><ele>655.0</ele><time>2017-03-04T22:00:36Z</time></trkpt>
<trkpt lat="47.557615" lon="11.137266"><ele>658.0</ele><time>2017-03-04T22:00:37Z</time></trkpt>
<trkpt lat="47.557851" lon="11.136922"><ele>658.0</ele><time>2017-03-04T22:00:40Z</time></trkpt>
<trkpt lat="47.558488" lon="11.135629"><ele>664.0</ele><time>2017-03-04T22:00:48Z</time></trkpt>
<trkpt lat="47.558624" lon="11.135386"><ele>664.0</ele><time>2017-03-04T22:00:49Z</time></trkpt>
<trkpt lat="47.558753" lon="11.135195"><ele>664.0</ele><time>2017-03-04T22:00:51Z</time></trkpt>
<trkpt lat="47.559086" lon="11.134882"><ele>670.0</ele><time>2017-03-04T22:00:54Z</time></trkpt>
<trkpt lat="47.559168" lon="11.134776"><ele>660.0</ele><time>2017-03-04T22:00:55Z</time></trkpt>
<trkpt lat="47.559351" lon="11.134413"><ele>660.0</ele><time>2017-03-04T22:00:57Z</time></trkpt>
<trkpt lat="47.559548" lon="11.133881"><ele>660.0</ele><time>2017-03-04T22:01:00Z</time></trkpt>
<trkpt lat="47.55963" lon="11.133617"><ele>660.0</ele><time>2017-03-04T22:01:01Z</time></trkpt>
<trkpt lat="47.559693" lon="11.133315"><ele>667.0</ele><time>2017-03-04T22:01:03Z</time></trkpt>
<trkpt lat="47.559828" lon="11.13236"><ele>668.0</ele><time>2017-03-04T22:01:08Z</time></trkpt>
<trkpt lat="47.559904" lon="11.131347"><ele>667.0</ele><time>2017-03-04T22:01:13Z</time></trkpt>
<trkpt lat="47.559911" lon="11.130795"><ele>668.0</ele><time>2017-03-04T22:01:16Z</time></trkpt>
<trkpt lat="47.55985" lon="11.129964"><ele>667.0</ele><time>2017-03-04T22:01:20Z</time></trkpt>
<trkpt lat="47.559738" lon="11.129374"><ele>667.0</ele><time>2017-03-04T22:01:23Z</time></trkpt>
<trkpt lat="47.559642" lon="11.128971"><ele>670.0</ele><time>2017-03-04T22:01:25Z</time></trkpt>
<trkpt lat="47.559594" lon="11.128671"><ele>670.0</ele><time>2017-03-04T22:01:27Z</time></trkpt>
<trkpt lat="47.559586" lon="11.128396"><ele>670.0</ele><time>2017-03-04T22:01:28Z</time></trkpt>
<trkpt lat="47.559611" lon="11.128148"><ele>676.0</ele><time>2017-03-04T22:01:29Z</time></trkpt>
<trkpt lat="47.559686" lon="11.12787"><ele>676.0</ele><time>2017-03-04T22:01:31Z</time></trkpt>
<trkpt lat="47.559818" lon="11.127595"><ele>676.0</ele><time>2017-03-04T22:01:33Z</time></trkpt>
<trkpt lat="47.56068" lon="11.126492"><ele>681.0</ele><time>2017-03-04T22:01:41Z</time></trkpt>
<trkpt lat="47.560846" lon="11.126323"><ele>679.0</ele><time>2017-03-04T22:01:42Z</time></trkpt>
<trkpt lat="47.561005" lon="11.12623"><ele>679.0</ele><time>2017-03-04T22:01:44Z</time></trkpt>
<trkpt lat="47.561149" lon="11.126183"><ele>679.0</ele><time>2017-03-04T22:01:45Z</time></trkpt>
<trkpt lat="47.561462" lon="11.126135"><ele>679.0</ele><time>2017-03-04T22:01:47Z</time></trkpt>
<trkpt lat="47.561694" lon="11.126132"><ele>698.0</ele><time>2017-03-04T22:01:49Z</time></trkpt>
<trkpt lat="47.562232" lon="11.126239"><ele>698.0</ele><time>2017-03-04T22:01:53Z</time></trkpt>
<trkpt lat="47.562455" lon="11.126334"><ele>698.0</ele><time>2017-03-04T22:01:55Z</time></trkpt>
<trkpt lat="47.562702" lon="11.126482"><ele>727.0</ele><time>2017-03-04T22:01:58Z</time></trkpt>
<trkpt lat="47.562902" lon="11.126707"><ele>713.0</ele><time>2017-03-04T22:02:00Z</time></trkpt>
<trkpt lat="47.563187" lon="11.127321"><ele>713.0</ele><time>2017-03-04T22:02:03Z</time></trkpt>
<trkpt lat="47.563557" lon="11.127927"><ele>730.0</ele><time>2017-03-04T22:02:08Z</time></trkpt>
<trkpt lat="47.563689" lon="11.1282"><ele>730.0</ele><time>2017-03-04T22:02:09Z</time></trkpt>
<trkpt lat="47.563803" lon="11.128538"><ele>714.0</ele><time>2017-03-04T22:02:11Z</time></trkpt>
<trkpt lat="47.564349" lon="11.129589"><ele>737.0</ele><time>2017-03-04T22:02:18Z</time></trkpt>
<trkpt lat="47.564461" lon="11.12986"><ele>737.0</ele><time>2017-03-04T22:02:20Z</time></trkpt>
<trkpt lat="47.564676" lon="11.130258"><ele>721.0</ele><time>2017-03-04T22:02:23Z</time></trkpt>
<trkpt lat="47.564749" lon="11.130525"><ele>721.0</ele><time>2017-03-04T22:02:24Z</time></trkpt>
<trkpt lat="47.564906" lon="11.130887"><ele>704.0</ele><time>2017-03-04T22:02:26Z</time></trkpt>
<trkpt lat="47.564991" lon="11.131006"><ele>704.0</ele><time>2017-03-04T22:02:27Z</time></trkpt>
<trkpt lat="47.565193" lon="11.131178"><ele>720.0</ele><time>2017-03-04T22:02:29Z</time></trkpt>
<trkpt lat="47.565683" lon="11.131261"><ele>720.0</ele><time>2017-03-04T22:02:33Z</time></trkpt>
<trkpt lat="47.566059" lon="11.131494"><ele>738.0</ele><time>2017-03-04T22:02:36Z</time></trkpt>
<trkpt lat="47.566162" lon="11.131496"><ele>738.0</ele><time>2017-03-04T22:02:37Z</time></trkpt>
<trkpt lat="47.566231" lon="11.131468"><ele>738.0</ele><time>2017-03-04T22:02:37Z</time></trkpt>
<trkpt lat="47.566303" lon="11.131405"><ele>738.0</ele><time>2017-03-04T22:02:38Z</time></trkpt>
<trkpt lat="47.566397" lon="11.131236"><ele>738.0</ele><time>2017-03-04T22:02:39Z</time></trkpt>
<trkpt lat="47.566423" lon="11.131127"><ele>738.0</ele><time>2017-03-04T22:02:40Z</time></trkpt>
<trkpt lat="47.566431" lon="11.13098"><ele>738.0</ele><time>2017-03-04T22:02:40Z</time></trkpt>
<trkpt lat="47.566383" lon="11.13078"><ele>771.0</ele><time>2017-03-04T22:02:43Z</time></trkpt>
<trkpt lat="47.566251" lon="11.130622"><ele>771.0</ele><time>2017-03-04T22:02:44Z</time></trkpt>
<trkpt lat="47.566043" lon="11.130477"><ele>771.0</ele><time>2017-03-04T22:02:46Z</time></trkpt>
<trkpt lat="47.565895" lon="11.130447"><ele>771.0</ele><time>2017-03-04T22:02:47Z</time></trkpt>
<trkpt lat="47.565467" lon="11.130464"><ele>748.0</ele><time>2017-03-04T22:02:50Z</time></trkpt>
<trkpt lat="47.565234" lon="11.130373"><ele>748.0</ele><time>2017-03-04T22:02:52Z</time></trkpt>
<trkpt lat="47.565122" lon="11.130283"><ele>748.0</ele><time>2017-03-04T22:02:53Z</time></trkpt>
<trkpt lat="47.564981" lon="11.130096"><ele>721.0</ele><time>2017-03-04T22:02:55Z</time></trkpt>
<trkpt lat="47.564902" lon="11.129944"><ele>737.0</ele><time>2017-03-04T22:02:57Z</time></trkpt>
<trkpt lat="47.564828" lon="11.129715"><ele>737.0</ele><time>2017-03-04T22:02:58Z</time></trkpt>
<trkpt lat="47.564756" lon="11.129264"><ele>737.0</ele><time>2017-03-04T22:03:00Z</time></trkpt>
<trkpt lat="47.56472" lon="11.128794"><ele>752.0</ele><time>2017-03-04T22:03:03Z</time></trkpt>
<trkpt lat="47.564614" lon="11.128181"><ele>764.0</ele><time>2017-03-04T22:03:06Z</time></trkpt>
<trkpt lat="47.564519" lon="11.12781"><ele>764.0</ele><time>2017-03-04T22:03:08Z</time></trkpt>
<trkpt lat="47.564113" lon="11.126413"><ele>757.0</ele><time>2017-03-04T22:03:16Z</time></trkpt>
<trkpt lat="47.563983" lon="11.126023"><ele>757.0</ele><time>2017-03-04T22:03:18Z</time></trkpt>
<trkpt lat="47.563782" lon="11.125521"><ele>775.0</ele><time>2017-03-04T22:03:21Z</time></trkpt>
<trkpt lat="47.56339" lon="11.124691"><ele>793.0</ele><time>2017-03-04T22:03:26Z</time></trkpt>
<trkpt lat="47.563173" lon="11.124337"><ele>760.0</ele><time>2017-03-04T22:03:29Z</time></trkpt>
<trkpt lat="47.56254" lon="11.123432"><ele>800.0</ele><time>2017-03-04T22:03:36Z</time></trkpt>
<trkpt lat="47.562368" lon="11.123135"><ele>779.0</ele><time>2017-03-04T22:03:39Z</time></trkpt>
<trkpt lat="47.562046" lon="11.122485"><ele>801.0</ele><time>2017-03-04T22:03:43Z</time></trkpt>
<trkpt lat="47.56194" lon="11.122235"><ele>801.0</ele><time>2017-03-04T22:03:45Z</time></trkpt>
<trkpt lat="47.561538" lon="11.121153"><ele>785.0</ele><time>2017-03-04T22:03:51Z</time></trkpt>
<trkpt lat="47.561408" lon="11.120915"><ele>785.0</ele><time>2017-03-04T22:03:52Z</time></trkpt>
<trkpt lat="47.561158" lon="11.120619"><ele>803.0</ele><time>2017-03-04T22:03:55Z</time></trkpt>
<trkpt lat="47.561051" lon="11.120456"><ele>803.0</ele><time>2017-03-04T22:03:56Z</time></trkpt>
<trkpt lat="47.560901" lon="11.120177"><ele>803.0</ele><time>2017-03-04T22:03:58Z</time></trkpt>
<trkpt lat="47.560845" lon="11.119952"><ele>819.0</ele><time>2017-03-04T22:04:00Z</time></trkpt>
<trkpt lat="47.560834" lon="11.119826"><ele>819.0</ele><time>2017-03-04T22:04:00Z</time></trkpt>
<trkpt lat="47.560835" lon="11.119376"><ele>819.0</ele><time>2017-03-04T22:04:02Z</time></trkpt>
<trkpt lat="47.560822" lon="11.11929"><ele>776.0</ele><time>2017-03-04T22:04:05Z</time></trkpt>
<trkpt lat="47.560789" lon="11.119196"><ele>776.0</ele><time>2017-03-04T22:04:06Z</time></trkpt>
<trkpt lat="47.560546" lon="11.118769"><ele>789.0</ele><time>2017-03-04T22:04:09Z</time></trkpt>
<trkpt lat="47.56044" lon="11.118424"><ele>789.0</ele><time>2017-03-04T22:04:11Z</time></trkpt>
<trkpt lat="47.560347" lon="11.11773"><ele>844.0</ele><time>2017-03-04T22:04:16Z</time></trkpt>
<trkpt lat="47.560278" lon="11.116768"><ele>831.0</ele><time>2017-03-04T22:04:21Z</time></trkpt>
<trkpt lat="47.560304" lon="11.116546"><ele>828.0</ele><time>2017-03-04T22:04:22Z</time></trkpt>
<trkpt lat="47.560336" lon="11.116445"><ele>828.0</ele><time>2017-03-04T22:04:22Z</time></trkpt>
<trkpt lat="47.560462" lon="11.116171"><ele>828.0</ele><time>2017-03-04T22:04:24Z</time></trkpt>
<trkpt lat="47.560496" lon="11.115958"><ele>828.0</ele><time>2017-03-04T22:04:25Z</time></trkpt>
<trkpt lat="47.560485" lon="11.11576"><ele>817.0</ele><time>2017-03-04T22:04:26Z</time></trkpt>
<trkpt lat="47.560388" lon="11.115433"><ele>817.0</ele><time>2017-03-04T22:04:28Z</time></trkpt>
<trkpt lat="47.560371" lon="11.115221"><ele>817.0</ele><time>2017-03-04T22:04:29Z</time></trkpt>
<trkpt lat="47.560397" lon="11.113942"><ele>843.0</ele><time>2017-03-04T22:04:36Z</time></trkpt>
<trkpt lat="47.5605" lon="11.113185"><ele>833.0</ele><time>2017-03-04T22:04:40Z</time></trkpt>
<trkpt lat="47.560522" lon="11.112753"><ele>833.0</ele><time>2017-03-04T22:04:42Z</time></trkpt>
<trkpt lat="47.560565" lon="11.112624"><ele>833.0</ele><time>2017-03-04T22:04:42Z</time></trkpt>
<trkpt lat="47.560679" lon="11.112458"><ele>816.0</ele><time>2017-03-04T22:04:44Z</time></trkpt>
<trkpt lat="47.56073" lon="11.112349"><ele>816.0</ele><time>2017-03-04T22:04:45Z</time></trkpt>
<trkpt lat="47.560775" lon="11.112135"><ele>816.0</ele><time>2017-03-04T22:04:46Z</time></trkpt>
<trkpt lat="47.560826" lon="11.11176"><ele>816.0</ele><time>2017-03-04T22:04:48Z</time></trkpt>
<trkpt lat="47.560866" lon="11.111656"><ele>869.0</ele><time>2017-03-04T22:04:51Z</time></trkpt>
<trkpt lat="47.561012" lon="11.111455"><ele>869.0</ele><time>2017-03-04T22:04:53Z</time></trkpt>
<trkpt lat="47.561089" lon="11.111296"><ele>869.0</ele><time>2017-03-04T22:04:54Z</time></trkpt>
<trkpt lat="47.5611" lon="11.110993"><ele>869.0</ele><time>2017-03-04T22:04:55Z</time></trkpt>
<trkpt lat="47.561062" lon="11.110509"><ele>863.0</ele><time>2017-03-04T22:04:58Z</time></trkpt>
<trkpt lat="47.561012" lon="11.110153"><ele>863.0</ele><time>2017-03-04T22:04:59Z</time></trkpt>
<trkpt lat="47.561022" lon="11.109984"><ele>869.0</ele><time>2017-03-04T22:05:00Z</time></trkpt>
<trkpt lat="47.561061" lon="11.1098"><ele>869.0</ele><time>2017-03-04T22:05:01Z</time></trkpt>
<trkpt lat="47.561176" lon="11.109418"><ele>869.0</ele><time>2017-03-04T22:05:03Z</time></trkpt>
<trkpt lat="47.561227" lon="11.109172"><ele>869.0</ele><time>2017-03-04T22:05:05Z</time></trkpt>
<trkpt lat="47.561291" lon="11.108623"><ele>858.0</ele><time>2017-03-04T22:05:08Z</time></trkpt>
<trkpt lat="47.561461" lon="11.107664"><ele>850.0</ele><time>2017-03-04T22:05:13Z</time></trkpt>
<trkpt lat="47.561578" lon="11.107251"><ele>840.0</ele><time>2017-03-04T22:05:15Z</time></trkpt>
<trkpt lat="47.561737" lon="11.106872"><ele>900.0</ele><time>2017-03-04T22:05:19Z</time></trkpt>
<trkpt lat="47.5619" lon="11.106118"><ele>886.0</ele><time>2017-03-04T22:05:23Z</time></trkpt>
<trkpt lat="47.561966" lon="11.105915"><ele>886.0</ele><time>2017-03-04T22:05:25Z</time></trkpt>
<trkpt lat="47.562026" lon="11.10577"><ele>875.0</ele><time>2017-03-04T22:05:26Z</time></trkpt>
<trkpt lat="47.562306" lon="11.10523"><ele>875.0</ele><time>2017-03-04T22:05:29Z</time></trkpt>
<trkpt lat="47.56241" lon="11.104918"><ele>857.0</ele><time>2017-03-04T22:05:31Z</time></trkpt>
<trkpt lat="47.562431" lon="11.104778"><ele>857.0</ele><time>2017-03-04T22:05:32Z</time></trkpt>
<trkpt lat="47.562443" lon="11.104158"><ele>862.0</ele><time>2017-03-04T22:05:35Z</time></trkpt>
<trkpt lat="47.562518" lon="11.103745"><ele>881.0</ele><time>2017-03-04T22:05:38Z</time></trkpt>
<trkpt lat="47.562509" lon="11.103578"><ele>881.0</ele><time>2017-03-04T22:05:38Z</time></trkpt>
<trkpt lat="47.562486" lon="11.103467"><ele>862.0</ele><time>2017-03-04T22:05:40Z</time></trkpt>
<trkpt lat="47.562369" lon="11.10316"><ele>870.0</ele><time>2017-03-04T22:05:42Z</time></trkpt>
<trkpt lat="47.562287" lon="11.103013"><ele>870.0</ele><time>2017-03-04T22:05:43Z</time></trkpt>
<trkpt lat="47.562048" lon="11.102759"><ele>870.0</ele><time>2017-03-04T22:05:45Z</time></trkpt>
<trkpt lat="47.561881" lon="11.102698"><ele>870.0</ele><time>2017-03-04T22:05:46Z</time></trkpt>
<trkpt lat="47.561771" lon="11.102714"><ele>870.0</ele><time>2017-03-04T22:05:47Z</time></trkpt>
<trkpt lat="47.561675" lon="11.102743"><ele>870.0</ele><time>2017-03-04T22:05:47Z</time></trkpt>
<trkpt lat="47.561566" lon="11.102805"><ele>869.0</ele><time>2017-03-04T22:05:48Z</time></trkpt>
<trkpt lat="47.561325" lon="11.102979"><ele>869.0</ele><time>2017-03-04T22:05:50Z</time></trkpt>
<trkpt lat="47.561215" lon="11.102999"><ele>869.0</ele><time>2017-03-04T22:05:51Z</time></trkpt>
<trkpt lat="47.561119" lon="11.10297"><ele>869.0</ele><time>2017-03-04T22:05:52Z</time></trkpt>
<trkpt lat="47.561035" lon="11.102902"><ele>869.0</ele><time>2017-03-04T22:05:53Z</time></trkpt>
<trkpt lat="47.56094" lon="11.102736"><ele>869.0</ele><time>2017-03-04T22:05:54Z</time></trkpt>
<trkpt lat="47.560904" lon="11.102518"><ele>869.0</ele><time>2017-03-04T22:05:55Z</time></trkpt>
<trkpt lat="47.560926" lon="11.102374"><ele>877.0</ele><time>2017-03-04T22:05:56Z</time></trkpt>
<trkpt lat="47.560967" lon="11.102271"><ele>877.0</ele><time>2017-03-04T22:05:56Z</time></trkpt>
<trkpt lat="47.561025" lon="11.102175"><ele>877.0</ele><time>2017-03-04T22:05:57Z</time></trkpt>
<trkpt lat="47.561244" lon="11.102034"><ele>877.0</ele><time>2017-03-04T22:05:59Z</time></trkpt>
<trkpt lat="47.561344" lon="11.101933"><ele>877.0</ele><time>2017-03-04T22:06:00Z</time></trkpt>
<trkpt lat="47.561426" lon="11.101806"><ele>877.0</ele><time>2017-03-04T22:06:00Z</time></trkpt>
<trkpt lat="47.561674" lon="11.101282"><ele>868.0</ele><time>2017-03-04T22:06:04Z</time></trkpt>
<trkpt lat="47.561777" lon="11.101129"><ele>868.0</ele><time>2017-03-04T22:06:16Z</time></trkpt>
<trkpt lat="47.561859" lon="11.101054"><ele>868.0</ele><time>2017-03-04T22:06:16Z</time></trkpt>
<trkpt lat="47.562029" lon="11.100972"><ele>868.0</ele><time>2017-03-04T22:06:18Z</time></trkpt>
<trkpt lat="47.562147" lon="11.100959"><ele>868.0</ele><time>2017-03-04T22:06:19Z</time></trkpt>
<trkpt lat="47.562293" lon="11.100986"><ele>868.0</ele><time>2017-03-04T22:06:20Z</time></trkpt>
<trkpt lat="47.562562" lon="11.101094"><ele>872.0</ele><time>2017-03-04T22:06:22Z</time></trkpt>
<trkpt lat="47.562677" lon="11.101107"><ele>872.0</ele><time>2017-03-04T22:06:23Z</time></trkpt>
<trkpt lat="47.562845" lon="11.101061"><ele>872.0</ele><time>2017-03-04T22:06:24Z</time></trkpt>
<trkpt lat="47.563266" lon="11.100757"><ele>867.0</ele><time>2017-03-04T22:06:28Z</time></trkpt>
<trkpt lat="47.563423" lon="11.100685"><ele>873.0</ele><time>2017-03-04T22:06:29Z</time></trkpt>
<trkpt lat="47.563623" lon="11.100644"><ele>873.0</ele><time>2017-03-04T22:06:31Z</time></trkpt>
<trkpt lat="47.564231" lon="11.100637"><ele>876.0</ele><time>2017-03-04T22:06:36Z</time></trkpt>
<trkpt lat="47.564346" lon="11.100606"><ele>876.0</ele><time>2017-03-04T22:06:37Z</time></trkpt>
<trkpt lat="47.564604" lon="11.100498"><ele>876.0</ele><time>2017-03-04T22:06:39Z</time></trkpt>
<trkpt lat="47.56485" lon="11.100354"><ele>876.0</ele><time>2017-03-04T22:06:41Z</time></trkpt>
<trkpt lat="47.56495" lon="11.100269"><ele>876.0</ele><time>2017-03-04T22:06:42Z</time></trkpt>
<trkpt lat="47.565205" lon="11.099976"><ele>885.0</ele><time>2017-03-04T22:06:44Z</time></trkpt>
<trkpt lat="47.565517" lon="11.099442"><ele>885.0</ele><time>2017-03-04T22:06:48Z</time></trkpt>
<trkpt lat="47.566313" lon="11.097757"><ele>877.0</ele><time>2017-03-04T22:06:59Z</time></trkpt>
<trkpt lat="47.567075" lon="11.096239"><ele>879.0</ele><time>2017-03-04T22:07:09Z</time></trkpt>
<trkpt lat="47.567266" lon="11.095894"><ele>879.0</ele><time>2017-03-04T22:07:11Z</time></trkpt>
<trkpt lat="47.567449" lon="11.095661"><ele>877.0</ele><time>2017-03-04T22:07:13Z</time></trkpt>
<trkpt lat="47.567712" lon="11.095424"><ele>876.0</ele><time>2017-03-04T22:07:15Z</time></trkpt>
<trkpt lat="47.567827" lon="11.095292"><ele>876.0</ele><time>2017-03-04T22:07:16Z</time></trkpt>
<trkpt lat="47.5681" lon="11.094861"><ele>876.0</ele><time>2017-03-04T22:07:20Z</time></trkpt>
<trkpt lat="47.568171" lon="11.094707"><ele>876.0</ele><time>2017-03-04T22:07:20Z</time></trkpt>
<trkpt lat="47.568727" lon="11.093285"><ele>873.0</ele><time>2017-03-04T22:07:29Z</time></trkpt>
<trkpt lat="47.568981" lon="11.09268"><ele>873.0</ele><time>2017-03-04T22:07:33Z</time></trkpt>
<trkpt lat="47.569105" lon="11.092249"><ele>869.0</ele><time>2017-03-04T22:07:35Z</time></trkpt>
<trkpt lat="47.56915" lon="11.091952"><ele>869.0</ele><time>2017-03-04T22:07:37Z</time></trkpt>
<trkpt lat="47.569164" lon="11.09174"><ele>869.0</ele><time>2017-03-04T22:07:38Z</time></trkpt>
<trkpt lat="47.569153" lon="11.091436"><ele>868.0</ele><time>2017-03-04T22:07:40Z</time></trkpt>
<trkpt lat="47.569128" lon="11.091206"><ele>868.0</ele><time>2017-03-04T22:07:41Z</time></trkpt>
<trkpt lat="47.568629" lon="11.08766"><ele>871.0</ele><time>2017-03-04T22:08:00Z</time></trkpt>
<trkpt lat="47.568613" lon="11.087422"><ele>870.0</ele><time>2017-03-04T22:08:01Z</time></trkpt>
<trkpt lat="47.568637" lon="11.08656"><ele>867.0</ele><time>2017-03-04T22:08:06Z</time></trkpt>
<trkpt lat="47.568649" lon="11.086263"><ele>867.0</ele><time>2017-03-04T22:08:07Z</time></trkpt>
<trkpt lat="47.568681" lon="11.08596"><ele>867.0</ele><time>2017-03-04T22:08:09Z</time></trkpt>
<trkpt lat="47.569173" lon="11.083804"><ele>889.0</ele><time>2017-03-04T22:08:21Z</time></trkpt>
<trkpt lat="47.56942" lon="11.082879"><ele>871.0</ele><time>2017-03-04T22:08:26Z</time></trkpt>
<trkpt lat="47.569545" lon="11.082499"><ele>853.0</ele><time>2017-03-04T22:08:29Z</time></trkpt>
<trkpt lat="47.569759" lon="11.081973"><ele>853.0</ele><time>2017-03-04T22:08:32Z</time></trkpt>
<trkpt lat="47.569911" lon="11.081696"><ele>853.0</ele><time>2017-03-04T22:08:34Z</time></trkpt>
<trkpt lat="47.570083" lon="11.081441"><ele>845.0</ele><time>2017-03-04T22:08:36Z</time></trkpt>
<trkpt lat="47.570256" lon="11.081239"><ele>845.0</ele><time>2017-03-04T22:08:38Z</time></trkpt>
<trkpt lat="47.57048" lon="11.081025"><ele>845.0</ele><time>2017-03-04T22:08:40Z</time></trkpt>
<trkpt lat="47.570719" lon="11.080833"><ele>842.0</ele><time>2017-03-04T22:08:42Z</time></trkpt>
<trkpt lat="47.571136" lon="11.080634"><ele>835.0</ele><time>2017-03-04T22:08:45Z</time></trkpt>
<trkpt lat="47.571458" lon="11.080556"><ele>835.0</ele><time>2017-03-04T22:08:48Z</time></trkpt>
<trkpt lat="47.572413" lon="11.080441"><ele>840.0</ele><time>2017-03-04T22:08:55Z</time></trkpt>
<trkpt lat="47.573135" lon="11.080272"><ele>840.0</ele><time>2017-03-04T22:09:01Z</time></trkpt>
<trkpt lat="47.573874" lon="11.079992"><ele>840.0</ele><time>2017-03-04T22:09:07Z</time></trkpt>
<trkpt lat="47.574284" lon="11.079776"><ele>842.0</ele><time>2017-03-04T22:09:10Z</time></trkpt>
<trkpt lat="47.57463" lon="11.079548"><ele>842.0</ele><time>2017-03-04T22:09:13Z</time></trkpt>
<trkpt lat="47.574894" lon="11.079331"><ele>842.0</ele><time>2017-03-04T22:09:16Z</time></trkpt>
<trkpt lat="47.57513" lon="11.079075"><ele>846.0</ele><time>2017-03-04T22:09:18Z</time></trkpt>
<trkpt lat="47.575555" lon="11.078475"><ele>846.0</ele><time>2017-03-04T22:09:23Z</time></trkpt>
<trkpt lat="47.575899" lon="11.077949"><ele>854.0</ele><time>2017-03-04T22:09:26Z</time></trkpt>
<trkpt lat="47.576057" lon="11.077741"><ele>854.0</ele><time>2017-03-04T22:09:28Z</time></trkpt>
<trkpt lat="47.576262" lon="11.077525"><ele>854.0</ele><time>2017-03-04T22:09:30Z</time></trkpt>
<trkpt lat="47.576462" lon="11.077376"><ele>841.0</ele><time>2017-03-04T22:09:32Z</time></trkpt>
<trkpt lat="47.576671" lon="11.077254"><ele>841.0</ele><time>2017-03-04T22:09:34Z</time></trkpt>
<trkpt lat="47.577245" lon="11.077013"><ele>841.0</ele><time>2017-03-04T22:09:38Z</time></trkpt>
<trkpt lat="47.577872" lon="11.076792"><ele>851.0</ele><time>2017-03-04T22:09:43Z</time></trkpt>
<trkpt lat="47.578209" lon="11.076615"><ele>838.0</ele><time>2017-03-04T22:09:46Z</time></trkpt>
<trkpt lat="47.578548" lon="11.076368"><ele>852.0</ele><time>2017-03-04T22:09:50Z</time></trkpt>
<trkpt lat="47.580421" lon="11.074571"><ele>842.0</ele><time>2017-03-04T22:10:07Z</time></trkpt>
<trkpt lat="47.580915" lon="11.074208"><ele>850.0</ele><time>2017-03-04T22:10:11Z</time></trkpt>
<trkpt lat="47.581237" lon="11.074087"><ele>839.0</ele><time>2017-03-04T22:10:14Z</time></trkpt>
<trkpt lat="47.581582" lon="11.074041"><ele>839.0</ele><time>2017-03-04T22:10:17Z</time></trkpt>
<trkpt lat="47.581752" lon="11.074043"><ele>838.0</ele><time>2017-03-04T22:10:18Z</time></trkpt>
<trkpt lat="47.581963" lon="11.074076"><ele>838.0</ele><time>2017-03-04T22:10:20Z</time></trkpt>
<trkpt lat="47.582392" lon="11.074235"><ele>848.0</ele><time>2017-03-04T22:10:23Z</time></trkpt>
<trkpt lat="47.583641" lon="11.074791"><ele>840.0</ele><time>2017-03-04T22:10:33Z</time></trkpt>
<trkpt lat="47.584478" lon="11.075087"><ele>840.0</ele><time>2017-03-04T22:10:40Z</time></trkpt>
<trkpt lat="47.584959" lon="11.075204"><ele>840.0</ele><time>2017-03-04T22:10:44Z</time></trkpt>
<trkpt lat="47.585337" lon="11.075234"><ele>839.0</ele><time>2017-03-04T22:10:47Z</time></trkpt>
<trkpt lat="47.585809" lon="11.075189"><ele>839.0</ele><time>2017-03-04T22:10:50Z</time></trkpt>
<trkpt lat="47.586252" lon="11.075063"><ele>837.0</ele><time>2017-03-04T22:10:54Z</time></trkpt>
<trkpt lat="47.586423" lon="11.074978"><ele>837.0</ele><time>2017-03-04T22:10:55Z</time></trkpt>
<trkpt lat="47.586674" lon="11.074825"><ele>838.0</ele><time>2017-03-04T22:11:00Z</time></trkpt>
<trkpt lat="47.586799" lon="11.07521"><ele>838.0</ele><time>2017-03-04T22:11:03Z</time></trkpt>
<trkpt lat="47.586962" lon="11.075484"><ele>838.0</ele><time>2017-03-04T22:11:06Z</time></trkpt>
<trkpt lat="47.587153" lon="11.0756"><ele>838.0</ele><time>2017-03-04T22:11:08Z</time></trkpt>
<trkpt lat="47.587388" lon="11.075617"><ele>838.0</ele><time>2017-03-04T22:11:11Z</time></trkpt>
<trkpt lat="47.587829" lon="11.075586"><ele>838.0</ele><time>2017-03-04T22:11:16Z</time></trkpt>
<trkpt lat="47.588032" lon="11.07554"><ele>838.0</ele><time>2017-03-04T22:11:18Z</time></trkpt>
<trkpt lat="47.588276" lon="11.075449"><ele>838.0</ele><time>2017-03-04T22:11:21Z</time></trkpt>
<trkpt lat="47.588637" lon="11.075276"><ele>841.0</ele><time>2017-03-04T22:11:25Z</time></trkpt>
<trkpt lat="47.588886" lon="11.075088"><ele>841.0</ele><time>2017-03-04T22:11:28Z</time></trkpt>
<trkpt lat="47.589011" lon="11.074961"><ele>839.0</ele><time>2017-03-04T22:11:30Z</time></trkpt>
<trkpt lat="47.589239" lon="11.074678"><ele>846.0</ele><time>2017-03-04T22:11:33Z</time></trkpt>
<trkpt lat="47.589935" lon="11.073528"><ele>841.0</ele><time>2017-03-04T22:11:45Z</time></trkpt>
<trkpt lat="47.590066" lon="11.073259"><ele>870.0</ele><time>2017-03-04T22:11:48Z</time></trkpt>
<trkpt lat="47.590229" lon="11.072735"><ele>870.0</ele><time>2017-03-04T22:11:53Z</time></trkpt>
<trkpt lat="47.590532" lon="11.070931"><ele>848.0</ele><time>2017-03-04T22:12:07Z</time></trkpt>
<trkpt lat="47.590591" lon="11.07067"><ele>842.0</ele><time>2017-03-04T22:12:09Z</time></trkpt>
<trkpt lat="47.59071" lon="11.07025"><ele>842.0</ele><time>2017-03-04T22:12:12Z</time></trkpt>
<trkpt lat="47.590867" lon="11.06986"><ele>842.0</ele><time>2017-03-04T22:12:15Z</time></trkpt>
<trkpt lat="47.591156" lon="11.069468"><ele>842.0</ele><time>2017-03-04T22:12:20Z</time></trkpt>
<trkpt lat="47.591272" lon="11.069345"><ele>842.0</ele><time>2017-03-04T22:12:21Z</time></trkpt>
<trkpt lat="47.591497" lon="11.069186"><ele>842.0</ele><time>2017-03-04T22:12:24Z</time></trkpt>
<trkpt lat="47.591891" lon="11.068972"><ele>840.0</ele><time>2017-03-04T22:12:29Z</time></trkpt>
<trkpt lat="47.592923" lon="11.068288"><ele>839.0</ele><time>2017-03-04T22:12:41Z</time></trkpt>
<trkpt lat="47.594733" lon="11.06703"><ele>840.0</ele><time>2017-03-04T22:13:03Z</time></trkpt>
<trkpt lat="47.594822" lon="11.066958"><ele>840.0</ele><time>2017-03-04T22:13:05Z</time></trkpt>
<trkpt lat="47.594721" lon="11.066584"><ele>840.0</ele><time>2017-03-04T22:13:08Z</time></trkpt>
<trkpt lat="47.594669" lon="11.066094"><ele>840.0</ele><time>2017-03-04T22:13:12Z</time></trkpt>
<trkpt lat="47.594555" lon="11.06564"><ele>839.0</ele><time>2017-03-04T22:13:15Z</time></trkpt>
<trkpt lat="47.594466" lon="11.065416"><ele>839.0</ele><time>2017-03-04T22:13:17Z</time></trkpt>
<trkpt lat="47.59423" lon="11.065007"><ele>839.0</ele><time>2017-03-04T22:13:21Z</time></trkpt>
<trkpt lat="47.59411" lon="11.064817"><ele>837.0</ele><time>2017-03-04T22:13:23Z</time></trkpt>
<trkpt lat="47.594205" lon="11.064742"><ele>837.0</ele><time>2017-03-04T22:13:25Z</time></trkpt>
<trkpt lat="47.594321" lon="11.064697"><ele>837.0</ele><time>2017-03-04T22:13:26Z</time></trkpt>
<trkpt lat="47.594871" lon="11.064589"><ele>837.0</ele><time>2017-03-04T22:13:33Z</time></trkpt>
<trkpt lat="47.595396" lon="11.064272"><ele>835.0</ele><time>2017-03-04T22:13:41Z</time></trkpt>
<trkpt lat="47.595658" lon="11.063981"><ele>834.0</ele><time>2017-03-04T22:13:45Z</time></trkpt>
<trkpt lat="47.59591" lon="11.063616"><ele>836.0</ele><time>2017-03-04T22:13:50Z</time></trkpt>
<trkpt lat="47.596174" lon="11.063164"><ele>834.0</ele><time>2017-03-04T22:13:55Z</time></trkpt>
<trkpt lat="47.596426" lon="11.062882"><ele>834.0</ele><time>2017-03-04T22:13:59Z</time></trkpt>
<trkpt lat="47.597692" lon="11.061892"><ele>836.0</ele><time>2017-03-04T22:14:17Z</time></trkpt>
<trkpt lat="47.597975" lon="11.061737"><ele>836.0</ele><time>2017-03-04T22:14:21Z</time></trkpt>
<trkpt lat="47.598133" lon="11.061677"><ele>836.0</ele><time>2017-03-04T22:14:23Z</time></trkpt>
<trkpt lat="47.598336" lon="11.061632"><ele>835.0</ele><time>2017-03-04T22:14:26Z</time></trkpt>
<trkpt lat="47.598371" lon="11.061624"><ele>835.0</ele><time>2017-03-04T22:14:27Z</time></trkpt>
<trkpt lat="47.598425" lon="11.061568"><ele>835.0</ele><time>2017-03-04T22:14:28Z</time></trkpt>
<trkpt lat="47.598442" lon="11.06146"><ele>835.0</ele><time>2017-03-04T22:14:29Z</time></trkpt>
<trkpt lat="47.599092" lon="11.056902"><ele>836.0</ele><time>2017-03-04T22:15:10Z</time></trkpt>
<trkpt lat="47.599387" lon="11.054786"><ele>834.0</ele><time>2017-03-04T22:15:29Z</time></trkpt>
<trkpt lat="47.599573" lon="11.053187"><ele>836.0</ele><time>2017-03-04T22:15:43Z</time></trkpt>
<trkpt lat="47.599814" lon="11.051292"><ele>842.0</ele><time>2017-03-04T22:16:00Z</time></trkpt>
<trkpt lat="47.599885" lon="11.050923"><ele>842.0</ele><time>2017-03-04T22:16:03Z</time></trkpt>
<trkpt lat="47.600086" lon="11.050203"><ele>836.0</ele><time>2017-03-04T22:16:10Z</time></trkpt>
<trkpt lat="47.600588" lon="11.048846"><ele>837.0</ele><time>2017-03-04T22:16:24Z</time></trkpt>
<trkpt lat="47.600632" lon="11.048649"><ele>837.0</ele><time>2017-03-04T22:16:26Z</time></trkpt>
<trkpt lat="47.600642" lon="11.048449"><ele>837.0</ele><time>2017-03-04T22:16:28Z</time></trkpt>
<trkpt lat="47.600621" lon="11.048308"><ele>838.0</ele><time>2017-03-04T22:16:29Z</time></trkpt>
<trkpt lat="47.600528" lon="11.048074"><ele>838.0</ele><time>2017-03-04T22:16:31Z</time></trkpt>
<trkpt lat="47.600939" lon="11.047668"><ele>833.0</ele><time>2017-03-04T22:16:34Z</time></trkpt>
<trkpt lat="47.601441" lon="11.046964"><ele>830.0</ele><time>2017-03-04T22:16:38Z</time></trkpt>
<trkpt lat="47.601836" lon="11.046343"><ele>830.0</ele><time>2017-03-04T22:16:41Z</time></trkpt>
<trkpt lat="47.602217" lon="11.04558"><ele>831.0</ele><time>2017-03-04T22:16:45Z</time></trkpt>
<trkpt lat="47.602522" lon="11.044852"><ele>831.0</ele><time>2017-03-04T22:16:48Z</time></trkpt>
<trkpt lat="47.602756" lon="11.044166"><ele>831.0</ele><time>2017-03-04T22:16:51Z</time></trkpt>
<trkpt lat="47.602999" lon="11.043252"><ele>830.0</ele><time>2017-03-04T22:16:55Z</time></trkpt>
<trkpt lat="47.603141" lon="11.042508"><ele>830.0</ele><time>2017-03-04T22:16:58Z</time></trkpt>
<trkpt lat="47.60318" lon="11.042098"><ele>832.0</ele><time>2017-03-04T22:16:59Z</time></trkpt>
<trkpt lat="47.603185" lon="11.041532"><ele>833.0</ele><time>2017-03-04T22:17:01Z</time></trkpt>
<trkpt lat="47.603136" lon="11.040776"><ele>835.0</ele><time>2017-03-04T22:17:04Z</time></trkpt>
<trkpt lat="47.60314" lon="11.040115"><ele>835.0</ele><time>2017-03-04T22:17:07Z</time></trkpt>
<trkpt lat="47.603265" lon="11.039325"><ele>835.0</ele><time>2017-03-04T22:17:10Z</time></trkpt>
<trkpt lat="47.603427" lon="11.038809"><ele>831.0</ele><time>2017-03-04T22:17:12Z</time></trkpt>
<trkpt lat="47.60363" lon="11.038339"><ele>831.0</ele><time>2017-03-04T22:17:14Z</time></trkpt>
<trkpt lat="47.603858" lon="11.037921"><ele>834.0</ele><time>2017-03-04T22:17:16Z</time></trkpt>
<trkpt lat="47.604175" lon="11.037502"><ele>832.0</ele><time>2017-03-04T22:17:18Z</time></trkpt>
<trkpt lat="47.60466" lon="11.036934"><ele>836.0</ele><time>2017-03-04T22:17:22Z</time></trkpt>
<trkpt lat="47.605145" lon="11.036242"><ele>831.0</ele><time>2017-03-04T22:17:25Z</time></trkpt>
<trkpt lat="47.605367" lon="11.035791"><ele>834.0</ele><time>2017-03-04T22:17:27Z</time></trkpt>
<trkpt lat="47.605886" lon="11.034484"><ele>832.0</ele><time>2017-03-04T22:17:33Z</time></trkpt>
<trkpt lat="47.606669" lon="11.03262"><ele>846.0</ele><time>2017-03-04T22:17:41Z</time></trkpt>
<trkpt lat="47.606837" lon="11.032267"><ele>838.0</ele><time>2017-03-04T22:17:43Z</time></trkpt>
<trkpt lat="47.607104" lon="11.031813"><ele>838.0</ele><time>2017-03-04T22:17:45Z</time></trkpt>
<trkpt lat="47.607351" lon="11.031516"><ele>831.0</ele><time>2017-03-04T22:17:47Z</time></trkpt>
<trkpt lat="47.607434" lon="11.031436"><ele>830.5</ele><time>2017-03-04T22:17:48Z</time></trkpt>
<trkpt lat="47.607434" lon="11.031436"><ele>830.5</ele><time>2017-03-04T22:17:48Z</time></trkpt>
<trkpt lat="47.607651" lon="11.031224"><ele>830.0</ele><time>2017-03-04T22:17:49Z</time></trkpt>
<trkpt lat="47.607966" lon="11.031003"><ele>830.0</ele><time>2017-03-04T22:17:52Z</time></trkpt>
<trkpt lat="47.608236" lon="11.030867"><ele>830.0</ele><time>2017-03-04T22:17:53Z</time></trkpt>
<trkpt lat="47.608448" lon="11.030789"><ele>833.0</ele><time>2017-03-04T22:17:55Z</time></trkpt>
<trkpt lat="47.608682" lon="11.030734"><ele>833.0</ele><time>2017-03-04T22:17:56Z</time></trkpt>
<trkpt lat="47.609014" lon="11.030715"><ele>833.0</ele><time>2017-03-04T22:17:58Z</time></trkpt>
<trkpt lat="47.609368" lon="11.030762"><ele>833.0</ele><time>2017-03-04T22:18:01Z</time></trkpt>
<trkpt lat="47.610688" lon="11.031005"><ele>830.0</ele><time>2017-03-04T22:18:09Z</time></trkpt>
<trkpt lat="47.611048" lon="11.031009"><ele>831.0</ele><time>2017-03-04T22:18:11Z</time></trkpt>
<trkpt lat="47.613045" lon="11.030827"><ele>835.0</ele><time>2017-03-04T22:18:24Z</time></trkpt>
<trkpt lat="47.61379" lon="11.030692"><ele>832.0</ele><time>2017-03-04T22:18:29Z</time></trkpt>
<trkpt lat="47.614123" lon="11.0306"><ele>832.0</ele><time>2017-03-04T22:18:31Z</time></trkpt>
<trkpt lat="47.614573" lon="11.030467"><ele>832.0</ele><time>2017-03-04T22:18:34Z</time></trkpt>
<trkpt lat="47.616688" lon="11.029762"><ele>832.0</ele><time>2017-03-04T22:18:48Z</time></trkpt>
<trkpt lat="47.617339" lon="11.029637"><ele>832.0</ele><time>2017-03-04T22:18:52Z</time></trkpt>
<trkpt lat="47.617989" lon="11.0296"><ele>830.0</ele><time>2017-03-04T22:18:56Z</time></trkpt>
<trkpt lat="47.618181" lon="11.029612"><ele>830.0</ele><time>2017-03-04T22:18:57Z</time></trkpt>
<trkpt lat="47.618629" lon="11.029687"><ele>829.0</ele><time>2017-03-04T22:19:00Z</time></trkpt>
<trkpt lat="47.619272" lon="11.029847"><ele>830.0</ele><time>2017-03-04T22:19:05Z</time></trkpt>
<trkpt lat="47.619666" lon="11.029994"><ele>830.0</ele><time>2017-03-04T22:19:07Z</time></trkpt>
<trkpt lat="47.620366" lon="11.030212"><ele>834.0</ele><time>2017-03-04T22:19:12Z</time></trkpt>
<trkpt lat="47.620879" lon="11.030316"><ele>837.0</ele><time>2017-03-04T22:19:15Z</time></trkpt>
<trkpt lat="47.621154" lon="11.030358"><ele>837.0</ele><time>2017-03-04T22:19:17Z</time></trkpt>
<trkpt lat="47.623024" lon="11.030498"><ele>834.0</ele><time>2017-03-04T22:19:29Z</time></trkpt>
<trkpt lat="47.62366" lon="11.030579"><ele>833.0</ele><time>2017-03-04T22:19:33Z</time></trkpt>
<trkpt lat="47.624237" lon="11.030697"><ele>832.0</ele><time>2017-03-04T22:19:36Z</time></trkpt>
<trkpt lat="47.625089" lon="11.030935"><ele>832.0</ele><time>2017-03-04T22:19:42Z</time></trkpt>
<trkpt lat="47.625947" lon="11.031271"><ele>832.0</ele><time>2017-03-04T22:19:48Z</time></trkpt>
<trkpt lat="47.628289" lon="11.032407"><ele>839.0</ele><time>2017-03-04T22:20:03Z</time></trkpt>
<trkpt lat="47.628639" lon="11.032527"><ele>840.0</ele><time>2017-03-04T22:20:06Z</time></trkpt>
<trkpt lat="47.629033" lon="11.032624"><ele>840.0</ele><time>2017-03-04T22:20:08Z</time></trkpt>
<trkpt lat="47.629479" lon="11.032663"><ele>839.0</ele><time>2017-03-04T22:20:11Z</time></trkpt>
<trkpt lat="47.629859" lon="11.032653"><ele>839.0</ele><time>2017-03-04T22:20:13Z</time></trkpt>
<trkpt lat="47.630174" lon="11.032602"><ele>836.0</ele><time>2017-03-04T22:20:15Z</time></trkpt>
<trkpt lat="47.630481" lon="11.032518"><ele>836.0</ele><time>2017-03-04T22:20:17Z</time></trkpt>
<trkpt lat="47.630917" lon="11.032363"><ele>835.0</ele><time>2017-03-04T22:20:20Z</time></trkpt>
<trkpt lat="47.631328" lon="11.032178"><ele>835.0</ele><time>2017-03-04T22:20:23Z</time></trkpt>
<trkpt lat="47.633965" lon="11.030719"><ele>839.0</ele><time>2017-03-04T22:20:41Z</time></trkpt>
<trkpt lat="47.634803" lon="11.030315"><ele>846.0</ele><time>2017-03-04T22:20:47Z</time></trkpt>
<trkpt lat="47.635516" lon="11.030017"><ele>851.0</ele><time>2017-03-04T22:20:51Z</time></trkpt>
<trkpt lat="47.636188" lon="11.029786"><ele>849.0</ele><time>2017-03-04T22:20:56Z</time></trkpt>
<trkpt lat="47.637285" lon="11.029474"><ele>847.0</ele><time>2017-03-04T22:21:03Z</time></trkpt>
<trkpt lat="47.639575" lon="11.029053"><ele>854.0</ele><time>2017-03-04T22:21:18Z</time></trkpt>
<trkpt lat="47.640317" lon="11.028889"><ele>856.0</ele><time>2017-03-04T22:21:22Z</time></trkpt>
<trkpt lat="47.641181" lon="11.028608"><ele>861.0</ele><time>2017-03-04T22:21:28Z</time></trkpt>
<trkpt lat="47.641646" lon="11.028409"><ele>861.0</ele><time>2017-03-04T22:21:31Z</time></trkpt>
<trkpt lat="47.64218" lon="11.02812"><ele>860.0</ele><time>2017-03-04T22:21:35Z</time></trkpt>
<trkpt lat="47.643499" lon="11.027216"><ele>865.0</ele><time>2017-03-04T22:21:44Z</time></trkpt>
<trkpt lat="47.645244" lon="11.025966"><ele>863.0</ele><time>2017-03-04T22:21:56Z</time></trkpt>
<trkpt lat="47.645737" lon="11.025632"><ele>858.0</ele><time>2017-03-04T22:22:00Z</time></trkpt>
<trkpt lat="47.646304" lon="11.025295"><ele>864.0</ele><time>2017-03-04T22:22:04Z</time></trkpt>
<trkpt lat="47.646927" lon="11.025006"><ele>865.0</ele><time>2017-03-04T22:22:08Z</time></trkpt>
<trkpt lat="47.647486" lon="11.024815"><ele>861.0</ele><time>2017-03-04T22:22:12Z</time></trkpt>
<trkpt lat="47.648344" lon="11.024659"><ele>864.0</ele><time>2017-03-04T22:22:17Z</time></trkpt>
<trkpt lat="47.648877" lon="11.024589"><ele>864.0</ele><time>2017-03-04T22:22:20Z</time></trkpt>
<trkpt lat="47.649416" lon="11.02459"><ele>862.0</ele><time>2017-03-04T22:22:24Z</time></trkpt>
<trkpt lat="47.649892" lon="11.024642"><ele>862.0</ele><time>2017-03-04T22:22:27Z</time></trkpt>
<trkpt lat="47.650555" lon="11.024778"><ele>862.0</ele><time>2017-03-04T22:22:31Z</time></trkpt>
<trkpt lat="47.651068" lon="11.024912"><ele>864.0</ele><time>2017-03-04T22:22:35Z</time></trkpt>
<trkpt lat="47.652038" lon="11.025248"><ele>870.0</ele><time>2017-03-04T22:22:41Z</time></trkpt>
<trkpt lat="47.655335" lon="11.026498"><ele>886.0</ele><time>2017-03-04T22:23:03Z</time></trkpt>
<trkpt lat="47.655914" lon="11.026691"><ele>890.0</ele><time>2017-03-04T22:23:06Z</time></trkpt>
<trkpt lat="47.656599" lon="11.02688"><ele>890.0</ele><time>2017-03-04T22:23:11Z</time></trkpt>
<trkpt lat="47.657392" lon="11.027055"><ele>889.0</ele><time>2017-03-04T22:23:16Z</time></trkpt>
<trkpt lat="47.657945" lon="11.02715"><ele>890.0</ele><time>2017-03-04T22:23:19Z</time></trkpt>
<trkpt lat="47.658304" lon="11.027179"><ele>890.0</ele><time>2017-03-04T22:23:22Z</time></trkpt>
<trkpt lat="47.659103" lon="11.02719"><ele>891.0</ele><time>2017-03-04T22:23:27Z</time></trkpt>
<trkpt lat="47.659538" lon="11.027378"><ele>887.0</ele><time>2017-03-04T22:23:30Z</time></trkpt>
<trkpt lat="47.660034" lon="11.027505"><ele>885.0</ele><time>2017-03-04T22:23:33Z</time></trkpt>
<trkpt lat="47.660799" lon="11.027852"><ele>885.0</ele><time>2017-03-04T22:23:38Z</time></trkpt>
<trkpt lat="47.66146" lon="11.02824"><ele>885.0</ele><time>2017-03-04T22:23:43Z</time></trkpt>
<trkpt lat="47.661758" lon="11.028385"><ele>881.0</ele><time>2017-03-04T22:23:45Z</time></trkpt>
<trkpt lat="47.66257" lon="11.028713"><ele>873.0</ele><time>2017-03-04T22:23:50Z</time></trkpt>
<trkpt lat="47.663375" lon="11.028799"><ele>862.0</ele><time>2017-03-04T22:23:55Z</time></trkpt>
<trkpt lat="47.665269" lon="11.028853"><ele>857.0</ele><time>2017-03-04T22:24:07Z</time></trkpt>
<trkpt lat="47.665966" lon="11.029064"><ele>855.0</ele><time>2017-03-04T22:24:12Z</time></trkpt>
<trkpt lat="47.667808" lon="11.030121"><ele>855.0</ele><time>2017-03-04T22:24:24Z</time></trkpt>
<trkpt lat="47.6683" lon="11.030329"><ele>855.0</ele><time>2017-03-04T22:24:28Z</time></trkpt>
<trkpt lat="47.668917" lon="11.030471"><ele>856.0</ele><time>2017-03-04T22:24:32Z</time></trkpt>
<trkpt lat="47.669459" lon="11.030471"><ele>857.0</ele><time>2017-03-04T22:24:35Z</time></trkpt>
<trkpt lat="47.670072" lon="11.030335"><ele>862.0</ele><time>2017-03-04T22:24:39Z</time></trkpt>
<trkpt lat="47.670561" lon="11.030145"><ele>862.0</ele><time>2017-03-04T22:24:42Z</time></trkpt>
<trkpt lat="47.670778" lon="11.030163"><ele>862.0</ele><time>2017-03-04T22:24:44Z</time></trkpt>
<trkpt lat="47.670875" lon="11.030202"><ele>865.0</ele><time>2017-03-04T22:24:44Z</time></trkpt>
<trkpt lat="47.67095" lon="11.030272"><ele>865.0</ele><time>2017-03-04T22:24:45Z</time></trkpt>
<trkpt lat="47.671014" lon="11.030386"><ele>865.0</ele><time>2017-03-04T22:24:46Z</time></trkpt>
<trkpt lat="47.671058" lon="11.03052"><ele>865.0</ele><time>2017-03-04T22:24:46Z</time></trkpt>
<trkpt lat="47.671052" lon="11.030103"><ele>865.0</ele><time>2017-03-04T22:24:48Z</time></trkpt>
<trkpt lat="47.671091" lon="11.029972"><ele>868.0</ele><time>2017-03-04T22:24:49Z</time></trkpt>
<trkpt lat="47.671092" lon="11.029969"><ele>868.0</ele><time>2017-03-04T22:24:49Z</time></trkpt>
<trkpt lat="47.671092" lon="11.029969"><ele>868.0</ele><time>2017-03-04T22:24:49Z</time></trkpt>
<trkpt lat="47.671145" lon="11.029873"><ele>868.0</ele><time>2017-03-04T22:24:49Z</time></trkpt>
<trkpt lat="47.671272" lon="11.02972"><ele>868.0</ele><time>2017-03-04T22:24:50Z</time></trkpt>
<trkpt lat="47.671526" lon="11.029507"><ele>868.0</ele><time>2017-03-04T22:24:52Z</time></trkpt>
<trkpt lat="47.672043" lon="11.028948"><ele>868.0</ele><time>2017-03-04T22:24:57Z</time></trkpt>
<trkpt lat="47.672286" lon="11.028646"><ele>868.0</ele><time>2017-03-04T22:24:59Z</time></trkpt>
<trkpt lat="47.672486" lon="11.02836"><ele>868.0</ele><time>2017-03-04T22:25:01Z</time></trkpt>
<trkpt lat="47.672704" lon="11.027978"><ele>869.0</ele><time>2017-03-04T22:25:04Z</time></trkpt>
<trkpt lat="47.672939" lon="11.027519"><ele>869.0</ele><time>2017-03-04T22:25:07Z</time></trkpt>
<trkpt lat="47.673134" lon="11.027046"><ele>871.0</ele><time>2017-03-04T22:25:09Z</time></trkpt>
<trkpt lat="47.673304" lon="11.026578"><ele>875.0</ele><time>2017-03-04T22:25:12Z</time></trkpt>
<trkpt lat="47.673691" lon="11.025174"><ele>872.0</ele><time>2017-03-04T22:25:19Z</time></trkpt>
<trkpt lat="47.673806" lon="11.024797"><ele>876.0</ele><time>2017-03-04T22:25:22Z</time></trkpt>
<trkpt lat="47.674276" lon="11.023735"><ele>874.0</ele><time>2017-03-04T22:25:28Z</time></trkpt>
<trkpt lat="47.674374" lon="11.02345"><ele>874.0</ele><time>2017-03-04T22:25:29Z</time></trkpt>
<trkpt lat="47.674739" lon="11.022788"><ele>883.0</ele><time>2017-03-04T22:25:33Z</time></trkpt>
<trkpt lat="47.675972" lon="11.020777"><ele>873.0</ele><time>2017-03-04T22:25:44Z</time></trkpt>
<trkpt lat="47.676951" lon="11.019309"><ele>867.0</ele><time>2017-03-04T22:25:52Z</time></trkpt>
<trkpt lat="47.677523" lon="11.018525"><ele>857.0</ele><time>2017-03-04T22:25:57Z</time></trkpt>
<trkpt lat="47.679222" lon="11.016286"><ele>853.0</ele><time>2017-03-04T22:26:11Z</time></trkpt>
<trkpt lat="47.679549" lon="11.015806"><ele>853.0</ele><time>2017-03-04T22:26:14Z</time></trkpt>
<trkpt lat="47.680597" lon="11.014073"><ele>852.0</ele><time>2017-03-04T22:26:23Z</time></trkpt>
<trkpt lat="47.680935" lon="11.013563"><ele>857.0</ele><time>2017-03-04T22:26:26Z</time></trkpt>
<trkpt lat="47.681209" lon="11.013192"><ele>851.0</ele><time>2017-03-04T22:26:29Z</time></trkpt>
<trkpt lat="47.681545" lon="11.012818"><ele>851.0</ele><time>2017-03-04T22:26:31Z</time></trkpt>
<trkpt lat="47.682538" lon="11.011945"><ele>844.0</ele><time>2017-03-04T22:26:38Z</time></trkpt>
<trkpt lat="47.682964" lon="11.011523"><ele>838.0</ele><time>2017-03-04T22:26:41Z</time></trkpt>
<trkpt lat="47.683323" lon="11.011122"><ele>838.0</ele><time>2017-03-04T22:26:44Z</time></trkpt>
<trkpt lat="47.684055" lon="11.010239"><ele>838.0</ele><time>2017-03-04T22:26:50Z</time></trkpt>
<trkpt lat="47.684752" lon="11.009283"><ele>830.0</ele><time>2017-03-04T22:26:56Z</time></trkpt>
<trkpt lat="47.685032" lon="11.008834"><ele>830.0</ele><time>2017-03-04T22:26:58Z</time></trkpt>
<trkpt lat="47.685279" lon="11.008382"><ele>830.0</ele><time>2017-03-04T22:27:00Z</time></trkpt>
<trkpt lat="47.685482" lon="11.007977"><ele>826.0</ele><time>2017-03-04T22:27:02Z</time></trkpt>
<trkpt lat="47.685719" lon="11.007433"><ele>827.0</ele><time>2017-03-04T22:27:05Z</time></trkpt>
<trkpt lat="47.685894" lon="11.006978"><ele>822.0</ele><time>2017-03-04T22:27:07Z</time></trkpt>
<trkpt lat="47.686162" lon="11.006171"><ele>823.0</ele><time>2017-03-04T22:27:11Z</time></trkpt>
<trkpt lat="47.686305" lon="11.005666"><ele>820.0</ele><time>2017-03-04T22:27:13Z</time></trkpt>
<trkpt lat="47.687043" lon="11.002698"><ele>815.0</ele><time>2017-03-04T22:27:26Z</time></trkpt>
<trkpt lat="47.687477" lon="11.001209"><ele>802.0</ele><time>2017-03-04T22:27:33Z</time></trkpt>
<trkpt lat="47.687816" lon="11.000181"><ele>797.0</ele><time>2017-03-04T22:27:38Z</time></trkpt>
<trkpt lat="47.688207" lon="10.999173"><ele>796.0</ele><time>2017-03-04T22:27:42Z</time></trkpt>
<trkpt lat="47.688535" lon="10.998451"><ele>795.0</ele><time>2017-03-04T22:27:46Z</time></trkpt>
<trkpt lat="47.6892" lon="10.997121"><ele>800.0</ele><time>2017-03-04T22:27:53Z</time></trkpt>
<trkpt lat="47.689813" lon="10.995844"><ele>801.0</ele><time>2017-03-04T22:27:59Z</time></trkpt>
<trkpt lat="47.690359" lon="10.994597"><ele>803.0</ele><time>2017-03-04T22:28:05Z</time></trkpt>
<trkpt lat="47.69077" lon="10.993472"><ele>801.0</ele><time>2017-03-04T22:28:10Z</time></trkpt>
<trkpt lat="47.691173" lon="10.992236"><ele>802.0</ele><time>2017-03-04T22:28:16Z</time></trkpt>
<trkpt lat="47.691385" lon="10.991701"><ele>802.0</ele><time>2017-03-04T22:28:19Z</time></trkpt>
<trkpt lat="47.691582" lon="10.991266"><ele>803.0</ele><time>2017-03-04T22:28:21Z</time></trkpt>
<trkpt lat="47.692716" lon="10.989134"><ele>805.0</ele><time>2017-03-04T22:28:32Z</time></trkpt>
<trkpt lat="47.69301" lon="10.988523"><ele>805.0</ele><time>2017-03-04T22:28:35Z</time></trkpt>
<trkpt lat="47.693474" lon="10.987483"><ele>805.0</ele><time>2017-03-04T22:28:40Z</time></trkpt>
<trkpt lat="47.693898" lon="10.986635"><ele>800.0</ele><time>2017-03-04T22:28:44Z</time></trkpt>
<trkpt lat="47.694121" lon="10.986248"><ele>800.0</ele><time>2017-03-04T22:28:47Z</time></trkpt>
<trkpt lat="47.694324" lon="10.985933"><ele>803.0</ele><time>2017-03-04T22:28:48Z</time></trkpt>
<trkpt lat="47.694721" lon="10.985383"><ele>802.0</ele><time>2017-03-04T22:28:52Z</time></trkpt>
<trkpt lat="47.694948" lon="10.985114"><ele>802.0</ele><time>2017-03-04T22:28:53Z</time></trkpt>
<trkpt lat="47.69539" lon="10.984663"><ele>798.0</ele><time>2017-03-04T22:28:57Z</time></trkpt>
<trkpt lat="47.695656" lon="10.984421"><ele>798.0</ele><time>2017-03-04T22:28:59Z</time></trkpt>
<trkpt lat="47.698548" lon="10.982218"><ele>794.0</ele><time>2017-03-04T22:29:18Z</time></trkpt>
<trkpt lat="47.701369" lon="10.980011"><ele>792.0</ele><time>2017-03-04T22:29:38Z</time></trkpt>
<trkpt lat="47.701797" lon="10.979716"><ele>789.0</ele><time>2017-03-04T22:29:41Z</time></trkpt>
<trkpt lat="47.702184" lon="10.979527"><ele>789.0</ele><time>2017-03-04T22:29:43Z</time></trkpt>
<trkpt lat="47.702559" lon="10.979409"><ele>790.0</ele><time>2017-03-04T22:29:45Z</time></trkpt>
<trkpt lat="47.702904" lon="10.979355"><ele>790.0</ele><time>2017-03-04T22:29:48Z</time></trkpt>
<trkpt lat="47.70342" lon="10.979368"><ele>787.0</ele><time>2017-03-04T22:29:51Z</time></trkpt>
<trkpt lat="47.703873" lon="10.979474"><ele>787.0</ele><time>2017-03-04T22:29:53Z</time></trkpt>
<trkpt lat="47.704119" lon="10.979562"><ele>787.0</ele><time>2017-03-04T22:29:55Z</time></trkpt>
<trkpt lat="47.704355" lon="10.979685"><ele>783.0</ele><time>2017-03-04T22:29:57Z</time></trkpt>
<trkpt lat="47.704816" lon="10.979974"><ele>783.0</ele><time>2017-03-04T22:30:00Z</time></trkpt>
<trkpt lat="47.7054" lon="10.98037"><ele>774.0</ele><time>2017-03-04T22:30:04Z</time></trkpt>
<trkpt lat="47.705841" lon="10.980548"><ele>774.0</ele><time>2017-03-04T22:30:06Z</time></trkpt>
<trkpt lat="47.706205" lon="10.980633"><ele>774.0</ele><time>2017-03-04T22:30:09Z</time></trkpt>
<trkpt lat="47.706413" lon="10.980656"><ele>774.0</ele><time>2017-03-04T22:30:10Z</time></trkpt>
<trkpt lat="47.707024" lon="10.980636"><ele>780.0</ele><time>2017-03-04T22:30:14Z</time></trkpt>
<trkpt lat="47.707236" lon="10.980596"><ele>780.0</ele><time>2017-03-04T22:30:15Z</time></trkpt>
<trkpt lat="47.707663" lon="10.980443"><ele>782.0</ele><time>2017-03-04T22:30:18Z</time></trkpt>
<trkpt lat="47.707881" lon="10.980339"><ele>782.0</ele><time>2017-03-04T22:30:19Z</time></trkpt>
<trkpt lat="47.708047" lon="10.980233"><ele>782.0</ele><time>2017-03-04T22:30:20Z</time></trkpt>
<trkpt lat="47.709464" lon="10.979187"><ele>786.0</ele><time>2017-03-04T22:30:30Z</time></trkpt>
<trkpt lat="47.709726" lon="10.978954"><ele>787.0</ele><time>2017-03-04T22:30:32Z</time></trkpt>
<trkpt lat="47.709931" lon="10.978719"><ele>787.0</ele><time>2017-03-04T22:30:33Z</time></trkpt>
<trkpt lat="47.709977" lon="10.978636"><ele>787.0</ele><time>2017-03-04T22:30:34Z</time></trkpt>
<trkpt lat="47.709977" lon="10.978636"><ele>787.0</ele><time>2017-03-04T22:30:34Z</time></trkpt>
<trkpt lat="47.71016" lon="10.978317"><ele>774.0</ele><time>2017-03-04T22:30:37Z</time></trkpt>
<trkpt lat="47.710267" lon="10.977987"><ele>774.0</ele><time>2017-03-04T22:30:40Z</time></trkpt>
<trkpt lat="47.710844" lon="10.975316"><ele>781.0</ele><time>2017-03-04T22:31:01Z</time></trkpt>
<trkpt lat="47.710948" lon="10.974955"><ele>786.0</ele><time>2017-03-04T22:31:04Z</time></trkpt>
<trkpt lat="47.711064" lon="10.974658"><ele>786.0</ele><time>2017-03-04T22:31:06Z</time></trkpt>
<trkpt lat="47.711162" lon="10.974484"><ele>786.0</ele><time>2017-03-04T22:31:08Z</time></trkpt>
<trkpt lat="47.711077" lon="10.974276"><ele>786.0</ele><time>2017-03-04T22:31:09Z</time></trkpt>
<trkpt lat="47.710929" lon="10.974142"><ele>789.0</ele><time>2017-03-04T22:31:11Z</time></trkpt>
<trkpt lat="47.710662" lon="10.973775"><ele>791.0</ele><time>2017-03-04T22:31:13Z</time></trkpt>
<trkpt lat="47.710432" lon="10.973271"><ele>796.0</ele><time>2017-03-04T22:31:17Z</time></trkpt>
<trkpt lat="47.70952" lon="10.970648"><ele>808.0</ele><time>2017-03-04T22:31:32Z</time></trkpt>
<trkpt lat="47.709319" lon="10.969899"><ele>818.0</ele><time>2017-03-04T22:31:36Z</time></trkpt>
<trkpt lat="47.709176" lon="10.969095"><ele>826.0</ele><time>2017-03-04T22:31:40Z</time></trkpt>
<trkpt lat="47.708784" lon="10.965926"><ele>829.0</ele><time>2017-03-04T22:31:56Z</time></trkpt>
<trkpt lat="47.708644" lon="10.965033"><ele>837.0</ele><time>2017-03-04T22:32:01Z</time></trkpt>
<trkpt lat="47.708454" lon="10.964167"><ele>847.0</ele><time>2017-03-04T22:32:05Z</time></trkpt>
<trkpt lat="47.708199" lon="10.96324"><ele>844.0</ele><time>2017-03-04T22:32:10Z</time></trkpt>
<trkpt lat="47.708003" lon="10.962409"><ele>843.0</ele><time>2017-03-04T22:32:15Z</time></trkpt>
<trkpt lat="47.707931" lon="10.961892"><ele>843.0</ele><time>2017-03-04T22:32:18Z</time></trkpt>
<trkpt lat="47.707911" lon="10.961315"><ele>842.0</ele><time>2017-03-04T22:32:21Z</time></trkpt>
<trkpt lat="47.707969" lon="10.960692"><ele>837.0</ele><time>2017-03-04T22:32:24Z</time></trkpt>
<trkpt lat="47.708096" lon="10.960099"><ele>837.0</ele><time>2017-03-04T22:32:27Z</time></trkpt>
<trkpt lat="47.70823" lon="10.959672"><ele>834.0</ele><time>2017-03-04T22:32:29Z</time></trkpt>
<trkpt lat="47.7085" lon="10.959049"><ele>838.0</ele><time>2017-03-04T22:32:33Z</time></trkpt>
<trkpt lat="47.709742" lon="10.9566"><ele>842.0</ele><time>2017-03-04T22:32:48Z</time></trkpt>
<trkpt lat="47.709907" lon="10.956235"><ele>842.0</ele><time>2017-03-04T22:32:51Z</time></trkpt>
<trkpt lat="47.710041" lon="10.955873"><ele>845.0</ele><time>2017-03-04T22:32:53Z</time></trkpt>
<trkpt lat="47.710198" lon="10.955325"><ele>847.0</ele><time>2017-03-04T22:32:56Z</time></trkpt>
<trkpt lat="47.710277" lon="10.95483"><ele>851.0</ele><time>2017-03-04T22:32:58Z</time></trkpt>
<trkpt lat="47.710315" lon="10.954167"><ele>851.0</ele><time>2017-03-04T22:33:02Z</time></trkpt>
<trkpt lat="47.710302" lon="10.953814"><ele>856.0</ele><time>2017-03-04T22:33:04Z</time></trkpt>
<trkpt lat="47.710247" lon="10.953392"><ele>856.0</ele><time>2017-03-04T22:33:06Z</time></trkpt>
<trkpt lat="47.710154" lon="10.952978"><ele>864.0</ele><time>2017-03-04T22:33:08Z</time></trkpt>
<trkpt lat="47.710025" lon="10.95258"><ele>864.0</ele><time>2017-03-04T22:33:10Z</time></trkpt>
<trkpt lat="47.709879" lon="10.952241"><ele>869.0</ele><time>2017-03-04T22:33:12Z</time></trkpt>
<trkpt lat="47.709514" lon="10.951623"><ele>875.0</ele><time>2017-03-04T22:33:16Z</time></trkpt>
<trkpt lat="47.708473" lon="10.950173"><ele>878.0</ele><time>2017-03-04T22:33:27Z</time></trkpt>
<trkpt lat="47.708023" lon="10.949354"><ele>873.0</ele><time>2017-03-04T22:33:32Z</time></trkpt>
<trkpt lat="47.707269" lon="10.94774"><ele>874.0</ele><time>2017-03-04T22:33:42Z</time></trkpt>
<trkpt lat="47.706816" lon="10.946701"><ele>877.0</ele><time>2017-03-04T22:33:49Z</time></trkpt>
<trkpt lat="47.706622" lon="10.946144"><ele>870.0</ele><time>2017-03-04T22:33:52Z</time></trkpt>
<trkpt lat="47.706316" lon="10.944765"><ele>876.0</ele><time>2017-03-04T22:33:59Z</time></trkpt>
<trkpt lat="47.706153" lon="10.94418"><ele>876.0</ele><time>2017-03-04T22:34:02Z</time></trkpt>
<trkpt lat="47.706003" lon="10.943797"><ele>880.0</ele><time>2017-03-04T22:34:05Z</time></trkpt>
<trkpt lat="47.705639" lon="10.943008"><ele>873.0</ele><time>2017-03-04T22:34:09Z</time></trkpt>
<trkpt lat="47.705552" lon="10.942782"><ele>873.0</ele><time>2017-03-04T22:34:11Z</time></trkpt>
<trkpt lat="47.705441" lon="10.942247"><ele>875.0</ele><time>2017-03-04T22:34:14Z</time></trkpt>
<trkpt lat="47.705321" lon="10.940749"><ele>875.0</ele><time>2017-03-04T22:34:21Z</time></trkpt>
<trkpt lat="47.705282" lon="10.94048"><ele>875.0</ele><time>2017-03-04T22:34:23Z</time></trkpt>
<trkpt lat="47.705216" lon="10.9402"><ele>875.0</ele><time>2017-03-04T22:34:24Z</time></trkpt>
<trkpt lat="47.70511" lon="10.939862"><ele>877.0</ele><time>2017-03-04T22:34:26Z</time></trkpt>
<trkpt lat="47.704874" lon="10.939387"><ele>866.0</ele><time>2017-03-04T22:34:29Z</time></trkpt>
<trkpt lat="47.704367" lon="10.938512"><ele>863.0</ele><time>2017-03-04T22:34:35Z</time></trkpt>
<trkpt lat="47.704205" lon="10.938178"><ele>869.0</ele><time>2017-03-04T22:34:37Z</time></trkpt>
<trkpt lat="47.70404" lon="10.937788"><ele>863.0</ele><time>2017-03-04T22:34:39Z</time></trkpt>
<trkpt lat="47.703946" lon="10.937515"><ele>863.0</ele><time>2017-03-04T22:34:41Z</time></trkpt>
<trkpt lat="47.703857" lon="10.937134"><ele>861.0</ele><time>2017-03-04T22:34:43Z</time></trkpt>
<trkpt lat="47.703819" lon="10.936861"><ele>861.0</ele><time>2017-03-04T22:34:44Z</time></trkpt>
<trkpt lat="47.703811" lon="10.936446"><ele>856.0</ele><time>2017-03-04T22:34:47Z</time></trkpt>
<trkpt lat="47.70383" lon="10.936115"><ele>856.0</ele><time>2017-03-04T22:34:48Z</time></trkpt>
<trkpt lat="47.703889" lon="10.935746"><ele>850.0</ele><time>2017-03-04T22:34:50Z</time></trkpt>
<trkpt lat="47.703976" lon="10.935387"><ele>850.0</ele><time>2017-03-04T22:34:52Z</time></trkpt>
<trkpt lat="47.704396" lon="10.934298"><ele>861.0</ele><time>2017-03-04T22:34:58Z</time></trkpt>
<trkpt lat="47.704505" lon="10.933881"><ele>856.0</ele><time>2017-03-04T22:35:01Z</time></trkpt>
<trkpt lat="47.704548" lon="10.933551"><ele>856.0</ele><time>2017-03-04T22:35:02Z</time></trkpt>
<trkpt lat="47.7046" lon="10.932171"><ele>848.0</ele><time>2017-03-04T22:35:09Z</time></trkpt>
<trkpt lat="47.704623" lon="10.93192"><ele>848.0</ele><time>2017-03-04T22:35:11Z</time></trkpt>
<trkpt lat="47.70484" lon="10.930722"><ele>838.0</ele><time>2017-03-04T22:35:17Z</time></trkpt>
<trkpt lat="47.704872" lon="10.930446"><ele>838.0</ele><time>2017-03-04T22:35:18Z</time></trkpt>
<trkpt lat="47.704872" lon="10.929927"><ele>835.0</ele><time>2017-03-04T22:35:21Z</time></trkpt>
<trkpt lat="47.704834" lon="10.929589"><ele>835.0</ele><time>2017-03-04T22:35:23Z</time></trkpt>
<trkpt lat="47.704784" lon="10.929306"><ele>835.0</ele><time>2017-03-04T22:35:24Z</time></trkpt>
<trkpt lat="47.704607" lon="10.928506"><ele>833.0</ele><time>2017-03-04T22:35:28Z</time></trkpt>
<trkpt lat="47.704457" lon="10.927736"><ele>835.0</ele><time>2017-03-04T22:35:33Z</time></trkpt>
<trkpt lat="47.704397" lon="10.927199"><ele>840.0</ele><time>2017-03-04T22:35:35Z</time></trkpt>
<trkpt lat="47.704389" lon="10.926824"><ele>840.0</ele><time>2017-03-04T22:35:37Z</time></trkpt>
<trkpt lat="47.7044" lon="10.926441"><ele>844.0</ele><time>2017-03-04T22:35:39Z</time></trkpt>
<trkpt lat="47.704468" lon="10.925474"><ele>847.0</ele><time>2017-03-04T22:35:44Z</time></trkpt>
<trkpt lat="47.70447" lon="10.925186"><ele>847.0</ele><time>2017-03-04T22:35:46Z</time></trkpt>
<trkpt lat="47.704439" lon="10.924848"><ele>852.0</ele><time>2017-03-04T22:35:47Z</time></trkpt>
<trkpt lat="47.704325" lon="10.924275"><ele>852.0</ele><time>2017-03-04T22:35:50Z</time></trkpt>
<trkpt lat="47.704095" lon="10.923434"><ele>840.0</ele><time>2017-03-04T22:35:55Z</time></trkpt>
<trkpt lat="47.704012" lon="10.923061"><ele>842.0</ele><time>2017-03-04T22:35:57Z</time></trkpt>
<trkpt lat="47.703966" lon="10.922652"><ele>842.0</ele><time>2017-03-04T22:35:59Z</time></trkpt>
<trkpt lat="47.703963" lon="10.922223"><ele>840.0</ele><time>2017-03-04T22:36:01Z</time></trkpt>
<trkpt lat="47.704001" lon="10.921772"><ele>840.0</ele><time>2017-03-04T22:36:03Z</time></trkpt>
<trkpt lat="47.704125" lon="10.921027"><ele>840.0</ele><time>2017-03-04T22:36:07Z</time></trkpt>
<trkpt lat="47.70429" lon="10.920163"><ele>854.0</ele><time>2017-03-04T22:36:12Z</time></trkpt>
<trkpt lat="47.704354" lon="10.919674"><ele>858.0</ele><time>2017-03-04T22:36:15Z</time></trkpt>
<trkpt lat="47.704391" lon="10.918939"><ele>863.0</ele><time>2017-03-04T22:36:18Z</time></trkpt>
<trkpt lat="47.704382" lon="10.918616"><ele>863.0</ele><time>2017-03-04T22:36:20Z</time></trkpt>
<trkpt lat="47.704348" lon="10.918169"><ele>869.0</ele><time>2017-03-04T22:36:22Z</time></trkpt>
<trkpt lat="47.704279" lon="10.917643"><ele>869.0</ele><time>2017-03-04T22:36:25Z</time></trkpt>
<trkpt lat="47.70376" lon="10.91514"><ele>848.0</ele><time>2017-03-04T22:36:38Z</time></trkpt>
<trkpt lat="47.703597" lon="10.914155"><ele>866.0</ele><time>2017-03-04T22:36:43Z</time></trkpt>
<trkpt lat="47.703537" lon="10.913659"><ele>866.0</ele><time>2017-03-04T22:36:46Z</time></trkpt>
<trkpt lat="47.703473" lon="10.91251"><ele>871.0</ele><time>2017-03-04T22:36:52Z</time></trkpt>
<trkpt lat="47.70338" lon="10.909274"><ele>867.0</ele><time>2017-03-04T22:37:08Z</time></trkpt>
<trkpt lat="47.703301" lon="10.908362"><ele>862.0</ele><time>2017-03-04T22:37:13Z</time></trkpt>
<trkpt lat="47.703252" lon="10.907996"><ele>866.0</ele><time>2017-03-04T22:37:15Z</time></trkpt>
<trkpt lat="47.703149" lon="10.90757"><ele>866.0</ele><time>2017-03-04T22:37:17Z</time></trkpt>
<trkpt lat="47.702997" lon="10.907052"><ele>870.0</ele><time>2017-03-04T22:37:20Z</time></trkpt>
<trkpt lat="47.702854" lon="10.906648"><ele>873.0</ele><time>2017-03-04T22:37:22Z</time></trkpt>
<trkpt lat="47.702465" lon="10.905775"><ele>860.0</ele><time>2017-03-04T22:37:28Z</time></trkpt>
<trkpt lat="47.702212" lon="10.905146"><ele>860.0</ele><time>2017-03-04T22:37:31Z</time></trkpt>
<trkpt lat="47.702088" lon="10.904718"><ele>861.0</ele><time>2017-03-04T22:37:34Z</time></trkpt>
<trkpt lat="47.701983" lon="10.904117"><ele>866.0</ele><time>2017-03-04T22:37:37Z</time></trkpt>
<trkpt lat="47.701966" lon="10.903758"><ele>866.0</ele><time>2017-03-04T22:37:39Z</time></trkpt>
<trkpt lat="47.701978" lon="10.903262"><ele>872.0</ele><time>2017-03-04T22:37:41Z</time></trkpt>
<trkpt lat="47.702138" lon="10.901233"><ele>864.0</ele><time>2017-03-04T22:37:51Z</time></trkpt>
<trkpt lat="47.702179" lon="10.900877"><ele>864.0</ele><time>2017-03-04T22:37:53Z</time></trkpt>
<trkpt lat="47.702257" lon="10.900415"><ele>861.0</ele><time>2017-03-04T22:37:56Z</time></trkpt>
<trkpt lat="47.702635" lon="10.89881"><ele>864.0</ele><time>2017-03-04T22:38:04Z</time></trkpt>
<trkpt lat="47.70269" lon="10.898509"><ele>864.0</ele><time>2017-03-04T22:38:06Z</time></trkpt>
<trkpt lat="47.702722" lon="10.898226"><ele>856.0</ele><time>2017-03-04T22:38:07Z</time></trkpt>
<trkpt lat="47.702744" lon="10.897827"><ele>856.0</ele><time>2017-03-04T22:38:09Z</time></trkpt>
<trkpt lat="47.702757" lon="10.897228"><ele>858.0</ele><time>2017-03-04T22:38:12Z</time></trkpt>
<trkpt lat="47.702746" lon="10.89642"><ele>863.0</ele><time>2017-03-04T22:38:16Z</time></trkpt>
<trkpt lat="47.702759" lon="10.894564"><ele>863.0</ele><time>2017-03-04T22:38:26Z</time></trkpt>
<trkpt lat="47.702751" lon="10.893109"><ele>859.0</ele><time>2017-03-04T22:38:33Z</time></trkpt>
<trkpt lat="47.702721" lon="10.892571"><ele>859.0</ele><time>2017-03-04T22:38:36Z</time></trkpt>
<trkpt lat="47.702569" lon="10.891156"><ele>859.0</ele><time>2017-03-04T22:38:43Z</time></trkpt>
<trkpt lat="47.7025" lon="10.889555"><ele>861.0</ele><time>2017-03-04T22:38:51Z</time></trkpt>
<trkpt lat="47.702463" lon="10.889215"><ele>849.0</ele><time>2017-03-04T22:38:53Z</time></trkpt>
<trkpt lat="47.702347" lon="10.888601"><ele>846.0</ele><time>2017-03-04T22:38:56Z</time></trkpt>
<trkpt lat="47.702234" lon="10.887894"><ele>842.0</ele><time>2017-03-04T22:39:00Z</time></trkpt>
<trkpt lat="47.702212" lon="10.887654"><ele>842.0</ele><time>2017-03-04T22:39:01Z</time></trkpt>
<trkpt lat="47.702232" lon="10.887465"><ele>837.0</ele><time>2017-03-04T22:39:02Z</time></trkpt>
<trkpt lat="47.702359" lon="10.887074"><ele>837.0</ele><time>2017-03-04T22:39:05Z</time></trkpt>
<trkpt lat="47.702751" lon="10.886264"><ele>834.0</ele><time>2017-03-04T22:39:10Z</time></trkpt>
<trkpt lat="47.702846" lon="10.885958"><ele>834.0</ele><time>2017-03-04T22:39:11Z</time></trkpt>
<trkpt lat="47.70291" lon="10.88566"><ele>830.0</ele><time>2017-03-04T22:39:13Z</time></trkpt>
<trkpt lat="47.702936" lon="10.88527"><ele>830.0</ele><time>2017-03-04T22:39:15Z</time></trkpt>
<trkpt lat="47.702929" lon="10.884988"><ele>829.0</ele><time>2017-03-04T22:39:16Z</time></trkpt>
<trkpt lat="47.702885" lon="10.884697"><ele>829.0</ele><time>2017-03-04T22:39:18Z</time></trkpt>
<trkpt lat="47.702763" lon="10.884211"><ele>829.0</ele><time>2017-03-04T22:39:20Z</time></trkpt>
<trkpt lat="47.702656" lon="10.883559"><ele>830.0</ele><time>2017-03-04T22:39:24Z</time></trkpt>
<trkpt lat="47.70264" lon="10.883309"><ele>826.0</ele><time>2017-03-04T22:39:25Z</time></trkpt>
<trkpt lat="47.702647" lon="10.883018"><ele>826.0</ele><time>2017-03-04T22:39:27Z</time></trkpt>
<trkpt lat="47.702725" lon="10.881967"><ele>820.0</ele><time>2017-03-04T22:39:32Z</time></trkpt>
<trkpt lat="47.702691" lon="10.881377"><ele>825.0</ele><time>2017-03-04T22:39:35Z</time></trkpt>
<trkpt lat="47.702651" lon="10.88108"><ele>825.0</ele><time>2017-03-04T22:39:36Z</time></trkpt>
<trkpt lat="47.701894" lon="10.87822"><ele>812.0</ele><time>2017-03-04T22:39:52Z</time></trkpt>
<trkpt lat="47.701872" lon="10.877983"><ele>812.0</ele><time>2017-03-04T22:39:53Z</time></trkpt>
<trkpt lat="47.701871" lon="10.877679"><ele>812.0</ele><time>2017-03-04T22:39:55Z</time></trkpt>
<trkpt lat="47.70191" lon="10.87721"><ele>803.0</ele><time>2017-03-04T22:39:57Z</time></trkpt>
<trkpt lat="47.702062" lon="10.876313"><ele>797.0</ele><time>2017-03-04T22:40:02Z</time></trkpt>
<trkpt lat="47.702093" lon="10.875958"><ele>797.0</ele><time>2017-03-04T22:40:04Z</time></trkpt>
<trkpt lat="47.702111" lon="10.875574"><ele>799.0</ele><time>2017-03-04T22:40:06Z</time></trkpt>
<trkpt lat="47.702078" lon="10.874444"><ele>802.0</ele><time>2017-03-04T22:40:11Z</time></trkpt>
<trkpt lat="47.702093" lon="10.874157"><ele>794.0</ele><time>2017-03-04T22:40:13Z</time></trkpt>
<trkpt lat="47.702256" lon="10.873297"><ele>784.0</ele><time>2017-03-04T22:40:17Z</time></trkpt>
<trkpt lat="47.702657" lon="10.871712"><ele>779.0</ele><time>2017-03-04T22:40:26Z</time></trkpt>
<trkpt lat="47.702808" lon="10.871339"><ele>774.0</ele><time>2017-03-04T22:40:28Z</time></trkpt>
<trkpt lat="47.702954" lon="10.871072"><ele>774.0</ele><time>2017-03-04T22:40:30Z</time></trkpt>
<trkpt lat="47.703317" lon="10.870521"><ele>773.0</ele><time>2017-03-04T22:40:34Z</time></trkpt>
<trkpt lat="47.703584" lon="10.87006"><ele>772.0</ele><time>2017-03-04T22:40:37Z</time></trkpt>
<trkpt lat="47.70377" lon="10.869623"><ele>771.0</ele><time>2017-03-04T22:40:40Z</time></trkpt>
<trkpt lat="47.703928" lon="10.869153"><ele>769.0</ele><time>2017-03-04T22:40:42Z</time></trkpt>
<trkpt lat="47.704057" lon="10.868712"><ele>769.0</ele><time>2017-03-04T22:40:45Z</time></trkpt>
<trkpt lat="47.704094" lon="10.868521"><ele>769.0</ele><time>2017-03-04T22:40:46Z</time></trkpt>
<trkpt lat="47.70412" lon="10.868197"><ele>766.0</ele><time>2017-03-04T22:40:47Z</time></trkpt>
<trkpt lat="47.704137" lon="10.866718"><ele>767.0</ele><time>2017-03-04T22:40:55Z</time></trkpt>
<trkpt lat="47.704131" lon="10.86614"><ele>765.0</ele><time>2017-03-04T22:40:58Z</time></trkpt>
<trkpt lat="47.70402" lon="10.865114"><ele>764.0</ele><time>2017-03-04T22:41:03Z</time></trkpt>
<trkpt lat="47.703963" lon="10.864772"><ele>763.0</ele><time>2017-03-04T22:41:05Z</time></trkpt>
<trkpt lat="47.703902" lon="10.864535"><ele>763.0</ele><time>2017-03-04T22:41:06Z</time></trkpt>
<trkpt lat="47.703867" lon="10.864371"><ele>763.0</ele><time>2017-03-04T22:41:09Z</time></trkpt>
<trkpt lat="47.703852" lon="10.864157"><ele>764.0</ele><time>2017-03-04T22:41:10Z</time></trkpt>
<trkpt lat="47.703889" lon="10.862813"><ele>763.0</ele><time>2017-03-04T22:41:20Z</time></trkpt>
<trkpt lat="47.703896" lon="10.86266"><ele>761.5</ele><time>2017-03-04T22:41:22Z</time></trkpt>
</trkseg>
</trk>
</gpx>